<?xml version="1.0" encoding="UTF-8" standalone="no" ?>
<gpx xmlns="http://www.topografix.com/GPX/1/1" xmlns:xsi="http://www.w3.org/2001/XMLSchema-instance" xsi:schemaLocation="http://www.topografix.com/GPX/1/1 http://www.topografix.com/GPX/1/1/gpx.xsd" version="1.1" creator="VisuGPX - https://www.visugpx.com">
  <metadata>
    <name>Aller retour Laragne Laborel</name>
    <desc><![CDATA[Départ de Laragne pour Laborel via Saléon Lagrand Orpierre Les Begües ; puis retour à Laragne]]></desc>
  </metadata>
  <trk>
    <name><![CDATA[Aller retour Laragne Laborel_1]]></name>
    <trkseg>
      <trkpt lat="44.31605" lon="5.82969">
        <ele>576</ele>
        <time>2019-03-08T12:49:47Z</time>
      </trkpt>
      <trkpt lat="44.31587" lon="5.82937">
        <ele>575</ele>
        <time>2019-03-08T12:50:22Z</time>
      </trkpt>
      <trkpt lat="44.31585" lon="5.82934">
        <ele>575</ele>
        <time>2019-03-08T12:50:23Z</time>
      </trkpt>
      <trkpt lat="44.31581" lon="5.82932">
        <ele>575</ele>
        <time>2019-03-08T12:50:24Z</time>
      </trkpt>
      <trkpt lat="44.31578" lon="5.82929">
        <ele>574</ele>
        <time>2019-03-08T12:50:25Z</time>
      </trkpt>
      <trkpt lat="44.31575" lon="5.82927">
        <ele>574</ele>
        <time>2019-03-08T12:50:26Z</time>
      </trkpt>
      <trkpt lat="44.31571" lon="5.82924">
        <ele>574</ele>
        <time>2019-03-08T12:50:27Z</time>
      </trkpt>
      <trkpt lat="44.31567" lon="5.82922">
        <ele>574</ele>
        <time>2019-03-08T12:50:28Z</time>
      </trkpt>
      <trkpt lat="44.31562" lon="5.8292">
        <ele>573</ele>
        <time>2019-03-08T12:50:29Z</time>
      </trkpt>
      <trkpt lat="44.31559" lon="5.82917">
        <ele>573</ele>
        <time>2019-03-08T12:50:30Z</time>
      </trkpt>
      <trkpt lat="44.31556" lon="5.82915">
        <ele>573</ele>
        <time>2019-03-08T12:50:31Z</time>
      </trkpt>
      <trkpt lat="44.31553" lon="5.82913">
        <ele>573</ele>
        <time>2019-03-08T12:50:32Z</time>
      </trkpt>
      <trkpt lat="44.3155" lon="5.82911">
        <ele>573</ele>
        <time>2019-03-08T12:50:33Z</time>
      </trkpt>
      <trkpt lat="44.31548" lon="5.82909">
        <ele>573</ele>
        <time>2019-03-08T12:50:34Z</time>
      </trkpt>
      <trkpt lat="44.31545" lon="5.82906">
        <ele>572</ele>
        <time>2019-03-08T12:50:35Z</time>
      </trkpt>
      <trkpt lat="44.31543" lon="5.82903">
        <ele>572</ele>
        <time>2019-03-08T12:50:36Z</time>
      </trkpt>
      <trkpt lat="44.31539" lon="5.829">
        <ele>572</ele>
        <time>2019-03-08T12:50:37Z</time>
      </trkpt>
      <trkpt lat="44.31536" lon="5.82897">
        <ele>572</ele>
        <time>2019-03-08T12:50:38Z</time>
      </trkpt>
      <trkpt lat="44.31533" lon="5.82894">
        <ele>572</ele>
        <time>2019-03-08T12:50:39Z</time>
      </trkpt>
      <trkpt lat="44.3153" lon="5.82891">
        <ele>572</ele>
        <time>2019-03-08T12:50:40Z</time>
      </trkpt>
      <trkpt lat="44.31527" lon="5.82888">
        <ele>572</ele>
        <time>2019-03-08T12:50:41Z</time>
      </trkpt>
      <trkpt lat="44.31524" lon="5.82885">
        <ele>572</ele>
        <time>2019-03-08T12:50:42Z</time>
      </trkpt>
      <trkpt lat="44.31522" lon="5.82882">
        <ele>572</ele>
        <time>2019-03-08T12:50:43Z</time>
      </trkpt>
      <trkpt lat="44.31519" lon="5.82879">
        <ele>572</ele>
        <time>2019-03-08T12:50:44Z</time>
      </trkpt>
      <trkpt lat="44.31516" lon="5.82877">
        <ele>572</ele>
        <time>2019-03-08T12:50:45Z</time>
      </trkpt>
      <trkpt lat="44.31512" lon="5.82874">
        <ele>572</ele>
        <time>2019-03-08T12:50:46Z</time>
      </trkpt>
      <trkpt lat="44.31509" lon="5.82871">
        <ele>571</ele>
        <time>2019-03-08T12:50:47Z</time>
      </trkpt>
      <trkpt lat="44.31505" lon="5.8287">
        <ele>571</ele>
        <time>2019-03-08T12:50:48Z</time>
      </trkpt>
      <trkpt lat="44.31501" lon="5.82871">
        <ele>571</ele>
        <time>2019-03-08T12:50:49Z</time>
      </trkpt>
      <trkpt lat="44.31498" lon="5.82873">
        <ele>571</ele>
        <time>2019-03-08T12:50:50Z</time>
      </trkpt>
      <trkpt lat="44.31495" lon="5.82876">
        <ele>570</ele>
        <time>2019-03-08T12:50:51Z</time>
      </trkpt>
      <trkpt lat="44.31491" lon="5.8288">
        <ele>570</ele>
        <time>2019-03-08T12:50:52Z</time>
      </trkpt>
      <trkpt lat="44.31488" lon="5.82884">
        <ele>570</ele>
        <time>2019-03-08T12:50:53Z</time>
      </trkpt>
      <trkpt lat="44.31485" lon="5.82888">
        <ele>570</ele>
        <time>2019-03-08T12:50:54Z</time>
      </trkpt>
      <trkpt lat="44.31483" lon="5.82893">
        <ele>570</ele>
        <time>2019-03-08T12:50:55Z</time>
      </trkpt>
      <trkpt lat="44.31481" lon="5.82898">
        <ele>570</ele>
        <time>2019-03-08T12:50:56Z</time>
      </trkpt>
      <trkpt lat="44.31479" lon="5.82902">
        <ele>570</ele>
        <time>2019-03-08T12:50:57Z</time>
      </trkpt>
      <trkpt lat="44.31476" lon="5.82906">
        <ele>570</ele>
        <time>2019-03-08T12:50:58Z</time>
      </trkpt>
      <trkpt lat="44.31473" lon="5.82911">
        <ele>570</ele>
        <time>2019-03-08T12:50:59Z</time>
      </trkpt>
      <trkpt lat="44.3147" lon="5.82916">
        <ele>570</ele>
        <time>2019-03-08T12:51:00Z</time>
      </trkpt>
      <trkpt lat="44.31467" lon="5.8292">
        <ele>570</ele>
        <time>2019-03-08T12:51:01Z</time>
      </trkpt>
      <trkpt lat="44.31464" lon="5.82924">
        <ele>570</ele>
        <time>2019-03-08T12:51:02Z</time>
      </trkpt>
      <trkpt lat="44.31462" lon="5.82929">
        <ele>570</ele>
        <time>2019-03-08T12:51:03Z</time>
      </trkpt>
      <trkpt lat="44.31459" lon="5.82933">
        <ele>570</ele>
        <time>2019-03-08T12:51:04Z</time>
      </trkpt>
      <trkpt lat="44.31456" lon="5.82938">
        <ele>570</ele>
        <time>2019-03-08T12:51:05Z</time>
      </trkpt>
      <trkpt lat="44.31453" lon="5.82942">
        <ele>570</ele>
        <time>2019-03-08T12:51:06Z</time>
      </trkpt>
      <trkpt lat="44.31451" lon="5.82947">
        <ele>570</ele>
        <time>2019-03-08T12:51:07Z</time>
      </trkpt>
      <trkpt lat="44.31448" lon="5.82952">
        <ele>570</ele>
        <time>2019-03-08T12:51:08Z</time>
      </trkpt>
      <trkpt lat="44.31444" lon="5.82956">
        <ele>570</ele>
        <time>2019-03-08T12:51:09Z</time>
      </trkpt>
      <trkpt lat="44.31441" lon="5.82961">
        <ele>570</ele>
        <time>2019-03-08T12:51:10Z</time>
      </trkpt>
      <trkpt lat="44.31438" lon="5.82966">
        <ele>570</ele>
        <time>2019-03-08T12:51:11Z</time>
      </trkpt>
      <trkpt lat="44.31436" lon="5.82971">
        <ele>570</ele>
        <time>2019-03-08T12:51:12Z</time>
      </trkpt>
      <trkpt lat="44.31433" lon="5.82975">
        <ele>570</ele>
        <time>2019-03-08T12:51:13Z</time>
      </trkpt>
      <trkpt lat="44.31429" lon="5.8298">
        <ele>570</ele>
        <time>2019-03-08T12:51:14Z</time>
      </trkpt>
      <trkpt lat="44.31425" lon="5.82984">
        <ele>570</ele>
        <time>2019-03-08T12:51:15Z</time>
      </trkpt>
      <trkpt lat="44.31422" lon="5.82989">
        <ele>570</ele>
        <time>2019-03-08T12:51:16Z</time>
      </trkpt>
      <trkpt lat="44.31418" lon="5.82994">
        <ele>570</ele>
        <time>2019-03-08T12:51:17Z</time>
      </trkpt>
      <trkpt lat="44.31415" lon="5.83">
        <ele>570</ele>
        <time>2019-03-08T12:51:18Z</time>
      </trkpt>
      <trkpt lat="44.31411" lon="5.83005">
        <ele>570</ele>
        <time>2019-03-08T12:51:19Z</time>
      </trkpt>
      <trkpt lat="44.31408" lon="5.83009">
        <ele>570</ele>
        <time>2019-03-08T12:51:20Z</time>
      </trkpt>
      <trkpt lat="44.31405" lon="5.83014">
        <ele>570</ele>
        <time>2019-03-08T12:51:21Z</time>
      </trkpt>
      <trkpt lat="44.31401" lon="5.83019">
        <ele>570</ele>
        <time>2019-03-08T12:51:22Z</time>
      </trkpt>
      <trkpt lat="44.31398" lon="5.83024">
        <ele>570</ele>
        <time>2019-03-08T12:51:23Z</time>
      </trkpt>
      <trkpt lat="44.31395" lon="5.83028">
        <ele>570</ele>
        <time>2019-03-08T12:51:24Z</time>
      </trkpt>
      <trkpt lat="44.31392" lon="5.83033">
        <ele>570</ele>
        <time>2019-03-08T12:51:25Z</time>
      </trkpt>
      <trkpt lat="44.3139" lon="5.83037">
        <ele>570</ele>
        <time>2019-03-08T12:51:26Z</time>
      </trkpt>
      <trkpt lat="44.31386" lon="5.83041">
        <ele>570</ele>
        <time>2019-03-08T12:51:27Z</time>
      </trkpt>
      <trkpt lat="44.31383" lon="5.83046">
        <ele>570</ele>
        <time>2019-03-08T12:51:28Z</time>
      </trkpt>
      <trkpt lat="44.31381" lon="5.83049">
        <ele>571</ele>
        <time>2019-03-08T12:51:29Z</time>
      </trkpt>
      <trkpt lat="44.31379" lon="5.83053">
        <ele>571</ele>
        <time>2019-03-08T12:51:30Z</time>
      </trkpt>
      <trkpt lat="44.31377" lon="5.83057">
        <ele>571</ele>
        <time>2019-03-08T12:51:31Z</time>
      </trkpt>
      <trkpt lat="44.31374" lon="5.83061">
        <ele>571</ele>
        <time>2019-03-08T12:51:32Z</time>
      </trkpt>
      <trkpt lat="44.31372" lon="5.83064">
        <ele>571</ele>
        <time>2019-03-08T12:51:33Z</time>
      </trkpt>
      <trkpt lat="44.3137" lon="5.83068">
        <ele>571</ele>
        <time>2019-03-08T12:51:34Z</time>
      </trkpt>
      <trkpt lat="44.31368" lon="5.83072">
        <ele>571</ele>
        <time>2019-03-08T12:51:35Z</time>
      </trkpt>
      <trkpt lat="44.31367" lon="5.83075">
        <ele>571</ele>
        <time>2019-03-08T12:51:36Z</time>
      </trkpt>
      <trkpt lat="44.31365" lon="5.83079">
        <ele>571</ele>
        <time>2019-03-08T12:51:37Z</time>
      </trkpt>
      <trkpt lat="44.31363" lon="5.83083">
        <ele>571</ele>
        <time>2019-03-08T12:51:38Z</time>
      </trkpt>
      <trkpt lat="44.31362" lon="5.83087">
        <ele>571</ele>
        <time>2019-03-08T12:51:39Z</time>
      </trkpt>
      <trkpt lat="44.31362" lon="5.8309">
        <ele>571</ele>
        <time>2019-03-08T12:51:40Z</time>
      </trkpt>
      <trkpt lat="44.3136" lon="5.83094">
        <ele>571</ele>
        <time>2019-03-08T12:51:41Z</time>
      </trkpt>
      <trkpt lat="44.31359" lon="5.83097">
        <ele>571</ele>
        <time>2019-03-08T12:51:42Z</time>
      </trkpt>
      <trkpt lat="44.31358" lon="5.831">
        <ele>571</ele>
        <time>2019-03-08T12:51:43Z</time>
      </trkpt>
      <trkpt lat="44.31356" lon="5.83102">
        <ele>571</ele>
        <time>2019-03-08T12:51:44Z</time>
      </trkpt>
      <trkpt lat="44.31353" lon="5.83104">
        <ele>571</ele>
        <time>2019-03-08T12:51:45Z</time>
      </trkpt>
      <trkpt lat="44.31351" lon="5.83104">
        <ele>571</ele>
        <time>2019-03-08T12:51:46Z</time>
      </trkpt>
      <trkpt lat="44.31349" lon="5.83103">
        <ele>571</ele>
        <time>2019-03-08T12:51:47Z</time>
      </trkpt>
      <trkpt lat="44.31347" lon="5.831">
        <ele>571</ele>
        <time>2019-03-08T12:51:48Z</time>
      </trkpt>
      <trkpt lat="44.31346" lon="5.83098">
        <ele>571</ele>
        <time>2019-03-08T12:51:49Z</time>
      </trkpt>
      <trkpt lat="44.31345" lon="5.83094">
        <ele>571</ele>
        <time>2019-03-08T12:51:50Z</time>
      </trkpt>
      <trkpt lat="44.31345" lon="5.83089">
        <ele>571</ele>
        <time>2019-03-08T12:51:51Z</time>
      </trkpt>
      <trkpt lat="44.31345" lon="5.83084">
        <ele>571</ele>
        <time>2019-03-08T12:51:52Z</time>
      </trkpt>
      <trkpt lat="44.31346" lon="5.83079">
        <ele>571</ele>
        <time>2019-03-08T12:51:53Z</time>
      </trkpt>
      <trkpt lat="44.31347" lon="5.83074">
        <ele>571</ele>
        <time>2019-03-08T12:51:54Z</time>
      </trkpt>
      <trkpt lat="44.31347" lon="5.83069">
        <ele>571</ele>
        <time>2019-03-08T12:51:55Z</time>
      </trkpt>
      <trkpt lat="44.31348" lon="5.83064">
        <ele>571</ele>
        <time>2019-03-08T12:51:56Z</time>
      </trkpt>
      <trkpt lat="44.31349" lon="5.83059">
        <ele>571</ele>
        <time>2019-03-08T12:51:57Z</time>
      </trkpt>
      <trkpt lat="44.31351" lon="5.83053">
        <ele>571</ele>
        <time>2019-03-08T12:51:58Z</time>
      </trkpt>
      <trkpt lat="44.31352" lon="5.83048">
        <ele>571</ele>
        <time>2019-03-08T12:51:59Z</time>
      </trkpt>
      <trkpt lat="44.31353" lon="5.83042">
        <ele>571</ele>
        <time>2019-03-08T12:52:00Z</time>
      </trkpt>
      <trkpt lat="44.31354" lon="5.83036">
        <ele>571</ele>
        <time>2019-03-08T12:52:01Z</time>
      </trkpt>
      <trkpt lat="44.31355" lon="5.8303">
        <ele>570</ele>
        <time>2019-03-08T12:52:02Z</time>
      </trkpt>
      <trkpt lat="44.31356" lon="5.83024">
        <ele>570</ele>
        <time>2019-03-08T12:52:03Z</time>
      </trkpt>
      <trkpt lat="44.31357" lon="5.83018">
        <ele>570</ele>
        <time>2019-03-08T12:52:04Z</time>
      </trkpt>
      <trkpt lat="44.31358" lon="5.83011">
        <ele>570</ele>
        <time>2019-03-08T12:52:05Z</time>
      </trkpt>
      <trkpt lat="44.31359" lon="5.83005">
        <ele>569</ele>
        <time>2019-03-08T12:52:06Z</time>
      </trkpt>
      <trkpt lat="44.3136" lon="5.82999">
        <ele>569</ele>
        <time>2019-03-08T12:52:07Z</time>
      </trkpt>
      <trkpt lat="44.31361" lon="5.82992">
        <ele>569</ele>
        <time>2019-03-08T12:52:08Z</time>
      </trkpt>
      <trkpt lat="44.31362" lon="5.82985">
        <ele>569</ele>
        <time>2019-03-08T12:52:09Z</time>
      </trkpt>
      <trkpt lat="44.31363" lon="5.82978">
        <ele>568</ele>
        <time>2019-03-08T12:52:10Z</time>
      </trkpt>
      <trkpt lat="44.31364" lon="5.82971">
        <ele>568</ele>
        <time>2019-03-08T12:52:11Z</time>
      </trkpt>
      <trkpt lat="44.31365" lon="5.82964">
        <ele>568</ele>
        <time>2019-03-08T12:52:12Z</time>
      </trkpt>
      <trkpt lat="44.31366" lon="5.82956">
        <ele>567</ele>
        <time>2019-03-08T12:52:13Z</time>
      </trkpt>
      <trkpt lat="44.31366" lon="5.82949">
        <ele>567</ele>
        <time>2019-03-08T12:52:14Z</time>
      </trkpt>
      <trkpt lat="44.31367" lon="5.82942">
        <ele>566</ele>
        <time>2019-03-08T12:52:15Z</time>
      </trkpt>
      <trkpt lat="44.31368" lon="5.82935">
        <ele>566</ele>
        <time>2019-03-08T12:52:16Z</time>
      </trkpt>
      <trkpt lat="44.31369" lon="5.82927">
        <ele>566</ele>
        <time>2019-03-08T12:52:17Z</time>
      </trkpt>
      <trkpt lat="44.31371" lon="5.8292">
        <ele>566</ele>
        <time>2019-03-08T12:52:18Z</time>
      </trkpt>
      <trkpt lat="44.31372" lon="5.82913">
        <ele>565</ele>
        <time>2019-03-08T12:52:19Z</time>
      </trkpt>
      <trkpt lat="44.31373" lon="5.82905">
        <ele>565</ele>
        <time>2019-03-08T12:52:20Z</time>
      </trkpt>
      <trkpt lat="44.31374" lon="5.82898">
        <ele>565</ele>
        <time>2019-03-08T12:52:21Z</time>
      </trkpt>
      <trkpt lat="44.31374" lon="5.8289">
        <ele>565</ele>
        <time>2019-03-08T12:52:22Z</time>
      </trkpt>
      <trkpt lat="44.31375" lon="5.82882">
        <ele>565</ele>
        <time>2019-03-08T12:52:23Z</time>
      </trkpt>
      <trkpt lat="44.31376" lon="5.82874">
        <ele>565</ele>
        <time>2019-03-08T12:52:24Z</time>
      </trkpt>
      <trkpt lat="44.31376" lon="5.82866">
        <ele>565</ele>
        <time>2019-03-08T12:52:25Z</time>
      </trkpt>
      <trkpt lat="44.31377" lon="5.82859">
        <ele>565</ele>
        <time>2019-03-08T12:52:26Z</time>
      </trkpt>
      <trkpt lat="44.31377" lon="5.82851">
        <ele>565</ele>
        <time>2019-03-08T12:52:27Z</time>
      </trkpt>
      <trkpt lat="44.31377" lon="5.82843">
        <ele>565</ele>
        <time>2019-03-08T12:52:28Z</time>
      </trkpt>
      <trkpt lat="44.31378" lon="5.82835">
        <ele>565</ele>
        <time>2019-03-08T12:52:29Z</time>
      </trkpt>
      <trkpt lat="44.31379" lon="5.82828">
        <ele>565</ele>
        <time>2019-03-08T12:52:30Z</time>
      </trkpt>
      <trkpt lat="44.3138" lon="5.8282">
        <ele>565</ele>
        <time>2019-03-08T12:52:31Z</time>
      </trkpt>
      <trkpt lat="44.3138" lon="5.82812">
        <ele>565</ele>
        <time>2019-03-08T12:52:32Z</time>
      </trkpt>
      <trkpt lat="44.3138" lon="5.82804">
        <ele>565</ele>
        <time>2019-03-08T12:52:33Z</time>
      </trkpt>
      <trkpt lat="44.31381" lon="5.82797">
        <ele>565</ele>
        <time>2019-03-08T12:52:34Z</time>
      </trkpt>
      <trkpt lat="44.31381" lon="5.82789">
        <ele>565</ele>
        <time>2019-03-08T12:52:35Z</time>
      </trkpt>
      <trkpt lat="44.31381" lon="5.82781">
        <ele>565</ele>
        <time>2019-03-08T12:52:36Z</time>
      </trkpt>
      <trkpt lat="44.31381" lon="5.82773">
        <ele>565</ele>
        <time>2019-03-08T12:52:37Z</time>
      </trkpt>
      <trkpt lat="44.3138" lon="5.82765">
        <ele>565</ele>
        <time>2019-03-08T12:52:38Z</time>
      </trkpt>
      <trkpt lat="44.3138" lon="5.82758">
        <ele>565</ele>
        <time>2019-03-08T12:52:39Z</time>
      </trkpt>
      <trkpt lat="44.3138" lon="5.82751">
        <ele>565</ele>
        <time>2019-03-08T12:52:40Z</time>
      </trkpt>
      <trkpt lat="44.3138" lon="5.82744">
        <ele>565</ele>
        <time>2019-03-08T12:52:41Z</time>
      </trkpt>
      <trkpt lat="44.31379" lon="5.82737">
        <ele>565</ele>
        <time>2019-03-08T12:52:42Z</time>
      </trkpt>
      <trkpt lat="44.31379" lon="5.8273">
        <ele>565</ele>
        <time>2019-03-08T12:52:43Z</time>
      </trkpt>
      <trkpt lat="44.31379" lon="5.82724">
        <ele>565</ele>
        <time>2019-03-08T12:52:44Z</time>
      </trkpt>
      <trkpt lat="44.31378" lon="5.82718">
        <ele>565</ele>
        <time>2019-03-08T12:52:45Z</time>
      </trkpt>
      <trkpt lat="44.31377" lon="5.82712">
        <ele>565</ele>
        <time>2019-03-08T12:52:46Z</time>
      </trkpt>
      <trkpt lat="44.31376" lon="5.82705">
        <ele>565</ele>
        <time>2019-03-08T12:52:47Z</time>
      </trkpt>
      <trkpt lat="44.31375" lon="5.827">
        <ele>565</ele>
        <time>2019-03-08T12:52:48Z</time>
      </trkpt>
      <trkpt lat="44.31374" lon="5.82694">
        <ele>565</ele>
        <time>2019-03-08T12:52:49Z</time>
      </trkpt>
      <trkpt lat="44.31372" lon="5.8269">
        <ele>565</ele>
        <time>2019-03-08T12:52:50Z</time>
      </trkpt>
      <trkpt lat="44.31369" lon="5.82686">
        <ele>565</ele>
        <time>2019-03-08T12:52:51Z</time>
      </trkpt>
      <trkpt lat="44.31365" lon="5.82682">
        <ele>565</ele>
        <time>2019-03-08T12:52:52Z</time>
      </trkpt>
      <trkpt lat="44.31361" lon="5.8268">
        <ele>565</ele>
        <time>2019-03-08T12:52:53Z</time>
      </trkpt>
      <trkpt lat="44.31357" lon="5.82678">
        <ele>565</ele>
        <time>2019-03-08T12:52:54Z</time>
      </trkpt>
      <trkpt lat="44.31353" lon="5.82676">
        <ele>565</ele>
        <time>2019-03-08T12:52:55Z</time>
      </trkpt>
      <trkpt lat="44.31348" lon="5.82674">
        <ele>565</ele>
        <time>2019-03-08T12:52:56Z</time>
      </trkpt>
      <trkpt lat="44.31344" lon="5.82672">
        <ele>565</ele>
        <time>2019-03-08T12:52:57Z</time>
      </trkpt>
      <trkpt lat="44.31339" lon="5.82669">
        <ele>565</ele>
        <time>2019-03-08T12:52:58Z</time>
      </trkpt>
      <trkpt lat="44.31335" lon="5.82667">
        <ele>565</ele>
        <time>2019-03-08T12:52:59Z</time>
      </trkpt>
      <trkpt lat="44.3133" lon="5.82665">
        <ele>565</ele>
        <time>2019-03-08T12:53:00Z</time>
      </trkpt>
      <trkpt lat="44.31325" lon="5.82662">
        <ele>565</ele>
        <time>2019-03-08T12:53:01Z</time>
      </trkpt>
      <trkpt lat="44.3132" lon="5.82659">
        <ele>565</ele>
        <time>2019-03-08T12:53:02Z</time>
      </trkpt>
      <trkpt lat="44.31315" lon="5.82656">
        <ele>565</ele>
        <time>2019-03-08T12:53:03Z</time>
      </trkpt>
      <trkpt lat="44.31309" lon="5.82652">
        <ele>565</ele>
        <time>2019-03-08T12:53:04Z</time>
      </trkpt>
      <trkpt lat="44.31303" lon="5.82648">
        <ele>565</ele>
        <time>2019-03-08T12:53:05Z</time>
      </trkpt>
      <trkpt lat="44.31296" lon="5.82643">
        <ele>565</ele>
        <time>2019-03-08T12:53:06Z</time>
      </trkpt>
      <trkpt lat="44.31289" lon="5.82639">
        <ele>565</ele>
        <time>2019-03-08T12:53:07Z</time>
      </trkpt>
      <trkpt lat="44.31282" lon="5.82634">
        <ele>565</ele>
        <time>2019-03-08T12:53:08Z</time>
      </trkpt>
      <trkpt lat="44.31274" lon="5.8263">
        <ele>565</ele>
        <time>2019-03-08T12:53:09Z</time>
      </trkpt>
      <trkpt lat="44.31266" lon="5.82625">
        <ele>564</ele>
        <time>2019-03-08T12:53:10Z</time>
      </trkpt>
      <trkpt lat="44.31258" lon="5.82621">
        <ele>564</ele>
        <time>2019-03-08T12:53:11Z</time>
      </trkpt>
      <trkpt lat="44.31251" lon="5.82617">
        <ele>564</ele>
        <time>2019-03-08T12:53:12Z</time>
      </trkpt>
      <trkpt lat="44.31243" lon="5.82612">
        <ele>563</ele>
        <time>2019-03-08T12:53:13Z</time>
      </trkpt>
      <trkpt lat="44.31235" lon="5.82608">
        <ele>563</ele>
        <time>2019-03-08T12:53:14Z</time>
      </trkpt>
      <trkpt lat="44.31228" lon="5.82603">
        <ele>563</ele>
        <time>2019-03-08T12:53:15Z</time>
      </trkpt>
      <trkpt lat="44.31221" lon="5.82599">
        <ele>562</ele>
        <time>2019-03-08T12:53:16Z</time>
      </trkpt>
      <trkpt lat="44.31213" lon="5.82595">
        <ele>562</ele>
        <time>2019-03-08T12:53:17Z</time>
      </trkpt>
      <trkpt lat="44.31206" lon="5.82591">
        <ele>562</ele>
        <time>2019-03-08T12:53:18Z</time>
      </trkpt>
      <trkpt lat="44.31199" lon="5.82587">
        <ele>561</ele>
        <time>2019-03-08T12:53:19Z</time>
      </trkpt>
      <trkpt lat="44.31192" lon="5.82583">
        <ele>561</ele>
        <time>2019-03-08T12:53:20Z</time>
      </trkpt>
      <trkpt lat="44.31185" lon="5.8258">
        <ele>561</ele>
        <time>2019-03-08T12:53:21Z</time>
      </trkpt>
      <trkpt lat="44.31179" lon="5.82576">
        <ele>561</ele>
        <time>2019-03-08T12:53:22Z</time>
      </trkpt>
      <trkpt lat="44.31172" lon="5.82572">
        <ele>561</ele>
        <time>2019-03-08T12:53:23Z</time>
      </trkpt>
      <trkpt lat="44.31165" lon="5.82569">
        <ele>561</ele>
        <time>2019-03-08T12:53:24Z</time>
      </trkpt>
      <trkpt lat="44.31159" lon="5.82565">
        <ele>560</ele>
        <time>2019-03-08T12:53:25Z</time>
      </trkpt>
      <trkpt lat="44.31153" lon="5.82562">
        <ele>560</ele>
        <time>2019-03-08T12:53:26Z</time>
      </trkpt>
      <trkpt lat="44.31147" lon="5.82559">
        <ele>560</ele>
        <time>2019-03-08T12:53:27Z</time>
      </trkpt>
      <trkpt lat="44.31141" lon="5.82555">
        <ele>560</ele>
        <time>2019-03-08T12:53:28Z</time>
      </trkpt>
      <trkpt lat="44.31135" lon="5.82552">
        <ele>560</ele>
        <time>2019-03-08T12:53:29Z</time>
      </trkpt>
      <trkpt lat="44.3113" lon="5.82549">
        <ele>560</ele>
        <time>2019-03-08T12:53:30Z</time>
      </trkpt>
      <trkpt lat="44.31124" lon="5.82546">
        <ele>560</ele>
        <time>2019-03-08T12:53:31Z</time>
      </trkpt>
      <trkpt lat="44.31119" lon="5.82543">
        <ele>560</ele>
        <time>2019-03-08T12:53:32Z</time>
      </trkpt>
      <trkpt lat="44.31113" lon="5.8254">
        <ele>560</ele>
        <time>2019-03-08T12:53:33Z</time>
      </trkpt>
      <trkpt lat="44.31108" lon="5.82537">
        <ele>560</ele>
        <time>2019-03-08T12:53:34Z</time>
      </trkpt>
      <trkpt lat="44.31103" lon="5.82534">
        <ele>560</ele>
        <time>2019-03-08T12:53:35Z</time>
      </trkpt>
      <trkpt lat="44.31098" lon="5.82531">
        <ele>560</ele>
        <time>2019-03-08T12:53:36Z</time>
      </trkpt>
      <trkpt lat="44.31093" lon="5.82528">
        <ele>560</ele>
        <time>2019-03-08T12:53:37Z</time>
      </trkpt>
      <trkpt lat="44.31089" lon="5.82525">
        <ele>560</ele>
        <time>2019-03-08T12:53:38Z</time>
      </trkpt>
      <trkpt lat="44.31084" lon="5.82521">
        <ele>560</ele>
        <time>2019-03-08T12:53:39Z</time>
      </trkpt>
      <trkpt lat="44.31081" lon="5.82517">
        <ele>560</ele>
        <time>2019-03-08T12:53:40Z</time>
      </trkpt>
      <trkpt lat="44.31078" lon="5.82512">
        <ele>560</ele>
        <time>2019-03-08T12:53:41Z</time>
      </trkpt>
      <trkpt lat="44.31075" lon="5.82506">
        <ele>560</ele>
        <time>2019-03-08T12:53:42Z</time>
      </trkpt>
      <trkpt lat="44.31073" lon="5.825">
        <ele>560</ele>
        <time>2019-03-08T12:53:43Z</time>
      </trkpt>
      <trkpt lat="44.31073" lon="5.82493">
        <ele>560</ele>
        <time>2019-03-08T12:53:44Z</time>
      </trkpt>
      <trkpt lat="44.31073" lon="5.82487">
        <ele>560</ele>
        <time>2019-03-08T12:53:45Z</time>
      </trkpt>
      <trkpt lat="44.31075" lon="5.82481">
        <ele>560</ele>
        <time>2019-03-08T12:53:46Z</time>
      </trkpt>
      <trkpt lat="44.31077" lon="5.82476">
        <ele>560</ele>
        <time>2019-03-08T12:53:47Z</time>
      </trkpt>
      <trkpt lat="44.31079" lon="5.82471">
        <ele>560</ele>
        <time>2019-03-08T12:53:48Z</time>
      </trkpt>
      <trkpt lat="44.31081" lon="5.82466">
        <ele>560</ele>
        <time>2019-03-08T12:53:49Z</time>
      </trkpt>
      <trkpt lat="44.31083" lon="5.82461">
        <ele>560</ele>
        <time>2019-03-08T12:53:50Z</time>
      </trkpt>
      <trkpt lat="44.31085" lon="5.82457">
        <ele>560</ele>
        <time>2019-03-08T12:53:51Z</time>
      </trkpt>
      <trkpt lat="44.31087" lon="5.82453">
        <ele>560</ele>
        <time>2019-03-08T12:53:52Z</time>
      </trkpt>
      <trkpt lat="44.31089" lon="5.82449">
        <ele>560</ele>
        <time>2019-03-08T12:53:53Z</time>
      </trkpt>
      <trkpt lat="44.31091" lon="5.82445">
        <ele>560</ele>
        <time>2019-03-08T12:53:54Z</time>
      </trkpt>
      <trkpt lat="44.31093" lon="5.82441">
        <ele>560</ele>
        <time>2019-03-08T12:53:55Z</time>
      </trkpt>
      <trkpt lat="44.31095" lon="5.82437">
        <ele>560</ele>
        <time>2019-03-08T12:53:56Z</time>
      </trkpt>
      <trkpt lat="44.31097" lon="5.82432">
        <ele>560</ele>
        <time>2019-03-08T12:53:57Z</time>
      </trkpt>
      <trkpt lat="44.311" lon="5.82427">
        <ele>560</ele>
        <time>2019-03-08T12:53:58Z</time>
      </trkpt>
      <trkpt lat="44.31102" lon="5.82421">
        <ele>560</ele>
        <time>2019-03-08T12:53:59Z</time>
      </trkpt>
      <trkpt lat="44.31105" lon="5.82415">
        <ele>560</ele>
        <time>2019-03-08T12:54:00Z</time>
      </trkpt>
      <trkpt lat="44.31108" lon="5.82409">
        <ele>560</ele>
        <time>2019-03-08T12:54:01Z</time>
      </trkpt>
      <trkpt lat="44.3111" lon="5.82402">
        <ele>559</ele>
        <time>2019-03-08T12:54:02Z</time>
      </trkpt>
      <trkpt lat="44.31111" lon="5.82394">
        <ele>559</ele>
        <time>2019-03-08T12:54:03Z</time>
      </trkpt>
      <trkpt lat="44.31111" lon="5.82385">
        <ele>559</ele>
        <time>2019-03-08T12:54:04Z</time>
      </trkpt>
      <trkpt lat="44.31111" lon="5.82377">
        <ele>558</ele>
        <time>2019-03-08T12:54:05Z</time>
      </trkpt>
      <trkpt lat="44.31111" lon="5.82369">
        <ele>558</ele>
        <time>2019-03-08T12:54:06Z</time>
      </trkpt>
      <trkpt lat="44.31113" lon="5.82362">
        <ele>558</ele>
        <time>2019-03-08T12:54:07Z</time>
      </trkpt>
      <trkpt lat="44.31115" lon="5.82354">
        <ele>558</ele>
        <time>2019-03-08T12:54:08Z</time>
      </trkpt>
      <trkpt lat="44.31119" lon="5.82349">
        <ele>558</ele>
        <time>2019-03-08T12:54:09Z</time>
      </trkpt>
      <trkpt lat="44.31122" lon="5.82344">
        <ele>558</ele>
        <time>2019-03-08T12:54:10Z</time>
      </trkpt>
      <trkpt lat="44.31126" lon="5.82339">
        <ele>558</ele>
        <time>2019-03-08T12:54:11Z</time>
      </trkpt>
      <trkpt lat="44.31129" lon="5.82334">
        <ele>558</ele>
        <time>2019-03-08T12:54:12Z</time>
      </trkpt>
      <trkpt lat="44.31133" lon="5.8233">
        <ele>558</ele>
        <time>2019-03-08T12:54:13Z</time>
      </trkpt>
      <trkpt lat="44.31136" lon="5.82326">
        <ele>558</ele>
        <time>2019-03-08T12:54:14Z</time>
      </trkpt>
      <trkpt lat="44.31139" lon="5.82322">
        <ele>558</ele>
        <time>2019-03-08T12:54:15Z</time>
      </trkpt>
      <trkpt lat="44.31141" lon="5.82317">
        <ele>558</ele>
        <time>2019-03-08T12:54:16Z</time>
      </trkpt>
      <trkpt lat="44.31144" lon="5.82313">
        <ele>558</ele>
        <time>2019-03-08T12:54:17Z</time>
      </trkpt>
      <trkpt lat="44.31147" lon="5.8231">
        <ele>558</ele>
        <time>2019-03-08T12:54:18Z</time>
      </trkpt>
      <trkpt lat="44.31149" lon="5.82306">
        <ele>558</ele>
        <time>2019-03-08T12:54:19Z</time>
      </trkpt>
      <trkpt lat="44.31151" lon="5.82303">
        <ele>558</ele>
        <time>2019-03-08T12:54:20Z</time>
      </trkpt>
      <trkpt lat="44.31152" lon="5.82299">
        <ele>558</ele>
        <time>2019-03-08T12:54:21Z</time>
      </trkpt>
      <trkpt lat="44.31152" lon="5.82295">
        <ele>558</ele>
        <time>2019-03-08T12:54:22Z</time>
      </trkpt>
      <trkpt lat="44.31153" lon="5.82291">
        <ele>558</ele>
        <time>2019-03-08T12:54:23Z</time>
      </trkpt>
      <trkpt lat="44.31153" lon="5.82289">
        <ele>558</ele>
        <time>2019-03-08T12:54:24Z</time>
      </trkpt>
      <trkpt lat="44.31152" lon="5.82287">
        <ele>558</ele>
        <time>2019-03-08T12:54:25Z</time>
      </trkpt>
      <trkpt lat="44.31152" lon="5.82285">
        <ele>557</ele>
        <time>2019-03-08T12:54:27Z</time>
      </trkpt>
      <trkpt lat="44.31151" lon="5.82283">
        <ele>557</ele>
        <time>2019-03-08T12:54:33Z</time>
      </trkpt>
      <trkpt lat="44.3115" lon="5.82283">
        <ele>557</ele>
        <time>2019-03-08T12:54:37Z</time>
      </trkpt>
      <trkpt lat="44.31148" lon="5.82283">
        <ele>558</ele>
        <time>2019-03-08T12:54:42Z</time>
      </trkpt>
      <trkpt lat="44.31149" lon="5.82285">
        <ele>558</ele>
        <time>2019-03-08T12:54:51Z</time>
      </trkpt>
      <trkpt lat="44.31148" lon="5.82286">
        <ele>558</ele>
        <time>2019-03-08T12:55:05Z</time>
      </trkpt>
      <trkpt lat="44.31147" lon="5.82286">
        <ele>558</ele>
        <time>2019-03-08T12:55:10Z</time>
      </trkpt>
      <trkpt lat="44.31149" lon="5.82287">
        <ele>563</ele>
        <time>2019-03-08T12:55:31Z</time>
      </trkpt>
      <trkpt lat="44.3115" lon="5.82287">
        <ele>563</ele>
        <time>2019-03-08T12:55:44Z</time>
      </trkpt>
      <trkpt lat="44.31151" lon="5.82287">
        <ele>563</ele>
        <time>2019-03-08T12:56:43Z</time>
      </trkpt>
      <trkpt lat="44.31152" lon="5.82286">
        <ele>562</ele>
        <time>2019-03-08T12:57:08Z</time>
      </trkpt>
      <trkpt lat="44.31152" lon="5.82284">
        <ele>561</ele>
        <time>2019-03-08T12:57:35Z</time>
      </trkpt>
      <trkpt lat="44.31151" lon="5.82283">
        <ele>561</ele>
        <time>2019-03-08T12:57:36Z</time>
      </trkpt>
      <trkpt lat="44.31151" lon="5.82281">
        <ele>561</ele>
        <time>2019-03-08T12:57:37Z</time>
      </trkpt>
      <trkpt lat="44.3115" lon="5.82279">
        <ele>561</ele>
        <time>2019-03-08T12:57:38Z</time>
      </trkpt>
      <trkpt lat="44.3115" lon="5.82276">
        <ele>561</ele>
        <time>2019-03-08T12:57:39Z</time>
      </trkpt>
      <trkpt lat="44.31149" lon="5.82272">
        <ele>561</ele>
        <time>2019-03-08T12:57:40Z</time>
      </trkpt>
      <trkpt lat="44.31148" lon="5.82268">
        <ele>561</ele>
        <time>2019-03-08T12:57:41Z</time>
      </trkpt>
      <trkpt lat="44.31146" lon="5.82265">
        <ele>561</ele>
        <time>2019-03-08T12:57:42Z</time>
      </trkpt>
      <trkpt lat="44.31143" lon="5.82261">
        <ele>561</ele>
        <time>2019-03-08T12:57:43Z</time>
      </trkpt>
      <trkpt lat="44.3114" lon="5.82257">
        <ele>561</ele>
        <time>2019-03-08T12:57:44Z</time>
      </trkpt>
      <trkpt lat="44.31137" lon="5.82253">
        <ele>561</ele>
        <time>2019-03-08T12:57:45Z</time>
      </trkpt>
      <trkpt lat="44.31134" lon="5.82248">
        <ele>561</ele>
        <time>2019-03-08T12:57:46Z</time>
      </trkpt>
      <trkpt lat="44.3113" lon="5.82244">
        <ele>561</ele>
        <time>2019-03-08T12:57:47Z</time>
      </trkpt>
      <trkpt lat="44.31127" lon="5.82239">
        <ele>561</ele>
        <time>2019-03-08T12:57:48Z</time>
      </trkpt>
      <trkpt lat="44.31123" lon="5.82234">
        <ele>561</ele>
        <time>2019-03-08T12:57:49Z</time>
      </trkpt>
      <trkpt lat="44.3112" lon="5.82229">
        <ele>561</ele>
        <time>2019-03-08T12:57:50Z</time>
      </trkpt>
      <trkpt lat="44.31116" lon="5.82225">
        <ele>561</ele>
        <time>2019-03-08T12:57:51Z</time>
      </trkpt>
      <trkpt lat="44.31112" lon="5.8222">
        <ele>561</ele>
        <time>2019-03-08T12:57:52Z</time>
      </trkpt>
      <trkpt lat="44.31108" lon="5.82215">
        <ele>561</ele>
        <time>2019-03-08T12:57:53Z</time>
      </trkpt>
      <trkpt lat="44.31105" lon="5.8221">
        <ele>561</ele>
        <time>2019-03-08T12:57:54Z</time>
      </trkpt>
      <trkpt lat="44.31101" lon="5.82206">
        <ele>561</ele>
        <time>2019-03-08T12:57:55Z</time>
      </trkpt>
      <trkpt lat="44.31097" lon="5.82201">
        <ele>561</ele>
        <time>2019-03-08T12:57:56Z</time>
      </trkpt>
      <trkpt lat="44.31094" lon="5.82196">
        <ele>561</ele>
        <time>2019-03-08T12:57:57Z</time>
      </trkpt>
      <trkpt lat="44.3109" lon="5.82192">
        <ele>561</ele>
        <time>2019-03-08T12:57:58Z</time>
      </trkpt>
      <trkpt lat="44.31086" lon="5.82187">
        <ele>561</ele>
        <time>2019-03-08T12:57:59Z</time>
      </trkpt>
      <trkpt lat="44.31083" lon="5.82182">
        <ele>561</ele>
        <time>2019-03-08T12:58:00Z</time>
      </trkpt>
      <trkpt lat="44.31079" lon="5.82177">
        <ele>561</ele>
        <time>2019-03-08T12:58:01Z</time>
      </trkpt>
      <trkpt lat="44.31075" lon="5.82173">
        <ele>561</ele>
        <time>2019-03-08T12:58:02Z</time>
      </trkpt>
      <trkpt lat="44.31072" lon="5.82169">
        <ele>561</ele>
        <time>2019-03-08T12:58:03Z</time>
      </trkpt>
      <trkpt lat="44.31068" lon="5.82164">
        <ele>561</ele>
        <time>2019-03-08T12:58:04Z</time>
      </trkpt>
      <trkpt lat="44.31065" lon="5.8216">
        <ele>561</ele>
        <time>2019-03-08T12:58:05Z</time>
      </trkpt>
      <trkpt lat="44.31061" lon="5.82155">
        <ele>561</ele>
        <time>2019-03-08T12:58:06Z</time>
      </trkpt>
      <trkpt lat="44.31057" lon="5.82151">
        <ele>561</ele>
        <time>2019-03-08T12:58:07Z</time>
      </trkpt>
      <trkpt lat="44.31054" lon="5.82146">
        <ele>561</ele>
        <time>2019-03-08T12:58:08Z</time>
      </trkpt>
      <trkpt lat="44.31051" lon="5.82141">
        <ele>561</ele>
        <time>2019-03-08T12:58:09Z</time>
      </trkpt>
      <trkpt lat="44.31047" lon="5.82137">
        <ele>561</ele>
        <time>2019-03-08T12:58:10Z</time>
      </trkpt>
      <trkpt lat="44.31044" lon="5.82132">
        <ele>561</ele>
        <time>2019-03-08T12:58:11Z</time>
      </trkpt>
      <trkpt lat="44.31041" lon="5.82128">
        <ele>561</ele>
        <time>2019-03-08T12:58:12Z</time>
      </trkpt>
      <trkpt lat="44.31037" lon="5.82124">
        <ele>561</ele>
        <time>2019-03-08T12:58:13Z</time>
      </trkpt>
      <trkpt lat="44.31034" lon="5.82119">
        <ele>561</ele>
        <time>2019-03-08T12:58:14Z</time>
      </trkpt>
      <trkpt lat="44.3103" lon="5.82115">
        <ele>561</ele>
        <time>2019-03-08T12:58:15Z</time>
      </trkpt>
      <trkpt lat="44.31027" lon="5.8211">
        <ele>561</ele>
        <time>2019-03-08T12:58:16Z</time>
      </trkpt>
      <trkpt lat="44.31023" lon="5.82106">
        <ele>561</ele>
        <time>2019-03-08T12:58:17Z</time>
      </trkpt>
      <trkpt lat="44.3102" lon="5.82101">
        <ele>561</ele>
        <time>2019-03-08T12:58:18Z</time>
      </trkpt>
      <trkpt lat="44.31016" lon="5.82097">
        <ele>561</ele>
        <time>2019-03-08T12:58:19Z</time>
      </trkpt>
      <trkpt lat="44.31013" lon="5.82093">
        <ele>561</ele>
        <time>2019-03-08T12:58:20Z</time>
      </trkpt>
      <trkpt lat="44.31009" lon="5.82089">
        <ele>561</ele>
        <time>2019-03-08T12:58:21Z</time>
      </trkpt>
      <trkpt lat="44.31006" lon="5.82084">
        <ele>561</ele>
        <time>2019-03-08T12:58:22Z</time>
      </trkpt>
      <trkpt lat="44.31002" lon="5.8208">
        <ele>561</ele>
        <time>2019-03-08T12:58:23Z</time>
      </trkpt>
      <trkpt lat="44.30999" lon="5.82076">
        <ele>561</ele>
        <time>2019-03-08T12:58:24Z</time>
      </trkpt>
      <trkpt lat="44.30995" lon="5.82072">
        <ele>561</ele>
        <time>2019-03-08T12:58:25Z</time>
      </trkpt>
      <trkpt lat="44.30991" lon="5.82068">
        <ele>561</ele>
        <time>2019-03-08T12:58:26Z</time>
      </trkpt>
      <trkpt lat="44.30988" lon="5.82065">
        <ele>561</ele>
        <time>2019-03-08T12:58:27Z</time>
      </trkpt>
      <trkpt lat="44.30984" lon="5.82062">
        <ele>561</ele>
        <time>2019-03-08T12:58:27Z</time>
      </trkpt>
      <trkpt lat="44.3098" lon="5.82058">
        <ele>561</ele>
        <time>2019-03-08T12:58:29Z</time>
      </trkpt>
      <trkpt lat="44.30976" lon="5.82055">
        <ele>561</ele>
        <time>2019-03-08T12:58:29Z</time>
      </trkpt>
      <trkpt lat="44.30972" lon="5.82052">
        <ele>561</ele>
        <time>2019-03-08T12:58:31Z</time>
      </trkpt>
      <trkpt lat="44.30968" lon="5.8205">
        <ele>561</ele>
        <time>2019-03-08T12:58:32Z</time>
      </trkpt>
      <trkpt lat="44.30964" lon="5.82047">
        <ele>561</ele>
        <time>2019-03-08T12:58:33Z</time>
      </trkpt>
      <trkpt lat="44.3096" lon="5.82045">
        <ele>561</ele>
        <time>2019-03-08T12:58:33Z</time>
      </trkpt>
      <trkpt lat="44.30956" lon="5.82042">
        <ele>561</ele>
        <time>2019-03-08T12:58:34Z</time>
      </trkpt>
      <trkpt lat="44.30951" lon="5.8204">
        <ele>561</ele>
        <time>2019-03-08T12:58:36Z</time>
      </trkpt>
      <trkpt lat="44.30947" lon="5.82039">
        <ele>561</ele>
        <time>2019-03-08T12:58:37Z</time>
      </trkpt>
      <trkpt lat="44.30943" lon="5.82037">
        <ele>561</ele>
        <time>2019-03-08T12:58:38Z</time>
      </trkpt>
      <trkpt lat="44.30938" lon="5.82036">
        <ele>561</ele>
        <time>2019-03-08T12:58:39Z</time>
      </trkpt>
      <trkpt lat="44.30934" lon="5.82035">
        <ele>561</ele>
        <time>2019-03-08T12:58:40Z</time>
      </trkpt>
      <trkpt lat="44.3093" lon="5.82034">
        <ele>561</ele>
        <time>2019-03-08T12:58:41Z</time>
      </trkpt>
      <trkpt lat="44.30925" lon="5.82034">
        <ele>561</ele>
        <time>2019-03-08T12:58:42Z</time>
      </trkpt>
      <trkpt lat="44.30922" lon="5.82034">
        <ele>561</ele>
        <time>2019-03-08T12:58:43Z</time>
      </trkpt>
      <trkpt lat="44.30918" lon="5.82034">
        <ele>561</ele>
        <time>2019-03-08T12:58:44Z</time>
      </trkpt>
      <trkpt lat="44.30914" lon="5.82034">
        <ele>561</ele>
        <time>2019-03-08T12:58:45Z</time>
      </trkpt>
      <trkpt lat="44.3091" lon="5.82035">
        <ele>561</ele>
        <time>2019-03-08T12:58:46Z</time>
      </trkpt>
      <trkpt lat="44.30906" lon="5.82036">
        <ele>561</ele>
        <time>2019-03-08T12:58:47Z</time>
      </trkpt>
      <trkpt lat="44.30903" lon="5.82036">
        <ele>561</ele>
        <time>2019-03-08T12:58:48Z</time>
      </trkpt>
      <trkpt lat="44.30899" lon="5.82037">
        <ele>561</ele>
        <time>2019-03-08T12:58:49Z</time>
      </trkpt>
      <trkpt lat="44.30896" lon="5.82038">
        <ele>561</ele>
        <time>2019-03-08T12:58:50Z</time>
      </trkpt>
      <trkpt lat="44.30893" lon="5.82039">
        <ele>561</ele>
        <time>2019-03-08T12:58:51Z</time>
      </trkpt>
      <trkpt lat="44.30889" lon="5.82041">
        <ele>561</ele>
        <time>2019-03-08T12:58:52Z</time>
      </trkpt>
      <trkpt lat="44.30886" lon="5.82042">
        <ele>561</ele>
        <time>2019-03-08T12:58:53Z</time>
      </trkpt>
      <trkpt lat="44.30882" lon="5.82044">
        <ele>561</ele>
        <time>2019-03-08T12:58:54Z</time>
      </trkpt>
      <trkpt lat="44.30879" lon="5.82045">
        <ele>561</ele>
        <time>2019-03-08T12:58:55Z</time>
      </trkpt>
      <trkpt lat="44.30875" lon="5.82046">
        <ele>561</ele>
        <time>2019-03-08T12:58:56Z</time>
      </trkpt>
      <trkpt lat="44.30872" lon="5.82048">
        <ele>561</ele>
        <time>2019-03-08T12:58:57Z</time>
      </trkpt>
      <trkpt lat="44.30869" lon="5.82049">
        <ele>561</ele>
        <time>2019-03-08T12:58:58Z</time>
      </trkpt>
      <trkpt lat="44.30866" lon="5.8205">
        <ele>561</ele>
        <time>2019-03-08T12:58:59Z</time>
      </trkpt>
      <trkpt lat="44.30863" lon="5.82051">
        <ele>561</ele>
        <time>2019-03-08T12:59:00Z</time>
      </trkpt>
      <trkpt lat="44.30859" lon="5.82052">
        <ele>561</ele>
        <time>2019-03-08T12:59:01Z</time>
      </trkpt>
      <trkpt lat="44.30856" lon="5.82053">
        <ele>561</ele>
        <time>2019-03-08T12:59:02Z</time>
      </trkpt>
      <trkpt lat="44.30853" lon="5.82054">
        <ele>561</ele>
        <time>2019-03-08T12:59:03Z</time>
      </trkpt>
      <trkpt lat="44.30849" lon="5.82055">
        <ele>561</ele>
        <time>2019-03-08T12:59:03Z</time>
      </trkpt>
      <trkpt lat="44.30846" lon="5.82056">
        <ele>561</ele>
        <time>2019-03-08T12:59:05Z</time>
      </trkpt>
      <trkpt lat="44.30843" lon="5.82058">
        <ele>561</ele>
        <time>2019-03-08T12:59:06Z</time>
      </trkpt>
      <trkpt lat="44.30839" lon="5.82059">
        <ele>561</ele>
        <time>2019-03-08T12:59:07Z</time>
      </trkpt>
      <trkpt lat="44.30835" lon="5.8206">
        <ele>561</ele>
        <time>2019-03-08T12:59:08Z</time>
      </trkpt>
      <trkpt lat="44.30832" lon="5.82061">
        <ele>561</ele>
        <time>2019-03-08T12:59:09Z</time>
      </trkpt>
      <trkpt lat="44.30828" lon="5.82061">
        <ele>561</ele>
        <time>2019-03-08T12:59:09Z</time>
      </trkpt>
      <trkpt lat="44.30825" lon="5.82062">
        <ele>561</ele>
        <time>2019-03-08T12:59:11Z</time>
      </trkpt>
      <trkpt lat="44.3082" lon="5.82063">
        <ele>561</ele>
        <time>2019-03-08T12:59:12Z</time>
      </trkpt>
      <trkpt lat="44.30817" lon="5.82064">
        <ele>561</ele>
        <time>2019-03-08T12:59:13Z</time>
      </trkpt>
      <trkpt lat="44.30812" lon="5.82065">
        <ele>561</ele>
        <time>2019-03-08T12:59:14Z</time>
      </trkpt>
      <trkpt lat="44.30809" lon="5.82066">
        <ele>561</ele>
        <time>2019-03-08T12:59:15Z</time>
      </trkpt>
      <trkpt lat="44.30804" lon="5.82067">
        <ele>561</ele>
        <time>2019-03-08T12:59:16Z</time>
      </trkpt>
      <trkpt lat="44.308" lon="5.82068">
        <ele>561</ele>
        <time>2019-03-08T12:59:17Z</time>
      </trkpt>
      <trkpt lat="44.30796" lon="5.8207">
        <ele>561</ele>
        <time>2019-03-08T12:59:18Z</time>
      </trkpt>
      <trkpt lat="44.30792" lon="5.82071">
        <ele>561</ele>
        <time>2019-03-08T12:59:19Z</time>
      </trkpt>
      <trkpt lat="44.30788" lon="5.82072">
        <ele>561</ele>
        <time>2019-03-08T12:59:20Z</time>
      </trkpt>
      <trkpt lat="44.30784" lon="5.82073">
        <ele>561</ele>
        <time>2019-03-08T12:59:21Z</time>
      </trkpt>
      <trkpt lat="44.3078" lon="5.82075">
        <ele>561</ele>
        <time>2019-03-08T12:59:22Z</time>
      </trkpt>
      <trkpt lat="44.30776" lon="5.82077">
        <ele>561</ele>
        <time>2019-03-08T12:59:23Z</time>
      </trkpt>
      <trkpt lat="44.30772" lon="5.82079">
        <ele>561</ele>
        <time>2019-03-08T12:59:24Z</time>
      </trkpt>
      <trkpt lat="44.30768" lon="5.82081">
        <ele>561</ele>
        <time>2019-03-08T12:59:25Z</time>
      </trkpt>
      <trkpt lat="44.30764" lon="5.82084">
        <ele>561</ele>
        <time>2019-03-08T12:59:26Z</time>
      </trkpt>
      <trkpt lat="44.3076" lon="5.82088">
        <ele>561</ele>
        <time>2019-03-08T12:59:27Z</time>
      </trkpt>
      <trkpt lat="44.30757" lon="5.82091">
        <ele>561</ele>
        <time>2019-03-08T12:59:28Z</time>
      </trkpt>
      <trkpt lat="44.30754" lon="5.82095">
        <ele>561</ele>
        <time>2019-03-08T12:59:29Z</time>
      </trkpt>
      <trkpt lat="44.3075" lon="5.821">
        <ele>561</ele>
        <time>2019-03-08T12:59:30Z</time>
      </trkpt>
      <trkpt lat="44.30747" lon="5.82105">
        <ele>561</ele>
        <time>2019-03-08T12:59:31Z</time>
      </trkpt>
      <trkpt lat="44.30744" lon="5.8211">
        <ele>561</ele>
        <time>2019-03-08T12:59:32Z</time>
      </trkpt>
      <trkpt lat="44.30742" lon="5.82115">
        <ele>561</ele>
        <time>2019-03-08T12:59:33Z</time>
      </trkpt>
      <trkpt lat="44.30739" lon="5.8212">
        <ele>561</ele>
        <time>2019-03-08T12:59:34Z</time>
      </trkpt>
      <trkpt lat="44.30737" lon="5.82125">
        <ele>561</ele>
        <time>2019-03-08T12:59:35Z</time>
      </trkpt>
      <trkpt lat="44.30734" lon="5.8213">
        <ele>561</ele>
        <time>2019-03-08T12:59:36Z</time>
      </trkpt>
      <trkpt lat="44.30732" lon="5.82135">
        <ele>561</ele>
        <time>2019-03-08T12:59:37Z</time>
      </trkpt>
      <trkpt lat="44.3073" lon="5.8214">
        <ele>561</ele>
        <time>2019-03-08T12:59:38Z</time>
      </trkpt>
      <trkpt lat="44.30728" lon="5.82146">
        <ele>561</ele>
        <time>2019-03-08T12:59:39Z</time>
      </trkpt>
      <trkpt lat="44.30727" lon="5.82151">
        <ele>561</ele>
        <time>2019-03-08T12:59:40Z</time>
      </trkpt>
      <trkpt lat="44.30724" lon="5.82156">
        <ele>561</ele>
        <time>2019-03-08T12:59:41Z</time>
      </trkpt>
      <trkpt lat="44.30723" lon="5.82161">
        <ele>561</ele>
        <time>2019-03-08T12:59:42Z</time>
      </trkpt>
      <trkpt lat="44.30721" lon="5.82166">
        <ele>561</ele>
        <time>2019-03-08T12:59:43Z</time>
      </trkpt>
      <trkpt lat="44.30719" lon="5.8217">
        <ele>561</ele>
        <time>2019-03-08T12:59:44Z</time>
      </trkpt>
      <trkpt lat="44.30717" lon="5.82175">
        <ele>561</ele>
        <time>2019-03-08T12:59:45Z</time>
      </trkpt>
      <trkpt lat="44.30716" lon="5.8218">
        <ele>561</ele>
        <time>2019-03-08T12:59:45Z</time>
      </trkpt>
      <trkpt lat="44.30714" lon="5.82184">
        <ele>561</ele>
        <time>2019-03-08T12:59:47Z</time>
      </trkpt>
      <trkpt lat="44.30712" lon="5.82188">
        <ele>561</ele>
        <time>2019-03-08T12:59:48Z</time>
      </trkpt>
      <trkpt lat="44.3071" lon="5.82193">
        <ele>561</ele>
        <time>2019-03-08T12:59:49Z</time>
      </trkpt>
      <trkpt lat="44.30709" lon="5.82196">
        <ele>561</ele>
        <time>2019-03-08T12:59:50Z</time>
      </trkpt>
      <trkpt lat="44.30707" lon="5.822">
        <ele>561</ele>
        <time>2019-03-08T12:59:51Z</time>
      </trkpt>
      <trkpt lat="44.30705" lon="5.82204">
        <ele>561</ele>
        <time>2019-03-08T12:59:52Z</time>
      </trkpt>
      <trkpt lat="44.30703" lon="5.82207">
        <ele>561</ele>
        <time>2019-03-08T12:59:53Z</time>
      </trkpt>
      <trkpt lat="44.30701" lon="5.82211">
        <ele>561</ele>
        <time>2019-03-08T12:59:54Z</time>
      </trkpt>
      <trkpt lat="44.30699" lon="5.82215">
        <ele>561</ele>
        <time>2019-03-08T12:59:55Z</time>
      </trkpt>
      <trkpt lat="44.30697" lon="5.82218">
        <ele>561</ele>
        <time>2019-03-08T12:59:56Z</time>
      </trkpt>
      <trkpt lat="44.30695" lon="5.82221">
        <ele>561</ele>
        <time>2019-03-08T12:59:57Z</time>
      </trkpt>
      <trkpt lat="44.30693" lon="5.82224">
        <ele>561</ele>
        <time>2019-03-08T12:59:58Z</time>
      </trkpt>
      <trkpt lat="44.3069" lon="5.82226">
        <ele>561</ele>
        <time>2019-03-08T12:59:59Z</time>
      </trkpt>
      <trkpt lat="44.30687" lon="5.82226">
        <ele>561</ele>
        <time>2019-03-08T12:59:59Z</time>
      </trkpt>
      <trkpt lat="44.30685" lon="5.82223">
        <ele>561</ele>
        <time>2019-03-08T13:00:01Z</time>
      </trkpt>
      <trkpt lat="44.30684" lon="5.82219">
        <ele>561</ele>
        <time>2019-03-08T13:00:02Z</time>
      </trkpt>
      <trkpt lat="44.30685" lon="5.82215">
        <ele>561</ele>
        <time>2019-03-08T13:00:03Z</time>
      </trkpt>
      <trkpt lat="44.30687" lon="5.82211">
        <ele>561</ele>
        <time>2019-03-08T13:00:04Z</time>
      </trkpt>
      <trkpt lat="44.3069" lon="5.82208">
        <ele>561</ele>
        <time>2019-03-08T13:00:05Z</time>
      </trkpt>
      <trkpt lat="44.30692" lon="5.82204">
        <ele>561</ele>
        <time>2019-03-08T13:00:06Z</time>
      </trkpt>
      <trkpt lat="44.30694" lon="5.822">
        <ele>561</ele>
        <time>2019-03-08T13:00:07Z</time>
      </trkpt>
      <trkpt lat="44.30696" lon="5.82197">
        <ele>561</ele>
        <time>2019-03-08T13:00:08Z</time>
      </trkpt>
      <trkpt lat="44.30698" lon="5.82193">
        <ele>561</ele>
        <time>2019-03-08T13:00:09Z</time>
      </trkpt>
      <trkpt lat="44.307" lon="5.8219">
        <ele>561</ele>
        <time>2019-03-08T13:00:10Z</time>
      </trkpt>
      <trkpt lat="44.30702" lon="5.82186">
        <ele>561</ele>
        <time>2019-03-08T13:00:11Z</time>
      </trkpt>
      <trkpt lat="44.30704" lon="5.82182">
        <ele>561</ele>
        <time>2019-03-08T13:00:12Z</time>
      </trkpt>
      <trkpt lat="44.30706" lon="5.82179">
        <ele>561</ele>
        <time>2019-03-08T13:00:12Z</time>
      </trkpt>
      <trkpt lat="44.30707" lon="5.82175">
        <ele>561</ele>
        <time>2019-03-08T13:00:13Z</time>
      </trkpt>
      <trkpt lat="44.30709" lon="5.82171">
        <ele>561</ele>
        <time>2019-03-08T13:00:15Z</time>
      </trkpt>
      <trkpt lat="44.3071" lon="5.82168">
        <ele>561</ele>
        <time>2019-03-08T13:00:16Z</time>
      </trkpt>
      <trkpt lat="44.30711" lon="5.82164">
        <ele>561</ele>
        <time>2019-03-08T13:00:17Z</time>
      </trkpt>
      <trkpt lat="44.30712" lon="5.8216">
        <ele>561</ele>
        <time>2019-03-08T13:00:18Z</time>
      </trkpt>
      <trkpt lat="44.30713" lon="5.82157">
        <ele>561</ele>
        <time>2019-03-08T13:00:19Z</time>
      </trkpt>
      <trkpt lat="44.30714" lon="5.82153">
        <ele>561</ele>
        <time>2019-03-08T13:00:20Z</time>
      </trkpt>
      <trkpt lat="44.30715" lon="5.82149">
        <ele>561</ele>
        <time>2019-03-08T13:00:21Z</time>
      </trkpt>
      <trkpt lat="44.30716" lon="5.82145">
        <ele>561</ele>
        <time>2019-03-08T13:00:22Z</time>
      </trkpt>
      <trkpt lat="44.30716" lon="5.82141">
        <ele>561</ele>
        <time>2019-03-08T13:00:23Z</time>
      </trkpt>
      <trkpt lat="44.30717" lon="5.82137">
        <ele>561</ele>
        <time>2019-03-08T13:00:24Z</time>
      </trkpt>
      <trkpt lat="44.30717" lon="5.82133">
        <ele>561</ele>
        <time>2019-03-08T13:00:25Z</time>
      </trkpt>
      <trkpt lat="44.30718" lon="5.82129">
        <ele>561</ele>
        <time>2019-03-08T13:00:26Z</time>
      </trkpt>
      <trkpt lat="44.30718" lon="5.82126">
        <ele>561</ele>
        <time>2019-03-08T13:00:27Z</time>
      </trkpt>
      <trkpt lat="44.30718" lon="5.82122">
        <ele>561</ele>
        <time>2019-03-08T13:00:28Z</time>
      </trkpt>
      <trkpt lat="44.30718" lon="5.82118">
        <ele>561</ele>
        <time>2019-03-08T13:00:29Z</time>
      </trkpt>
      <trkpt lat="44.30718" lon="5.82114">
        <ele>561</ele>
        <time>2019-03-08T13:00:30Z</time>
      </trkpt>
      <trkpt lat="44.30718" lon="5.8211">
        <ele>561</ele>
        <time>2019-03-08T13:00:30Z</time>
      </trkpt>
      <trkpt lat="44.30717" lon="5.82106">
        <ele>562</ele>
        <time>2019-03-08T13:00:31Z</time>
      </trkpt>
      <trkpt lat="44.30717" lon="5.82102">
        <ele>562</ele>
        <time>2019-03-08T13:00:33Z</time>
      </trkpt>
      <trkpt lat="44.30716" lon="5.82099">
        <ele>562</ele>
        <time>2019-03-08T13:00:34Z</time>
      </trkpt>
      <trkpt lat="44.30716" lon="5.82095">
        <ele>563</ele>
        <time>2019-03-08T13:00:35Z</time>
      </trkpt>
      <trkpt lat="44.30715" lon="5.82091">
        <ele>563</ele>
        <time>2019-03-08T13:00:36Z</time>
      </trkpt>
      <trkpt lat="44.30714" lon="5.82087">
        <ele>563</ele>
        <time>2019-03-08T13:00:37Z</time>
      </trkpt>
      <trkpt lat="44.30713" lon="5.82083">
        <ele>564</ele>
        <time>2019-03-08T13:00:38Z</time>
      </trkpt>
      <trkpt lat="44.30713" lon="5.82079">
        <ele>564</ele>
        <time>2019-03-08T13:00:39Z</time>
      </trkpt>
      <trkpt lat="44.30712" lon="5.82076">
        <ele>564</ele>
        <time>2019-03-08T13:00:40Z</time>
      </trkpt>
      <trkpt lat="44.30711" lon="5.82072">
        <ele>565</ele>
        <time>2019-03-08T13:00:41Z</time>
      </trkpt>
      <trkpt lat="44.30711" lon="5.82069">
        <ele>565</ele>
        <time>2019-03-08T13:00:42Z</time>
      </trkpt>
      <trkpt lat="44.3071" lon="5.82065">
        <ele>566</ele>
        <time>2019-03-08T13:00:43Z</time>
      </trkpt>
      <trkpt lat="44.30709" lon="5.82062">
        <ele>566</ele>
        <time>2019-03-08T13:00:44Z</time>
      </trkpt>
      <trkpt lat="44.30708" lon="5.82058">
        <ele>566</ele>
        <time>2019-03-08T13:00:45Z</time>
      </trkpt>
      <trkpt lat="44.30708" lon="5.82055">
        <ele>567</ele>
        <time>2019-03-08T13:00:46Z</time>
      </trkpt>
      <trkpt lat="44.30708" lon="5.82052">
        <ele>567</ele>
        <time>2019-03-08T13:00:47Z</time>
      </trkpt>
      <trkpt lat="44.30708" lon="5.82048">
        <ele>567</ele>
        <time>2019-03-08T13:00:48Z</time>
      </trkpt>
      <trkpt lat="44.30707" lon="5.82044">
        <ele>567</ele>
        <time>2019-03-08T13:00:49Z</time>
      </trkpt>
      <trkpt lat="44.30707" lon="5.82041">
        <ele>567</ele>
        <time>2019-03-08T13:00:50Z</time>
      </trkpt>
      <trkpt lat="44.30707" lon="5.82037">
        <ele>568</ele>
        <time>2019-03-08T13:00:51Z</time>
      </trkpt>
      <trkpt lat="44.30708" lon="5.82033">
        <ele>568</ele>
        <time>2019-03-08T13:00:52Z</time>
      </trkpt>
      <trkpt lat="44.30708" lon="5.8203">
        <ele>568</ele>
        <time>2019-03-08T13:00:53Z</time>
      </trkpt>
      <trkpt lat="44.30708" lon="5.82026">
        <ele>568</ele>
        <time>2019-03-08T13:00:54Z</time>
      </trkpt>
      <trkpt lat="44.30708" lon="5.82022">
        <ele>568</ele>
        <time>2019-03-08T13:00:55Z</time>
      </trkpt>
      <trkpt lat="44.30708" lon="5.82018">
        <ele>568</ele>
        <time>2019-03-08T13:00:56Z</time>
      </trkpt>
      <trkpt lat="44.30708" lon="5.82014">
        <ele>568</ele>
        <time>2019-03-08T13:00:57Z</time>
      </trkpt>
      <trkpt lat="44.30707" lon="5.8201">
        <ele>568</ele>
        <time>2019-03-08T13:00:58Z</time>
      </trkpt>
      <trkpt lat="44.30708" lon="5.82007">
        <ele>568</ele>
        <time>2019-03-08T13:00:59Z</time>
      </trkpt>
      <trkpt lat="44.30709" lon="5.82003">
        <ele>568</ele>
        <time>2019-03-08T13:01:00Z</time>
      </trkpt>
      <trkpt lat="44.3071" lon="5.81999">
        <ele>568</ele>
        <time>2019-03-08T13:01:01Z</time>
      </trkpt>
      <trkpt lat="44.3071" lon="5.81994">
        <ele>569</ele>
        <time>2019-03-08T13:01:02Z</time>
      </trkpt>
      <trkpt lat="44.3071" lon="5.8199">
        <ele>569</ele>
        <time>2019-03-08T13:01:03Z</time>
      </trkpt>
      <trkpt lat="44.30711" lon="5.81987">
        <ele>569</ele>
        <time>2019-03-08T13:01:04Z</time>
      </trkpt>
      <trkpt lat="44.30711" lon="5.81984">
        <ele>569</ele>
        <time>2019-03-08T13:01:05Z</time>
      </trkpt>
      <trkpt lat="44.30712" lon="5.81981">
        <ele>569</ele>
        <time>2019-03-08T13:01:06Z</time>
      </trkpt>
      <trkpt lat="44.30711" lon="5.81977">
        <ele>569</ele>
        <time>2019-03-08T13:01:07Z</time>
      </trkpt>
      <trkpt lat="44.30712" lon="5.81974">
        <ele>569</ele>
        <time>2019-03-08T13:01:08Z</time>
      </trkpt>
      <trkpt lat="44.30713" lon="5.81969">
        <ele>569</ele>
        <time>2019-03-08T13:01:09Z</time>
      </trkpt>
      <trkpt lat="44.30714" lon="5.81966">
        <ele>569</ele>
        <time>2019-03-08T13:01:10Z</time>
      </trkpt>
      <trkpt lat="44.30715" lon="5.81962">
        <ele>569</ele>
        <time>2019-03-08T13:01:11Z</time>
      </trkpt>
      <trkpt lat="44.30716" lon="5.81958">
        <ele>569</ele>
        <time>2019-03-08T13:01:12Z</time>
      </trkpt>
      <trkpt lat="44.30716" lon="5.81954">
        <ele>569</ele>
        <time>2019-03-08T13:01:13Z</time>
      </trkpt>
      <trkpt lat="44.30717" lon="5.81951">
        <ele>570</ele>
        <time>2019-03-08T13:01:14Z</time>
      </trkpt>
      <trkpt lat="44.30717" lon="5.81947">
        <ele>570</ele>
        <time>2019-03-08T13:01:15Z</time>
      </trkpt>
      <trkpt lat="44.30717" lon="5.81944">
        <ele>570</ele>
        <time>2019-03-08T13:01:16Z</time>
      </trkpt>
      <trkpt lat="44.30718" lon="5.8194">
        <ele>570</ele>
        <time>2019-03-08T13:01:17Z</time>
      </trkpt>
      <trkpt lat="44.30719" lon="5.81936">
        <ele>570</ele>
        <time>2019-03-08T13:01:18Z</time>
      </trkpt>
      <trkpt lat="44.30719" lon="5.81932">
        <ele>570</ele>
        <time>2019-03-08T13:01:19Z</time>
      </trkpt>
      <trkpt lat="44.30719" lon="5.81929">
        <ele>571</ele>
        <time>2019-03-08T13:01:20Z</time>
      </trkpt>
      <trkpt lat="44.3072" lon="5.81925">
        <ele>571</ele>
        <time>2019-03-08T13:01:21Z</time>
      </trkpt>
      <trkpt lat="44.30721" lon="5.81922">
        <ele>571</ele>
        <time>2019-03-08T13:01:22Z</time>
      </trkpt>
      <trkpt lat="44.30722" lon="5.81918">
        <ele>572</ele>
        <time>2019-03-08T13:01:23Z</time>
      </trkpt>
      <trkpt lat="44.30722" lon="5.81914">
        <ele>572</ele>
        <time>2019-03-08T13:01:24Z</time>
      </trkpt>
      <trkpt lat="44.30723" lon="5.8191">
        <ele>572</ele>
        <time>2019-03-08T13:01:25Z</time>
      </trkpt>
      <trkpt lat="44.30723" lon="5.81907">
        <ele>572</ele>
        <time>2019-03-08T13:01:26Z</time>
      </trkpt>
      <trkpt lat="44.30724" lon="5.81903">
        <ele>573</ele>
        <time>2019-03-08T13:01:27Z</time>
      </trkpt>
      <trkpt lat="44.30725" lon="5.81899">
        <ele>573</ele>
        <time>2019-03-08T13:01:28Z</time>
      </trkpt>
      <trkpt lat="44.30726" lon="5.81895">
        <ele>574</ele>
        <time>2019-03-08T13:01:29Z</time>
      </trkpt>
      <trkpt lat="44.30727" lon="5.81892">
        <ele>574</ele>
        <time>2019-03-08T13:01:30Z</time>
      </trkpt>
      <trkpt lat="44.30727" lon="5.81888">
        <ele>575</ele>
        <time>2019-03-08T13:01:31Z</time>
      </trkpt>
      <trkpt lat="44.30729" lon="5.81884">
        <ele>575</ele>
        <time>2019-03-08T13:01:32Z</time>
      </trkpt>
      <trkpt lat="44.3073" lon="5.81881">
        <ele>575</ele>
        <time>2019-03-08T13:01:33Z</time>
      </trkpt>
      <trkpt lat="44.30731" lon="5.81877">
        <ele>576</ele>
        <time>2019-03-08T13:01:34Z</time>
      </trkpt>
      <trkpt lat="44.30732" lon="5.81874">
        <ele>577</ele>
        <time>2019-03-08T13:01:35Z</time>
      </trkpt>
      <trkpt lat="44.30732" lon="5.81871">
        <ele>577</ele>
        <time>2019-03-08T13:01:36Z</time>
      </trkpt>
      <trkpt lat="44.30733" lon="5.81867">
        <ele>578</ele>
        <time>2019-03-08T13:01:37Z</time>
      </trkpt>
      <trkpt lat="44.30734" lon="5.81864">
        <ele>579</ele>
        <time>2019-03-08T13:01:38Z</time>
      </trkpt>
      <trkpt lat="44.30736" lon="5.8186">
        <ele>579</ele>
        <time>2019-03-08T13:01:39Z</time>
      </trkpt>
      <trkpt lat="44.30737" lon="5.81857">
        <ele>580</ele>
        <time>2019-03-08T13:01:40Z</time>
      </trkpt>
      <trkpt lat="44.30738" lon="5.81853">
        <ele>580</ele>
        <time>2019-03-08T13:01:41Z</time>
      </trkpt>
      <trkpt lat="44.30738" lon="5.81849">
        <ele>580</ele>
        <time>2019-03-08T13:01:42Z</time>
      </trkpt>
      <trkpt lat="44.3074" lon="5.81846">
        <ele>581</ele>
        <time>2019-03-08T13:01:43Z</time>
      </trkpt>
      <trkpt lat="44.3074" lon="5.81842">
        <ele>581</ele>
        <time>2019-03-08T13:01:44Z</time>
      </trkpt>
      <trkpt lat="44.3074" lon="5.81838">
        <ele>581</ele>
        <time>2019-03-08T13:01:45Z</time>
      </trkpt>
      <trkpt lat="44.3074" lon="5.81835">
        <ele>581</ele>
        <time>2019-03-08T13:01:46Z</time>
      </trkpt>
      <trkpt lat="44.30742" lon="5.81831">
        <ele>582</ele>
        <time>2019-03-08T13:01:47Z</time>
      </trkpt>
      <trkpt lat="44.30743" lon="5.81828">
        <ele>582</ele>
        <time>2019-03-08T13:01:48Z</time>
      </trkpt>
      <trkpt lat="44.30745" lon="5.81825">
        <ele>582</ele>
        <time>2019-03-08T13:01:49Z</time>
      </trkpt>
      <trkpt lat="44.30747" lon="5.81822">
        <ele>582</ele>
        <time>2019-03-08T13:01:50Z</time>
      </trkpt>
      <trkpt lat="44.30748" lon="5.81818">
        <ele>582</ele>
        <time>2019-03-08T13:01:51Z</time>
      </trkpt>
      <trkpt lat="44.30749" lon="5.81815">
        <ele>582</ele>
        <time>2019-03-08T13:01:52Z</time>
      </trkpt>
      <trkpt lat="44.3075" lon="5.81811">
        <ele>582</ele>
        <time>2019-03-08T13:01:53Z</time>
      </trkpt>
      <trkpt lat="44.30751" lon="5.81808">
        <ele>582</ele>
        <time>2019-03-08T13:01:54Z</time>
      </trkpt>
      <trkpt lat="44.30751" lon="5.81804">
        <ele>582</ele>
        <time>2019-03-08T13:01:55Z</time>
      </trkpt>
      <trkpt lat="44.30752" lon="5.81801">
        <ele>583</ele>
        <time>2019-03-08T13:01:56Z</time>
      </trkpt>
      <trkpt lat="44.30753" lon="5.81798">
        <ele>583</ele>
        <time>2019-03-08T13:01:57Z</time>
      </trkpt>
      <trkpt lat="44.30754" lon="5.81794">
        <ele>583</ele>
        <time>2019-03-08T13:01:58Z</time>
      </trkpt>
      <trkpt lat="44.30756" lon="5.8179">
        <ele>583</ele>
        <time>2019-03-08T13:01:59Z</time>
      </trkpt>
      <trkpt lat="44.30757" lon="5.81786">
        <ele>583</ele>
        <time>2019-03-08T13:02:00Z</time>
      </trkpt>
      <trkpt lat="44.30757" lon="5.81782">
        <ele>583</ele>
        <time>2019-03-08T13:02:01Z</time>
      </trkpt>
      <trkpt lat="44.30758" lon="5.81779">
        <ele>583</ele>
        <time>2019-03-08T13:02:02Z</time>
      </trkpt>
      <trkpt lat="44.30759" lon="5.81775">
        <ele>583</ele>
        <time>2019-03-08T13:02:02Z</time>
      </trkpt>
      <trkpt lat="44.3076" lon="5.81771">
        <ele>583</ele>
        <time>2019-03-08T13:02:04Z</time>
      </trkpt>
      <trkpt lat="44.30761" lon="5.81767">
        <ele>583</ele>
        <time>2019-03-08T13:02:05Z</time>
      </trkpt>
      <trkpt lat="44.30762" lon="5.81764">
        <ele>584</ele>
        <time>2019-03-08T13:02:06Z</time>
      </trkpt>
      <trkpt lat="44.30763" lon="5.81761">
        <ele>584</ele>
        <time>2019-03-08T13:02:07Z</time>
      </trkpt>
      <trkpt lat="44.30764" lon="5.81758">
        <ele>584</ele>
        <time>2019-03-08T13:02:08Z</time>
      </trkpt>
      <trkpt lat="44.30766" lon="5.81755">
        <ele>584</ele>
        <time>2019-03-08T13:02:09Z</time>
      </trkpt>
      <trkpt lat="44.30767" lon="5.81752">
        <ele>584</ele>
        <time>2019-03-08T13:02:10Z</time>
      </trkpt>
      <trkpt lat="44.30768" lon="5.81748">
        <ele>584</ele>
        <time>2019-03-08T13:02:11Z</time>
      </trkpt>
      <trkpt lat="44.30769" lon="5.81745">
        <ele>584</ele>
        <time>2019-03-08T13:02:12Z</time>
      </trkpt>
      <trkpt lat="44.3077" lon="5.81742">
        <ele>584</ele>
        <time>2019-03-08T13:02:13Z</time>
      </trkpt>
      <trkpt lat="44.30771" lon="5.81739">
        <ele>584</ele>
        <time>2019-03-08T13:02:14Z</time>
      </trkpt>
      <trkpt lat="44.30772" lon="5.81736">
        <ele>584</ele>
        <time>2019-03-08T13:02:15Z</time>
      </trkpt>
      <trkpt lat="44.30774" lon="5.81733">
        <ele>584</ele>
        <time>2019-03-08T13:02:16Z</time>
      </trkpt>
      <trkpt lat="44.30775" lon="5.8173">
        <ele>584</ele>
        <time>2019-03-08T13:02:17Z</time>
      </trkpt>
      <trkpt lat="44.30776" lon="5.81727">
        <ele>584</ele>
        <time>2019-03-08T13:02:18Z</time>
      </trkpt>
      <trkpt lat="44.30777" lon="5.81723">
        <ele>584</ele>
        <time>2019-03-08T13:02:19Z</time>
      </trkpt>
      <trkpt lat="44.30779" lon="5.8172">
        <ele>584</ele>
        <time>2019-03-08T13:02:19Z</time>
      </trkpt>
      <trkpt lat="44.3078" lon="5.81717">
        <ele>584</ele>
        <time>2019-03-08T13:02:20Z</time>
      </trkpt>
      <trkpt lat="44.30781" lon="5.81714">
        <ele>584</ele>
        <time>2019-03-08T13:02:22Z</time>
      </trkpt>
      <trkpt lat="44.30782" lon="5.8171">
        <ele>584</ele>
        <time>2019-03-08T13:02:23Z</time>
      </trkpt>
      <trkpt lat="44.30783" lon="5.81707">
        <ele>584</ele>
        <time>2019-03-08T13:02:24Z</time>
      </trkpt>
      <trkpt lat="44.30784" lon="5.81704">
        <ele>584</ele>
        <time>2019-03-08T13:02:25Z</time>
      </trkpt>
      <trkpt lat="44.30785" lon="5.81701">
        <ele>585</ele>
        <time>2019-03-08T13:02:26Z</time>
      </trkpt>
      <trkpt lat="44.30786" lon="5.81698">
        <ele>585</ele>
        <time>2019-03-08T13:02:27Z</time>
      </trkpt>
      <trkpt lat="44.30787" lon="5.81695">
        <ele>585</ele>
        <time>2019-03-08T13:02:28Z</time>
      </trkpt>
      <trkpt lat="44.30788" lon="5.81692">
        <ele>585</ele>
        <time>2019-03-08T13:02:29Z</time>
      </trkpt>
      <trkpt lat="44.3079" lon="5.81688">
        <ele>585</ele>
        <time>2019-03-08T13:02:30Z</time>
      </trkpt>
      <trkpt lat="44.3079" lon="5.81685">
        <ele>586</ele>
        <time>2019-03-08T13:02:31Z</time>
      </trkpt>
      <trkpt lat="44.30791" lon="5.81681">
        <ele>586</ele>
        <time>2019-03-08T13:02:32Z</time>
      </trkpt>
      <trkpt lat="44.30792" lon="5.81678">
        <ele>586</ele>
        <time>2019-03-08T13:02:33Z</time>
      </trkpt>
      <trkpt lat="44.30793" lon="5.81675">
        <ele>586</ele>
        <time>2019-03-08T13:02:34Z</time>
      </trkpt>
      <trkpt lat="44.30795" lon="5.81671">
        <ele>586</ele>
        <time>2019-03-08T13:02:35Z</time>
      </trkpt>
      <trkpt lat="44.30795" lon="5.81668">
        <ele>587</ele>
        <time>2019-03-08T13:02:36Z</time>
      </trkpt>
      <trkpt lat="44.30796" lon="5.81664">
        <ele>587</ele>
        <time>2019-03-08T13:02:37Z</time>
      </trkpt>
      <trkpt lat="44.30797" lon="5.81661">
        <ele>587</ele>
        <time>2019-03-08T13:02:38Z</time>
      </trkpt>
      <trkpt lat="44.30798" lon="5.81657">
        <ele>587</ele>
        <time>2019-03-08T13:02:39Z</time>
      </trkpt>
      <trkpt lat="44.30798" lon="5.81653">
        <ele>587</ele>
        <time>2019-03-08T13:02:40Z</time>
      </trkpt>
      <trkpt lat="44.30799" lon="5.8165">
        <ele>588</ele>
        <time>2019-03-08T13:02:41Z</time>
      </trkpt>
      <trkpt lat="44.308" lon="5.81646">
        <ele>588</ele>
        <time>2019-03-08T13:02:42Z</time>
      </trkpt>
      <trkpt lat="44.30801" lon="5.81643">
        <ele>588</ele>
        <time>2019-03-08T13:02:43Z</time>
      </trkpt>
      <trkpt lat="44.30801" lon="5.81639">
        <ele>589</ele>
        <time>2019-03-08T13:02:44Z</time>
      </trkpt>
      <trkpt lat="44.30802" lon="5.81636">
        <ele>589</ele>
        <time>2019-03-08T13:02:45Z</time>
      </trkpt>
      <trkpt lat="44.30802" lon="5.81632">
        <ele>589</ele>
        <time>2019-03-08T13:02:46Z</time>
      </trkpt>
      <trkpt lat="44.30802" lon="5.81629">
        <ele>589</ele>
        <time>2019-03-08T13:02:47Z</time>
      </trkpt>
      <trkpt lat="44.30802" lon="5.81625">
        <ele>589</ele>
        <time>2019-03-08T13:02:48Z</time>
      </trkpt>
      <trkpt lat="44.30803" lon="5.81622">
        <ele>589</ele>
        <time>2019-03-08T13:02:49Z</time>
      </trkpt>
      <trkpt lat="44.30804" lon="5.81618">
        <ele>590</ele>
        <time>2019-03-08T13:02:50Z</time>
      </trkpt>
      <trkpt lat="44.30804" lon="5.81615">
        <ele>590</ele>
        <time>2019-03-08T13:02:51Z</time>
      </trkpt>
      <trkpt lat="44.30805" lon="5.81611">
        <ele>590</ele>
        <time>2019-03-08T13:02:52Z</time>
      </trkpt>
      <trkpt lat="44.30806" lon="5.81608">
        <ele>590</ele>
        <time>2019-03-08T13:02:53Z</time>
      </trkpt>
      <trkpt lat="44.30806" lon="5.81605">
        <ele>590</ele>
        <time>2019-03-08T13:02:54Z</time>
      </trkpt>
      <trkpt lat="44.30807" lon="5.81601">
        <ele>590</ele>
        <time>2019-03-08T13:02:55Z</time>
      </trkpt>
      <trkpt lat="44.30807" lon="5.81598">
        <ele>590</ele>
        <time>2019-03-08T13:02:56Z</time>
      </trkpt>
      <trkpt lat="44.30807" lon="5.81595">
        <ele>590</ele>
        <time>2019-03-08T13:02:57Z</time>
      </trkpt>
      <trkpt lat="44.30808" lon="5.81592">
        <ele>590</ele>
        <time>2019-03-08T13:02:58Z</time>
      </trkpt>
      <trkpt lat="44.30809" lon="5.81588">
        <ele>590</ele>
        <time>2019-03-08T13:02:59Z</time>
      </trkpt>
      <trkpt lat="44.30809" lon="5.81585">
        <ele>590</ele>
        <time>2019-03-08T13:02:59Z</time>
      </trkpt>
      <trkpt lat="44.30809" lon="5.81581">
        <ele>590</ele>
        <time>2019-03-08T13:03:01Z</time>
      </trkpt>
      <trkpt lat="44.30809" lon="5.81577">
        <ele>590</ele>
        <time>2019-03-08T13:03:01Z</time>
      </trkpt>
      <trkpt lat="44.3081" lon="5.81574">
        <ele>590</ele>
        <time>2019-03-08T13:03:02Z</time>
      </trkpt>
      <trkpt lat="44.3081" lon="5.8157">
        <ele>590</ele>
        <time>2019-03-08T13:03:04Z</time>
      </trkpt>
      <trkpt lat="44.3081" lon="5.81567">
        <ele>591</ele>
        <time>2019-03-08T13:03:05Z</time>
      </trkpt>
      <trkpt lat="44.30811" lon="5.81564">
        <ele>591</ele>
        <time>2019-03-08T13:03:06Z</time>
      </trkpt>
      <trkpt lat="44.30811" lon="5.8156">
        <ele>591</ele>
        <time>2019-03-08T13:03:07Z</time>
      </trkpt>
      <trkpt lat="44.30811" lon="5.81557">
        <ele>591</ele>
        <time>2019-03-08T13:03:08Z</time>
      </trkpt>
      <trkpt lat="44.30812" lon="5.81554">
        <ele>592</ele>
        <time>2019-03-08T13:03:09Z</time>
      </trkpt>
      <trkpt lat="44.30812" lon="5.8155">
        <ele>592</ele>
        <time>2019-03-08T13:03:10Z</time>
      </trkpt>
      <trkpt lat="44.30813" lon="5.81546">
        <ele>592</ele>
        <time>2019-03-08T13:03:11Z</time>
      </trkpt>
      <trkpt lat="44.30814" lon="5.81543">
        <ele>592</ele>
        <time>2019-03-08T13:03:12Z</time>
      </trkpt>
      <trkpt lat="44.30814" lon="5.81539">
        <ele>592</ele>
        <time>2019-03-08T13:03:13Z</time>
      </trkpt>
      <trkpt lat="44.30815" lon="5.81536">
        <ele>592</ele>
        <time>2019-03-08T13:03:14Z</time>
      </trkpt>
      <trkpt lat="44.30816" lon="5.81532">
        <ele>593</ele>
        <time>2019-03-08T13:03:15Z</time>
      </trkpt>
      <trkpt lat="44.30816" lon="5.81529">
        <ele>593</ele>
        <time>2019-03-08T13:03:16Z</time>
      </trkpt>
      <trkpt lat="44.30817" lon="5.81525">
        <ele>593</ele>
        <time>2019-03-08T13:03:17Z</time>
      </trkpt>
      <trkpt lat="44.30818" lon="5.81522">
        <ele>593</ele>
        <time>2019-03-08T13:03:18Z</time>
      </trkpt>
      <trkpt lat="44.30819" lon="5.81518">
        <ele>593</ele>
        <time>2019-03-08T13:03:19Z</time>
      </trkpt>
      <trkpt lat="44.30819" lon="5.81515">
        <ele>594</ele>
        <time>2019-03-08T13:03:20Z</time>
      </trkpt>
      <trkpt lat="44.3082" lon="5.81511">
        <ele>594</ele>
        <time>2019-03-08T13:03:21Z</time>
      </trkpt>
      <trkpt lat="44.3082" lon="5.81508">
        <ele>594</ele>
        <time>2019-03-08T13:03:22Z</time>
      </trkpt>
      <trkpt lat="44.30821" lon="5.81505">
        <ele>594</ele>
        <time>2019-03-08T13:03:23Z</time>
      </trkpt>
      <trkpt lat="44.30821" lon="5.81502">
        <ele>594</ele>
        <time>2019-03-08T13:03:24Z</time>
      </trkpt>
      <trkpt lat="44.30822" lon="5.81498">
        <ele>595</ele>
        <time>2019-03-08T13:03:25Z</time>
      </trkpt>
      <trkpt lat="44.30823" lon="5.81495">
        <ele>595</ele>
        <time>2019-03-08T13:03:26Z</time>
      </trkpt>
      <trkpt lat="44.30824" lon="5.81492">
        <ele>595</ele>
        <time>2019-03-08T13:03:27Z</time>
      </trkpt>
      <trkpt lat="44.30825" lon="5.81489">
        <ele>595</ele>
        <time>2019-03-08T13:03:28Z</time>
      </trkpt>
      <trkpt lat="44.30826" lon="5.81486">
        <ele>595</ele>
        <time>2019-03-08T13:03:29Z</time>
      </trkpt>
      <trkpt lat="44.30827" lon="5.81483">
        <ele>595</ele>
        <time>2019-03-08T13:03:30Z</time>
      </trkpt>
      <trkpt lat="44.30827" lon="5.81479">
        <ele>595</ele>
        <time>2019-03-08T13:03:31Z</time>
      </trkpt>
      <trkpt lat="44.30828" lon="5.81476">
        <ele>595</ele>
        <time>2019-03-08T13:03:31Z</time>
      </trkpt>
      <trkpt lat="44.30829" lon="5.81473">
        <ele>596</ele>
        <time>2019-03-08T13:03:33Z</time>
      </trkpt>
      <trkpt lat="44.3083" lon="5.8147">
        <ele>596</ele>
        <time>2019-03-08T13:03:34Z</time>
      </trkpt>
      <trkpt lat="44.3083" lon="5.81467">
        <ele>596</ele>
        <time>2019-03-08T13:03:35Z</time>
      </trkpt>
      <trkpt lat="44.30831" lon="5.81464">
        <ele>596</ele>
        <time>2019-03-08T13:03:36Z</time>
      </trkpt>
      <trkpt lat="44.30832" lon="5.81461">
        <ele>596</ele>
        <time>2019-03-08T13:03:37Z</time>
      </trkpt>
      <trkpt lat="44.30832" lon="5.81457">
        <ele>597</ele>
        <time>2019-03-08T13:03:37Z</time>
      </trkpt>
      <trkpt lat="44.30832" lon="5.81455">
        <ele>597</ele>
        <time>2019-03-08T13:03:38Z</time>
      </trkpt>
      <trkpt lat="44.30832" lon="5.81452">
        <ele>597</ele>
        <time>2019-03-08T13:03:40Z</time>
      </trkpt>
      <trkpt lat="44.30833" lon="5.8145">
        <ele>598</ele>
        <time>2019-03-08T13:03:41Z</time>
      </trkpt>
      <trkpt lat="44.30833" lon="5.81447">
        <ele>598</ele>
        <time>2019-03-08T13:03:42Z</time>
      </trkpt>
      <trkpt lat="44.30834" lon="5.81444">
        <ele>598</ele>
        <time>2019-03-08T13:03:42Z</time>
      </trkpt>
      <trkpt lat="44.30835" lon="5.81441">
        <ele>598</ele>
        <time>2019-03-08T13:03:44Z</time>
      </trkpt>
      <trkpt lat="44.30835" lon="5.81438">
        <ele>599</ele>
        <time>2019-03-08T13:03:45Z</time>
      </trkpt>
      <trkpt lat="44.30835" lon="5.81435">
        <ele>599</ele>
        <time>2019-03-08T13:03:46Z</time>
      </trkpt>
      <trkpt lat="44.30836" lon="5.81431">
        <ele>599</ele>
        <time>2019-03-08T13:03:47Z</time>
      </trkpt>
      <trkpt lat="44.30836" lon="5.81428">
        <ele>599</ele>
        <time>2019-03-08T13:03:48Z</time>
      </trkpt>
      <trkpt lat="44.30836" lon="5.81425">
        <ele>599</ele>
        <time>2019-03-08T13:03:48Z</time>
      </trkpt>
      <trkpt lat="44.30836" lon="5.81423">
        <ele>600</ele>
        <time>2019-03-08T13:03:49Z</time>
      </trkpt>
      <trkpt lat="44.30837" lon="5.8142">
        <ele>600</ele>
        <time>2019-03-08T13:03:51Z</time>
      </trkpt>
      <trkpt lat="44.30838" lon="5.81417">
        <ele>600</ele>
        <time>2019-03-08T13:03:51Z</time>
      </trkpt>
      <trkpt lat="44.30838" lon="5.81415">
        <ele>600</ele>
        <time>2019-03-08T13:03:53Z</time>
      </trkpt>
      <trkpt lat="44.30839" lon="5.81412">
        <ele>601</ele>
        <time>2019-03-08T13:03:53Z</time>
      </trkpt>
      <trkpt lat="44.30839" lon="5.81408">
        <ele>601</ele>
        <time>2019-03-08T13:03:54Z</time>
      </trkpt>
      <trkpt lat="44.3084" lon="5.81405">
        <ele>601</ele>
        <time>2019-03-08T13:03:56Z</time>
      </trkpt>
      <trkpt lat="44.3084" lon="5.81401">
        <ele>602</ele>
        <time>2019-03-08T13:03:57Z</time>
      </trkpt>
      <trkpt lat="44.3084" lon="5.81398">
        <ele>603</ele>
        <time>2019-03-08T13:03:58Z</time>
      </trkpt>
      <trkpt lat="44.30841" lon="5.81394">
        <ele>603</ele>
        <time>2019-03-08T13:03:58Z</time>
      </trkpt>
      <trkpt lat="44.30841" lon="5.81391">
        <ele>604</ele>
        <time>2019-03-08T13:03:59Z</time>
      </trkpt>
      <trkpt lat="44.30842" lon="5.81387">
        <ele>605</ele>
        <time>2019-03-08T13:04:00Z</time>
      </trkpt>
      <trkpt lat="44.30842" lon="5.81383">
        <ele>605</ele>
        <time>2019-03-08T13:04:02Z</time>
      </trkpt>
      <trkpt lat="44.30842" lon="5.81379">
        <ele>606</ele>
        <time>2019-03-08T13:04:03Z</time>
      </trkpt>
      <trkpt lat="44.30843" lon="5.81375">
        <ele>606</ele>
        <time>2019-03-08T13:04:03Z</time>
      </trkpt>
      <trkpt lat="44.30843" lon="5.81371">
        <ele>606</ele>
        <time>2019-03-08T13:04:04Z</time>
      </trkpt>
      <trkpt lat="44.30843" lon="5.81367">
        <ele>607</ele>
        <time>2019-03-08T13:04:06Z</time>
      </trkpt>
      <trkpt lat="44.30844" lon="5.81363">
        <ele>607</ele>
        <time>2019-03-08T13:04:07Z</time>
      </trkpt>
      <trkpt lat="44.30845" lon="5.81359">
        <ele>607</ele>
        <time>2019-03-08T13:04:08Z</time>
      </trkpt>
      <trkpt lat="44.30846" lon="5.81355">
        <ele>608</ele>
        <time>2019-03-08T13:04:08Z</time>
      </trkpt>
      <trkpt lat="44.30847" lon="5.81352">
        <ele>608</ele>
        <time>2019-03-08T13:04:10Z</time>
      </trkpt>
      <trkpt lat="44.30848" lon="5.81348">
        <ele>608</ele>
        <time>2019-03-08T13:04:11Z</time>
      </trkpt>
      <trkpt lat="44.30849" lon="5.81344">
        <ele>608</ele>
        <time>2019-03-08T13:04:12Z</time>
      </trkpt>
      <trkpt lat="44.3085" lon="5.81341">
        <ele>609</ele>
        <time>2019-03-08T13:04:12Z</time>
      </trkpt>
      <trkpt lat="44.30851" lon="5.81337">
        <ele>609</ele>
        <time>2019-03-08T13:04:13Z</time>
      </trkpt>
      <trkpt lat="44.30853" lon="5.81334">
        <ele>609</ele>
        <time>2019-03-08T13:04:14Z</time>
      </trkpt>
      <trkpt lat="44.30854" lon="5.81332">
        <ele>609</ele>
        <time>2019-03-08T13:04:15Z</time>
      </trkpt>
      <trkpt lat="44.30855" lon="5.81329">
        <ele>609</ele>
        <time>2019-03-08T13:04:16Z</time>
      </trkpt>
      <trkpt lat="44.30856" lon="5.81326">
        <ele>610</ele>
        <time>2019-03-08T13:04:18Z</time>
      </trkpt>
      <trkpt lat="44.30858" lon="5.81323">
        <ele>610</ele>
        <time>2019-03-08T13:04:18Z</time>
      </trkpt>
      <trkpt lat="44.30859" lon="5.81321">
        <ele>610</ele>
        <time>2019-03-08T13:04:20Z</time>
      </trkpt>
      <trkpt lat="44.30859" lon="5.81318">
        <ele>610</ele>
        <time>2019-03-08T13:04:20Z</time>
      </trkpt>
      <trkpt lat="44.3086" lon="5.81314">
        <ele>610</ele>
        <time>2019-03-08T13:04:22Z</time>
      </trkpt>
      <trkpt lat="44.30861" lon="5.81311">
        <ele>610</ele>
        <time>2019-03-08T13:04:23Z</time>
      </trkpt>
      <trkpt lat="44.30863" lon="5.81308">
        <ele>610</ele>
        <time>2019-03-08T13:04:23Z</time>
      </trkpt>
      <trkpt lat="44.30864" lon="5.81305">
        <ele>610</ele>
        <time>2019-03-08T13:04:25Z</time>
      </trkpt>
      <trkpt lat="44.30865" lon="5.81301">
        <ele>610</ele>
        <time>2019-03-08T13:04:25Z</time>
      </trkpt>
      <trkpt lat="44.30866" lon="5.81297">
        <ele>610</ele>
        <time>2019-03-08T13:04:27Z</time>
      </trkpt>
      <trkpt lat="44.30867" lon="5.81293">
        <ele>610</ele>
        <time>2019-03-08T13:04:28Z</time>
      </trkpt>
      <trkpt lat="44.30868" lon="5.81289">
        <ele>610</ele>
        <time>2019-03-08T13:04:29Z</time>
      </trkpt>
      <trkpt lat="44.30869" lon="5.81285">
        <ele>610</ele>
        <time>2019-03-08T13:04:30Z</time>
      </trkpt>
      <trkpt lat="44.3087" lon="5.8128">
        <ele>610</ele>
        <time>2019-03-08T13:04:30Z</time>
      </trkpt>
      <trkpt lat="44.30872" lon="5.81276">
        <ele>610</ele>
        <time>2019-03-08T13:04:31Z</time>
      </trkpt>
      <trkpt lat="44.30873" lon="5.81272">
        <ele>610</ele>
        <time>2019-03-08T13:04:32Z</time>
      </trkpt>
      <trkpt lat="44.30874" lon="5.81267">
        <ele>610</ele>
        <time>2019-03-08T13:04:34Z</time>
      </trkpt>
      <trkpt lat="44.30875" lon="5.81263">
        <ele>610</ele>
        <time>2019-03-08T13:04:34Z</time>
      </trkpt>
      <trkpt lat="44.30876" lon="5.81259">
        <ele>610</ele>
        <time>2019-03-08T13:04:35Z</time>
      </trkpt>
      <trkpt lat="44.30877" lon="5.81255">
        <ele>610</ele>
        <time>2019-03-08T13:04:36Z</time>
      </trkpt>
      <trkpt lat="44.30879" lon="5.8125">
        <ele>610</ele>
        <time>2019-03-08T13:04:37Z</time>
      </trkpt>
      <trkpt lat="44.3088" lon="5.81246">
        <ele>610</ele>
        <time>2019-03-08T13:04:39Z</time>
      </trkpt>
      <trkpt lat="44.30881" lon="5.81241">
        <ele>610</ele>
        <time>2019-03-08T13:04:40Z</time>
      </trkpt>
      <trkpt lat="44.30882" lon="5.81237">
        <ele>610</ele>
        <time>2019-03-08T13:04:41Z</time>
      </trkpt>
      <trkpt lat="44.30884" lon="5.81232">
        <ele>610</ele>
        <time>2019-03-08T13:04:41Z</time>
      </trkpt>
      <trkpt lat="44.30885" lon="5.81228">
        <ele>610</ele>
        <time>2019-03-08T13:04:42Z</time>
      </trkpt>
      <trkpt lat="44.30887" lon="5.81223">
        <ele>610</ele>
        <time>2019-03-08T13:04:44Z</time>
      </trkpt>
      <trkpt lat="44.30888" lon="5.81218">
        <ele>610</ele>
        <time>2019-03-08T13:04:44Z</time>
      </trkpt>
      <trkpt lat="44.3089" lon="5.81214">
        <ele>610</ele>
        <time>2019-03-08T13:04:45Z</time>
      </trkpt>
      <trkpt lat="44.30891" lon="5.81209">
        <ele>610</ele>
        <time>2019-03-08T13:04:46Z</time>
      </trkpt>
      <trkpt lat="44.30893" lon="5.81204">
        <ele>610</ele>
        <time>2019-03-08T13:04:48Z</time>
      </trkpt>
      <trkpt lat="44.30894" lon="5.81198">
        <ele>610</ele>
        <time>2019-03-08T13:04:49Z</time>
      </trkpt>
      <trkpt lat="44.30896" lon="5.81193">
        <ele>610</ele>
        <time>2019-03-08T13:04:49Z</time>
      </trkpt>
      <trkpt lat="44.30897" lon="5.81188">
        <ele>610</ele>
        <time>2019-03-08T13:04:50Z</time>
      </trkpt>
      <trkpt lat="44.30899" lon="5.81183">
        <ele>610</ele>
        <time>2019-03-08T13:04:51Z</time>
      </trkpt>
      <trkpt lat="44.309" lon="5.81178">
        <ele>610</ele>
        <time>2019-03-08T13:04:52Z</time>
      </trkpt>
      <trkpt lat="44.30901" lon="5.81174">
        <ele>610</ele>
        <time>2019-03-08T13:04:54Z</time>
      </trkpt>
      <trkpt lat="44.30903" lon="5.81169">
        <ele>610</ele>
        <time>2019-03-08T13:04:54Z</time>
      </trkpt>
      <trkpt lat="44.30904" lon="5.81164">
        <ele>610</ele>
        <time>2019-03-08T13:04:55Z</time>
      </trkpt>
      <trkpt lat="44.30906" lon="5.8116">
        <ele>610</ele>
        <time>2019-03-08T13:04:56Z</time>
      </trkpt>
      <trkpt lat="44.30908" lon="5.81155">
        <ele>610</ele>
        <time>2019-03-08T13:04:57Z</time>
      </trkpt>
      <trkpt lat="44.30909" lon="5.8115">
        <ele>610</ele>
        <time>2019-03-08T13:04:59Z</time>
      </trkpt>
      <trkpt lat="44.30911" lon="5.81144">
        <ele>610</ele>
        <time>2019-03-08T13:04:59Z</time>
      </trkpt>
      <trkpt lat="44.30913" lon="5.81139">
        <ele>610</ele>
        <time>2019-03-08T13:05:00Z</time>
      </trkpt>
      <trkpt lat="44.30915" lon="5.81133">
        <ele>610</ele>
        <time>2019-03-08T13:05:02Z</time>
      </trkpt>
      <trkpt lat="44.30916" lon="5.81127">
        <ele>610</ele>
        <time>2019-03-08T13:05:02Z</time>
      </trkpt>
      <trkpt lat="44.30917" lon="5.81121">
        <ele>610</ele>
        <time>2019-03-08T13:05:04Z</time>
      </trkpt>
      <trkpt lat="44.30919" lon="5.81114">
        <ele>610</ele>
        <time>2019-03-08T13:05:04Z</time>
      </trkpt>
      <trkpt lat="44.3092" lon="5.81108">
        <ele>610</ele>
        <time>2019-03-08T13:05:05Z</time>
      </trkpt>
      <trkpt lat="44.30922" lon="5.81101">
        <ele>610</ele>
        <time>2019-03-08T13:05:06Z</time>
      </trkpt>
      <trkpt lat="44.30923" lon="5.81095">
        <ele>610</ele>
        <time>2019-03-08T13:05:07Z</time>
      </trkpt>
      <trkpt lat="44.30925" lon="5.81088">
        <ele>610</ele>
        <time>2019-03-08T13:05:09Z</time>
      </trkpt>
      <trkpt lat="44.30927" lon="5.81082">
        <ele>610</ele>
        <time>2019-03-08T13:05:09Z</time>
      </trkpt>
      <trkpt lat="44.30929" lon="5.81076">
        <ele>610</ele>
        <time>2019-03-08T13:05:11Z</time>
      </trkpt>
      <trkpt lat="44.30931" lon="5.8107">
        <ele>610</ele>
        <time>2019-03-08T13:05:11Z</time>
      </trkpt>
      <trkpt lat="44.30932" lon="5.81063">
        <ele>610</ele>
        <time>2019-03-08T13:05:12Z</time>
      </trkpt>
      <trkpt lat="44.30934" lon="5.81057">
        <ele>610</ele>
        <time>2019-03-08T13:05:14Z</time>
      </trkpt>
      <trkpt lat="44.30936" lon="5.81051">
        <ele>610</ele>
        <time>2019-03-08T13:05:14Z</time>
      </trkpt>
      <trkpt lat="44.30938" lon="5.81045">
        <ele>610</ele>
        <time>2019-03-08T13:05:15Z</time>
      </trkpt>
      <trkpt lat="44.30941" lon="5.81039">
        <ele>610</ele>
        <time>2019-03-08T13:05:16Z</time>
      </trkpt>
      <trkpt lat="44.30943" lon="5.81033">
        <ele>610</ele>
        <time>2019-03-08T13:05:17Z</time>
      </trkpt>
      <trkpt lat="44.30946" lon="5.81027">
        <ele>610</ele>
        <time>2019-03-08T13:05:19Z</time>
      </trkpt>
      <trkpt lat="44.30948" lon="5.81021">
        <ele>610</ele>
        <time>2019-03-08T13:05:19Z</time>
      </trkpt>
      <trkpt lat="44.30951" lon="5.81015">
        <ele>610</ele>
        <time>2019-03-08T13:05:20Z</time>
      </trkpt>
      <trkpt lat="44.30953" lon="5.81009">
        <ele>610</ele>
        <time>2019-03-08T13:05:21Z</time>
      </trkpt>
      <trkpt lat="44.30956" lon="5.81004">
        <ele>610</ele>
        <time>2019-03-08T13:05:22Z</time>
      </trkpt>
      <trkpt lat="44.30959" lon="5.81">
        <ele>610</ele>
        <time>2019-03-08T13:05:24Z</time>
      </trkpt>
      <trkpt lat="44.30962" lon="5.80995">
        <ele>610</ele>
        <time>2019-03-08T13:05:24Z</time>
      </trkpt>
      <trkpt lat="44.30965" lon="5.8099">
        <ele>610</ele>
        <time>2019-03-08T13:05:25Z</time>
      </trkpt>
      <trkpt lat="44.30968" lon="5.80986">
        <ele>610</ele>
        <time>2019-03-08T13:05:26Z</time>
      </trkpt>
      <trkpt lat="44.30971" lon="5.80982">
        <ele>610</ele>
        <time>2019-03-08T13:05:27Z</time>
      </trkpt>
      <trkpt lat="44.30973" lon="5.80977">
        <ele>610</ele>
        <time>2019-03-08T13:05:29Z</time>
      </trkpt>
      <trkpt lat="44.30976" lon="5.80973">
        <ele>611</ele>
        <time>2019-03-08T13:05:29Z</time>
      </trkpt>
      <trkpt lat="44.30978" lon="5.80969">
        <ele>611</ele>
        <time>2019-03-08T13:05:30Z</time>
      </trkpt>
      <trkpt lat="44.3098" lon="5.80965">
        <ele>611</ele>
        <time>2019-03-08T13:05:31Z</time>
      </trkpt>
      <trkpt lat="44.30982" lon="5.80961">
        <ele>611</ele>
        <time>2019-03-08T13:05:32Z</time>
      </trkpt>
      <trkpt lat="44.30984" lon="5.80956">
        <ele>611</ele>
        <time>2019-03-08T13:05:34Z</time>
      </trkpt>
      <trkpt lat="44.30986" lon="5.80952">
        <ele>611</ele>
        <time>2019-03-08T13:05:35Z</time>
      </trkpt>
      <trkpt lat="44.30988" lon="5.80948">
        <ele>611</ele>
        <time>2019-03-08T13:05:35Z</time>
      </trkpt>
      <trkpt lat="44.3099" lon="5.80944">
        <ele>611</ele>
        <time>2019-03-08T13:05:36Z</time>
      </trkpt>
      <trkpt lat="44.30991" lon="5.8094">
        <ele>611</ele>
        <time>2019-03-08T13:05:37Z</time>
      </trkpt>
      <trkpt lat="44.30993" lon="5.80935">
        <ele>611</ele>
        <time>2019-03-08T13:05:39Z</time>
      </trkpt>
      <trkpt lat="44.30995" lon="5.80931">
        <ele>611</ele>
        <time>2019-03-08T13:05:39Z</time>
      </trkpt>
      <trkpt lat="44.30996" lon="5.80927">
        <ele>611</ele>
        <time>2019-03-08T13:05:41Z</time>
      </trkpt>
      <trkpt lat="44.30998" lon="5.80922">
        <ele>611</ele>
        <time>2019-03-08T13:05:41Z</time>
      </trkpt>
      <trkpt lat="44.30999" lon="5.80918">
        <ele>611</ele>
        <time>2019-03-08T13:05:42Z</time>
      </trkpt>
      <trkpt lat="44.31" lon="5.80913">
        <ele>612</ele>
        <time>2019-03-08T13:05:44Z</time>
      </trkpt>
      <trkpt lat="44.31001" lon="5.80909">
        <ele>612</ele>
        <time>2019-03-08T13:05:44Z</time>
      </trkpt>
      <trkpt lat="44.31002" lon="5.80905">
        <ele>612</ele>
        <time>2019-03-08T13:05:46Z</time>
      </trkpt>
      <trkpt lat="44.31003" lon="5.809">
        <ele>613</ele>
        <time>2019-03-08T13:05:47Z</time>
      </trkpt>
      <trkpt lat="44.31004" lon="5.80896">
        <ele>613</ele>
        <time>2019-03-08T13:05:48Z</time>
      </trkpt>
      <trkpt lat="44.31005" lon="5.80891">
        <ele>613</ele>
        <time>2019-03-08T13:05:49Z</time>
      </trkpt>
      <trkpt lat="44.31005" lon="5.80886">
        <ele>613</ele>
        <time>2019-03-08T13:05:49Z</time>
      </trkpt>
      <trkpt lat="44.31006" lon="5.80882">
        <ele>614</ele>
        <time>2019-03-08T13:05:50Z</time>
      </trkpt>
      <trkpt lat="44.31006" lon="5.80876">
        <ele>614</ele>
        <time>2019-03-08T13:05:51Z</time>
      </trkpt>
      <trkpt lat="44.31007" lon="5.80871">
        <ele>614</ele>
        <time>2019-03-08T13:05:52Z</time>
      </trkpt>
      <trkpt lat="44.31008" lon="5.80866">
        <ele>614</ele>
        <time>2019-03-08T13:05:54Z</time>
      </trkpt>
      <trkpt lat="44.31008" lon="5.80861">
        <ele>614</ele>
        <time>2019-03-08T13:05:54Z</time>
      </trkpt>
      <trkpt lat="44.31009" lon="5.80856">
        <ele>614</ele>
        <time>2019-03-08T13:05:55Z</time>
      </trkpt>
      <trkpt lat="44.3101" lon="5.8085">
        <ele>614</ele>
        <time>2019-03-08T13:05:56Z</time>
      </trkpt>
      <trkpt lat="44.31011" lon="5.80844">
        <ele>614</ele>
        <time>2019-03-08T13:05:57Z</time>
      </trkpt>
      <trkpt lat="44.31013" lon="5.80838">
        <ele>614</ele>
        <time>2019-03-08T13:05:59Z</time>
      </trkpt>
      <trkpt lat="44.31015" lon="5.80833">
        <ele>614</ele>
        <time>2019-03-08T13:05:59Z</time>
      </trkpt>
      <trkpt lat="44.31016" lon="5.80828">
        <ele>614</ele>
        <time>2019-03-08T13:06:00Z</time>
      </trkpt>
      <trkpt lat="44.31018" lon="5.80823">
        <ele>614</ele>
        <time>2019-03-08T13:06:01Z</time>
      </trkpt>
      <trkpt lat="44.3102" lon="5.80818">
        <ele>614</ele>
        <time>2019-03-08T13:06:02Z</time>
      </trkpt>
      <trkpt lat="44.31022" lon="5.80814">
        <ele>615</ele>
        <time>2019-03-08T13:06:04Z</time>
      </trkpt>
      <trkpt lat="44.31024" lon="5.8081">
        <ele>615</ele>
        <time>2019-03-08T13:06:04Z</time>
      </trkpt>
      <trkpt lat="44.31026" lon="5.80806">
        <ele>615</ele>
        <time>2019-03-08T13:06:05Z</time>
      </trkpt>
      <trkpt lat="44.31028" lon="5.80803">
        <ele>615</ele>
        <time>2019-03-08T13:06:06Z</time>
      </trkpt>
      <trkpt lat="44.3103" lon="5.80799">
        <ele>615</ele>
        <time>2019-03-08T13:06:07Z</time>
      </trkpt>
      <trkpt lat="44.31032" lon="5.80796">
        <ele>615</ele>
        <time>2019-03-08T13:06:09Z</time>
      </trkpt>
      <trkpt lat="44.31033" lon="5.80793">
        <ele>615</ele>
        <time>2019-03-08T13:06:09Z</time>
      </trkpt>
      <trkpt lat="44.31035" lon="5.80789">
        <ele>615</ele>
        <time>2019-03-08T13:06:10Z</time>
      </trkpt>
      <trkpt lat="44.31037" lon="5.80785">
        <ele>616</ele>
        <time>2019-03-08T13:06:11Z</time>
      </trkpt>
      <trkpt lat="44.31039" lon="5.80782">
        <ele>616</ele>
        <time>2019-03-08T13:06:12Z</time>
      </trkpt>
      <trkpt lat="44.3104" lon="5.80778">
        <ele>616</ele>
        <time>2019-03-08T13:06:14Z</time>
      </trkpt>
      <trkpt lat="44.31042" lon="5.80774">
        <ele>616</ele>
        <time>2019-03-08T13:06:14Z</time>
      </trkpt>
      <trkpt lat="44.31044" lon="5.8077">
        <ele>616</ele>
        <time>2019-03-08T13:06:15Z</time>
      </trkpt>
      <trkpt lat="44.31046" lon="5.80766">
        <ele>616</ele>
        <time>2019-03-08T13:06:17Z</time>
      </trkpt>
      <trkpt lat="44.31047" lon="5.80762">
        <ele>616</ele>
        <time>2019-03-08T13:06:17Z</time>
      </trkpt>
      <trkpt lat="44.31049" lon="5.80758">
        <ele>616</ele>
        <time>2019-03-08T13:06:19Z</time>
      </trkpt>
      <trkpt lat="44.3105" lon="5.80753">
        <ele>616</ele>
        <time>2019-03-08T13:06:19Z</time>
      </trkpt>
      <trkpt lat="44.31052" lon="5.80749">
        <ele>617</ele>
        <time>2019-03-08T13:06:20Z</time>
      </trkpt>
      <trkpt lat="44.31053" lon="5.80744">
        <ele>617</ele>
        <time>2019-03-08T13:06:21Z</time>
      </trkpt>
      <trkpt lat="44.31055" lon="5.8074">
        <ele>617</ele>
        <time>2019-03-08T13:06:22Z</time>
      </trkpt>
      <trkpt lat="44.31057" lon="5.80736">
        <ele>617</ele>
        <time>2019-03-08T13:06:24Z</time>
      </trkpt>
      <trkpt lat="44.31058" lon="5.8073">
        <ele>617</ele>
        <time>2019-03-08T13:06:24Z</time>
      </trkpt>
      <trkpt lat="44.31059" lon="5.80726">
        <ele>618</ele>
        <time>2019-03-08T13:06:25Z</time>
      </trkpt>
      <trkpt lat="44.3106" lon="5.80722">
        <ele>618</ele>
        <time>2019-03-08T13:06:26Z</time>
      </trkpt>
      <trkpt lat="44.31062" lon="5.80717">
        <ele>618</ele>
        <time>2019-03-08T13:06:27Z</time>
      </trkpt>
      <trkpt lat="44.31063" lon="5.80713">
        <ele>619</ele>
        <time>2019-03-08T13:06:29Z</time>
      </trkpt>
      <trkpt lat="44.31064" lon="5.80708">
        <ele>619</ele>
        <time>2019-03-08T13:06:29Z</time>
      </trkpt>
      <trkpt lat="44.31065" lon="5.80704">
        <ele>619</ele>
        <time>2019-03-08T13:06:30Z</time>
      </trkpt>
      <trkpt lat="44.31066" lon="5.807">
        <ele>619</ele>
        <time>2019-03-08T13:06:31Z</time>
      </trkpt>
      <trkpt lat="44.31068" lon="5.80695">
        <ele>619</ele>
        <time>2019-03-08T13:06:32Z</time>
      </trkpt>
      <trkpt lat="44.31069" lon="5.80691">
        <ele>620</ele>
        <time>2019-03-08T13:06:34Z</time>
      </trkpt>
      <trkpt lat="44.3107" lon="5.80687">
        <ele>620</ele>
        <time>2019-03-08T13:06:34Z</time>
      </trkpt>
      <trkpt lat="44.31071" lon="5.80682">
        <ele>620</ele>
        <time>2019-03-08T13:06:35Z</time>
      </trkpt>
      <trkpt lat="44.31072" lon="5.80678">
        <ele>620</ele>
        <time>2019-03-08T13:06:36Z</time>
      </trkpt>
      <trkpt lat="44.31073" lon="5.80673">
        <ele>620</ele>
        <time>2019-03-08T13:06:37Z</time>
      </trkpt>
      <trkpt lat="44.31074" lon="5.80669">
        <ele>620</ele>
        <time>2019-03-08T13:06:39Z</time>
      </trkpt>
      <trkpt lat="44.31076" lon="5.80664">
        <ele>620</ele>
        <time>2019-03-08T13:06:39Z</time>
      </trkpt>
      <trkpt lat="44.31077" lon="5.8066">
        <ele>621</ele>
        <time>2019-03-08T13:06:40Z</time>
      </trkpt>
      <trkpt lat="44.31078" lon="5.80655">
        <ele>621</ele>
        <time>2019-03-08T13:06:41Z</time>
      </trkpt>
      <trkpt lat="44.31079" lon="5.80651">
        <ele>621</ele>
        <time>2019-03-08T13:06:42Z</time>
      </trkpt>
      <trkpt lat="44.31081" lon="5.80646">
        <ele>621</ele>
        <time>2019-03-08T13:06:44Z</time>
      </trkpt>
      <trkpt lat="44.31082" lon="5.80641">
        <ele>621</ele>
        <time>2019-03-08T13:06:44Z</time>
      </trkpt>
      <trkpt lat="44.31084" lon="5.80636">
        <ele>621</ele>
        <time>2019-03-08T13:06:45Z</time>
      </trkpt>
      <trkpt lat="44.31085" lon="5.80631">
        <ele>621</ele>
        <time>2019-03-08T13:06:46Z</time>
      </trkpt>
      <trkpt lat="44.31086" lon="5.80626">
        <ele>622</ele>
        <time>2019-03-08T13:06:48Z</time>
      </trkpt>
      <trkpt lat="44.31088" lon="5.80621">
        <ele>622</ele>
        <time>2019-03-08T13:06:48Z</time>
      </trkpt>
      <trkpt lat="44.31089" lon="5.80615">
        <ele>622</ele>
        <time>2019-03-08T13:06:49Z</time>
      </trkpt>
      <trkpt lat="44.31091" lon="5.80609">
        <ele>622</ele>
        <time>2019-03-08T13:06:50Z</time>
      </trkpt>
      <trkpt lat="44.31092" lon="5.80602">
        <ele>622</ele>
        <time>2019-03-08T13:06:51Z</time>
      </trkpt>
      <trkpt lat="44.31094" lon="5.80595">
        <ele>622</ele>
        <time>2019-03-08T13:06:52Z</time>
      </trkpt>
      <trkpt lat="44.31096" lon="5.80588">
        <ele>622</ele>
        <time>2019-03-08T13:06:54Z</time>
      </trkpt>
      <trkpt lat="44.31097" lon="5.80581">
        <ele>622</ele>
        <time>2019-03-08T13:06:54Z</time>
      </trkpt>
      <trkpt lat="44.31099" lon="5.80573">
        <ele>622</ele>
        <time>2019-03-08T13:06:55Z</time>
      </trkpt>
      <trkpt lat="44.311" lon="5.80565">
        <ele>622</ele>
        <time>2019-03-08T13:06:56Z</time>
      </trkpt>
      <trkpt lat="44.31102" lon="5.80556">
        <ele>622</ele>
        <time>2019-03-08T13:06:57Z</time>
      </trkpt>
      <trkpt lat="44.31104" lon="5.80548">
        <ele>622</ele>
        <time>2019-03-08T13:06:59Z</time>
      </trkpt>
      <trkpt lat="44.31106" lon="5.8054">
        <ele>622</ele>
        <time>2019-03-08T13:06:59Z</time>
      </trkpt>
      <trkpt lat="44.31108" lon="5.80532">
        <ele>622</ele>
        <time>2019-03-08T13:07:00Z</time>
      </trkpt>
      <trkpt lat="44.3111" lon="5.80524">
        <ele>622</ele>
        <time>2019-03-08T13:07:01Z</time>
      </trkpt>
      <trkpt lat="44.31113" lon="5.80516">
        <ele>622</ele>
        <time>2019-03-08T13:07:02Z</time>
      </trkpt>
      <trkpt lat="44.31115" lon="5.80509">
        <ele>622</ele>
        <time>2019-03-08T13:07:04Z</time>
      </trkpt>
      <trkpt lat="44.31116" lon="5.80502">
        <ele>622</ele>
        <time>2019-03-08T13:07:04Z</time>
      </trkpt>
      <trkpt lat="44.31118" lon="5.80496">
        <ele>622</ele>
        <time>2019-03-08T13:07:05Z</time>
      </trkpt>
      <trkpt lat="44.3112" lon="5.8049">
        <ele>622</ele>
        <time>2019-03-08T13:07:06Z</time>
      </trkpt>
      <trkpt lat="44.31122" lon="5.80484">
        <ele>622</ele>
        <time>2019-03-08T13:07:07Z</time>
      </trkpt>
      <trkpt lat="44.31123" lon="5.80479">
        <ele>622</ele>
        <time>2019-03-08T13:07:09Z</time>
      </trkpt>
      <trkpt lat="44.31124" lon="5.80474">
        <ele>623</ele>
        <time>2019-03-08T13:07:09Z</time>
      </trkpt>
      <trkpt lat="44.31125" lon="5.80469">
        <ele>623</ele>
        <time>2019-03-08T13:07:10Z</time>
      </trkpt>
      <trkpt lat="44.31126" lon="5.80463">
        <ele>623</ele>
        <time>2019-03-08T13:07:11Z</time>
      </trkpt>
      <trkpt lat="44.31126" lon="5.80458">
        <ele>623</ele>
        <time>2019-03-08T13:07:12Z</time>
      </trkpt>
      <trkpt lat="44.31126" lon="5.80452">
        <ele>623</ele>
        <time>2019-03-08T13:07:14Z</time>
      </trkpt>
      <trkpt lat="44.31126" lon="5.80446">
        <ele>623</ele>
        <time>2019-03-08T13:07:14Z</time>
      </trkpt>
      <trkpt lat="44.31125" lon="5.80441">
        <ele>623</ele>
        <time>2019-03-08T13:07:15Z</time>
      </trkpt>
      <trkpt lat="44.31124" lon="5.80435">
        <ele>623</ele>
        <time>2019-03-08T13:07:16Z</time>
      </trkpt>
      <trkpt lat="44.31124" lon="5.80429">
        <ele>623</ele>
        <time>2019-03-08T13:07:17Z</time>
      </trkpt>
      <trkpt lat="44.31123" lon="5.80423">
        <ele>623</ele>
        <time>2019-03-08T13:07:19Z</time>
      </trkpt>
      <trkpt lat="44.31123" lon="5.80417">
        <ele>623</ele>
        <time>2019-03-08T13:07:19Z</time>
      </trkpt>
      <trkpt lat="44.31122" lon="5.8041">
        <ele>624</ele>
        <time>2019-03-08T13:07:20Z</time>
      </trkpt>
      <trkpt lat="44.31121" lon="5.80404">
        <ele>624</ele>
        <time>2019-03-08T13:07:21Z</time>
      </trkpt>
      <trkpt lat="44.31121" lon="5.80397">
        <ele>624</ele>
        <time>2019-03-08T13:07:23Z</time>
      </trkpt>
      <trkpt lat="44.31121" lon="5.80391">
        <ele>624</ele>
        <time>2019-03-08T13:07:24Z</time>
      </trkpt>
      <trkpt lat="44.31121" lon="5.80385">
        <ele>624</ele>
        <time>2019-03-08T13:07:24Z</time>
      </trkpt>
      <trkpt lat="44.31121" lon="5.80378">
        <ele>624</ele>
        <time>2019-03-08T13:07:25Z</time>
      </trkpt>
      <trkpt lat="44.31121" lon="5.80372">
        <ele>624</ele>
        <time>2019-03-08T13:07:26Z</time>
      </trkpt>
      <trkpt lat="44.3112" lon="5.80365">
        <ele>624</ele>
        <time>2019-03-08T13:07:27Z</time>
      </trkpt>
      <trkpt lat="44.3112" lon="5.80358">
        <ele>624</ele>
        <time>2019-03-08T13:07:29Z</time>
      </trkpt>
      <trkpt lat="44.31119" lon="5.80351">
        <ele>624</ele>
        <time>2019-03-08T13:07:29Z</time>
      </trkpt>
      <trkpt lat="44.31119" lon="5.80343">
        <ele>624</ele>
        <time>2019-03-08T13:07:30Z</time>
      </trkpt>
      <trkpt lat="44.31118" lon="5.80336">
        <ele>624</ele>
        <time>2019-03-08T13:07:31Z</time>
      </trkpt>
      <trkpt lat="44.31118" lon="5.80328">
        <ele>624</ele>
        <time>2019-03-08T13:07:32Z</time>
      </trkpt>
      <trkpt lat="44.31119" lon="5.8032">
        <ele>624</ele>
        <time>2019-03-08T13:07:34Z</time>
      </trkpt>
      <trkpt lat="44.3112" lon="5.80313">
        <ele>624</ele>
        <time>2019-03-08T13:07:34Z</time>
      </trkpt>
      <trkpt lat="44.31121" lon="5.80305">
        <ele>624</ele>
        <time>2019-03-08T13:07:35Z</time>
      </trkpt>
      <trkpt lat="44.31123" lon="5.80298">
        <ele>624</ele>
        <time>2019-03-08T13:07:36Z</time>
      </trkpt>
      <trkpt lat="44.31125" lon="5.80291">
        <ele>624</ele>
        <time>2019-03-08T13:07:37Z</time>
      </trkpt>
      <trkpt lat="44.31128" lon="5.80284">
        <ele>624</ele>
        <time>2019-03-08T13:07:39Z</time>
      </trkpt>
      <trkpt lat="44.3113" lon="5.80277">
        <ele>624</ele>
        <time>2019-03-08T13:07:39Z</time>
      </trkpt>
      <trkpt lat="44.31133" lon="5.80271">
        <ele>624</ele>
        <time>2019-03-08T13:07:40Z</time>
      </trkpt>
      <trkpt lat="44.31136" lon="5.80264">
        <ele>624</ele>
        <time>2019-03-08T13:07:41Z</time>
      </trkpt>
      <trkpt lat="44.31139" lon="5.80258">
        <ele>624</ele>
        <time>2019-03-08T13:07:42Z</time>
      </trkpt>
      <trkpt lat="44.31141" lon="5.80252">
        <ele>624</ele>
        <time>2019-03-08T13:07:44Z</time>
      </trkpt>
      <trkpt lat="44.31144" lon="5.80246">
        <ele>624</ele>
        <time>2019-03-08T13:07:44Z</time>
      </trkpt>
      <trkpt lat="44.31147" lon="5.8024">
        <ele>624</ele>
        <time>2019-03-08T13:07:45Z</time>
      </trkpt>
      <trkpt lat="44.3115" lon="5.80234">
        <ele>624</ele>
        <time>2019-03-08T13:07:46Z</time>
      </trkpt>
      <trkpt lat="44.31153" lon="5.80227">
        <ele>624</ele>
        <time>2019-03-08T13:07:48Z</time>
      </trkpt>
      <trkpt lat="44.31157" lon="5.8022">
        <ele>624</ele>
        <time>2019-03-08T13:07:49Z</time>
      </trkpt>
      <trkpt lat="44.3116" lon="5.80213">
        <ele>624</ele>
        <time>2019-03-08T13:07:49Z</time>
      </trkpt>
      <trkpt lat="44.31163" lon="5.80205">
        <ele>624</ele>
        <time>2019-03-08T13:07:50Z</time>
      </trkpt>
      <trkpt lat="44.31167" lon="5.80197">
        <ele>624</ele>
        <time>2019-03-08T13:07:51Z</time>
      </trkpt>
      <trkpt lat="44.3117" lon="5.80189">
        <ele>624</ele>
        <time>2019-03-08T13:07:52Z</time>
      </trkpt>
      <trkpt lat="44.31173" lon="5.8018">
        <ele>624</ele>
        <time>2019-03-08T13:07:54Z</time>
      </trkpt>
      <trkpt lat="44.31176" lon="5.80171">
        <ele>623</ele>
        <time>2019-03-08T13:07:54Z</time>
      </trkpt>
      <trkpt lat="44.31178" lon="5.80162">
        <ele>622</ele>
        <time>2019-03-08T13:07:55Z</time>
      </trkpt>
      <trkpt lat="44.3118" lon="5.80152">
        <ele>622</ele>
        <time>2019-03-08T13:07:56Z</time>
      </trkpt>
      <trkpt lat="44.31183" lon="5.80142">
        <ele>621</ele>
        <time>2019-03-08T13:07:57Z</time>
      </trkpt>
      <trkpt lat="44.31185" lon="5.80131">
        <ele>621</ele>
        <time>2019-03-08T13:07:59Z</time>
      </trkpt>
      <trkpt lat="44.31189" lon="5.80121">
        <ele>620</ele>
        <time>2019-03-08T13:07:59Z</time>
      </trkpt>
      <trkpt lat="44.31192" lon="5.80112">
        <ele>619</ele>
        <time>2019-03-08T13:08:00Z</time>
      </trkpt>
      <trkpt lat="44.31197" lon="5.80103">
        <ele>619</ele>
        <time>2019-03-08T13:08:01Z</time>
      </trkpt>
      <trkpt lat="44.31202" lon="5.80096">
        <ele>619</ele>
        <time>2019-03-08T13:08:02Z</time>
      </trkpt>
      <trkpt lat="44.31208" lon="5.8009">
        <ele>619</ele>
        <time>2019-03-08T13:08:04Z</time>
      </trkpt>
      <trkpt lat="44.31212" lon="5.80082">
        <ele>619</ele>
        <time>2019-03-08T13:08:04Z</time>
      </trkpt>
      <trkpt lat="44.31216" lon="5.80075">
        <ele>619</ele>
        <time>2019-03-08T13:08:05Z</time>
      </trkpt>
      <trkpt lat="44.3122" lon="5.80068">
        <ele>619</ele>
        <time>2019-03-08T13:08:06Z</time>
      </trkpt>
      <trkpt lat="44.31224" lon="5.80061">
        <ele>619</ele>
        <time>2019-03-08T13:08:07Z</time>
      </trkpt>
      <trkpt lat="44.31226" lon="5.80054">
        <ele>619</ele>
        <time>2019-03-08T13:08:08Z</time>
      </trkpt>
      <trkpt lat="44.31228" lon="5.80047">
        <ele>619</ele>
        <time>2019-03-08T13:08:09Z</time>
      </trkpt>
      <trkpt lat="44.3123" lon="5.8004">
        <ele>619</ele>
        <time>2019-03-08T13:08:10Z</time>
      </trkpt>
      <trkpt lat="44.31231" lon="5.80033">
        <ele>619</ele>
        <time>2019-03-08T13:08:11Z</time>
      </trkpt>
      <trkpt lat="44.31231" lon="5.80025">
        <ele>619</ele>
        <time>2019-03-08T13:08:12Z</time>
      </trkpt>
      <trkpt lat="44.31231" lon="5.80018">
        <ele>619</ele>
        <time>2019-03-08T13:08:14Z</time>
      </trkpt>
      <trkpt lat="44.31231" lon="5.8001">
        <ele>619</ele>
        <time>2019-03-08T13:08:14Z</time>
      </trkpt>
      <trkpt lat="44.31231" lon="5.80002">
        <ele>619</ele>
        <time>2019-03-08T13:08:15Z</time>
      </trkpt>
      <trkpt lat="44.31232" lon="5.79993">
        <ele>619</ele>
        <time>2019-03-08T13:08:16Z</time>
      </trkpt>
      <trkpt lat="44.31232" lon="5.79985">
        <ele>619</ele>
        <time>2019-03-08T13:08:17Z</time>
      </trkpt>
      <trkpt lat="44.31233" lon="5.79976">
        <ele>619</ele>
        <time>2019-03-08T13:08:19Z</time>
      </trkpt>
      <trkpt lat="44.31235" lon="5.79968">
        <ele>619</ele>
        <time>2019-03-08T13:08:19Z</time>
      </trkpt>
      <trkpt lat="44.31238" lon="5.79961">
        <ele>619</ele>
        <time>2019-03-08T13:08:20Z</time>
      </trkpt>
      <trkpt lat="44.31242" lon="5.79954">
        <ele>619</ele>
        <time>2019-03-08T13:08:21Z</time>
      </trkpt>
      <trkpt lat="44.31245" lon="5.79949">
        <ele>619</ele>
        <time>2019-03-08T13:08:22Z</time>
      </trkpt>
      <trkpt lat="44.31248" lon="5.79944">
        <ele>619</ele>
        <time>2019-03-08T13:08:23Z</time>
      </trkpt>
      <trkpt lat="44.31251" lon="5.7994">
        <ele>619</ele>
        <time>2019-03-08T13:08:24Z</time>
      </trkpt>
      <trkpt lat="44.31254" lon="5.79936">
        <ele>619</ele>
        <time>2019-03-08T13:08:25Z</time>
      </trkpt>
      <trkpt lat="44.31257" lon="5.79932">
        <ele>619</ele>
        <time>2019-03-08T13:08:26Z</time>
      </trkpt>
      <trkpt lat="44.31261" lon="5.79928">
        <ele>619</ele>
        <time>2019-03-08T13:08:27Z</time>
      </trkpt>
      <trkpt lat="44.31264" lon="5.79923">
        <ele>619</ele>
        <time>2019-03-08T13:08:29Z</time>
      </trkpt>
      <trkpt lat="44.31268" lon="5.79918">
        <ele>619</ele>
        <time>2019-03-08T13:08:29Z</time>
      </trkpt>
      <trkpt lat="44.31272" lon="5.79912">
        <ele>619</ele>
        <time>2019-03-08T13:08:30Z</time>
      </trkpt>
      <trkpt lat="44.31276" lon="5.79907">
        <ele>619</ele>
        <time>2019-03-08T13:08:31Z</time>
      </trkpt>
      <trkpt lat="44.31281" lon="5.79901">
        <ele>619</ele>
        <time>2019-03-08T13:08:32Z</time>
      </trkpt>
      <trkpt lat="44.31285" lon="5.79895">
        <ele>618</ele>
        <time>2019-03-08T13:08:34Z</time>
      </trkpt>
      <trkpt lat="44.3129" lon="5.79889">
        <ele>618</ele>
        <time>2019-03-08T13:08:34Z</time>
      </trkpt>
      <trkpt lat="44.31294" lon="5.79883">
        <ele>618</ele>
        <time>2019-03-08T13:08:35Z</time>
      </trkpt>
      <trkpt lat="44.31299" lon="5.79877">
        <ele>618</ele>
        <time>2019-03-08T13:08:36Z</time>
      </trkpt>
      <trkpt lat="44.31303" lon="5.79871">
        <ele>618</ele>
        <time>2019-03-08T13:08:37Z</time>
      </trkpt>
      <trkpt lat="44.31308" lon="5.79865">
        <ele>618</ele>
        <time>2019-03-08T13:08:39Z</time>
      </trkpt>
      <trkpt lat="44.31312" lon="5.79859">
        <ele>617</ele>
        <time>2019-03-08T13:08:39Z</time>
      </trkpt>
      <trkpt lat="44.31316" lon="5.79853">
        <ele>617</ele>
        <time>2019-03-08T13:08:40Z</time>
      </trkpt>
      <trkpt lat="44.31319" lon="5.79846">
        <ele>617</ele>
        <time>2019-03-08T13:08:41Z</time>
      </trkpt>
      <trkpt lat="44.31323" lon="5.7984">
        <ele>617</ele>
        <time>2019-03-08T13:08:42Z</time>
      </trkpt>
      <trkpt lat="44.31327" lon="5.79835">
        <ele>617</ele>
        <time>2019-03-08T13:08:44Z</time>
      </trkpt>
      <trkpt lat="44.31331" lon="5.79828">
        <ele>617</ele>
        <time>2019-03-08T13:08:44Z</time>
      </trkpt>
      <trkpt lat="44.31335" lon="5.79822">
        <ele>617</ele>
        <time>2019-03-08T13:08:45Z</time>
      </trkpt>
      <trkpt lat="44.31339" lon="5.79816">
        <ele>617</ele>
        <time>2019-03-08T13:08:46Z</time>
      </trkpt>
      <trkpt lat="44.31342" lon="5.79811">
        <ele>617</ele>
        <time>2019-03-08T13:08:48Z</time>
      </trkpt>
      <trkpt lat="44.31346" lon="5.79806">
        <ele>617</ele>
        <time>2019-03-08T13:08:48Z</time>
      </trkpt>
      <trkpt lat="44.31349" lon="5.79801">
        <ele>617</ele>
        <time>2019-03-08T13:08:49Z</time>
      </trkpt>
      <trkpt lat="44.31353" lon="5.79796">
        <ele>617</ele>
        <time>2019-03-08T13:08:50Z</time>
      </trkpt>
      <trkpt lat="44.31356" lon="5.7979">
        <ele>617</ele>
        <time>2019-03-08T13:08:51Z</time>
      </trkpt>
      <trkpt lat="44.31359" lon="5.79785">
        <ele>617</ele>
        <time>2019-03-08T13:08:52Z</time>
      </trkpt>
      <trkpt lat="44.31362" lon="5.7978">
        <ele>617</ele>
        <time>2019-03-08T13:08:53Z</time>
      </trkpt>
      <trkpt lat="44.31366" lon="5.79774">
        <ele>617</ele>
        <time>2019-03-08T13:08:54Z</time>
      </trkpt>
      <trkpt lat="44.31369" lon="5.79769">
        <ele>617</ele>
        <time>2019-03-08T13:08:55Z</time>
      </trkpt>
      <trkpt lat="44.31372" lon="5.79764">
        <ele>617</ele>
        <time>2019-03-08T13:08:56Z</time>
      </trkpt>
      <trkpt lat="44.31375" lon="5.79759">
        <ele>617</ele>
        <time>2019-03-08T13:08:57Z</time>
      </trkpt>
      <trkpt lat="44.31378" lon="5.79754">
        <ele>617</ele>
        <time>2019-03-08T13:08:59Z</time>
      </trkpt>
      <trkpt lat="44.31381" lon="5.79749">
        <ele>616</ele>
        <time>2019-03-08T13:08:59Z</time>
      </trkpt>
      <trkpt lat="44.31385" lon="5.79744">
        <ele>616</ele>
        <time>2019-03-08T13:09:00Z</time>
      </trkpt>
      <trkpt lat="44.31387" lon="5.79739">
        <ele>616</ele>
        <time>2019-03-08T13:09:01Z</time>
      </trkpt>
      <trkpt lat="44.3139" lon="5.79734">
        <ele>616</ele>
        <time>2019-03-08T13:09:02Z</time>
      </trkpt>
      <trkpt lat="44.31393" lon="5.79729">
        <ele>616</ele>
        <time>2019-03-08T13:09:03Z</time>
      </trkpt>
      <trkpt lat="44.31395" lon="5.79724">
        <ele>616</ele>
        <time>2019-03-08T13:09:04Z</time>
      </trkpt>
      <trkpt lat="44.31398" lon="5.79719">
        <ele>616</ele>
        <time>2019-03-08T13:09:05Z</time>
      </trkpt>
      <trkpt lat="44.314" lon="5.79714">
        <ele>616</ele>
        <time>2019-03-08T13:09:06Z</time>
      </trkpt>
      <trkpt lat="44.31401" lon="5.79709">
        <ele>616</ele>
        <time>2019-03-08T13:09:07Z</time>
      </trkpt>
      <trkpt lat="44.31403" lon="5.79703">
        <ele>616</ele>
        <time>2019-03-08T13:09:08Z</time>
      </trkpt>
      <trkpt lat="44.31405" lon="5.79697">
        <ele>616</ele>
        <time>2019-03-08T13:09:09Z</time>
      </trkpt>
      <trkpt lat="44.31407" lon="5.79691">
        <ele>616</ele>
        <time>2019-03-08T13:09:10Z</time>
      </trkpt>
      <trkpt lat="44.31408" lon="5.79684">
        <ele>615</ele>
        <time>2019-03-08T13:09:11Z</time>
      </trkpt>
      <trkpt lat="44.3141" lon="5.79677">
        <ele>615</ele>
        <time>2019-03-08T13:09:12Z</time>
      </trkpt>
      <trkpt lat="44.31412" lon="5.79669">
        <ele>615</ele>
        <time>2019-03-08T13:09:13Z</time>
      </trkpt>
      <trkpt lat="44.31415" lon="5.7966">
        <ele>614</ele>
        <time>2019-03-08T13:09:14Z</time>
      </trkpt>
      <trkpt lat="44.31417" lon="5.79651">
        <ele>614</ele>
        <time>2019-03-08T13:09:15Z</time>
      </trkpt>
      <trkpt lat="44.31419" lon="5.79642">
        <ele>614</ele>
        <time>2019-03-08T13:09:16Z</time>
      </trkpt>
      <trkpt lat="44.31422" lon="5.79632">
        <ele>613</ele>
        <time>2019-03-08T13:09:17Z</time>
      </trkpt>
      <trkpt lat="44.31424" lon="5.79622">
        <ele>613</ele>
        <time>2019-03-08T13:09:19Z</time>
      </trkpt>
      <trkpt lat="44.31427" lon="5.79611">
        <ele>612</ele>
        <time>2019-03-08T13:09:19Z</time>
      </trkpt>
      <trkpt lat="44.31429" lon="5.796">
        <ele>612</ele>
        <time>2019-03-08T13:09:20Z</time>
      </trkpt>
      <trkpt lat="44.31432" lon="5.7959">
        <ele>611</ele>
        <time>2019-03-08T13:09:21Z</time>
      </trkpt>
      <trkpt lat="44.31435" lon="5.79579">
        <ele>611</ele>
        <time>2019-03-08T13:09:22Z</time>
      </trkpt>
      <trkpt lat="44.31438" lon="5.79568">
        <ele>610</ele>
        <time>2019-03-08T13:09:23Z</time>
      </trkpt>
      <trkpt lat="44.31441" lon="5.79557">
        <ele>610</ele>
        <time>2019-03-08T13:09:24Z</time>
      </trkpt>
      <trkpt lat="44.31444" lon="5.79545">
        <ele>609</ele>
        <time>2019-03-08T13:09:25Z</time>
      </trkpt>
      <trkpt lat="44.31447" lon="5.79534">
        <ele>609</ele>
        <time>2019-03-08T13:09:26Z</time>
      </trkpt>
      <trkpt lat="44.3145" lon="5.79522">
        <ele>608</ele>
        <time>2019-03-08T13:09:27Z</time>
      </trkpt>
      <trkpt lat="44.31453" lon="5.7951">
        <ele>607</ele>
        <time>2019-03-08T13:09:28Z</time>
      </trkpt>
      <trkpt lat="44.31456" lon="5.79499">
        <ele>607</ele>
        <time>2019-03-08T13:09:29Z</time>
      </trkpt>
      <trkpt lat="44.31459" lon="5.79487">
        <ele>606</ele>
        <time>2019-03-08T13:09:30Z</time>
      </trkpt>
      <trkpt lat="44.31462" lon="5.79476">
        <ele>605</ele>
        <time>2019-03-08T13:09:31Z</time>
      </trkpt>
      <trkpt lat="44.31464" lon="5.79465">
        <ele>605</ele>
        <time>2019-03-08T13:09:32Z</time>
      </trkpt>
      <trkpt lat="44.31465" lon="5.79454">
        <ele>604</ele>
        <time>2019-03-08T13:09:34Z</time>
      </trkpt>
      <trkpt lat="44.31466" lon="5.79442">
        <ele>604</ele>
        <time>2019-03-08T13:09:34Z</time>
      </trkpt>
      <trkpt lat="44.31466" lon="5.79431">
        <ele>603</ele>
        <time>2019-03-08T13:09:35Z</time>
      </trkpt>
      <trkpt lat="44.31466" lon="5.7942">
        <ele>602</ele>
        <time>2019-03-08T13:09:36Z</time>
      </trkpt>
      <trkpt lat="44.31466" lon="5.79409">
        <ele>602</ele>
        <time>2019-03-08T13:09:37Z</time>
      </trkpt>
      <trkpt lat="44.31464" lon="5.79397">
        <ele>601</ele>
        <time>2019-03-08T13:09:38Z</time>
      </trkpt>
      <trkpt lat="44.31463" lon="5.79384">
        <ele>600</ele>
        <time>2019-03-08T13:09:39Z</time>
      </trkpt>
      <trkpt lat="44.31462" lon="5.79372">
        <ele>600</ele>
        <time>2019-03-08T13:09:40Z</time>
      </trkpt>
      <trkpt lat="44.31461" lon="5.79359">
        <ele>599</ele>
        <time>2019-03-08T13:09:41Z</time>
      </trkpt>
      <trkpt lat="44.31461" lon="5.79346">
        <ele>599</ele>
        <time>2019-03-08T13:09:42Z</time>
      </trkpt>
      <trkpt lat="44.31461" lon="5.79333">
        <ele>598</ele>
        <time>2019-03-08T13:09:44Z</time>
      </trkpt>
      <trkpt lat="44.31462" lon="5.7932">
        <ele>598</ele>
        <time>2019-03-08T13:09:44Z</time>
      </trkpt>
      <trkpt lat="44.31464" lon="5.79308">
        <ele>597</ele>
        <time>2019-03-08T13:09:45Z</time>
      </trkpt>
      <trkpt lat="44.31467" lon="5.79294">
        <ele>596</ele>
        <time>2019-03-08T13:09:46Z</time>
      </trkpt>
      <trkpt lat="44.31469" lon="5.79282">
        <ele>596</ele>
        <time>2019-03-08T13:09:48Z</time>
      </trkpt>
      <trkpt lat="44.31471" lon="5.79269">
        <ele>595</ele>
        <time>2019-03-08T13:09:48Z</time>
      </trkpt>
      <trkpt lat="44.31474" lon="5.79256">
        <ele>594</ele>
        <time>2019-03-08T13:09:49Z</time>
      </trkpt>
      <trkpt lat="44.31478" lon="5.79244">
        <ele>593</ele>
        <time>2019-03-08T13:09:50Z</time>
      </trkpt>
      <trkpt lat="44.31482" lon="5.79231">
        <ele>593</ele>
        <time>2019-03-08T13:09:51Z</time>
      </trkpt>
      <trkpt lat="44.31487" lon="5.7922">
        <ele>592</ele>
        <time>2019-03-08T13:09:52Z</time>
      </trkpt>
      <trkpt lat="44.31491" lon="5.7921">
        <ele>592</ele>
        <time>2019-03-08T13:09:53Z</time>
      </trkpt>
      <trkpt lat="44.31497" lon="5.792">
        <ele>591</ele>
        <time>2019-03-08T13:09:55Z</time>
      </trkpt>
      <trkpt lat="44.31502" lon="5.79189">
        <ele>591</ele>
        <time>2019-03-08T13:09:55Z</time>
      </trkpt>
      <trkpt lat="44.31506" lon="5.79179">
        <ele>591</ele>
        <time>2019-03-08T13:09:56Z</time>
      </trkpt>
      <trkpt lat="44.31511" lon="5.79168">
        <ele>590</ele>
        <time>2019-03-08T13:09:57Z</time>
      </trkpt>
      <trkpt lat="44.31514" lon="5.79156">
        <ele>590</ele>
        <time>2019-03-08T13:09:59Z</time>
      </trkpt>
      <trkpt lat="44.31518" lon="5.79144">
        <ele>589</ele>
        <time>2019-03-08T13:09:59Z</time>
      </trkpt>
      <trkpt lat="44.31521" lon="5.79133">
        <ele>589</ele>
        <time>2019-03-08T13:10:00Z</time>
      </trkpt>
      <trkpt lat="44.31524" lon="5.79123">
        <ele>588</ele>
        <time>2019-03-08T13:10:01Z</time>
      </trkpt>
      <trkpt lat="44.31527" lon="5.79112">
        <ele>588</ele>
        <time>2019-03-08T13:10:02Z</time>
      </trkpt>
      <trkpt lat="44.31531" lon="5.79102">
        <ele>587</ele>
        <time>2019-03-08T13:10:03Z</time>
      </trkpt>
      <trkpt lat="44.31535" lon="5.79092">
        <ele>587</ele>
        <time>2019-03-08T13:10:04Z</time>
      </trkpt>
      <trkpt lat="44.31538" lon="5.79082">
        <ele>587</ele>
        <time>2019-03-08T13:10:05Z</time>
      </trkpt>
      <trkpt lat="44.31541" lon="5.79072">
        <ele>587</ele>
        <time>2019-03-08T13:10:06Z</time>
      </trkpt>
      <trkpt lat="44.31544" lon="5.79063">
        <ele>587</ele>
        <time>2019-03-08T13:10:07Z</time>
      </trkpt>
      <trkpt lat="44.31548" lon="5.79054">
        <ele>587</ele>
        <time>2019-03-08T13:10:08Z</time>
      </trkpt>
      <trkpt lat="44.31551" lon="5.79045">
        <ele>587</ele>
        <time>2019-03-08T13:10:09Z</time>
      </trkpt>
      <trkpt lat="44.31555" lon="5.79036">
        <ele>587</ele>
        <time>2019-03-08T13:10:10Z</time>
      </trkpt>
      <trkpt lat="44.31559" lon="5.79028">
        <ele>587</ele>
        <time>2019-03-08T13:10:11Z</time>
      </trkpt>
      <trkpt lat="44.31562" lon="5.79021">
        <ele>587</ele>
        <time>2019-03-08T13:10:12Z</time>
      </trkpt>
      <trkpt lat="44.31564" lon="5.79013">
        <ele>587</ele>
        <time>2019-03-08T13:10:13Z</time>
      </trkpt>
      <trkpt lat="44.31567" lon="5.79006">
        <ele>587</ele>
        <time>2019-03-08T13:10:14Z</time>
      </trkpt>
      <trkpt lat="44.31569" lon="5.78999">
        <ele>587</ele>
        <time>2019-03-08T13:10:15Z</time>
      </trkpt>
      <trkpt lat="44.31571" lon="5.78992">
        <ele>587</ele>
        <time>2019-03-08T13:10:16Z</time>
      </trkpt>
      <trkpt lat="44.31572" lon="5.78985">
        <ele>587</ele>
        <time>2019-03-08T13:10:17Z</time>
      </trkpt>
      <trkpt lat="44.31574" lon="5.78977">
        <ele>587</ele>
        <time>2019-03-08T13:10:18Z</time>
      </trkpt>
      <trkpt lat="44.31575" lon="5.7897">
        <ele>587</ele>
        <time>2019-03-08T13:10:19Z</time>
      </trkpt>
      <trkpt lat="44.31576" lon="5.78964">
        <ele>587</ele>
        <time>2019-03-08T13:10:20Z</time>
      </trkpt>
      <trkpt lat="44.31577" lon="5.78956">
        <ele>587</ele>
        <time>2019-03-08T13:10:21Z</time>
      </trkpt>
      <trkpt lat="44.31578" lon="5.78949">
        <ele>587</ele>
        <time>2019-03-08T13:10:22Z</time>
      </trkpt>
      <trkpt lat="44.31579" lon="5.78942">
        <ele>587</ele>
        <time>2019-03-08T13:10:23Z</time>
      </trkpt>
      <trkpt lat="44.3158" lon="5.78935">
        <ele>587</ele>
        <time>2019-03-08T13:10:24Z</time>
      </trkpt>
      <trkpt lat="44.31581" lon="5.78928">
        <ele>587</ele>
        <time>2019-03-08T13:10:25Z</time>
      </trkpt>
      <trkpt lat="44.31582" lon="5.7892">
        <ele>587</ele>
        <time>2019-03-08T13:10:26Z</time>
      </trkpt>
      <trkpt lat="44.31583" lon="5.78913">
        <ele>587</ele>
        <time>2019-03-08T13:10:27Z</time>
      </trkpt>
      <trkpt lat="44.31583" lon="5.78906">
        <ele>587</ele>
        <time>2019-03-08T13:10:28Z</time>
      </trkpt>
      <trkpt lat="44.31584" lon="5.78899">
        <ele>587</ele>
        <time>2019-03-08T13:10:29Z</time>
      </trkpt>
      <trkpt lat="44.31585" lon="5.78892">
        <ele>587</ele>
        <time>2019-03-08T13:10:30Z</time>
      </trkpt>
      <trkpt lat="44.31586" lon="5.78885">
        <ele>587</ele>
        <time>2019-03-08T13:10:31Z</time>
      </trkpt>
      <trkpt lat="44.31587" lon="5.78879">
        <ele>587</ele>
        <time>2019-03-08T13:10:32Z</time>
      </trkpt>
      <trkpt lat="44.31588" lon="5.78872">
        <ele>587</ele>
        <time>2019-03-08T13:10:33Z</time>
      </trkpt>
      <trkpt lat="44.31588" lon="5.78865">
        <ele>587</ele>
        <time>2019-03-08T13:10:34Z</time>
      </trkpt>
      <trkpt lat="44.31589" lon="5.7886">
        <ele>587</ele>
        <time>2019-03-08T13:10:35Z</time>
      </trkpt>
      <trkpt lat="44.3159" lon="5.78853">
        <ele>587</ele>
        <time>2019-03-08T13:10:36Z</time>
      </trkpt>
      <trkpt lat="44.3159" lon="5.78848">
        <ele>587</ele>
        <time>2019-03-08T13:10:37Z</time>
      </trkpt>
      <trkpt lat="44.31591" lon="5.78842">
        <ele>587</ele>
        <time>2019-03-08T13:10:38Z</time>
      </trkpt>
      <trkpt lat="44.31592" lon="5.78837">
        <ele>587</ele>
        <time>2019-03-08T13:10:39Z</time>
      </trkpt>
      <trkpt lat="44.31593" lon="5.78832">
        <ele>587</ele>
        <time>2019-03-08T13:10:40Z</time>
      </trkpt>
      <trkpt lat="44.31593" lon="5.78827">
        <ele>588</ele>
        <time>2019-03-08T13:10:41Z</time>
      </trkpt>
      <trkpt lat="44.31594" lon="5.78822">
        <ele>588</ele>
        <time>2019-03-08T13:10:42Z</time>
      </trkpt>
      <trkpt lat="44.31594" lon="5.78818">
        <ele>589</ele>
        <time>2019-03-08T13:10:43Z</time>
      </trkpt>
      <trkpt lat="44.31594" lon="5.78813">
        <ele>589</ele>
        <time>2019-03-08T13:10:44Z</time>
      </trkpt>
      <trkpt lat="44.31594" lon="5.78807">
        <ele>590</ele>
        <time>2019-03-08T13:10:45Z</time>
      </trkpt>
      <trkpt lat="44.31595" lon="5.78803">
        <ele>590</ele>
        <time>2019-03-08T13:10:46Z</time>
      </trkpt>
      <trkpt lat="44.31595" lon="5.78797">
        <ele>591</ele>
        <time>2019-03-08T13:10:48Z</time>
      </trkpt>
      <trkpt lat="44.31596" lon="5.78792">
        <ele>591</ele>
        <time>2019-03-08T13:10:48Z</time>
      </trkpt>
      <trkpt lat="44.31596" lon="5.78787">
        <ele>592</ele>
        <time>2019-03-08T13:10:49Z</time>
      </trkpt>
      <trkpt lat="44.31596" lon="5.78783">
        <ele>592</ele>
        <time>2019-03-08T13:10:50Z</time>
      </trkpt>
      <trkpt lat="44.31596" lon="5.78777">
        <ele>592</ele>
        <time>2019-03-08T13:10:51Z</time>
      </trkpt>
      <trkpt lat="44.31597" lon="5.78772">
        <ele>593</ele>
        <time>2019-03-08T13:10:52Z</time>
      </trkpt>
      <trkpt lat="44.31597" lon="5.78767">
        <ele>593</ele>
        <time>2019-03-08T13:10:53Z</time>
      </trkpt>
      <trkpt lat="44.31597" lon="5.78763">
        <ele>593</ele>
        <time>2019-03-08T13:10:54Z</time>
      </trkpt>
      <trkpt lat="44.31598" lon="5.78758">
        <ele>593</ele>
        <time>2019-03-08T13:10:55Z</time>
      </trkpt>
      <trkpt lat="44.31598" lon="5.78753">
        <ele>594</ele>
        <time>2019-03-08T13:10:56Z</time>
      </trkpt>
      <trkpt lat="44.31598" lon="5.78749">
        <ele>594</ele>
        <time>2019-03-08T13:10:57Z</time>
      </trkpt>
      <trkpt lat="44.31599" lon="5.78744">
        <ele>594</ele>
        <time>2019-03-08T13:10:59Z</time>
      </trkpt>
      <trkpt lat="44.31599" lon="5.7874">
        <ele>594</ele>
        <time>2019-03-08T13:10:59Z</time>
      </trkpt>
      <trkpt lat="44.31599" lon="5.78735">
        <ele>594</ele>
        <time>2019-03-08T13:11:00Z</time>
      </trkpt>
      <trkpt lat="44.316" lon="5.78731">
        <ele>595</ele>
        <time>2019-03-08T13:11:01Z</time>
      </trkpt>
      <trkpt lat="44.316" lon="5.78728">
        <ele>595</ele>
        <time>2019-03-08T13:11:02Z</time>
      </trkpt>
      <trkpt lat="44.31601" lon="5.78723">
        <ele>595</ele>
        <time>2019-03-08T13:11:03Z</time>
      </trkpt>
      <trkpt lat="44.31601" lon="5.78719">
        <ele>595</ele>
        <time>2019-03-08T13:11:04Z</time>
      </trkpt>
      <trkpt lat="44.31601" lon="5.78714">
        <ele>596</ele>
        <time>2019-03-08T13:11:05Z</time>
      </trkpt>
      <trkpt lat="44.31601" lon="5.78709">
        <ele>596</ele>
        <time>2019-03-08T13:11:06Z</time>
      </trkpt>
      <trkpt lat="44.31602" lon="5.78704">
        <ele>596</ele>
        <time>2019-03-08T13:11:07Z</time>
      </trkpt>
      <trkpt lat="44.31602" lon="5.78699">
        <ele>596</ele>
        <time>2019-03-08T13:11:08Z</time>
      </trkpt>
      <trkpt lat="44.31602" lon="5.78695">
        <ele>597</ele>
        <time>2019-03-08T13:11:09Z</time>
      </trkpt>
      <trkpt lat="44.31602" lon="5.7869">
        <ele>597</ele>
        <time>2019-03-08T13:11:10Z</time>
      </trkpt>
      <trkpt lat="44.31602" lon="5.78686">
        <ele>597</ele>
        <time>2019-03-08T13:11:11Z</time>
      </trkpt>
      <trkpt lat="44.31601" lon="5.78681">
        <ele>597</ele>
        <time>2019-03-08T13:11:12Z</time>
      </trkpt>
      <trkpt lat="44.31601" lon="5.78676">
        <ele>598</ele>
        <time>2019-03-08T13:11:13Z</time>
      </trkpt>
      <trkpt lat="44.31602" lon="5.78672">
        <ele>598</ele>
        <time>2019-03-08T13:11:14Z</time>
      </trkpt>
      <trkpt lat="44.31602" lon="5.78667">
        <ele>598</ele>
        <time>2019-03-08T13:11:15Z</time>
      </trkpt>
      <trkpt lat="44.31602" lon="5.78662">
        <ele>598</ele>
        <time>2019-03-08T13:11:16Z</time>
      </trkpt>
      <trkpt lat="44.31602" lon="5.78658">
        <ele>598</ele>
        <time>2019-03-08T13:11:17Z</time>
      </trkpt>
      <trkpt lat="44.31602" lon="5.78654">
        <ele>598</ele>
        <time>2019-03-08T13:11:18Z</time>
      </trkpt>
      <trkpt lat="44.31602" lon="5.78649">
        <ele>599</ele>
        <time>2019-03-08T13:11:19Z</time>
      </trkpt>
      <trkpt lat="44.31601" lon="5.78645">
        <ele>599</ele>
        <time>2019-03-08T13:11:20Z</time>
      </trkpt>
      <trkpt lat="44.31601" lon="5.78641">
        <ele>599</ele>
        <time>2019-03-08T13:11:21Z</time>
      </trkpt>
      <trkpt lat="44.31601" lon="5.78636">
        <ele>599</ele>
        <time>2019-03-08T13:11:22Z</time>
      </trkpt>
      <trkpt lat="44.31601" lon="5.78632">
        <ele>600</ele>
        <time>2019-03-08T13:11:23Z</time>
      </trkpt>
      <trkpt lat="44.31601" lon="5.78627">
        <ele>600</ele>
        <time>2019-03-08T13:11:24Z</time>
      </trkpt>
      <trkpt lat="44.31601" lon="5.78623">
        <ele>600</ele>
        <time>2019-03-08T13:11:25Z</time>
      </trkpt>
      <trkpt lat="44.31601" lon="5.78619">
        <ele>600</ele>
        <time>2019-03-08T13:11:26Z</time>
      </trkpt>
      <trkpt lat="44.31601" lon="5.78615">
        <ele>601</ele>
        <time>2019-03-08T13:11:27Z</time>
      </trkpt>
      <trkpt lat="44.31601" lon="5.78611">
        <ele>601</ele>
        <time>2019-03-08T13:11:28Z</time>
      </trkpt>
      <trkpt lat="44.31601" lon="5.78607">
        <ele>601</ele>
        <time>2019-03-08T13:11:29Z</time>
      </trkpt>
      <trkpt lat="44.31601" lon="5.78603">
        <ele>601</ele>
        <time>2019-03-08T13:11:30Z</time>
      </trkpt>
      <trkpt lat="44.31602" lon="5.78599">
        <ele>601</ele>
        <time>2019-03-08T13:11:31Z</time>
      </trkpt>
      <trkpt lat="44.31602" lon="5.78595">
        <ele>601</ele>
        <time>2019-03-08T13:11:32Z</time>
      </trkpt>
      <trkpt lat="44.31603" lon="5.78591">
        <ele>601</ele>
        <time>2019-03-08T13:11:33Z</time>
      </trkpt>
      <trkpt lat="44.31604" lon="5.78587">
        <ele>601</ele>
        <time>2019-03-08T13:11:34Z</time>
      </trkpt>
      <trkpt lat="44.31605" lon="5.78582">
        <ele>601</ele>
        <time>2019-03-08T13:11:35Z</time>
      </trkpt>
      <trkpt lat="44.31607" lon="5.78577">
        <ele>601</ele>
        <time>2019-03-08T13:11:36Z</time>
      </trkpt>
      <trkpt lat="44.31609" lon="5.78572">
        <ele>601</ele>
        <time>2019-03-08T13:11:37Z</time>
      </trkpt>
      <trkpt lat="44.31612" lon="5.78566">
        <ele>601</ele>
        <time>2019-03-08T13:11:38Z</time>
      </trkpt>
      <trkpt lat="44.31615" lon="5.7856">
        <ele>601</ele>
        <time>2019-03-08T13:11:39Z</time>
      </trkpt>
      <trkpt lat="44.3162" lon="5.78556">
        <ele>601</ele>
        <time>2019-03-08T13:11:40Z</time>
      </trkpt>
      <trkpt lat="44.31626" lon="5.78551">
        <ele>601</ele>
        <time>2019-03-08T13:11:41Z</time>
      </trkpt>
      <trkpt lat="44.31632" lon="5.78547">
        <ele>601</ele>
        <time>2019-03-08T13:11:42Z</time>
      </trkpt>
      <trkpt lat="44.31639" lon="5.78544">
        <ele>601</ele>
        <time>2019-03-08T13:11:43Z</time>
      </trkpt>
      <trkpt lat="44.31645" lon="5.78541">
        <ele>601</ele>
        <time>2019-03-08T13:11:44Z</time>
      </trkpt>
      <trkpt lat="44.31652" lon="5.78537">
        <ele>601</ele>
        <time>2019-03-08T13:11:45Z</time>
      </trkpt>
      <trkpt lat="44.3166" lon="5.78534">
        <ele>601</ele>
        <time>2019-03-08T13:11:46Z</time>
      </trkpt>
      <trkpt lat="44.31667" lon="5.78531">
        <ele>601</ele>
        <time>2019-03-08T13:11:48Z</time>
      </trkpt>
      <trkpt lat="44.31675" lon="5.78527">
        <ele>601</ele>
        <time>2019-03-08T13:11:48Z</time>
      </trkpt>
      <trkpt lat="44.31682" lon="5.78524">
        <ele>601</ele>
        <time>2019-03-08T13:11:49Z</time>
      </trkpt>
      <trkpt lat="44.3169" lon="5.7852">
        <ele>601</ele>
        <time>2019-03-08T13:11:50Z</time>
      </trkpt>
      <trkpt lat="44.31697" lon="5.78517">
        <ele>601</ele>
        <time>2019-03-08T13:11:51Z</time>
      </trkpt>
      <trkpt lat="44.31705" lon="5.78514">
        <ele>601</ele>
        <time>2019-03-08T13:11:52Z</time>
      </trkpt>
      <trkpt lat="44.31712" lon="5.7851">
        <ele>601</ele>
        <time>2019-03-08T13:11:53Z</time>
      </trkpt>
      <trkpt lat="44.3172" lon="5.78507">
        <ele>601</ele>
        <time>2019-03-08T13:11:54Z</time>
      </trkpt>
      <trkpt lat="44.31727" lon="5.78503">
        <ele>601</ele>
        <time>2019-03-08T13:11:55Z</time>
      </trkpt>
      <trkpt lat="44.31734" lon="5.78498">
        <ele>600</ele>
        <time>2019-03-08T13:11:56Z</time>
      </trkpt>
      <trkpt lat="44.31741" lon="5.78492">
        <ele>600</ele>
        <time>2019-03-08T13:11:57Z</time>
      </trkpt>
      <trkpt lat="44.31746" lon="5.78486">
        <ele>600</ele>
        <time>2019-03-08T13:11:58Z</time>
      </trkpt>
      <trkpt lat="44.31751" lon="5.7848">
        <ele>600</ele>
        <time>2019-03-08T13:11:59Z</time>
      </trkpt>
      <trkpt lat="44.31756" lon="5.78473">
        <ele>600</ele>
        <time>2019-03-08T13:12:00Z</time>
      </trkpt>
      <trkpt lat="44.3176" lon="5.78466">
        <ele>600</ele>
        <time>2019-03-08T13:12:01Z</time>
      </trkpt>
      <trkpt lat="44.31764" lon="5.78459">
        <ele>600</ele>
        <time>2019-03-08T13:12:02Z</time>
      </trkpt>
      <trkpt lat="44.31768" lon="5.78452">
        <ele>600</ele>
        <time>2019-03-08T13:12:03Z</time>
      </trkpt>
      <trkpt lat="44.31771" lon="5.78446">
        <ele>600</ele>
        <time>2019-03-08T13:12:04Z</time>
      </trkpt>
      <trkpt lat="44.31775" lon="5.7844">
        <ele>600</ele>
        <time>2019-03-08T13:12:05Z</time>
      </trkpt>
      <trkpt lat="44.31778" lon="5.78434">
        <ele>600</ele>
        <time>2019-03-08T13:12:06Z</time>
      </trkpt>
      <trkpt lat="44.31781" lon="5.78428">
        <ele>600</ele>
        <time>2019-03-08T13:12:07Z</time>
      </trkpt>
      <trkpt lat="44.31784" lon="5.78423">
        <ele>600</ele>
        <time>2019-03-08T13:12:08Z</time>
      </trkpt>
      <trkpt lat="44.31787" lon="5.78418">
        <ele>600</ele>
        <time>2019-03-08T13:12:09Z</time>
      </trkpt>
      <trkpt lat="44.31791" lon="5.78412">
        <ele>600</ele>
        <time>2019-03-08T13:12:10Z</time>
      </trkpt>
      <trkpt lat="44.31794" lon="5.78407">
        <ele>600</ele>
        <time>2019-03-08T13:12:11Z</time>
      </trkpt>
      <trkpt lat="44.31797" lon="5.78401">
        <ele>600</ele>
        <time>2019-03-08T13:12:12Z</time>
      </trkpt>
      <trkpt lat="44.318" lon="5.78394">
        <ele>600</ele>
        <time>2019-03-08T13:12:13Z</time>
      </trkpt>
      <trkpt lat="44.31804" lon="5.78387">
        <ele>599</ele>
        <time>2019-03-08T13:12:14Z</time>
      </trkpt>
      <trkpt lat="44.31807" lon="5.7838">
        <ele>599</ele>
        <time>2019-03-08T13:12:15Z</time>
      </trkpt>
      <trkpt lat="44.31811" lon="5.78372">
        <ele>599</ele>
        <time>2019-03-08T13:12:16Z</time>
      </trkpt>
      <trkpt lat="44.31814" lon="5.78364">
        <ele>598</ele>
        <time>2019-03-08T13:12:17Z</time>
      </trkpt>
      <trkpt lat="44.31817" lon="5.78355">
        <ele>598</ele>
        <time>2019-03-08T13:12:18Z</time>
      </trkpt>
      <trkpt lat="44.31818" lon="5.78345">
        <ele>597</ele>
        <time>2019-03-08T13:12:19Z</time>
      </trkpt>
      <trkpt lat="44.31819" lon="5.78334">
        <ele>596</ele>
        <time>2019-03-08T13:12:20Z</time>
      </trkpt>
      <trkpt lat="44.31818" lon="5.78322">
        <ele>596</ele>
        <time>2019-03-08T13:12:21Z</time>
      </trkpt>
      <trkpt lat="44.31816" lon="5.7831">
        <ele>595</ele>
        <time>2019-03-08T13:12:22Z</time>
      </trkpt>
      <trkpt lat="44.31815" lon="5.78298">
        <ele>594</ele>
        <time>2019-03-08T13:12:23Z</time>
      </trkpt>
      <trkpt lat="44.31815" lon="5.78286">
        <ele>594</ele>
        <time>2019-03-08T13:12:24Z</time>
      </trkpt>
      <trkpt lat="44.31818" lon="5.78275">
        <ele>593</ele>
        <time>2019-03-08T13:12:25Z</time>
      </trkpt>
      <trkpt lat="44.31823" lon="5.78267">
        <ele>592</ele>
        <time>2019-03-08T13:12:26Z</time>
      </trkpt>
      <trkpt lat="44.31829" lon="5.78264">
        <ele>592</ele>
        <time>2019-03-08T13:12:27Z</time>
      </trkpt>
      <trkpt lat="44.31836" lon="5.78264">
        <ele>591</ele>
        <time>2019-03-08T13:12:28Z</time>
      </trkpt>
      <trkpt lat="44.31842" lon="5.78266">
        <ele>591</ele>
        <time>2019-03-08T13:12:29Z</time>
      </trkpt>
      <trkpt lat="44.31847" lon="5.78269">
        <ele>590</ele>
        <time>2019-03-08T13:12:30Z</time>
      </trkpt>
      <trkpt lat="44.31851" lon="5.78273">
        <ele>590</ele>
        <time>2019-03-08T13:12:31Z</time>
      </trkpt>
      <trkpt lat="44.31855" lon="5.78276">
        <ele>590</ele>
        <time>2019-03-08T13:12:32Z</time>
      </trkpt>
      <trkpt lat="44.31859" lon="5.78279">
        <ele>590</ele>
        <time>2019-03-08T13:12:33Z</time>
      </trkpt>
      <trkpt lat="44.31863" lon="5.78281">
        <ele>590</ele>
        <time>2019-03-08T13:12:34Z</time>
      </trkpt>
      <trkpt lat="44.31866" lon="5.78283">
        <ele>590</ele>
        <time>2019-03-08T13:12:35Z</time>
      </trkpt>
      <trkpt lat="44.3187" lon="5.78285">
        <ele>590</ele>
        <time>2019-03-08T13:12:36Z</time>
      </trkpt>
      <trkpt lat="44.31874" lon="5.78286">
        <ele>590</ele>
        <time>2019-03-08T13:12:37Z</time>
      </trkpt>
      <trkpt lat="44.31878" lon="5.78287">
        <ele>590</ele>
        <time>2019-03-08T13:12:38Z</time>
      </trkpt>
      <trkpt lat="44.31882" lon="5.78289">
        <ele>590</ele>
        <time>2019-03-08T13:12:39Z</time>
      </trkpt>
      <trkpt lat="44.31887" lon="5.7829">
        <ele>590</ele>
        <time>2019-03-08T13:12:40Z</time>
      </trkpt>
      <trkpt lat="44.31891" lon="5.78292">
        <ele>590</ele>
        <time>2019-03-08T13:12:41Z</time>
      </trkpt>
      <trkpt lat="44.31895" lon="5.78294">
        <ele>590</ele>
        <time>2019-03-08T13:12:42Z</time>
      </trkpt>
      <trkpt lat="44.31899" lon="5.78296">
        <ele>590</ele>
        <time>2019-03-08T13:12:43Z</time>
      </trkpt>
      <trkpt lat="44.31902" lon="5.78298">
        <ele>590</ele>
        <time>2019-03-08T13:12:44Z</time>
      </trkpt>
      <trkpt lat="44.31905" lon="5.78301">
        <ele>590</ele>
        <time>2019-03-08T13:12:45Z</time>
      </trkpt>
      <trkpt lat="44.31909" lon="5.78303">
        <ele>590</ele>
        <time>2019-03-08T13:12:46Z</time>
      </trkpt>
      <trkpt lat="44.31912" lon="5.78305">
        <ele>590</ele>
        <time>2019-03-08T13:12:48Z</time>
      </trkpt>
      <trkpt lat="44.31916" lon="5.78307">
        <ele>591</ele>
        <time>2019-03-08T13:12:48Z</time>
      </trkpt>
      <trkpt lat="44.31919" lon="5.78308">
        <ele>591</ele>
        <time>2019-03-08T13:12:49Z</time>
      </trkpt>
      <trkpt lat="44.31923" lon="5.78309">
        <ele>592</ele>
        <time>2019-03-08T13:12:50Z</time>
      </trkpt>
      <trkpt lat="44.31926" lon="5.78309">
        <ele>592</ele>
        <time>2019-03-08T13:12:51Z</time>
      </trkpt>
      <trkpt lat="44.3193" lon="5.78308">
        <ele>593</ele>
        <time>2019-03-08T13:12:52Z</time>
      </trkpt>
      <trkpt lat="44.31933" lon="5.78308">
        <ele>593</ele>
        <time>2019-03-08T13:12:53Z</time>
      </trkpt>
      <trkpt lat="44.31937" lon="5.78308">
        <ele>594</ele>
        <time>2019-03-08T13:12:54Z</time>
      </trkpt>
      <trkpt lat="44.3194" lon="5.78307">
        <ele>594</ele>
        <time>2019-03-08T13:12:55Z</time>
      </trkpt>
      <trkpt lat="44.31944" lon="5.78307">
        <ele>595</ele>
        <time>2019-03-08T13:12:56Z</time>
      </trkpt>
      <trkpt lat="44.31947" lon="5.78306">
        <ele>595</ele>
        <time>2019-03-08T13:12:57Z</time>
      </trkpt>
      <trkpt lat="44.31951" lon="5.78305">
        <ele>595</ele>
        <time>2019-03-08T13:12:58Z</time>
      </trkpt>
      <trkpt lat="44.31955" lon="5.78303">
        <ele>596</ele>
        <time>2019-03-08T13:12:59Z</time>
      </trkpt>
      <trkpt lat="44.31959" lon="5.783">
        <ele>596</ele>
        <time>2019-03-08T13:13:00Z</time>
      </trkpt>
      <trkpt lat="44.31963" lon="5.78298">
        <ele>596</ele>
        <time>2019-03-08T13:13:01Z</time>
      </trkpt>
      <trkpt lat="44.31966" lon="5.78296">
        <ele>596</ele>
        <time>2019-03-08T13:13:02Z</time>
      </trkpt>
      <trkpt lat="44.3197" lon="5.78293">
        <ele>597</ele>
        <time>2019-03-08T13:13:03Z</time>
      </trkpt>
      <trkpt lat="44.31973" lon="5.7829">
        <ele>597</ele>
        <time>2019-03-08T13:13:04Z</time>
      </trkpt>
      <trkpt lat="44.31977" lon="5.78287">
        <ele>597</ele>
        <time>2019-03-08T13:13:05Z</time>
      </trkpt>
      <trkpt lat="44.31981" lon="5.78284">
        <ele>597</ele>
        <time>2019-03-08T13:13:06Z</time>
      </trkpt>
      <trkpt lat="44.31985" lon="5.78281">
        <ele>597</ele>
        <time>2019-03-08T13:13:07Z</time>
      </trkpt>
      <trkpt lat="44.31989" lon="5.78277">
        <ele>597</ele>
        <time>2019-03-08T13:13:08Z</time>
      </trkpt>
      <trkpt lat="44.31992" lon="5.78274">
        <ele>597</ele>
        <time>2019-03-08T13:13:09Z</time>
      </trkpt>
      <trkpt lat="44.31997" lon="5.7827">
        <ele>597</ele>
        <time>2019-03-08T13:13:10Z</time>
      </trkpt>
      <trkpt lat="44.32001" lon="5.78267">
        <ele>597</ele>
        <time>2019-03-08T13:13:11Z</time>
      </trkpt>
      <trkpt lat="44.32005" lon="5.78263">
        <ele>597</ele>
        <time>2019-03-08T13:13:12Z</time>
      </trkpt>
      <trkpt lat="44.32009" lon="5.7826">
        <ele>597</ele>
        <time>2019-03-08T13:13:13Z</time>
      </trkpt>
      <trkpt lat="44.32013" lon="5.78256">
        <ele>597</ele>
        <time>2019-03-08T13:13:14Z</time>
      </trkpt>
      <trkpt lat="44.32017" lon="5.78252">
        <ele>597</ele>
        <time>2019-03-08T13:13:15Z</time>
      </trkpt>
      <trkpt lat="44.32022" lon="5.78248">
        <ele>597</ele>
        <time>2019-03-08T13:13:16Z</time>
      </trkpt>
      <trkpt lat="44.32026" lon="5.78244">
        <ele>597</ele>
        <time>2019-03-08T13:13:17Z</time>
      </trkpt>
      <trkpt lat="44.3203" lon="5.7824">
        <ele>597</ele>
        <time>2019-03-08T13:13:18Z</time>
      </trkpt>
      <trkpt lat="44.32034" lon="5.78236">
        <ele>597</ele>
        <time>2019-03-08T13:13:19Z</time>
      </trkpt>
      <trkpt lat="44.32038" lon="5.78232">
        <ele>597</ele>
        <time>2019-03-08T13:13:20Z</time>
      </trkpt>
      <trkpt lat="44.32042" lon="5.78228">
        <ele>597</ele>
        <time>2019-03-08T13:13:21Z</time>
      </trkpt>
      <trkpt lat="44.32046" lon="5.78224">
        <ele>597</ele>
        <time>2019-03-08T13:13:22Z</time>
      </trkpt>
      <trkpt lat="44.3205" lon="5.7822">
        <ele>597</ele>
        <time>2019-03-08T13:13:23Z</time>
      </trkpt>
      <trkpt lat="44.32054" lon="5.78216">
        <ele>597</ele>
        <time>2019-03-08T13:13:24Z</time>
      </trkpt>
      <trkpt lat="44.32058" lon="5.78212">
        <ele>597</ele>
        <time>2019-03-08T13:13:25Z</time>
      </trkpt>
      <trkpt lat="44.32062" lon="5.78208">
        <ele>597</ele>
        <time>2019-03-08T13:13:26Z</time>
      </trkpt>
      <trkpt lat="44.32066" lon="5.78204">
        <ele>597</ele>
        <time>2019-03-08T13:13:27Z</time>
      </trkpt>
      <trkpt lat="44.3207" lon="5.782">
        <ele>597</ele>
        <time>2019-03-08T13:13:28Z</time>
      </trkpt>
      <trkpt lat="44.32074" lon="5.78196">
        <ele>597</ele>
        <time>2019-03-08T13:13:29Z</time>
      </trkpt>
      <trkpt lat="44.32078" lon="5.78191">
        <ele>597</ele>
        <time>2019-03-08T13:13:30Z</time>
      </trkpt>
      <trkpt lat="44.32081" lon="5.78187">
        <ele>597</ele>
        <time>2019-03-08T13:13:31Z</time>
      </trkpt>
      <trkpt lat="44.32085" lon="5.78183">
        <ele>597</ele>
        <time>2019-03-08T13:13:32Z</time>
      </trkpt>
      <trkpt lat="44.32088" lon="5.78179">
        <ele>597</ele>
        <time>2019-03-08T13:13:33Z</time>
      </trkpt>
      <trkpt lat="44.32092" lon="5.78175">
        <ele>597</ele>
        <time>2019-03-08T13:13:34Z</time>
      </trkpt>
      <trkpt lat="44.32096" lon="5.78172">
        <ele>597</ele>
        <time>2019-03-08T13:13:35Z</time>
      </trkpt>
      <trkpt lat="44.321" lon="5.78168">
        <ele>597</ele>
        <time>2019-03-08T13:13:36Z</time>
      </trkpt>
      <trkpt lat="44.32103" lon="5.78164">
        <ele>597</ele>
        <time>2019-03-08T13:13:37Z</time>
      </trkpt>
      <trkpt lat="44.32107" lon="5.78161">
        <ele>597</ele>
        <time>2019-03-08T13:13:38Z</time>
      </trkpt>
      <trkpt lat="44.32111" lon="5.78157">
        <ele>598</ele>
        <time>2019-03-08T13:13:39Z</time>
      </trkpt>
      <trkpt lat="44.32114" lon="5.78153">
        <ele>598</ele>
        <time>2019-03-08T13:13:40Z</time>
      </trkpt>
      <trkpt lat="44.32118" lon="5.78149">
        <ele>598</ele>
        <time>2019-03-08T13:13:41Z</time>
      </trkpt>
      <trkpt lat="44.32122" lon="5.78145">
        <ele>598</ele>
        <time>2019-03-08T13:13:42Z</time>
      </trkpt>
      <trkpt lat="44.32126" lon="5.78141">
        <ele>598</ele>
        <time>2019-03-08T13:13:43Z</time>
      </trkpt>
      <trkpt lat="44.3213" lon="5.78137">
        <ele>598</ele>
        <time>2019-03-08T13:13:44Z</time>
      </trkpt>
      <trkpt lat="44.32134" lon="5.78134">
        <ele>598</ele>
        <time>2019-03-08T13:13:45Z</time>
      </trkpt>
      <trkpt lat="44.32138" lon="5.7813">
        <ele>599</ele>
        <time>2019-03-08T13:13:46Z</time>
      </trkpt>
      <trkpt lat="44.32142" lon="5.78126">
        <ele>599</ele>
        <time>2019-03-08T13:13:48Z</time>
      </trkpt>
      <trkpt lat="44.32146" lon="5.78123">
        <ele>599</ele>
        <time>2019-03-08T13:13:48Z</time>
      </trkpt>
      <trkpt lat="44.3215" lon="5.78118">
        <ele>599</ele>
        <time>2019-03-08T13:13:49Z</time>
      </trkpt>
      <trkpt lat="44.32154" lon="5.78114">
        <ele>599</ele>
        <time>2019-03-08T13:13:50Z</time>
      </trkpt>
      <trkpt lat="44.32158" lon="5.7811">
        <ele>599</ele>
        <time>2019-03-08T13:13:51Z</time>
      </trkpt>
      <trkpt lat="44.32162" lon="5.78106">
        <ele>599</ele>
        <time>2019-03-08T13:13:52Z</time>
      </trkpt>
      <trkpt lat="44.32166" lon="5.78102">
        <ele>599</ele>
        <time>2019-03-08T13:13:53Z</time>
      </trkpt>
      <trkpt lat="44.3217" lon="5.78099">
        <ele>599</ele>
        <time>2019-03-08T13:13:54Z</time>
      </trkpt>
      <trkpt lat="44.32175" lon="5.78095">
        <ele>599</ele>
        <time>2019-03-08T13:13:55Z</time>
      </trkpt>
      <trkpt lat="44.32179" lon="5.78091">
        <ele>599</ele>
        <time>2019-03-08T13:13:56Z</time>
      </trkpt>
      <trkpt lat="44.32183" lon="5.78088">
        <ele>599</ele>
        <time>2019-03-08T13:13:57Z</time>
      </trkpt>
      <trkpt lat="44.32188" lon="5.78084">
        <ele>599</ele>
        <time>2019-03-08T13:13:58Z</time>
      </trkpt>
      <trkpt lat="44.32192" lon="5.78081">
        <ele>599</ele>
        <time>2019-03-08T13:13:59Z</time>
      </trkpt>
      <trkpt lat="44.32196" lon="5.78078">
        <ele>599</ele>
        <time>2019-03-08T13:14:00Z</time>
      </trkpt>
      <trkpt lat="44.32201" lon="5.78075">
        <ele>599</ele>
        <time>2019-03-08T13:14:01Z</time>
      </trkpt>
      <trkpt lat="44.32206" lon="5.78071">
        <ele>599</ele>
        <time>2019-03-08T13:14:02Z</time>
      </trkpt>
      <trkpt lat="44.32211" lon="5.78068">
        <ele>599</ele>
        <time>2019-03-08T13:14:03Z</time>
      </trkpt>
      <trkpt lat="44.32216" lon="5.78065">
        <ele>599</ele>
        <time>2019-03-08T13:14:04Z</time>
      </trkpt>
      <trkpt lat="44.32221" lon="5.78062">
        <ele>599</ele>
        <time>2019-03-08T13:14:05Z</time>
      </trkpt>
      <trkpt lat="44.32226" lon="5.78059">
        <ele>599</ele>
        <time>2019-03-08T13:14:06Z</time>
      </trkpt>
      <trkpt lat="44.32232" lon="5.78057">
        <ele>599</ele>
        <time>2019-03-08T13:14:07Z</time>
      </trkpt>
      <trkpt lat="44.32237" lon="5.78054">
        <ele>599</ele>
        <time>2019-03-08T13:14:08Z</time>
      </trkpt>
      <trkpt lat="44.32242" lon="5.78051">
        <ele>599</ele>
        <time>2019-03-08T13:14:09Z</time>
      </trkpt>
      <trkpt lat="44.32247" lon="5.78047">
        <ele>599</ele>
        <time>2019-03-08T13:14:10Z</time>
      </trkpt>
      <trkpt lat="44.32253" lon="5.78044">
        <ele>599</ele>
        <time>2019-03-08T13:14:11Z</time>
      </trkpt>
      <trkpt lat="44.32258" lon="5.78041">
        <ele>599</ele>
        <time>2019-03-08T13:14:12Z</time>
      </trkpt>
      <trkpt lat="44.32263" lon="5.78038">
        <ele>599</ele>
        <time>2019-03-08T13:14:13Z</time>
      </trkpt>
      <trkpt lat="44.32269" lon="5.78035">
        <ele>599</ele>
        <time>2019-03-08T13:14:14Z</time>
      </trkpt>
      <trkpt lat="44.32274" lon="5.78031">
        <ele>599</ele>
        <time>2019-03-08T13:14:15Z</time>
      </trkpt>
      <trkpt lat="44.32279" lon="5.78028">
        <ele>599</ele>
        <time>2019-03-08T13:14:16Z</time>
      </trkpt>
      <trkpt lat="44.32285" lon="5.78025">
        <ele>599</ele>
        <time>2019-03-08T13:14:17Z</time>
      </trkpt>
      <trkpt lat="44.3229" lon="5.78022">
        <ele>599</ele>
        <time>2019-03-08T13:14:18Z</time>
      </trkpt>
      <trkpt lat="44.32296" lon="5.78019">
        <ele>599</ele>
        <time>2019-03-08T13:14:19Z</time>
      </trkpt>
      <trkpt lat="44.32301" lon="5.78015">
        <ele>599</ele>
        <time>2019-03-08T13:14:20Z</time>
      </trkpt>
      <trkpt lat="44.32307" lon="5.78012">
        <ele>599</ele>
        <time>2019-03-08T13:14:21Z</time>
      </trkpt>
      <trkpt lat="44.32312" lon="5.78008">
        <ele>599</ele>
        <time>2019-03-08T13:14:22Z</time>
      </trkpt>
      <trkpt lat="44.32317" lon="5.78004">
        <ele>599</ele>
        <time>2019-03-08T13:14:23Z</time>
      </trkpt>
      <trkpt lat="44.32322" lon="5.78001">
        <ele>599</ele>
        <time>2019-03-08T13:14:24Z</time>
      </trkpt>
      <trkpt lat="44.32328" lon="5.77998">
        <ele>599</ele>
        <time>2019-03-08T13:14:25Z</time>
      </trkpt>
      <trkpt lat="44.32333" lon="5.77994">
        <ele>599</ele>
        <time>2019-03-08T13:14:26Z</time>
      </trkpt>
      <trkpt lat="44.32338" lon="5.77991">
        <ele>599</ele>
        <time>2019-03-08T13:14:27Z</time>
      </trkpt>
      <trkpt lat="44.32344" lon="5.77988">
        <ele>599</ele>
        <time>2019-03-08T13:14:28Z</time>
      </trkpt>
      <trkpt lat="44.32349" lon="5.77985">
        <ele>599</ele>
        <time>2019-03-08T13:14:29Z</time>
      </trkpt>
      <trkpt lat="44.32354" lon="5.77982">
        <ele>599</ele>
        <time>2019-03-08T13:14:30Z</time>
      </trkpt>
      <trkpt lat="44.32359" lon="5.77979">
        <ele>599</ele>
        <time>2019-03-08T13:14:31Z</time>
      </trkpt>
      <trkpt lat="44.32365" lon="5.77976">
        <ele>599</ele>
        <time>2019-03-08T13:14:32Z</time>
      </trkpt>
      <trkpt lat="44.3237" lon="5.77973">
        <ele>599</ele>
        <time>2019-03-08T13:14:33Z</time>
      </trkpt>
      <trkpt lat="44.32375" lon="5.7797">
        <ele>599</ele>
        <time>2019-03-08T13:14:34Z</time>
      </trkpt>
      <trkpt lat="44.3238" lon="5.77967">
        <ele>599</ele>
        <time>2019-03-08T13:14:35Z</time>
      </trkpt>
      <trkpt lat="44.32386" lon="5.77963">
        <ele>599</ele>
        <time>2019-03-08T13:14:36Z</time>
      </trkpt>
      <trkpt lat="44.32391" lon="5.7796">
        <ele>599</ele>
        <time>2019-03-08T13:14:37Z</time>
      </trkpt>
      <trkpt lat="44.32396" lon="5.77957">
        <ele>599</ele>
        <time>2019-03-08T13:14:38Z</time>
      </trkpt>
      <trkpt lat="44.32402" lon="5.77954">
        <ele>599</ele>
        <time>2019-03-08T13:14:39Z</time>
      </trkpt>
      <trkpt lat="44.32407" lon="5.77951">
        <ele>599</ele>
        <time>2019-03-08T13:14:40Z</time>
      </trkpt>
      <trkpt lat="44.32412" lon="5.77948">
        <ele>599</ele>
        <time>2019-03-08T13:14:41Z</time>
      </trkpt>
      <trkpt lat="44.32418" lon="5.77945">
        <ele>599</ele>
        <time>2019-03-08T13:14:42Z</time>
      </trkpt>
      <trkpt lat="44.32423" lon="5.77942">
        <ele>599</ele>
        <time>2019-03-08T13:14:43Z</time>
      </trkpt>
      <trkpt lat="44.32428" lon="5.77938">
        <ele>599</ele>
        <time>2019-03-08T13:14:44Z</time>
      </trkpt>
      <trkpt lat="44.32433" lon="5.77935">
        <ele>599</ele>
        <time>2019-03-08T13:14:45Z</time>
      </trkpt>
      <trkpt lat="44.32439" lon="5.77931">
        <ele>599</ele>
        <time>2019-03-08T13:14:46Z</time>
      </trkpt>
      <trkpt lat="44.32444" lon="5.77928">
        <ele>599</ele>
        <time>2019-03-08T13:14:48Z</time>
      </trkpt>
      <trkpt lat="44.3245" lon="5.77924">
        <ele>599</ele>
        <time>2019-03-08T13:14:48Z</time>
      </trkpt>
      <trkpt lat="44.32455" lon="5.7792">
        <ele>598</ele>
        <time>2019-03-08T13:14:49Z</time>
      </trkpt>
      <trkpt lat="44.32461" lon="5.77917">
        <ele>598</ele>
        <time>2019-03-08T13:14:50Z</time>
      </trkpt>
      <trkpt lat="44.32466" lon="5.77913">
        <ele>598</ele>
        <time>2019-03-08T13:14:51Z</time>
      </trkpt>
      <trkpt lat="44.32472" lon="5.77908">
        <ele>598</ele>
        <time>2019-03-08T13:14:52Z</time>
      </trkpt>
      <trkpt lat="44.32477" lon="5.77904">
        <ele>598</ele>
        <time>2019-03-08T13:14:53Z</time>
      </trkpt>
      <trkpt lat="44.32482" lon="5.77899">
        <ele>598</ele>
        <time>2019-03-08T13:14:54Z</time>
      </trkpt>
      <trkpt lat="44.32487" lon="5.77895">
        <ele>598</ele>
        <time>2019-03-08T13:14:55Z</time>
      </trkpt>
      <trkpt lat="44.32492" lon="5.7789">
        <ele>598</ele>
        <time>2019-03-08T13:14:56Z</time>
      </trkpt>
      <trkpt lat="44.32498" lon="5.77885">
        <ele>598</ele>
        <time>2019-03-08T13:14:57Z</time>
      </trkpt>
      <trkpt lat="44.32503" lon="5.7788">
        <ele>597</ele>
        <time>2019-03-08T13:14:58Z</time>
      </trkpt>
      <trkpt lat="44.32508" lon="5.77876">
        <ele>597</ele>
        <time>2019-03-08T13:14:59Z</time>
      </trkpt>
      <trkpt lat="44.32513" lon="5.77871">
        <ele>597</ele>
        <time>2019-03-08T13:15:00Z</time>
      </trkpt>
      <trkpt lat="44.32518" lon="5.77866">
        <ele>597</ele>
        <time>2019-03-08T13:15:01Z</time>
      </trkpt>
      <trkpt lat="44.32524" lon="5.77861">
        <ele>597</ele>
        <time>2019-03-08T13:15:02Z</time>
      </trkpt>
      <trkpt lat="44.32529" lon="5.77856">
        <ele>597</ele>
        <time>2019-03-08T13:15:03Z</time>
      </trkpt>
      <trkpt lat="44.32534" lon="5.77851">
        <ele>597</ele>
        <time>2019-03-08T13:15:04Z</time>
      </trkpt>
      <trkpt lat="44.32539" lon="5.77847">
        <ele>597</ele>
        <time>2019-03-08T13:15:05Z</time>
      </trkpt>
      <trkpt lat="44.32544" lon="5.77842">
        <ele>597</ele>
        <time>2019-03-08T13:15:06Z</time>
      </trkpt>
      <trkpt lat="44.3255" lon="5.77838">
        <ele>597</ele>
        <time>2019-03-08T13:15:07Z</time>
      </trkpt>
      <trkpt lat="44.32555" lon="5.77833">
        <ele>597</ele>
        <time>2019-03-08T13:15:08Z</time>
      </trkpt>
      <trkpt lat="44.3256" lon="5.77828">
        <ele>597</ele>
        <time>2019-03-08T13:15:09Z</time>
      </trkpt>
      <trkpt lat="44.32565" lon="5.77823">
        <ele>597</ele>
        <time>2019-03-08T13:15:10Z</time>
      </trkpt>
      <trkpt lat="44.32571" lon="5.77819">
        <ele>597</ele>
        <time>2019-03-08T13:15:11Z</time>
      </trkpt>
      <trkpt lat="44.32576" lon="5.77814">
        <ele>597</ele>
        <time>2019-03-08T13:15:12Z</time>
      </trkpt>
      <trkpt lat="44.32582" lon="5.7781">
        <ele>597</ele>
        <time>2019-03-08T13:15:13Z</time>
      </trkpt>
      <trkpt lat="44.32587" lon="5.77806">
        <ele>597</ele>
        <time>2019-03-08T13:15:14Z</time>
      </trkpt>
      <trkpt lat="44.32593" lon="5.77801">
        <ele>597</ele>
        <time>2019-03-08T13:15:15Z</time>
      </trkpt>
      <trkpt lat="44.32598" lon="5.77797">
        <ele>597</ele>
        <time>2019-03-08T13:15:16Z</time>
      </trkpt>
      <trkpt lat="44.32604" lon="5.77792">
        <ele>597</ele>
        <time>2019-03-08T13:15:17Z</time>
      </trkpt>
      <trkpt lat="44.32609" lon="5.77787">
        <ele>596</ele>
        <time>2019-03-08T13:15:18Z</time>
      </trkpt>
      <trkpt lat="44.32615" lon="5.77782">
        <ele>596</ele>
        <time>2019-03-08T13:15:19Z</time>
      </trkpt>
      <trkpt lat="44.3262" lon="5.77777">
        <ele>596</ele>
        <time>2019-03-08T13:15:20Z</time>
      </trkpt>
      <trkpt lat="44.32624" lon="5.77771">
        <ele>596</ele>
        <time>2019-03-08T13:15:21Z</time>
      </trkpt>
      <trkpt lat="44.32629" lon="5.77765">
        <ele>596</ele>
        <time>2019-03-08T13:15:22Z</time>
      </trkpt>
      <trkpt lat="44.32633" lon="5.77759">
        <ele>596</ele>
        <time>2019-03-08T13:15:23Z</time>
      </trkpt>
      <trkpt lat="44.32637" lon="5.77752">
        <ele>596</ele>
        <time>2019-03-08T13:15:24Z</time>
      </trkpt>
      <trkpt lat="44.32641" lon="5.77746">
        <ele>596</ele>
        <time>2019-03-08T13:15:25Z</time>
      </trkpt>
      <trkpt lat="44.32645" lon="5.77739">
        <ele>596</ele>
        <time>2019-03-08T13:15:26Z</time>
      </trkpt>
      <trkpt lat="44.32648" lon="5.77733">
        <ele>596</ele>
        <time>2019-03-08T13:15:27Z</time>
      </trkpt>
      <trkpt lat="44.32652" lon="5.77727">
        <ele>596</ele>
        <time>2019-03-08T13:15:28Z</time>
      </trkpt>
      <trkpt lat="44.32655" lon="5.7772">
        <ele>596</ele>
        <time>2019-03-08T13:15:29Z</time>
      </trkpt>
      <trkpt lat="44.32658" lon="5.77714">
        <ele>596</ele>
        <time>2019-03-08T13:15:30Z</time>
      </trkpt>
      <trkpt lat="44.3266" lon="5.77707">
        <ele>596</ele>
        <time>2019-03-08T13:15:31Z</time>
      </trkpt>
      <trkpt lat="44.32663" lon="5.77701">
        <ele>596</ele>
        <time>2019-03-08T13:15:32Z</time>
      </trkpt>
      <trkpt lat="44.32665" lon="5.77694">
        <ele>596</ele>
        <time>2019-03-08T13:15:33Z</time>
      </trkpt>
      <trkpt lat="44.32667" lon="5.77688">
        <ele>596</ele>
        <time>2019-03-08T13:15:34Z</time>
      </trkpt>
      <trkpt lat="44.32669" lon="5.77681">
        <ele>596</ele>
        <time>2019-03-08T13:15:35Z</time>
      </trkpt>
      <trkpt lat="44.32671" lon="5.77674">
        <ele>596</ele>
        <time>2019-03-08T13:15:36Z</time>
      </trkpt>
      <trkpt lat="44.32673" lon="5.77667">
        <ele>596</ele>
        <time>2019-03-08T13:15:37Z</time>
      </trkpt>
      <trkpt lat="44.32674" lon="5.77661">
        <ele>596</ele>
        <time>2019-03-08T13:15:38Z</time>
      </trkpt>
      <trkpt lat="44.32676" lon="5.77654">
        <ele>596</ele>
        <time>2019-03-08T13:15:39Z</time>
      </trkpt>
      <trkpt lat="44.32677" lon="5.77647">
        <ele>596</ele>
        <time>2019-03-08T13:15:40Z</time>
      </trkpt>
      <trkpt lat="44.32679" lon="5.7764">
        <ele>596</ele>
        <time>2019-03-08T13:15:41Z</time>
      </trkpt>
      <trkpt lat="44.32681" lon="5.77634">
        <ele>596</ele>
        <time>2019-03-08T13:15:42Z</time>
      </trkpt>
      <trkpt lat="44.32683" lon="5.77627">
        <ele>596</ele>
        <time>2019-03-08T13:15:43Z</time>
      </trkpt>
      <trkpt lat="44.32686" lon="5.77621">
        <ele>596</ele>
        <time>2019-03-08T13:15:44Z</time>
      </trkpt>
      <trkpt lat="44.32689" lon="5.77615">
        <ele>596</ele>
        <time>2019-03-08T13:15:45Z</time>
      </trkpt>
      <trkpt lat="44.32692" lon="5.77609">
        <ele>596</ele>
        <time>2019-03-08T13:15:46Z</time>
      </trkpt>
      <trkpt lat="44.32697" lon="5.77606">
        <ele>596</ele>
        <time>2019-03-08T13:15:48Z</time>
      </trkpt>
      <trkpt lat="44.32702" lon="5.77603">
        <ele>596</ele>
        <time>2019-03-08T13:15:48Z</time>
      </trkpt>
      <trkpt lat="44.32707" lon="5.77601">
        <ele>596</ele>
        <time>2019-03-08T13:15:49Z</time>
      </trkpt>
      <trkpt lat="44.32712" lon="5.77599">
        <ele>596</ele>
        <time>2019-03-08T13:15:50Z</time>
      </trkpt>
      <trkpt lat="44.32717" lon="5.77597">
        <ele>596</ele>
        <time>2019-03-08T13:15:51Z</time>
      </trkpt>
      <trkpt lat="44.32722" lon="5.77595">
        <ele>596</ele>
        <time>2019-03-08T13:15:52Z</time>
      </trkpt>
      <trkpt lat="44.32727" lon="5.77594">
        <ele>596</ele>
        <time>2019-03-08T13:15:53Z</time>
      </trkpt>
      <trkpt lat="44.32732" lon="5.77592">
        <ele>596</ele>
        <time>2019-03-08T13:15:54Z</time>
      </trkpt>
      <trkpt lat="44.32737" lon="5.7759">
        <ele>596</ele>
        <time>2019-03-08T13:15:55Z</time>
      </trkpt>
      <trkpt lat="44.32742" lon="5.77588">
        <ele>596</ele>
        <time>2019-03-08T13:15:56Z</time>
      </trkpt>
      <trkpt lat="44.32747" lon="5.77587">
        <ele>596</ele>
        <time>2019-03-08T13:15:57Z</time>
      </trkpt>
      <trkpt lat="44.32751" lon="5.77585">
        <ele>596</ele>
        <time>2019-03-08T13:15:58Z</time>
      </trkpt>
      <trkpt lat="44.32756" lon="5.77584">
        <ele>596</ele>
        <time>2019-03-08T13:15:59Z</time>
      </trkpt>
      <trkpt lat="44.32761" lon="5.77582">
        <ele>596</ele>
        <time>2019-03-08T13:16:00Z</time>
      </trkpt>
      <trkpt lat="44.32765" lon="5.7758">
        <ele>596</ele>
        <time>2019-03-08T13:16:01Z</time>
      </trkpt>
      <trkpt lat="44.3277" lon="5.77579">
        <ele>596</ele>
        <time>2019-03-08T13:16:02Z</time>
      </trkpt>
      <trkpt lat="44.32775" lon="5.77578">
        <ele>596</ele>
        <time>2019-03-08T13:16:03Z</time>
      </trkpt>
      <trkpt lat="44.32779" lon="5.77578">
        <ele>596</ele>
        <time>2019-03-08T13:16:04Z</time>
      </trkpt>
      <trkpt lat="44.32785" lon="5.77578">
        <ele>596</ele>
        <time>2019-03-08T13:16:05Z</time>
      </trkpt>
      <trkpt lat="44.3279" lon="5.77578">
        <ele>596</ele>
        <time>2019-03-08T13:16:06Z</time>
      </trkpt>
      <trkpt lat="44.32795" lon="5.77579">
        <ele>596</ele>
        <time>2019-03-08T13:16:07Z</time>
      </trkpt>
      <trkpt lat="44.32801" lon="5.7758">
        <ele>596</ele>
        <time>2019-03-08T13:16:08Z</time>
      </trkpt>
      <trkpt lat="44.32806" lon="5.77582">
        <ele>596</ele>
        <time>2019-03-08T13:16:09Z</time>
      </trkpt>
      <trkpt lat="44.32812" lon="5.77585">
        <ele>596</ele>
        <time>2019-03-08T13:16:10Z</time>
      </trkpt>
      <trkpt lat="44.32818" lon="5.77588">
        <ele>596</ele>
        <time>2019-03-08T13:16:11Z</time>
      </trkpt>
      <trkpt lat="44.32824" lon="5.7759">
        <ele>596</ele>
        <time>2019-03-08T13:16:12Z</time>
      </trkpt>
      <trkpt lat="44.3283" lon="5.77592">
        <ele>595</ele>
        <time>2019-03-08T13:16:13Z</time>
      </trkpt>
      <trkpt lat="44.32837" lon="5.77593">
        <ele>595</ele>
        <time>2019-03-08T13:16:14Z</time>
      </trkpt>
      <trkpt lat="44.32843" lon="5.77594">
        <ele>595</ele>
        <time>2019-03-08T13:16:15Z</time>
      </trkpt>
      <trkpt lat="44.3285" lon="5.77594">
        <ele>595</ele>
        <time>2019-03-08T13:16:16Z</time>
      </trkpt>
      <trkpt lat="44.32856" lon="5.77595">
        <ele>595</ele>
        <time>2019-03-08T13:16:17Z</time>
      </trkpt>
      <trkpt lat="44.32862" lon="5.77595">
        <ele>595</ele>
        <time>2019-03-08T13:16:18Z</time>
      </trkpt>
      <trkpt lat="44.32868" lon="5.77595">
        <ele>595</ele>
        <time>2019-03-08T13:16:19Z</time>
      </trkpt>
      <trkpt lat="44.32874" lon="5.77595">
        <ele>595</ele>
        <time>2019-03-08T13:16:20Z</time>
      </trkpt>
      <trkpt lat="44.32879" lon="5.77595">
        <ele>595</ele>
        <time>2019-03-08T13:16:21Z</time>
      </trkpt>
      <trkpt lat="44.32885" lon="5.77595">
        <ele>595</ele>
        <time>2019-03-08T13:16:22Z</time>
      </trkpt>
      <trkpt lat="44.3289" lon="5.77595">
        <ele>595</ele>
        <time>2019-03-08T13:16:23Z</time>
      </trkpt>
      <trkpt lat="44.32896" lon="5.77596">
        <ele>595</ele>
        <time>2019-03-08T13:16:24Z</time>
      </trkpt>
      <trkpt lat="44.32901" lon="5.77596">
        <ele>594</ele>
        <time>2019-03-08T13:16:25Z</time>
      </trkpt>
      <trkpt lat="44.32907" lon="5.77597">
        <ele>594</ele>
        <time>2019-03-08T13:16:26Z</time>
      </trkpt>
      <trkpt lat="44.32913" lon="5.77597">
        <ele>594</ele>
        <time>2019-03-08T13:16:27Z</time>
      </trkpt>
      <trkpt lat="44.32918" lon="5.77597">
        <ele>594</ele>
        <time>2019-03-08T13:16:28Z</time>
      </trkpt>
      <trkpt lat="44.32924" lon="5.77598">
        <ele>594</ele>
        <time>2019-03-08T13:16:29Z</time>
      </trkpt>
      <trkpt lat="44.3293" lon="5.77598">
        <ele>594</ele>
        <time>2019-03-08T13:16:30Z</time>
      </trkpt>
      <trkpt lat="44.32935" lon="5.77598">
        <ele>594</ele>
        <time>2019-03-08T13:16:31Z</time>
      </trkpt>
      <trkpt lat="44.32941" lon="5.77599">
        <ele>594</ele>
        <time>2019-03-08T13:16:32Z</time>
      </trkpt>
      <trkpt lat="44.32947" lon="5.77599">
        <ele>594</ele>
        <time>2019-03-08T13:16:33Z</time>
      </trkpt>
      <trkpt lat="44.32953" lon="5.77599">
        <ele>594</ele>
        <time>2019-03-08T13:16:34Z</time>
      </trkpt>
      <trkpt lat="44.32959" lon="5.77599">
        <ele>594</ele>
        <time>2019-03-08T13:16:35Z</time>
      </trkpt>
      <trkpt lat="44.32964" lon="5.77599">
        <ele>594</ele>
        <time>2019-03-08T13:16:36Z</time>
      </trkpt>
      <trkpt lat="44.3297" lon="5.77599">
        <ele>594</ele>
        <time>2019-03-08T13:16:37Z</time>
      </trkpt>
      <trkpt lat="44.32976" lon="5.77599">
        <ele>594</ele>
        <time>2019-03-08T13:16:38Z</time>
      </trkpt>
      <trkpt lat="44.32981" lon="5.776">
        <ele>594</ele>
        <time>2019-03-08T13:16:39Z</time>
      </trkpt>
      <trkpt lat="44.32987" lon="5.776">
        <ele>594</ele>
        <time>2019-03-08T13:16:40Z</time>
      </trkpt>
      <trkpt lat="44.32992" lon="5.77599">
        <ele>594</ele>
        <time>2019-03-08T13:16:41Z</time>
      </trkpt>
      <trkpt lat="44.32998" lon="5.77599">
        <ele>594</ele>
        <time>2019-03-08T13:16:42Z</time>
      </trkpt>
      <trkpt lat="44.33003" lon="5.77598">
        <ele>593</ele>
        <time>2019-03-08T13:16:43Z</time>
      </trkpt>
      <trkpt lat="44.33009" lon="5.77598">
        <ele>593</ele>
        <time>2019-03-08T13:16:44Z</time>
      </trkpt>
      <trkpt lat="44.33016" lon="5.77597">
        <ele>593</ele>
        <time>2019-03-08T13:16:45Z</time>
      </trkpt>
      <trkpt lat="44.33022" lon="5.77597">
        <ele>593</ele>
        <time>2019-03-08T13:16:46Z</time>
      </trkpt>
      <trkpt lat="44.33029" lon="5.77597">
        <ele>592</ele>
        <time>2019-03-08T13:16:48Z</time>
      </trkpt>
      <trkpt lat="44.33036" lon="5.77596">
        <ele>592</ele>
        <time>2019-03-08T13:16:48Z</time>
      </trkpt>
      <trkpt lat="44.33043" lon="5.77596">
        <ele>592</ele>
        <time>2019-03-08T13:16:49Z</time>
      </trkpt>
      <trkpt lat="44.3305" lon="5.77596">
        <ele>592</ele>
        <time>2019-03-08T13:16:50Z</time>
      </trkpt>
      <trkpt lat="44.33057" lon="5.77596">
        <ele>591</ele>
        <time>2019-03-08T13:16:51Z</time>
      </trkpt>
      <trkpt lat="44.33064" lon="5.77596">
        <ele>591</ele>
        <time>2019-03-08T13:16:52Z</time>
      </trkpt>
      <trkpt lat="44.33071" lon="5.77597">
        <ele>591</ele>
        <time>2019-03-08T13:16:53Z</time>
      </trkpt>
      <trkpt lat="44.33078" lon="5.77597">
        <ele>591</ele>
        <time>2019-03-08T13:16:54Z</time>
      </trkpt>
      <trkpt lat="44.33085" lon="5.77597">
        <ele>591</ele>
        <time>2019-03-08T13:16:55Z</time>
      </trkpt>
      <trkpt lat="44.33092" lon="5.77597">
        <ele>591</ele>
        <time>2019-03-08T13:16:56Z</time>
      </trkpt>
      <trkpt lat="44.33099" lon="5.77597">
        <ele>591</ele>
        <time>2019-03-08T13:16:57Z</time>
      </trkpt>
      <trkpt lat="44.33105" lon="5.77596">
        <ele>591</ele>
        <time>2019-03-08T13:16:58Z</time>
      </trkpt>
      <trkpt lat="44.33111" lon="5.77595">
        <ele>591</ele>
        <time>2019-03-08T13:16:59Z</time>
      </trkpt>
      <trkpt lat="44.33117" lon="5.77594">
        <ele>591</ele>
        <time>2019-03-08T13:17:00Z</time>
      </trkpt>
      <trkpt lat="44.33123" lon="5.77593">
        <ele>591</ele>
        <time>2019-03-08T13:17:01Z</time>
      </trkpt>
      <trkpt lat="44.33128" lon="5.7759">
        <ele>591</ele>
        <time>2019-03-08T13:17:02Z</time>
      </trkpt>
      <trkpt lat="44.33134" lon="5.77588">
        <ele>591</ele>
        <time>2019-03-08T13:17:03Z</time>
      </trkpt>
      <trkpt lat="44.33139" lon="5.77585">
        <ele>591</ele>
        <time>2019-03-08T13:17:04Z</time>
      </trkpt>
      <trkpt lat="44.33144" lon="5.77581">
        <ele>591</ele>
        <time>2019-03-08T13:17:05Z</time>
      </trkpt>
      <trkpt lat="44.33149" lon="5.77577">
        <ele>591</ele>
        <time>2019-03-08T13:17:06Z</time>
      </trkpt>
      <trkpt lat="44.33153" lon="5.77574">
        <ele>591</ele>
        <time>2019-03-08T13:17:07Z</time>
      </trkpt>
      <trkpt lat="44.33158" lon="5.7757">
        <ele>591</ele>
        <time>2019-03-08T13:17:08Z</time>
      </trkpt>
      <trkpt lat="44.33162" lon="5.77567">
        <ele>591</ele>
        <time>2019-03-08T13:17:09Z</time>
      </trkpt>
      <trkpt lat="44.33167" lon="5.77565">
        <ele>591</ele>
        <time>2019-03-08T13:17:10Z</time>
      </trkpt>
      <trkpt lat="44.33171" lon="5.77561">
        <ele>591</ele>
        <time>2019-03-08T13:17:11Z</time>
      </trkpt>
      <trkpt lat="44.33176" lon="5.77558">
        <ele>591</ele>
        <time>2019-03-08T13:17:12Z</time>
      </trkpt>
      <trkpt lat="44.3318" lon="5.77554">
        <ele>591</ele>
        <time>2019-03-08T13:17:13Z</time>
      </trkpt>
      <trkpt lat="44.33184" lon="5.77551">
        <ele>591</ele>
        <time>2019-03-08T13:17:14Z</time>
      </trkpt>
      <trkpt lat="44.33189" lon="5.77546">
        <ele>591</ele>
        <time>2019-03-08T13:17:15Z</time>
      </trkpt>
      <trkpt lat="44.33193" lon="5.77542">
        <ele>591</ele>
        <time>2019-03-08T13:17:16Z</time>
      </trkpt>
      <trkpt lat="44.33197" lon="5.77537">
        <ele>591</ele>
        <time>2019-03-08T13:17:17Z</time>
      </trkpt>
      <trkpt lat="44.33202" lon="5.77532">
        <ele>591</ele>
        <time>2019-03-08T13:17:18Z</time>
      </trkpt>
      <trkpt lat="44.33206" lon="5.77527">
        <ele>591</ele>
        <time>2019-03-08T13:17:19Z</time>
      </trkpt>
      <trkpt lat="44.33211" lon="5.77523">
        <ele>591</ele>
        <time>2019-03-08T13:17:20Z</time>
      </trkpt>
      <trkpt lat="44.33215" lon="5.77518">
        <ele>591</ele>
        <time>2019-03-08T13:17:21Z</time>
      </trkpt>
      <trkpt lat="44.33221" lon="5.77514">
        <ele>591</ele>
        <time>2019-03-08T13:17:22Z</time>
      </trkpt>
      <trkpt lat="44.33226" lon="5.77511">
        <ele>591</ele>
        <time>2019-03-08T13:17:23Z</time>
      </trkpt>
      <trkpt lat="44.33231" lon="5.77508">
        <ele>591</ele>
        <time>2019-03-08T13:17:24Z</time>
      </trkpt>
      <trkpt lat="44.33236" lon="5.77506">
        <ele>591</ele>
        <time>2019-03-08T13:17:25Z</time>
      </trkpt>
      <trkpt lat="44.33242" lon="5.77504">
        <ele>591</ele>
        <time>2019-03-08T13:17:26Z</time>
      </trkpt>
      <trkpt lat="44.33247" lon="5.77503">
        <ele>591</ele>
        <time>2019-03-08T13:17:27Z</time>
      </trkpt>
      <trkpt lat="44.33253" lon="5.77501">
        <ele>591</ele>
        <time>2019-03-08T13:17:28Z</time>
      </trkpt>
      <trkpt lat="44.33258" lon="5.77501">
        <ele>591</ele>
        <time>2019-03-08T13:17:29Z</time>
      </trkpt>
      <trkpt lat="44.33264" lon="5.775">
        <ele>591</ele>
        <time>2019-03-08T13:17:30Z</time>
      </trkpt>
      <trkpt lat="44.3327" lon="5.77499">
        <ele>591</ele>
        <time>2019-03-08T13:17:31Z</time>
      </trkpt>
      <trkpt lat="44.33275" lon="5.77499">
        <ele>591</ele>
        <time>2019-03-08T13:17:32Z</time>
      </trkpt>
      <trkpt lat="44.33281" lon="5.77499">
        <ele>591</ele>
        <time>2019-03-08T13:17:33Z</time>
      </trkpt>
      <trkpt lat="44.33287" lon="5.77498">
        <ele>591</ele>
        <time>2019-03-08T13:17:34Z</time>
      </trkpt>
      <trkpt lat="44.33292" lon="5.77498">
        <ele>591</ele>
        <time>2019-03-08T13:17:35Z</time>
      </trkpt>
      <trkpt lat="44.33297" lon="5.77498">
        <ele>591</ele>
        <time>2019-03-08T13:17:36Z</time>
      </trkpt>
      <trkpt lat="44.33303" lon="5.77499">
        <ele>591</ele>
        <time>2019-03-08T13:17:37Z</time>
      </trkpt>
      <trkpt lat="44.33308" lon="5.77499">
        <ele>591</ele>
        <time>2019-03-08T13:17:38Z</time>
      </trkpt>
      <trkpt lat="44.33313" lon="5.77499">
        <ele>591</ele>
        <time>2019-03-08T13:17:39Z</time>
      </trkpt>
      <trkpt lat="44.33318" lon="5.775">
        <ele>591</ele>
        <time>2019-03-08T13:17:40Z</time>
      </trkpt>
      <trkpt lat="44.33323" lon="5.775">
        <ele>591</ele>
        <time>2019-03-08T13:17:41Z</time>
      </trkpt>
      <trkpt lat="44.33327" lon="5.775">
        <ele>591</ele>
        <time>2019-03-08T13:17:42Z</time>
      </trkpt>
      <trkpt lat="44.33332" lon="5.775">
        <ele>591</ele>
        <time>2019-03-08T13:17:43Z</time>
      </trkpt>
      <trkpt lat="44.33336" lon="5.77501">
        <ele>591</ele>
        <time>2019-03-08T13:17:44Z</time>
      </trkpt>
      <trkpt lat="44.33341" lon="5.77501">
        <ele>591</ele>
        <time>2019-03-08T13:17:45Z</time>
      </trkpt>
      <trkpt lat="44.33345" lon="5.77501">
        <ele>591</ele>
        <time>2019-03-08T13:17:46Z</time>
      </trkpt>
      <trkpt lat="44.3335" lon="5.77501">
        <ele>591</ele>
        <time>2019-03-08T13:17:48Z</time>
      </trkpt>
      <trkpt lat="44.33355" lon="5.77502">
        <ele>591</ele>
        <time>2019-03-08T13:17:48Z</time>
      </trkpt>
      <trkpt lat="44.33359" lon="5.77502">
        <ele>591</ele>
        <time>2019-03-08T13:17:49Z</time>
      </trkpt>
      <trkpt lat="44.33364" lon="5.77502">
        <ele>591</ele>
        <time>2019-03-08T13:17:50Z</time>
      </trkpt>
      <trkpt lat="44.33368" lon="5.77502">
        <ele>591</ele>
        <time>2019-03-08T13:17:51Z</time>
      </trkpt>
      <trkpt lat="44.33372" lon="5.77503">
        <ele>591</ele>
        <time>2019-03-08T13:17:52Z</time>
      </trkpt>
      <trkpt lat="44.33377" lon="5.77503">
        <ele>591</ele>
        <time>2019-03-08T13:17:53Z</time>
      </trkpt>
      <trkpt lat="44.33381" lon="5.77503">
        <ele>591</ele>
        <time>2019-03-08T13:17:54Z</time>
      </trkpt>
      <trkpt lat="44.33385" lon="5.77503">
        <ele>591</ele>
        <time>2019-03-08T13:17:55Z</time>
      </trkpt>
      <trkpt lat="44.33389" lon="5.77503">
        <ele>592</ele>
        <time>2019-03-08T13:17:56Z</time>
      </trkpt>
      <trkpt lat="44.33393" lon="5.77503">
        <ele>592</ele>
        <time>2019-03-08T13:17:57Z</time>
      </trkpt>
      <trkpt lat="44.33397" lon="5.77503">
        <ele>592</ele>
        <time>2019-03-08T13:17:58Z</time>
      </trkpt>
      <trkpt lat="44.33401" lon="5.77504">
        <ele>593</ele>
        <time>2019-03-08T13:17:59Z</time>
      </trkpt>
      <trkpt lat="44.33406" lon="5.77504">
        <ele>593</ele>
        <time>2019-03-08T13:18:00Z</time>
      </trkpt>
      <trkpt lat="44.33411" lon="5.77505">
        <ele>593</ele>
        <time>2019-03-08T13:18:01Z</time>
      </trkpt>
      <trkpt lat="44.33416" lon="5.77506">
        <ele>593</ele>
        <time>2019-03-08T13:18:02Z</time>
      </trkpt>
      <trkpt lat="44.33421" lon="5.77507">
        <ele>593</ele>
        <time>2019-03-08T13:18:03Z</time>
      </trkpt>
      <trkpt lat="44.33426" lon="5.77509">
        <ele>593</ele>
        <time>2019-03-08T13:18:04Z</time>
      </trkpt>
      <trkpt lat="44.33431" lon="5.7751">
        <ele>593</ele>
        <time>2019-03-08T13:18:05Z</time>
      </trkpt>
      <trkpt lat="44.33437" lon="5.77511">
        <ele>593</ele>
        <time>2019-03-08T13:18:06Z</time>
      </trkpt>
      <trkpt lat="44.33442" lon="5.77513">
        <ele>593</ele>
        <time>2019-03-08T13:18:07Z</time>
      </trkpt>
      <trkpt lat="44.33448" lon="5.77514">
        <ele>593</ele>
        <time>2019-03-08T13:18:08Z</time>
      </trkpt>
      <trkpt lat="44.33454" lon="5.77515">
        <ele>593</ele>
        <time>2019-03-08T13:18:09Z</time>
      </trkpt>
      <trkpt lat="44.33459" lon="5.77516">
        <ele>593</ele>
        <time>2019-03-08T13:18:10Z</time>
      </trkpt>
      <trkpt lat="44.33465" lon="5.77517">
        <ele>593</ele>
        <time>2019-03-08T13:18:11Z</time>
      </trkpt>
      <trkpt lat="44.33471" lon="5.77519">
        <ele>593</ele>
        <time>2019-03-08T13:18:12Z</time>
      </trkpt>
      <trkpt lat="44.33477" lon="5.77521">
        <ele>593</ele>
        <time>2019-03-08T13:18:13Z</time>
      </trkpt>
      <trkpt lat="44.33483" lon="5.77522">
        <ele>593</ele>
        <time>2019-03-08T13:18:14Z</time>
      </trkpt>
      <trkpt lat="44.33489" lon="5.77523">
        <ele>593</ele>
        <time>2019-03-08T13:18:15Z</time>
      </trkpt>
      <trkpt lat="44.33495" lon="5.77525">
        <ele>593</ele>
        <time>2019-03-08T13:18:16Z</time>
      </trkpt>
      <trkpt lat="44.33501" lon="5.77526">
        <ele>593</ele>
        <time>2019-03-08T13:18:17Z</time>
      </trkpt>
      <trkpt lat="44.33507" lon="5.77527">
        <ele>593</ele>
        <time>2019-03-08T13:18:18Z</time>
      </trkpt>
      <trkpt lat="44.33513" lon="5.77528">
        <ele>593</ele>
        <time>2019-03-08T13:18:19Z</time>
      </trkpt>
      <trkpt lat="44.33519" lon="5.77529">
        <ele>593</ele>
        <time>2019-03-08T13:18:20Z</time>
      </trkpt>
      <trkpt lat="44.33524" lon="5.7753">
        <ele>593</ele>
        <time>2019-03-08T13:18:21Z</time>
      </trkpt>
      <trkpt lat="44.33529" lon="5.7753">
        <ele>593</ele>
        <time>2019-03-08T13:18:22Z</time>
      </trkpt>
      <trkpt lat="44.33535" lon="5.77531">
        <ele>593</ele>
        <time>2019-03-08T13:18:23Z</time>
      </trkpt>
      <trkpt lat="44.33539" lon="5.77532">
        <ele>593</ele>
        <time>2019-03-08T13:18:24Z</time>
      </trkpt>
      <trkpt lat="44.33544" lon="5.77533">
        <ele>593</ele>
        <time>2019-03-08T13:18:25Z</time>
      </trkpt>
      <trkpt lat="44.33548" lon="5.77534">
        <ele>593</ele>
        <time>2019-03-08T13:18:26Z</time>
      </trkpt>
      <trkpt lat="44.33551" lon="5.77535">
        <ele>593</ele>
        <time>2019-03-08T13:18:27Z</time>
      </trkpt>
      <trkpt lat="44.33555" lon="5.77536">
        <ele>593</ele>
        <time>2019-03-08T13:18:28Z</time>
      </trkpt>
      <trkpt lat="44.33559" lon="5.77536">
        <ele>593</ele>
        <time>2019-03-08T13:18:29Z</time>
      </trkpt>
      <trkpt lat="44.33562" lon="5.77537">
        <ele>593</ele>
        <time>2019-03-08T13:18:30Z</time>
      </trkpt>
      <trkpt lat="44.33566" lon="5.77538">
        <ele>594</ele>
        <time>2019-03-08T13:18:31Z</time>
      </trkpt>
      <trkpt lat="44.3357" lon="5.77539">
        <ele>594</ele>
        <time>2019-03-08T13:18:32Z</time>
      </trkpt>
      <trkpt lat="44.33573" lon="5.77539">
        <ele>594</ele>
        <time>2019-03-08T13:18:33Z</time>
      </trkpt>
      <trkpt lat="44.33577" lon="5.77539">
        <ele>594</ele>
        <time>2019-03-08T13:18:34Z</time>
      </trkpt>
      <trkpt lat="44.3358" lon="5.77538">
        <ele>595</ele>
        <time>2019-03-08T13:18:35Z</time>
      </trkpt>
      <trkpt lat="44.33583" lon="5.77537">
        <ele>595</ele>
        <time>2019-03-08T13:18:36Z</time>
      </trkpt>
      <trkpt lat="44.33587" lon="5.77535">
        <ele>595</ele>
        <time>2019-03-08T13:18:37Z</time>
      </trkpt>
      <trkpt lat="44.3359" lon="5.77534">
        <ele>596</ele>
        <time>2019-03-08T13:18:38Z</time>
      </trkpt>
      <trkpt lat="44.33593" lon="5.77531">
        <ele>596</ele>
        <time>2019-03-08T13:18:39Z</time>
      </trkpt>
      <trkpt lat="44.33595" lon="5.77528">
        <ele>596</ele>
        <time>2019-03-08T13:18:40Z</time>
      </trkpt>
      <trkpt lat="44.33598" lon="5.77525">
        <ele>597</ele>
        <time>2019-03-08T13:18:41Z</time>
      </trkpt>
      <trkpt lat="44.336" lon="5.77521">
        <ele>597</ele>
        <time>2019-03-08T13:18:42Z</time>
      </trkpt>
      <trkpt lat="44.33603" lon="5.77518">
        <ele>597</ele>
        <time>2019-03-08T13:18:43Z</time>
      </trkpt>
      <trkpt lat="44.33606" lon="5.77514">
        <ele>598</ele>
        <time>2019-03-08T13:18:44Z</time>
      </trkpt>
      <trkpt lat="44.33609" lon="5.77511">
        <ele>598</ele>
        <time>2019-03-08T13:18:45Z</time>
      </trkpt>
      <trkpt lat="44.33612" lon="5.77508">
        <ele>599</ele>
        <time>2019-03-08T13:18:46Z</time>
      </trkpt>
      <trkpt lat="44.33615" lon="5.77506">
        <ele>599</ele>
        <time>2019-03-08T13:18:48Z</time>
      </trkpt>
      <trkpt lat="44.33618" lon="5.77505">
        <ele>600</ele>
        <time>2019-03-08T13:18:48Z</time>
      </trkpt>
      <trkpt lat="44.33622" lon="5.77504">
        <ele>600</ele>
        <time>2019-03-08T13:18:49Z</time>
      </trkpt>
      <trkpt lat="44.33625" lon="5.77505">
        <ele>601</ele>
        <time>2019-03-08T13:18:50Z</time>
      </trkpt>
      <trkpt lat="44.33628" lon="5.77505">
        <ele>601</ele>
        <time>2019-03-08T13:18:51Z</time>
      </trkpt>
      <trkpt lat="44.33631" lon="5.77506">
        <ele>602</ele>
        <time>2019-03-08T13:18:52Z</time>
      </trkpt>
      <trkpt lat="44.33634" lon="5.77507">
        <ele>602</ele>
        <time>2019-03-08T13:18:53Z</time>
      </trkpt>
      <trkpt lat="44.33637" lon="5.77508">
        <ele>602</ele>
        <time>2019-03-08T13:18:54Z</time>
      </trkpt>
      <trkpt lat="44.33641" lon="5.77509">
        <ele>603</ele>
        <time>2019-03-08T13:18:55Z</time>
      </trkpt>
      <trkpt lat="44.33644" lon="5.7751">
        <ele>603</ele>
        <time>2019-03-08T13:18:56Z</time>
      </trkpt>
      <trkpt lat="44.33647" lon="5.77512">
        <ele>604</ele>
        <time>2019-03-08T13:18:57Z</time>
      </trkpt>
      <trkpt lat="44.33651" lon="5.77513">
        <ele>604</ele>
        <time>2019-03-08T13:18:58Z</time>
      </trkpt>
      <trkpt lat="44.33654" lon="5.77514">
        <ele>605</ele>
        <time>2019-03-08T13:18:59Z</time>
      </trkpt>
      <trkpt lat="44.33655" lon="5.77514">
        <ele>606</ele>
        <time>2019-03-08T13:19:00Z</time>
      </trkpt>
      <trkpt lat="44.33658" lon="5.77515">
        <ele>606</ele>
        <time>2019-03-08T13:19:01Z</time>
      </trkpt>
      <trkpt lat="44.3366" lon="5.77517">
        <ele>607</ele>
        <time>2019-03-08T13:19:02Z</time>
      </trkpt>
      <trkpt lat="44.33662" lon="5.77518">
        <ele>607</ele>
        <time>2019-03-08T13:19:03Z</time>
      </trkpt>
      <trkpt lat="44.33665" lon="5.77519">
        <ele>608</ele>
        <time>2019-03-08T13:19:04Z</time>
      </trkpt>
      <trkpt lat="44.33668" lon="5.7752">
        <ele>608</ele>
        <time>2019-03-08T13:19:05Z</time>
      </trkpt>
      <trkpt lat="44.33671" lon="5.77521">
        <ele>609</ele>
        <time>2019-03-08T13:19:06Z</time>
      </trkpt>
      <trkpt lat="44.33674" lon="5.77522">
        <ele>609</ele>
        <time>2019-03-08T13:19:07Z</time>
      </trkpt>
      <trkpt lat="44.33677" lon="5.77523">
        <ele>610</ele>
        <time>2019-03-08T13:19:08Z</time>
      </trkpt>
      <trkpt lat="44.3368" lon="5.77524">
        <ele>610</ele>
        <time>2019-03-08T13:19:09Z</time>
      </trkpt>
      <trkpt lat="44.33683" lon="5.77526">
        <ele>610</ele>
        <time>2019-03-08T13:19:10Z</time>
      </trkpt>
      <trkpt lat="44.33686" lon="5.77527">
        <ele>610</ele>
        <time>2019-03-08T13:19:11Z</time>
      </trkpt>
      <trkpt lat="44.33689" lon="5.77528">
        <ele>611</ele>
        <time>2019-03-08T13:19:12Z</time>
      </trkpt>
      <trkpt lat="44.33692" lon="5.77529">
        <ele>611</ele>
        <time>2019-03-08T13:19:13Z</time>
      </trkpt>
      <trkpt lat="44.33695" lon="5.7753">
        <ele>611</ele>
        <time>2019-03-08T13:19:14Z</time>
      </trkpt>
      <trkpt lat="44.33698" lon="5.77531">
        <ele>611</ele>
        <time>2019-03-08T13:19:15Z</time>
      </trkpt>
      <trkpt lat="44.33701" lon="5.77532">
        <ele>611</ele>
        <time>2019-03-08T13:19:16Z</time>
      </trkpt>
      <trkpt lat="44.33703" lon="5.77533">
        <ele>611</ele>
        <time>2019-03-08T13:19:17Z</time>
      </trkpt>
      <trkpt lat="44.33706" lon="5.77534">
        <ele>611</ele>
        <time>2019-03-08T13:19:18Z</time>
      </trkpt>
      <trkpt lat="44.33709" lon="5.77535">
        <ele>612</ele>
        <time>2019-03-08T13:19:19Z</time>
      </trkpt>
      <trkpt lat="44.33712" lon="5.77536">
        <ele>612</ele>
        <time>2019-03-08T13:19:20Z</time>
      </trkpt>
      <trkpt lat="44.33715" lon="5.77537">
        <ele>612</ele>
        <time>2019-03-08T13:19:21Z</time>
      </trkpt>
      <trkpt lat="44.33718" lon="5.77538">
        <ele>613</ele>
        <time>2019-03-08T13:19:22Z</time>
      </trkpt>
      <trkpt lat="44.33721" lon="5.7754">
        <ele>613</ele>
        <time>2019-03-08T13:19:23Z</time>
      </trkpt>
      <trkpt lat="44.33724" lon="5.77542">
        <ele>613</ele>
        <time>2019-03-08T13:19:24Z</time>
      </trkpt>
      <trkpt lat="44.33727" lon="5.77544">
        <ele>613</ele>
        <time>2019-03-08T13:19:25Z</time>
      </trkpt>
      <trkpt lat="44.3373" lon="5.77546">
        <ele>613</ele>
        <time>2019-03-08T13:19:26Z</time>
      </trkpt>
      <trkpt lat="44.33732" lon="5.77547">
        <ele>613</ele>
        <time>2019-03-08T13:19:27Z</time>
      </trkpt>
      <trkpt lat="44.33734" lon="5.77549">
        <ele>613</ele>
        <time>2019-03-08T13:19:28Z</time>
      </trkpt>
      <trkpt lat="44.33737" lon="5.7755">
        <ele>614</ele>
        <time>2019-03-08T13:19:29Z</time>
      </trkpt>
      <trkpt lat="44.33739" lon="5.77552">
        <ele>614</ele>
        <time>2019-03-08T13:19:30Z</time>
      </trkpt>
      <trkpt lat="44.33741" lon="5.77553">
        <ele>614</ele>
        <time>2019-03-08T13:19:31Z</time>
      </trkpt>
      <trkpt lat="44.33743" lon="5.77555">
        <ele>614</ele>
        <time>2019-03-08T13:19:32Z</time>
      </trkpt>
      <trkpt lat="44.33745" lon="5.77556">
        <ele>614</ele>
        <time>2019-03-08T13:19:33Z</time>
      </trkpt>
      <trkpt lat="44.33747" lon="5.77557">
        <ele>614</ele>
        <time>2019-03-08T13:19:34Z</time>
      </trkpt>
      <trkpt lat="44.33749" lon="5.77558">
        <ele>614</ele>
        <time>2019-03-08T13:19:35Z</time>
      </trkpt>
      <trkpt lat="44.33752" lon="5.7756">
        <ele>614</ele>
        <time>2019-03-08T13:19:36Z</time>
      </trkpt>
      <trkpt lat="44.33753" lon="5.77561">
        <ele>614</ele>
        <time>2019-03-08T13:19:37Z</time>
      </trkpt>
      <trkpt lat="44.33755" lon="5.77563">
        <ele>614</ele>
        <time>2019-03-08T13:19:38Z</time>
      </trkpt>
      <trkpt lat="44.33758" lon="5.77565">
        <ele>614</ele>
        <time>2019-03-08T13:19:39Z</time>
      </trkpt>
      <trkpt lat="44.3376" lon="5.77566">
        <ele>614</ele>
        <time>2019-03-08T13:19:40Z</time>
      </trkpt>
      <trkpt lat="44.33762" lon="5.77567">
        <ele>614</ele>
        <time>2019-03-08T13:19:41Z</time>
      </trkpt>
      <trkpt lat="44.33764" lon="5.77569">
        <ele>614</ele>
        <time>2019-03-08T13:19:42Z</time>
      </trkpt>
      <trkpt lat="44.33766" lon="5.7757">
        <ele>614</ele>
        <time>2019-03-08T13:19:43Z</time>
      </trkpt>
      <trkpt lat="44.33768" lon="5.77572">
        <ele>614</ele>
        <time>2019-03-08T13:19:44Z</time>
      </trkpt>
      <trkpt lat="44.3377" lon="5.77574">
        <ele>614</ele>
        <time>2019-03-08T13:19:45Z</time>
      </trkpt>
      <trkpt lat="44.33772" lon="5.77575">
        <ele>614</ele>
        <time>2019-03-08T13:19:46Z</time>
      </trkpt>
      <trkpt lat="44.33775" lon="5.77577">
        <ele>614</ele>
        <time>2019-03-08T13:19:48Z</time>
      </trkpt>
      <trkpt lat="44.33777" lon="5.77579">
        <ele>614</ele>
        <time>2019-03-08T13:19:48Z</time>
      </trkpt>
      <trkpt lat="44.3378" lon="5.7758">
        <ele>614</ele>
        <time>2019-03-08T13:19:49Z</time>
      </trkpt>
      <trkpt lat="44.33782" lon="5.77581">
        <ele>614</ele>
        <time>2019-03-08T13:19:50Z</time>
      </trkpt>
      <trkpt lat="44.33784" lon="5.77582">
        <ele>614</ele>
        <time>2019-03-08T13:19:51Z</time>
      </trkpt>
      <trkpt lat="44.33786" lon="5.77583">
        <ele>614</ele>
        <time>2019-03-08T13:19:52Z</time>
      </trkpt>
      <trkpt lat="44.33789" lon="5.77585">
        <ele>614</ele>
        <time>2019-03-08T13:19:53Z</time>
      </trkpt>
      <trkpt lat="44.33792" lon="5.77586">
        <ele>614</ele>
        <time>2019-03-08T13:19:54Z</time>
      </trkpt>
      <trkpt lat="44.33795" lon="5.77588">
        <ele>614</ele>
        <time>2019-03-08T13:19:55Z</time>
      </trkpt>
      <trkpt lat="44.33797" lon="5.77589">
        <ele>614</ele>
        <time>2019-03-08T13:19:56Z</time>
      </trkpt>
      <trkpt lat="44.338" lon="5.77591">
        <ele>614</ele>
        <time>2019-03-08T13:19:57Z</time>
      </trkpt>
      <trkpt lat="44.33803" lon="5.77593">
        <ele>614</ele>
        <time>2019-03-08T13:19:58Z</time>
      </trkpt>
      <trkpt lat="44.33806" lon="5.77594">
        <ele>614</ele>
        <time>2019-03-08T13:19:59Z</time>
      </trkpt>
      <trkpt lat="44.33809" lon="5.77597">
        <ele>614</ele>
        <time>2019-03-08T13:20:00Z</time>
      </trkpt>
      <trkpt lat="44.33811" lon="5.77598">
        <ele>614</ele>
        <time>2019-03-08T13:20:01Z</time>
      </trkpt>
      <trkpt lat="44.33813" lon="5.776">
        <ele>614</ele>
        <time>2019-03-08T13:20:02Z</time>
      </trkpt>
      <trkpt lat="44.33815" lon="5.77603">
        <ele>614</ele>
        <time>2019-03-08T13:20:03Z</time>
      </trkpt>
      <trkpt lat="44.33818" lon="5.77606">
        <ele>614</ele>
        <time>2019-03-08T13:20:04Z</time>
      </trkpt>
      <trkpt lat="44.33821" lon="5.77609">
        <ele>614</ele>
        <time>2019-03-08T13:20:05Z</time>
      </trkpt>
      <trkpt lat="44.33824" lon="5.77612">
        <ele>614</ele>
        <time>2019-03-08T13:20:06Z</time>
      </trkpt>
      <trkpt lat="44.33826" lon="5.77615">
        <ele>614</ele>
        <time>2019-03-08T13:20:07Z</time>
      </trkpt>
      <trkpt lat="44.33829" lon="5.77618">
        <ele>614</ele>
        <time>2019-03-08T13:20:08Z</time>
      </trkpt>
      <trkpt lat="44.33832" lon="5.77621">
        <ele>614</ele>
        <time>2019-03-08T13:20:09Z</time>
      </trkpt>
      <trkpt lat="44.33834" lon="5.77625">
        <ele>614</ele>
        <time>2019-03-08T13:20:10Z</time>
      </trkpt>
      <trkpt lat="44.33837" lon="5.77629">
        <ele>614</ele>
        <time>2019-03-08T13:20:11Z</time>
      </trkpt>
      <trkpt lat="44.33839" lon="5.77632">
        <ele>614</ele>
        <time>2019-03-08T13:20:12Z</time>
      </trkpt>
      <trkpt lat="44.33842" lon="5.77635">
        <ele>614</ele>
        <time>2019-03-08T13:20:13Z</time>
      </trkpt>
      <trkpt lat="44.33845" lon="5.77638">
        <ele>614</ele>
        <time>2019-03-08T13:20:14Z</time>
      </trkpt>
      <trkpt lat="44.33848" lon="5.77641">
        <ele>614</ele>
        <time>2019-03-08T13:20:15Z</time>
      </trkpt>
      <trkpt lat="44.33851" lon="5.77643">
        <ele>614</ele>
        <time>2019-03-08T13:20:16Z</time>
      </trkpt>
      <trkpt lat="44.33854" lon="5.77646">
        <ele>614</ele>
        <time>2019-03-08T13:20:17Z</time>
      </trkpt>
      <trkpt lat="44.33857" lon="5.77649">
        <ele>614</ele>
        <time>2019-03-08T13:20:18Z</time>
      </trkpt>
      <trkpt lat="44.3386" lon="5.77652">
        <ele>614</ele>
        <time>2019-03-08T13:20:19Z</time>
      </trkpt>
      <trkpt lat="44.33863" lon="5.77654">
        <ele>614</ele>
        <time>2019-03-08T13:20:20Z</time>
      </trkpt>
      <trkpt lat="44.33867" lon="5.77656">
        <ele>614</ele>
        <time>2019-03-08T13:20:21Z</time>
      </trkpt>
      <trkpt lat="44.3387" lon="5.77658">
        <ele>614</ele>
        <time>2019-03-08T13:20:22Z</time>
      </trkpt>
      <trkpt lat="44.33874" lon="5.77659">
        <ele>614</ele>
        <time>2019-03-08T13:20:23Z</time>
      </trkpt>
      <trkpt lat="44.33878" lon="5.77661">
        <ele>614</ele>
        <time>2019-03-08T13:20:24Z</time>
      </trkpt>
      <trkpt lat="44.33882" lon="5.77662">
        <ele>614</ele>
        <time>2019-03-08T13:20:25Z</time>
      </trkpt>
      <trkpt lat="44.33886" lon="5.77664">
        <ele>614</ele>
        <time>2019-03-08T13:20:26Z</time>
      </trkpt>
      <trkpt lat="44.33889" lon="5.77665">
        <ele>614</ele>
        <time>2019-03-08T13:20:27Z</time>
      </trkpt>
      <trkpt lat="44.33893" lon="5.77666">
        <ele>614</ele>
        <time>2019-03-08T13:20:28Z</time>
      </trkpt>
      <trkpt lat="44.33897" lon="5.77666">
        <ele>614</ele>
        <time>2019-03-08T13:20:29Z</time>
      </trkpt>
      <trkpt lat="44.33901" lon="5.77666">
        <ele>615</ele>
        <time>2019-03-08T13:20:30Z</time>
      </trkpt>
      <trkpt lat="44.33905" lon="5.77665">
        <ele>616</ele>
        <time>2019-03-08T13:20:31Z</time>
      </trkpt>
      <trkpt lat="44.33908" lon="5.77664">
        <ele>616</ele>
        <time>2019-03-08T13:20:32Z</time>
      </trkpt>
      <trkpt lat="44.33912" lon="5.77663">
        <ele>617</ele>
        <time>2019-03-08T13:20:33Z</time>
      </trkpt>
      <trkpt lat="44.33915" lon="5.77662">
        <ele>618</ele>
        <time>2019-03-08T13:20:34Z</time>
      </trkpt>
      <trkpt lat="44.33919" lon="5.7766">
        <ele>618</ele>
        <time>2019-03-08T13:20:35Z</time>
      </trkpt>
      <trkpt lat="44.33923" lon="5.77658">
        <ele>619</ele>
        <time>2019-03-08T13:20:36Z</time>
      </trkpt>
      <trkpt lat="44.33926" lon="5.77657">
        <ele>619</ele>
        <time>2019-03-08T13:20:37Z</time>
      </trkpt>
      <trkpt lat="44.3393" lon="5.77655">
        <ele>620</ele>
        <time>2019-03-08T13:20:38Z</time>
      </trkpt>
      <trkpt lat="44.33933" lon="5.77653">
        <ele>621</ele>
        <time>2019-03-08T13:20:39Z</time>
      </trkpt>
      <trkpt lat="44.33937" lon="5.7765">
        <ele>621</ele>
        <time>2019-03-08T13:20:40Z</time>
      </trkpt>
      <trkpt lat="44.33941" lon="5.77647">
        <ele>621</ele>
        <time>2019-03-08T13:20:41Z</time>
      </trkpt>
      <trkpt lat="44.33944" lon="5.77645">
        <ele>621</ele>
        <time>2019-03-08T13:20:42Z</time>
      </trkpt>
      <trkpt lat="44.33947" lon="5.77642">
        <ele>621</ele>
        <time>2019-03-08T13:20:43Z</time>
      </trkpt>
      <trkpt lat="44.3395" lon="5.77639">
        <ele>621</ele>
        <time>2019-03-08T13:20:44Z</time>
      </trkpt>
      <trkpt lat="44.33953" lon="5.77636">
        <ele>621</ele>
        <time>2019-03-08T13:20:45Z</time>
      </trkpt>
      <trkpt lat="44.33956" lon="5.77633">
        <ele>621</ele>
        <time>2019-03-08T13:20:46Z</time>
      </trkpt>
      <trkpt lat="44.33959" lon="5.7763">
        <ele>621</ele>
        <time>2019-03-08T13:20:48Z</time>
      </trkpt>
      <trkpt lat="44.33962" lon="5.77626">
        <ele>621</ele>
        <time>2019-03-08T13:20:48Z</time>
      </trkpt>
      <trkpt lat="44.33965" lon="5.77623">
        <ele>621</ele>
        <time>2019-03-08T13:20:49Z</time>
      </trkpt>
      <trkpt lat="44.33968" lon="5.77619">
        <ele>621</ele>
        <time>2019-03-08T13:20:50Z</time>
      </trkpt>
      <trkpt lat="44.3397" lon="5.77615">
        <ele>621</ele>
        <time>2019-03-08T13:20:51Z</time>
      </trkpt>
      <trkpt lat="44.33973" lon="5.77612">
        <ele>621</ele>
        <time>2019-03-08T13:20:52Z</time>
      </trkpt>
      <trkpt lat="44.33975" lon="5.77608">
        <ele>622</ele>
        <time>2019-03-08T13:20:53Z</time>
      </trkpt>
      <trkpt lat="44.33978" lon="5.77604">
        <ele>622</ele>
        <time>2019-03-08T13:20:54Z</time>
      </trkpt>
      <trkpt lat="44.3398" lon="5.776">
        <ele>622</ele>
        <time>2019-03-08T13:20:55Z</time>
      </trkpt>
      <trkpt lat="44.33981" lon="5.77596">
        <ele>623</ele>
        <time>2019-03-08T13:20:56Z</time>
      </trkpt>
      <trkpt lat="44.33983" lon="5.77592">
        <ele>623</ele>
        <time>2019-03-08T13:20:57Z</time>
      </trkpt>
      <trkpt lat="44.33985" lon="5.77588">
        <ele>624</ele>
        <time>2019-03-08T13:20:58Z</time>
      </trkpt>
      <trkpt lat="44.33987" lon="5.77584">
        <ele>624</ele>
        <time>2019-03-08T13:20:59Z</time>
      </trkpt>
      <trkpt lat="44.33988" lon="5.77579">
        <ele>624</ele>
        <time>2019-03-08T13:21:00Z</time>
      </trkpt>
      <trkpt lat="44.3399" lon="5.77575">
        <ele>625</ele>
        <time>2019-03-08T13:21:01Z</time>
      </trkpt>
      <trkpt lat="44.33992" lon="5.7757">
        <ele>625</ele>
        <time>2019-03-08T13:21:02Z</time>
      </trkpt>
      <trkpt lat="44.33993" lon="5.77566">
        <ele>625</ele>
        <time>2019-03-08T13:21:03Z</time>
      </trkpt>
      <trkpt lat="44.33995" lon="5.77562">
        <ele>626</ele>
        <time>2019-03-08T13:21:04Z</time>
      </trkpt>
      <trkpt lat="44.33997" lon="5.77558">
        <ele>626</ele>
        <time>2019-03-08T13:21:05Z</time>
      </trkpt>
      <trkpt lat="44.33999" lon="5.77553">
        <ele>626</ele>
        <time>2019-03-08T13:21:06Z</time>
      </trkpt>
      <trkpt lat="44.34001" lon="5.77549">
        <ele>626</ele>
        <time>2019-03-08T13:21:07Z</time>
      </trkpt>
      <trkpt lat="44.34003" lon="5.77544">
        <ele>626</ele>
        <time>2019-03-08T13:21:08Z</time>
      </trkpt>
      <trkpt lat="44.34006" lon="5.77539">
        <ele>626</ele>
        <time>2019-03-08T13:21:09Z</time>
      </trkpt>
      <trkpt lat="44.34008" lon="5.77534">
        <ele>626</ele>
        <time>2019-03-08T13:21:10Z</time>
      </trkpt>
      <trkpt lat="44.3401" lon="5.77529">
        <ele>626</ele>
        <time>2019-03-08T13:21:11Z</time>
      </trkpt>
      <trkpt lat="44.34011" lon="5.77524">
        <ele>626</ele>
        <time>2019-03-08T13:21:12Z</time>
      </trkpt>
      <trkpt lat="44.34012" lon="5.77518">
        <ele>626</ele>
        <time>2019-03-08T13:21:13Z</time>
      </trkpt>
      <trkpt lat="44.34012" lon="5.77512">
        <ele>626</ele>
        <time>2019-03-08T13:21:14Z</time>
      </trkpt>
      <trkpt lat="44.34012" lon="5.77507">
        <ele>626</ele>
        <time>2019-03-08T13:21:15Z</time>
      </trkpt>
      <trkpt lat="44.34012" lon="5.77501">
        <ele>626</ele>
        <time>2019-03-08T13:21:16Z</time>
      </trkpt>
      <trkpt lat="44.34011" lon="5.77495">
        <ele>626</ele>
        <time>2019-03-08T13:21:17Z</time>
      </trkpt>
      <trkpt lat="44.34009" lon="5.7749">
        <ele>626</ele>
        <time>2019-03-08T13:21:18Z</time>
      </trkpt>
      <trkpt lat="44.34007" lon="5.77484">
        <ele>626</ele>
        <time>2019-03-08T13:21:19Z</time>
      </trkpt>
      <trkpt lat="44.34005" lon="5.77477">
        <ele>626</ele>
        <time>2019-03-08T13:21:20Z</time>
      </trkpt>
      <trkpt lat="44.34003" lon="5.77471">
        <ele>626</ele>
        <time>2019-03-08T13:21:21Z</time>
      </trkpt>
      <trkpt lat="44.34" lon="5.77463">
        <ele>626</ele>
        <time>2019-03-08T13:21:22Z</time>
      </trkpt>
      <trkpt lat="44.33998" lon="5.77456">
        <ele>626</ele>
        <time>2019-03-08T13:21:23Z</time>
      </trkpt>
      <trkpt lat="44.33995" lon="5.77447">
        <ele>626</ele>
        <time>2019-03-08T13:21:24Z</time>
      </trkpt>
      <trkpt lat="44.33992" lon="5.77439">
        <ele>626</ele>
        <time>2019-03-08T13:21:25Z</time>
      </trkpt>
      <trkpt lat="44.33988" lon="5.7743">
        <ele>626</ele>
        <time>2019-03-08T13:21:26Z</time>
      </trkpt>
      <trkpt lat="44.33985" lon="5.7742">
        <ele>626</ele>
        <time>2019-03-08T13:21:27Z</time>
      </trkpt>
      <trkpt lat="44.33982" lon="5.7741">
        <ele>626</ele>
        <time>2019-03-08T13:21:28Z</time>
      </trkpt>
      <trkpt lat="44.3398" lon="5.77399">
        <ele>626</ele>
        <time>2019-03-08T13:21:29Z</time>
      </trkpt>
      <trkpt lat="44.33981" lon="5.77387">
        <ele>626</ele>
        <time>2019-03-08T13:21:30Z</time>
      </trkpt>
      <trkpt lat="44.33982" lon="5.77375">
        <ele>626</ele>
        <time>2019-03-08T13:21:31Z</time>
      </trkpt>
      <trkpt lat="44.33985" lon="5.77364">
        <ele>626</ele>
        <time>2019-03-08T13:21:32Z</time>
      </trkpt>
      <trkpt lat="44.33987" lon="5.77352">
        <ele>626</ele>
        <time>2019-03-08T13:21:33Z</time>
      </trkpt>
      <trkpt lat="44.33988" lon="5.7734">
        <ele>626</ele>
        <time>2019-03-08T13:21:34Z</time>
      </trkpt>
      <trkpt lat="44.33988" lon="5.77327">
        <ele>626</ele>
        <time>2019-03-08T13:21:35Z</time>
      </trkpt>
      <trkpt lat="44.33987" lon="5.77314">
        <ele>625</ele>
        <time>2019-03-08T13:21:36Z</time>
      </trkpt>
      <trkpt lat="44.33984" lon="5.77301">
        <ele>625</ele>
        <time>2019-03-08T13:21:37Z</time>
      </trkpt>
      <trkpt lat="44.33981" lon="5.77288">
        <ele>624</ele>
        <time>2019-03-08T13:21:38Z</time>
      </trkpt>
      <trkpt lat="44.33979" lon="5.77274">
        <ele>623</ele>
        <time>2019-03-08T13:21:39Z</time>
      </trkpt>
      <trkpt lat="44.33978" lon="5.7726">
        <ele>622</ele>
        <time>2019-03-08T13:21:40Z</time>
      </trkpt>
      <trkpt lat="44.33978" lon="5.77246">
        <ele>621</ele>
        <time>2019-03-08T13:21:41Z</time>
      </trkpt>
      <trkpt lat="44.33979" lon="5.7723">
        <ele>621</ele>
        <time>2019-03-08T13:21:42Z</time>
      </trkpt>
      <trkpt lat="44.33979" lon="5.77215">
        <ele>620</ele>
        <time>2019-03-08T13:21:43Z</time>
      </trkpt>
      <trkpt lat="44.3398" lon="5.772">
        <ele>619</ele>
        <time>2019-03-08T13:21:44Z</time>
      </trkpt>
      <trkpt lat="44.33979" lon="5.77185">
        <ele>618</ele>
        <time>2019-03-08T13:21:45Z</time>
      </trkpt>
      <trkpt lat="44.33979" lon="5.7717">
        <ele>617</ele>
        <time>2019-03-08T13:21:46Z</time>
      </trkpt>
      <trkpt lat="44.33978" lon="5.77153">
        <ele>616</ele>
        <time>2019-03-08T13:21:48Z</time>
      </trkpt>
      <trkpt lat="44.33978" lon="5.77137">
        <ele>615</ele>
        <time>2019-03-08T13:21:48Z</time>
      </trkpt>
      <trkpt lat="44.33978" lon="5.77119">
        <ele>614</ele>
        <time>2019-03-08T13:21:49Z</time>
      </trkpt>
      <trkpt lat="44.33978" lon="5.77103">
        <ele>613</ele>
        <time>2019-03-08T13:21:50Z</time>
      </trkpt>
      <trkpt lat="44.33979" lon="5.77086">
        <ele>612</ele>
        <time>2019-03-08T13:21:51Z</time>
      </trkpt>
      <trkpt lat="44.33981" lon="5.7707">
        <ele>612</ele>
        <time>2019-03-08T13:21:52Z</time>
      </trkpt>
      <trkpt lat="44.33983" lon="5.77053">
        <ele>611</ele>
        <time>2019-03-08T13:21:53Z</time>
      </trkpt>
      <trkpt lat="44.33986" lon="5.77036">
        <ele>610</ele>
        <time>2019-03-08T13:21:54Z</time>
      </trkpt>
      <trkpt lat="44.33988" lon="5.7702">
        <ele>609</ele>
        <time>2019-03-08T13:21:55Z</time>
      </trkpt>
      <trkpt lat="44.3399" lon="5.77003">
        <ele>608</ele>
        <time>2019-03-08T13:21:56Z</time>
      </trkpt>
      <trkpt lat="44.33993" lon="5.76988">
        <ele>607</ele>
        <time>2019-03-08T13:21:57Z</time>
      </trkpt>
      <trkpt lat="44.33995" lon="5.76972">
        <ele>606</ele>
        <time>2019-03-08T13:21:58Z</time>
      </trkpt>
      <trkpt lat="44.33996" lon="5.76958">
        <ele>605</ele>
        <time>2019-03-08T13:21:59Z</time>
      </trkpt>
      <trkpt lat="44.33998" lon="5.76944">
        <ele>604</ele>
        <time>2019-03-08T13:22:01Z</time>
      </trkpt>
      <trkpt lat="44.34" lon="5.76931">
        <ele>603</ele>
        <time>2019-03-08T13:22:01Z</time>
      </trkpt>
      <trkpt lat="44.34003" lon="5.76918">
        <ele>603</ele>
        <time>2019-03-08T13:22:02Z</time>
      </trkpt>
      <trkpt lat="44.34005" lon="5.76906">
        <ele>602</ele>
        <time>2019-03-08T13:22:03Z</time>
      </trkpt>
      <trkpt lat="44.34008" lon="5.76894">
        <ele>601</ele>
        <time>2019-03-08T13:22:04Z</time>
      </trkpt>
      <trkpt lat="44.3401" lon="5.76883">
        <ele>600</ele>
        <time>2019-03-08T13:22:05Z</time>
      </trkpt>
      <trkpt lat="44.34012" lon="5.76871">
        <ele>600</ele>
        <time>2019-03-08T13:22:06Z</time>
      </trkpt>
      <trkpt lat="44.34015" lon="5.76861">
        <ele>599</ele>
        <time>2019-03-08T13:22:07Z</time>
      </trkpt>
      <trkpt lat="44.34017" lon="5.76849">
        <ele>599</ele>
        <time>2019-03-08T13:22:08Z</time>
      </trkpt>
      <trkpt lat="44.3402" lon="5.76839">
        <ele>599</ele>
        <time>2019-03-08T13:22:09Z</time>
      </trkpt>
      <trkpt lat="44.34022" lon="5.76828">
        <ele>599</ele>
        <time>2019-03-08T13:22:10Z</time>
      </trkpt>
      <trkpt lat="44.34023" lon="5.76817">
        <ele>598</ele>
        <time>2019-03-08T13:22:11Z</time>
      </trkpt>
      <trkpt lat="44.34024" lon="5.76807">
        <ele>598</ele>
        <time>2019-03-08T13:22:12Z</time>
      </trkpt>
      <trkpt lat="44.34024" lon="5.76796">
        <ele>597</ele>
        <time>2019-03-08T13:22:13Z</time>
      </trkpt>
      <trkpt lat="44.34023" lon="5.76786">
        <ele>597</ele>
        <time>2019-03-08T13:22:14Z</time>
      </trkpt>
      <trkpt lat="44.34021" lon="5.76776">
        <ele>597</ele>
        <time>2019-03-08T13:22:15Z</time>
      </trkpt>
      <trkpt lat="44.3402" lon="5.76767">
        <ele>597</ele>
        <time>2019-03-08T13:22:16Z</time>
      </trkpt>
      <trkpt lat="44.34019" lon="5.76758">
        <ele>597</ele>
        <time>2019-03-08T13:22:17Z</time>
      </trkpt>
      <trkpt lat="44.34018" lon="5.76749">
        <ele>597</ele>
        <time>2019-03-08T13:22:18Z</time>
      </trkpt>
      <trkpt lat="44.34017" lon="5.7674">
        <ele>596</ele>
        <time>2019-03-08T13:22:19Z</time>
      </trkpt>
      <trkpt lat="44.34016" lon="5.76731">
        <ele>596</ele>
        <time>2019-03-08T13:22:20Z</time>
      </trkpt>
      <trkpt lat="44.34016" lon="5.76722">
        <ele>596</ele>
        <time>2019-03-08T13:22:21Z</time>
      </trkpt>
      <trkpt lat="44.34017" lon="5.76712">
        <ele>595</ele>
        <time>2019-03-08T13:22:22Z</time>
      </trkpt>
      <trkpt lat="44.34021" lon="5.76703">
        <ele>595</ele>
        <time>2019-03-08T13:22:23Z</time>
      </trkpt>
      <trkpt lat="44.34025" lon="5.76695">
        <ele>594</ele>
        <time>2019-03-08T13:22:24Z</time>
      </trkpt>
      <trkpt lat="44.34031" lon="5.76689">
        <ele>594</ele>
        <time>2019-03-08T13:22:25Z</time>
      </trkpt>
      <trkpt lat="44.34038" lon="5.76685">
        <ele>594</ele>
        <time>2019-03-08T13:22:26Z</time>
      </trkpt>
      <trkpt lat="44.34045" lon="5.76682">
        <ele>594</ele>
        <time>2019-03-08T13:22:27Z</time>
      </trkpt>
      <trkpt lat="44.34051" lon="5.76678">
        <ele>594</ele>
        <time>2019-03-08T13:22:28Z</time>
      </trkpt>
      <trkpt lat="44.34057" lon="5.76673">
        <ele>594</ele>
        <time>2019-03-08T13:22:29Z</time>
      </trkpt>
      <trkpt lat="44.34062" lon="5.76666">
        <ele>594</ele>
        <time>2019-03-08T13:22:30Z</time>
      </trkpt>
      <trkpt lat="44.34064" lon="5.76659">
        <ele>594</ele>
        <time>2019-03-08T13:22:31Z</time>
      </trkpt>
      <trkpt lat="44.34064" lon="5.76652">
        <ele>594</ele>
        <time>2019-03-08T13:22:32Z</time>
      </trkpt>
      <trkpt lat="44.34061" lon="5.76646">
        <ele>594</ele>
        <time>2019-03-08T13:22:33Z</time>
      </trkpt>
      <trkpt lat="44.34059" lon="5.76641">
        <ele>594</ele>
        <time>2019-03-08T13:22:34Z</time>
      </trkpt>
      <trkpt lat="44.34056" lon="5.76636">
        <ele>594</ele>
        <time>2019-03-08T13:22:35Z</time>
      </trkpt>
      <trkpt lat="44.34053" lon="5.7663">
        <ele>594</ele>
        <time>2019-03-08T13:22:36Z</time>
      </trkpt>
      <trkpt lat="44.34051" lon="5.76625">
        <ele>594</ele>
        <time>2019-03-08T13:22:37Z</time>
      </trkpt>
      <trkpt lat="44.34048" lon="5.7662">
        <ele>594</ele>
        <time>2019-03-08T13:22:38Z</time>
      </trkpt>
      <trkpt lat="44.34046" lon="5.76615">
        <ele>594</ele>
        <time>2019-03-08T13:22:39Z</time>
      </trkpt>
      <trkpt lat="44.34044" lon="5.76609">
        <ele>594</ele>
        <time>2019-03-08T13:22:40Z</time>
      </trkpt>
      <trkpt lat="44.34042" lon="5.76604">
        <ele>594</ele>
        <time>2019-03-08T13:22:41Z</time>
      </trkpt>
      <trkpt lat="44.3404" lon="5.76598">
        <ele>594</ele>
        <time>2019-03-08T13:22:42Z</time>
      </trkpt>
      <trkpt lat="44.34039" lon="5.76592">
        <ele>594</ele>
        <time>2019-03-08T13:22:43Z</time>
      </trkpt>
      <trkpt lat="44.34037" lon="5.76586">
        <ele>594</ele>
        <time>2019-03-08T13:22:44Z</time>
      </trkpt>
      <trkpt lat="44.34036" lon="5.76581">
        <ele>594</ele>
        <time>2019-03-08T13:22:45Z</time>
      </trkpt>
      <trkpt lat="44.34034" lon="5.76575">
        <ele>594</ele>
        <time>2019-03-08T13:22:46Z</time>
      </trkpt>
      <trkpt lat="44.34034" lon="5.76569">
        <ele>594</ele>
        <time>2019-03-08T13:22:48Z</time>
      </trkpt>
      <trkpt lat="44.34035" lon="5.76563">
        <ele>594</ele>
        <time>2019-03-08T13:22:48Z</time>
      </trkpt>
      <trkpt lat="44.34037" lon="5.76557">
        <ele>594</ele>
        <time>2019-03-08T13:22:49Z</time>
      </trkpt>
      <trkpt lat="44.3404" lon="5.76552">
        <ele>594</ele>
        <time>2019-03-08T13:22:50Z</time>
      </trkpt>
      <trkpt lat="44.34042" lon="5.76546">
        <ele>594</ele>
        <time>2019-03-08T13:22:51Z</time>
      </trkpt>
      <trkpt lat="44.34045" lon="5.76541">
        <ele>594</ele>
        <time>2019-03-08T13:22:52Z</time>
      </trkpt>
      <trkpt lat="44.34048" lon="5.76535">
        <ele>594</ele>
        <time>2019-03-08T13:22:53Z</time>
      </trkpt>
      <trkpt lat="44.3405" lon="5.7653">
        <ele>594</ele>
        <time>2019-03-08T13:22:54Z</time>
      </trkpt>
      <trkpt lat="44.34053" lon="5.76524">
        <ele>594</ele>
        <time>2019-03-08T13:22:55Z</time>
      </trkpt>
      <trkpt lat="44.34056" lon="5.76518">
        <ele>594</ele>
        <time>2019-03-08T13:22:56Z</time>
      </trkpt>
      <trkpt lat="44.34059" lon="5.76513">
        <ele>594</ele>
        <time>2019-03-08T13:22:57Z</time>
      </trkpt>
      <trkpt lat="44.34062" lon="5.76507">
        <ele>594</ele>
        <time>2019-03-08T13:22:58Z</time>
      </trkpt>
      <trkpt lat="44.34065" lon="5.76502">
        <ele>594</ele>
        <time>2019-03-08T13:22:59Z</time>
      </trkpt>
      <trkpt lat="44.34068" lon="5.76496">
        <ele>594</ele>
        <time>2019-03-08T13:23:00Z</time>
      </trkpt>
      <trkpt lat="44.3407" lon="5.7649">
        <ele>594</ele>
        <time>2019-03-08T13:23:01Z</time>
      </trkpt>
      <trkpt lat="44.34073" lon="5.76484">
        <ele>594</ele>
        <time>2019-03-08T13:23:02Z</time>
      </trkpt>
      <trkpt lat="44.34076" lon="5.76479">
        <ele>594</ele>
        <time>2019-03-08T13:23:03Z</time>
      </trkpt>
      <trkpt lat="44.34079" lon="5.76474">
        <ele>594</ele>
        <time>2019-03-08T13:23:04Z</time>
      </trkpt>
      <trkpt lat="44.34082" lon="5.76468">
        <ele>594</ele>
        <time>2019-03-08T13:23:05Z</time>
      </trkpt>
      <trkpt lat="44.34085" lon="5.76463">
        <ele>594</ele>
        <time>2019-03-08T13:23:06Z</time>
      </trkpt>
      <trkpt lat="44.34087" lon="5.76458">
        <ele>594</ele>
        <time>2019-03-08T13:23:07Z</time>
      </trkpt>
      <trkpt lat="44.3409" lon="5.76452">
        <ele>594</ele>
        <time>2019-03-08T13:23:08Z</time>
      </trkpt>
      <trkpt lat="44.34093" lon="5.76447">
        <ele>594</ele>
        <time>2019-03-08T13:23:09Z</time>
      </trkpt>
      <trkpt lat="44.34096" lon="5.76441">
        <ele>594</ele>
        <time>2019-03-08T13:23:10Z</time>
      </trkpt>
      <trkpt lat="44.34099" lon="5.76436">
        <ele>594</ele>
        <time>2019-03-08T13:23:11Z</time>
      </trkpt>
      <trkpt lat="44.34102" lon="5.76431">
        <ele>594</ele>
        <time>2019-03-08T13:23:12Z</time>
      </trkpt>
      <trkpt lat="44.34105" lon="5.76426">
        <ele>594</ele>
        <time>2019-03-08T13:23:13Z</time>
      </trkpt>
      <trkpt lat="44.34108" lon="5.76421">
        <ele>594</ele>
        <time>2019-03-08T13:23:14Z</time>
      </trkpt>
      <trkpt lat="44.34111" lon="5.76416">
        <ele>594</ele>
        <time>2019-03-08T13:23:15Z</time>
      </trkpt>
      <trkpt lat="44.34113" lon="5.7641">
        <ele>594</ele>
        <time>2019-03-08T13:23:16Z</time>
      </trkpt>
      <trkpt lat="44.34115" lon="5.76405">
        <ele>594</ele>
        <time>2019-03-08T13:23:17Z</time>
      </trkpt>
      <trkpt lat="44.34117" lon="5.76399">
        <ele>594</ele>
        <time>2019-03-08T13:23:18Z</time>
      </trkpt>
      <trkpt lat="44.34118" lon="5.76393">
        <ele>594</ele>
        <time>2019-03-08T13:23:19Z</time>
      </trkpt>
      <trkpt lat="44.34121" lon="5.76389">
        <ele>594</ele>
        <time>2019-03-08T13:23:20Z</time>
      </trkpt>
      <trkpt lat="44.34124" lon="5.76385">
        <ele>594</ele>
        <time>2019-03-08T13:23:21Z</time>
      </trkpt>
      <trkpt lat="44.34128" lon="5.76382">
        <ele>594</ele>
        <time>2019-03-08T13:23:22Z</time>
      </trkpt>
      <trkpt lat="44.34132" lon="5.76379">
        <ele>594</ele>
        <time>2019-03-08T13:23:23Z</time>
      </trkpt>
      <trkpt lat="44.34135" lon="5.76375">
        <ele>594</ele>
        <time>2019-03-08T13:23:24Z</time>
      </trkpt>
      <trkpt lat="44.34137" lon="5.7637">
        <ele>594</ele>
        <time>2019-03-08T13:23:25Z</time>
      </trkpt>
      <trkpt lat="44.34138" lon="5.76364">
        <ele>594</ele>
        <time>2019-03-08T13:23:26Z</time>
      </trkpt>
      <trkpt lat="44.34137" lon="5.76358">
        <ele>594</ele>
        <time>2019-03-08T13:23:27Z</time>
      </trkpt>
      <trkpt lat="44.34134" lon="5.76354">
        <ele>594</ele>
        <time>2019-03-08T13:23:28Z</time>
      </trkpt>
      <trkpt lat="44.3413" lon="5.7635">
        <ele>594</ele>
        <time>2019-03-08T13:23:29Z</time>
      </trkpt>
      <trkpt lat="44.34127" lon="5.76347">
        <ele>594</ele>
        <time>2019-03-08T13:23:30Z</time>
      </trkpt>
      <trkpt lat="44.34122" lon="5.76344">
        <ele>594</ele>
        <time>2019-03-08T13:23:31Z</time>
      </trkpt>
      <trkpt lat="44.34119" lon="5.76339">
        <ele>594</ele>
        <time>2019-03-08T13:23:32Z</time>
      </trkpt>
      <trkpt lat="44.34116" lon="5.76334">
        <ele>594</ele>
        <time>2019-03-08T13:23:33Z</time>
      </trkpt>
      <trkpt lat="44.34113" lon="5.76329">
        <ele>594</ele>
        <time>2019-03-08T13:23:34Z</time>
      </trkpt>
      <trkpt lat="44.34109" lon="5.76323">
        <ele>594</ele>
        <time>2019-03-08T13:23:35Z</time>
      </trkpt>
      <trkpt lat="44.34106" lon="5.76316">
        <ele>594</ele>
        <time>2019-03-08T13:23:36Z</time>
      </trkpt>
      <trkpt lat="44.34103" lon="5.7631">
        <ele>594</ele>
        <time>2019-03-08T13:23:37Z</time>
      </trkpt>
      <trkpt lat="44.34101" lon="5.76304">
        <ele>594</ele>
        <time>2019-03-08T13:23:38Z</time>
      </trkpt>
      <trkpt lat="44.34098" lon="5.76299">
        <ele>595</ele>
        <time>2019-03-08T13:23:39Z</time>
      </trkpt>
      <trkpt lat="44.34095" lon="5.76293">
        <ele>595</ele>
        <time>2019-03-08T13:23:40Z</time>
      </trkpt>
      <trkpt lat="44.34092" lon="5.76287">
        <ele>595</ele>
        <time>2019-03-08T13:23:41Z</time>
      </trkpt>
      <trkpt lat="44.34089" lon="5.76281">
        <ele>595</ele>
        <time>2019-03-08T13:23:42Z</time>
      </trkpt>
      <trkpt lat="44.34087" lon="5.76275">
        <ele>595</ele>
        <time>2019-03-08T13:23:43Z</time>
      </trkpt>
      <trkpt lat="44.34084" lon="5.7627">
        <ele>596</ele>
        <time>2019-03-08T13:23:44Z</time>
      </trkpt>
      <trkpt lat="44.34081" lon="5.76264">
        <ele>596</ele>
        <time>2019-03-08T13:23:45Z</time>
      </trkpt>
      <trkpt lat="44.34079" lon="5.76259">
        <ele>596</ele>
        <time>2019-03-08T13:23:46Z</time>
      </trkpt>
      <trkpt lat="44.34076" lon="5.76254">
        <ele>596</ele>
        <time>2019-03-08T13:23:48Z</time>
      </trkpt>
      <trkpt lat="44.34073" lon="5.76249">
        <ele>596</ele>
        <time>2019-03-08T13:23:48Z</time>
      </trkpt>
      <trkpt lat="44.34071" lon="5.76244">
        <ele>597</ele>
        <time>2019-03-08T13:23:49Z</time>
      </trkpt>
      <trkpt lat="44.34068" lon="5.76238">
        <ele>597</ele>
        <time>2019-03-08T13:23:50Z</time>
      </trkpt>
      <trkpt lat="44.34066" lon="5.76233">
        <ele>597</ele>
        <time>2019-03-08T13:23:51Z</time>
      </trkpt>
      <trkpt lat="44.34063" lon="5.76228">
        <ele>597</ele>
        <time>2019-03-08T13:23:52Z</time>
      </trkpt>
      <trkpt lat="44.34061" lon="5.76223">
        <ele>597</ele>
        <time>2019-03-08T13:23:53Z</time>
      </trkpt>
      <trkpt lat="44.34058" lon="5.76218">
        <ele>597</ele>
        <time>2019-03-08T13:23:54Z</time>
      </trkpt>
      <trkpt lat="44.34055" lon="5.76213">
        <ele>597</ele>
        <time>2019-03-08T13:23:55Z</time>
      </trkpt>
      <trkpt lat="44.34053" lon="5.76207">
        <ele>597</ele>
        <time>2019-03-08T13:23:56Z</time>
      </trkpt>
      <trkpt lat="44.3405" lon="5.76202">
        <ele>597</ele>
        <time>2019-03-08T13:23:57Z</time>
      </trkpt>
      <trkpt lat="44.34047" lon="5.76196">
        <ele>598</ele>
        <time>2019-03-08T13:23:58Z</time>
      </trkpt>
      <trkpt lat="44.34045" lon="5.76191">
        <ele>598</ele>
        <time>2019-03-08T13:23:59Z</time>
      </trkpt>
      <trkpt lat="44.34042" lon="5.76185">
        <ele>598</ele>
        <time>2019-03-08T13:24:00Z</time>
      </trkpt>
      <trkpt lat="44.3404" lon="5.7618">
        <ele>598</ele>
        <time>2019-03-08T13:24:01Z</time>
      </trkpt>
      <trkpt lat="44.34037" lon="5.76174">
        <ele>598</ele>
        <time>2019-03-08T13:24:02Z</time>
      </trkpt>
      <trkpt lat="44.34034" lon="5.76169">
        <ele>598</ele>
        <time>2019-03-08T13:24:03Z</time>
      </trkpt>
      <trkpt lat="44.34031" lon="5.76163">
        <ele>598</ele>
        <time>2019-03-08T13:24:04Z</time>
      </trkpt>
      <trkpt lat="44.34029" lon="5.76158">
        <ele>598</ele>
        <time>2019-03-08T13:24:05Z</time>
      </trkpt>
      <trkpt lat="44.34026" lon="5.76152">
        <ele>598</ele>
        <time>2019-03-08T13:24:06Z</time>
      </trkpt>
      <trkpt lat="44.34023" lon="5.76146">
        <ele>598</ele>
        <time>2019-03-08T13:24:07Z</time>
      </trkpt>
      <trkpt lat="44.3402" lon="5.7614">
        <ele>598</ele>
        <time>2019-03-08T13:24:08Z</time>
      </trkpt>
      <trkpt lat="44.34017" lon="5.76134">
        <ele>598</ele>
        <time>2019-03-08T13:24:09Z</time>
      </trkpt>
      <trkpt lat="44.34014" lon="5.76129">
        <ele>598</ele>
        <time>2019-03-08T13:24:10Z</time>
      </trkpt>
      <trkpt lat="44.34011" lon="5.76123">
        <ele>598</ele>
        <time>2019-03-08T13:24:11Z</time>
      </trkpt>
      <trkpt lat="44.34009" lon="5.76117">
        <ele>598</ele>
        <time>2019-03-08T13:24:12Z</time>
      </trkpt>
      <trkpt lat="44.34006" lon="5.76111">
        <ele>598</ele>
        <time>2019-03-08T13:24:13Z</time>
      </trkpt>
      <trkpt lat="44.34003" lon="5.76106">
        <ele>598</ele>
        <time>2019-03-08T13:24:14Z</time>
      </trkpt>
      <trkpt lat="44.34" lon="5.761">
        <ele>598</ele>
        <time>2019-03-08T13:24:15Z</time>
      </trkpt>
      <trkpt lat="44.33997" lon="5.76094">
        <ele>598</ele>
        <time>2019-03-08T13:24:16Z</time>
      </trkpt>
      <trkpt lat="44.33995" lon="5.76089">
        <ele>598</ele>
        <time>2019-03-08T13:24:17Z</time>
      </trkpt>
      <trkpt lat="44.33992" lon="5.76083">
        <ele>598</ele>
        <time>2019-03-08T13:24:18Z</time>
      </trkpt>
      <trkpt lat="44.33989" lon="5.76077">
        <ele>598</ele>
        <time>2019-03-08T13:24:19Z</time>
      </trkpt>
      <trkpt lat="44.33986" lon="5.76072">
        <ele>598</ele>
        <time>2019-03-08T13:24:20Z</time>
      </trkpt>
      <trkpt lat="44.33983" lon="5.76066">
        <ele>598</ele>
        <time>2019-03-08T13:24:21Z</time>
      </trkpt>
      <trkpt lat="44.3398" lon="5.7606">
        <ele>598</ele>
        <time>2019-03-08T13:24:22Z</time>
      </trkpt>
      <trkpt lat="44.33977" lon="5.76054">
        <ele>599</ele>
        <time>2019-03-08T13:24:23Z</time>
      </trkpt>
      <trkpt lat="44.33974" lon="5.76048">
        <ele>599</ele>
        <time>2019-03-08T13:24:24Z</time>
      </trkpt>
      <trkpt lat="44.33971" lon="5.76042">
        <ele>599</ele>
        <time>2019-03-08T13:24:25Z</time>
      </trkpt>
      <trkpt lat="44.33968" lon="5.76036">
        <ele>599</ele>
        <time>2019-03-08T13:24:26Z</time>
      </trkpt>
      <trkpt lat="44.33966" lon="5.7603">
        <ele>599</ele>
        <time>2019-03-08T13:24:27Z</time>
      </trkpt>
      <trkpt lat="44.33963" lon="5.76025">
        <ele>599</ele>
        <time>2019-03-08T13:24:28Z</time>
      </trkpt>
      <trkpt lat="44.3396" lon="5.76019">
        <ele>599</ele>
        <time>2019-03-08T13:24:29Z</time>
      </trkpt>
      <trkpt lat="44.33957" lon="5.76013">
        <ele>599</ele>
        <time>2019-03-08T13:24:30Z</time>
      </trkpt>
      <trkpt lat="44.33954" lon="5.76008">
        <ele>599</ele>
        <time>2019-03-08T13:24:31Z</time>
      </trkpt>
      <trkpt lat="44.33951" lon="5.76002">
        <ele>599</ele>
        <time>2019-03-08T13:24:32Z</time>
      </trkpt>
      <trkpt lat="44.33948" lon="5.75996">
        <ele>599</ele>
        <time>2019-03-08T13:24:33Z</time>
      </trkpt>
      <trkpt lat="44.33946" lon="5.7599">
        <ele>599</ele>
        <time>2019-03-08T13:24:34Z</time>
      </trkpt>
      <trkpt lat="44.33943" lon="5.75985">
        <ele>600</ele>
        <time>2019-03-08T13:24:35Z</time>
      </trkpt>
      <trkpt lat="44.3394" lon="5.75979">
        <ele>600</ele>
        <time>2019-03-08T13:24:36Z</time>
      </trkpt>
      <trkpt lat="44.33937" lon="5.75974">
        <ele>600</ele>
        <time>2019-03-08T13:24:37Z</time>
      </trkpt>
      <trkpt lat="44.33935" lon="5.75968">
        <ele>600</ele>
        <time>2019-03-08T13:24:38Z</time>
      </trkpt>
      <trkpt lat="44.33932" lon="5.75962">
        <ele>600</ele>
        <time>2019-03-08T13:24:39Z</time>
      </trkpt>
      <trkpt lat="44.33929" lon="5.75957">
        <ele>600</ele>
        <time>2019-03-08T13:24:40Z</time>
      </trkpt>
      <trkpt lat="44.33927" lon="5.75952">
        <ele>600</ele>
        <time>2019-03-08T13:24:41Z</time>
      </trkpt>
      <trkpt lat="44.33924" lon="5.75947">
        <ele>600</ele>
        <time>2019-03-08T13:24:42Z</time>
      </trkpt>
      <trkpt lat="44.33922" lon="5.75941">
        <ele>600</ele>
        <time>2019-03-08T13:24:43Z</time>
      </trkpt>
      <trkpt lat="44.33919" lon="5.75936">
        <ele>600</ele>
        <time>2019-03-08T13:24:44Z</time>
      </trkpt>
      <trkpt lat="44.33917" lon="5.75931">
        <ele>600</ele>
        <time>2019-03-08T13:24:45Z</time>
      </trkpt>
      <trkpt lat="44.33914" lon="5.75925">
        <ele>601</ele>
        <time>2019-03-08T13:24:46Z</time>
      </trkpt>
      <trkpt lat="44.33911" lon="5.7592">
        <ele>601</ele>
        <time>2019-03-08T13:24:48Z</time>
      </trkpt>
      <trkpt lat="44.33909" lon="5.75914">
        <ele>601</ele>
        <time>2019-03-08T13:24:48Z</time>
      </trkpt>
      <trkpt lat="44.33906" lon="5.75909">
        <ele>601</ele>
        <time>2019-03-08T13:24:49Z</time>
      </trkpt>
      <trkpt lat="44.33903" lon="5.75904">
        <ele>601</ele>
        <time>2019-03-08T13:24:50Z</time>
      </trkpt>
      <trkpt lat="44.33901" lon="5.75898">
        <ele>601</ele>
        <time>2019-03-08T13:24:51Z</time>
      </trkpt>
      <trkpt lat="44.33898" lon="5.75893">
        <ele>601</ele>
        <time>2019-03-08T13:24:52Z</time>
      </trkpt>
      <trkpt lat="44.33896" lon="5.75887">
        <ele>601</ele>
        <time>2019-03-08T13:24:53Z</time>
      </trkpt>
      <trkpt lat="44.33893" lon="5.75882">
        <ele>601</ele>
        <time>2019-03-08T13:24:54Z</time>
      </trkpt>
      <trkpt lat="44.33891" lon="5.75877">
        <ele>602</ele>
        <time>2019-03-08T13:24:55Z</time>
      </trkpt>
      <trkpt lat="44.33888" lon="5.75872">
        <ele>602</ele>
        <time>2019-03-08T13:24:56Z</time>
      </trkpt>
      <trkpt lat="44.33886" lon="5.75867">
        <ele>602</ele>
        <time>2019-03-08T13:24:57Z</time>
      </trkpt>
      <trkpt lat="44.33883" lon="5.75862">
        <ele>602</ele>
        <time>2019-03-08T13:24:58Z</time>
      </trkpt>
      <trkpt lat="44.3388" lon="5.75856">
        <ele>602</ele>
        <time>2019-03-08T13:24:59Z</time>
      </trkpt>
      <trkpt lat="44.33877" lon="5.75852">
        <ele>603</ele>
        <time>2019-03-08T13:25:00Z</time>
      </trkpt>
      <trkpt lat="44.33875" lon="5.75847">
        <ele>603</ele>
        <time>2019-03-08T13:25:01Z</time>
      </trkpt>
      <trkpt lat="44.33872" lon="5.75842">
        <ele>603</ele>
        <time>2019-03-08T13:25:02Z</time>
      </trkpt>
      <trkpt lat="44.33869" lon="5.75837">
        <ele>603</ele>
        <time>2019-03-08T13:25:03Z</time>
      </trkpt>
      <trkpt lat="44.33866" lon="5.75832">
        <ele>603</ele>
        <time>2019-03-08T13:25:04Z</time>
      </trkpt>
      <trkpt lat="44.33863" lon="5.75827">
        <ele>603</ele>
        <time>2019-03-08T13:25:05Z</time>
      </trkpt>
      <trkpt lat="44.3386" lon="5.75822">
        <ele>604</ele>
        <time>2019-03-08T13:25:06Z</time>
      </trkpt>
      <trkpt lat="44.33857" lon="5.75818">
        <ele>604</ele>
        <time>2019-03-08T13:25:07Z</time>
      </trkpt>
      <trkpt lat="44.33854" lon="5.75813">
        <ele>604</ele>
        <time>2019-03-08T13:25:08Z</time>
      </trkpt>
      <trkpt lat="44.33851" lon="5.75808">
        <ele>604</ele>
        <time>2019-03-08T13:25:09Z</time>
      </trkpt>
      <trkpt lat="44.33847" lon="5.75804">
        <ele>604</ele>
        <time>2019-03-08T13:25:10Z</time>
      </trkpt>
      <trkpt lat="44.33844" lon="5.75799">
        <ele>604</ele>
        <time>2019-03-08T13:25:11Z</time>
      </trkpt>
      <trkpt lat="44.33841" lon="5.75794">
        <ele>604</ele>
        <time>2019-03-08T13:25:12Z</time>
      </trkpt>
      <trkpt lat="44.33837" lon="5.7579">
        <ele>604</ele>
        <time>2019-03-08T13:25:13Z</time>
      </trkpt>
      <trkpt lat="44.33833" lon="5.75785">
        <ele>604</ele>
        <time>2019-03-08T13:25:14Z</time>
      </trkpt>
      <trkpt lat="44.33829" lon="5.75781">
        <ele>604</ele>
        <time>2019-03-08T13:25:15Z</time>
      </trkpt>
      <trkpt lat="44.33825" lon="5.75776">
        <ele>605</ele>
        <time>2019-03-08T13:25:16Z</time>
      </trkpt>
      <trkpt lat="44.33821" lon="5.75772">
        <ele>605</ele>
        <time>2019-03-08T13:25:17Z</time>
      </trkpt>
      <trkpt lat="44.33817" lon="5.75767">
        <ele>605</ele>
        <time>2019-03-08T13:25:18Z</time>
      </trkpt>
      <trkpt lat="44.33813" lon="5.75763">
        <ele>605</ele>
        <time>2019-03-08T13:25:19Z</time>
      </trkpt>
      <trkpt lat="44.33809" lon="5.75758">
        <ele>605</ele>
        <time>2019-03-08T13:25:20Z</time>
      </trkpt>
      <trkpt lat="44.33805" lon="5.75754">
        <ele>605</ele>
        <time>2019-03-08T13:25:21Z</time>
      </trkpt>
      <trkpt lat="44.33801" lon="5.75749">
        <ele>605</ele>
        <time>2019-03-08T13:25:22Z</time>
      </trkpt>
      <trkpt lat="44.33796" lon="5.75745">
        <ele>605</ele>
        <time>2019-03-08T13:25:23Z</time>
      </trkpt>
      <trkpt lat="44.33792" lon="5.7574">
        <ele>605</ele>
        <time>2019-03-08T13:25:24Z</time>
      </trkpt>
      <trkpt lat="44.33788" lon="5.75736">
        <ele>605</ele>
        <time>2019-03-08T13:25:25Z</time>
      </trkpt>
      <trkpt lat="44.33783" lon="5.75731">
        <ele>605</ele>
        <time>2019-03-08T13:25:26Z</time>
      </trkpt>
      <trkpt lat="44.33779" lon="5.75727">
        <ele>605</ele>
        <time>2019-03-08T13:25:27Z</time>
      </trkpt>
      <trkpt lat="44.33775" lon="5.75723">
        <ele>605</ele>
        <time>2019-03-08T13:25:28Z</time>
      </trkpt>
      <trkpt lat="44.33771" lon="5.75718">
        <ele>605</ele>
        <time>2019-03-08T13:25:29Z</time>
      </trkpt>
      <trkpt lat="44.33767" lon="5.75713">
        <ele>605</ele>
        <time>2019-03-08T13:25:30Z</time>
      </trkpt>
      <trkpt lat="44.33762" lon="5.75709">
        <ele>605</ele>
        <time>2019-03-08T13:25:31Z</time>
      </trkpt>
      <trkpt lat="44.33758" lon="5.75704">
        <ele>605</ele>
        <time>2019-03-08T13:25:32Z</time>
      </trkpt>
      <trkpt lat="44.33754" lon="5.757">
        <ele>605</ele>
        <time>2019-03-08T13:25:33Z</time>
      </trkpt>
      <trkpt lat="44.33749" lon="5.75695">
        <ele>605</ele>
        <time>2019-03-08T13:25:34Z</time>
      </trkpt>
      <trkpt lat="44.33745" lon="5.7569">
        <ele>605</ele>
        <time>2019-03-08T13:25:35Z</time>
      </trkpt>
      <trkpt lat="44.33741" lon="5.75686">
        <ele>605</ele>
        <time>2019-03-08T13:25:36Z</time>
      </trkpt>
      <trkpt lat="44.33736" lon="5.75681">
        <ele>605</ele>
        <time>2019-03-08T13:25:37Z</time>
      </trkpt>
      <trkpt lat="44.33732" lon="5.75676">
        <ele>605</ele>
        <time>2019-03-08T13:25:38Z</time>
      </trkpt>
      <trkpt lat="44.33728" lon="5.7567">
        <ele>605</ele>
        <time>2019-03-08T13:25:39Z</time>
      </trkpt>
      <trkpt lat="44.33724" lon="5.75665">
        <ele>605</ele>
        <time>2019-03-08T13:25:40Z</time>
      </trkpt>
      <trkpt lat="44.3372" lon="5.7566">
        <ele>605</ele>
        <time>2019-03-08T13:25:41Z</time>
      </trkpt>
      <trkpt lat="44.33716" lon="5.75654">
        <ele>605</ele>
        <time>2019-03-08T13:25:42Z</time>
      </trkpt>
      <trkpt lat="44.33712" lon="5.75647">
        <ele>605</ele>
        <time>2019-03-08T13:25:43Z</time>
      </trkpt>
      <trkpt lat="44.33709" lon="5.75641">
        <ele>605</ele>
        <time>2019-03-08T13:25:44Z</time>
      </trkpt>
      <trkpt lat="44.33706" lon="5.75635">
        <ele>605</ele>
        <time>2019-03-08T13:25:45Z</time>
      </trkpt>
      <trkpt lat="44.33703" lon="5.75628">
        <ele>605</ele>
        <time>2019-03-08T13:25:46Z</time>
      </trkpt>
      <trkpt lat="44.337" lon="5.75621">
        <ele>605</ele>
        <time>2019-03-08T13:25:48Z</time>
      </trkpt>
      <trkpt lat="44.33697" lon="5.75615">
        <ele>605</ele>
        <time>2019-03-08T13:25:48Z</time>
      </trkpt>
      <trkpt lat="44.33694" lon="5.75607">
        <ele>605</ele>
        <time>2019-03-08T13:25:49Z</time>
      </trkpt>
      <trkpt lat="44.33691" lon="5.756">
        <ele>605</ele>
        <time>2019-03-08T13:25:50Z</time>
      </trkpt>
      <trkpt lat="44.33689" lon="5.75593">
        <ele>605</ele>
        <time>2019-03-08T13:25:51Z</time>
      </trkpt>
      <trkpt lat="44.33686" lon="5.75586">
        <ele>605</ele>
        <time>2019-03-08T13:25:52Z</time>
      </trkpt>
      <trkpt lat="44.33683" lon="5.75579">
        <ele>605</ele>
        <time>2019-03-08T13:25:53Z</time>
      </trkpt>
      <trkpt lat="44.3368" lon="5.75572">
        <ele>605</ele>
        <time>2019-03-08T13:25:54Z</time>
      </trkpt>
      <trkpt lat="44.33678" lon="5.75565">
        <ele>605</ele>
        <time>2019-03-08T13:25:55Z</time>
      </trkpt>
      <trkpt lat="44.33675" lon="5.75558">
        <ele>605</ele>
        <time>2019-03-08T13:25:56Z</time>
      </trkpt>
      <trkpt lat="44.33672" lon="5.75551">
        <ele>605</ele>
        <time>2019-03-08T13:25:57Z</time>
      </trkpt>
      <trkpt lat="44.33669" lon="5.75544">
        <ele>605</ele>
        <time>2019-03-08T13:25:58Z</time>
      </trkpt>
      <trkpt lat="44.33667" lon="5.75537">
        <ele>605</ele>
        <time>2019-03-08T13:25:59Z</time>
      </trkpt>
      <trkpt lat="44.33664" lon="5.7553">
        <ele>605</ele>
        <time>2019-03-08T13:26:00Z</time>
      </trkpt>
      <trkpt lat="44.33661" lon="5.75523">
        <ele>605</ele>
        <time>2019-03-08T13:26:01Z</time>
      </trkpt>
      <trkpt lat="44.33658" lon="5.75517">
        <ele>605</ele>
        <time>2019-03-08T13:26:02Z</time>
      </trkpt>
      <trkpt lat="44.33655" lon="5.75511">
        <ele>606</ele>
        <time>2019-03-08T13:26:03Z</time>
      </trkpt>
      <trkpt lat="44.33652" lon="5.75504">
        <ele>606</ele>
        <time>2019-03-08T13:26:04Z</time>
      </trkpt>
      <trkpt lat="44.33649" lon="5.75499">
        <ele>606</ele>
        <time>2019-03-08T13:26:05Z</time>
      </trkpt>
      <trkpt lat="44.33645" lon="5.75493">
        <ele>606</ele>
        <time>2019-03-08T13:26:06Z</time>
      </trkpt>
      <trkpt lat="44.33641" lon="5.75489">
        <ele>606</ele>
        <time>2019-03-08T13:26:07Z</time>
      </trkpt>
      <trkpt lat="44.33636" lon="5.75485">
        <ele>606</ele>
        <time>2019-03-08T13:26:08Z</time>
      </trkpt>
      <trkpt lat="44.33632" lon="5.75481">
        <ele>606</ele>
        <time>2019-03-08T13:26:09Z</time>
      </trkpt>
      <trkpt lat="44.33627" lon="5.75477">
        <ele>606</ele>
        <time>2019-03-08T13:26:10Z</time>
      </trkpt>
      <trkpt lat="44.33622" lon="5.75473">
        <ele>606</ele>
        <time>2019-03-08T13:26:11Z</time>
      </trkpt>
      <trkpt lat="44.33617" lon="5.7547">
        <ele>606</ele>
        <time>2019-03-08T13:26:12Z</time>
      </trkpt>
      <trkpt lat="44.33612" lon="5.75466">
        <ele>606</ele>
        <time>2019-03-08T13:26:13Z</time>
      </trkpt>
      <trkpt lat="44.33607" lon="5.75462">
        <ele>606</ele>
        <time>2019-03-08T13:26:14Z</time>
      </trkpt>
      <trkpt lat="44.33602" lon="5.75459">
        <ele>607</ele>
        <time>2019-03-08T13:26:15Z</time>
      </trkpt>
      <trkpt lat="44.33597" lon="5.75455">
        <ele>607</ele>
        <time>2019-03-08T13:26:16Z</time>
      </trkpt>
      <trkpt lat="44.33592" lon="5.75451">
        <ele>607</ele>
        <time>2019-03-08T13:26:17Z</time>
      </trkpt>
      <trkpt lat="44.33588" lon="5.75446">
        <ele>607</ele>
        <time>2019-03-08T13:26:18Z</time>
      </trkpt>
      <trkpt lat="44.33583" lon="5.75442">
        <ele>607</ele>
        <time>2019-03-08T13:26:19Z</time>
      </trkpt>
      <trkpt lat="44.33579" lon="5.75437">
        <ele>607</ele>
        <time>2019-03-08T13:26:20Z</time>
      </trkpt>
      <trkpt lat="44.33575" lon="5.75432">
        <ele>607</ele>
        <time>2019-03-08T13:26:21Z</time>
      </trkpt>
      <trkpt lat="44.33571" lon="5.75428">
        <ele>608</ele>
        <time>2019-03-08T13:26:22Z</time>
      </trkpt>
      <trkpt lat="44.33567" lon="5.75424">
        <ele>608</ele>
        <time>2019-03-08T13:26:23Z</time>
      </trkpt>
      <trkpt lat="44.33564" lon="5.7542">
        <ele>608</ele>
        <time>2019-03-08T13:26:24Z</time>
      </trkpt>
      <trkpt lat="44.3356" lon="5.75416">
        <ele>608</ele>
        <time>2019-03-08T13:26:25Z</time>
      </trkpt>
      <trkpt lat="44.33556" lon="5.75412">
        <ele>608</ele>
        <time>2019-03-08T13:26:26Z</time>
      </trkpt>
      <trkpt lat="44.33553" lon="5.75407">
        <ele>608</ele>
        <time>2019-03-08T13:26:27Z</time>
      </trkpt>
      <trkpt lat="44.33549" lon="5.75403">
        <ele>608</ele>
        <time>2019-03-08T13:26:28Z</time>
      </trkpt>
      <trkpt lat="44.33546" lon="5.75399">
        <ele>609</ele>
        <time>2019-03-08T13:26:29Z</time>
      </trkpt>
      <trkpt lat="44.33542" lon="5.75395">
        <ele>609</ele>
        <time>2019-03-08T13:26:30Z</time>
      </trkpt>
      <trkpt lat="44.33539" lon="5.75391">
        <ele>609</ele>
        <time>2019-03-08T13:26:31Z</time>
      </trkpt>
      <trkpt lat="44.33535" lon="5.75387">
        <ele>609</ele>
        <time>2019-03-08T13:26:32Z</time>
      </trkpt>
      <trkpt lat="44.33532" lon="5.75383">
        <ele>610</ele>
        <time>2019-03-08T13:26:33Z</time>
      </trkpt>
      <trkpt lat="44.33529" lon="5.75379">
        <ele>610</ele>
        <time>2019-03-08T13:26:34Z</time>
      </trkpt>
      <trkpt lat="44.33525" lon="5.75375">
        <ele>610</ele>
        <time>2019-03-08T13:26:35Z</time>
      </trkpt>
      <trkpt lat="44.33522" lon="5.75371">
        <ele>610</ele>
        <time>2019-03-08T13:26:36Z</time>
      </trkpt>
      <trkpt lat="44.33519" lon="5.75367">
        <ele>611</ele>
        <time>2019-03-08T13:26:37Z</time>
      </trkpt>
      <trkpt lat="44.33516" lon="5.75363">
        <ele>611</ele>
        <time>2019-03-08T13:26:38Z</time>
      </trkpt>
      <trkpt lat="44.33512" lon="5.75359">
        <ele>611</ele>
        <time>2019-03-08T13:26:39Z</time>
      </trkpt>
      <trkpt lat="44.33509" lon="5.75355">
        <ele>611</ele>
        <time>2019-03-08T13:26:40Z</time>
      </trkpt>
      <trkpt lat="44.33505" lon="5.75351">
        <ele>611</ele>
        <time>2019-03-08T13:26:41Z</time>
      </trkpt>
      <trkpt lat="44.33502" lon="5.75347">
        <ele>612</ele>
        <time>2019-03-08T13:26:42Z</time>
      </trkpt>
      <trkpt lat="44.33498" lon="5.75342">
        <ele>612</ele>
        <time>2019-03-08T13:26:43Z</time>
      </trkpt>
      <trkpt lat="44.33495" lon="5.75339">
        <ele>612</ele>
        <time>2019-03-08T13:26:44Z</time>
      </trkpt>
      <trkpt lat="44.33491" lon="5.75335">
        <ele>612</ele>
        <time>2019-03-08T13:26:45Z</time>
      </trkpt>
      <trkpt lat="44.33488" lon="5.75331">
        <ele>612</ele>
        <time>2019-03-08T13:26:46Z</time>
      </trkpt>
      <trkpt lat="44.33485" lon="5.75327">
        <ele>612</ele>
        <time>2019-03-08T13:26:48Z</time>
      </trkpt>
      <trkpt lat="44.33481" lon="5.75323">
        <ele>613</ele>
        <time>2019-03-08T13:26:48Z</time>
      </trkpt>
      <trkpt lat="44.33478" lon="5.7532">
        <ele>613</ele>
        <time>2019-03-08T13:26:49Z</time>
      </trkpt>
      <trkpt lat="44.33475" lon="5.75316">
        <ele>613</ele>
        <time>2019-03-08T13:26:50Z</time>
      </trkpt>
      <trkpt lat="44.33472" lon="5.75313">
        <ele>613</ele>
        <time>2019-03-08T13:26:51Z</time>
      </trkpt>
      <trkpt lat="44.33469" lon="5.75309">
        <ele>613</ele>
        <time>2019-03-08T13:26:52Z</time>
      </trkpt>
      <trkpt lat="44.33465" lon="5.75306">
        <ele>614</ele>
        <time>2019-03-08T13:26:53Z</time>
      </trkpt>
      <trkpt lat="44.33462" lon="5.75302">
        <ele>614</ele>
        <time>2019-03-08T13:26:54Z</time>
      </trkpt>
      <trkpt lat="44.33459" lon="5.75298">
        <ele>614</ele>
        <time>2019-03-08T13:26:55Z</time>
      </trkpt>
      <trkpt lat="44.33455" lon="5.75295">
        <ele>614</ele>
        <time>2019-03-08T13:26:56Z</time>
      </trkpt>
      <trkpt lat="44.33452" lon="5.75291">
        <ele>614</ele>
        <time>2019-03-08T13:26:57Z</time>
      </trkpt>
      <trkpt lat="44.33448" lon="5.75287">
        <ele>614</ele>
        <time>2019-03-08T13:26:58Z</time>
      </trkpt>
      <trkpt lat="44.33445" lon="5.75283">
        <ele>615</ele>
        <time>2019-03-08T13:26:59Z</time>
      </trkpt>
      <trkpt lat="44.33441" lon="5.7528">
        <ele>615</ele>
        <time>2019-03-08T13:27:00Z</time>
      </trkpt>
      <trkpt lat="44.33437" lon="5.75276">
        <ele>615</ele>
        <time>2019-03-08T13:27:01Z</time>
      </trkpt>
      <trkpt lat="44.33434" lon="5.75273">
        <ele>615</ele>
        <time>2019-03-08T13:27:02Z</time>
      </trkpt>
      <trkpt lat="44.3343" lon="5.75269">
        <ele>615</ele>
        <time>2019-03-08T13:27:03Z</time>
      </trkpt>
      <trkpt lat="44.33426" lon="5.75265">
        <ele>615</ele>
        <time>2019-03-08T13:27:04Z</time>
      </trkpt>
      <trkpt lat="44.33422" lon="5.75261">
        <ele>615</ele>
        <time>2019-03-08T13:27:05Z</time>
      </trkpt>
      <trkpt lat="44.33418" lon="5.75257">
        <ele>615</ele>
        <time>2019-03-08T13:27:06Z</time>
      </trkpt>
      <trkpt lat="44.33414" lon="5.75253">
        <ele>615</ele>
        <time>2019-03-08T13:27:07Z</time>
      </trkpt>
      <trkpt lat="44.3341" lon="5.75249">
        <ele>615</ele>
        <time>2019-03-08T13:27:08Z</time>
      </trkpt>
      <trkpt lat="44.33406" lon="5.75246">
        <ele>615</ele>
        <time>2019-03-08T13:27:09Z</time>
      </trkpt>
      <trkpt lat="44.33401" lon="5.75242">
        <ele>615</ele>
        <time>2019-03-08T13:27:10Z</time>
      </trkpt>
      <trkpt lat="44.33397" lon="5.75239">
        <ele>615</ele>
        <time>2019-03-08T13:27:11Z</time>
      </trkpt>
      <trkpt lat="44.33393" lon="5.75235">
        <ele>615</ele>
        <time>2019-03-08T13:27:12Z</time>
      </trkpt>
      <trkpt lat="44.33389" lon="5.75232">
        <ele>616</ele>
        <time>2019-03-08T13:27:13Z</time>
      </trkpt>
      <trkpt lat="44.33384" lon="5.75228">
        <ele>616</ele>
        <time>2019-03-08T13:27:14Z</time>
      </trkpt>
      <trkpt lat="44.3338" lon="5.75225">
        <ele>616</ele>
        <time>2019-03-08T13:27:15Z</time>
      </trkpt>
      <trkpt lat="44.33375" lon="5.75221">
        <ele>616</ele>
        <time>2019-03-08T13:27:16Z</time>
      </trkpt>
      <trkpt lat="44.33371" lon="5.75218">
        <ele>616</ele>
        <time>2019-03-08T13:27:17Z</time>
      </trkpt>
      <trkpt lat="44.33366" lon="5.75215">
        <ele>616</ele>
        <time>2019-03-08T13:27:18Z</time>
      </trkpt>
      <trkpt lat="44.33361" lon="5.75212">
        <ele>616</ele>
        <time>2019-03-08T13:27:19Z</time>
      </trkpt>
      <trkpt lat="44.33356" lon="5.75208">
        <ele>616</ele>
        <time>2019-03-08T13:27:20Z</time>
      </trkpt>
      <trkpt lat="44.33351" lon="5.75205">
        <ele>616</ele>
        <time>2019-03-08T13:27:21Z</time>
      </trkpt>
      <trkpt lat="44.33346" lon="5.75201">
        <ele>616</ele>
        <time>2019-03-08T13:27:22Z</time>
      </trkpt>
      <trkpt lat="44.33341" lon="5.75197">
        <ele>616</ele>
        <time>2019-03-08T13:27:23Z</time>
      </trkpt>
      <trkpt lat="44.33336" lon="5.75193">
        <ele>616</ele>
        <time>2019-03-08T13:27:24Z</time>
      </trkpt>
      <trkpt lat="44.33331" lon="5.75189">
        <ele>616</ele>
        <time>2019-03-08T13:27:25Z</time>
      </trkpt>
      <trkpt lat="44.33325" lon="5.75186">
        <ele>616</ele>
        <time>2019-03-08T13:27:26Z</time>
      </trkpt>
      <trkpt lat="44.33319" lon="5.75182">
        <ele>616</ele>
        <time>2019-03-08T13:27:27Z</time>
      </trkpt>
      <trkpt lat="44.33313" lon="5.75178">
        <ele>616</ele>
        <time>2019-03-08T13:27:28Z</time>
      </trkpt>
      <trkpt lat="44.33308" lon="5.75174">
        <ele>616</ele>
        <time>2019-03-08T13:27:29Z</time>
      </trkpt>
      <trkpt lat="44.33302" lon="5.75169">
        <ele>616</ele>
        <time>2019-03-08T13:27:30Z</time>
      </trkpt>
      <trkpt lat="44.33296" lon="5.75165">
        <ele>616</ele>
        <time>2019-03-08T13:27:31Z</time>
      </trkpt>
      <trkpt lat="44.33289" lon="5.75161">
        <ele>616</ele>
        <time>2019-03-08T13:27:32Z</time>
      </trkpt>
      <trkpt lat="44.33284" lon="5.75156">
        <ele>616</ele>
        <time>2019-03-08T13:27:33Z</time>
      </trkpt>
      <trkpt lat="44.33278" lon="5.75152">
        <ele>616</ele>
        <time>2019-03-08T13:27:34Z</time>
      </trkpt>
      <trkpt lat="44.33272" lon="5.75148">
        <ele>616</ele>
        <time>2019-03-08T13:27:35Z</time>
      </trkpt>
      <trkpt lat="44.33266" lon="5.75144">
        <ele>616</ele>
        <time>2019-03-08T13:27:36Z</time>
      </trkpt>
      <trkpt lat="44.3326" lon="5.7514">
        <ele>616</ele>
        <time>2019-03-08T13:27:37Z</time>
      </trkpt>
      <trkpt lat="44.33255" lon="5.75136">
        <ele>616</ele>
        <time>2019-03-08T13:27:38Z</time>
      </trkpt>
      <trkpt lat="44.33249" lon="5.75132">
        <ele>616</ele>
        <time>2019-03-08T13:27:39Z</time>
      </trkpt>
      <trkpt lat="44.33244" lon="5.75128">
        <ele>616</ele>
        <time>2019-03-08T13:27:40Z</time>
      </trkpt>
      <trkpt lat="44.33238" lon="5.75124">
        <ele>616</ele>
        <time>2019-03-08T13:27:41Z</time>
      </trkpt>
      <trkpt lat="44.33232" lon="5.7512">
        <ele>616</ele>
        <time>2019-03-08T13:27:42Z</time>
      </trkpt>
      <trkpt lat="44.33226" lon="5.75115">
        <ele>616</ele>
        <time>2019-03-08T13:27:43Z</time>
      </trkpt>
      <trkpt lat="44.3322" lon="5.75111">
        <ele>616</ele>
        <time>2019-03-08T13:27:44Z</time>
      </trkpt>
      <trkpt lat="44.33215" lon="5.75108">
        <ele>616</ele>
        <time>2019-03-08T13:27:45Z</time>
      </trkpt>
      <trkpt lat="44.3321" lon="5.75104">
        <ele>616</ele>
        <time>2019-03-08T13:27:46Z</time>
      </trkpt>
      <trkpt lat="44.33205" lon="5.75101">
        <ele>616</ele>
        <time>2019-03-08T13:27:47Z</time>
      </trkpt>
      <trkpt lat="44.332" lon="5.75098">
        <ele>616</ele>
        <time>2019-03-08T13:27:48Z</time>
      </trkpt>
      <trkpt lat="44.33195" lon="5.75095">
        <ele>616</ele>
        <time>2019-03-08T13:27:49Z</time>
      </trkpt>
      <trkpt lat="44.33191" lon="5.75092">
        <ele>616</ele>
        <time>2019-03-08T13:27:50Z</time>
      </trkpt>
      <trkpt lat="44.33186" lon="5.75089">
        <ele>616</ele>
        <time>2019-03-08T13:27:51Z</time>
      </trkpt>
      <trkpt lat="44.33182" lon="5.75085">
        <ele>616</ele>
        <time>2019-03-08T13:27:52Z</time>
      </trkpt>
      <trkpt lat="44.33178" lon="5.75082">
        <ele>616</ele>
        <time>2019-03-08T13:27:53Z</time>
      </trkpt>
      <trkpt lat="44.33173" lon="5.75079">
        <ele>616</ele>
        <time>2019-03-08T13:27:54Z</time>
      </trkpt>
      <trkpt lat="44.33169" lon="5.75076">
        <ele>617</ele>
        <time>2019-03-08T13:27:55Z</time>
      </trkpt>
      <trkpt lat="44.33165" lon="5.75073">
        <ele>617</ele>
        <time>2019-03-08T13:27:56Z</time>
      </trkpt>
      <trkpt lat="44.33161" lon="5.7507">
        <ele>617</ele>
        <time>2019-03-08T13:27:57Z</time>
      </trkpt>
      <trkpt lat="44.33157" lon="5.75067">
        <ele>617</ele>
        <time>2019-03-08T13:27:58Z</time>
      </trkpt>
      <trkpt lat="44.33153" lon="5.75064">
        <ele>618</ele>
        <time>2019-03-08T13:27:59Z</time>
      </trkpt>
      <trkpt lat="44.33149" lon="5.7506">
        <ele>618</ele>
        <time>2019-03-08T13:28:00Z</time>
      </trkpt>
      <trkpt lat="44.33146" lon="5.75057">
        <ele>618</ele>
        <time>2019-03-08T13:28:01Z</time>
      </trkpt>
      <trkpt lat="44.33142" lon="5.75053">
        <ele>618</ele>
        <time>2019-03-08T13:28:02Z</time>
      </trkpt>
      <trkpt lat="44.33138" lon="5.75049">
        <ele>618</ele>
        <time>2019-03-08T13:28:03Z</time>
      </trkpt>
      <trkpt lat="44.33135" lon="5.75044">
        <ele>618</ele>
        <time>2019-03-08T13:28:04Z</time>
      </trkpt>
      <trkpt lat="44.33131" lon="5.7504">
        <ele>618</ele>
        <time>2019-03-08T13:28:05Z</time>
      </trkpt>
      <trkpt lat="44.33128" lon="5.75035">
        <ele>619</ele>
        <time>2019-03-08T13:28:06Z</time>
      </trkpt>
      <trkpt lat="44.33125" lon="5.7503">
        <ele>619</ele>
        <time>2019-03-08T13:28:07Z</time>
      </trkpt>
      <trkpt lat="44.33122" lon="5.75025">
        <ele>619</ele>
        <time>2019-03-08T13:28:08Z</time>
      </trkpt>
      <trkpt lat="44.3312" lon="5.7502">
        <ele>619</ele>
        <time>2019-03-08T13:28:09Z</time>
      </trkpt>
      <trkpt lat="44.33117" lon="5.75014">
        <ele>619</ele>
        <time>2019-03-08T13:28:10Z</time>
      </trkpt>
      <trkpt lat="44.33114" lon="5.75009">
        <ele>619</ele>
        <time>2019-03-08T13:28:11Z</time>
      </trkpt>
      <trkpt lat="44.33112" lon="5.75003">
        <ele>620</ele>
        <time>2019-03-08T13:28:12Z</time>
      </trkpt>
      <trkpt lat="44.33109" lon="5.74997">
        <ele>620</ele>
        <time>2019-03-08T13:28:13Z</time>
      </trkpt>
      <trkpt lat="44.33107" lon="5.74991">
        <ele>620</ele>
        <time>2019-03-08T13:28:14Z</time>
      </trkpt>
      <trkpt lat="44.33104" lon="5.74985">
        <ele>620</ele>
        <time>2019-03-08T13:28:15Z</time>
      </trkpt>
      <trkpt lat="44.33102" lon="5.74979">
        <ele>620</ele>
        <time>2019-03-08T13:28:16Z</time>
      </trkpt>
      <trkpt lat="44.33099" lon="5.74973">
        <ele>621</ele>
        <time>2019-03-08T13:28:17Z</time>
      </trkpt>
      <trkpt lat="44.33097" lon="5.74967">
        <ele>621</ele>
        <time>2019-03-08T13:28:18Z</time>
      </trkpt>
      <trkpt lat="44.33094" lon="5.74961">
        <ele>621</ele>
        <time>2019-03-08T13:28:19Z</time>
      </trkpt>
      <trkpt lat="44.33092" lon="5.74955">
        <ele>621</ele>
        <time>2019-03-08T13:28:20Z</time>
      </trkpt>
      <trkpt lat="44.33089" lon="5.74949">
        <ele>621</ele>
        <time>2019-03-08T13:28:21Z</time>
      </trkpt>
      <trkpt lat="44.33087" lon="5.74942">
        <ele>621</ele>
        <time>2019-03-08T13:28:22Z</time>
      </trkpt>
      <trkpt lat="44.33084" lon="5.74936">
        <ele>621</ele>
        <time>2019-03-08T13:28:23Z</time>
      </trkpt>
      <trkpt lat="44.33082" lon="5.7493">
        <ele>621</ele>
        <time>2019-03-08T13:28:24Z</time>
      </trkpt>
      <trkpt lat="44.33079" lon="5.74924">
        <ele>621</ele>
        <time>2019-03-08T13:28:25Z</time>
      </trkpt>
      <trkpt lat="44.33077" lon="5.74918">
        <ele>622</ele>
        <time>2019-03-08T13:28:26Z</time>
      </trkpt>
      <trkpt lat="44.33075" lon="5.74911">
        <ele>622</ele>
        <time>2019-03-08T13:28:27Z</time>
      </trkpt>
      <trkpt lat="44.33072" lon="5.74905">
        <ele>622</ele>
        <time>2019-03-08T13:28:28Z</time>
      </trkpt>
      <trkpt lat="44.3307" lon="5.74898">
        <ele>622</ele>
        <time>2019-03-08T13:28:29Z</time>
      </trkpt>
      <trkpt lat="44.33067" lon="5.74892">
        <ele>622</ele>
        <time>2019-03-08T13:28:30Z</time>
      </trkpt>
      <trkpt lat="44.33064" lon="5.74886">
        <ele>622</ele>
        <time>2019-03-08T13:28:31Z</time>
      </trkpt>
      <trkpt lat="44.33061" lon="5.7488">
        <ele>622</ele>
        <time>2019-03-08T13:28:32Z</time>
      </trkpt>
      <trkpt lat="44.33058" lon="5.74874">
        <ele>622</ele>
        <time>2019-03-08T13:28:33Z</time>
      </trkpt>
      <trkpt lat="44.33054" lon="5.74868">
        <ele>622</ele>
        <time>2019-03-08T13:28:34Z</time>
      </trkpt>
      <trkpt lat="44.33051" lon="5.74863">
        <ele>623</ele>
        <time>2019-03-08T13:28:35Z</time>
      </trkpt>
      <trkpt lat="44.33047" lon="5.74858">
        <ele>623</ele>
        <time>2019-03-08T13:28:36Z</time>
      </trkpt>
      <trkpt lat="44.33043" lon="5.74853">
        <ele>623</ele>
        <time>2019-03-08T13:28:37Z</time>
      </trkpt>
      <trkpt lat="44.33038" lon="5.74847">
        <ele>623</ele>
        <time>2019-03-08T13:28:38Z</time>
      </trkpt>
      <trkpt lat="44.33034" lon="5.74842">
        <ele>623</ele>
        <time>2019-03-08T13:28:39Z</time>
      </trkpt>
      <trkpt lat="44.3303" lon="5.74837">
        <ele>623</ele>
        <time>2019-03-08T13:28:40Z</time>
      </trkpt>
      <trkpt lat="44.33025" lon="5.74833">
        <ele>623</ele>
        <time>2019-03-08T13:28:41Z</time>
      </trkpt>
      <trkpt lat="44.3302" lon="5.74828">
        <ele>623</ele>
        <time>2019-03-08T13:28:42Z</time>
      </trkpt>
      <trkpt lat="44.33016" lon="5.74823">
        <ele>623</ele>
        <time>2019-03-08T13:28:43Z</time>
      </trkpt>
      <trkpt lat="44.33011" lon="5.74819">
        <ele>623</ele>
        <time>2019-03-08T13:28:44Z</time>
      </trkpt>
      <trkpt lat="44.33007" lon="5.74814">
        <ele>623</ele>
        <time>2019-03-08T13:28:45Z</time>
      </trkpt>
      <trkpt lat="44.33002" lon="5.74809">
        <ele>623</ele>
        <time>2019-03-08T13:28:46Z</time>
      </trkpt>
      <trkpt lat="44.32998" lon="5.74804">
        <ele>623</ele>
        <time>2019-03-08T13:28:48Z</time>
      </trkpt>
      <trkpt lat="44.32993" lon="5.74799">
        <ele>623</ele>
        <time>2019-03-08T13:28:48Z</time>
      </trkpt>
      <trkpt lat="44.32988" lon="5.74794">
        <ele>623</ele>
        <time>2019-03-08T13:28:49Z</time>
      </trkpt>
      <trkpt lat="44.32984" lon="5.74789">
        <ele>623</ele>
        <time>2019-03-08T13:28:50Z</time>
      </trkpt>
      <trkpt lat="44.32979" lon="5.74785">
        <ele>623</ele>
        <time>2019-03-08T13:28:51Z</time>
      </trkpt>
      <trkpt lat="44.32974" lon="5.7478">
        <ele>623</ele>
        <time>2019-03-08T13:28:52Z</time>
      </trkpt>
      <trkpt lat="44.3297" lon="5.74776">
        <ele>623</ele>
        <time>2019-03-08T13:28:53Z</time>
      </trkpt>
      <trkpt lat="44.32965" lon="5.74771">
        <ele>624</ele>
        <time>2019-03-08T13:28:54Z</time>
      </trkpt>
      <trkpt lat="44.32961" lon="5.74766">
        <ele>624</ele>
        <time>2019-03-08T13:28:55Z</time>
      </trkpt>
      <trkpt lat="44.32956" lon="5.74761">
        <ele>624</ele>
        <time>2019-03-08T13:28:56Z</time>
      </trkpt>
      <trkpt lat="44.32951" lon="5.74756">
        <ele>624</ele>
        <time>2019-03-08T13:28:57Z</time>
      </trkpt>
      <trkpt lat="44.32947" lon="5.74751">
        <ele>624</ele>
        <time>2019-03-08T13:28:58Z</time>
      </trkpt>
      <trkpt lat="44.32942" lon="5.74746">
        <ele>624</ele>
        <time>2019-03-08T13:28:59Z</time>
      </trkpt>
      <trkpt lat="44.32937" lon="5.74741">
        <ele>624</ele>
        <time>2019-03-08T13:29:00Z</time>
      </trkpt>
      <trkpt lat="44.32932" lon="5.74736">
        <ele>624</ele>
        <time>2019-03-08T13:29:01Z</time>
      </trkpt>
      <trkpt lat="44.32928" lon="5.74731">
        <ele>624</ele>
        <time>2019-03-08T13:29:02Z</time>
      </trkpt>
      <trkpt lat="44.32923" lon="5.74727">
        <ele>624</ele>
        <time>2019-03-08T13:29:03Z</time>
      </trkpt>
      <trkpt lat="44.32919" lon="5.74722">
        <ele>625</ele>
        <time>2019-03-08T13:29:04Z</time>
      </trkpt>
      <trkpt lat="44.32914" lon="5.74717">
        <ele>625</ele>
        <time>2019-03-08T13:29:05Z</time>
      </trkpt>
      <trkpt lat="44.32909" lon="5.74713">
        <ele>625</ele>
        <time>2019-03-08T13:29:06Z</time>
      </trkpt>
      <trkpt lat="44.32905" lon="5.74708">
        <ele>625</ele>
        <time>2019-03-08T13:29:07Z</time>
      </trkpt>
      <trkpt lat="44.32901" lon="5.74704">
        <ele>625</ele>
        <time>2019-03-08T13:29:08Z</time>
      </trkpt>
      <trkpt lat="44.32897" lon="5.74699">
        <ele>626</ele>
        <time>2019-03-08T13:29:09Z</time>
      </trkpt>
      <trkpt lat="44.32893" lon="5.74695">
        <ele>626</ele>
        <time>2019-03-08T13:29:10Z</time>
      </trkpt>
      <trkpt lat="44.32889" lon="5.74691">
        <ele>626</ele>
        <time>2019-03-08T13:29:11Z</time>
      </trkpt>
      <trkpt lat="44.32886" lon="5.74687">
        <ele>626</ele>
        <time>2019-03-08T13:29:12Z</time>
      </trkpt>
      <trkpt lat="44.32882" lon="5.74683">
        <ele>626</ele>
        <time>2019-03-08T13:29:13Z</time>
      </trkpt>
      <trkpt lat="44.32878" lon="5.74679">
        <ele>626</ele>
        <time>2019-03-08T13:29:14Z</time>
      </trkpt>
      <trkpt lat="44.32875" lon="5.74675">
        <ele>626</ele>
        <time>2019-03-08T13:29:15Z</time>
      </trkpt>
      <trkpt lat="44.32871" lon="5.74671">
        <ele>626</ele>
        <time>2019-03-08T13:29:16Z</time>
      </trkpt>
      <trkpt lat="44.32867" lon="5.74667">
        <ele>626</ele>
        <time>2019-03-08T13:29:17Z</time>
      </trkpt>
      <trkpt lat="44.32864" lon="5.74663">
        <ele>626</ele>
        <time>2019-03-08T13:29:18Z</time>
      </trkpt>
      <trkpt lat="44.3286" lon="5.74659">
        <ele>626</ele>
        <time>2019-03-08T13:29:19Z</time>
      </trkpt>
      <trkpt lat="44.32857" lon="5.74656">
        <ele>626</ele>
        <time>2019-03-08T13:29:20Z</time>
      </trkpt>
      <trkpt lat="44.32853" lon="5.74651">
        <ele>626</ele>
        <time>2019-03-08T13:29:21Z</time>
      </trkpt>
      <trkpt lat="44.32849" lon="5.74648">
        <ele>626</ele>
        <time>2019-03-08T13:29:22Z</time>
      </trkpt>
      <trkpt lat="44.32846" lon="5.74643">
        <ele>626</ele>
        <time>2019-03-08T13:29:23Z</time>
      </trkpt>
      <trkpt lat="44.32842" lon="5.74639">
        <ele>626</ele>
        <time>2019-03-08T13:29:24Z</time>
      </trkpt>
      <trkpt lat="44.32838" lon="5.74635">
        <ele>626</ele>
        <time>2019-03-08T13:29:25Z</time>
      </trkpt>
      <trkpt lat="44.32834" lon="5.74631">
        <ele>626</ele>
        <time>2019-03-08T13:29:26Z</time>
      </trkpt>
      <trkpt lat="44.3283" lon="5.74626">
        <ele>627</ele>
        <time>2019-03-08T13:29:27Z</time>
      </trkpt>
      <trkpt lat="44.32826" lon="5.74622">
        <ele>627</ele>
        <time>2019-03-08T13:29:28Z</time>
      </trkpt>
      <trkpt lat="44.32822" lon="5.74618">
        <ele>627</ele>
        <time>2019-03-08T13:29:29Z</time>
      </trkpt>
      <trkpt lat="44.32818" lon="5.74614">
        <ele>627</ele>
        <time>2019-03-08T13:29:30Z</time>
      </trkpt>
      <trkpt lat="44.32814" lon="5.7461">
        <ele>627</ele>
        <time>2019-03-08T13:29:31Z</time>
      </trkpt>
      <trkpt lat="44.3281" lon="5.74606">
        <ele>627</ele>
        <time>2019-03-08T13:29:32Z</time>
      </trkpt>
      <trkpt lat="44.32806" lon="5.74602">
        <ele>627</ele>
        <time>2019-03-08T13:29:33Z</time>
      </trkpt>
      <trkpt lat="44.32801" lon="5.74598">
        <ele>627</ele>
        <time>2019-03-08T13:29:34Z</time>
      </trkpt>
      <trkpt lat="44.32797" lon="5.74594">
        <ele>627</ele>
        <time>2019-03-08T13:29:35Z</time>
      </trkpt>
      <trkpt lat="44.32792" lon="5.7459">
        <ele>627</ele>
        <time>2019-03-08T13:29:36Z</time>
      </trkpt>
      <trkpt lat="44.32787" lon="5.74586">
        <ele>627</ele>
        <time>2019-03-08T13:29:37Z</time>
      </trkpt>
      <trkpt lat="44.32782" lon="5.74582">
        <ele>627</ele>
        <time>2019-03-08T13:29:38Z</time>
      </trkpt>
      <trkpt lat="44.32777" lon="5.74579">
        <ele>627</ele>
        <time>2019-03-08T13:29:39Z</time>
      </trkpt>
      <trkpt lat="44.32772" lon="5.74575">
        <ele>627</ele>
        <time>2019-03-08T13:29:40Z</time>
      </trkpt>
      <trkpt lat="44.32767" lon="5.74572">
        <ele>627</ele>
        <time>2019-03-08T13:29:41Z</time>
      </trkpt>
      <trkpt lat="44.32762" lon="5.74569">
        <ele>627</ele>
        <time>2019-03-08T13:29:42Z</time>
      </trkpt>
      <trkpt lat="44.32757" lon="5.74566">
        <ele>627</ele>
        <time>2019-03-08T13:29:43Z</time>
      </trkpt>
      <trkpt lat="44.32752" lon="5.74563">
        <ele>627</ele>
        <time>2019-03-08T13:29:44Z</time>
      </trkpt>
      <trkpt lat="44.32747" lon="5.7456">
        <ele>627</ele>
        <time>2019-03-08T13:29:45Z</time>
      </trkpt>
      <trkpt lat="44.32742" lon="5.74557">
        <ele>627</ele>
        <time>2019-03-08T13:29:46Z</time>
      </trkpt>
      <trkpt lat="44.32737" lon="5.74554">
        <ele>627</ele>
        <time>2019-03-08T13:29:48Z</time>
      </trkpt>
      <trkpt lat="44.32732" lon="5.74551">
        <ele>627</ele>
        <time>2019-03-08T13:29:48Z</time>
      </trkpt>
      <trkpt lat="44.32727" lon="5.74547">
        <ele>627</ele>
        <time>2019-03-08T13:29:49Z</time>
      </trkpt>
      <trkpt lat="44.32722" lon="5.74544">
        <ele>627</ele>
        <time>2019-03-08T13:29:50Z</time>
      </trkpt>
      <trkpt lat="44.32717" lon="5.74541">
        <ele>627</ele>
        <time>2019-03-08T13:29:51Z</time>
      </trkpt>
      <trkpt lat="44.32712" lon="5.74538">
        <ele>627</ele>
        <time>2019-03-08T13:29:52Z</time>
      </trkpt>
      <trkpt lat="44.32707" lon="5.74535">
        <ele>627</ele>
        <time>2019-03-08T13:29:53Z</time>
      </trkpt>
      <trkpt lat="44.32702" lon="5.74532">
        <ele>627</ele>
        <time>2019-03-08T13:29:54Z</time>
      </trkpt>
      <trkpt lat="44.32698" lon="5.74528">
        <ele>627</ele>
        <time>2019-03-08T13:29:55Z</time>
      </trkpt>
      <trkpt lat="44.32694" lon="5.74524">
        <ele>627</ele>
        <time>2019-03-08T13:29:56Z</time>
      </trkpt>
      <trkpt lat="44.3269" lon="5.7452">
        <ele>627</ele>
        <time>2019-03-08T13:29:57Z</time>
      </trkpt>
      <trkpt lat="44.32686" lon="5.74516">
        <ele>627</ele>
        <time>2019-03-08T13:29:58Z</time>
      </trkpt>
      <trkpt lat="44.32682" lon="5.74513">
        <ele>627</ele>
        <time>2019-03-08T13:29:59Z</time>
      </trkpt>
      <trkpt lat="44.32679" lon="5.74509">
        <ele>627</ele>
        <time>2019-03-08T13:30:00Z</time>
      </trkpt>
      <trkpt lat="44.32676" lon="5.74504">
        <ele>627</ele>
        <time>2019-03-08T13:30:01Z</time>
      </trkpt>
      <trkpt lat="44.32672" lon="5.745">
        <ele>627</ele>
        <time>2019-03-08T13:30:02Z</time>
      </trkpt>
      <trkpt lat="44.32669" lon="5.74495">
        <ele>627</ele>
        <time>2019-03-08T13:30:03Z</time>
      </trkpt>
      <trkpt lat="44.32666" lon="5.74491">
        <ele>627</ele>
        <time>2019-03-08T13:30:04Z</time>
      </trkpt>
      <trkpt lat="44.32663" lon="5.74486">
        <ele>628</ele>
        <time>2019-03-08T13:30:05Z</time>
      </trkpt>
      <trkpt lat="44.32659" lon="5.74481">
        <ele>628</ele>
        <time>2019-03-08T13:30:06Z</time>
      </trkpt>
      <trkpt lat="44.32656" lon="5.74477">
        <ele>628</ele>
        <time>2019-03-08T13:30:07Z</time>
      </trkpt>
      <trkpt lat="44.32653" lon="5.74472">
        <ele>628</ele>
        <time>2019-03-08T13:30:08Z</time>
      </trkpt>
      <trkpt lat="44.3265" lon="5.74467">
        <ele>629</ele>
        <time>2019-03-08T13:30:09Z</time>
      </trkpt>
      <trkpt lat="44.32646" lon="5.74462">
        <ele>629</ele>
        <time>2019-03-08T13:30:10Z</time>
      </trkpt>
      <trkpt lat="44.32643" lon="5.74457">
        <ele>629</ele>
        <time>2019-03-08T13:30:11Z</time>
      </trkpt>
      <trkpt lat="44.3264" lon="5.74452">
        <ele>629</ele>
        <time>2019-03-08T13:30:12Z</time>
      </trkpt>
      <trkpt lat="44.32636" lon="5.74447">
        <ele>629</ele>
        <time>2019-03-08T13:30:13Z</time>
      </trkpt>
      <trkpt lat="44.32633" lon="5.74443">
        <ele>629</ele>
        <time>2019-03-08T13:30:14Z</time>
      </trkpt>
      <trkpt lat="44.3263" lon="5.74438">
        <ele>629</ele>
        <time>2019-03-08T13:30:15Z</time>
      </trkpt>
      <trkpt lat="44.32627" lon="5.74433">
        <ele>630</ele>
        <time>2019-03-08T13:30:16Z</time>
      </trkpt>
      <trkpt lat="44.32624" lon="5.74429">
        <ele>630</ele>
        <time>2019-03-08T13:30:17Z</time>
      </trkpt>
      <trkpt lat="44.3262" lon="5.74424">
        <ele>630</ele>
        <time>2019-03-08T13:30:18Z</time>
      </trkpt>
      <trkpt lat="44.32617" lon="5.74419">
        <ele>630</ele>
        <time>2019-03-08T13:30:19Z</time>
      </trkpt>
      <trkpt lat="44.32614" lon="5.74415">
        <ele>630</ele>
        <time>2019-03-08T13:30:20Z</time>
      </trkpt>
      <trkpt lat="44.3261" lon="5.7441">
        <ele>630</ele>
        <time>2019-03-08T13:30:21Z</time>
      </trkpt>
      <trkpt lat="44.32607" lon="5.74406">
        <ele>630</ele>
        <time>2019-03-08T13:30:22Z</time>
      </trkpt>
      <trkpt lat="44.32604" lon="5.74401">
        <ele>630</ele>
        <time>2019-03-08T13:30:23Z</time>
      </trkpt>
      <trkpt lat="44.32601" lon="5.74396">
        <ele>630</ele>
        <time>2019-03-08T13:30:24Z</time>
      </trkpt>
      <trkpt lat="44.32598" lon="5.74392">
        <ele>631</ele>
        <time>2019-03-08T13:30:25Z</time>
      </trkpt>
      <trkpt lat="44.32594" lon="5.74387">
        <ele>631</ele>
        <time>2019-03-08T13:30:26Z</time>
      </trkpt>
      <trkpt lat="44.32591" lon="5.74382">
        <ele>631</ele>
        <time>2019-03-08T13:30:27Z</time>
      </trkpt>
      <trkpt lat="44.32587" lon="5.74377">
        <ele>631</ele>
        <time>2019-03-08T13:30:28Z</time>
      </trkpt>
      <trkpt lat="44.32584" lon="5.74372">
        <ele>631</ele>
        <time>2019-03-08T13:30:29Z</time>
      </trkpt>
      <trkpt lat="44.3258" lon="5.74367">
        <ele>631</ele>
        <time>2019-03-08T13:30:30Z</time>
      </trkpt>
      <trkpt lat="44.32577" lon="5.74362">
        <ele>631</ele>
        <time>2019-03-08T13:30:31Z</time>
      </trkpt>
      <trkpt lat="44.32573" lon="5.74356">
        <ele>631</ele>
        <time>2019-03-08T13:30:32Z</time>
      </trkpt>
      <trkpt lat="44.3257" lon="5.74351">
        <ele>631</ele>
        <time>2019-03-08T13:30:33Z</time>
      </trkpt>
      <trkpt lat="44.32566" lon="5.74346">
        <ele>631</ele>
        <time>2019-03-08T13:30:34Z</time>
      </trkpt>
      <trkpt lat="44.32562" lon="5.74341">
        <ele>631</ele>
        <time>2019-03-08T13:30:35Z</time>
      </trkpt>
      <trkpt lat="44.32558" lon="5.74336">
        <ele>631</ele>
        <time>2019-03-08T13:30:36Z</time>
      </trkpt>
      <trkpt lat="44.32553" lon="5.74331">
        <ele>631</ele>
        <time>2019-03-08T13:30:37Z</time>
      </trkpt>
      <trkpt lat="44.32549" lon="5.74326">
        <ele>631</ele>
        <time>2019-03-08T13:30:38Z</time>
      </trkpt>
      <trkpt lat="44.32545" lon="5.74321">
        <ele>631</ele>
        <time>2019-03-08T13:30:39Z</time>
      </trkpt>
      <trkpt lat="44.32541" lon="5.74315">
        <ele>631</ele>
        <time>2019-03-08T13:30:40Z</time>
      </trkpt>
      <trkpt lat="44.32537" lon="5.7431">
        <ele>631</ele>
        <time>2019-03-08T13:30:41Z</time>
      </trkpt>
      <trkpt lat="44.32532" lon="5.74305">
        <ele>631</ele>
        <time>2019-03-08T13:30:42Z</time>
      </trkpt>
      <trkpt lat="44.32528" lon="5.743">
        <ele>631</ele>
        <time>2019-03-08T13:30:43Z</time>
      </trkpt>
      <trkpt lat="44.32524" lon="5.74295">
        <ele>631</ele>
        <time>2019-03-08T13:30:44Z</time>
      </trkpt>
      <trkpt lat="44.3252" lon="5.7429">
        <ele>631</ele>
        <time>2019-03-08T13:30:45Z</time>
      </trkpt>
      <trkpt lat="44.32515" lon="5.74285">
        <ele>631</ele>
        <time>2019-03-08T13:30:46Z</time>
      </trkpt>
      <trkpt lat="44.32511" lon="5.7428">
        <ele>631</ele>
        <time>2019-03-08T13:30:48Z</time>
      </trkpt>
      <trkpt lat="44.32507" lon="5.74275">
        <ele>632</ele>
        <time>2019-03-08T13:30:48Z</time>
      </trkpt>
      <trkpt lat="44.32503" lon="5.74271">
        <ele>632</ele>
        <time>2019-03-08T13:30:49Z</time>
      </trkpt>
      <trkpt lat="44.32499" lon="5.74266">
        <ele>632</ele>
        <time>2019-03-08T13:30:50Z</time>
      </trkpt>
      <trkpt lat="44.32495" lon="5.74261">
        <ele>632</ele>
        <time>2019-03-08T13:30:51Z</time>
      </trkpt>
      <trkpt lat="44.32492" lon="5.74257">
        <ele>632</ele>
        <time>2019-03-08T13:30:52Z</time>
      </trkpt>
      <trkpt lat="44.32488" lon="5.74252">
        <ele>632</ele>
        <time>2019-03-08T13:30:53Z</time>
      </trkpt>
      <trkpt lat="44.32484" lon="5.74247">
        <ele>632</ele>
        <time>2019-03-08T13:30:54Z</time>
      </trkpt>
      <trkpt lat="44.3248" lon="5.74242">
        <ele>633</ele>
        <time>2019-03-08T13:30:55Z</time>
      </trkpt>
      <trkpt lat="44.32477" lon="5.74237">
        <ele>633</ele>
        <time>2019-03-08T13:30:56Z</time>
      </trkpt>
      <trkpt lat="44.32473" lon="5.74232">
        <ele>633</ele>
        <time>2019-03-08T13:30:57Z</time>
      </trkpt>
      <trkpt lat="44.3247" lon="5.74227">
        <ele>633</ele>
        <time>2019-03-08T13:30:58Z</time>
      </trkpt>
      <trkpt lat="44.32466" lon="5.74222">
        <ele>633</ele>
        <time>2019-03-08T13:30:59Z</time>
      </trkpt>
      <trkpt lat="44.32462" lon="5.74216">
        <ele>633</ele>
        <time>2019-03-08T13:31:00Z</time>
      </trkpt>
      <trkpt lat="44.32459" lon="5.7421">
        <ele>633</ele>
        <time>2019-03-08T13:31:01Z</time>
      </trkpt>
      <trkpt lat="44.32455" lon="5.74204">
        <ele>633</ele>
        <time>2019-03-08T13:31:02Z</time>
      </trkpt>
      <trkpt lat="44.32452" lon="5.74197">
        <ele>633</ele>
        <time>2019-03-08T13:31:03Z</time>
      </trkpt>
      <trkpt lat="44.32448" lon="5.74191">
        <ele>633</ele>
        <time>2019-03-08T13:31:04Z</time>
      </trkpt>
      <trkpt lat="44.32444" lon="5.74184">
        <ele>633</ele>
        <time>2019-03-08T13:31:05Z</time>
      </trkpt>
      <trkpt lat="44.32441" lon="5.74177">
        <ele>633</ele>
        <time>2019-03-08T13:31:06Z</time>
      </trkpt>
      <trkpt lat="44.32437" lon="5.7417">
        <ele>633</ele>
        <time>2019-03-08T13:31:07Z</time>
      </trkpt>
      <trkpt lat="44.32433" lon="5.74162">
        <ele>633</ele>
        <time>2019-03-08T13:31:08Z</time>
      </trkpt>
      <trkpt lat="44.32429" lon="5.74155">
        <ele>633</ele>
        <time>2019-03-08T13:31:09Z</time>
      </trkpt>
      <trkpt lat="44.32425" lon="5.74147">
        <ele>633</ele>
        <time>2019-03-08T13:31:10Z</time>
      </trkpt>
      <trkpt lat="44.32421" lon="5.74139">
        <ele>633</ele>
        <time>2019-03-08T13:31:11Z</time>
      </trkpt>
      <trkpt lat="44.32417" lon="5.74131">
        <ele>633</ele>
        <time>2019-03-08T13:31:12Z</time>
      </trkpt>
      <trkpt lat="44.32413" lon="5.74124">
        <ele>633</ele>
        <time>2019-03-08T13:31:13Z</time>
      </trkpt>
      <trkpt lat="44.32409" lon="5.74116">
        <ele>633</ele>
        <time>2019-03-08T13:31:14Z</time>
      </trkpt>
      <trkpt lat="44.32405" lon="5.74108">
        <ele>633</ele>
        <time>2019-03-08T13:31:15Z</time>
      </trkpt>
      <trkpt lat="44.32401" lon="5.74101">
        <ele>633</ele>
        <time>2019-03-08T13:31:16Z</time>
      </trkpt>
      <trkpt lat="44.32396" lon="5.74093">
        <ele>633</ele>
        <time>2019-03-08T13:31:17Z</time>
      </trkpt>
      <trkpt lat="44.32392" lon="5.74085">
        <ele>633</ele>
        <time>2019-03-08T13:31:18Z</time>
      </trkpt>
      <trkpt lat="44.32388" lon="5.74077">
        <ele>633</ele>
        <time>2019-03-08T13:31:19Z</time>
      </trkpt>
      <trkpt lat="44.32384" lon="5.74069">
        <ele>633</ele>
        <time>2019-03-08T13:31:20Z</time>
      </trkpt>
      <trkpt lat="44.3238" lon="5.74061">
        <ele>633</ele>
        <time>2019-03-08T13:31:21Z</time>
      </trkpt>
      <trkpt lat="44.32375" lon="5.74053">
        <ele>633</ele>
        <time>2019-03-08T13:31:22Z</time>
      </trkpt>
      <trkpt lat="44.32371" lon="5.74046">
        <ele>633</ele>
        <time>2019-03-08T13:31:23Z</time>
      </trkpt>
      <trkpt lat="44.32367" lon="5.74038">
        <ele>633</ele>
        <time>2019-03-08T13:31:24Z</time>
      </trkpt>
      <trkpt lat="44.32364" lon="5.74031">
        <ele>633</ele>
        <time>2019-03-08T13:31:25Z</time>
      </trkpt>
      <trkpt lat="44.3236" lon="5.74024">
        <ele>633</ele>
        <time>2019-03-08T13:31:26Z</time>
      </trkpt>
      <trkpt lat="44.32356" lon="5.74017">
        <ele>633</ele>
        <time>2019-03-08T13:31:27Z</time>
      </trkpt>
      <trkpt lat="44.32352" lon="5.74011">
        <ele>633</ele>
        <time>2019-03-08T13:31:28Z</time>
      </trkpt>
      <trkpt lat="44.32349" lon="5.74005">
        <ele>633</ele>
        <time>2019-03-08T13:31:29Z</time>
      </trkpt>
      <trkpt lat="44.32345" lon="5.73998">
        <ele>633</ele>
        <time>2019-03-08T13:31:30Z</time>
      </trkpt>
      <trkpt lat="44.32342" lon="5.73992">
        <ele>633</ele>
        <time>2019-03-08T13:31:31Z</time>
      </trkpt>
      <trkpt lat="44.32339" lon="5.73987">
        <ele>633</ele>
        <time>2019-03-08T13:31:32Z</time>
      </trkpt>
      <trkpt lat="44.32336" lon="5.73982">
        <ele>633</ele>
        <time>2019-03-08T13:31:33Z</time>
      </trkpt>
      <trkpt lat="44.32333" lon="5.73977">
        <ele>633</ele>
        <time>2019-03-08T13:31:34Z</time>
      </trkpt>
      <trkpt lat="44.3233" lon="5.73971">
        <ele>634</ele>
        <time>2019-03-08T13:31:35Z</time>
      </trkpt>
      <trkpt lat="44.32328" lon="5.73966">
        <ele>634</ele>
        <time>2019-03-08T13:31:36Z</time>
      </trkpt>
      <trkpt lat="44.32325" lon="5.7396">
        <ele>634</ele>
        <time>2019-03-08T13:31:37Z</time>
      </trkpt>
      <trkpt lat="44.32322" lon="5.73954">
        <ele>634</ele>
        <time>2019-03-08T13:31:38Z</time>
      </trkpt>
      <trkpt lat="44.3232" lon="5.73949">
        <ele>635</ele>
        <time>2019-03-08T13:31:39Z</time>
      </trkpt>
      <trkpt lat="44.32317" lon="5.73944">
        <ele>635</ele>
        <time>2019-03-08T13:31:40Z</time>
      </trkpt>
      <trkpt lat="44.32314" lon="5.73939">
        <ele>635</ele>
        <time>2019-03-08T13:31:41Z</time>
      </trkpt>
      <trkpt lat="44.32312" lon="5.73934">
        <ele>635</ele>
        <time>2019-03-08T13:31:42Z</time>
      </trkpt>
      <trkpt lat="44.32309" lon="5.73928">
        <ele>635</ele>
        <time>2019-03-08T13:31:43Z</time>
      </trkpt>
      <trkpt lat="44.32307" lon="5.73923">
        <ele>636</ele>
        <time>2019-03-08T13:31:44Z</time>
      </trkpt>
      <trkpt lat="44.32305" lon="5.73918">
        <ele>636</ele>
        <time>2019-03-08T13:31:45Z</time>
      </trkpt>
      <trkpt lat="44.32302" lon="5.73912">
        <ele>636</ele>
        <time>2019-03-08T13:31:46Z</time>
      </trkpt>
      <trkpt lat="44.323" lon="5.73907">
        <ele>636</ele>
        <time>2019-03-08T13:31:48Z</time>
      </trkpt>
      <trkpt lat="44.32298" lon="5.73901">
        <ele>636</ele>
        <time>2019-03-08T13:31:48Z</time>
      </trkpt>
      <trkpt lat="44.32296" lon="5.73895">
        <ele>636</ele>
        <time>2019-03-08T13:31:49Z</time>
      </trkpt>
      <trkpt lat="44.32293" lon="5.73889">
        <ele>636</ele>
        <time>2019-03-08T13:31:50Z</time>
      </trkpt>
      <trkpt lat="44.32291" lon="5.73883">
        <ele>636</ele>
        <time>2019-03-08T13:31:51Z</time>
      </trkpt>
      <trkpt lat="44.32288" lon="5.73877">
        <ele>636</ele>
        <time>2019-03-08T13:31:52Z</time>
      </trkpt>
      <trkpt lat="44.32286" lon="5.73871">
        <ele>636</ele>
        <time>2019-03-08T13:31:53Z</time>
      </trkpt>
      <trkpt lat="44.32284" lon="5.73865">
        <ele>636</ele>
        <time>2019-03-08T13:31:54Z</time>
      </trkpt>
      <trkpt lat="44.32282" lon="5.73859">
        <ele>636</ele>
        <time>2019-03-08T13:31:55Z</time>
      </trkpt>
      <trkpt lat="44.3228" lon="5.73853">
        <ele>637</ele>
        <time>2019-03-08T13:31:56Z</time>
      </trkpt>
      <trkpt lat="44.32277" lon="5.73847">
        <ele>637</ele>
        <time>2019-03-08T13:31:57Z</time>
      </trkpt>
      <trkpt lat="44.32275" lon="5.73841">
        <ele>637</ele>
        <time>2019-03-08T13:31:58Z</time>
      </trkpt>
      <trkpt lat="44.32273" lon="5.73834">
        <ele>637</ele>
        <time>2019-03-08T13:31:59Z</time>
      </trkpt>
      <trkpt lat="44.32271" lon="5.73828">
        <ele>637</ele>
        <time>2019-03-08T13:32:00Z</time>
      </trkpt>
      <trkpt lat="44.32269" lon="5.73821">
        <ele>637</ele>
        <time>2019-03-08T13:32:01Z</time>
      </trkpt>
      <trkpt lat="44.32267" lon="5.73814">
        <ele>637</ele>
        <time>2019-03-08T13:32:02Z</time>
      </trkpt>
      <trkpt lat="44.32264" lon="5.73808">
        <ele>637</ele>
        <time>2019-03-08T13:32:03Z</time>
      </trkpt>
      <trkpt lat="44.32262" lon="5.73801">
        <ele>637</ele>
        <time>2019-03-08T13:32:04Z</time>
      </trkpt>
      <trkpt lat="44.32259" lon="5.73795">
        <ele>637</ele>
        <time>2019-03-08T13:32:05Z</time>
      </trkpt>
      <trkpt lat="44.32257" lon="5.73788">
        <ele>637</ele>
        <time>2019-03-08T13:32:06Z</time>
      </trkpt>
      <trkpt lat="44.32255" lon="5.73781">
        <ele>637</ele>
        <time>2019-03-08T13:32:07Z</time>
      </trkpt>
      <trkpt lat="44.32252" lon="5.73774">
        <ele>637</ele>
        <time>2019-03-08T13:32:08Z</time>
      </trkpt>
      <trkpt lat="44.3225" lon="5.73768">
        <ele>637</ele>
        <time>2019-03-08T13:32:09Z</time>
      </trkpt>
      <trkpt lat="44.32247" lon="5.73761">
        <ele>637</ele>
        <time>2019-03-08T13:32:10Z</time>
      </trkpt>
      <trkpt lat="44.32245" lon="5.73754">
        <ele>637</ele>
        <time>2019-03-08T13:32:11Z</time>
      </trkpt>
      <trkpt lat="44.32242" lon="5.73747">
        <ele>637</ele>
        <time>2019-03-08T13:32:12Z</time>
      </trkpt>
      <trkpt lat="44.3224" lon="5.7374">
        <ele>637</ele>
        <time>2019-03-08T13:32:13Z</time>
      </trkpt>
      <trkpt lat="44.32238" lon="5.73733">
        <ele>637</ele>
        <time>2019-03-08T13:32:14Z</time>
      </trkpt>
      <trkpt lat="44.32235" lon="5.73727">
        <ele>637</ele>
        <time>2019-03-08T13:32:15Z</time>
      </trkpt>
      <trkpt lat="44.32233" lon="5.7372">
        <ele>638</ele>
        <time>2019-03-08T13:32:16Z</time>
      </trkpt>
      <trkpt lat="44.32231" lon="5.73713">
        <ele>638</ele>
        <time>2019-03-08T13:32:17Z</time>
      </trkpt>
      <trkpt lat="44.32228" lon="5.73707">
        <ele>638</ele>
        <time>2019-03-08T13:32:18Z</time>
      </trkpt>
      <trkpt lat="44.32226" lon="5.737">
        <ele>638</ele>
        <time>2019-03-08T13:32:19Z</time>
      </trkpt>
      <trkpt lat="44.32224" lon="5.73693">
        <ele>638</ele>
        <time>2019-03-08T13:32:20Z</time>
      </trkpt>
      <trkpt lat="44.32221" lon="5.73686">
        <ele>638</ele>
        <time>2019-03-08T13:32:21Z</time>
      </trkpt>
      <trkpt lat="44.32219" lon="5.73679">
        <ele>638</ele>
        <time>2019-03-08T13:32:22Z</time>
      </trkpt>
      <trkpt lat="44.32217" lon="5.73672">
        <ele>638</ele>
        <time>2019-03-08T13:32:23Z</time>
      </trkpt>
      <trkpt lat="44.32214" lon="5.73665">
        <ele>638</ele>
        <time>2019-03-08T13:32:24Z</time>
      </trkpt>
      <trkpt lat="44.32212" lon="5.73659">
        <ele>638</ele>
        <time>2019-03-08T13:32:25Z</time>
      </trkpt>
      <trkpt lat="44.3221" lon="5.73652">
        <ele>638</ele>
        <time>2019-03-08T13:32:26Z</time>
      </trkpt>
      <trkpt lat="44.32207" lon="5.73645">
        <ele>638</ele>
        <time>2019-03-08T13:32:27Z</time>
      </trkpt>
      <trkpt lat="44.32205" lon="5.73639">
        <ele>638</ele>
        <time>2019-03-08T13:32:28Z</time>
      </trkpt>
      <trkpt lat="44.32202" lon="5.73632">
        <ele>638</ele>
        <time>2019-03-08T13:32:29Z</time>
      </trkpt>
      <trkpt lat="44.322" lon="5.73625">
        <ele>638</ele>
        <time>2019-03-08T13:32:30Z</time>
      </trkpt>
      <trkpt lat="44.32198" lon="5.73618">
        <ele>638</ele>
        <time>2019-03-08T13:32:31Z</time>
      </trkpt>
      <trkpt lat="44.32195" lon="5.73611">
        <ele>638</ele>
        <time>2019-03-08T13:32:32Z</time>
      </trkpt>
      <trkpt lat="44.32193" lon="5.73605">
        <ele>638</ele>
        <time>2019-03-08T13:32:33Z</time>
      </trkpt>
      <trkpt lat="44.3219" lon="5.73598">
        <ele>638</ele>
        <time>2019-03-08T13:32:34Z</time>
      </trkpt>
      <trkpt lat="44.32188" lon="5.73591">
        <ele>638</ele>
        <time>2019-03-08T13:32:35Z</time>
      </trkpt>
      <trkpt lat="44.32186" lon="5.73585">
        <ele>638</ele>
        <time>2019-03-08T13:32:36Z</time>
      </trkpt>
      <trkpt lat="44.32184" lon="5.73578">
        <ele>639</ele>
        <time>2019-03-08T13:32:37Z</time>
      </trkpt>
      <trkpt lat="44.32181" lon="5.73571">
        <ele>639</ele>
        <time>2019-03-08T13:32:38Z</time>
      </trkpt>
      <trkpt lat="44.32179" lon="5.73565">
        <ele>639</ele>
        <time>2019-03-08T13:32:39Z</time>
      </trkpt>
      <trkpt lat="44.32177" lon="5.73559">
        <ele>639</ele>
        <time>2019-03-08T13:32:40Z</time>
      </trkpt>
      <trkpt lat="44.32174" lon="5.73552">
        <ele>639</ele>
        <time>2019-03-08T13:32:41Z</time>
      </trkpt>
      <trkpt lat="44.32172" lon="5.73545">
        <ele>639</ele>
        <time>2019-03-08T13:32:42Z</time>
      </trkpt>
      <trkpt lat="44.32169" lon="5.73539">
        <ele>640</ele>
        <time>2019-03-08T13:32:43Z</time>
      </trkpt>
      <trkpt lat="44.32167" lon="5.73532">
        <ele>640</ele>
        <time>2019-03-08T13:32:44Z</time>
      </trkpt>
      <trkpt lat="44.32164" lon="5.73525">
        <ele>640</ele>
        <time>2019-03-08T13:32:45Z</time>
      </trkpt>
      <trkpt lat="44.32162" lon="5.73519">
        <ele>640</ele>
        <time>2019-03-08T13:32:46Z</time>
      </trkpt>
      <trkpt lat="44.3216" lon="5.73512">
        <ele>640</ele>
        <time>2019-03-08T13:32:48Z</time>
      </trkpt>
      <trkpt lat="44.32158" lon="5.73505">
        <ele>640</ele>
        <time>2019-03-08T13:32:48Z</time>
      </trkpt>
      <trkpt lat="44.32155" lon="5.73498">
        <ele>640</ele>
        <time>2019-03-08T13:32:49Z</time>
      </trkpt>
      <trkpt lat="44.32153" lon="5.73492">
        <ele>640</ele>
        <time>2019-03-08T13:32:50Z</time>
      </trkpt>
      <trkpt lat="44.32151" lon="5.73485">
        <ele>640</ele>
        <time>2019-03-08T13:32:51Z</time>
      </trkpt>
      <trkpt lat="44.32148" lon="5.73479">
        <ele>640</ele>
        <time>2019-03-08T13:32:52Z</time>
      </trkpt>
      <trkpt lat="44.32146" lon="5.73472">
        <ele>640</ele>
        <time>2019-03-08T13:32:53Z</time>
      </trkpt>
      <trkpt lat="44.32143" lon="5.73465">
        <ele>640</ele>
        <time>2019-03-08T13:32:54Z</time>
      </trkpt>
      <trkpt lat="44.32141" lon="5.73458">
        <ele>640</ele>
        <time>2019-03-08T13:32:55Z</time>
      </trkpt>
      <trkpt lat="44.32139" lon="5.73452">
        <ele>641</ele>
        <time>2019-03-08T13:32:56Z</time>
      </trkpt>
      <trkpt lat="44.32136" lon="5.73445">
        <ele>641</ele>
        <time>2019-03-08T13:32:57Z</time>
      </trkpt>
      <trkpt lat="44.32134" lon="5.73438">
        <ele>641</ele>
        <time>2019-03-08T13:32:58Z</time>
      </trkpt>
      <trkpt lat="44.32132" lon="5.73431">
        <ele>641</ele>
        <time>2019-03-08T13:32:59Z</time>
      </trkpt>
      <trkpt lat="44.32129" lon="5.73424">
        <ele>641</ele>
        <time>2019-03-08T13:33:00Z</time>
      </trkpt>
      <trkpt lat="44.32127" lon="5.73417">
        <ele>641</ele>
        <time>2019-03-08T13:33:01Z</time>
      </trkpt>
      <trkpt lat="44.32124" lon="5.73411">
        <ele>641</ele>
        <time>2019-03-08T13:33:02Z</time>
      </trkpt>
      <trkpt lat="44.32122" lon="5.73404">
        <ele>641</ele>
        <time>2019-03-08T13:33:03Z</time>
      </trkpt>
      <trkpt lat="44.32119" lon="5.73397">
        <ele>641</ele>
        <time>2019-03-08T13:33:04Z</time>
      </trkpt>
      <trkpt lat="44.32117" lon="5.7339">
        <ele>641</ele>
        <time>2019-03-08T13:33:05Z</time>
      </trkpt>
      <trkpt lat="44.32115" lon="5.73383">
        <ele>641</ele>
        <time>2019-03-08T13:33:06Z</time>
      </trkpt>
      <trkpt lat="44.32113" lon="5.73376">
        <ele>641</ele>
        <time>2019-03-08T13:33:07Z</time>
      </trkpt>
      <trkpt lat="44.3211" lon="5.73369">
        <ele>641</ele>
        <time>2019-03-08T13:33:08Z</time>
      </trkpt>
      <trkpt lat="44.32108" lon="5.73362">
        <ele>641</ele>
        <time>2019-03-08T13:33:09Z</time>
      </trkpt>
      <trkpt lat="44.32106" lon="5.73355">
        <ele>641</ele>
        <time>2019-03-08T13:33:10Z</time>
      </trkpt>
      <trkpt lat="44.32103" lon="5.73348">
        <ele>641</ele>
        <time>2019-03-08T13:33:11Z</time>
      </trkpt>
      <trkpt lat="44.32101" lon="5.73341">
        <ele>641</ele>
        <time>2019-03-08T13:33:12Z</time>
      </trkpt>
      <trkpt lat="44.32098" lon="5.73334">
        <ele>641</ele>
        <time>2019-03-08T13:33:13Z</time>
      </trkpt>
      <trkpt lat="44.32096" lon="5.73326">
        <ele>641</ele>
        <time>2019-03-08T13:33:14Z</time>
      </trkpt>
      <trkpt lat="44.32093" lon="5.73319">
        <ele>641</ele>
        <time>2019-03-08T13:33:15Z</time>
      </trkpt>
      <trkpt lat="44.3209" lon="5.73311">
        <ele>641</ele>
        <time>2019-03-08T13:33:16Z</time>
      </trkpt>
      <trkpt lat="44.32087" lon="5.73303">
        <ele>641</ele>
        <time>2019-03-08T13:33:17Z</time>
      </trkpt>
      <trkpt lat="44.32085" lon="5.73295">
        <ele>641</ele>
        <time>2019-03-08T13:33:18Z</time>
      </trkpt>
      <trkpt lat="44.32082" lon="5.73287">
        <ele>641</ele>
        <time>2019-03-08T13:33:19Z</time>
      </trkpt>
      <trkpt lat="44.32079" lon="5.73279">
        <ele>641</ele>
        <time>2019-03-08T13:33:20Z</time>
      </trkpt>
      <trkpt lat="44.32077" lon="5.73271">
        <ele>641</ele>
        <time>2019-03-08T13:33:21Z</time>
      </trkpt>
      <trkpt lat="44.32075" lon="5.73263">
        <ele>641</ele>
        <time>2019-03-08T13:33:22Z</time>
      </trkpt>
      <trkpt lat="44.32074" lon="5.73254">
        <ele>641</ele>
        <time>2019-03-08T13:33:23Z</time>
      </trkpt>
      <trkpt lat="44.32072" lon="5.73246">
        <ele>641</ele>
        <time>2019-03-08T13:33:24Z</time>
      </trkpt>
      <trkpt lat="44.32071" lon="5.73237">
        <ele>641</ele>
        <time>2019-03-08T13:33:25Z</time>
      </trkpt>
      <trkpt lat="44.3207" lon="5.73229">
        <ele>641</ele>
        <time>2019-03-08T13:33:26Z</time>
      </trkpt>
      <trkpt lat="44.32069" lon="5.7322">
        <ele>641</ele>
        <time>2019-03-08T13:33:27Z</time>
      </trkpt>
      <trkpt lat="44.32067" lon="5.73212">
        <ele>641</ele>
        <time>2019-03-08T13:33:28Z</time>
      </trkpt>
      <trkpt lat="44.32066" lon="5.73204">
        <ele>641</ele>
        <time>2019-03-08T13:33:29Z</time>
      </trkpt>
      <trkpt lat="44.32066" lon="5.73196">
        <ele>641</ele>
        <time>2019-03-08T13:33:30Z</time>
      </trkpt>
      <trkpt lat="44.32064" lon="5.73188">
        <ele>641</ele>
        <time>2019-03-08T13:33:31Z</time>
      </trkpt>
      <trkpt lat="44.32064" lon="5.73181">
        <ele>641</ele>
        <time>2019-03-08T13:33:32Z</time>
      </trkpt>
      <trkpt lat="44.32063" lon="5.73173">
        <ele>641</ele>
        <time>2019-03-08T13:33:33Z</time>
      </trkpt>
      <trkpt lat="44.32062" lon="5.73166">
        <ele>641</ele>
        <time>2019-03-08T13:33:34Z</time>
      </trkpt>
      <trkpt lat="44.32061" lon="5.73158">
        <ele>641</ele>
        <time>2019-03-08T13:33:35Z</time>
      </trkpt>
      <trkpt lat="44.3206" lon="5.73151">
        <ele>641</ele>
        <time>2019-03-08T13:33:36Z</time>
      </trkpt>
      <trkpt lat="44.32059" lon="5.73143">
        <ele>641</ele>
        <time>2019-03-08T13:33:37Z</time>
      </trkpt>
      <trkpt lat="44.32058" lon="5.73136">
        <ele>641</ele>
        <time>2019-03-08T13:33:38Z</time>
      </trkpt>
      <trkpt lat="44.32057" lon="5.73129">
        <ele>641</ele>
        <time>2019-03-08T13:33:39Z</time>
      </trkpt>
      <trkpt lat="44.32056" lon="5.73121">
        <ele>641</ele>
        <time>2019-03-08T13:33:40Z</time>
      </trkpt>
      <trkpt lat="44.32055" lon="5.73114">
        <ele>641</ele>
        <time>2019-03-08T13:33:41Z</time>
      </trkpt>
      <trkpt lat="44.32054" lon="5.73106">
        <ele>641</ele>
        <time>2019-03-08T13:33:42Z</time>
      </trkpt>
      <trkpt lat="44.32053" lon="5.73099">
        <ele>641</ele>
        <time>2019-03-08T13:33:43Z</time>
      </trkpt>
      <trkpt lat="44.32052" lon="5.73092">
        <ele>641</ele>
        <time>2019-03-08T13:33:44Z</time>
      </trkpt>
      <trkpt lat="44.32051" lon="5.73084">
        <ele>641</ele>
        <time>2019-03-08T13:33:45Z</time>
      </trkpt>
      <trkpt lat="44.3205" lon="5.73077">
        <ele>641</ele>
        <time>2019-03-08T13:33:46Z</time>
      </trkpt>
      <trkpt lat="44.32049" lon="5.73069">
        <ele>641</ele>
        <time>2019-03-08T13:33:47Z</time>
      </trkpt>
      <trkpt lat="44.32048" lon="5.73062">
        <ele>641</ele>
        <time>2019-03-08T13:33:48Z</time>
      </trkpt>
      <trkpt lat="44.32047" lon="5.73054">
        <ele>641</ele>
        <time>2019-03-08T13:33:49Z</time>
      </trkpt>
      <trkpt lat="44.32046" lon="5.73047">
        <ele>641</ele>
        <time>2019-03-08T13:33:50Z</time>
      </trkpt>
      <trkpt lat="44.32045" lon="5.73039">
        <ele>641</ele>
        <time>2019-03-08T13:33:51Z</time>
      </trkpt>
      <trkpt lat="44.32044" lon="5.73032">
        <ele>641</ele>
        <time>2019-03-08T13:33:52Z</time>
      </trkpt>
      <trkpt lat="44.32043" lon="5.73024">
        <ele>641</ele>
        <time>2019-03-08T13:33:53Z</time>
      </trkpt>
      <trkpt lat="44.32042" lon="5.73016">
        <ele>642</ele>
        <time>2019-03-08T13:33:54Z</time>
      </trkpt>
      <trkpt lat="44.32041" lon="5.73009">
        <ele>642</ele>
        <time>2019-03-08T13:33:55Z</time>
      </trkpt>
      <trkpt lat="44.3204" lon="5.73001">
        <ele>642</ele>
        <time>2019-03-08T13:33:56Z</time>
      </trkpt>
      <trkpt lat="44.3204" lon="5.72994">
        <ele>642</ele>
        <time>2019-03-08T13:33:57Z</time>
      </trkpt>
      <trkpt lat="44.32038" lon="5.72986">
        <ele>642</ele>
        <time>2019-03-08T13:33:58Z</time>
      </trkpt>
      <trkpt lat="44.32037" lon="5.72979">
        <ele>642</ele>
        <time>2019-03-08T13:33:59Z</time>
      </trkpt>
      <trkpt lat="44.32036" lon="5.72971">
        <ele>642</ele>
        <time>2019-03-08T13:34:00Z</time>
      </trkpt>
      <trkpt lat="44.32035" lon="5.72964">
        <ele>642</ele>
        <time>2019-03-08T13:34:01Z</time>
      </trkpt>
      <trkpt lat="44.32034" lon="5.72957">
        <ele>642</ele>
        <time>2019-03-08T13:34:02Z</time>
      </trkpt>
      <trkpt lat="44.32033" lon="5.72949">
        <ele>642</ele>
        <time>2019-03-08T13:34:03Z</time>
      </trkpt>
      <trkpt lat="44.32032" lon="5.72941">
        <ele>642</ele>
        <time>2019-03-08T13:34:04Z</time>
      </trkpt>
      <trkpt lat="44.32031" lon="5.72933">
        <ele>642</ele>
        <time>2019-03-08T13:34:05Z</time>
      </trkpt>
      <trkpt lat="44.3203" lon="5.72925">
        <ele>642</ele>
        <time>2019-03-08T13:34:06Z</time>
      </trkpt>
      <trkpt lat="44.32029" lon="5.72917">
        <ele>643</ele>
        <time>2019-03-08T13:34:07Z</time>
      </trkpt>
      <trkpt lat="44.32028" lon="5.72909">
        <ele>643</ele>
        <time>2019-03-08T13:34:08Z</time>
      </trkpt>
      <trkpt lat="44.32027" lon="5.72902">
        <ele>643</ele>
        <time>2019-03-08T13:34:09Z</time>
      </trkpt>
      <trkpt lat="44.32026" lon="5.72894">
        <ele>643</ele>
        <time>2019-03-08T13:34:10Z</time>
      </trkpt>
      <trkpt lat="44.32025" lon="5.72886">
        <ele>643</ele>
        <time>2019-03-08T13:34:11Z</time>
      </trkpt>
      <trkpt lat="44.32024" lon="5.72879">
        <ele>643</ele>
        <time>2019-03-08T13:34:12Z</time>
      </trkpt>
      <trkpt lat="44.32023" lon="5.72871">
        <ele>643</ele>
        <time>2019-03-08T13:34:13Z</time>
      </trkpt>
      <trkpt lat="44.32022" lon="5.72863">
        <ele>643</ele>
        <time>2019-03-08T13:34:14Z</time>
      </trkpt>
      <trkpt lat="44.32021" lon="5.72856">
        <ele>643</ele>
        <time>2019-03-08T13:34:15Z</time>
      </trkpt>
      <trkpt lat="44.32021" lon="5.72849">
        <ele>643</ele>
        <time>2019-03-08T13:34:16Z</time>
      </trkpt>
      <trkpt lat="44.3202" lon="5.72842">
        <ele>643</ele>
        <time>2019-03-08T13:34:17Z</time>
      </trkpt>
      <trkpt lat="44.32019" lon="5.72835">
        <ele>643</ele>
        <time>2019-03-08T13:34:18Z</time>
      </trkpt>
      <trkpt lat="44.32018" lon="5.72828">
        <ele>643</ele>
        <time>2019-03-08T13:34:19Z</time>
      </trkpt>
      <trkpt lat="44.32017" lon="5.72822">
        <ele>643</ele>
        <time>2019-03-08T13:34:20Z</time>
      </trkpt>
      <trkpt lat="44.32016" lon="5.72815">
        <ele>643</ele>
        <time>2019-03-08T13:34:21Z</time>
      </trkpt>
      <trkpt lat="44.32015" lon="5.72808">
        <ele>643</ele>
        <time>2019-03-08T13:34:22Z</time>
      </trkpt>
      <trkpt lat="44.32014" lon="5.72801">
        <ele>643</ele>
        <time>2019-03-08T13:34:23Z</time>
      </trkpt>
      <trkpt lat="44.32014" lon="5.72794">
        <ele>643</ele>
        <time>2019-03-08T13:34:24Z</time>
      </trkpt>
      <trkpt lat="44.32013" lon="5.72787">
        <ele>643</ele>
        <time>2019-03-08T13:34:25Z</time>
      </trkpt>
      <trkpt lat="44.32012" lon="5.7278">
        <ele>643</ele>
        <time>2019-03-08T13:34:26Z</time>
      </trkpt>
      <trkpt lat="44.32011" lon="5.72773">
        <ele>643</ele>
        <time>2019-03-08T13:34:27Z</time>
      </trkpt>
      <trkpt lat="44.3201" lon="5.72766">
        <ele>643</ele>
        <time>2019-03-08T13:34:28Z</time>
      </trkpt>
      <trkpt lat="44.32009" lon="5.72759">
        <ele>643</ele>
        <time>2019-03-08T13:34:29Z</time>
      </trkpt>
      <trkpt lat="44.32008" lon="5.72752">
        <ele>643</ele>
        <time>2019-03-08T13:34:30Z</time>
      </trkpt>
      <trkpt lat="44.32007" lon="5.72745">
        <ele>643</ele>
        <time>2019-03-08T13:34:31Z</time>
      </trkpt>
      <trkpt lat="44.32006" lon="5.72738">
        <ele>644</ele>
        <time>2019-03-08T13:34:32Z</time>
      </trkpt>
      <trkpt lat="44.32005" lon="5.72731">
        <ele>644</ele>
        <time>2019-03-08T13:34:33Z</time>
      </trkpt>
      <trkpt lat="44.32004" lon="5.72724">
        <ele>644</ele>
        <time>2019-03-08T13:34:34Z</time>
      </trkpt>
      <trkpt lat="44.32003" lon="5.72717">
        <ele>644</ele>
        <time>2019-03-08T13:34:35Z</time>
      </trkpt>
      <trkpt lat="44.32003" lon="5.7271">
        <ele>644</ele>
        <time>2019-03-08T13:34:36Z</time>
      </trkpt>
      <trkpt lat="44.32002" lon="5.72703">
        <ele>644</ele>
        <time>2019-03-08T13:34:37Z</time>
      </trkpt>
      <trkpt lat="44.32001" lon="5.72695">
        <ele>644</ele>
        <time>2019-03-08T13:34:38Z</time>
      </trkpt>
      <trkpt lat="44.32" lon="5.72689">
        <ele>644</ele>
        <time>2019-03-08T13:34:39Z</time>
      </trkpt>
      <trkpt lat="44.31999" lon="5.72682">
        <ele>644</ele>
        <time>2019-03-08T13:34:40Z</time>
      </trkpt>
      <trkpt lat="44.31998" lon="5.72675">
        <ele>644</ele>
        <time>2019-03-08T13:34:41Z</time>
      </trkpt>
      <trkpt lat="44.31997" lon="5.72668">
        <ele>644</ele>
        <time>2019-03-08T13:34:42Z</time>
      </trkpt>
      <trkpt lat="44.31997" lon="5.72661">
        <ele>644</ele>
        <time>2019-03-08T13:34:43Z</time>
      </trkpt>
      <trkpt lat="44.31996" lon="5.72654">
        <ele>644</ele>
        <time>2019-03-08T13:34:44Z</time>
      </trkpt>
      <trkpt lat="44.31995" lon="5.72647">
        <ele>644</ele>
        <time>2019-03-08T13:34:45Z</time>
      </trkpt>
      <trkpt lat="44.31994" lon="5.72639">
        <ele>644</ele>
        <time>2019-03-08T13:34:46Z</time>
      </trkpt>
      <trkpt lat="44.31993" lon="5.72632">
        <ele>644</ele>
        <time>2019-03-08T13:34:47Z</time>
      </trkpt>
      <trkpt lat="44.31992" lon="5.72624">
        <ele>644</ele>
        <time>2019-03-08T13:34:48Z</time>
      </trkpt>
      <trkpt lat="44.3199" lon="5.72617">
        <ele>645</ele>
        <time>2019-03-08T13:34:49Z</time>
      </trkpt>
      <trkpt lat="44.3199" lon="5.72609">
        <ele>645</ele>
        <time>2019-03-08T13:34:50Z</time>
      </trkpt>
      <trkpt lat="44.31989" lon="5.72602">
        <ele>645</ele>
        <time>2019-03-08T13:34:51Z</time>
      </trkpt>
      <trkpt lat="44.31988" lon="5.72594">
        <ele>645</ele>
        <time>2019-03-08T13:34:52Z</time>
      </trkpt>
      <trkpt lat="44.31987" lon="5.72587">
        <ele>646</ele>
        <time>2019-03-08T13:34:53Z</time>
      </trkpt>
      <trkpt lat="44.31985" lon="5.7258">
        <ele>646</ele>
        <time>2019-03-08T13:34:54Z</time>
      </trkpt>
      <trkpt lat="44.31983" lon="5.72573">
        <ele>646</ele>
        <time>2019-03-08T13:34:55Z</time>
      </trkpt>
      <trkpt lat="44.31982" lon="5.72566">
        <ele>646</ele>
        <time>2019-03-08T13:34:56Z</time>
      </trkpt>
      <trkpt lat="44.3198" lon="5.72559">
        <ele>646</ele>
        <time>2019-03-08T13:34:57Z</time>
      </trkpt>
      <trkpt lat="44.31979" lon="5.72552">
        <ele>646</ele>
        <time>2019-03-08T13:34:58Z</time>
      </trkpt>
      <trkpt lat="44.31977" lon="5.72545">
        <ele>646</ele>
        <time>2019-03-08T13:34:59Z</time>
      </trkpt>
      <trkpt lat="44.31974" lon="5.72539">
        <ele>646</ele>
        <time>2019-03-08T13:35:00Z</time>
      </trkpt>
      <trkpt lat="44.31972" lon="5.72532">
        <ele>646</ele>
        <time>2019-03-08T13:35:01Z</time>
      </trkpt>
      <trkpt lat="44.31969" lon="5.72526">
        <ele>646</ele>
        <time>2019-03-08T13:35:02Z</time>
      </trkpt>
      <trkpt lat="44.31967" lon="5.72519">
        <ele>647</ele>
        <time>2019-03-08T13:35:03Z</time>
      </trkpt>
      <trkpt lat="44.31964" lon="5.72513">
        <ele>647</ele>
        <time>2019-03-08T13:35:04Z</time>
      </trkpt>
      <trkpt lat="44.31961" lon="5.72506">
        <ele>647</ele>
        <time>2019-03-08T13:35:05Z</time>
      </trkpt>
      <trkpt lat="44.31959" lon="5.725">
        <ele>647</ele>
        <time>2019-03-08T13:35:06Z</time>
      </trkpt>
      <trkpt lat="44.31956" lon="5.72494">
        <ele>647</ele>
        <time>2019-03-08T13:35:07Z</time>
      </trkpt>
      <trkpt lat="44.31953" lon="5.72487">
        <ele>647</ele>
        <time>2019-03-08T13:35:08Z</time>
      </trkpt>
      <trkpt lat="44.31949" lon="5.72481">
        <ele>647</ele>
        <time>2019-03-08T13:35:09Z</time>
      </trkpt>
      <trkpt lat="44.31946" lon="5.72474">
        <ele>647</ele>
        <time>2019-03-08T13:35:10Z</time>
      </trkpt>
      <trkpt lat="44.31943" lon="5.72468">
        <ele>647</ele>
        <time>2019-03-08T13:35:11Z</time>
      </trkpt>
      <trkpt lat="44.3194" lon="5.72461">
        <ele>647</ele>
        <time>2019-03-08T13:35:12Z</time>
      </trkpt>
      <trkpt lat="44.31937" lon="5.72454">
        <ele>647</ele>
        <time>2019-03-08T13:35:13Z</time>
      </trkpt>
      <trkpt lat="44.31934" lon="5.72447">
        <ele>647</ele>
        <time>2019-03-08T13:35:14Z</time>
      </trkpt>
      <trkpt lat="44.31931" lon="5.72441">
        <ele>647</ele>
        <time>2019-03-08T13:35:15Z</time>
      </trkpt>
      <trkpt lat="44.31928" lon="5.72434">
        <ele>647</ele>
        <time>2019-03-08T13:35:16Z</time>
      </trkpt>
      <trkpt lat="44.31925" lon="5.72428">
        <ele>647</ele>
        <time>2019-03-08T13:35:17Z</time>
      </trkpt>
      <trkpt lat="44.31921" lon="5.72422">
        <ele>648</ele>
        <time>2019-03-08T13:35:18Z</time>
      </trkpt>
      <trkpt lat="44.31918" lon="5.72415">
        <ele>648</ele>
        <time>2019-03-08T13:35:19Z</time>
      </trkpt>
      <trkpt lat="44.31915" lon="5.72409">
        <ele>648</ele>
        <time>2019-03-08T13:35:20Z</time>
      </trkpt>
      <trkpt lat="44.31913" lon="5.72403">
        <ele>649</ele>
        <time>2019-03-08T13:35:21Z</time>
      </trkpt>
      <trkpt lat="44.3191" lon="5.72397">
        <ele>649</ele>
        <time>2019-03-08T13:35:22Z</time>
      </trkpt>
      <trkpt lat="44.31907" lon="5.72392">
        <ele>649</ele>
        <time>2019-03-08T13:35:23Z</time>
      </trkpt>
      <trkpt lat="44.31905" lon="5.72386">
        <ele>649</ele>
        <time>2019-03-08T13:35:24Z</time>
      </trkpt>
      <trkpt lat="44.31902" lon="5.7238">
        <ele>650</ele>
        <time>2019-03-08T13:35:25Z</time>
      </trkpt>
      <trkpt lat="44.319" lon="5.72374">
        <ele>650</ele>
        <time>2019-03-08T13:35:26Z</time>
      </trkpt>
      <trkpt lat="44.31897" lon="5.72368">
        <ele>650</ele>
        <time>2019-03-08T13:35:27Z</time>
      </trkpt>
      <trkpt lat="44.31894" lon="5.72362">
        <ele>650</ele>
        <time>2019-03-08T13:35:28Z</time>
      </trkpt>
      <trkpt lat="44.31892" lon="5.72356">
        <ele>651</ele>
        <time>2019-03-08T13:35:29Z</time>
      </trkpt>
      <trkpt lat="44.31889" lon="5.7235">
        <ele>651</ele>
        <time>2019-03-08T13:35:30Z</time>
      </trkpt>
      <trkpt lat="44.31887" lon="5.72343">
        <ele>651</ele>
        <time>2019-03-08T13:35:31Z</time>
      </trkpt>
      <trkpt lat="44.31884" lon="5.72337">
        <ele>652</ele>
        <time>2019-03-08T13:35:32Z</time>
      </trkpt>
      <trkpt lat="44.31882" lon="5.72331">
        <ele>652</ele>
        <time>2019-03-08T13:35:33Z</time>
      </trkpt>
      <trkpt lat="44.3188" lon="5.72325">
        <ele>652</ele>
        <time>2019-03-08T13:35:34Z</time>
      </trkpt>
      <trkpt lat="44.31879" lon="5.72318">
        <ele>652</ele>
        <time>2019-03-08T13:35:35Z</time>
      </trkpt>
      <trkpt lat="44.31877" lon="5.7231">
        <ele>653</ele>
        <time>2019-03-08T13:35:36Z</time>
      </trkpt>
      <trkpt lat="44.31875" lon="5.72303">
        <ele>653</ele>
        <time>2019-03-08T13:35:37Z</time>
      </trkpt>
      <trkpt lat="44.31874" lon="5.72296">
        <ele>653</ele>
        <time>2019-03-08T13:35:38Z</time>
      </trkpt>
      <trkpt lat="44.31873" lon="5.7229">
        <ele>653</ele>
        <time>2019-03-08T13:35:39Z</time>
      </trkpt>
      <trkpt lat="44.31871" lon="5.72283">
        <ele>653</ele>
        <time>2019-03-08T13:35:40Z</time>
      </trkpt>
      <trkpt lat="44.3187" lon="5.72276">
        <ele>653</ele>
        <time>2019-03-08T13:35:41Z</time>
      </trkpt>
      <trkpt lat="44.31868" lon="5.72269">
        <ele>653</ele>
        <time>2019-03-08T13:35:42Z</time>
      </trkpt>
      <trkpt lat="44.31866" lon="5.72262">
        <ele>653</ele>
        <time>2019-03-08T13:35:43Z</time>
      </trkpt>
      <trkpt lat="44.31865" lon="5.72255">
        <ele>653</ele>
        <time>2019-03-08T13:35:44Z</time>
      </trkpt>
      <trkpt lat="44.31864" lon="5.72248">
        <ele>653</ele>
        <time>2019-03-08T13:35:45Z</time>
      </trkpt>
      <trkpt lat="44.31863" lon="5.72241">
        <ele>653</ele>
        <time>2019-03-08T13:35:46Z</time>
      </trkpt>
      <trkpt lat="44.31861" lon="5.72234">
        <ele>653</ele>
        <time>2019-03-08T13:35:47Z</time>
      </trkpt>
      <trkpt lat="44.3186" lon="5.72227">
        <ele>653</ele>
        <time>2019-03-08T13:35:48Z</time>
      </trkpt>
      <trkpt lat="44.31858" lon="5.7222">
        <ele>653</ele>
        <time>2019-03-08T13:35:49Z</time>
      </trkpt>
      <trkpt lat="44.31857" lon="5.72213">
        <ele>653</ele>
        <time>2019-03-08T13:35:50Z</time>
      </trkpt>
      <trkpt lat="44.31855" lon="5.72206">
        <ele>653</ele>
        <time>2019-03-08T13:35:51Z</time>
      </trkpt>
      <trkpt lat="44.31854" lon="5.72199">
        <ele>653</ele>
        <time>2019-03-08T13:35:52Z</time>
      </trkpt>
      <trkpt lat="44.31852" lon="5.72192">
        <ele>653</ele>
        <time>2019-03-08T13:35:53Z</time>
      </trkpt>
      <trkpt lat="44.31851" lon="5.72186">
        <ele>653</ele>
        <time>2019-03-08T13:35:54Z</time>
      </trkpt>
      <trkpt lat="44.31849" lon="5.72179">
        <ele>653</ele>
        <time>2019-03-08T13:35:55Z</time>
      </trkpt>
      <trkpt lat="44.31847" lon="5.72172">
        <ele>653</ele>
        <time>2019-03-08T13:35:56Z</time>
      </trkpt>
      <trkpt lat="44.31845" lon="5.72165">
        <ele>653</ele>
        <time>2019-03-08T13:35:57Z</time>
      </trkpt>
      <trkpt lat="44.31844" lon="5.72159">
        <ele>653</ele>
        <time>2019-03-08T13:35:58Z</time>
      </trkpt>
      <trkpt lat="44.31842" lon="5.72152">
        <ele>653</ele>
        <time>2019-03-08T13:35:59Z</time>
      </trkpt>
      <trkpt lat="44.3184" lon="5.72145">
        <ele>653</ele>
        <time>2019-03-08T13:36:00Z</time>
      </trkpt>
      <trkpt lat="44.31838" lon="5.72138">
        <ele>653</ele>
        <time>2019-03-08T13:36:01Z</time>
      </trkpt>
      <trkpt lat="44.31836" lon="5.72132">
        <ele>653</ele>
        <time>2019-03-08T13:36:02Z</time>
      </trkpt>
      <trkpt lat="44.31834" lon="5.72125">
        <ele>653</ele>
        <time>2019-03-08T13:36:03Z</time>
      </trkpt>
      <trkpt lat="44.31832" lon="5.72118">
        <ele>653</ele>
        <time>2019-03-08T13:36:04Z</time>
      </trkpt>
      <trkpt lat="44.3183" lon="5.72112">
        <ele>653</ele>
        <time>2019-03-08T13:36:05Z</time>
      </trkpt>
      <trkpt lat="44.31828" lon="5.72106">
        <ele>653</ele>
        <time>2019-03-08T13:36:06Z</time>
      </trkpt>
      <trkpt lat="44.31826" lon="5.72099">
        <ele>653</ele>
        <time>2019-03-08T13:36:07Z</time>
      </trkpt>
      <trkpt lat="44.31824" lon="5.72093">
        <ele>653</ele>
        <time>2019-03-08T13:36:08Z</time>
      </trkpt>
      <trkpt lat="44.31823" lon="5.72087">
        <ele>653</ele>
        <time>2019-03-08T13:36:09Z</time>
      </trkpt>
      <trkpt lat="44.31821" lon="5.72081">
        <ele>653</ele>
        <time>2019-03-08T13:36:10Z</time>
      </trkpt>
      <trkpt lat="44.31819" lon="5.72075">
        <ele>653</ele>
        <time>2019-03-08T13:36:11Z</time>
      </trkpt>
      <trkpt lat="44.31817" lon="5.72068">
        <ele>653</ele>
        <time>2019-03-08T13:36:12Z</time>
      </trkpt>
      <trkpt lat="44.31815" lon="5.72062">
        <ele>654</ele>
        <time>2019-03-08T13:36:13Z</time>
      </trkpt>
      <trkpt lat="44.31814" lon="5.72056">
        <ele>654</ele>
        <time>2019-03-08T13:36:14Z</time>
      </trkpt>
      <trkpt lat="44.31812" lon="5.7205">
        <ele>654</ele>
        <time>2019-03-08T13:36:15Z</time>
      </trkpt>
      <trkpt lat="44.3181" lon="5.72044">
        <ele>654</ele>
        <time>2019-03-08T13:36:16Z</time>
      </trkpt>
      <trkpt lat="44.31809" lon="5.72038">
        <ele>654</ele>
        <time>2019-03-08T13:36:17Z</time>
      </trkpt>
      <trkpt lat="44.31807" lon="5.72031">
        <ele>654</ele>
        <time>2019-03-08T13:36:18Z</time>
      </trkpt>
      <trkpt lat="44.31804" lon="5.72025">
        <ele>654</ele>
        <time>2019-03-08T13:36:19Z</time>
      </trkpt>
      <trkpt lat="44.31802" lon="5.72019">
        <ele>654</ele>
        <time>2019-03-08T13:36:20Z</time>
      </trkpt>
      <trkpt lat="44.318" lon="5.72012">
        <ele>654</ele>
        <time>2019-03-08T13:36:21Z</time>
      </trkpt>
      <trkpt lat="44.31798" lon="5.72006">
        <ele>654</ele>
        <time>2019-03-08T13:36:22Z</time>
      </trkpt>
      <trkpt lat="44.31796" lon="5.72">
        <ele>654</ele>
        <time>2019-03-08T13:36:23Z</time>
      </trkpt>
      <trkpt lat="44.31793" lon="5.71994">
        <ele>654</ele>
        <time>2019-03-08T13:36:24Z</time>
      </trkpt>
      <trkpt lat="44.31791" lon="5.71989">
        <ele>654</ele>
        <time>2019-03-08T13:36:25Z</time>
      </trkpt>
      <trkpt lat="44.31789" lon="5.71983">
        <ele>654</ele>
        <time>2019-03-08T13:36:26Z</time>
      </trkpt>
      <trkpt lat="44.31786" lon="5.71977">
        <ele>654</ele>
        <time>2019-03-08T13:36:27Z</time>
      </trkpt>
      <trkpt lat="44.31784" lon="5.71971">
        <ele>654</ele>
        <time>2019-03-08T13:36:28Z</time>
      </trkpt>
      <trkpt lat="44.31782" lon="5.71965">
        <ele>654</ele>
        <time>2019-03-08T13:36:29Z</time>
      </trkpt>
      <trkpt lat="44.31779" lon="5.71959">
        <ele>654</ele>
        <time>2019-03-08T13:36:30Z</time>
      </trkpt>
      <trkpt lat="44.31777" lon="5.71953">
        <ele>654</ele>
        <time>2019-03-08T13:36:31Z</time>
      </trkpt>
      <trkpt lat="44.31775" lon="5.71947">
        <ele>654</ele>
        <time>2019-03-08T13:36:32Z</time>
      </trkpt>
      <trkpt lat="44.31773" lon="5.71941">
        <ele>654</ele>
        <time>2019-03-08T13:36:33Z</time>
      </trkpt>
      <trkpt lat="44.31772" lon="5.71934">
        <ele>654</ele>
        <time>2019-03-08T13:36:34Z</time>
      </trkpt>
      <trkpt lat="44.3177" lon="5.71927">
        <ele>654</ele>
        <time>2019-03-08T13:36:35Z</time>
      </trkpt>
      <trkpt lat="44.31769" lon="5.7192">
        <ele>654</ele>
        <time>2019-03-08T13:36:36Z</time>
      </trkpt>
      <trkpt lat="44.31768" lon="5.71913">
        <ele>654</ele>
        <time>2019-03-08T13:36:37Z</time>
      </trkpt>
      <trkpt lat="44.31766" lon="5.71906">
        <ele>654</ele>
        <time>2019-03-08T13:36:38Z</time>
      </trkpt>
      <trkpt lat="44.31765" lon="5.71899">
        <ele>654</ele>
        <time>2019-03-08T13:36:39Z</time>
      </trkpt>
      <trkpt lat="44.31764" lon="5.71891">
        <ele>654</ele>
        <time>2019-03-08T13:36:40Z</time>
      </trkpt>
      <trkpt lat="44.31763" lon="5.71884">
        <ele>654</ele>
        <time>2019-03-08T13:36:41Z</time>
      </trkpt>
      <trkpt lat="44.31762" lon="5.71877">
        <ele>654</ele>
        <time>2019-03-08T13:36:42Z</time>
      </trkpt>
      <trkpt lat="44.31762" lon="5.7187">
        <ele>654</ele>
        <time>2019-03-08T13:36:43Z</time>
      </trkpt>
      <trkpt lat="44.31761" lon="5.71863">
        <ele>654</ele>
        <time>2019-03-08T13:36:44Z</time>
      </trkpt>
      <trkpt lat="44.3176" lon="5.71856">
        <ele>654</ele>
        <time>2019-03-08T13:36:45Z</time>
      </trkpt>
      <trkpt lat="44.3176" lon="5.71849">
        <ele>654</ele>
        <time>2019-03-08T13:36:46Z</time>
      </trkpt>
      <trkpt lat="44.3176" lon="5.71842">
        <ele>654</ele>
        <time>2019-03-08T13:36:47Z</time>
      </trkpt>
      <trkpt lat="44.31759" lon="5.71836">
        <ele>654</ele>
        <time>2019-03-08T13:36:48Z</time>
      </trkpt>
      <trkpt lat="44.31759" lon="5.7183">
        <ele>654</ele>
        <time>2019-03-08T13:36:49Z</time>
      </trkpt>
      <trkpt lat="44.31758" lon="5.71823">
        <ele>654</ele>
        <time>2019-03-08T13:36:50Z</time>
      </trkpt>
      <trkpt lat="44.31758" lon="5.71817">
        <ele>654</ele>
        <time>2019-03-08T13:36:51Z</time>
      </trkpt>
      <trkpt lat="44.31757" lon="5.71811">
        <ele>654</ele>
        <time>2019-03-08T13:36:52Z</time>
      </trkpt>
      <trkpt lat="44.31757" lon="5.71805">
        <ele>654</ele>
        <time>2019-03-08T13:36:53Z</time>
      </trkpt>
      <trkpt lat="44.31757" lon="5.71799">
        <ele>654</ele>
        <time>2019-03-08T13:36:54Z</time>
      </trkpt>
      <trkpt lat="44.31756" lon="5.71793">
        <ele>655</ele>
        <time>2019-03-08T13:36:55Z</time>
      </trkpt>
      <trkpt lat="44.31755" lon="5.71787">
        <ele>655</ele>
        <time>2019-03-08T13:36:56Z</time>
      </trkpt>
      <trkpt lat="44.31755" lon="5.71781">
        <ele>655</ele>
        <time>2019-03-08T13:36:57Z</time>
      </trkpt>
      <trkpt lat="44.31755" lon="5.71774">
        <ele>655</ele>
        <time>2019-03-08T13:36:58Z</time>
      </trkpt>
      <trkpt lat="44.31754" lon="5.71768">
        <ele>655</ele>
        <time>2019-03-08T13:36:59Z</time>
      </trkpt>
      <trkpt lat="44.31754" lon="5.71762">
        <ele>655</ele>
        <time>2019-03-08T13:37:00Z</time>
      </trkpt>
      <trkpt lat="44.31753" lon="5.71756">
        <ele>655</ele>
        <time>2019-03-08T13:37:01Z</time>
      </trkpt>
      <trkpt lat="44.31752" lon="5.71749">
        <ele>655</ele>
        <time>2019-03-08T13:37:02Z</time>
      </trkpt>
      <trkpt lat="44.31751" lon="5.71742">
        <ele>655</ele>
        <time>2019-03-08T13:37:03Z</time>
      </trkpt>
      <trkpt lat="44.3175" lon="5.71736">
        <ele>655</ele>
        <time>2019-03-08T13:37:04Z</time>
      </trkpt>
      <trkpt lat="44.31749" lon="5.71729">
        <ele>655</ele>
        <time>2019-03-08T13:37:05Z</time>
      </trkpt>
      <trkpt lat="44.31748" lon="5.71723">
        <ele>655</ele>
        <time>2019-03-08T13:37:06Z</time>
      </trkpt>
      <trkpt lat="44.31747" lon="5.71716">
        <ele>655</ele>
        <time>2019-03-08T13:37:07Z</time>
      </trkpt>
      <trkpt lat="44.31745" lon="5.71709">
        <ele>655</ele>
        <time>2019-03-08T13:37:08Z</time>
      </trkpt>
      <trkpt lat="44.31743" lon="5.71702">
        <ele>655</ele>
        <time>2019-03-08T13:37:09Z</time>
      </trkpt>
      <trkpt lat="44.3174" lon="5.71695">
        <ele>655</ele>
        <time>2019-03-08T13:37:10Z</time>
      </trkpt>
      <trkpt lat="44.31738" lon="5.71689">
        <ele>655</ele>
        <time>2019-03-08T13:37:11Z</time>
      </trkpt>
      <trkpt lat="44.31735" lon="5.71682">
        <ele>655</ele>
        <time>2019-03-08T13:37:12Z</time>
      </trkpt>
      <trkpt lat="44.31732" lon="5.71676">
        <ele>655</ele>
        <time>2019-03-08T13:37:13Z</time>
      </trkpt>
      <trkpt lat="44.31729" lon="5.7167">
        <ele>655</ele>
        <time>2019-03-08T13:37:14Z</time>
      </trkpt>
      <trkpt lat="44.31725" lon="5.71664">
        <ele>655</ele>
        <time>2019-03-08T13:37:15Z</time>
      </trkpt>
      <trkpt lat="44.31721" lon="5.71658">
        <ele>655</ele>
        <time>2019-03-08T13:37:16Z</time>
      </trkpt>
      <trkpt lat="44.31718" lon="5.71652">
        <ele>655</ele>
        <time>2019-03-08T13:37:17Z</time>
      </trkpt>
      <trkpt lat="44.31714" lon="5.71646">
        <ele>655</ele>
        <time>2019-03-08T13:37:18Z</time>
      </trkpt>
      <trkpt lat="44.3171" lon="5.7164">
        <ele>655</ele>
        <time>2019-03-08T13:37:19Z</time>
      </trkpt>
      <trkpt lat="44.31707" lon="5.71633">
        <ele>655</ele>
        <time>2019-03-08T13:37:20Z</time>
      </trkpt>
      <trkpt lat="44.31703" lon="5.71627">
        <ele>655</ele>
        <time>2019-03-08T13:37:21Z</time>
      </trkpt>
      <trkpt lat="44.31699" lon="5.7162">
        <ele>655</ele>
        <time>2019-03-08T13:37:22Z</time>
      </trkpt>
      <trkpt lat="44.31696" lon="5.71614">
        <ele>655</ele>
        <time>2019-03-08T13:37:23Z</time>
      </trkpt>
      <trkpt lat="44.31692" lon="5.71607">
        <ele>655</ele>
        <time>2019-03-08T13:37:24Z</time>
      </trkpt>
      <trkpt lat="44.31689" lon="5.71601">
        <ele>655</ele>
        <time>2019-03-08T13:37:25Z</time>
      </trkpt>
      <trkpt lat="44.31686" lon="5.71594">
        <ele>655</ele>
        <time>2019-03-08T13:37:26Z</time>
      </trkpt>
      <trkpt lat="44.31683" lon="5.71587">
        <ele>655</ele>
        <time>2019-03-08T13:37:27Z</time>
      </trkpt>
      <trkpt lat="44.31681" lon="5.7158">
        <ele>655</ele>
        <time>2019-03-08T13:37:28Z</time>
      </trkpt>
      <trkpt lat="44.31678" lon="5.71573">
        <ele>655</ele>
        <time>2019-03-08T13:37:29Z</time>
      </trkpt>
      <trkpt lat="44.31675" lon="5.71566">
        <ele>655</ele>
        <time>2019-03-08T13:37:30Z</time>
      </trkpt>
      <trkpt lat="44.31672" lon="5.71559">
        <ele>655</ele>
        <time>2019-03-08T13:37:31Z</time>
      </trkpt>
      <trkpt lat="44.31669" lon="5.71553">
        <ele>655</ele>
        <time>2019-03-08T13:37:32Z</time>
      </trkpt>
      <trkpt lat="44.31666" lon="5.71546">
        <ele>655</ele>
        <time>2019-03-08T13:37:33Z</time>
      </trkpt>
      <trkpt lat="44.31664" lon="5.71539">
        <ele>655</ele>
        <time>2019-03-08T13:37:34Z</time>
      </trkpt>
      <trkpt lat="44.31661" lon="5.71532">
        <ele>655</ele>
        <time>2019-03-08T13:37:35Z</time>
      </trkpt>
      <trkpt lat="44.31658" lon="5.71525">
        <ele>655</ele>
        <time>2019-03-08T13:37:36Z</time>
      </trkpt>
      <trkpt lat="44.31655" lon="5.71518">
        <ele>655</ele>
        <time>2019-03-08T13:37:37Z</time>
      </trkpt>
      <trkpt lat="44.31653" lon="5.71511">
        <ele>655</ele>
        <time>2019-03-08T13:37:38Z</time>
      </trkpt>
      <trkpt lat="44.3165" lon="5.71504">
        <ele>655</ele>
        <time>2019-03-08T13:37:39Z</time>
      </trkpt>
      <trkpt lat="44.31647" lon="5.71497">
        <ele>655</ele>
        <time>2019-03-08T13:37:40Z</time>
      </trkpt>
      <trkpt lat="44.31644" lon="5.71491">
        <ele>655</ele>
        <time>2019-03-08T13:37:41Z</time>
      </trkpt>
      <trkpt lat="44.31642" lon="5.71484">
        <ele>655</ele>
        <time>2019-03-08T13:37:42Z</time>
      </trkpt>
      <trkpt lat="44.31639" lon="5.71477">
        <ele>655</ele>
        <time>2019-03-08T13:37:43Z</time>
      </trkpt>
      <trkpt lat="44.31637" lon="5.7147">
        <ele>655</ele>
        <time>2019-03-08T13:37:44Z</time>
      </trkpt>
      <trkpt lat="44.31634" lon="5.71463">
        <ele>655</ele>
        <time>2019-03-08T13:37:45Z</time>
      </trkpt>
      <trkpt lat="44.31631" lon="5.71456">
        <ele>655</ele>
        <time>2019-03-08T13:37:46Z</time>
      </trkpt>
      <trkpt lat="44.31629" lon="5.7145">
        <ele>655</ele>
        <time>2019-03-08T13:37:47Z</time>
      </trkpt>
      <trkpt lat="44.31626" lon="5.71443">
        <ele>655</ele>
        <time>2019-03-08T13:37:48Z</time>
      </trkpt>
      <trkpt lat="44.31624" lon="5.71437">
        <ele>655</ele>
        <time>2019-03-08T13:37:49Z</time>
      </trkpt>
      <trkpt lat="44.31622" lon="5.7143">
        <ele>655</ele>
        <time>2019-03-08T13:37:50Z</time>
      </trkpt>
      <trkpt lat="44.3162" lon="5.71423">
        <ele>655</ele>
        <time>2019-03-08T13:37:51Z</time>
      </trkpt>
      <trkpt lat="44.31617" lon="5.71417">
        <ele>655</ele>
        <time>2019-03-08T13:37:52Z</time>
      </trkpt>
      <trkpt lat="44.31615" lon="5.7141">
        <ele>655</ele>
        <time>2019-03-08T13:37:53Z</time>
      </trkpt>
      <trkpt lat="44.31613" lon="5.71403">
        <ele>655</ele>
        <time>2019-03-08T13:37:54Z</time>
      </trkpt>
      <trkpt lat="44.31611" lon="5.71396">
        <ele>655</ele>
        <time>2019-03-08T13:37:55Z</time>
      </trkpt>
      <trkpt lat="44.31609" lon="5.71389">
        <ele>655</ele>
        <time>2019-03-08T13:37:56Z</time>
      </trkpt>
      <trkpt lat="44.31608" lon="5.71382">
        <ele>655</ele>
        <time>2019-03-08T13:37:57Z</time>
      </trkpt>
      <trkpt lat="44.31606" lon="5.71376">
        <ele>655</ele>
        <time>2019-03-08T13:37:58Z</time>
      </trkpt>
      <trkpt lat="44.31604" lon="5.71369">
        <ele>655</ele>
        <time>2019-03-08T13:37:59Z</time>
      </trkpt>
      <trkpt lat="44.31603" lon="5.71362">
        <ele>655</ele>
        <time>2019-03-08T13:38:00Z</time>
      </trkpt>
      <trkpt lat="44.31602" lon="5.71355">
        <ele>655</ele>
        <time>2019-03-08T13:38:01Z</time>
      </trkpt>
      <trkpt lat="44.316" lon="5.71349">
        <ele>655</ele>
        <time>2019-03-08T13:38:02Z</time>
      </trkpt>
      <trkpt lat="44.31599" lon="5.71342">
        <ele>655</ele>
        <time>2019-03-08T13:38:03Z</time>
      </trkpt>
      <trkpt lat="44.31598" lon="5.71336">
        <ele>656</ele>
        <time>2019-03-08T13:38:04Z</time>
      </trkpt>
      <trkpt lat="44.31596" lon="5.71329">
        <ele>656</ele>
        <time>2019-03-08T13:38:05Z</time>
      </trkpt>
      <trkpt lat="44.31595" lon="5.71323">
        <ele>656</ele>
        <time>2019-03-08T13:38:06Z</time>
      </trkpt>
      <trkpt lat="44.31594" lon="5.71318">
        <ele>656</ele>
        <time>2019-03-08T13:38:07Z</time>
      </trkpt>
      <trkpt lat="44.31593" lon="5.71312">
        <ele>657</ele>
        <time>2019-03-08T13:38:08Z</time>
      </trkpt>
      <trkpt lat="44.31592" lon="5.71305">
        <ele>657</ele>
        <time>2019-03-08T13:38:09Z</time>
      </trkpt>
      <trkpt lat="44.31591" lon="5.71299">
        <ele>657</ele>
        <time>2019-03-08T13:38:10Z</time>
      </trkpt>
      <trkpt lat="44.3159" lon="5.71293">
        <ele>657</ele>
        <time>2019-03-08T13:38:11Z</time>
      </trkpt>
      <trkpt lat="44.31589" lon="5.71287">
        <ele>658</ele>
        <time>2019-03-08T13:38:12Z</time>
      </trkpt>
      <trkpt lat="44.31588" lon="5.71281">
        <ele>658</ele>
        <time>2019-03-08T13:38:13Z</time>
      </trkpt>
      <trkpt lat="44.31587" lon="5.71274">
        <ele>658</ele>
        <time>2019-03-08T13:38:14Z</time>
      </trkpt>
      <trkpt lat="44.31586" lon="5.71268">
        <ele>658</ele>
        <time>2019-03-08T13:38:15Z</time>
      </trkpt>
      <trkpt lat="44.31585" lon="5.71261">
        <ele>658</ele>
        <time>2019-03-08T13:38:16Z</time>
      </trkpt>
      <trkpt lat="44.31584" lon="5.71255">
        <ele>658</ele>
        <time>2019-03-08T13:38:17Z</time>
      </trkpt>
      <trkpt lat="44.31583" lon="5.71249">
        <ele>659</ele>
        <time>2019-03-08T13:38:18Z</time>
      </trkpt>
      <trkpt lat="44.31581" lon="5.71243">
        <ele>659</ele>
        <time>2019-03-08T13:38:19Z</time>
      </trkpt>
      <trkpt lat="44.3158" lon="5.71237">
        <ele>659</ele>
        <time>2019-03-08T13:38:20Z</time>
      </trkpt>
      <trkpt lat="44.31579" lon="5.71231">
        <ele>659</ele>
        <time>2019-03-08T13:38:21Z</time>
      </trkpt>
      <trkpt lat="44.31578" lon="5.71225">
        <ele>659</ele>
        <time>2019-03-08T13:38:22Z</time>
      </trkpt>
      <trkpt lat="44.31577" lon="5.71219">
        <ele>659</ele>
        <time>2019-03-08T13:38:23Z</time>
      </trkpt>
      <trkpt lat="44.31575" lon="5.71213">
        <ele>660</ele>
        <time>2019-03-08T13:38:24Z</time>
      </trkpt>
      <trkpt lat="44.31574" lon="5.71207">
        <ele>660</ele>
        <time>2019-03-08T13:38:25Z</time>
      </trkpt>
      <trkpt lat="44.31573" lon="5.712">
        <ele>660</ele>
        <time>2019-03-08T13:38:26Z</time>
      </trkpt>
      <trkpt lat="44.31571" lon="5.71194">
        <ele>660</ele>
        <time>2019-03-08T13:38:27Z</time>
      </trkpt>
      <trkpt lat="44.3157" lon="5.71187">
        <ele>660</ele>
        <time>2019-03-08T13:38:28Z</time>
      </trkpt>
      <trkpt lat="44.31569" lon="5.7118">
        <ele>660</ele>
        <time>2019-03-08T13:38:29Z</time>
      </trkpt>
      <trkpt lat="44.31568" lon="5.71173">
        <ele>660</ele>
        <time>2019-03-08T13:38:30Z</time>
      </trkpt>
      <trkpt lat="44.31567" lon="5.71166">
        <ele>660</ele>
        <time>2019-03-08T13:38:31Z</time>
      </trkpt>
      <trkpt lat="44.31565" lon="5.7116">
        <ele>660</ele>
        <time>2019-03-08T13:38:32Z</time>
      </trkpt>
      <trkpt lat="44.31564" lon="5.71153">
        <ele>660</ele>
        <time>2019-03-08T13:38:33Z</time>
      </trkpt>
      <trkpt lat="44.31562" lon="5.71147">
        <ele>660</ele>
        <time>2019-03-08T13:38:34Z</time>
      </trkpt>
      <trkpt lat="44.31561" lon="5.7114">
        <ele>660</ele>
        <time>2019-03-08T13:38:35Z</time>
      </trkpt>
      <trkpt lat="44.31559" lon="5.71134">
        <ele>660</ele>
        <time>2019-03-08T13:38:36Z</time>
      </trkpt>
      <trkpt lat="44.31557" lon="5.71128">
        <ele>660</ele>
        <time>2019-03-08T13:38:37Z</time>
      </trkpt>
      <trkpt lat="44.31556" lon="5.71122">
        <ele>660</ele>
        <time>2019-03-08T13:38:38Z</time>
      </trkpt>
      <trkpt lat="44.31554" lon="5.71116">
        <ele>660</ele>
        <time>2019-03-08T13:38:39Z</time>
      </trkpt>
      <trkpt lat="44.31553" lon="5.7111">
        <ele>660</ele>
        <time>2019-03-08T13:38:40Z</time>
      </trkpt>
      <trkpt lat="44.31551" lon="5.71104">
        <ele>660</ele>
        <time>2019-03-08T13:38:41Z</time>
      </trkpt>
      <trkpt lat="44.31549" lon="5.71099">
        <ele>660</ele>
        <time>2019-03-08T13:38:42Z</time>
      </trkpt>
      <trkpt lat="44.31547" lon="5.71093">
        <ele>661</ele>
        <time>2019-03-08T13:38:43Z</time>
      </trkpt>
      <trkpt lat="44.31546" lon="5.71088">
        <ele>661</ele>
        <time>2019-03-08T13:38:44Z</time>
      </trkpt>
      <trkpt lat="44.31544" lon="5.71082">
        <ele>661</ele>
        <time>2019-03-08T13:38:45Z</time>
      </trkpt>
      <trkpt lat="44.31542" lon="5.71076">
        <ele>661</ele>
        <time>2019-03-08T13:38:46Z</time>
      </trkpt>
      <trkpt lat="44.31541" lon="5.71071">
        <ele>661</ele>
        <time>2019-03-08T13:38:47Z</time>
      </trkpt>
      <trkpt lat="44.3154" lon="5.71065">
        <ele>661</ele>
        <time>2019-03-08T13:38:48Z</time>
      </trkpt>
      <trkpt lat="44.31538" lon="5.71059">
        <ele>662</ele>
        <time>2019-03-08T13:38:49Z</time>
      </trkpt>
      <trkpt lat="44.31538" lon="5.71053">
        <ele>662</ele>
        <time>2019-03-08T13:38:50Z</time>
      </trkpt>
      <trkpt lat="44.31536" lon="5.71046">
        <ele>662</ele>
        <time>2019-03-08T13:38:51Z</time>
      </trkpt>
      <trkpt lat="44.31536" lon="5.7104">
        <ele>662</ele>
        <time>2019-03-08T13:38:52Z</time>
      </trkpt>
      <trkpt lat="44.31535" lon="5.71033">
        <ele>662</ele>
        <time>2019-03-08T13:38:53Z</time>
      </trkpt>
      <trkpt lat="44.31534" lon="5.71027">
        <ele>662</ele>
        <time>2019-03-08T13:38:54Z</time>
      </trkpt>
      <trkpt lat="44.31534" lon="5.7102">
        <ele>662</ele>
        <time>2019-03-08T13:38:55Z</time>
      </trkpt>
      <trkpt lat="44.31534" lon="5.71013">
        <ele>663</ele>
        <time>2019-03-08T13:38:56Z</time>
      </trkpt>
      <trkpt lat="44.31534" lon="5.71006">
        <ele>663</ele>
        <time>2019-03-08T13:38:57Z</time>
      </trkpt>
      <trkpt lat="44.31534" lon="5.71">
        <ele>663</ele>
        <time>2019-03-08T13:38:58Z</time>
      </trkpt>
      <trkpt lat="44.31535" lon="5.70993">
        <ele>663</ele>
        <time>2019-03-08T13:38:59Z</time>
      </trkpt>
      <trkpt lat="44.31535" lon="5.70987">
        <ele>663</ele>
        <time>2019-03-08T13:39:00Z</time>
      </trkpt>
      <trkpt lat="44.31536" lon="5.7098">
        <ele>663</ele>
        <time>2019-03-08T13:39:01Z</time>
      </trkpt>
      <trkpt lat="44.31537" lon="5.70973">
        <ele>663</ele>
        <time>2019-03-08T13:39:02Z</time>
      </trkpt>
      <trkpt lat="44.31538" lon="5.70966">
        <ele>663</ele>
        <time>2019-03-08T13:39:03Z</time>
      </trkpt>
      <trkpt lat="44.31539" lon="5.7096">
        <ele>663</ele>
        <time>2019-03-08T13:39:04Z</time>
      </trkpt>
      <trkpt lat="44.3154" lon="5.70953">
        <ele>663</ele>
        <time>2019-03-08T13:39:05Z</time>
      </trkpt>
      <trkpt lat="44.31541" lon="5.70946">
        <ele>663</ele>
        <time>2019-03-08T13:39:06Z</time>
      </trkpt>
      <trkpt lat="44.31542" lon="5.70939">
        <ele>663</ele>
        <time>2019-03-08T13:39:07Z</time>
      </trkpt>
      <trkpt lat="44.31544" lon="5.70933">
        <ele>663</ele>
        <time>2019-03-08T13:39:08Z</time>
      </trkpt>
      <trkpt lat="44.31545" lon="5.70926">
        <ele>663</ele>
        <time>2019-03-08T13:39:09Z</time>
      </trkpt>
      <trkpt lat="44.31546" lon="5.70919">
        <ele>663</ele>
        <time>2019-03-08T13:39:10Z</time>
      </trkpt>
      <trkpt lat="44.31547" lon="5.70912">
        <ele>663</ele>
        <time>2019-03-08T13:39:11Z</time>
      </trkpt>
      <trkpt lat="44.31548" lon="5.70906">
        <ele>663</ele>
        <time>2019-03-08T13:39:12Z</time>
      </trkpt>
      <trkpt lat="44.3155" lon="5.70899">
        <ele>664</ele>
        <time>2019-03-08T13:39:13Z</time>
      </trkpt>
      <trkpt lat="44.31551" lon="5.70892">
        <ele>664</ele>
        <time>2019-03-08T13:39:14Z</time>
      </trkpt>
      <trkpt lat="44.31552" lon="5.70886">
        <ele>664</ele>
        <time>2019-03-08T13:39:15Z</time>
      </trkpt>
      <trkpt lat="44.31553" lon="5.7088">
        <ele>664</ele>
        <time>2019-03-08T13:39:16Z</time>
      </trkpt>
      <trkpt lat="44.31554" lon="5.70873">
        <ele>664</ele>
        <time>2019-03-08T13:39:17Z</time>
      </trkpt>
      <trkpt lat="44.31555" lon="5.70867">
        <ele>664</ele>
        <time>2019-03-08T13:39:18Z</time>
      </trkpt>
      <trkpt lat="44.31556" lon="5.7086">
        <ele>665</ele>
        <time>2019-03-08T13:39:19Z</time>
      </trkpt>
      <trkpt lat="44.31557" lon="5.70854">
        <ele>665</ele>
        <time>2019-03-08T13:39:20Z</time>
      </trkpt>
      <trkpt lat="44.31558" lon="5.70847">
        <ele>665</ele>
        <time>2019-03-08T13:39:21Z</time>
      </trkpt>
      <trkpt lat="44.31559" lon="5.70841">
        <ele>665</ele>
        <time>2019-03-08T13:39:22Z</time>
      </trkpt>
      <trkpt lat="44.3156" lon="5.70835">
        <ele>665</ele>
        <time>2019-03-08T13:39:23Z</time>
      </trkpt>
      <trkpt lat="44.31561" lon="5.70828">
        <ele>665</ele>
        <time>2019-03-08T13:39:24Z</time>
      </trkpt>
      <trkpt lat="44.31562" lon="5.70822">
        <ele>666</ele>
        <time>2019-03-08T13:39:25Z</time>
      </trkpt>
      <trkpt lat="44.31562" lon="5.70816">
        <ele>666</ele>
        <time>2019-03-08T13:39:26Z</time>
      </trkpt>
      <trkpt lat="44.31563" lon="5.7081">
        <ele>666</ele>
        <time>2019-03-08T13:39:27Z</time>
      </trkpt>
      <trkpt lat="44.31563" lon="5.70803">
        <ele>666</ele>
        <time>2019-03-08T13:39:28Z</time>
      </trkpt>
      <trkpt lat="44.31564" lon="5.70797">
        <ele>666</ele>
        <time>2019-03-08T13:39:29Z</time>
      </trkpt>
      <trkpt lat="44.31564" lon="5.70791">
        <ele>666</ele>
        <time>2019-03-08T13:39:30Z</time>
      </trkpt>
      <trkpt lat="44.31564" lon="5.70785">
        <ele>666</ele>
        <time>2019-03-08T13:39:31Z</time>
      </trkpt>
      <trkpt lat="44.31564" lon="5.70778">
        <ele>666</ele>
        <time>2019-03-08T13:39:32Z</time>
      </trkpt>
      <trkpt lat="44.31564" lon="5.70772">
        <ele>666</ele>
        <time>2019-03-08T13:39:33Z</time>
      </trkpt>
      <trkpt lat="44.31564" lon="5.70765">
        <ele>666</ele>
        <time>2019-03-08T13:39:34Z</time>
      </trkpt>
      <trkpt lat="44.31564" lon="5.70758">
        <ele>666</ele>
        <time>2019-03-08T13:39:35Z</time>
      </trkpt>
      <trkpt lat="44.31564" lon="5.70751">
        <ele>667</ele>
        <time>2019-03-08T13:39:36Z</time>
      </trkpt>
      <trkpt lat="44.31563" lon="5.70745">
        <ele>667</ele>
        <time>2019-03-08T13:39:37Z</time>
      </trkpt>
      <trkpt lat="44.31562" lon="5.70738">
        <ele>667</ele>
        <time>2019-03-08T13:39:38Z</time>
      </trkpt>
      <trkpt lat="44.31562" lon="5.70732">
        <ele>668</ele>
        <time>2019-03-08T13:39:39Z</time>
      </trkpt>
      <trkpt lat="44.31561" lon="5.70726">
        <ele>668</ele>
        <time>2019-03-08T13:39:40Z</time>
      </trkpt>
      <trkpt lat="44.31561" lon="5.7072">
        <ele>668</ele>
        <time>2019-03-08T13:39:41Z</time>
      </trkpt>
      <trkpt lat="44.3156" lon="5.70714">
        <ele>669</ele>
        <time>2019-03-08T13:39:42Z</time>
      </trkpt>
      <trkpt lat="44.3156" lon="5.70709">
        <ele>669</ele>
        <time>2019-03-08T13:39:43Z</time>
      </trkpt>
      <trkpt lat="44.31559" lon="5.70703">
        <ele>669</ele>
        <time>2019-03-08T13:39:44Z</time>
      </trkpt>
      <trkpt lat="44.31558" lon="5.70697">
        <ele>669</ele>
        <time>2019-03-08T13:39:45Z</time>
      </trkpt>
      <trkpt lat="44.31557" lon="5.70691">
        <ele>670</ele>
        <time>2019-03-08T13:39:46Z</time>
      </trkpt>
      <trkpt lat="44.31557" lon="5.70685">
        <ele>670</ele>
        <time>2019-03-08T13:39:47Z</time>
      </trkpt>
      <trkpt lat="44.31556" lon="5.70679">
        <ele>670</ele>
        <time>2019-03-08T13:39:48Z</time>
      </trkpt>
      <trkpt lat="44.31555" lon="5.70674">
        <ele>670</ele>
        <time>2019-03-08T13:39:49Z</time>
      </trkpt>
      <trkpt lat="44.31554" lon="5.70668">
        <ele>670</ele>
        <time>2019-03-08T13:39:50Z</time>
      </trkpt>
      <trkpt lat="44.31553" lon="5.70662">
        <ele>671</ele>
        <time>2019-03-08T13:39:51Z</time>
      </trkpt>
      <trkpt lat="44.31551" lon="5.70657">
        <ele>671</ele>
        <time>2019-03-08T13:39:52Z</time>
      </trkpt>
      <trkpt lat="44.31549" lon="5.70652">
        <ele>671</ele>
        <time>2019-03-08T13:39:53Z</time>
      </trkpt>
      <trkpt lat="44.31547" lon="5.70647">
        <ele>671</ele>
        <time>2019-03-08T13:39:54Z</time>
      </trkpt>
      <trkpt lat="44.31545" lon="5.70642">
        <ele>671</ele>
        <time>2019-03-08T13:39:55Z</time>
      </trkpt>
      <trkpt lat="44.31543" lon="5.70636">
        <ele>671</ele>
        <time>2019-03-08T13:39:56Z</time>
      </trkpt>
      <trkpt lat="44.3154" lon="5.70631">
        <ele>672</ele>
        <time>2019-03-08T13:39:57Z</time>
      </trkpt>
      <trkpt lat="44.31538" lon="5.70626">
        <ele>672</ele>
        <time>2019-03-08T13:39:58Z</time>
      </trkpt>
      <trkpt lat="44.31535" lon="5.70621">
        <ele>672</ele>
        <time>2019-03-08T13:39:59Z</time>
      </trkpt>
      <trkpt lat="44.31533" lon="5.70616">
        <ele>673</ele>
        <time>2019-03-08T13:40:00Z</time>
      </trkpt>
      <trkpt lat="44.3153" lon="5.70611">
        <ele>673</ele>
        <time>2019-03-08T13:40:01Z</time>
      </trkpt>
      <trkpt lat="44.31527" lon="5.70606">
        <ele>673</ele>
        <time>2019-03-08T13:40:02Z</time>
      </trkpt>
      <trkpt lat="44.31525" lon="5.70601">
        <ele>674</ele>
        <time>2019-03-08T13:40:03Z</time>
      </trkpt>
      <trkpt lat="44.31522" lon="5.70597">
        <ele>674</ele>
        <time>2019-03-08T13:40:04Z</time>
      </trkpt>
      <trkpt lat="44.31519" lon="5.70591">
        <ele>674</ele>
        <time>2019-03-08T13:40:05Z</time>
      </trkpt>
      <trkpt lat="44.31517" lon="5.70586">
        <ele>674</ele>
        <time>2019-03-08T13:40:06Z</time>
      </trkpt>
      <trkpt lat="44.31514" lon="5.70581">
        <ele>674</ele>
        <time>2019-03-08T13:40:07Z</time>
      </trkpt>
      <trkpt lat="44.31511" lon="5.70576">
        <ele>674</ele>
        <time>2019-03-08T13:40:08Z</time>
      </trkpt>
      <trkpt lat="44.31509" lon="5.70571">
        <ele>675</ele>
        <time>2019-03-08T13:40:09Z</time>
      </trkpt>
      <trkpt lat="44.31506" lon="5.70565">
        <ele>675</ele>
        <time>2019-03-08T13:40:10Z</time>
      </trkpt>
      <trkpt lat="44.31504" lon="5.7056">
        <ele>675</ele>
        <time>2019-03-08T13:40:11Z</time>
      </trkpt>
      <trkpt lat="44.31502" lon="5.70554">
        <ele>675</ele>
        <time>2019-03-08T13:40:12Z</time>
      </trkpt>
      <trkpt lat="44.315" lon="5.70548">
        <ele>675</ele>
        <time>2019-03-08T13:40:13Z</time>
      </trkpt>
      <trkpt lat="44.31498" lon="5.70542">
        <ele>675</ele>
        <time>2019-03-08T13:40:14Z</time>
      </trkpt>
      <trkpt lat="44.31496" lon="5.70535">
        <ele>676</ele>
        <time>2019-03-08T13:40:15Z</time>
      </trkpt>
      <trkpt lat="44.31495" lon="5.70529">
        <ele>676</ele>
        <time>2019-03-08T13:40:16Z</time>
      </trkpt>
      <trkpt lat="44.31493" lon="5.70523">
        <ele>676</ele>
        <time>2019-03-08T13:40:17Z</time>
      </trkpt>
      <trkpt lat="44.31492" lon="5.70517">
        <ele>676</ele>
        <time>2019-03-08T13:40:18Z</time>
      </trkpt>
      <trkpt lat="44.31491" lon="5.7051">
        <ele>676</ele>
        <time>2019-03-08T13:40:19Z</time>
      </trkpt>
      <trkpt lat="44.31491" lon="5.70504">
        <ele>676</ele>
        <time>2019-03-08T13:40:20Z</time>
      </trkpt>
      <trkpt lat="44.3149" lon="5.70498">
        <ele>676</ele>
        <time>2019-03-08T13:40:21Z</time>
      </trkpt>
      <trkpt lat="44.31489" lon="5.70492">
        <ele>676</ele>
        <time>2019-03-08T13:40:22Z</time>
      </trkpt>
      <trkpt lat="44.31488" lon="5.70486">
        <ele>676</ele>
        <time>2019-03-08T13:40:23Z</time>
      </trkpt>
      <trkpt lat="44.31487" lon="5.7048">
        <ele>676</ele>
        <time>2019-03-08T13:40:24Z</time>
      </trkpt>
      <trkpt lat="44.31486" lon="5.70474">
        <ele>676</ele>
        <time>2019-03-08T13:40:25Z</time>
      </trkpt>
      <trkpt lat="44.31485" lon="5.70468">
        <ele>676</ele>
        <time>2019-03-08T13:40:26Z</time>
      </trkpt>
      <trkpt lat="44.31484" lon="5.70462">
        <ele>676</ele>
        <time>2019-03-08T13:40:27Z</time>
      </trkpt>
      <trkpt lat="44.31482" lon="5.70456">
        <ele>676</ele>
        <time>2019-03-08T13:40:28Z</time>
      </trkpt>
      <trkpt lat="44.31481" lon="5.7045">
        <ele>676</ele>
        <time>2019-03-08T13:40:29Z</time>
      </trkpt>
      <trkpt lat="44.31479" lon="5.70444">
        <ele>676</ele>
        <time>2019-03-08T13:40:30Z</time>
      </trkpt>
      <trkpt lat="44.31477" lon="5.70438">
        <ele>676</ele>
        <time>2019-03-08T13:40:31Z</time>
      </trkpt>
      <trkpt lat="44.31475" lon="5.70433">
        <ele>676</ele>
        <time>2019-03-08T13:40:32Z</time>
      </trkpt>
      <trkpt lat="44.31472" lon="5.70427">
        <ele>676</ele>
        <time>2019-03-08T13:40:33Z</time>
      </trkpt>
      <trkpt lat="44.3147" lon="5.70421">
        <ele>676</ele>
        <time>2019-03-08T13:40:34Z</time>
      </trkpt>
      <trkpt lat="44.31467" lon="5.70415">
        <ele>676</ele>
        <time>2019-03-08T13:40:35Z</time>
      </trkpt>
      <trkpt lat="44.31465" lon="5.7041">
        <ele>676</ele>
        <time>2019-03-08T13:40:36Z</time>
      </trkpt>
      <trkpt lat="44.31462" lon="5.70404">
        <ele>676</ele>
        <time>2019-03-08T13:40:37Z</time>
      </trkpt>
      <trkpt lat="44.3146" lon="5.70399">
        <ele>676</ele>
        <time>2019-03-08T13:40:38Z</time>
      </trkpt>
      <trkpt lat="44.31457" lon="5.70393">
        <ele>676</ele>
        <time>2019-03-08T13:40:39Z</time>
      </trkpt>
      <trkpt lat="44.31454" lon="5.70388">
        <ele>676</ele>
        <time>2019-03-08T13:40:40Z</time>
      </trkpt>
      <trkpt lat="44.31452" lon="5.70382">
        <ele>676</ele>
        <time>2019-03-08T13:40:41Z</time>
      </trkpt>
      <trkpt lat="44.31449" lon="5.70377">
        <ele>676</ele>
        <time>2019-03-08T13:40:42Z</time>
      </trkpt>
      <trkpt lat="44.31447" lon="5.70372">
        <ele>676</ele>
        <time>2019-03-08T13:40:43Z</time>
      </trkpt>
      <trkpt lat="44.31444" lon="5.70367">
        <ele>676</ele>
        <time>2019-03-08T13:40:44Z</time>
      </trkpt>
      <trkpt lat="44.31442" lon="5.70361">
        <ele>676</ele>
        <time>2019-03-08T13:40:45Z</time>
      </trkpt>
      <trkpt lat="44.3144" lon="5.70356">
        <ele>677</ele>
        <time>2019-03-08T13:40:46Z</time>
      </trkpt>
      <trkpt lat="44.31438" lon="5.7035">
        <ele>677</ele>
        <time>2019-03-08T13:40:47Z</time>
      </trkpt>
      <trkpt lat="44.31437" lon="5.70344">
        <ele>677</ele>
        <time>2019-03-08T13:40:48Z</time>
      </trkpt>
      <trkpt lat="44.31435" lon="5.70339">
        <ele>677</ele>
        <time>2019-03-08T13:40:49Z</time>
      </trkpt>
      <trkpt lat="44.31433" lon="5.70333">
        <ele>677</ele>
        <time>2019-03-08T13:40:50Z</time>
      </trkpt>
      <trkpt lat="44.31432" lon="5.70328">
        <ele>677</ele>
        <time>2019-03-08T13:40:51Z</time>
      </trkpt>
      <trkpt lat="44.31431" lon="5.70321">
        <ele>678</ele>
        <time>2019-03-08T13:40:52Z</time>
      </trkpt>
      <trkpt lat="44.3143" lon="5.70315">
        <ele>678</ele>
        <time>2019-03-08T13:40:53Z</time>
      </trkpt>
      <trkpt lat="44.3143" lon="5.70308">
        <ele>678</ele>
        <time>2019-03-08T13:40:54Z</time>
      </trkpt>
      <trkpt lat="44.31429" lon="5.70302">
        <ele>678</ele>
        <time>2019-03-08T13:40:55Z</time>
      </trkpt>
      <trkpt lat="44.31429" lon="5.70295">
        <ele>679</ele>
        <time>2019-03-08T13:40:56Z</time>
      </trkpt>
      <trkpt lat="44.31428" lon="5.70288">
        <ele>679</ele>
        <time>2019-03-08T13:40:57Z</time>
      </trkpt>
      <trkpt lat="44.31428" lon="5.70282">
        <ele>679</ele>
        <time>2019-03-08T13:40:58Z</time>
      </trkpt>
      <trkpt lat="44.31428" lon="5.70275">
        <ele>679</ele>
        <time>2019-03-08T13:40:59Z</time>
      </trkpt>
      <trkpt lat="44.31428" lon="5.70269">
        <ele>679</ele>
        <time>2019-03-08T13:41:00Z</time>
      </trkpt>
      <trkpt lat="44.31427" lon="5.70262">
        <ele>679</ele>
        <time>2019-03-08T13:41:01Z</time>
      </trkpt>
      <trkpt lat="44.31427" lon="5.70256">
        <ele>679</ele>
        <time>2019-03-08T13:41:02Z</time>
      </trkpt>
      <trkpt lat="44.31427" lon="5.7025">
        <ele>679</ele>
        <time>2019-03-08T13:41:03Z</time>
      </trkpt>
      <trkpt lat="44.31427" lon="5.70244">
        <ele>679</ele>
        <time>2019-03-08T13:41:04Z</time>
      </trkpt>
      <trkpt lat="44.31426" lon="5.70238">
        <ele>679</ele>
        <time>2019-03-08T13:41:05Z</time>
      </trkpt>
      <trkpt lat="44.31426" lon="5.70232">
        <ele>680</ele>
        <time>2019-03-08T13:41:06Z</time>
      </trkpt>
      <trkpt lat="44.31425" lon="5.70226">
        <ele>680</ele>
        <time>2019-03-08T13:41:07Z</time>
      </trkpt>
      <trkpt lat="44.31425" lon="5.7022">
        <ele>680</ele>
        <time>2019-03-08T13:41:08Z</time>
      </trkpt>
      <trkpt lat="44.31424" lon="5.70215">
        <ele>680</ele>
        <time>2019-03-08T13:41:09Z</time>
      </trkpt>
      <trkpt lat="44.31424" lon="5.7021">
        <ele>680</ele>
        <time>2019-03-08T13:41:10Z</time>
      </trkpt>
      <trkpt lat="44.31423" lon="5.70204">
        <ele>680</ele>
        <time>2019-03-08T13:41:11Z</time>
      </trkpt>
      <trkpt lat="44.31422" lon="5.70199">
        <ele>680</ele>
        <time>2019-03-08T13:41:12Z</time>
      </trkpt>
      <trkpt lat="44.31421" lon="5.70194">
        <ele>680</ele>
        <time>2019-03-08T13:41:13Z</time>
      </trkpt>
      <trkpt lat="44.3142" lon="5.7019">
        <ele>681</ele>
        <time>2019-03-08T13:41:14Z</time>
      </trkpt>
      <trkpt lat="44.31419" lon="5.70185">
        <ele>681</ele>
        <time>2019-03-08T13:41:15Z</time>
      </trkpt>
      <trkpt lat="44.31418" lon="5.7018">
        <ele>681</ele>
        <time>2019-03-08T13:41:16Z</time>
      </trkpt>
      <trkpt lat="44.31416" lon="5.70175">
        <ele>681</ele>
        <time>2019-03-08T13:41:17Z</time>
      </trkpt>
      <trkpt lat="44.31414" lon="5.70169">
        <ele>681</ele>
        <time>2019-03-08T13:41:18Z</time>
      </trkpt>
      <trkpt lat="44.31413" lon="5.70164">
        <ele>681</ele>
        <time>2019-03-08T13:41:19Z</time>
      </trkpt>
      <trkpt lat="44.31411" lon="5.7016">
        <ele>681</ele>
        <time>2019-03-08T13:41:20Z</time>
      </trkpt>
      <trkpt lat="44.31409" lon="5.70154">
        <ele>681</ele>
        <time>2019-03-08T13:41:21Z</time>
      </trkpt>
      <trkpt lat="44.31408" lon="5.70149">
        <ele>681</ele>
        <time>2019-03-08T13:41:22Z</time>
      </trkpt>
      <trkpt lat="44.31406" lon="5.70144">
        <ele>682</ele>
        <time>2019-03-08T13:41:23Z</time>
      </trkpt>
      <trkpt lat="44.31404" lon="5.70139">
        <ele>682</ele>
        <time>2019-03-08T13:41:24Z</time>
      </trkpt>
      <trkpt lat="44.31402" lon="5.70133">
        <ele>682</ele>
        <time>2019-03-08T13:41:25Z</time>
      </trkpt>
      <trkpt lat="44.31401" lon="5.70128">
        <ele>682</ele>
        <time>2019-03-08T13:41:26Z</time>
      </trkpt>
      <trkpt lat="44.31398" lon="5.70123">
        <ele>683</ele>
        <time>2019-03-08T13:41:27Z</time>
      </trkpt>
      <trkpt lat="44.31396" lon="5.70119">
        <ele>683</ele>
        <time>2019-03-08T13:41:28Z</time>
      </trkpt>
      <trkpt lat="44.31394" lon="5.70113">
        <ele>683</ele>
        <time>2019-03-08T13:41:29Z</time>
      </trkpt>
      <trkpt lat="44.31393" lon="5.70108">
        <ele>684</ele>
        <time>2019-03-08T13:41:30Z</time>
      </trkpt>
      <trkpt lat="44.31391" lon="5.70103">
        <ele>684</ele>
        <time>2019-03-08T13:41:31Z</time>
      </trkpt>
      <trkpt lat="44.31389" lon="5.70098">
        <ele>684</ele>
        <time>2019-03-08T13:41:32Z</time>
      </trkpt>
      <trkpt lat="44.31387" lon="5.70093">
        <ele>685</ele>
        <time>2019-03-08T13:41:33Z</time>
      </trkpt>
      <trkpt lat="44.31385" lon="5.70088">
        <ele>685</ele>
        <time>2019-03-08T13:41:34Z</time>
      </trkpt>
      <trkpt lat="44.31383" lon="5.70083">
        <ele>685</ele>
        <time>2019-03-08T13:41:35Z</time>
      </trkpt>
      <trkpt lat="44.31382" lon="5.70078">
        <ele>685</ele>
        <time>2019-03-08T13:41:36Z</time>
      </trkpt>
      <trkpt lat="44.3138" lon="5.70072">
        <ele>686</ele>
        <time>2019-03-08T13:41:37Z</time>
      </trkpt>
      <trkpt lat="44.31378" lon="5.70066">
        <ele>686</ele>
        <time>2019-03-08T13:41:38Z</time>
      </trkpt>
      <trkpt lat="44.31377" lon="5.70061">
        <ele>686</ele>
        <time>2019-03-08T13:41:39Z</time>
      </trkpt>
      <trkpt lat="44.31375" lon="5.70055">
        <ele>686</ele>
        <time>2019-03-08T13:41:40Z</time>
      </trkpt>
      <trkpt lat="44.31374" lon="5.70049">
        <ele>686</ele>
        <time>2019-03-08T13:41:41Z</time>
      </trkpt>
      <trkpt lat="44.31372" lon="5.70043">
        <ele>686</ele>
        <time>2019-03-08T13:41:42Z</time>
      </trkpt>
      <trkpt lat="44.31371" lon="5.70036">
        <ele>686</ele>
        <time>2019-03-08T13:41:43Z</time>
      </trkpt>
      <trkpt lat="44.31369" lon="5.7003">
        <ele>686</ele>
        <time>2019-03-08T13:41:44Z</time>
      </trkpt>
      <trkpt lat="44.31368" lon="5.70023">
        <ele>686</ele>
        <time>2019-03-08T13:41:45Z</time>
      </trkpt>
      <trkpt lat="44.31367" lon="5.70017">
        <ele>686</ele>
        <time>2019-03-08T13:41:46Z</time>
      </trkpt>
      <trkpt lat="44.31365" lon="5.7001">
        <ele>687</ele>
        <time>2019-03-08T13:41:47Z</time>
      </trkpt>
      <trkpt lat="44.31364" lon="5.70003">
        <ele>687</ele>
        <time>2019-03-08T13:41:48Z</time>
      </trkpt>
      <trkpt lat="44.31363" lon="5.69995">
        <ele>687</ele>
        <time>2019-03-08T13:41:49Z</time>
      </trkpt>
      <trkpt lat="44.31362" lon="5.69988">
        <ele>687</ele>
        <time>2019-03-08T13:41:50Z</time>
      </trkpt>
      <trkpt lat="44.31361" lon="5.69981">
        <ele>687</ele>
        <time>2019-03-08T13:41:51Z</time>
      </trkpt>
      <trkpt lat="44.3136" lon="5.69974">
        <ele>687</ele>
        <time>2019-03-08T13:41:52Z</time>
      </trkpt>
      <trkpt lat="44.31359" lon="5.69967">
        <ele>687</ele>
        <time>2019-03-08T13:41:53Z</time>
      </trkpt>
      <trkpt lat="44.31358" lon="5.6996">
        <ele>687</ele>
        <time>2019-03-08T13:41:54Z</time>
      </trkpt>
      <trkpt lat="44.31356" lon="5.69952">
        <ele>687</ele>
        <time>2019-03-08T13:41:55Z</time>
      </trkpt>
      <trkpt lat="44.31355" lon="5.69945">
        <ele>687</ele>
        <time>2019-03-08T13:41:56Z</time>
      </trkpt>
      <trkpt lat="44.31353" lon="5.69937">
        <ele>687</ele>
        <time>2019-03-08T13:41:57Z</time>
      </trkpt>
      <trkpt lat="44.31351" lon="5.6993">
        <ele>687</ele>
        <time>2019-03-08T13:41:58Z</time>
      </trkpt>
      <trkpt lat="44.3135" lon="5.69922">
        <ele>687</ele>
        <time>2019-03-08T13:41:59Z</time>
      </trkpt>
      <trkpt lat="44.31348" lon="5.69915">
        <ele>687</ele>
        <time>2019-03-08T13:42:00Z</time>
      </trkpt>
      <trkpt lat="44.31346" lon="5.69909">
        <ele>687</ele>
        <time>2019-03-08T13:42:01Z</time>
      </trkpt>
      <trkpt lat="44.31345" lon="5.69902">
        <ele>687</ele>
        <time>2019-03-08T13:42:02Z</time>
      </trkpt>
      <trkpt lat="44.31343" lon="5.69895">
        <ele>687</ele>
        <time>2019-03-08T13:42:03Z</time>
      </trkpt>
      <trkpt lat="44.31341" lon="5.69888">
        <ele>687</ele>
        <time>2019-03-08T13:42:04Z</time>
      </trkpt>
      <trkpt lat="44.31339" lon="5.69881">
        <ele>687</ele>
        <time>2019-03-08T13:42:05Z</time>
      </trkpt>
      <trkpt lat="44.31337" lon="5.69875">
        <ele>687</ele>
        <time>2019-03-08T13:42:06Z</time>
      </trkpt>
      <trkpt lat="44.31336" lon="5.69868">
        <ele>687</ele>
        <time>2019-03-08T13:42:07Z</time>
      </trkpt>
      <trkpt lat="44.31335" lon="5.69861">
        <ele>687</ele>
        <time>2019-03-08T13:42:08Z</time>
      </trkpt>
      <trkpt lat="44.31333" lon="5.69854">
        <ele>687</ele>
        <time>2019-03-08T13:42:09Z</time>
      </trkpt>
      <trkpt lat="44.31332" lon="5.69847">
        <ele>687</ele>
        <time>2019-03-08T13:42:10Z</time>
      </trkpt>
      <trkpt lat="44.3133" lon="5.6984">
        <ele>687</ele>
        <time>2019-03-08T13:42:11Z</time>
      </trkpt>
      <trkpt lat="44.31329" lon="5.69833">
        <ele>687</ele>
        <time>2019-03-08T13:42:12Z</time>
      </trkpt>
      <trkpt lat="44.31327" lon="5.69825">
        <ele>687</ele>
        <time>2019-03-08T13:42:13Z</time>
      </trkpt>
      <trkpt lat="44.31326" lon="5.69818">
        <ele>687</ele>
        <time>2019-03-08T13:42:14Z</time>
      </trkpt>
      <trkpt lat="44.31325" lon="5.6981">
        <ele>687</ele>
        <time>2019-03-08T13:42:15Z</time>
      </trkpt>
      <trkpt lat="44.31324" lon="5.69803">
        <ele>687</ele>
        <time>2019-03-08T13:42:16Z</time>
      </trkpt>
      <trkpt lat="44.31324" lon="5.69795">
        <ele>687</ele>
        <time>2019-03-08T13:42:17Z</time>
      </trkpt>
      <trkpt lat="44.31324" lon="5.69788">
        <ele>687</ele>
        <time>2019-03-08T13:42:18Z</time>
      </trkpt>
      <trkpt lat="44.31324" lon="5.6978">
        <ele>687</ele>
        <time>2019-03-08T13:42:19Z</time>
      </trkpt>
      <trkpt lat="44.31323" lon="5.69772">
        <ele>687</ele>
        <time>2019-03-08T13:42:20Z</time>
      </trkpt>
      <trkpt lat="44.31323" lon="5.69765">
        <ele>687</ele>
        <time>2019-03-08T13:42:21Z</time>
      </trkpt>
      <trkpt lat="44.31324" lon="5.69757">
        <ele>687</ele>
        <time>2019-03-08T13:42:22Z</time>
      </trkpt>
      <trkpt lat="44.31324" lon="5.6975">
        <ele>687</ele>
        <time>2019-03-08T13:42:23Z</time>
      </trkpt>
      <trkpt lat="44.31324" lon="5.69743">
        <ele>687</ele>
        <time>2019-03-08T13:42:24Z</time>
      </trkpt>
      <trkpt lat="44.31325" lon="5.69735">
        <ele>687</ele>
        <time>2019-03-08T13:42:25Z</time>
      </trkpt>
      <trkpt lat="44.31325" lon="5.69728">
        <ele>687</ele>
        <time>2019-03-08T13:42:26Z</time>
      </trkpt>
      <trkpt lat="44.31326" lon="5.69721">
        <ele>687</ele>
        <time>2019-03-08T13:42:27Z</time>
      </trkpt>
      <trkpt lat="44.31327" lon="5.69713">
        <ele>687</ele>
        <time>2019-03-08T13:42:28Z</time>
      </trkpt>
      <trkpt lat="44.31327" lon="5.69706">
        <ele>687</ele>
        <time>2019-03-08T13:42:29Z</time>
      </trkpt>
      <trkpt lat="44.31328" lon="5.69699">
        <ele>687</ele>
        <time>2019-03-08T13:42:30Z</time>
      </trkpt>
      <trkpt lat="44.31328" lon="5.69692">
        <ele>687</ele>
        <time>2019-03-08T13:42:31Z</time>
      </trkpt>
      <trkpt lat="44.31328" lon="5.69685">
        <ele>687</ele>
        <time>2019-03-08T13:42:32Z</time>
      </trkpt>
      <trkpt lat="44.31328" lon="5.69678">
        <ele>687</ele>
        <time>2019-03-08T13:42:33Z</time>
      </trkpt>
      <trkpt lat="44.31329" lon="5.69671">
        <ele>687</ele>
        <time>2019-03-08T13:42:34Z</time>
      </trkpt>
      <trkpt lat="44.31329" lon="5.69664">
        <ele>687</ele>
        <time>2019-03-08T13:42:35Z</time>
      </trkpt>
      <trkpt lat="44.31329" lon="5.69657">
        <ele>687</ele>
        <time>2019-03-08T13:42:36Z</time>
      </trkpt>
      <trkpt lat="44.31329" lon="5.6965">
        <ele>687</ele>
        <time>2019-03-08T13:42:37Z</time>
      </trkpt>
      <trkpt lat="44.31329" lon="5.69643">
        <ele>687</ele>
        <time>2019-03-08T13:42:38Z</time>
      </trkpt>
      <trkpt lat="44.3133" lon="5.69636">
        <ele>687</ele>
        <time>2019-03-08T13:42:39Z</time>
      </trkpt>
      <trkpt lat="44.3133" lon="5.6963">
        <ele>687</ele>
        <time>2019-03-08T13:42:40Z</time>
      </trkpt>
      <trkpt lat="44.3133" lon="5.69623">
        <ele>687</ele>
        <time>2019-03-08T13:42:41Z</time>
      </trkpt>
      <trkpt lat="44.3133" lon="5.69617">
        <ele>687</ele>
        <time>2019-03-08T13:42:42Z</time>
      </trkpt>
      <trkpt lat="44.31331" lon="5.6961">
        <ele>687</ele>
        <time>2019-03-08T13:42:43Z</time>
      </trkpt>
      <trkpt lat="44.31331" lon="5.69604">
        <ele>687</ele>
        <time>2019-03-08T13:42:44Z</time>
      </trkpt>
      <trkpt lat="44.31332" lon="5.69598">
        <ele>687</ele>
        <time>2019-03-08T13:42:45Z</time>
      </trkpt>
      <trkpt lat="44.31332" lon="5.69592">
        <ele>687</ele>
        <time>2019-03-08T13:42:46Z</time>
      </trkpt>
      <trkpt lat="44.31332" lon="5.69585">
        <ele>687</ele>
        <time>2019-03-08T13:42:47Z</time>
      </trkpt>
      <trkpt lat="44.31332" lon="5.69579">
        <ele>687</ele>
        <time>2019-03-08T13:42:48Z</time>
      </trkpt>
      <trkpt lat="44.31333" lon="5.69572">
        <ele>687</ele>
        <time>2019-03-08T13:42:49Z</time>
      </trkpt>
      <trkpt lat="44.31333" lon="5.69566">
        <ele>687</ele>
        <time>2019-03-08T13:42:50Z</time>
      </trkpt>
      <trkpt lat="44.31334" lon="5.69559">
        <ele>687</ele>
        <time>2019-03-08T13:42:51Z</time>
      </trkpt>
      <trkpt lat="44.31335" lon="5.69553">
        <ele>687</ele>
        <time>2019-03-08T13:42:52Z</time>
      </trkpt>
      <trkpt lat="44.31336" lon="5.69546">
        <ele>687</ele>
        <time>2019-03-08T13:42:53Z</time>
      </trkpt>
      <trkpt lat="44.31337" lon="5.69539">
        <ele>687</ele>
        <time>2019-03-08T13:42:54Z</time>
      </trkpt>
      <trkpt lat="44.31339" lon="5.69533">
        <ele>687</ele>
        <time>2019-03-08T13:42:55Z</time>
      </trkpt>
      <trkpt lat="44.3134" lon="5.69526">
        <ele>687</ele>
        <time>2019-03-08T13:42:56Z</time>
      </trkpt>
      <trkpt lat="44.31341" lon="5.6952">
        <ele>687</ele>
        <time>2019-03-08T13:42:57Z</time>
      </trkpt>
      <trkpt lat="44.31343" lon="5.69513">
        <ele>687</ele>
        <time>2019-03-08T13:42:58Z</time>
      </trkpt>
      <trkpt lat="44.31345" lon="5.69506">
        <ele>687</ele>
        <time>2019-03-08T13:42:59Z</time>
      </trkpt>
      <trkpt lat="44.31346" lon="5.69499">
        <ele>687</ele>
        <time>2019-03-08T13:43:00Z</time>
      </trkpt>
      <trkpt lat="44.31348" lon="5.69492">
        <ele>687</ele>
        <time>2019-03-08T13:43:01Z</time>
      </trkpt>
      <trkpt lat="44.31349" lon="5.69485">
        <ele>687</ele>
        <time>2019-03-08T13:43:02Z</time>
      </trkpt>
      <trkpt lat="44.31351" lon="5.69478">
        <ele>687</ele>
        <time>2019-03-08T13:43:03Z</time>
      </trkpt>
      <trkpt lat="44.31353" lon="5.69471">
        <ele>687</ele>
        <time>2019-03-08T13:43:04Z</time>
      </trkpt>
      <trkpt lat="44.31354" lon="5.69464">
        <ele>687</ele>
        <time>2019-03-08T13:43:05Z</time>
      </trkpt>
      <trkpt lat="44.31356" lon="5.69457">
        <ele>687</ele>
        <time>2019-03-08T13:43:06Z</time>
      </trkpt>
      <trkpt lat="44.31357" lon="5.69451">
        <ele>687</ele>
        <time>2019-03-08T13:43:07Z</time>
      </trkpt>
      <trkpt lat="44.31358" lon="5.69444">
        <ele>687</ele>
        <time>2019-03-08T13:43:08Z</time>
      </trkpt>
      <trkpt lat="44.31359" lon="5.69437">
        <ele>687</ele>
        <time>2019-03-08T13:43:09Z</time>
      </trkpt>
      <trkpt lat="44.31359" lon="5.69429">
        <ele>687</ele>
        <time>2019-03-08T13:43:10Z</time>
      </trkpt>
      <trkpt lat="44.3136" lon="5.69421">
        <ele>687</ele>
        <time>2019-03-08T13:43:11Z</time>
      </trkpt>
      <trkpt lat="44.31359" lon="5.69414">
        <ele>687</ele>
        <time>2019-03-08T13:43:12Z</time>
      </trkpt>
      <trkpt lat="44.31359" lon="5.69406">
        <ele>687</ele>
        <time>2019-03-08T13:43:13Z</time>
      </trkpt>
      <trkpt lat="44.31359" lon="5.69397">
        <ele>687</ele>
        <time>2019-03-08T13:43:14Z</time>
      </trkpt>
      <trkpt lat="44.31358" lon="5.69389">
        <ele>687</ele>
        <time>2019-03-08T13:43:15Z</time>
      </trkpt>
      <trkpt lat="44.31358" lon="5.69381">
        <ele>687</ele>
        <time>2019-03-08T13:43:16Z</time>
      </trkpt>
      <trkpt lat="44.31357" lon="5.69373">
        <ele>687</ele>
        <time>2019-03-08T13:43:17Z</time>
      </trkpt>
      <trkpt lat="44.31357" lon="5.69365">
        <ele>686</ele>
        <time>2019-03-08T13:43:18Z</time>
      </trkpt>
      <trkpt lat="44.31356" lon="5.69357">
        <ele>686</ele>
        <time>2019-03-08T13:43:19Z</time>
      </trkpt>
      <trkpt lat="44.31356" lon="5.6935">
        <ele>686</ele>
        <time>2019-03-08T13:43:20Z</time>
      </trkpt>
      <trkpt lat="44.31355" lon="5.69343">
        <ele>685</ele>
        <time>2019-03-08T13:43:21Z</time>
      </trkpt>
      <trkpt lat="44.31355" lon="5.69337">
        <ele>685</ele>
        <time>2019-03-08T13:43:22Z</time>
      </trkpt>
      <trkpt lat="44.31355" lon="5.6933">
        <ele>685</ele>
        <time>2019-03-08T13:43:23Z</time>
      </trkpt>
      <trkpt lat="44.31354" lon="5.69323">
        <ele>685</ele>
        <time>2019-03-08T13:43:24Z</time>
      </trkpt>
      <trkpt lat="44.31353" lon="5.69315">
        <ele>684</ele>
        <time>2019-03-08T13:43:25Z</time>
      </trkpt>
      <trkpt lat="44.31353" lon="5.69308">
        <ele>684</ele>
        <time>2019-03-08T13:43:26Z</time>
      </trkpt>
      <trkpt lat="44.31352" lon="5.69301">
        <ele>684</ele>
        <time>2019-03-08T13:43:27Z</time>
      </trkpt>
      <trkpt lat="44.31352" lon="5.69293">
        <ele>684</ele>
        <time>2019-03-08T13:43:28Z</time>
      </trkpt>
      <trkpt lat="44.31351" lon="5.69285">
        <ele>684</ele>
        <time>2019-03-08T13:43:29Z</time>
      </trkpt>
      <trkpt lat="44.31351" lon="5.69279">
        <ele>684</ele>
        <time>2019-03-08T13:43:30Z</time>
      </trkpt>
      <trkpt lat="44.3135" lon="5.69272">
        <ele>684</ele>
        <time>2019-03-08T13:43:31Z</time>
      </trkpt>
      <trkpt lat="44.31348" lon="5.69264">
        <ele>684</ele>
        <time>2019-03-08T13:43:32Z</time>
      </trkpt>
      <trkpt lat="44.31346" lon="5.69259">
        <ele>684</ele>
        <time>2019-03-08T13:43:33Z</time>
      </trkpt>
      <trkpt lat="44.31342" lon="5.69253">
        <ele>684</ele>
        <time>2019-03-08T13:43:34Z</time>
      </trkpt>
      <trkpt lat="44.31337" lon="5.69247">
        <ele>684</ele>
        <time>2019-03-08T13:43:35Z</time>
      </trkpt>
      <trkpt lat="44.31332" lon="5.69241">
        <ele>684</ele>
        <time>2019-03-08T13:43:36Z</time>
      </trkpt>
      <trkpt lat="44.31326" lon="5.69235">
        <ele>684</ele>
        <time>2019-03-08T13:43:37Z</time>
      </trkpt>
      <trkpt lat="44.3132" lon="5.69229">
        <ele>684</ele>
        <time>2019-03-08T13:43:38Z</time>
      </trkpt>
      <trkpt lat="44.31314" lon="5.69223">
        <ele>684</ele>
        <time>2019-03-08T13:43:39Z</time>
      </trkpt>
      <trkpt lat="44.31309" lon="5.69217">
        <ele>684</ele>
        <time>2019-03-08T13:43:40Z</time>
      </trkpt>
      <trkpt lat="44.31303" lon="5.6921">
        <ele>684</ele>
        <time>2019-03-08T13:43:41Z</time>
      </trkpt>
      <trkpt lat="44.31298" lon="5.69203">
        <ele>685</ele>
        <time>2019-03-08T13:43:42Z</time>
      </trkpt>
      <trkpt lat="44.31293" lon="5.69196">
        <ele>685</ele>
        <time>2019-03-08T13:43:43Z</time>
      </trkpt>
      <trkpt lat="44.3129" lon="5.69188">
        <ele>685</ele>
        <time>2019-03-08T13:43:44Z</time>
      </trkpt>
      <trkpt lat="44.31288" lon="5.69179">
        <ele>685</ele>
        <time>2019-03-08T13:43:45Z</time>
      </trkpt>
      <trkpt lat="44.31287" lon="5.69171">
        <ele>685</ele>
        <time>2019-03-08T13:43:46Z</time>
      </trkpt>
      <trkpt lat="44.31285" lon="5.69163">
        <ele>685</ele>
        <time>2019-03-08T13:43:47Z</time>
      </trkpt>
      <trkpt lat="44.31282" lon="5.69155">
        <ele>685</ele>
        <time>2019-03-08T13:43:48Z</time>
      </trkpt>
      <trkpt lat="44.31281" lon="5.69148">
        <ele>685</ele>
        <time>2019-03-08T13:43:49Z</time>
      </trkpt>
      <trkpt lat="44.3128" lon="5.6914">
        <ele>685</ele>
        <time>2019-03-08T13:43:50Z</time>
      </trkpt>
      <trkpt lat="44.31279" lon="5.69132">
        <ele>685</ele>
        <time>2019-03-08T13:43:51Z</time>
      </trkpt>
      <trkpt lat="44.31279" lon="5.69124">
        <ele>685</ele>
        <time>2019-03-08T13:43:52Z</time>
      </trkpt>
      <trkpt lat="44.31278" lon="5.69116">
        <ele>685</ele>
        <time>2019-03-08T13:43:53Z</time>
      </trkpt>
      <trkpt lat="44.31277" lon="5.69108">
        <ele>685</ele>
        <time>2019-03-08T13:43:54Z</time>
      </trkpt>
      <trkpt lat="44.31277" lon="5.69101">
        <ele>686</ele>
        <time>2019-03-08T13:43:55Z</time>
      </trkpt>
      <trkpt lat="44.31277" lon="5.69094">
        <ele>687</ele>
        <time>2019-03-08T13:43:56Z</time>
      </trkpt>
      <trkpt lat="44.31278" lon="5.69086">
        <ele>687</ele>
        <time>2019-03-08T13:43:57Z</time>
      </trkpt>
      <trkpt lat="44.31278" lon="5.69078">
        <ele>687</ele>
        <time>2019-03-08T13:43:58Z</time>
      </trkpt>
      <trkpt lat="44.31278" lon="5.6907">
        <ele>687</ele>
        <time>2019-03-08T13:43:59Z</time>
      </trkpt>
      <trkpt lat="44.31277" lon="5.69063">
        <ele>687</ele>
        <time>2019-03-08T13:44:00Z</time>
      </trkpt>
      <trkpt lat="44.31277" lon="5.69055">
        <ele>687</ele>
        <time>2019-03-08T13:44:01Z</time>
      </trkpt>
      <trkpt lat="44.31278" lon="5.69048">
        <ele>687</ele>
        <time>2019-03-08T13:44:02Z</time>
      </trkpt>
      <trkpt lat="44.31278" lon="5.6904">
        <ele>687</ele>
        <time>2019-03-08T13:44:03Z</time>
      </trkpt>
      <trkpt lat="44.31279" lon="5.69032">
        <ele>687</ele>
        <time>2019-03-08T13:44:04Z</time>
      </trkpt>
      <trkpt lat="44.3128" lon="5.69026">
        <ele>687</ele>
        <time>2019-03-08T13:44:05Z</time>
      </trkpt>
      <trkpt lat="44.31282" lon="5.69019">
        <ele>687</ele>
        <time>2019-03-08T13:44:06Z</time>
      </trkpt>
      <trkpt lat="44.31283" lon="5.69013">
        <ele>687</ele>
        <time>2019-03-08T13:44:07Z</time>
      </trkpt>
      <trkpt lat="44.31284" lon="5.69007">
        <ele>687</ele>
        <time>2019-03-08T13:44:08Z</time>
      </trkpt>
      <trkpt lat="44.31285" lon="5.69">
        <ele>687</ele>
        <time>2019-03-08T13:44:09Z</time>
      </trkpt>
      <trkpt lat="44.31287" lon="5.68994">
        <ele>687</ele>
        <time>2019-03-08T13:44:10Z</time>
      </trkpt>
      <trkpt lat="44.31289" lon="5.68988">
        <ele>687</ele>
        <time>2019-03-08T13:44:11Z</time>
      </trkpt>
      <trkpt lat="44.3129" lon="5.68981">
        <ele>687</ele>
        <time>2019-03-08T13:44:12Z</time>
      </trkpt>
      <trkpt lat="44.31292" lon="5.68974">
        <ele>686</ele>
        <time>2019-03-08T13:44:13Z</time>
      </trkpt>
      <trkpt lat="44.31295" lon="5.68967">
        <ele>686</ele>
        <time>2019-03-08T13:44:14Z</time>
      </trkpt>
      <trkpt lat="44.31297" lon="5.6896">
        <ele>686</ele>
        <time>2019-03-08T13:44:15Z</time>
      </trkpt>
      <trkpt lat="44.31299" lon="5.68953">
        <ele>685</ele>
        <time>2019-03-08T13:44:16Z</time>
      </trkpt>
      <trkpt lat="44.31301" lon="5.68947">
        <ele>685</ele>
        <time>2019-03-08T13:44:17Z</time>
      </trkpt>
      <trkpt lat="44.31304" lon="5.6894">
        <ele>685</ele>
        <time>2019-03-08T13:44:18Z</time>
      </trkpt>
      <trkpt lat="44.31308" lon="5.68934">
        <ele>685</ele>
        <time>2019-03-08T13:44:19Z</time>
      </trkpt>
      <trkpt lat="44.31311" lon="5.68929">
        <ele>685</ele>
        <time>2019-03-08T13:44:20Z</time>
      </trkpt>
      <trkpt lat="44.31315" lon="5.68925">
        <ele>685</ele>
        <time>2019-03-08T13:44:21Z</time>
      </trkpt>
      <trkpt lat="44.3132" lon="5.68921">
        <ele>685</ele>
        <time>2019-03-08T13:44:22Z</time>
      </trkpt>
      <trkpt lat="44.31324" lon="5.68918">
        <ele>685</ele>
        <time>2019-03-08T13:44:23Z</time>
      </trkpt>
      <trkpt lat="44.31329" lon="5.68916">
        <ele>685</ele>
        <time>2019-03-08T13:44:24Z</time>
      </trkpt>
      <trkpt lat="44.31335" lon="5.68913">
        <ele>685</ele>
        <time>2019-03-08T13:44:25Z</time>
      </trkpt>
      <trkpt lat="44.31339" lon="5.6891">
        <ele>685</ele>
        <time>2019-03-08T13:44:26Z</time>
      </trkpt>
      <trkpt lat="44.31344" lon="5.68906">
        <ele>685</ele>
        <time>2019-03-08T13:44:27Z</time>
      </trkpt>
      <trkpt lat="44.31348" lon="5.68903">
        <ele>685</ele>
        <time>2019-03-08T13:44:28Z</time>
      </trkpt>
      <trkpt lat="44.31353" lon="5.689">
        <ele>685</ele>
        <time>2019-03-08T13:44:29Z</time>
      </trkpt>
      <trkpt lat="44.31358" lon="5.68898">
        <ele>685</ele>
        <time>2019-03-08T13:44:30Z</time>
      </trkpt>
      <trkpt lat="44.31362" lon="5.68894">
        <ele>685</ele>
        <time>2019-03-08T13:44:31Z</time>
      </trkpt>
      <trkpt lat="44.31367" lon="5.68891">
        <ele>685</ele>
        <time>2019-03-08T13:44:32Z</time>
      </trkpt>
      <trkpt lat="44.31372" lon="5.68888">
        <ele>685</ele>
        <time>2019-03-08T13:44:33Z</time>
      </trkpt>
      <trkpt lat="44.31376" lon="5.68885">
        <ele>685</ele>
        <time>2019-03-08T13:44:34Z</time>
      </trkpt>
      <trkpt lat="44.3138" lon="5.68883">
        <ele>685</ele>
        <time>2019-03-08T13:44:35Z</time>
      </trkpt>
      <trkpt lat="44.31385" lon="5.68879">
        <ele>685</ele>
        <time>2019-03-08T13:44:36Z</time>
      </trkpt>
      <trkpt lat="44.31389" lon="5.68876">
        <ele>685</ele>
        <time>2019-03-08T13:44:37Z</time>
      </trkpt>
      <trkpt lat="44.31393" lon="5.68874">
        <ele>685</ele>
        <time>2019-03-08T13:44:38Z</time>
      </trkpt>
      <trkpt lat="44.31397" lon="5.6887">
        <ele>685</ele>
        <time>2019-03-08T13:44:39Z</time>
      </trkpt>
      <trkpt lat="44.31402" lon="5.68867">
        <ele>685</ele>
        <time>2019-03-08T13:44:40Z</time>
      </trkpt>
      <trkpt lat="44.31406" lon="5.68864">
        <ele>685</ele>
        <time>2019-03-08T13:44:41Z</time>
      </trkpt>
      <trkpt lat="44.31411" lon="5.68861">
        <ele>685</ele>
        <time>2019-03-08T13:44:42Z</time>
      </trkpt>
      <trkpt lat="44.31415" lon="5.68858">
        <ele>685</ele>
        <time>2019-03-08T13:44:43Z</time>
      </trkpt>
      <trkpt lat="44.31419" lon="5.68856">
        <ele>685</ele>
        <time>2019-03-08T13:44:44Z</time>
      </trkpt>
      <trkpt lat="44.31424" lon="5.68853">
        <ele>685</ele>
        <time>2019-03-08T13:44:45Z</time>
      </trkpt>
      <trkpt lat="44.31428" lon="5.6885">
        <ele>685</ele>
        <time>2019-03-08T13:44:46Z</time>
      </trkpt>
      <trkpt lat="44.31432" lon="5.68847">
        <ele>685</ele>
        <time>2019-03-08T13:44:47Z</time>
      </trkpt>
      <trkpt lat="44.31436" lon="5.68843">
        <ele>685</ele>
        <time>2019-03-08T13:44:48Z</time>
      </trkpt>
      <trkpt lat="44.3144" lon="5.68839">
        <ele>685</ele>
        <time>2019-03-08T13:44:49Z</time>
      </trkpt>
      <trkpt lat="44.31444" lon="5.68836">
        <ele>685</ele>
        <time>2019-03-08T13:44:50Z</time>
      </trkpt>
      <trkpt lat="44.31448" lon="5.68832">
        <ele>685</ele>
        <time>2019-03-08T13:44:51Z</time>
      </trkpt>
      <trkpt lat="44.31452" lon="5.68828">
        <ele>685</ele>
        <time>2019-03-08T13:44:52Z</time>
      </trkpt>
      <trkpt lat="44.31455" lon="5.68823">
        <ele>685</ele>
        <time>2019-03-08T13:44:53Z</time>
      </trkpt>
      <trkpt lat="44.31458" lon="5.68819">
        <ele>685</ele>
        <time>2019-03-08T13:44:54Z</time>
      </trkpt>
      <trkpt lat="44.31461" lon="5.68813">
        <ele>685</ele>
        <time>2019-03-08T13:44:55Z</time>
      </trkpt>
      <trkpt lat="44.31463" lon="5.68808">
        <ele>685</ele>
        <time>2019-03-08T13:44:56Z</time>
      </trkpt>
      <trkpt lat="44.31466" lon="5.68802">
        <ele>685</ele>
        <time>2019-03-08T13:44:57Z</time>
      </trkpt>
      <trkpt lat="44.31468" lon="5.68797">
        <ele>685</ele>
        <time>2019-03-08T13:44:58Z</time>
      </trkpt>
      <trkpt lat="44.3147" lon="5.68791">
        <ele>685</ele>
        <time>2019-03-08T13:44:59Z</time>
      </trkpt>
      <trkpt lat="44.31472" lon="5.68785">
        <ele>685</ele>
        <time>2019-03-08T13:45:00Z</time>
      </trkpt>
      <trkpt lat="44.31475" lon="5.68779">
        <ele>685</ele>
        <time>2019-03-08T13:45:01Z</time>
      </trkpt>
      <trkpt lat="44.31476" lon="5.68773">
        <ele>685</ele>
        <time>2019-03-08T13:45:02Z</time>
      </trkpt>
      <trkpt lat="44.31478" lon="5.68767">
        <ele>685</ele>
        <time>2019-03-08T13:45:03Z</time>
      </trkpt>
      <trkpt lat="44.3148" lon="5.68761">
        <ele>685</ele>
        <time>2019-03-08T13:45:04Z</time>
      </trkpt>
      <trkpt lat="44.31482" lon="5.68755">
        <ele>685</ele>
        <time>2019-03-08T13:45:05Z</time>
      </trkpt>
      <trkpt lat="44.31484" lon="5.68749">
        <ele>685</ele>
        <time>2019-03-08T13:45:06Z</time>
      </trkpt>
      <trkpt lat="44.31485" lon="5.68743">
        <ele>685</ele>
        <time>2019-03-08T13:45:07Z</time>
      </trkpt>
      <trkpt lat="44.31487" lon="5.68737">
        <ele>685</ele>
        <time>2019-03-08T13:45:08Z</time>
      </trkpt>
      <trkpt lat="44.31488" lon="5.6873">
        <ele>685</ele>
        <time>2019-03-08T13:45:09Z</time>
      </trkpt>
      <trkpt lat="44.31489" lon="5.68723">
        <ele>685</ele>
        <time>2019-03-08T13:45:10Z</time>
      </trkpt>
      <trkpt lat="44.3149" lon="5.68716">
        <ele>685</ele>
        <time>2019-03-08T13:45:11Z</time>
      </trkpt>
      <trkpt lat="44.31491" lon="5.6871">
        <ele>685</ele>
        <time>2019-03-08T13:45:12Z</time>
      </trkpt>
      <trkpt lat="44.31492" lon="5.68703">
        <ele>685</ele>
        <time>2019-03-08T13:45:13Z</time>
      </trkpt>
      <trkpt lat="44.31493" lon="5.68696">
        <ele>685</ele>
        <time>2019-03-08T13:45:14Z</time>
      </trkpt>
      <trkpt lat="44.31493" lon="5.68689">
        <ele>685</ele>
        <time>2019-03-08T13:45:15Z</time>
      </trkpt>
      <trkpt lat="44.31493" lon="5.68682">
        <ele>685</ele>
        <time>2019-03-08T13:45:16Z</time>
      </trkpt>
      <trkpt lat="44.31493" lon="5.68675">
        <ele>685</ele>
        <time>2019-03-08T13:45:17Z</time>
      </trkpt>
      <trkpt lat="44.31493" lon="5.68668">
        <ele>685</ele>
        <time>2019-03-08T13:45:18Z</time>
      </trkpt>
      <trkpt lat="44.31492" lon="5.68661">
        <ele>685</ele>
        <time>2019-03-08T13:45:20Z</time>
      </trkpt>
      <trkpt lat="44.31491" lon="5.68654">
        <ele>685</ele>
        <time>2019-03-08T13:45:20Z</time>
      </trkpt>
      <trkpt lat="44.31491" lon="5.68647">
        <ele>685</ele>
        <time>2019-03-08T13:45:21Z</time>
      </trkpt>
      <trkpt lat="44.3149" lon="5.68641">
        <ele>685</ele>
        <time>2019-03-08T13:45:22Z</time>
      </trkpt>
      <trkpt lat="44.3149" lon="5.68634">
        <ele>685</ele>
        <time>2019-03-08T13:45:23Z</time>
      </trkpt>
      <trkpt lat="44.31489" lon="5.68627">
        <ele>685</ele>
        <time>2019-03-08T13:45:24Z</time>
      </trkpt>
      <trkpt lat="44.31489" lon="5.6862">
        <ele>685</ele>
        <time>2019-03-08T13:45:25Z</time>
      </trkpt>
      <trkpt lat="44.31489" lon="5.68614">
        <ele>685</ele>
        <time>2019-03-08T13:45:26Z</time>
      </trkpt>
      <trkpt lat="44.3149" lon="5.68607">
        <ele>685</ele>
        <time>2019-03-08T13:45:27Z</time>
      </trkpt>
      <trkpt lat="44.3149" lon="5.686">
        <ele>685</ele>
        <time>2019-03-08T13:45:28Z</time>
      </trkpt>
      <trkpt lat="44.31491" lon="5.68593">
        <ele>685</ele>
        <time>2019-03-08T13:45:29Z</time>
      </trkpt>
      <trkpt lat="44.31491" lon="5.68585">
        <ele>685</ele>
        <time>2019-03-08T13:45:30Z</time>
      </trkpt>
      <trkpt lat="44.31492" lon="5.68578">
        <ele>685</ele>
        <time>2019-03-08T13:45:31Z</time>
      </trkpt>
      <trkpt lat="44.31492" lon="5.68571">
        <ele>685</ele>
        <time>2019-03-08T13:45:32Z</time>
      </trkpt>
      <trkpt lat="44.31493" lon="5.68563">
        <ele>685</ele>
        <time>2019-03-08T13:45:33Z</time>
      </trkpt>
      <trkpt lat="44.31493" lon="5.68556">
        <ele>685</ele>
        <time>2019-03-08T13:45:34Z</time>
      </trkpt>
      <trkpt lat="44.31494" lon="5.68549">
        <ele>685</ele>
        <time>2019-03-08T13:45:35Z</time>
      </trkpt>
      <trkpt lat="44.31495" lon="5.68542">
        <ele>685</ele>
        <time>2019-03-08T13:45:36Z</time>
      </trkpt>
      <trkpt lat="44.31495" lon="5.68534">
        <ele>685</ele>
        <time>2019-03-08T13:45:37Z</time>
      </trkpt>
      <trkpt lat="44.31496" lon="5.68527">
        <ele>685</ele>
        <time>2019-03-08T13:45:38Z</time>
      </trkpt>
      <trkpt lat="44.31496" lon="5.68519">
        <ele>685</ele>
        <time>2019-03-08T13:45:39Z</time>
      </trkpt>
      <trkpt lat="44.31496" lon="5.68512">
        <ele>685</ele>
        <time>2019-03-08T13:45:40Z</time>
      </trkpt>
      <trkpt lat="44.31496" lon="5.68505">
        <ele>685</ele>
        <time>2019-03-08T13:45:41Z</time>
      </trkpt>
      <trkpt lat="44.31495" lon="5.68497">
        <ele>685</ele>
        <time>2019-03-08T13:45:42Z</time>
      </trkpt>
      <trkpt lat="44.31495" lon="5.6849">
        <ele>685</ele>
        <time>2019-03-08T13:45:43Z</time>
      </trkpt>
      <trkpt lat="44.31493" lon="5.68483">
        <ele>685</ele>
        <time>2019-03-08T13:45:44Z</time>
      </trkpt>
      <trkpt lat="44.31491" lon="5.68477">
        <ele>686</ele>
        <time>2019-03-08T13:45:45Z</time>
      </trkpt>
      <trkpt lat="44.3149" lon="5.68472">
        <ele>686</ele>
        <time>2019-03-08T13:45:46Z</time>
      </trkpt>
      <trkpt lat="44.31488" lon="5.68466">
        <ele>686</ele>
        <time>2019-03-08T13:45:47Z</time>
      </trkpt>
      <trkpt lat="44.31485" lon="5.6846">
        <ele>686</ele>
        <time>2019-03-08T13:45:48Z</time>
      </trkpt>
      <trkpt lat="44.31482" lon="5.68454">
        <ele>686</ele>
        <time>2019-03-08T13:45:49Z</time>
      </trkpt>
      <trkpt lat="44.31479" lon="5.68449">
        <ele>686</ele>
        <time>2019-03-08T13:45:50Z</time>
      </trkpt>
      <trkpt lat="44.31476" lon="5.68443">
        <ele>686</ele>
        <time>2019-03-08T13:45:51Z</time>
      </trkpt>
      <trkpt lat="44.31474" lon="5.68437">
        <ele>686</ele>
        <time>2019-03-08T13:45:52Z</time>
      </trkpt>
      <trkpt lat="44.31471" lon="5.68432">
        <ele>686</ele>
        <time>2019-03-08T13:45:53Z</time>
      </trkpt>
      <trkpt lat="44.31468" lon="5.68427">
        <ele>686</ele>
        <time>2019-03-08T13:45:54Z</time>
      </trkpt>
      <trkpt lat="44.31466" lon="5.68422">
        <ele>686</ele>
        <time>2019-03-08T13:45:55Z</time>
      </trkpt>
      <trkpt lat="44.31463" lon="5.68417">
        <ele>687</ele>
        <time>2019-03-08T13:45:56Z</time>
      </trkpt>
      <trkpt lat="44.31461" lon="5.68412">
        <ele>687</ele>
        <time>2019-03-08T13:45:57Z</time>
      </trkpt>
      <trkpt lat="44.31458" lon="5.68407">
        <ele>687</ele>
        <time>2019-03-08T13:45:58Z</time>
      </trkpt>
      <trkpt lat="44.31456" lon="5.68402">
        <ele>687</ele>
        <time>2019-03-08T13:45:59Z</time>
      </trkpt>
      <trkpt lat="44.31453" lon="5.68397">
        <ele>687</ele>
        <time>2019-03-08T13:46:00Z</time>
      </trkpt>
      <trkpt lat="44.31451" lon="5.68392">
        <ele>687</ele>
        <time>2019-03-08T13:46:01Z</time>
      </trkpt>
      <trkpt lat="44.31448" lon="5.68387">
        <ele>687</ele>
        <time>2019-03-08T13:46:02Z</time>
      </trkpt>
      <trkpt lat="44.31445" lon="5.68381">
        <ele>687</ele>
        <time>2019-03-08T13:46:03Z</time>
      </trkpt>
      <trkpt lat="44.31443" lon="5.68376">
        <ele>688</ele>
        <time>2019-03-08T13:46:04Z</time>
      </trkpt>
      <trkpt lat="44.3144" lon="5.6837">
        <ele>688</ele>
        <time>2019-03-08T13:46:05Z</time>
      </trkpt>
      <trkpt lat="44.31438" lon="5.68365">
        <ele>688</ele>
        <time>2019-03-08T13:46:06Z</time>
      </trkpt>
      <trkpt lat="44.31435" lon="5.68359">
        <ele>688</ele>
        <time>2019-03-08T13:46:07Z</time>
      </trkpt>
      <trkpt lat="44.31433" lon="5.68353">
        <ele>688</ele>
        <time>2019-03-08T13:46:08Z</time>
      </trkpt>
      <trkpt lat="44.3143" lon="5.68348">
        <ele>688</ele>
        <time>2019-03-08T13:46:09Z</time>
      </trkpt>
      <trkpt lat="44.31427" lon="5.68341">
        <ele>688</ele>
        <time>2019-03-08T13:46:10Z</time>
      </trkpt>
      <trkpt lat="44.31425" lon="5.68336">
        <ele>688</ele>
        <time>2019-03-08T13:46:11Z</time>
      </trkpt>
      <trkpt lat="44.31423" lon="5.6833">
        <ele>688</ele>
        <time>2019-03-08T13:46:12Z</time>
      </trkpt>
      <trkpt lat="44.31421" lon="5.68324">
        <ele>688</ele>
        <time>2019-03-08T13:46:13Z</time>
      </trkpt>
      <trkpt lat="44.31419" lon="5.68318">
        <ele>688</ele>
        <time>2019-03-08T13:46:14Z</time>
      </trkpt>
      <trkpt lat="44.31417" lon="5.68312">
        <ele>688</ele>
        <time>2019-03-08T13:46:15Z</time>
      </trkpt>
      <trkpt lat="44.31415" lon="5.68305">
        <ele>688</ele>
        <time>2019-03-08T13:46:16Z</time>
      </trkpt>
      <trkpt lat="44.31413" lon="5.68299">
        <ele>688</ele>
        <time>2019-03-08T13:46:17Z</time>
      </trkpt>
      <trkpt lat="44.31411" lon="5.68293">
        <ele>688</ele>
        <time>2019-03-08T13:46:18Z</time>
      </trkpt>
      <trkpt lat="44.31409" lon="5.68287">
        <ele>688</ele>
        <time>2019-03-08T13:46:19Z</time>
      </trkpt>
      <trkpt lat="44.31407" lon="5.6828">
        <ele>688</ele>
        <time>2019-03-08T13:46:20Z</time>
      </trkpt>
      <trkpt lat="44.31406" lon="5.68273">
        <ele>688</ele>
        <time>2019-03-08T13:46:21Z</time>
      </trkpt>
      <trkpt lat="44.31404" lon="5.68267">
        <ele>688</ele>
        <time>2019-03-08T13:46:22Z</time>
      </trkpt>
      <trkpt lat="44.31403" lon="5.6826">
        <ele>688</ele>
        <time>2019-03-08T13:46:23Z</time>
      </trkpt>
      <trkpt lat="44.31402" lon="5.68254">
        <ele>688</ele>
        <time>2019-03-08T13:46:24Z</time>
      </trkpt>
      <trkpt lat="44.31401" lon="5.68247">
        <ele>688</ele>
        <time>2019-03-08T13:46:25Z</time>
      </trkpt>
      <trkpt lat="44.314" lon="5.6824">
        <ele>688</ele>
        <time>2019-03-08T13:46:26Z</time>
      </trkpt>
      <trkpt lat="44.314" lon="5.68234">
        <ele>688</ele>
        <time>2019-03-08T13:46:27Z</time>
      </trkpt>
      <trkpt lat="44.31399" lon="5.68227">
        <ele>688</ele>
        <time>2019-03-08T13:46:28Z</time>
      </trkpt>
      <trkpt lat="44.31399" lon="5.68221">
        <ele>688</ele>
        <time>2019-03-08T13:46:29Z</time>
      </trkpt>
      <trkpt lat="44.31398" lon="5.68214">
        <ele>688</ele>
        <time>2019-03-08T13:46:30Z</time>
      </trkpt>
      <trkpt lat="44.31398" lon="5.68207">
        <ele>688</ele>
        <time>2019-03-08T13:46:31Z</time>
      </trkpt>
      <trkpt lat="44.31398" lon="5.682">
        <ele>688</ele>
        <time>2019-03-08T13:46:32Z</time>
      </trkpt>
      <trkpt lat="44.31398" lon="5.68194">
        <ele>689</ele>
        <time>2019-03-08T13:46:33Z</time>
      </trkpt>
      <trkpt lat="44.31399" lon="5.68187">
        <ele>689</ele>
        <time>2019-03-08T13:46:34Z</time>
      </trkpt>
      <trkpt lat="44.31399" lon="5.68181">
        <ele>690</ele>
        <time>2019-03-08T13:46:35Z</time>
      </trkpt>
      <trkpt lat="44.314" lon="5.68174">
        <ele>690</ele>
        <time>2019-03-08T13:46:36Z</time>
      </trkpt>
      <trkpt lat="44.31401" lon="5.68168">
        <ele>691</ele>
        <time>2019-03-08T13:46:37Z</time>
      </trkpt>
      <trkpt lat="44.31401" lon="5.68162">
        <ele>691</ele>
        <time>2019-03-08T13:46:38Z</time>
      </trkpt>
      <trkpt lat="44.31402" lon="5.68156">
        <ele>691</ele>
        <time>2019-03-08T13:46:39Z</time>
      </trkpt>
      <trkpt lat="44.31403" lon="5.6815">
        <ele>692</ele>
        <time>2019-03-08T13:46:40Z</time>
      </trkpt>
      <trkpt lat="44.31403" lon="5.68143">
        <ele>692</ele>
        <time>2019-03-08T13:46:41Z</time>
      </trkpt>
      <trkpt lat="44.31404" lon="5.68137">
        <ele>692</ele>
        <time>2019-03-08T13:46:42Z</time>
      </trkpt>
      <trkpt lat="44.31405" lon="5.6813">
        <ele>692</ele>
        <time>2019-03-08T13:46:43Z</time>
      </trkpt>
      <trkpt lat="44.31405" lon="5.68124">
        <ele>692</ele>
        <time>2019-03-08T13:46:44Z</time>
      </trkpt>
      <trkpt lat="44.31406" lon="5.68117">
        <ele>693</ele>
        <time>2019-03-08T13:46:45Z</time>
      </trkpt>
      <trkpt lat="44.31406" lon="5.6811">
        <ele>693</ele>
        <time>2019-03-08T13:46:46Z</time>
      </trkpt>
      <trkpt lat="44.31407" lon="5.68103">
        <ele>693</ele>
        <time>2019-03-08T13:46:47Z</time>
      </trkpt>
      <trkpt lat="44.31407" lon="5.68096">
        <ele>693</ele>
        <time>2019-03-08T13:46:48Z</time>
      </trkpt>
      <trkpt lat="44.31408" lon="5.68089">
        <ele>693</ele>
        <time>2019-03-08T13:46:49Z</time>
      </trkpt>
      <trkpt lat="44.31408" lon="5.68081">
        <ele>693</ele>
        <time>2019-03-08T13:46:50Z</time>
      </trkpt>
      <trkpt lat="44.31409" lon="5.68073">
        <ele>693</ele>
        <time>2019-03-08T13:46:51Z</time>
      </trkpt>
      <trkpt lat="44.31409" lon="5.68065">
        <ele>693</ele>
        <time>2019-03-08T13:46:52Z</time>
      </trkpt>
      <trkpt lat="44.3141" lon="5.68057">
        <ele>693</ele>
        <time>2019-03-08T13:46:53Z</time>
      </trkpt>
      <trkpt lat="44.3141" lon="5.68048">
        <ele>693</ele>
        <time>2019-03-08T13:46:54Z</time>
      </trkpt>
      <trkpt lat="44.3141" lon="5.6804">
        <ele>693</ele>
        <time>2019-03-08T13:46:55Z</time>
      </trkpt>
      <trkpt lat="44.3141" lon="5.68032">
        <ele>693</ele>
        <time>2019-03-08T13:46:56Z</time>
      </trkpt>
      <trkpt lat="44.3141" lon="5.68024">
        <ele>693</ele>
        <time>2019-03-08T13:46:57Z</time>
      </trkpt>
      <trkpt lat="44.31411" lon="5.68016">
        <ele>693</ele>
        <time>2019-03-08T13:46:58Z</time>
      </trkpt>
      <trkpt lat="44.31411" lon="5.68008">
        <ele>693</ele>
        <time>2019-03-08T13:46:59Z</time>
      </trkpt>
      <trkpt lat="44.31411" lon="5.68">
        <ele>693</ele>
        <time>2019-03-08T13:47:00Z</time>
      </trkpt>
      <trkpt lat="44.31411" lon="5.67992">
        <ele>693</ele>
        <time>2019-03-08T13:47:01Z</time>
      </trkpt>
      <trkpt lat="44.31411" lon="5.67985">
        <ele>693</ele>
        <time>2019-03-08T13:47:02Z</time>
      </trkpt>
      <trkpt lat="44.31411" lon="5.67977">
        <ele>693</ele>
        <time>2019-03-08T13:47:03Z</time>
      </trkpt>
      <trkpt lat="44.31411" lon="5.6797">
        <ele>693</ele>
        <time>2019-03-08T13:47:04Z</time>
      </trkpt>
      <trkpt lat="44.31411" lon="5.67962">
        <ele>693</ele>
        <time>2019-03-08T13:47:05Z</time>
      </trkpt>
      <trkpt lat="44.31411" lon="5.67954">
        <ele>693</ele>
        <time>2019-03-08T13:47:06Z</time>
      </trkpt>
      <trkpt lat="44.31411" lon="5.67947">
        <ele>693</ele>
        <time>2019-03-08T13:47:07Z</time>
      </trkpt>
      <trkpt lat="44.31411" lon="5.6794">
        <ele>693</ele>
        <time>2019-03-08T13:47:08Z</time>
      </trkpt>
      <trkpt lat="44.31411" lon="5.67932">
        <ele>693</ele>
        <time>2019-03-08T13:47:09Z</time>
      </trkpt>
      <trkpt lat="44.31411" lon="5.67925">
        <ele>693</ele>
        <time>2019-03-08T13:47:10Z</time>
      </trkpt>
      <trkpt lat="44.31411" lon="5.67917">
        <ele>693</ele>
        <time>2019-03-08T13:47:11Z</time>
      </trkpt>
      <trkpt lat="44.31412" lon="5.6791">
        <ele>693</ele>
        <time>2019-03-08T13:47:12Z</time>
      </trkpt>
      <trkpt lat="44.31412" lon="5.67903">
        <ele>693</ele>
        <time>2019-03-08T13:47:13Z</time>
      </trkpt>
      <trkpt lat="44.31412" lon="5.67897">
        <ele>693</ele>
        <time>2019-03-08T13:47:14Z</time>
      </trkpt>
      <trkpt lat="44.31412" lon="5.6789">
        <ele>693</ele>
        <time>2019-03-08T13:47:15Z</time>
      </trkpt>
      <trkpt lat="44.31412" lon="5.67883">
        <ele>693</ele>
        <time>2019-03-08T13:47:16Z</time>
      </trkpt>
      <trkpt lat="44.31411" lon="5.67876">
        <ele>693</ele>
        <time>2019-03-08T13:47:17Z</time>
      </trkpt>
      <trkpt lat="44.31411" lon="5.6787">
        <ele>693</ele>
        <time>2019-03-08T13:47:18Z</time>
      </trkpt>
      <trkpt lat="44.31411" lon="5.67863">
        <ele>693</ele>
        <time>2019-03-08T13:47:19Z</time>
      </trkpt>
      <trkpt lat="44.31411" lon="5.67856">
        <ele>693</ele>
        <time>2019-03-08T13:47:20Z</time>
      </trkpt>
      <trkpt lat="44.31411" lon="5.67849">
        <ele>693</ele>
        <time>2019-03-08T13:47:21Z</time>
      </trkpt>
      <trkpt lat="44.3141" lon="5.67842">
        <ele>693</ele>
        <time>2019-03-08T13:47:22Z</time>
      </trkpt>
      <trkpt lat="44.3141" lon="5.67835">
        <ele>693</ele>
        <time>2019-03-08T13:47:23Z</time>
      </trkpt>
      <trkpt lat="44.31409" lon="5.67828">
        <ele>693</ele>
        <time>2019-03-08T13:47:24Z</time>
      </trkpt>
      <trkpt lat="44.31409" lon="5.67821">
        <ele>693</ele>
        <time>2019-03-08T13:47:25Z</time>
      </trkpt>
      <trkpt lat="44.31408" lon="5.67814">
        <ele>693</ele>
        <time>2019-03-08T13:47:26Z</time>
      </trkpt>
      <trkpt lat="44.31408" lon="5.67807">
        <ele>693</ele>
        <time>2019-03-08T13:47:27Z</time>
      </trkpt>
      <trkpt lat="44.31407" lon="5.678">
        <ele>693</ele>
        <time>2019-03-08T13:47:28Z</time>
      </trkpt>
      <trkpt lat="44.31407" lon="5.67794">
        <ele>693</ele>
        <time>2019-03-08T13:47:29Z</time>
      </trkpt>
      <trkpt lat="44.31406" lon="5.67787">
        <ele>693</ele>
        <time>2019-03-08T13:47:30Z</time>
      </trkpt>
      <trkpt lat="44.31405" lon="5.67781">
        <ele>693</ele>
        <time>2019-03-08T13:47:31Z</time>
      </trkpt>
      <trkpt lat="44.31405" lon="5.67774">
        <ele>693</ele>
        <time>2019-03-08T13:47:32Z</time>
      </trkpt>
      <trkpt lat="44.31404" lon="5.67768">
        <ele>693</ele>
        <time>2019-03-08T13:47:33Z</time>
      </trkpt>
      <trkpt lat="44.31403" lon="5.67761">
        <ele>693</ele>
        <time>2019-03-08T13:47:34Z</time>
      </trkpt>
      <trkpt lat="44.31403" lon="5.67754">
        <ele>693</ele>
        <time>2019-03-08T13:47:35Z</time>
      </trkpt>
      <trkpt lat="44.31402" lon="5.67747">
        <ele>693</ele>
        <time>2019-03-08T13:47:36Z</time>
      </trkpt>
      <trkpt lat="44.31401" lon="5.6774">
        <ele>693</ele>
        <time>2019-03-08T13:47:37Z</time>
      </trkpt>
      <trkpt lat="44.31401" lon="5.67734">
        <ele>694</ele>
        <time>2019-03-08T13:47:38Z</time>
      </trkpt>
      <trkpt lat="44.314" lon="5.67727">
        <ele>694</ele>
        <time>2019-03-08T13:47:39Z</time>
      </trkpt>
      <trkpt lat="44.314" lon="5.6772">
        <ele>694</ele>
        <time>2019-03-08T13:47:40Z</time>
      </trkpt>
      <trkpt lat="44.314" lon="5.67713">
        <ele>694</ele>
        <time>2019-03-08T13:47:41Z</time>
      </trkpt>
      <trkpt lat="44.31399" lon="5.67706">
        <ele>694</ele>
        <time>2019-03-08T13:47:42Z</time>
      </trkpt>
      <trkpt lat="44.31398" lon="5.67699">
        <ele>694</ele>
        <time>2019-03-08T13:47:43Z</time>
      </trkpt>
      <trkpt lat="44.31398" lon="5.67692">
        <ele>694</ele>
        <time>2019-03-08T13:47:44Z</time>
      </trkpt>
      <trkpt lat="44.31397" lon="5.67685">
        <ele>694</ele>
        <time>2019-03-08T13:47:45Z</time>
      </trkpt>
      <trkpt lat="44.31396" lon="5.67677">
        <ele>694</ele>
        <time>2019-03-08T13:47:46Z</time>
      </trkpt>
      <trkpt lat="44.31396" lon="5.6767">
        <ele>694</ele>
        <time>2019-03-08T13:47:47Z</time>
      </trkpt>
      <trkpt lat="44.31395" lon="5.67663">
        <ele>694</ele>
        <time>2019-03-08T13:47:48Z</time>
      </trkpt>
      <trkpt lat="44.31394" lon="5.67656">
        <ele>694</ele>
        <time>2019-03-08T13:47:49Z</time>
      </trkpt>
      <trkpt lat="44.31394" lon="5.67648">
        <ele>694</ele>
        <time>2019-03-08T13:47:50Z</time>
      </trkpt>
      <trkpt lat="44.31393" lon="5.67641">
        <ele>694</ele>
        <time>2019-03-08T13:47:51Z</time>
      </trkpt>
      <trkpt lat="44.31392" lon="5.67634">
        <ele>694</ele>
        <time>2019-03-08T13:47:52Z</time>
      </trkpt>
      <trkpt lat="44.31392" lon="5.67627">
        <ele>694</ele>
        <time>2019-03-08T13:47:53Z</time>
      </trkpt>
      <trkpt lat="44.31391" lon="5.6762">
        <ele>694</ele>
        <time>2019-03-08T13:47:54Z</time>
      </trkpt>
      <trkpt lat="44.3139" lon="5.67613">
        <ele>695</ele>
        <time>2019-03-08T13:47:55Z</time>
      </trkpt>
      <trkpt lat="44.31389" lon="5.67605">
        <ele>695</ele>
        <time>2019-03-08T13:47:56Z</time>
      </trkpt>
      <trkpt lat="44.31388" lon="5.67598">
        <ele>695</ele>
        <time>2019-03-08T13:47:57Z</time>
      </trkpt>
      <trkpt lat="44.31387" lon="5.67591">
        <ele>695</ele>
        <time>2019-03-08T13:47:58Z</time>
      </trkpt>
      <trkpt lat="44.31386" lon="5.67584">
        <ele>695</ele>
        <time>2019-03-08T13:47:59Z</time>
      </trkpt>
      <trkpt lat="44.31385" lon="5.67576">
        <ele>695</ele>
        <time>2019-03-08T13:48:00Z</time>
      </trkpt>
      <trkpt lat="44.31384" lon="5.67569">
        <ele>695</ele>
        <time>2019-03-08T13:48:01Z</time>
      </trkpt>
      <trkpt lat="44.31383" lon="5.67561">
        <ele>695</ele>
        <time>2019-03-08T13:48:02Z</time>
      </trkpt>
      <trkpt lat="44.31382" lon="5.67555">
        <ele>695</ele>
        <time>2019-03-08T13:48:03Z</time>
      </trkpt>
      <trkpt lat="44.31381" lon="5.67547">
        <ele>695</ele>
        <time>2019-03-08T13:48:04Z</time>
      </trkpt>
      <trkpt lat="44.31379" lon="5.67541">
        <ele>695</ele>
        <time>2019-03-08T13:48:05Z</time>
      </trkpt>
      <trkpt lat="44.31378" lon="5.67534">
        <ele>695</ele>
        <time>2019-03-08T13:48:06Z</time>
      </trkpt>
      <trkpt lat="44.31376" lon="5.67527">
        <ele>695</ele>
        <time>2019-03-08T13:48:07Z</time>
      </trkpt>
      <trkpt lat="44.31374" lon="5.6752">
        <ele>695</ele>
        <time>2019-03-08T13:48:08Z</time>
      </trkpt>
      <trkpt lat="44.31372" lon="5.67514">
        <ele>695</ele>
        <time>2019-03-08T13:48:09Z</time>
      </trkpt>
      <trkpt lat="44.3137" lon="5.67507">
        <ele>695</ele>
        <time>2019-03-08T13:48:10Z</time>
      </trkpt>
      <trkpt lat="44.31367" lon="5.67501">
        <ele>696</ele>
        <time>2019-03-08T13:48:11Z</time>
      </trkpt>
      <trkpt lat="44.31365" lon="5.67495">
        <ele>696</ele>
        <time>2019-03-08T13:48:12Z</time>
      </trkpt>
      <trkpt lat="44.31362" lon="5.67489">
        <ele>696</ele>
        <time>2019-03-08T13:48:13Z</time>
      </trkpt>
      <trkpt lat="44.31359" lon="5.67483">
        <ele>696</ele>
        <time>2019-03-08T13:48:14Z</time>
      </trkpt>
      <trkpt lat="44.31357" lon="5.67478">
        <ele>697</ele>
        <time>2019-03-08T13:48:15Z</time>
      </trkpt>
      <trkpt lat="44.31354" lon="5.67472">
        <ele>697</ele>
        <time>2019-03-08T13:48:16Z</time>
      </trkpt>
      <trkpt lat="44.31351" lon="5.67466">
        <ele>697</ele>
        <time>2019-03-08T13:48:17Z</time>
      </trkpt>
      <trkpt lat="44.31348" lon="5.67461">
        <ele>697</ele>
        <time>2019-03-08T13:48:18Z</time>
      </trkpt>
      <trkpt lat="44.31345" lon="5.67456">
        <ele>697</ele>
        <time>2019-03-08T13:48:19Z</time>
      </trkpt>
      <trkpt lat="44.31342" lon="5.67451">
        <ele>697</ele>
        <time>2019-03-08T13:48:20Z</time>
      </trkpt>
      <trkpt lat="44.31339" lon="5.67445">
        <ele>697</ele>
        <time>2019-03-08T13:48:21Z</time>
      </trkpt>
      <trkpt lat="44.31336" lon="5.67439">
        <ele>697</ele>
        <time>2019-03-08T13:48:22Z</time>
      </trkpt>
      <trkpt lat="44.31334" lon="5.67433">
        <ele>697</ele>
        <time>2019-03-08T13:48:23Z</time>
      </trkpt>
      <trkpt lat="44.31331" lon="5.67427">
        <ele>697</ele>
        <time>2019-03-08T13:48:24Z</time>
      </trkpt>
      <trkpt lat="44.31328" lon="5.67421">
        <ele>698</ele>
        <time>2019-03-08T13:48:25Z</time>
      </trkpt>
      <trkpt lat="44.31326" lon="5.67415">
        <ele>698</ele>
        <time>2019-03-08T13:48:26Z</time>
      </trkpt>
      <trkpt lat="44.31323" lon="5.67409">
        <ele>698</ele>
        <time>2019-03-08T13:48:27Z</time>
      </trkpt>
      <trkpt lat="44.3132" lon="5.67404">
        <ele>698</ele>
        <time>2019-03-08T13:48:28Z</time>
      </trkpt>
      <trkpt lat="44.31317" lon="5.67398">
        <ele>698</ele>
        <time>2019-03-08T13:48:29Z</time>
      </trkpt>
      <trkpt lat="44.31314" lon="5.67392">
        <ele>698</ele>
        <time>2019-03-08T13:48:30Z</time>
      </trkpt>
      <trkpt lat="44.31311" lon="5.67387">
        <ele>698</ele>
        <time>2019-03-08T13:48:31Z</time>
      </trkpt>
      <trkpt lat="44.31309" lon="5.67381">
        <ele>698</ele>
        <time>2019-03-08T13:48:32Z</time>
      </trkpt>
      <trkpt lat="44.31306" lon="5.67376">
        <ele>698</ele>
        <time>2019-03-08T13:48:33Z</time>
      </trkpt>
      <trkpt lat="44.31303" lon="5.6737">
        <ele>698</ele>
        <time>2019-03-08T13:48:34Z</time>
      </trkpt>
      <trkpt lat="44.313" lon="5.67365">
        <ele>698</ele>
        <time>2019-03-08T13:48:35Z</time>
      </trkpt>
      <trkpt lat="44.31298" lon="5.67359">
        <ele>698</ele>
        <time>2019-03-08T13:48:36Z</time>
      </trkpt>
      <trkpt lat="44.31295" lon="5.67354">
        <ele>698</ele>
        <time>2019-03-08T13:48:37Z</time>
      </trkpt>
      <trkpt lat="44.31292" lon="5.67349">
        <ele>698</ele>
        <time>2019-03-08T13:48:38Z</time>
      </trkpt>
      <trkpt lat="44.31288" lon="5.67343">
        <ele>698</ele>
        <time>2019-03-08T13:48:39Z</time>
      </trkpt>
      <trkpt lat="44.31285" lon="5.67338">
        <ele>698</ele>
        <time>2019-03-08T13:48:40Z</time>
      </trkpt>
      <trkpt lat="44.31281" lon="5.67333">
        <ele>698</ele>
        <time>2019-03-08T13:48:41Z</time>
      </trkpt>
      <trkpt lat="44.31278" lon="5.67327">
        <ele>698</ele>
        <time>2019-03-08T13:48:42Z</time>
      </trkpt>
      <trkpt lat="44.31274" lon="5.67322">
        <ele>698</ele>
        <time>2019-03-08T13:48:43Z</time>
      </trkpt>
      <trkpt lat="44.3127" lon="5.67317">
        <ele>698</ele>
        <time>2019-03-08T13:48:44Z</time>
      </trkpt>
      <trkpt lat="44.31266" lon="5.67312">
        <ele>699</ele>
        <time>2019-03-08T13:48:45Z</time>
      </trkpt>
      <trkpt lat="44.31263" lon="5.67307">
        <ele>699</ele>
        <time>2019-03-08T13:48:46Z</time>
      </trkpt>
      <trkpt lat="44.3126" lon="5.67302">
        <ele>700</ele>
        <time>2019-03-08T13:48:47Z</time>
      </trkpt>
      <trkpt lat="44.31256" lon="5.67297">
        <ele>700</ele>
        <time>2019-03-08T13:48:48Z</time>
      </trkpt>
      <trkpt lat="44.31253" lon="5.67292">
        <ele>700</ele>
        <time>2019-03-08T13:48:49Z</time>
      </trkpt>
      <trkpt lat="44.31249" lon="5.67287">
        <ele>700</ele>
        <time>2019-03-08T13:48:50Z</time>
      </trkpt>
      <trkpt lat="44.31246" lon="5.67282">
        <ele>700</ele>
        <time>2019-03-08T13:48:51Z</time>
      </trkpt>
      <trkpt lat="44.31242" lon="5.67277">
        <ele>700</ele>
        <time>2019-03-08T13:48:52Z</time>
      </trkpt>
      <trkpt lat="44.31239" lon="5.67273">
        <ele>700</ele>
        <time>2019-03-08T13:48:53Z</time>
      </trkpt>
      <trkpt lat="44.31236" lon="5.67268">
        <ele>700</ele>
        <time>2019-03-08T13:48:54Z</time>
      </trkpt>
      <trkpt lat="44.31232" lon="5.67263">
        <ele>700</ele>
        <time>2019-03-08T13:48:55Z</time>
      </trkpt>
      <trkpt lat="44.31229" lon="5.67259">
        <ele>700</ele>
        <time>2019-03-08T13:48:56Z</time>
      </trkpt>
      <trkpt lat="44.31225" lon="5.67255">
        <ele>700</ele>
        <time>2019-03-08T13:48:57Z</time>
      </trkpt>
      <trkpt lat="44.31221" lon="5.6725">
        <ele>700</ele>
        <time>2019-03-08T13:48:58Z</time>
      </trkpt>
      <trkpt lat="44.31218" lon="5.67246">
        <ele>700</ele>
        <time>2019-03-08T13:48:59Z</time>
      </trkpt>
      <trkpt lat="44.31214" lon="5.67241">
        <ele>700</ele>
        <time>2019-03-08T13:49:00Z</time>
      </trkpt>
      <trkpt lat="44.31211" lon="5.67238">
        <ele>700</ele>
        <time>2019-03-08T13:49:01Z</time>
      </trkpt>
      <trkpt lat="44.31208" lon="5.67234">
        <ele>700</ele>
        <time>2019-03-08T13:49:02Z</time>
      </trkpt>
      <trkpt lat="44.31204" lon="5.6723">
        <ele>701</ele>
        <time>2019-03-08T13:49:03Z</time>
      </trkpt>
      <trkpt lat="44.312" lon="5.67226">
        <ele>701</ele>
        <time>2019-03-08T13:49:04Z</time>
      </trkpt>
      <trkpt lat="44.31196" lon="5.67222">
        <ele>701</ele>
        <time>2019-03-08T13:49:05Z</time>
      </trkpt>
      <trkpt lat="44.31192" lon="5.67218">
        <ele>702</ele>
        <time>2019-03-08T13:49:06Z</time>
      </trkpt>
      <trkpt lat="44.31189" lon="5.67215">
        <ele>702</ele>
        <time>2019-03-08T13:49:07Z</time>
      </trkpt>
      <trkpt lat="44.31185" lon="5.67212">
        <ele>703</ele>
        <time>2019-03-08T13:49:08Z</time>
      </trkpt>
      <trkpt lat="44.31181" lon="5.67208">
        <ele>703</ele>
        <time>2019-03-08T13:49:09Z</time>
      </trkpt>
      <trkpt lat="44.31177" lon="5.67205">
        <ele>703</ele>
        <time>2019-03-08T13:49:10Z</time>
      </trkpt>
      <trkpt lat="44.31173" lon="5.67203">
        <ele>703</ele>
        <time>2019-03-08T13:49:11Z</time>
      </trkpt>
      <trkpt lat="44.3117" lon="5.67199">
        <ele>703</ele>
        <time>2019-03-08T13:49:12Z</time>
      </trkpt>
      <trkpt lat="44.31166" lon="5.67196">
        <ele>703</ele>
        <time>2019-03-08T13:49:13Z</time>
      </trkpt>
      <trkpt lat="44.31162" lon="5.67193">
        <ele>703</ele>
        <time>2019-03-08T13:49:14Z</time>
      </trkpt>
      <trkpt lat="44.31158" lon="5.6719">
        <ele>704</ele>
        <time>2019-03-08T13:49:15Z</time>
      </trkpt>
      <trkpt lat="44.31153" lon="5.67187">
        <ele>704</ele>
        <time>2019-03-08T13:49:16Z</time>
      </trkpt>
      <trkpt lat="44.31149" lon="5.67184">
        <ele>704</ele>
        <time>2019-03-08T13:49:17Z</time>
      </trkpt>
      <trkpt lat="44.31145" lon="5.67181">
        <ele>704</ele>
        <time>2019-03-08T13:49:18Z</time>
      </trkpt>
      <trkpt lat="44.3114" lon="5.67178">
        <ele>704</ele>
        <time>2019-03-08T13:49:19Z</time>
      </trkpt>
      <trkpt lat="44.31136" lon="5.67175">
        <ele>704</ele>
        <time>2019-03-08T13:49:20Z</time>
      </trkpt>
      <trkpt lat="44.31131" lon="5.67172">
        <ele>704</ele>
        <time>2019-03-08T13:49:21Z</time>
      </trkpt>
      <trkpt lat="44.31126" lon="5.6717">
        <ele>704</ele>
        <time>2019-03-08T13:49:22Z</time>
      </trkpt>
      <trkpt lat="44.31122" lon="5.67167">
        <ele>704</ele>
        <time>2019-03-08T13:49:23Z</time>
      </trkpt>
      <trkpt lat="44.31117" lon="5.67164">
        <ele>704</ele>
        <time>2019-03-08T13:49:24Z</time>
      </trkpt>
      <trkpt lat="44.31113" lon="5.67162">
        <ele>704</ele>
        <time>2019-03-08T13:49:25Z</time>
      </trkpt>
      <trkpt lat="44.31108" lon="5.67159">
        <ele>704</ele>
        <time>2019-03-08T13:49:26Z</time>
      </trkpt>
      <trkpt lat="44.31104" lon="5.67156">
        <ele>704</ele>
        <time>2019-03-08T13:49:27Z</time>
      </trkpt>
      <trkpt lat="44.31099" lon="5.67154">
        <ele>704</ele>
        <time>2019-03-08T13:49:28Z</time>
      </trkpt>
      <trkpt lat="44.31095" lon="5.67151">
        <ele>704</ele>
        <time>2019-03-08T13:49:29Z</time>
      </trkpt>
      <trkpt lat="44.3109" lon="5.67147">
        <ele>704</ele>
        <time>2019-03-08T13:49:30Z</time>
      </trkpt>
      <trkpt lat="44.31086" lon="5.67144">
        <ele>704</ele>
        <time>2019-03-08T13:49:31Z</time>
      </trkpt>
      <trkpt lat="44.31081" lon="5.67141">
        <ele>704</ele>
        <time>2019-03-08T13:49:32Z</time>
      </trkpt>
      <trkpt lat="44.31077" lon="5.67137">
        <ele>704</ele>
        <time>2019-03-08T13:49:33Z</time>
      </trkpt>
      <trkpt lat="44.31073" lon="5.67134">
        <ele>704</ele>
        <time>2019-03-08T13:49:34Z</time>
      </trkpt>
      <trkpt lat="44.31068" lon="5.67131">
        <ele>704</ele>
        <time>2019-03-08T13:49:35Z</time>
      </trkpt>
      <trkpt lat="44.31063" lon="5.67128">
        <ele>704</ele>
        <time>2019-03-08T13:49:36Z</time>
      </trkpt>
      <trkpt lat="44.31059" lon="5.67124">
        <ele>704</ele>
        <time>2019-03-08T13:49:37Z</time>
      </trkpt>
      <trkpt lat="44.31055" lon="5.6712">
        <ele>704</ele>
        <time>2019-03-08T13:49:38Z</time>
      </trkpt>
      <trkpt lat="44.3105" lon="5.67116">
        <ele>704</ele>
        <time>2019-03-08T13:49:39Z</time>
      </trkpt>
      <trkpt lat="44.31046" lon="5.67111">
        <ele>704</ele>
        <time>2019-03-08T13:49:40Z</time>
      </trkpt>
      <trkpt lat="44.31041" lon="5.67107">
        <ele>704</ele>
        <time>2019-03-08T13:49:41Z</time>
      </trkpt>
      <trkpt lat="44.31037" lon="5.67102">
        <ele>704</ele>
        <time>2019-03-08T13:49:42Z</time>
      </trkpt>
      <trkpt lat="44.31033" lon="5.67098">
        <ele>704</ele>
        <time>2019-03-08T13:49:43Z</time>
      </trkpt>
      <trkpt lat="44.31028" lon="5.67094">
        <ele>704</ele>
        <time>2019-03-08T13:49:44Z</time>
      </trkpt>
      <trkpt lat="44.31024" lon="5.67089">
        <ele>704</ele>
        <time>2019-03-08T13:49:45Z</time>
      </trkpt>
      <trkpt lat="44.31019" lon="5.67084">
        <ele>704</ele>
        <time>2019-03-08T13:49:46Z</time>
      </trkpt>
      <trkpt lat="44.31015" lon="5.67079">
        <ele>704</ele>
        <time>2019-03-08T13:49:47Z</time>
      </trkpt>
      <trkpt lat="44.31011" lon="5.67074">
        <ele>704</ele>
        <time>2019-03-08T13:49:48Z</time>
      </trkpt>
      <trkpt lat="44.31007" lon="5.67069">
        <ele>704</ele>
        <time>2019-03-08T13:49:49Z</time>
      </trkpt>
      <trkpt lat="44.31003" lon="5.67064">
        <ele>704</ele>
        <time>2019-03-08T13:49:50Z</time>
      </trkpt>
      <trkpt lat="44.30998" lon="5.67059">
        <ele>704</ele>
        <time>2019-03-08T13:49:51Z</time>
      </trkpt>
      <trkpt lat="44.30994" lon="5.67054">
        <ele>704</ele>
        <time>2019-03-08T13:49:52Z</time>
      </trkpt>
      <trkpt lat="44.30991" lon="5.67049">
        <ele>704</ele>
        <time>2019-03-08T13:49:53Z</time>
      </trkpt>
      <trkpt lat="44.30987" lon="5.67043">
        <ele>704</ele>
        <time>2019-03-08T13:49:54Z</time>
      </trkpt>
      <trkpt lat="44.30984" lon="5.67038">
        <ele>705</ele>
        <time>2019-03-08T13:49:55Z</time>
      </trkpt>
      <trkpt lat="44.3098" lon="5.67033">
        <ele>705</ele>
        <time>2019-03-08T13:49:56Z</time>
      </trkpt>
      <trkpt lat="44.30976" lon="5.67028">
        <ele>705</ele>
        <time>2019-03-08T13:49:57Z</time>
      </trkpt>
      <trkpt lat="44.30973" lon="5.67022">
        <ele>705</ele>
        <time>2019-03-08T13:49:58Z</time>
      </trkpt>
      <trkpt lat="44.3097" lon="5.67016">
        <ele>705</ele>
        <time>2019-03-08T13:49:59Z</time>
      </trkpt>
      <trkpt lat="44.30967" lon="5.6701">
        <ele>705</ele>
        <time>2019-03-08T13:50:00Z</time>
      </trkpt>
      <trkpt lat="44.30964" lon="5.67004">
        <ele>705</ele>
        <time>2019-03-08T13:50:01Z</time>
      </trkpt>
      <trkpt lat="44.30961" lon="5.66999">
        <ele>705</ele>
        <time>2019-03-08T13:50:02Z</time>
      </trkpt>
      <trkpt lat="44.30959" lon="5.66993">
        <ele>705</ele>
        <time>2019-03-08T13:50:03Z</time>
      </trkpt>
      <trkpt lat="44.30956" lon="5.66987">
        <ele>705</ele>
        <time>2019-03-08T13:50:04Z</time>
      </trkpt>
      <trkpt lat="44.30953" lon="5.66981">
        <ele>705</ele>
        <time>2019-03-08T13:50:05Z</time>
      </trkpt>
      <trkpt lat="44.3095" lon="5.66976">
        <ele>705</ele>
        <time>2019-03-08T13:50:06Z</time>
      </trkpt>
      <trkpt lat="44.30947" lon="5.6697">
        <ele>705</ele>
        <time>2019-03-08T13:50:07Z</time>
      </trkpt>
      <trkpt lat="44.30944" lon="5.66965">
        <ele>705</ele>
        <time>2019-03-08T13:50:08Z</time>
      </trkpt>
      <trkpt lat="44.30941" lon="5.66959">
        <ele>705</ele>
        <time>2019-03-08T13:50:09Z</time>
      </trkpt>
      <trkpt lat="44.30938" lon="5.66954">
        <ele>705</ele>
        <time>2019-03-08T13:50:10Z</time>
      </trkpt>
      <trkpt lat="44.30936" lon="5.66948">
        <ele>705</ele>
        <time>2019-03-08T13:50:11Z</time>
      </trkpt>
      <trkpt lat="44.30933" lon="5.66943">
        <ele>705</ele>
        <time>2019-03-08T13:50:12Z</time>
      </trkpt>
      <trkpt lat="44.30929" lon="5.66937">
        <ele>705</ele>
        <time>2019-03-08T13:50:13Z</time>
      </trkpt>
      <trkpt lat="44.30926" lon="5.66932">
        <ele>705</ele>
        <time>2019-03-08T13:50:14Z</time>
      </trkpt>
      <trkpt lat="44.30923" lon="5.66927">
        <ele>705</ele>
        <time>2019-03-08T13:50:15Z</time>
      </trkpt>
      <trkpt lat="44.3092" lon="5.66922">
        <ele>705</ele>
        <time>2019-03-08T13:50:16Z</time>
      </trkpt>
      <trkpt lat="44.30917" lon="5.66917">
        <ele>705</ele>
        <time>2019-03-08T13:50:17Z</time>
      </trkpt>
      <trkpt lat="44.30914" lon="5.66912">
        <ele>705</ele>
        <time>2019-03-08T13:50:18Z</time>
      </trkpt>
      <trkpt lat="44.30911" lon="5.66906">
        <ele>705</ele>
        <time>2019-03-08T13:50:19Z</time>
      </trkpt>
      <trkpt lat="44.30907" lon="5.66901">
        <ele>705</ele>
        <time>2019-03-08T13:50:20Z</time>
      </trkpt>
      <trkpt lat="44.30904" lon="5.66896">
        <ele>705</ele>
        <time>2019-03-08T13:50:21Z</time>
      </trkpt>
      <trkpt lat="44.30901" lon="5.66891">
        <ele>706</ele>
        <time>2019-03-08T13:50:22Z</time>
      </trkpt>
      <trkpt lat="44.30898" lon="5.66886">
        <ele>706</ele>
        <time>2019-03-08T13:50:23Z</time>
      </trkpt>
      <trkpt lat="44.30895" lon="5.66881">
        <ele>706</ele>
        <time>2019-03-08T13:50:24Z</time>
      </trkpt>
      <trkpt lat="44.30891" lon="5.66876">
        <ele>706</ele>
        <time>2019-03-08T13:50:25Z</time>
      </trkpt>
      <trkpt lat="44.30888" lon="5.66872">
        <ele>706</ele>
        <time>2019-03-08T13:50:26Z</time>
      </trkpt>
      <trkpt lat="44.30885" lon="5.66867">
        <ele>706</ele>
        <time>2019-03-08T13:50:27Z</time>
      </trkpt>
      <trkpt lat="44.30882" lon="5.66862">
        <ele>707</ele>
        <time>2019-03-08T13:50:28Z</time>
      </trkpt>
      <trkpt lat="44.30878" lon="5.66857">
        <ele>707</ele>
        <time>2019-03-08T13:50:29Z</time>
      </trkpt>
      <trkpt lat="44.30875" lon="5.66853">
        <ele>707</ele>
        <time>2019-03-08T13:50:30Z</time>
      </trkpt>
      <trkpt lat="44.30872" lon="5.66848">
        <ele>708</ele>
        <time>2019-03-08T13:50:31Z</time>
      </trkpt>
      <trkpt lat="44.30868" lon="5.66844">
        <ele>708</ele>
        <time>2019-03-08T13:50:32Z</time>
      </trkpt>
      <trkpt lat="44.30865" lon="5.6684">
        <ele>708</ele>
        <time>2019-03-08T13:50:33Z</time>
      </trkpt>
      <trkpt lat="44.30861" lon="5.66836">
        <ele>709</ele>
        <time>2019-03-08T13:50:34Z</time>
      </trkpt>
      <trkpt lat="44.30857" lon="5.66832">
        <ele>709</ele>
        <time>2019-03-08T13:50:35Z</time>
      </trkpt>
      <trkpt lat="44.30854" lon="5.66828">
        <ele>709</ele>
        <time>2019-03-08T13:50:36Z</time>
      </trkpt>
      <trkpt lat="44.3085" lon="5.66825">
        <ele>709</ele>
        <time>2019-03-08T13:50:37Z</time>
      </trkpt>
      <trkpt lat="44.30846" lon="5.66821">
        <ele>710</ele>
        <time>2019-03-08T13:50:38Z</time>
      </trkpt>
      <trkpt lat="44.30842" lon="5.66818">
        <ele>710</ele>
        <time>2019-03-08T13:50:39Z</time>
      </trkpt>
      <trkpt lat="44.30838" lon="5.66814">
        <ele>710</ele>
        <time>2019-03-08T13:50:40Z</time>
      </trkpt>
      <trkpt lat="44.30835" lon="5.6681">
        <ele>710</ele>
        <time>2019-03-08T13:50:41Z</time>
      </trkpt>
      <trkpt lat="44.30831" lon="5.66807">
        <ele>710</ele>
        <time>2019-03-08T13:50:42Z</time>
      </trkpt>
      <trkpt lat="44.30827" lon="5.66803">
        <ele>710</ele>
        <time>2019-03-08T13:50:43Z</time>
      </trkpt>
      <trkpt lat="44.30823" lon="5.66799">
        <ele>710</ele>
        <time>2019-03-08T13:50:44Z</time>
      </trkpt>
      <trkpt lat="44.30819" lon="5.66795">
        <ele>710</ele>
        <time>2019-03-08T13:50:45Z</time>
      </trkpt>
      <trkpt lat="44.30815" lon="5.66791">
        <ele>710</ele>
        <time>2019-03-08T13:50:46Z</time>
      </trkpt>
      <trkpt lat="44.30811" lon="5.66787">
        <ele>710</ele>
        <time>2019-03-08T13:50:47Z</time>
      </trkpt>
      <trkpt lat="44.30807" lon="5.66783">
        <ele>710</ele>
        <time>2019-03-08T13:50:48Z</time>
      </trkpt>
      <trkpt lat="44.30803" lon="5.66779">
        <ele>710</ele>
        <time>2019-03-08T13:50:49Z</time>
      </trkpt>
      <trkpt lat="44.30799" lon="5.66775">
        <ele>711</ele>
        <time>2019-03-08T13:50:50Z</time>
      </trkpt>
      <trkpt lat="44.30795" lon="5.66771">
        <ele>711</ele>
        <time>2019-03-08T13:50:51Z</time>
      </trkpt>
      <trkpt lat="44.30791" lon="5.66768">
        <ele>711</ele>
        <time>2019-03-08T13:50:52Z</time>
      </trkpt>
      <trkpt lat="44.30787" lon="5.66763">
        <ele>711</ele>
        <time>2019-03-08T13:50:53Z</time>
      </trkpt>
      <trkpt lat="44.30782" lon="5.66759">
        <ele>712</ele>
        <time>2019-03-08T13:50:54Z</time>
      </trkpt>
      <trkpt lat="44.30777" lon="5.66755">
        <ele>712</ele>
        <time>2019-03-08T13:50:55Z</time>
      </trkpt>
      <trkpt lat="44.30773" lon="5.66751">
        <ele>712</ele>
        <time>2019-03-08T13:50:56Z</time>
      </trkpt>
      <trkpt lat="44.30768" lon="5.66747">
        <ele>712</ele>
        <time>2019-03-08T13:50:57Z</time>
      </trkpt>
      <trkpt lat="44.30763" lon="5.66743">
        <ele>712</ele>
        <time>2019-03-08T13:50:58Z</time>
      </trkpt>
      <trkpt lat="44.30758" lon="5.6674">
        <ele>713</ele>
        <time>2019-03-08T13:50:59Z</time>
      </trkpt>
      <trkpt lat="44.30753" lon="5.66736">
        <ele>713</ele>
        <time>2019-03-08T13:51:00Z</time>
      </trkpt>
      <trkpt lat="44.30748" lon="5.66733">
        <ele>713</ele>
        <time>2019-03-08T13:51:01Z</time>
      </trkpt>
      <trkpt lat="44.30743" lon="5.66731">
        <ele>713</ele>
        <time>2019-03-08T13:51:02Z</time>
      </trkpt>
      <trkpt lat="44.30738" lon="5.66729">
        <ele>713</ele>
        <time>2019-03-08T13:51:03Z</time>
      </trkpt>
      <trkpt lat="44.30732" lon="5.66726">
        <ele>713</ele>
        <time>2019-03-08T13:51:04Z</time>
      </trkpt>
      <trkpt lat="44.30727" lon="5.66724">
        <ele>713</ele>
        <time>2019-03-08T13:51:05Z</time>
      </trkpt>
      <trkpt lat="44.30722" lon="5.66722">
        <ele>713</ele>
        <time>2019-03-08T13:51:06Z</time>
      </trkpt>
      <trkpt lat="44.30716" lon="5.6672">
        <ele>713</ele>
        <time>2019-03-08T13:51:07Z</time>
      </trkpt>
      <trkpt lat="44.30711" lon="5.66717">
        <ele>713</ele>
        <time>2019-03-08T13:51:08Z</time>
      </trkpt>
      <trkpt lat="44.30705" lon="5.66715">
        <ele>713</ele>
        <time>2019-03-08T13:51:09Z</time>
      </trkpt>
      <trkpt lat="44.307" lon="5.66713">
        <ele>713</ele>
        <time>2019-03-08T13:51:10Z</time>
      </trkpt>
      <trkpt lat="44.30695" lon="5.6671">
        <ele>713</ele>
        <time>2019-03-08T13:51:11Z</time>
      </trkpt>
      <trkpt lat="44.30689" lon="5.66707">
        <ele>713</ele>
        <time>2019-03-08T13:51:12Z</time>
      </trkpt>
      <trkpt lat="44.30684" lon="5.66704">
        <ele>713</ele>
        <time>2019-03-08T13:51:13Z</time>
      </trkpt>
      <trkpt lat="44.30679" lon="5.66701">
        <ele>713</ele>
        <time>2019-03-08T13:51:14Z</time>
      </trkpt>
      <trkpt lat="44.30674" lon="5.66697">
        <ele>713</ele>
        <time>2019-03-08T13:51:15Z</time>
      </trkpt>
      <trkpt lat="44.3067" lon="5.66692">
        <ele>713</ele>
        <time>2019-03-08T13:51:16Z</time>
      </trkpt>
      <trkpt lat="44.30666" lon="5.66688">
        <ele>713</ele>
        <time>2019-03-08T13:51:17Z</time>
      </trkpt>
      <trkpt lat="44.30661" lon="5.66683">
        <ele>713</ele>
        <time>2019-03-08T13:51:18Z</time>
      </trkpt>
      <trkpt lat="44.30658" lon="5.66678">
        <ele>713</ele>
        <time>2019-03-08T13:51:19Z</time>
      </trkpt>
      <trkpt lat="44.30653" lon="5.66673">
        <ele>713</ele>
        <time>2019-03-08T13:51:20Z</time>
      </trkpt>
      <trkpt lat="44.3065" lon="5.66667">
        <ele>713</ele>
        <time>2019-03-08T13:51:21Z</time>
      </trkpt>
      <trkpt lat="44.30646" lon="5.66662">
        <ele>713</ele>
        <time>2019-03-08T13:51:22Z</time>
      </trkpt>
      <trkpt lat="44.30642" lon="5.66656">
        <ele>713</ele>
        <time>2019-03-08T13:51:23Z</time>
      </trkpt>
      <trkpt lat="44.30638" lon="5.6665">
        <ele>713</ele>
        <time>2019-03-08T13:51:24Z</time>
      </trkpt>
      <trkpt lat="44.30634" lon="5.66645">
        <ele>713</ele>
        <time>2019-03-08T13:51:25Z</time>
      </trkpt>
      <trkpt lat="44.3063" lon="5.6664">
        <ele>713</ele>
        <time>2019-03-08T13:51:26Z</time>
      </trkpt>
      <trkpt lat="44.30626" lon="5.66635">
        <ele>713</ele>
        <time>2019-03-08T13:51:27Z</time>
      </trkpt>
      <trkpt lat="44.30622" lon="5.6663">
        <ele>714</ele>
        <time>2019-03-08T13:51:28Z</time>
      </trkpt>
      <trkpt lat="44.30618" lon="5.66625">
        <ele>714</ele>
        <time>2019-03-08T13:51:29Z</time>
      </trkpt>
      <trkpt lat="44.30614" lon="5.6662">
        <ele>714</ele>
        <time>2019-03-08T13:51:30Z</time>
      </trkpt>
      <trkpt lat="44.3061" lon="5.66615">
        <ele>714</ele>
        <time>2019-03-08T13:51:31Z</time>
      </trkpt>
      <trkpt lat="44.30606" lon="5.66611">
        <ele>715</ele>
        <time>2019-03-08T13:51:32Z</time>
      </trkpt>
      <trkpt lat="44.30602" lon="5.66607">
        <ele>715</ele>
        <time>2019-03-08T13:51:33Z</time>
      </trkpt>
      <trkpt lat="44.30598" lon="5.66603">
        <ele>715</ele>
        <time>2019-03-08T13:51:34Z</time>
      </trkpt>
      <trkpt lat="44.30595" lon="5.66599">
        <ele>715</ele>
        <time>2019-03-08T13:51:35Z</time>
      </trkpt>
      <trkpt lat="44.30591" lon="5.66595">
        <ele>715</ele>
        <time>2019-03-08T13:51:36Z</time>
      </trkpt>
      <trkpt lat="44.30587" lon="5.66591">
        <ele>715</ele>
        <time>2019-03-08T13:51:37Z</time>
      </trkpt>
      <trkpt lat="44.30583" lon="5.66587">
        <ele>715</ele>
        <time>2019-03-08T13:51:38Z</time>
      </trkpt>
      <trkpt lat="44.30579" lon="5.66583">
        <ele>716</ele>
        <time>2019-03-08T13:51:39Z</time>
      </trkpt>
      <trkpt lat="44.30576" lon="5.6658">
        <ele>716</ele>
        <time>2019-03-08T13:51:40Z</time>
      </trkpt>
      <trkpt lat="44.30571" lon="5.66576">
        <ele>716</ele>
        <time>2019-03-08T13:51:41Z</time>
      </trkpt>
      <trkpt lat="44.30567" lon="5.66573">
        <ele>717</ele>
        <time>2019-03-08T13:51:42Z</time>
      </trkpt>
      <trkpt lat="44.30563" lon="5.6657">
        <ele>717</ele>
        <time>2019-03-08T13:51:43Z</time>
      </trkpt>
      <trkpt lat="44.30559" lon="5.66566">
        <ele>718</ele>
        <time>2019-03-08T13:51:44Z</time>
      </trkpt>
      <trkpt lat="44.30555" lon="5.66562">
        <ele>719</ele>
        <time>2019-03-08T13:51:45Z</time>
      </trkpt>
      <trkpt lat="44.3055" lon="5.66559">
        <ele>719</ele>
        <time>2019-03-08T13:51:46Z</time>
      </trkpt>
      <trkpt lat="44.30546" lon="5.66555">
        <ele>720</ele>
        <time>2019-03-08T13:51:47Z</time>
      </trkpt>
      <trkpt lat="44.30541" lon="5.66552">
        <ele>720</ele>
        <time>2019-03-08T13:51:48Z</time>
      </trkpt>
      <trkpt lat="44.30537" lon="5.6655">
        <ele>720</ele>
        <time>2019-03-08T13:51:49Z</time>
      </trkpt>
      <trkpt lat="44.30532" lon="5.66548">
        <ele>720</ele>
        <time>2019-03-08T13:51:50Z</time>
      </trkpt>
      <trkpt lat="44.30527" lon="5.66547">
        <ele>720</ele>
        <time>2019-03-08T13:51:51Z</time>
      </trkpt>
      <trkpt lat="44.30522" lon="5.66547">
        <ele>720</ele>
        <time>2019-03-08T13:51:52Z</time>
      </trkpt>
      <trkpt lat="44.30516" lon="5.66547">
        <ele>720</ele>
        <time>2019-03-08T13:51:53Z</time>
      </trkpt>
      <trkpt lat="44.30511" lon="5.66547">
        <ele>720</ele>
        <time>2019-03-08T13:51:54Z</time>
      </trkpt>
      <trkpt lat="44.30506" lon="5.66547">
        <ele>720</ele>
        <time>2019-03-08T13:51:55Z</time>
      </trkpt>
      <trkpt lat="44.30502" lon="5.66548">
        <ele>720</ele>
        <time>2019-03-08T13:51:56Z</time>
      </trkpt>
      <trkpt lat="44.30497" lon="5.66549">
        <ele>720</ele>
        <time>2019-03-08T13:51:57Z</time>
      </trkpt>
      <trkpt lat="44.30492" lon="5.66549">
        <ele>720</ele>
        <time>2019-03-08T13:51:58Z</time>
      </trkpt>
      <trkpt lat="44.30487" lon="5.6655">
        <ele>720</ele>
        <time>2019-03-08T13:51:59Z</time>
      </trkpt>
      <trkpt lat="44.30482" lon="5.6655">
        <ele>719</ele>
        <time>2019-03-08T13:52:00Z</time>
      </trkpt>
      <trkpt lat="44.30477" lon="5.6655">
        <ele>719</ele>
        <time>2019-03-08T13:52:01Z</time>
      </trkpt>
      <trkpt lat="44.30472" lon="5.66551">
        <ele>718</ele>
        <time>2019-03-08T13:52:02Z</time>
      </trkpt>
      <trkpt lat="44.30467" lon="5.66551">
        <ele>718</ele>
        <time>2019-03-08T13:52:03Z</time>
      </trkpt>
      <trkpt lat="44.30462" lon="5.66552">
        <ele>717</ele>
        <time>2019-03-08T13:52:04Z</time>
      </trkpt>
      <trkpt lat="44.30457" lon="5.66553">
        <ele>717</ele>
        <time>2019-03-08T13:52:05Z</time>
      </trkpt>
      <trkpt lat="44.30452" lon="5.66553">
        <ele>716</ele>
        <time>2019-03-08T13:52:06Z</time>
      </trkpt>
      <trkpt lat="44.30447" lon="5.66553">
        <ele>716</ele>
        <time>2019-03-08T13:52:07Z</time>
      </trkpt>
      <trkpt lat="44.30443" lon="5.66553">
        <ele>716</ele>
        <time>2019-03-08T13:52:08Z</time>
      </trkpt>
      <trkpt lat="44.30438" lon="5.66553">
        <ele>716</ele>
        <time>2019-03-08T13:52:09Z</time>
      </trkpt>
      <trkpt lat="44.30434" lon="5.66553">
        <ele>716</ele>
        <time>2019-03-08T13:52:10Z</time>
      </trkpt>
      <trkpt lat="44.30429" lon="5.66552">
        <ele>715</ele>
        <time>2019-03-08T13:52:11Z</time>
      </trkpt>
      <trkpt lat="44.30425" lon="5.66551">
        <ele>715</ele>
        <time>2019-03-08T13:52:12Z</time>
      </trkpt>
      <trkpt lat="44.30421" lon="5.66549">
        <ele>715</ele>
        <time>2019-03-08T13:52:13Z</time>
      </trkpt>
      <trkpt lat="44.30416" lon="5.66548">
        <ele>715</ele>
        <time>2019-03-08T13:52:14Z</time>
      </trkpt>
      <trkpt lat="44.30413" lon="5.66546">
        <ele>715</ele>
        <time>2019-03-08T13:52:15Z</time>
      </trkpt>
      <trkpt lat="44.30409" lon="5.66544">
        <ele>715</ele>
        <time>2019-03-08T13:52:16Z</time>
      </trkpt>
      <trkpt lat="44.30405" lon="5.66541">
        <ele>715</ele>
        <time>2019-03-08T13:52:17Z</time>
      </trkpt>
      <trkpt lat="44.30402" lon="5.66538">
        <ele>715</ele>
        <time>2019-03-08T13:52:18Z</time>
      </trkpt>
      <trkpt lat="44.30398" lon="5.66535">
        <ele>715</ele>
        <time>2019-03-08T13:52:19Z</time>
      </trkpt>
      <trkpt lat="44.30394" lon="5.66532">
        <ele>715</ele>
        <time>2019-03-08T13:52:20Z</time>
      </trkpt>
      <trkpt lat="44.3039" lon="5.6653">
        <ele>715</ele>
        <time>2019-03-08T13:52:21Z</time>
      </trkpt>
      <trkpt lat="44.30386" lon="5.66527">
        <ele>715</ele>
        <time>2019-03-08T13:52:22Z</time>
      </trkpt>
      <trkpt lat="44.30383" lon="5.66524">
        <ele>715</ele>
        <time>2019-03-08T13:52:23Z</time>
      </trkpt>
      <trkpt lat="44.30379" lon="5.66521">
        <ele>715</ele>
        <time>2019-03-08T13:52:24Z</time>
      </trkpt>
      <trkpt lat="44.30375" lon="5.66518">
        <ele>715</ele>
        <time>2019-03-08T13:52:25Z</time>
      </trkpt>
      <trkpt lat="44.30372" lon="5.66515">
        <ele>715</ele>
        <time>2019-03-08T13:52:26Z</time>
      </trkpt>
      <trkpt lat="44.30369" lon="5.66511">
        <ele>715</ele>
        <time>2019-03-08T13:52:27Z</time>
      </trkpt>
      <trkpt lat="44.30366" lon="5.66508">
        <ele>715</ele>
        <time>2019-03-08T13:52:28Z</time>
      </trkpt>
      <trkpt lat="44.30363" lon="5.66505">
        <ele>715</ele>
        <time>2019-03-08T13:52:29Z</time>
      </trkpt>
      <trkpt lat="44.3036" lon="5.66503">
        <ele>715</ele>
        <time>2019-03-08T13:52:30Z</time>
      </trkpt>
      <trkpt lat="44.30356" lon="5.665">
        <ele>715</ele>
        <time>2019-03-08T13:52:31Z</time>
      </trkpt>
      <trkpt lat="44.30353" lon="5.66498">
        <ele>715</ele>
        <time>2019-03-08T13:52:32Z</time>
      </trkpt>
      <trkpt lat="44.3035" lon="5.66496">
        <ele>716</ele>
        <time>2019-03-08T13:52:33Z</time>
      </trkpt>
      <trkpt lat="44.30347" lon="5.66493">
        <ele>716</ele>
        <time>2019-03-08T13:52:34Z</time>
      </trkpt>
      <trkpt lat="44.30344" lon="5.66491">
        <ele>717</ele>
        <time>2019-03-08T13:52:35Z</time>
      </trkpt>
      <trkpt lat="44.30341" lon="5.6649">
        <ele>717</ele>
        <time>2019-03-08T13:52:36Z</time>
      </trkpt>
      <trkpt lat="44.30338" lon="5.66488">
        <ele>718</ele>
        <time>2019-03-08T13:52:37Z</time>
      </trkpt>
      <trkpt lat="44.30335" lon="5.66486">
        <ele>718</ele>
        <time>2019-03-08T13:52:38Z</time>
      </trkpt>
      <trkpt lat="44.30332" lon="5.66483">
        <ele>718</ele>
        <time>2019-03-08T13:52:39Z</time>
      </trkpt>
      <trkpt lat="44.30329" lon="5.6648">
        <ele>718</ele>
        <time>2019-03-08T13:52:40Z</time>
      </trkpt>
      <trkpt lat="44.30326" lon="5.66477">
        <ele>718</ele>
        <time>2019-03-08T13:52:41Z</time>
      </trkpt>
      <trkpt lat="44.30323" lon="5.66474">
        <ele>718</ele>
        <time>2019-03-08T13:52:42Z</time>
      </trkpt>
      <trkpt lat="44.3032" lon="5.6647">
        <ele>718</ele>
        <time>2019-03-08T13:52:43Z</time>
      </trkpt>
      <trkpt lat="44.30317" lon="5.66467">
        <ele>718</ele>
        <time>2019-03-08T13:52:44Z</time>
      </trkpt>
      <trkpt lat="44.30315" lon="5.66463">
        <ele>718</ele>
        <time>2019-03-08T13:52:45Z</time>
      </trkpt>
      <trkpt lat="44.30312" lon="5.66458">
        <ele>718</ele>
        <time>2019-03-08T13:52:46Z</time>
      </trkpt>
      <trkpt lat="44.3031" lon="5.66454">
        <ele>718</ele>
        <time>2019-03-08T13:52:47Z</time>
      </trkpt>
      <trkpt lat="44.30308" lon="5.66449">
        <ele>718</ele>
        <time>2019-03-08T13:52:48Z</time>
      </trkpt>
      <trkpt lat="44.30307" lon="5.66444">
        <ele>718</ele>
        <time>2019-03-08T13:52:49Z</time>
      </trkpt>
      <trkpt lat="44.30305" lon="5.66438">
        <ele>718</ele>
        <time>2019-03-08T13:52:50Z</time>
      </trkpt>
      <trkpt lat="44.30304" lon="5.66433">
        <ele>718</ele>
        <time>2019-03-08T13:52:51Z</time>
      </trkpt>
      <trkpt lat="44.30302" lon="5.66428">
        <ele>718</ele>
        <time>2019-03-08T13:52:52Z</time>
      </trkpt>
      <trkpt lat="44.30301" lon="5.66422">
        <ele>718</ele>
        <time>2019-03-08T13:52:53Z</time>
      </trkpt>
      <trkpt lat="44.30299" lon="5.66417">
        <ele>718</ele>
        <time>2019-03-08T13:52:54Z</time>
      </trkpt>
      <trkpt lat="44.30297" lon="5.66412">
        <ele>718</ele>
        <time>2019-03-08T13:52:55Z</time>
      </trkpt>
      <trkpt lat="44.30296" lon="5.66407">
        <ele>718</ele>
        <time>2019-03-08T13:52:56Z</time>
      </trkpt>
      <trkpt lat="44.30294" lon="5.66402">
        <ele>718</ele>
        <time>2019-03-08T13:52:57Z</time>
      </trkpt>
      <trkpt lat="44.30293" lon="5.66397">
        <ele>718</ele>
        <time>2019-03-08T13:52:58Z</time>
      </trkpt>
      <trkpt lat="44.30292" lon="5.66392">
        <ele>718</ele>
        <time>2019-03-08T13:52:59Z</time>
      </trkpt>
      <trkpt lat="44.30291" lon="5.66386">
        <ele>718</ele>
        <time>2019-03-08T13:53:00Z</time>
      </trkpt>
      <trkpt lat="44.30291" lon="5.66381">
        <ele>718</ele>
        <time>2019-03-08T13:53:01Z</time>
      </trkpt>
      <trkpt lat="44.3029" lon="5.66375">
        <ele>718</ele>
        <time>2019-03-08T13:53:02Z</time>
      </trkpt>
      <trkpt lat="44.30289" lon="5.66369">
        <ele>718</ele>
        <time>2019-03-08T13:53:03Z</time>
      </trkpt>
      <trkpt lat="44.30288" lon="5.66363">
        <ele>718</ele>
        <time>2019-03-08T13:53:04Z</time>
      </trkpt>
      <trkpt lat="44.30287" lon="5.66359">
        <ele>718</ele>
        <time>2019-03-08T13:53:05Z</time>
      </trkpt>
      <trkpt lat="44.30287" lon="5.66354">
        <ele>718</ele>
        <time>2019-03-08T13:53:06Z</time>
      </trkpt>
      <trkpt lat="44.30286" lon="5.6635">
        <ele>718</ele>
        <time>2019-03-08T13:53:07Z</time>
      </trkpt>
      <trkpt lat="44.30286" lon="5.66344">
        <ele>718</ele>
        <time>2019-03-08T13:53:08Z</time>
      </trkpt>
      <trkpt lat="44.30285" lon="5.66339">
        <ele>718</ele>
        <time>2019-03-08T13:53:09Z</time>
      </trkpt>
      <trkpt lat="44.30285" lon="5.66334">
        <ele>718</ele>
        <time>2019-03-08T13:53:10Z</time>
      </trkpt>
      <trkpt lat="44.30284" lon="5.66328">
        <ele>718</ele>
        <time>2019-03-08T13:53:11Z</time>
      </trkpt>
      <trkpt lat="44.30283" lon="5.66323">
        <ele>718</ele>
        <time>2019-03-08T13:53:12Z</time>
      </trkpt>
      <trkpt lat="44.30282" lon="5.66318">
        <ele>718</ele>
        <time>2019-03-08T13:53:13Z</time>
      </trkpt>
      <trkpt lat="44.30281" lon="5.66313">
        <ele>718</ele>
        <time>2019-03-08T13:53:14Z</time>
      </trkpt>
      <trkpt lat="44.3028" lon="5.66308">
        <ele>718</ele>
        <time>2019-03-08T13:53:15Z</time>
      </trkpt>
      <trkpt lat="44.30278" lon="5.66303">
        <ele>719</ele>
        <time>2019-03-08T13:53:16Z</time>
      </trkpt>
      <trkpt lat="44.30278" lon="5.66298">
        <ele>719</ele>
        <time>2019-03-08T13:53:17Z</time>
      </trkpt>
      <trkpt lat="44.30277" lon="5.66294">
        <ele>719</ele>
        <time>2019-03-08T13:53:18Z</time>
      </trkpt>
      <trkpt lat="44.30276" lon="5.66289">
        <ele>719</ele>
        <time>2019-03-08T13:53:19Z</time>
      </trkpt>
      <trkpt lat="44.30275" lon="5.66284">
        <ele>719</ele>
        <time>2019-03-08T13:53:20Z</time>
      </trkpt>
      <trkpt lat="44.30273" lon="5.66278">
        <ele>720</ele>
        <time>2019-03-08T13:53:21Z</time>
      </trkpt>
      <trkpt lat="44.30273" lon="5.66274">
        <ele>720</ele>
        <time>2019-03-08T13:53:22Z</time>
      </trkpt>
      <trkpt lat="44.30271" lon="5.66269">
        <ele>720</ele>
        <time>2019-03-08T13:53:23Z</time>
      </trkpt>
      <trkpt lat="44.30269" lon="5.66265">
        <ele>720</ele>
        <time>2019-03-08T13:53:24Z</time>
      </trkpt>
      <trkpt lat="44.30267" lon="5.6626">
        <ele>720</ele>
        <time>2019-03-08T13:53:25Z</time>
      </trkpt>
      <trkpt lat="44.30266" lon="5.66256">
        <ele>720</ele>
        <time>2019-03-08T13:53:26Z</time>
      </trkpt>
      <trkpt lat="44.30264" lon="5.66252">
        <ele>720</ele>
        <time>2019-03-08T13:53:27Z</time>
      </trkpt>
      <trkpt lat="44.30261" lon="5.66247">
        <ele>720</ele>
        <time>2019-03-08T13:53:28Z</time>
      </trkpt>
      <trkpt lat="44.30259" lon="5.66243">
        <ele>720</ele>
        <time>2019-03-08T13:53:29Z</time>
      </trkpt>
      <trkpt lat="44.30256" lon="5.66238">
        <ele>720</ele>
        <time>2019-03-08T13:53:30Z</time>
      </trkpt>
      <trkpt lat="44.30254" lon="5.66234">
        <ele>721</ele>
        <time>2019-03-08T13:53:31Z</time>
      </trkpt>
      <trkpt lat="44.30252" lon="5.66229">
        <ele>721</ele>
        <time>2019-03-08T13:53:32Z</time>
      </trkpt>
      <trkpt lat="44.3025" lon="5.66225">
        <ele>721</ele>
        <time>2019-03-08T13:53:33Z</time>
      </trkpt>
      <trkpt lat="44.30247" lon="5.66221">
        <ele>721</ele>
        <time>2019-03-08T13:53:34Z</time>
      </trkpt>
      <trkpt lat="44.30245" lon="5.66216">
        <ele>721</ele>
        <time>2019-03-08T13:53:35Z</time>
      </trkpt>
      <trkpt lat="44.30243" lon="5.66212">
        <ele>721</ele>
        <time>2019-03-08T13:53:36Z</time>
      </trkpt>
      <trkpt lat="44.3024" lon="5.66208">
        <ele>721</ele>
        <time>2019-03-08T13:53:37Z</time>
      </trkpt>
      <trkpt lat="44.30238" lon="5.66203">
        <ele>721</ele>
        <time>2019-03-08T13:53:38Z</time>
      </trkpt>
      <trkpt lat="44.30236" lon="5.66199">
        <ele>722</ele>
        <time>2019-03-08T13:53:39Z</time>
      </trkpt>
      <trkpt lat="44.30233" lon="5.66195">
        <ele>722</ele>
        <time>2019-03-08T13:53:40Z</time>
      </trkpt>
      <trkpt lat="44.30231" lon="5.66191">
        <ele>722</ele>
        <time>2019-03-08T13:53:41Z</time>
      </trkpt>
      <trkpt lat="44.30229" lon="5.66186">
        <ele>722</ele>
        <time>2019-03-08T13:53:42Z</time>
      </trkpt>
      <trkpt lat="44.30226" lon="5.66182">
        <ele>722</ele>
        <time>2019-03-08T13:53:43Z</time>
      </trkpt>
      <trkpt lat="44.30224" lon="5.66177">
        <ele>723</ele>
        <time>2019-03-08T13:53:44Z</time>
      </trkpt>
      <trkpt lat="44.30221" lon="5.66173">
        <ele>723</ele>
        <time>2019-03-08T13:53:45Z</time>
      </trkpt>
      <trkpt lat="44.30219" lon="5.66168">
        <ele>723</ele>
        <time>2019-03-08T13:53:46Z</time>
      </trkpt>
      <trkpt lat="44.30216" lon="5.66163">
        <ele>723</ele>
        <time>2019-03-08T13:53:47Z</time>
      </trkpt>
      <trkpt lat="44.30213" lon="5.66159">
        <ele>723</ele>
        <time>2019-03-08T13:53:48Z</time>
      </trkpt>
      <trkpt lat="44.30211" lon="5.66154">
        <ele>723</ele>
        <time>2019-03-08T13:53:49Z</time>
      </trkpt>
      <trkpt lat="44.30209" lon="5.6615">
        <ele>723</ele>
        <time>2019-03-08T13:53:50Z</time>
      </trkpt>
      <trkpt lat="44.30206" lon="5.66145">
        <ele>723</ele>
        <time>2019-03-08T13:53:51Z</time>
      </trkpt>
      <trkpt lat="44.30204" lon="5.6614">
        <ele>724</ele>
        <time>2019-03-08T13:53:52Z</time>
      </trkpt>
      <trkpt lat="44.30202" lon="5.66136">
        <ele>724</ele>
        <time>2019-03-08T13:53:53Z</time>
      </trkpt>
      <trkpt lat="44.302" lon="5.66131">
        <ele>724</ele>
        <time>2019-03-08T13:53:54Z</time>
      </trkpt>
      <trkpt lat="44.30197" lon="5.66126">
        <ele>724</ele>
        <time>2019-03-08T13:53:55Z</time>
      </trkpt>
      <trkpt lat="44.30195" lon="5.66121">
        <ele>724</ele>
        <time>2019-03-08T13:53:56Z</time>
      </trkpt>
      <trkpt lat="44.30193" lon="5.66117">
        <ele>724</ele>
        <time>2019-03-08T13:53:57Z</time>
      </trkpt>
      <trkpt lat="44.3019" lon="5.66112">
        <ele>725</ele>
        <time>2019-03-08T13:53:58Z</time>
      </trkpt>
      <trkpt lat="44.30188" lon="5.66107">
        <ele>725</ele>
        <time>2019-03-08T13:53:59Z</time>
      </trkpt>
      <trkpt lat="44.30186" lon="5.66102">
        <ele>725</ele>
        <time>2019-03-08T13:54:00Z</time>
      </trkpt>
      <trkpt lat="44.30184" lon="5.66096">
        <ele>725</ele>
        <time>2019-03-08T13:54:01Z</time>
      </trkpt>
      <trkpt lat="44.30182" lon="5.66091">
        <ele>725</ele>
        <time>2019-03-08T13:54:02Z</time>
      </trkpt>
      <trkpt lat="44.3018" lon="5.66086">
        <ele>725</ele>
        <time>2019-03-08T13:54:03Z</time>
      </trkpt>
      <trkpt lat="44.30179" lon="5.6608">
        <ele>726</ele>
        <time>2019-03-08T13:54:04Z</time>
      </trkpt>
      <trkpt lat="44.30177" lon="5.66075">
        <ele>726</ele>
        <time>2019-03-08T13:54:05Z</time>
      </trkpt>
      <trkpt lat="44.30175" lon="5.66069">
        <ele>726</ele>
        <time>2019-03-08T13:54:06Z</time>
      </trkpt>
      <trkpt lat="44.30174" lon="5.66063">
        <ele>726</ele>
        <time>2019-03-08T13:54:07Z</time>
      </trkpt>
      <trkpt lat="44.30173" lon="5.66058">
        <ele>726</ele>
        <time>2019-03-08T13:54:08Z</time>
      </trkpt>
      <trkpt lat="44.30172" lon="5.66052">
        <ele>726</ele>
        <time>2019-03-08T13:54:09Z</time>
      </trkpt>
      <trkpt lat="44.3017" lon="5.66046">
        <ele>726</ele>
        <time>2019-03-08T13:54:10Z</time>
      </trkpt>
      <trkpt lat="44.3017" lon="5.66041">
        <ele>726</ele>
        <time>2019-03-08T13:54:11Z</time>
      </trkpt>
      <trkpt lat="44.30169" lon="5.66035">
        <ele>726</ele>
        <time>2019-03-08T13:54:12Z</time>
      </trkpt>
      <trkpt lat="44.30168" lon="5.66029">
        <ele>727</ele>
        <time>2019-03-08T13:54:13Z</time>
      </trkpt>
      <trkpt lat="44.30167" lon="5.66023">
        <ele>727</ele>
        <time>2019-03-08T13:54:14Z</time>
      </trkpt>
      <trkpt lat="44.30166" lon="5.66017">
        <ele>727</ele>
        <time>2019-03-08T13:54:15Z</time>
      </trkpt>
      <trkpt lat="44.30165" lon="5.66011">
        <ele>727</ele>
        <time>2019-03-08T13:54:16Z</time>
      </trkpt>
      <trkpt lat="44.30164" lon="5.66006">
        <ele>727</ele>
        <time>2019-03-08T13:54:17Z</time>
      </trkpt>
      <trkpt lat="44.30162" lon="5.66">
        <ele>727</ele>
        <time>2019-03-08T13:54:18Z</time>
      </trkpt>
      <trkpt lat="44.30161" lon="5.65994">
        <ele>727</ele>
        <time>2019-03-08T13:54:19Z</time>
      </trkpt>
      <trkpt lat="44.3016" lon="5.65988">
        <ele>727</ele>
        <time>2019-03-08T13:54:20Z</time>
      </trkpt>
      <trkpt lat="44.30158" lon="5.65982">
        <ele>727</ele>
        <time>2019-03-08T13:54:21Z</time>
      </trkpt>
      <trkpt lat="44.30156" lon="5.65976">
        <ele>727</ele>
        <time>2019-03-08T13:54:22Z</time>
      </trkpt>
      <trkpt lat="44.30154" lon="5.65971">
        <ele>727</ele>
        <time>2019-03-08T13:54:23Z</time>
      </trkpt>
      <trkpt lat="44.30153" lon="5.65965">
        <ele>727</ele>
        <time>2019-03-08T13:54:24Z</time>
      </trkpt>
      <trkpt lat="44.30151" lon="5.6596">
        <ele>727</ele>
        <time>2019-03-08T13:54:25Z</time>
      </trkpt>
      <trkpt lat="44.30148" lon="5.65954">
        <ele>727</ele>
        <time>2019-03-08T13:54:26Z</time>
      </trkpt>
      <trkpt lat="44.30146" lon="5.65949">
        <ele>728</ele>
        <time>2019-03-08T13:54:27Z</time>
      </trkpt>
      <trkpt lat="44.30143" lon="5.65945">
        <ele>728</ele>
        <time>2019-03-08T13:54:28Z</time>
      </trkpt>
      <trkpt lat="44.30141" lon="5.6594">
        <ele>728</ele>
        <time>2019-03-08T13:54:29Z</time>
      </trkpt>
      <trkpt lat="44.30138" lon="5.65935">
        <ele>728</ele>
        <time>2019-03-08T13:54:30Z</time>
      </trkpt>
      <trkpt lat="44.30136" lon="5.6593">
        <ele>728</ele>
        <time>2019-03-08T13:54:31Z</time>
      </trkpt>
      <trkpt lat="44.30133" lon="5.65926">
        <ele>728</ele>
        <time>2019-03-08T13:54:32Z</time>
      </trkpt>
      <trkpt lat="44.3013" lon="5.65921">
        <ele>728</ele>
        <time>2019-03-08T13:54:33Z</time>
      </trkpt>
      <trkpt lat="44.30128" lon="5.65917">
        <ele>728</ele>
        <time>2019-03-08T13:54:34Z</time>
      </trkpt>
      <trkpt lat="44.30125" lon="5.65912">
        <ele>728</ele>
        <time>2019-03-08T13:54:35Z</time>
      </trkpt>
      <trkpt lat="44.30124" lon="5.65908">
        <ele>728</ele>
        <time>2019-03-08T13:54:36Z</time>
      </trkpt>
      <trkpt lat="44.30122" lon="5.65904">
        <ele>728</ele>
        <time>2019-03-08T13:54:37Z</time>
      </trkpt>
      <trkpt lat="44.3012" lon="5.65899">
        <ele>728</ele>
        <time>2019-03-08T13:54:38Z</time>
      </trkpt>
      <trkpt lat="44.30118" lon="5.65894">
        <ele>728</ele>
        <time>2019-03-08T13:54:39Z</time>
      </trkpt>
      <trkpt lat="44.30116" lon="5.65889">
        <ele>728</ele>
        <time>2019-03-08T13:54:40Z</time>
      </trkpt>
      <trkpt lat="44.30115" lon="5.65885">
        <ele>729</ele>
        <time>2019-03-08T13:54:41Z</time>
      </trkpt>
      <trkpt lat="44.30113" lon="5.6588">
        <ele>729</ele>
        <time>2019-03-08T13:54:42Z</time>
      </trkpt>
      <trkpt lat="44.30111" lon="5.65875">
        <ele>729</ele>
        <time>2019-03-08T13:54:43Z</time>
      </trkpt>
      <trkpt lat="44.30109" lon="5.6587">
        <ele>729</ele>
        <time>2019-03-08T13:54:44Z</time>
      </trkpt>
      <trkpt lat="44.30107" lon="5.65865">
        <ele>729</ele>
        <time>2019-03-08T13:54:45Z</time>
      </trkpt>
      <trkpt lat="44.30105" lon="5.6586">
        <ele>730</ele>
        <time>2019-03-08T13:54:46Z</time>
      </trkpt>
      <trkpt lat="44.30103" lon="5.65855">
        <ele>730</ele>
        <time>2019-03-08T13:54:47Z</time>
      </trkpt>
      <trkpt lat="44.30101" lon="5.6585">
        <ele>730</ele>
        <time>2019-03-08T13:54:48Z</time>
      </trkpt>
      <trkpt lat="44.30099" lon="5.65845">
        <ele>730</ele>
        <time>2019-03-08T13:54:49Z</time>
      </trkpt>
      <trkpt lat="44.30097" lon="5.6584">
        <ele>730</ele>
        <time>2019-03-08T13:54:50Z</time>
      </trkpt>
      <trkpt lat="44.30096" lon="5.65835">
        <ele>730</ele>
        <time>2019-03-08T13:54:51Z</time>
      </trkpt>
      <trkpt lat="44.30093" lon="5.6583">
        <ele>730</ele>
        <time>2019-03-08T13:54:52Z</time>
      </trkpt>
      <trkpt lat="44.30091" lon="5.65825">
        <ele>730</ele>
        <time>2019-03-08T13:54:53Z</time>
      </trkpt>
      <trkpt lat="44.3009" lon="5.65821">
        <ele>730</ele>
        <time>2019-03-08T13:54:54Z</time>
      </trkpt>
      <trkpt lat="44.30088" lon="5.65815">
        <ele>730</ele>
        <time>2019-03-08T13:54:55Z</time>
      </trkpt>
      <trkpt lat="44.30087" lon="5.6581">
        <ele>730</ele>
        <time>2019-03-08T13:54:56Z</time>
      </trkpt>
      <trkpt lat="44.30085" lon="5.65805">
        <ele>730</ele>
        <time>2019-03-08T13:54:57Z</time>
      </trkpt>
      <trkpt lat="44.30083" lon="5.658">
        <ele>730</ele>
        <time>2019-03-08T13:54:58Z</time>
      </trkpt>
      <trkpt lat="44.30081" lon="5.65795">
        <ele>730</ele>
        <time>2019-03-08T13:54:59Z</time>
      </trkpt>
      <trkpt lat="44.30079" lon="5.65789">
        <ele>730</ele>
        <time>2019-03-08T13:55:00Z</time>
      </trkpt>
      <trkpt lat="44.30077" lon="5.65784">
        <ele>730</ele>
        <time>2019-03-08T13:55:01Z</time>
      </trkpt>
      <trkpt lat="44.30075" lon="5.65779">
        <ele>730</ele>
        <time>2019-03-08T13:55:02Z</time>
      </trkpt>
      <trkpt lat="44.30074" lon="5.65774">
        <ele>730</ele>
        <time>2019-03-08T13:55:03Z</time>
      </trkpt>
      <trkpt lat="44.30072" lon="5.65768">
        <ele>730</ele>
        <time>2019-03-08T13:55:04Z</time>
      </trkpt>
      <trkpt lat="44.3007" lon="5.65763">
        <ele>730</ele>
        <time>2019-03-08T13:55:05Z</time>
      </trkpt>
      <trkpt lat="44.30069" lon="5.65758">
        <ele>730</ele>
        <time>2019-03-08T13:55:06Z</time>
      </trkpt>
      <trkpt lat="44.30067" lon="5.65752">
        <ele>730</ele>
        <time>2019-03-08T13:55:07Z</time>
      </trkpt>
      <trkpt lat="44.30065" lon="5.65746">
        <ele>730</ele>
        <time>2019-03-08T13:55:08Z</time>
      </trkpt>
      <trkpt lat="44.30064" lon="5.65741">
        <ele>731</ele>
        <time>2019-03-08T13:55:09Z</time>
      </trkpt>
      <trkpt lat="44.30062" lon="5.65736">
        <ele>731</ele>
        <time>2019-03-08T13:55:10Z</time>
      </trkpt>
      <trkpt lat="44.30061" lon="5.65731">
        <ele>731</ele>
        <time>2019-03-08T13:55:11Z</time>
      </trkpt>
      <trkpt lat="44.30059" lon="5.65726">
        <ele>731</ele>
        <time>2019-03-08T13:55:12Z</time>
      </trkpt>
      <trkpt lat="44.30058" lon="5.65721">
        <ele>731</ele>
        <time>2019-03-08T13:55:13Z</time>
      </trkpt>
      <trkpt lat="44.30056" lon="5.65715">
        <ele>731</ele>
        <time>2019-03-08T13:55:14Z</time>
      </trkpt>
      <trkpt lat="44.30054" lon="5.6571">
        <ele>731</ele>
        <time>2019-03-08T13:55:15Z</time>
      </trkpt>
      <trkpt lat="44.30052" lon="5.65705">
        <ele>732</ele>
        <time>2019-03-08T13:55:16Z</time>
      </trkpt>
      <trkpt lat="44.30051" lon="5.657">
        <ele>732</ele>
        <time>2019-03-08T13:55:17Z</time>
      </trkpt>
      <trkpt lat="44.30049" lon="5.65694">
        <ele>732</ele>
        <time>2019-03-08T13:55:18Z</time>
      </trkpt>
      <trkpt lat="44.30047" lon="5.65689">
        <ele>733</ele>
        <time>2019-03-08T13:55:19Z</time>
      </trkpt>
      <trkpt lat="44.30045" lon="5.65683">
        <ele>733</ele>
        <time>2019-03-08T13:55:20Z</time>
      </trkpt>
      <trkpt lat="44.30044" lon="5.65678">
        <ele>733</ele>
        <time>2019-03-08T13:55:21Z</time>
      </trkpt>
      <trkpt lat="44.30042" lon="5.65673">
        <ele>734</ele>
        <time>2019-03-08T13:55:22Z</time>
      </trkpt>
      <trkpt lat="44.3004" lon="5.65668">
        <ele>734</ele>
        <time>2019-03-08T13:55:23Z</time>
      </trkpt>
      <trkpt lat="44.30038" lon="5.65663">
        <ele>734</ele>
        <time>2019-03-08T13:55:24Z</time>
      </trkpt>
      <trkpt lat="44.30036" lon="5.65659">
        <ele>734</ele>
        <time>2019-03-08T13:55:25Z</time>
      </trkpt>
      <trkpt lat="44.30034" lon="5.65653">
        <ele>735</ele>
        <time>2019-03-08T13:55:26Z</time>
      </trkpt>
      <trkpt lat="44.30032" lon="5.65648">
        <ele>735</ele>
        <time>2019-03-08T13:55:27Z</time>
      </trkpt>
      <trkpt lat="44.3003" lon="5.65643">
        <ele>735</ele>
        <time>2019-03-08T13:55:28Z</time>
      </trkpt>
      <trkpt lat="44.30028" lon="5.65638">
        <ele>735</ele>
        <time>2019-03-08T13:55:29Z</time>
      </trkpt>
      <trkpt lat="44.30026" lon="5.65633">
        <ele>735</ele>
        <time>2019-03-08T13:55:30Z</time>
      </trkpt>
      <trkpt lat="44.30024" lon="5.65627">
        <ele>736</ele>
        <time>2019-03-08T13:55:31Z</time>
      </trkpt>
      <trkpt lat="44.30022" lon="5.65622">
        <ele>736</ele>
        <time>2019-03-08T13:55:32Z</time>
      </trkpt>
      <trkpt lat="44.30019" lon="5.65617">
        <ele>736</ele>
        <time>2019-03-08T13:55:33Z</time>
      </trkpt>
      <trkpt lat="44.30017" lon="5.65612">
        <ele>736</ele>
        <time>2019-03-08T13:55:34Z</time>
      </trkpt>
      <trkpt lat="44.30016" lon="5.65607">
        <ele>737</ele>
        <time>2019-03-08T13:55:35Z</time>
      </trkpt>
      <trkpt lat="44.30013" lon="5.65601">
        <ele>737</ele>
        <time>2019-03-08T13:55:36Z</time>
      </trkpt>
      <trkpt lat="44.30011" lon="5.65596">
        <ele>737</ele>
        <time>2019-03-08T13:55:37Z</time>
      </trkpt>
      <trkpt lat="44.30009" lon="5.65591">
        <ele>737</ele>
        <time>2019-03-08T13:55:38Z</time>
      </trkpt>
      <trkpt lat="44.30006" lon="5.65586">
        <ele>738</ele>
        <time>2019-03-08T13:55:39Z</time>
      </trkpt>
      <trkpt lat="44.30004" lon="5.6558">
        <ele>738</ele>
        <time>2019-03-08T13:55:40Z</time>
      </trkpt>
      <trkpt lat="44.30002" lon="5.65575">
        <ele>738</ele>
        <time>2019-03-08T13:55:41Z</time>
      </trkpt>
      <trkpt lat="44.3" lon="5.6557">
        <ele>738</ele>
        <time>2019-03-08T13:55:42Z</time>
      </trkpt>
      <trkpt lat="44.29998" lon="5.65565">
        <ele>739</ele>
        <time>2019-03-08T13:55:43Z</time>
      </trkpt>
      <trkpt lat="44.29995" lon="5.6556">
        <ele>739</ele>
        <time>2019-03-08T13:55:44Z</time>
      </trkpt>
      <trkpt lat="44.29993" lon="5.65555">
        <ele>739</ele>
        <time>2019-03-08T13:55:45Z</time>
      </trkpt>
      <trkpt lat="44.29991" lon="5.65551">
        <ele>739</ele>
        <time>2019-03-08T13:55:46Z</time>
      </trkpt>
      <trkpt lat="44.2999" lon="5.65546">
        <ele>739</ele>
        <time>2019-03-08T13:55:47Z</time>
      </trkpt>
      <trkpt lat="44.29988" lon="5.65541">
        <ele>739</ele>
        <time>2019-03-08T13:55:48Z</time>
      </trkpt>
      <trkpt lat="44.29986" lon="5.65536">
        <ele>739</ele>
        <time>2019-03-08T13:55:49Z</time>
      </trkpt>
      <trkpt lat="44.29984" lon="5.6553">
        <ele>739</ele>
        <time>2019-03-08T13:55:50Z</time>
      </trkpt>
      <trkpt lat="44.29982" lon="5.65525">
        <ele>739</ele>
        <time>2019-03-08T13:55:51Z</time>
      </trkpt>
      <trkpt lat="44.29979" lon="5.6552">
        <ele>739</ele>
        <time>2019-03-08T13:55:52Z</time>
      </trkpt>
      <trkpt lat="44.29977" lon="5.65515">
        <ele>739</ele>
        <time>2019-03-08T13:55:53Z</time>
      </trkpt>
      <trkpt lat="44.29976" lon="5.6551">
        <ele>739</ele>
        <time>2019-03-08T13:55:54Z</time>
      </trkpt>
      <trkpt lat="44.29973" lon="5.65504">
        <ele>739</ele>
        <time>2019-03-08T13:55:55Z</time>
      </trkpt>
      <trkpt lat="44.29971" lon="5.65499">
        <ele>739</ele>
        <time>2019-03-08T13:55:56Z</time>
      </trkpt>
      <trkpt lat="44.29969" lon="5.65494">
        <ele>739</ele>
        <time>2019-03-08T13:55:57Z</time>
      </trkpt>
      <trkpt lat="44.29967" lon="5.65489">
        <ele>739</ele>
        <time>2019-03-08T13:55:58Z</time>
      </trkpt>
      <trkpt lat="44.29965" lon="5.65484">
        <ele>739</ele>
        <time>2019-03-08T13:55:59Z</time>
      </trkpt>
      <trkpt lat="44.29963" lon="5.65478">
        <ele>739</ele>
        <time>2019-03-08T13:56:00Z</time>
      </trkpt>
      <trkpt lat="44.29961" lon="5.65473">
        <ele>739</ele>
        <time>2019-03-08T13:56:01Z</time>
      </trkpt>
      <trkpt lat="44.29959" lon="5.65467">
        <ele>739</ele>
        <time>2019-03-08T13:56:02Z</time>
      </trkpt>
      <trkpt lat="44.29956" lon="5.65462">
        <ele>739</ele>
        <time>2019-03-08T13:56:03Z</time>
      </trkpt>
      <trkpt lat="44.29954" lon="5.65457">
        <ele>739</ele>
        <time>2019-03-08T13:56:04Z</time>
      </trkpt>
      <trkpt lat="44.29952" lon="5.65452">
        <ele>739</ele>
        <time>2019-03-08T13:56:05Z</time>
      </trkpt>
      <trkpt lat="44.2995" lon="5.65447">
        <ele>739</ele>
        <time>2019-03-08T13:56:06Z</time>
      </trkpt>
      <trkpt lat="44.29948" lon="5.65442">
        <ele>740</ele>
        <time>2019-03-08T13:56:07Z</time>
      </trkpt>
      <trkpt lat="44.29945" lon="5.65436">
        <ele>740</ele>
        <time>2019-03-08T13:56:08Z</time>
      </trkpt>
      <trkpt lat="44.29943" lon="5.6543">
        <ele>740</ele>
        <time>2019-03-08T13:56:09Z</time>
      </trkpt>
      <trkpt lat="44.29941" lon="5.65425">
        <ele>741</ele>
        <time>2019-03-08T13:56:10Z</time>
      </trkpt>
      <trkpt lat="44.29939" lon="5.6542">
        <ele>741</ele>
        <time>2019-03-08T13:56:11Z</time>
      </trkpt>
      <trkpt lat="44.29937" lon="5.65415">
        <ele>741</ele>
        <time>2019-03-08T13:56:12Z</time>
      </trkpt>
      <trkpt lat="44.29935" lon="5.6541">
        <ele>741</ele>
        <time>2019-03-08T13:56:13Z</time>
      </trkpt>
      <trkpt lat="44.29933" lon="5.65405">
        <ele>741</ele>
        <time>2019-03-08T13:56:14Z</time>
      </trkpt>
      <trkpt lat="44.29931" lon="5.654">
        <ele>741</ele>
        <time>2019-03-08T13:56:15Z</time>
      </trkpt>
      <trkpt lat="44.29929" lon="5.65394">
        <ele>741</ele>
        <time>2019-03-08T13:56:16Z</time>
      </trkpt>
      <trkpt lat="44.29926" lon="5.65389">
        <ele>741</ele>
        <time>2019-03-08T13:56:17Z</time>
      </trkpt>
      <trkpt lat="44.29924" lon="5.65384">
        <ele>741</ele>
        <time>2019-03-08T13:56:18Z</time>
      </trkpt>
      <trkpt lat="44.29922" lon="5.65379">
        <ele>742</ele>
        <time>2019-03-08T13:56:19Z</time>
      </trkpt>
      <trkpt lat="44.2992" lon="5.65374">
        <ele>742</ele>
        <time>2019-03-08T13:56:20Z</time>
      </trkpt>
      <trkpt lat="44.29919" lon="5.65369">
        <ele>742</ele>
        <time>2019-03-08T13:56:21Z</time>
      </trkpt>
      <trkpt lat="44.29916" lon="5.65364">
        <ele>742</ele>
        <time>2019-03-08T13:56:22Z</time>
      </trkpt>
      <trkpt lat="44.29915" lon="5.65359">
        <ele>742</ele>
        <time>2019-03-08T13:56:23Z</time>
      </trkpt>
      <trkpt lat="44.29913" lon="5.65354">
        <ele>742</ele>
        <time>2019-03-08T13:56:24Z</time>
      </trkpt>
      <trkpt lat="44.29911" lon="5.6535">
        <ele>742</ele>
        <time>2019-03-08T13:56:25Z</time>
      </trkpt>
      <trkpt lat="44.2991" lon="5.65345">
        <ele>742</ele>
        <time>2019-03-08T13:56:26Z</time>
      </trkpt>
      <trkpt lat="44.29908" lon="5.6534">
        <ele>742</ele>
        <time>2019-03-08T13:56:27Z</time>
      </trkpt>
      <trkpt lat="44.29905" lon="5.65334">
        <ele>742</ele>
        <time>2019-03-08T13:56:28Z</time>
      </trkpt>
      <trkpt lat="44.29904" lon="5.6533">
        <ele>742</ele>
        <time>2019-03-08T13:56:29Z</time>
      </trkpt>
      <trkpt lat="44.29902" lon="5.65325">
        <ele>742</ele>
        <time>2019-03-08T13:56:30Z</time>
      </trkpt>
      <trkpt lat="44.29899" lon="5.6532">
        <ele>742</ele>
        <time>2019-03-08T13:56:31Z</time>
      </trkpt>
      <trkpt lat="44.29897" lon="5.65315">
        <ele>742</ele>
        <time>2019-03-08T13:56:32Z</time>
      </trkpt>
      <trkpt lat="44.29895" lon="5.65311">
        <ele>742</ele>
        <time>2019-03-08T13:56:33Z</time>
      </trkpt>
      <trkpt lat="44.29893" lon="5.65306">
        <ele>742</ele>
        <time>2019-03-08T13:56:34Z</time>
      </trkpt>
      <trkpt lat="44.29891" lon="5.653">
        <ele>742</ele>
        <time>2019-03-08T13:56:35Z</time>
      </trkpt>
      <trkpt lat="44.29889" lon="5.65295">
        <ele>742</ele>
        <time>2019-03-08T13:56:36Z</time>
      </trkpt>
      <trkpt lat="44.29887" lon="5.65289">
        <ele>742</ele>
        <time>2019-03-08T13:56:37Z</time>
      </trkpt>
      <trkpt lat="44.29884" lon="5.65284">
        <ele>742</ele>
        <time>2019-03-08T13:56:38Z</time>
      </trkpt>
      <trkpt lat="44.29882" lon="5.65278">
        <ele>742</ele>
        <time>2019-03-08T13:56:39Z</time>
      </trkpt>
      <trkpt lat="44.29881" lon="5.65273">
        <ele>742</ele>
        <time>2019-03-08T13:56:40Z</time>
      </trkpt>
      <trkpt lat="44.29879" lon="5.65268">
        <ele>742</ele>
        <time>2019-03-08T13:56:41Z</time>
      </trkpt>
      <trkpt lat="44.29876" lon="5.65263">
        <ele>743</ele>
        <time>2019-03-08T13:56:42Z</time>
      </trkpt>
      <trkpt lat="44.29874" lon="5.65259">
        <ele>743</ele>
        <time>2019-03-08T13:56:43Z</time>
      </trkpt>
      <trkpt lat="44.29872" lon="5.65254">
        <ele>743</ele>
        <time>2019-03-08T13:56:44Z</time>
      </trkpt>
      <trkpt lat="44.2987" lon="5.6525">
        <ele>743</ele>
        <time>2019-03-08T13:56:45Z</time>
      </trkpt>
      <trkpt lat="44.29868" lon="5.65245">
        <ele>743</ele>
        <time>2019-03-08T13:56:46Z</time>
      </trkpt>
      <trkpt lat="44.29866" lon="5.65241">
        <ele>743</ele>
        <time>2019-03-08T13:56:47Z</time>
      </trkpt>
      <trkpt lat="44.29865" lon="5.65236">
        <ele>743</ele>
        <time>2019-03-08T13:56:48Z</time>
      </trkpt>
      <trkpt lat="44.29863" lon="5.65231">
        <ele>743</ele>
        <time>2019-03-08T13:56:49Z</time>
      </trkpt>
      <trkpt lat="44.2986" lon="5.65227">
        <ele>743</ele>
        <time>2019-03-08T13:56:50Z</time>
      </trkpt>
      <trkpt lat="44.29858" lon="5.65222">
        <ele>743</ele>
        <time>2019-03-08T13:56:51Z</time>
      </trkpt>
      <trkpt lat="44.29855" lon="5.65217">
        <ele>743</ele>
        <time>2019-03-08T13:56:52Z</time>
      </trkpt>
      <trkpt lat="44.29853" lon="5.65212">
        <ele>743</ele>
        <time>2019-03-08T13:56:53Z</time>
      </trkpt>
      <trkpt lat="44.2985" lon="5.65207">
        <ele>743</ele>
        <time>2019-03-08T13:56:54Z</time>
      </trkpt>
      <trkpt lat="44.29848" lon="5.65202">
        <ele>743</ele>
        <time>2019-03-08T13:56:55Z</time>
      </trkpt>
      <trkpt lat="44.29845" lon="5.65197">
        <ele>743</ele>
        <time>2019-03-08T13:56:56Z</time>
      </trkpt>
      <trkpt lat="44.29843" lon="5.65192">
        <ele>743</ele>
        <time>2019-03-08T13:56:57Z</time>
      </trkpt>
      <trkpt lat="44.29841" lon="5.65186">
        <ele>743</ele>
        <time>2019-03-08T13:56:58Z</time>
      </trkpt>
      <trkpt lat="44.29838" lon="5.65181">
        <ele>743</ele>
        <time>2019-03-08T13:56:59Z</time>
      </trkpt>
      <trkpt lat="44.29836" lon="5.65176">
        <ele>743</ele>
        <time>2019-03-08T13:57:00Z</time>
      </trkpt>
      <trkpt lat="44.29834" lon="5.6517">
        <ele>743</ele>
        <time>2019-03-08T13:57:01Z</time>
      </trkpt>
      <trkpt lat="44.29831" lon="5.65165">
        <ele>743</ele>
        <time>2019-03-08T13:57:02Z</time>
      </trkpt>
      <trkpt lat="44.29829" lon="5.65159">
        <ele>744</ele>
        <time>2019-03-08T13:57:03Z</time>
      </trkpt>
      <trkpt lat="44.29827" lon="5.65154">
        <ele>744</ele>
        <time>2019-03-08T13:57:04Z</time>
      </trkpt>
      <trkpt lat="44.29824" lon="5.65148">
        <ele>744</ele>
        <time>2019-03-08T13:57:05Z</time>
      </trkpt>
      <trkpt lat="44.29822" lon="5.65143">
        <ele>744</ele>
        <time>2019-03-08T13:57:06Z</time>
      </trkpt>
      <trkpt lat="44.2982" lon="5.65138">
        <ele>744</ele>
        <time>2019-03-08T13:57:07Z</time>
      </trkpt>
      <trkpt lat="44.29818" lon="5.65132">
        <ele>745</ele>
        <time>2019-03-08T13:57:08Z</time>
      </trkpt>
      <trkpt lat="44.29816" lon="5.65126">
        <ele>745</ele>
        <time>2019-03-08T13:57:09Z</time>
      </trkpt>
      <trkpt lat="44.29813" lon="5.65121">
        <ele>745</ele>
        <time>2019-03-08T13:57:10Z</time>
      </trkpt>
      <trkpt lat="44.29811" lon="5.65115">
        <ele>745</ele>
        <time>2019-03-08T13:57:11Z</time>
      </trkpt>
      <trkpt lat="44.29809" lon="5.65109">
        <ele>745</ele>
        <time>2019-03-08T13:57:12Z</time>
      </trkpt>
      <trkpt lat="44.29806" lon="5.65103">
        <ele>745</ele>
        <time>2019-03-08T13:57:13Z</time>
      </trkpt>
      <trkpt lat="44.29804" lon="5.65098">
        <ele>746</ele>
        <time>2019-03-08T13:57:14Z</time>
      </trkpt>
      <trkpt lat="44.29801" lon="5.65092">
        <ele>746</ele>
        <time>2019-03-08T13:57:15Z</time>
      </trkpt>
      <trkpt lat="44.29799" lon="5.65087">
        <ele>746</ele>
        <time>2019-03-08T13:57:16Z</time>
      </trkpt>
      <trkpt lat="44.29796" lon="5.65081">
        <ele>746</ele>
        <time>2019-03-08T13:57:17Z</time>
      </trkpt>
      <trkpt lat="44.29794" lon="5.65075">
        <ele>746</ele>
        <time>2019-03-08T13:57:18Z</time>
      </trkpt>
      <trkpt lat="44.29791" lon="5.65069">
        <ele>746</ele>
        <time>2019-03-08T13:57:19Z</time>
      </trkpt>
      <trkpt lat="44.29789" lon="5.65063">
        <ele>746</ele>
        <time>2019-03-08T13:57:20Z</time>
      </trkpt>
      <trkpt lat="44.29787" lon="5.65057">
        <ele>747</ele>
        <time>2019-03-08T13:57:21Z</time>
      </trkpt>
      <trkpt lat="44.29784" lon="5.65052">
        <ele>747</ele>
        <time>2019-03-08T13:57:22Z</time>
      </trkpt>
      <trkpt lat="44.29782" lon="5.65046">
        <ele>747</ele>
        <time>2019-03-08T13:57:23Z</time>
      </trkpt>
      <trkpt lat="44.2978" lon="5.65041">
        <ele>747</ele>
        <time>2019-03-08T13:57:24Z</time>
      </trkpt>
      <trkpt lat="44.29778" lon="5.65035">
        <ele>747</ele>
        <time>2019-03-08T13:57:25Z</time>
      </trkpt>
      <trkpt lat="44.29775" lon="5.65029">
        <ele>747</ele>
        <time>2019-03-08T13:57:26Z</time>
      </trkpt>
      <trkpt lat="44.29773" lon="5.65024">
        <ele>747</ele>
        <time>2019-03-08T13:57:27Z</time>
      </trkpt>
      <trkpt lat="44.29771" lon="5.65018">
        <ele>747</ele>
        <time>2019-03-08T13:57:28Z</time>
      </trkpt>
      <trkpt lat="44.29768" lon="5.65012">
        <ele>747</ele>
        <time>2019-03-08T13:57:29Z</time>
      </trkpt>
      <trkpt lat="44.29766" lon="5.65006">
        <ele>747</ele>
        <time>2019-03-08T13:57:30Z</time>
      </trkpt>
      <trkpt lat="44.29763" lon="5.65">
        <ele>747</ele>
        <time>2019-03-08T13:57:31Z</time>
      </trkpt>
      <trkpt lat="44.2976" lon="5.64994">
        <ele>747</ele>
        <time>2019-03-08T13:57:32Z</time>
      </trkpt>
      <trkpt lat="44.29758" lon="5.64988">
        <ele>747</ele>
        <time>2019-03-08T13:57:33Z</time>
      </trkpt>
      <trkpt lat="44.29755" lon="5.64982">
        <ele>747</ele>
        <time>2019-03-08T13:57:34Z</time>
      </trkpt>
      <trkpt lat="44.29752" lon="5.64977">
        <ele>747</ele>
        <time>2019-03-08T13:57:35Z</time>
      </trkpt>
      <trkpt lat="44.29749" lon="5.64971">
        <ele>747</ele>
        <time>2019-03-08T13:57:36Z</time>
      </trkpt>
      <trkpt lat="44.29747" lon="5.64966">
        <ele>747</ele>
        <time>2019-03-08T13:57:37Z</time>
      </trkpt>
      <trkpt lat="44.29744" lon="5.6496">
        <ele>747</ele>
        <time>2019-03-08T13:57:38Z</time>
      </trkpt>
      <trkpt lat="44.29742" lon="5.64954">
        <ele>747</ele>
        <time>2019-03-08T13:57:39Z</time>
      </trkpt>
      <trkpt lat="44.29739" lon="5.64948">
        <ele>747</ele>
        <time>2019-03-08T13:57:40Z</time>
      </trkpt>
      <trkpt lat="44.29737" lon="5.64942">
        <ele>747</ele>
        <time>2019-03-08T13:57:41Z</time>
      </trkpt>
      <trkpt lat="44.29734" lon="5.64937">
        <ele>747</ele>
        <time>2019-03-08T13:57:42Z</time>
      </trkpt>
      <trkpt lat="44.29731" lon="5.64931">
        <ele>747</ele>
        <time>2019-03-08T13:57:43Z</time>
      </trkpt>
      <trkpt lat="44.29729" lon="5.64926">
        <ele>747</ele>
        <time>2019-03-08T13:57:44Z</time>
      </trkpt>
      <trkpt lat="44.29726" lon="5.6492">
        <ele>747</ele>
        <time>2019-03-08T13:57:45Z</time>
      </trkpt>
      <trkpt lat="44.29724" lon="5.64914">
        <ele>747</ele>
        <time>2019-03-08T13:57:46Z</time>
      </trkpt>
      <trkpt lat="44.29722" lon="5.64909">
        <ele>747</ele>
        <time>2019-03-08T13:57:47Z</time>
      </trkpt>
      <trkpt lat="44.2972" lon="5.64903">
        <ele>747</ele>
        <time>2019-03-08T13:57:48Z</time>
      </trkpt>
      <trkpt lat="44.29718" lon="5.64897">
        <ele>747</ele>
        <time>2019-03-08T13:57:49Z</time>
      </trkpt>
      <trkpt lat="44.29715" lon="5.64892">
        <ele>747</ele>
        <time>2019-03-08T13:57:50Z</time>
      </trkpt>
      <trkpt lat="44.29713" lon="5.64886">
        <ele>747</ele>
        <time>2019-03-08T13:57:51Z</time>
      </trkpt>
      <trkpt lat="44.29711" lon="5.64881">
        <ele>747</ele>
        <time>2019-03-08T13:57:52Z</time>
      </trkpt>
      <trkpt lat="44.29709" lon="5.64875">
        <ele>747</ele>
        <time>2019-03-08T13:57:53Z</time>
      </trkpt>
      <trkpt lat="44.29707" lon="5.64869">
        <ele>747</ele>
        <time>2019-03-08T13:57:54Z</time>
      </trkpt>
      <trkpt lat="44.29705" lon="5.64863">
        <ele>747</ele>
        <time>2019-03-08T13:57:55Z</time>
      </trkpt>
      <trkpt lat="44.29702" lon="5.64857">
        <ele>747</ele>
        <time>2019-03-08T13:57:56Z</time>
      </trkpt>
      <trkpt lat="44.297" lon="5.64852">
        <ele>747</ele>
        <time>2019-03-08T13:57:57Z</time>
      </trkpt>
      <trkpt lat="44.29698" lon="5.64846">
        <ele>747</ele>
        <time>2019-03-08T13:57:58Z</time>
      </trkpt>
      <trkpt lat="44.29696" lon="5.6484">
        <ele>747</ele>
        <time>2019-03-08T13:57:59Z</time>
      </trkpt>
      <trkpt lat="44.29694" lon="5.64834">
        <ele>747</ele>
        <time>2019-03-08T13:58:00Z</time>
      </trkpt>
      <trkpt lat="44.29692" lon="5.64828">
        <ele>747</ele>
        <time>2019-03-08T13:58:01Z</time>
      </trkpt>
      <trkpt lat="44.29689" lon="5.64822">
        <ele>747</ele>
        <time>2019-03-08T13:58:02Z</time>
      </trkpt>
      <trkpt lat="44.29687" lon="5.64816">
        <ele>747</ele>
        <time>2019-03-08T13:58:03Z</time>
      </trkpt>
      <trkpt lat="44.29686" lon="5.6481">
        <ele>747</ele>
        <time>2019-03-08T13:58:04Z</time>
      </trkpt>
      <trkpt lat="44.29684" lon="5.64804">
        <ele>747</ele>
        <time>2019-03-08T13:58:05Z</time>
      </trkpt>
      <trkpt lat="44.29682" lon="5.64797">
        <ele>748</ele>
        <time>2019-03-08T13:58:06Z</time>
      </trkpt>
      <trkpt lat="44.29681" lon="5.64791">
        <ele>748</ele>
        <time>2019-03-08T13:58:07Z</time>
      </trkpt>
      <trkpt lat="44.29679" lon="5.64785">
        <ele>748</ele>
        <time>2019-03-08T13:58:08Z</time>
      </trkpt>
      <trkpt lat="44.29678" lon="5.64779">
        <ele>748</ele>
        <time>2019-03-08T13:58:09Z</time>
      </trkpt>
      <trkpt lat="44.29678" lon="5.64772">
        <ele>748</ele>
        <time>2019-03-08T13:58:10Z</time>
      </trkpt>
      <trkpt lat="44.29677" lon="5.64766">
        <ele>748</ele>
        <time>2019-03-08T13:58:11Z</time>
      </trkpt>
      <trkpt lat="44.29677" lon="5.6476">
        <ele>748</ele>
        <time>2019-03-08T13:58:12Z</time>
      </trkpt>
      <trkpt lat="44.29677" lon="5.64753">
        <ele>748</ele>
        <time>2019-03-08T13:58:13Z</time>
      </trkpt>
      <trkpt lat="44.29678" lon="5.64748">
        <ele>748</ele>
        <time>2019-03-08T13:58:14Z</time>
      </trkpt>
      <trkpt lat="44.29679" lon="5.64742">
        <ele>748</ele>
        <time>2019-03-08T13:58:15Z</time>
      </trkpt>
      <trkpt lat="44.29679" lon="5.64735">
        <ele>748</ele>
        <time>2019-03-08T13:58:16Z</time>
      </trkpt>
      <trkpt lat="44.2968" lon="5.64728">
        <ele>748</ele>
        <time>2019-03-08T13:58:17Z</time>
      </trkpt>
      <trkpt lat="44.2968" lon="5.64721">
        <ele>748</ele>
        <time>2019-03-08T13:58:18Z</time>
      </trkpt>
      <trkpt lat="44.29681" lon="5.64714">
        <ele>748</ele>
        <time>2019-03-08T13:58:19Z</time>
      </trkpt>
      <trkpt lat="44.2968" lon="5.64706">
        <ele>748</ele>
        <time>2019-03-08T13:58:20Z</time>
      </trkpt>
      <trkpt lat="44.2968" lon="5.64699">
        <ele>748</ele>
        <time>2019-03-08T13:58:21Z</time>
      </trkpt>
      <trkpt lat="44.29679" lon="5.64691">
        <ele>748</ele>
        <time>2019-03-08T13:58:22Z</time>
      </trkpt>
      <trkpt lat="44.29678" lon="5.64684">
        <ele>748</ele>
        <time>2019-03-08T13:58:23Z</time>
      </trkpt>
      <trkpt lat="44.29676" lon="5.64678">
        <ele>748</ele>
        <time>2019-03-08T13:58:24Z</time>
      </trkpt>
      <trkpt lat="44.29673" lon="5.64672">
        <ele>748</ele>
        <time>2019-03-08T13:58:25Z</time>
      </trkpt>
      <trkpt lat="44.2967" lon="5.64667">
        <ele>748</ele>
        <time>2019-03-08T13:58:26Z</time>
      </trkpt>
      <trkpt lat="44.29666" lon="5.64662">
        <ele>748</ele>
        <time>2019-03-08T13:58:27Z</time>
      </trkpt>
      <trkpt lat="44.29661" lon="5.64658">
        <ele>748</ele>
        <time>2019-03-08T13:58:28Z</time>
      </trkpt>
      <trkpt lat="44.29657" lon="5.64654">
        <ele>748</ele>
        <time>2019-03-08T13:58:29Z</time>
      </trkpt>
      <trkpt lat="44.29652" lon="5.6465">
        <ele>748</ele>
        <time>2019-03-08T13:58:30Z</time>
      </trkpt>
      <trkpt lat="44.29648" lon="5.64646">
        <ele>748</ele>
        <time>2019-03-08T13:58:31Z</time>
      </trkpt>
      <trkpt lat="44.29644" lon="5.64642">
        <ele>748</ele>
        <time>2019-03-08T13:58:32Z</time>
      </trkpt>
      <trkpt lat="44.2964" lon="5.64638">
        <ele>748</ele>
        <time>2019-03-08T13:58:33Z</time>
      </trkpt>
      <trkpt lat="44.29637" lon="5.64634">
        <ele>748</ele>
        <time>2019-03-08T13:58:34Z</time>
      </trkpt>
      <trkpt lat="44.29634" lon="5.64629">
        <ele>748</ele>
        <time>2019-03-08T13:58:35Z</time>
      </trkpt>
      <trkpt lat="44.29631" lon="5.64624">
        <ele>748</ele>
        <time>2019-03-08T13:58:36Z</time>
      </trkpt>
      <trkpt lat="44.29629" lon="5.64618">
        <ele>748</ele>
        <time>2019-03-08T13:58:37Z</time>
      </trkpt>
      <trkpt lat="44.29627" lon="5.64613">
        <ele>748</ele>
        <time>2019-03-08T13:58:38Z</time>
      </trkpt>
      <trkpt lat="44.29625" lon="5.64607">
        <ele>748</ele>
        <time>2019-03-08T13:58:39Z</time>
      </trkpt>
      <trkpt lat="44.29623" lon="5.646">
        <ele>748</ele>
        <time>2019-03-08T13:58:40Z</time>
      </trkpt>
      <trkpt lat="44.29621" lon="5.64594">
        <ele>748</ele>
        <time>2019-03-08T13:58:41Z</time>
      </trkpt>
      <trkpt lat="44.2962" lon="5.64587">
        <ele>748</ele>
        <time>2019-03-08T13:58:42Z</time>
      </trkpt>
      <trkpt lat="44.29618" lon="5.6458">
        <ele>748</ele>
        <time>2019-03-08T13:58:43Z</time>
      </trkpt>
      <trkpt lat="44.29617" lon="5.64574">
        <ele>748</ele>
        <time>2019-03-08T13:58:44Z</time>
      </trkpt>
      <trkpt lat="44.29615" lon="5.64567">
        <ele>748</ele>
        <time>2019-03-08T13:58:45Z</time>
      </trkpt>
      <trkpt lat="44.29614" lon="5.6456">
        <ele>748</ele>
        <time>2019-03-08T13:58:46Z</time>
      </trkpt>
      <trkpt lat="44.29613" lon="5.64553">
        <ele>748</ele>
        <time>2019-03-08T13:58:47Z</time>
      </trkpt>
      <trkpt lat="44.29612" lon="5.64547">
        <ele>749</ele>
        <time>2019-03-08T13:58:48Z</time>
      </trkpt>
      <trkpt lat="44.29611" lon="5.6454">
        <ele>749</ele>
        <time>2019-03-08T13:58:49Z</time>
      </trkpt>
      <trkpt lat="44.2961" lon="5.64534">
        <ele>749</ele>
        <time>2019-03-08T13:58:50Z</time>
      </trkpt>
      <trkpt lat="44.29608" lon="5.64527">
        <ele>749</ele>
        <time>2019-03-08T13:58:51Z</time>
      </trkpt>
      <trkpt lat="44.29607" lon="5.64521">
        <ele>749</ele>
        <time>2019-03-08T13:58:52Z</time>
      </trkpt>
      <trkpt lat="44.29605" lon="5.64514">
        <ele>749</ele>
        <time>2019-03-08T13:58:53Z</time>
      </trkpt>
      <trkpt lat="44.29604" lon="5.64507">
        <ele>749</ele>
        <time>2019-03-08T13:58:54Z</time>
      </trkpt>
      <trkpt lat="44.29603" lon="5.64501">
        <ele>749</ele>
        <time>2019-03-08T13:58:55Z</time>
      </trkpt>
      <trkpt lat="44.29601" lon="5.64494">
        <ele>750</ele>
        <time>2019-03-08T13:58:56Z</time>
      </trkpt>
      <trkpt lat="44.296" lon="5.64487">
        <ele>750</ele>
        <time>2019-03-08T13:58:57Z</time>
      </trkpt>
      <trkpt lat="44.29598" lon="5.6448">
        <ele>750</ele>
        <time>2019-03-08T13:58:58Z</time>
      </trkpt>
      <trkpt lat="44.29596" lon="5.64473">
        <ele>750</ele>
        <time>2019-03-08T13:58:59Z</time>
      </trkpt>
      <trkpt lat="44.29594" lon="5.64466">
        <ele>750</ele>
        <time>2019-03-08T13:59:00Z</time>
      </trkpt>
      <trkpt lat="44.29593" lon="5.6446">
        <ele>750</ele>
        <time>2019-03-08T13:59:01Z</time>
      </trkpt>
      <trkpt lat="44.29591" lon="5.64453">
        <ele>750</ele>
        <time>2019-03-08T13:59:02Z</time>
      </trkpt>
      <trkpt lat="44.29588" lon="5.64446">
        <ele>750</ele>
        <time>2019-03-08T13:59:03Z</time>
      </trkpt>
      <trkpt lat="44.29586" lon="5.64439">
        <ele>750</ele>
        <time>2019-03-08T13:59:04Z</time>
      </trkpt>
      <trkpt lat="44.29584" lon="5.64433">
        <ele>750</ele>
        <time>2019-03-08T13:59:05Z</time>
      </trkpt>
      <trkpt lat="44.29582" lon="5.64427">
        <ele>750</ele>
        <time>2019-03-08T13:59:06Z</time>
      </trkpt>
      <trkpt lat="44.2958" lon="5.6442">
        <ele>750</ele>
        <time>2019-03-08T13:59:07Z</time>
      </trkpt>
      <trkpt lat="44.29578" lon="5.64414">
        <ele>750</ele>
        <time>2019-03-08T13:59:08Z</time>
      </trkpt>
      <trkpt lat="44.29575" lon="5.64408">
        <ele>750</ele>
        <time>2019-03-08T13:59:09Z</time>
      </trkpt>
      <trkpt lat="44.29573" lon="5.64401">
        <ele>750</ele>
        <time>2019-03-08T13:59:10Z</time>
      </trkpt>
      <trkpt lat="44.29571" lon="5.64395">
        <ele>750</ele>
        <time>2019-03-08T13:59:11Z</time>
      </trkpt>
      <trkpt lat="44.29569" lon="5.64389">
        <ele>750</ele>
        <time>2019-03-08T13:59:12Z</time>
      </trkpt>
      <trkpt lat="44.29567" lon="5.64383">
        <ele>750</ele>
        <time>2019-03-08T13:59:13Z</time>
      </trkpt>
      <trkpt lat="44.29564" lon="5.64376">
        <ele>750</ele>
        <time>2019-03-08T13:59:14Z</time>
      </trkpt>
      <trkpt lat="44.29562" lon="5.6437">
        <ele>750</ele>
        <time>2019-03-08T13:59:15Z</time>
      </trkpt>
      <trkpt lat="44.29559" lon="5.64364">
        <ele>750</ele>
        <time>2019-03-08T13:59:16Z</time>
      </trkpt>
      <trkpt lat="44.29556" lon="5.64358">
        <ele>750</ele>
        <time>2019-03-08T13:59:17Z</time>
      </trkpt>
      <trkpt lat="44.29552" lon="5.64352">
        <ele>750</ele>
        <time>2019-03-08T13:59:18Z</time>
      </trkpt>
      <trkpt lat="44.29549" lon="5.64346">
        <ele>750</ele>
        <time>2019-03-08T13:59:19Z</time>
      </trkpt>
      <trkpt lat="44.29546" lon="5.64339">
        <ele>750</ele>
        <time>2019-03-08T13:59:20Z</time>
      </trkpt>
      <trkpt lat="44.29543" lon="5.64333">
        <ele>750</ele>
        <time>2019-03-08T13:59:21Z</time>
      </trkpt>
      <trkpt lat="44.2954" lon="5.64327">
        <ele>750</ele>
        <time>2019-03-08T13:59:22Z</time>
      </trkpt>
      <trkpt lat="44.29537" lon="5.6432">
        <ele>750</ele>
        <time>2019-03-08T13:59:23Z</time>
      </trkpt>
      <trkpt lat="44.29534" lon="5.64314">
        <ele>750</ele>
        <time>2019-03-08T13:59:24Z</time>
      </trkpt>
      <trkpt lat="44.29531" lon="5.64307">
        <ele>750</ele>
        <time>2019-03-08T13:59:25Z</time>
      </trkpt>
      <trkpt lat="44.29528" lon="5.643">
        <ele>750</ele>
        <time>2019-03-08T13:59:26Z</time>
      </trkpt>
      <trkpt lat="44.29525" lon="5.64293">
        <ele>750</ele>
        <time>2019-03-08T13:59:27Z</time>
      </trkpt>
      <trkpt lat="44.29522" lon="5.64286">
        <ele>750</ele>
        <time>2019-03-08T13:59:28Z</time>
      </trkpt>
      <trkpt lat="44.29519" lon="5.64279">
        <ele>750</ele>
        <time>2019-03-08T13:59:29Z</time>
      </trkpt>
      <trkpt lat="44.29515" lon="5.64272">
        <ele>750</ele>
        <time>2019-03-08T13:59:30Z</time>
      </trkpt>
      <trkpt lat="44.29512" lon="5.64265">
        <ele>750</ele>
        <time>2019-03-08T13:59:31Z</time>
      </trkpt>
      <trkpt lat="44.29509" lon="5.64258">
        <ele>750</ele>
        <time>2019-03-08T13:59:32Z</time>
      </trkpt>
      <trkpt lat="44.29506" lon="5.64251">
        <ele>750</ele>
        <time>2019-03-08T13:59:33Z</time>
      </trkpt>
      <trkpt lat="44.29502" lon="5.64244">
        <ele>750</ele>
        <time>2019-03-08T13:59:34Z</time>
      </trkpt>
      <trkpt lat="44.29498" lon="5.64238">
        <ele>750</ele>
        <time>2019-03-08T13:59:35Z</time>
      </trkpt>
      <trkpt lat="44.29494" lon="5.64232">
        <ele>750</ele>
        <time>2019-03-08T13:59:36Z</time>
      </trkpt>
      <trkpt lat="44.29489" lon="5.64226">
        <ele>750</ele>
        <time>2019-03-08T13:59:37Z</time>
      </trkpt>
      <trkpt lat="44.29485" lon="5.6422">
        <ele>750</ele>
        <time>2019-03-08T13:59:38Z</time>
      </trkpt>
      <trkpt lat="44.29481" lon="5.64215">
        <ele>750</ele>
        <time>2019-03-08T13:59:39Z</time>
      </trkpt>
      <trkpt lat="44.29477" lon="5.64209">
        <ele>750</ele>
        <time>2019-03-08T13:59:40Z</time>
      </trkpt>
      <trkpt lat="44.29473" lon="5.64202">
        <ele>750</ele>
        <time>2019-03-08T13:59:41Z</time>
      </trkpt>
      <trkpt lat="44.2947" lon="5.64196">
        <ele>750</ele>
        <time>2019-03-08T13:59:42Z</time>
      </trkpt>
      <trkpt lat="44.29466" lon="5.64189">
        <ele>750</ele>
        <time>2019-03-08T13:59:43Z</time>
      </trkpt>
      <trkpt lat="44.29464" lon="5.64182">
        <ele>750</ele>
        <time>2019-03-08T13:59:44Z</time>
      </trkpt>
      <trkpt lat="44.29461" lon="5.64174">
        <ele>750</ele>
        <time>2019-03-08T13:59:45Z</time>
      </trkpt>
      <trkpt lat="44.29459" lon="5.64166">
        <ele>750</ele>
        <time>2019-03-08T13:59:46Z</time>
      </trkpt>
      <trkpt lat="44.29458" lon="5.64158">
        <ele>750</ele>
        <time>2019-03-08T13:59:47Z</time>
      </trkpt>
      <trkpt lat="44.29457" lon="5.6415">
        <ele>750</ele>
        <time>2019-03-08T13:59:48Z</time>
      </trkpt>
      <trkpt lat="44.29456" lon="5.64141">
        <ele>750</ele>
        <time>2019-03-08T13:59:49Z</time>
      </trkpt>
      <trkpt lat="44.29455" lon="5.64132">
        <ele>750</ele>
        <time>2019-03-08T13:59:50Z</time>
      </trkpt>
      <trkpt lat="44.29454" lon="5.64124">
        <ele>750</ele>
        <time>2019-03-08T13:59:51Z</time>
      </trkpt>
      <trkpt lat="44.29454" lon="5.64115">
        <ele>750</ele>
        <time>2019-03-08T13:59:52Z</time>
      </trkpt>
      <trkpt lat="44.29453" lon="5.64107">
        <ele>750</ele>
        <time>2019-03-08T13:59:53Z</time>
      </trkpt>
      <trkpt lat="44.29453" lon="5.64099">
        <ele>750</ele>
        <time>2019-03-08T13:59:54Z</time>
      </trkpt>
      <trkpt lat="44.29452" lon="5.6409">
        <ele>750</ele>
        <time>2019-03-08T13:59:55Z</time>
      </trkpt>
      <trkpt lat="44.2945" lon="5.64082">
        <ele>750</ele>
        <time>2019-03-08T13:59:56Z</time>
      </trkpt>
      <trkpt lat="44.29448" lon="5.64074">
        <ele>750</ele>
        <time>2019-03-08T13:59:57Z</time>
      </trkpt>
      <trkpt lat="44.29447" lon="5.64066">
        <ele>750</ele>
        <time>2019-03-08T13:59:58Z</time>
      </trkpt>
      <trkpt lat="44.29445" lon="5.64058">
        <ele>750</ele>
        <time>2019-03-08T13:59:59Z</time>
      </trkpt>
      <trkpt lat="44.29443" lon="5.64051">
        <ele>750</ele>
        <time>2019-03-08T14:00:00Z</time>
      </trkpt>
      <trkpt lat="44.29441" lon="5.64044">
        <ele>750</ele>
        <time>2019-03-08T14:00:01Z</time>
      </trkpt>
      <trkpt lat="44.29438" lon="5.64036">
        <ele>750</ele>
        <time>2019-03-08T14:00:02Z</time>
      </trkpt>
      <trkpt lat="44.29436" lon="5.64029">
        <ele>750</ele>
        <time>2019-03-08T14:00:03Z</time>
      </trkpt>
      <trkpt lat="44.29433" lon="5.64022">
        <ele>750</ele>
        <time>2019-03-08T14:00:04Z</time>
      </trkpt>
      <trkpt lat="44.29431" lon="5.64014">
        <ele>750</ele>
        <time>2019-03-08T14:00:05Z</time>
      </trkpt>
      <trkpt lat="44.29428" lon="5.64007">
        <ele>750</ele>
        <time>2019-03-08T14:00:06Z</time>
      </trkpt>
      <trkpt lat="44.29425" lon="5.64">
        <ele>750</ele>
        <time>2019-03-08T14:00:07Z</time>
      </trkpt>
      <trkpt lat="44.29422" lon="5.63992">
        <ele>750</ele>
        <time>2019-03-08T14:00:08Z</time>
      </trkpt>
      <trkpt lat="44.29419" lon="5.63985">
        <ele>750</ele>
        <time>2019-03-08T14:00:09Z</time>
      </trkpt>
      <trkpt lat="44.29415" lon="5.63978">
        <ele>750</ele>
        <time>2019-03-08T14:00:10Z</time>
      </trkpt>
      <trkpt lat="44.29411" lon="5.63972">
        <ele>750</ele>
        <time>2019-03-08T14:00:11Z</time>
      </trkpt>
      <trkpt lat="44.29408" lon="5.63966">
        <ele>750</ele>
        <time>2019-03-08T14:00:12Z</time>
      </trkpt>
      <trkpt lat="44.29405" lon="5.6396">
        <ele>750</ele>
        <time>2019-03-08T14:00:13Z</time>
      </trkpt>
      <trkpt lat="44.29401" lon="5.63954">
        <ele>750</ele>
        <time>2019-03-08T14:00:14Z</time>
      </trkpt>
      <trkpt lat="44.29397" lon="5.63948">
        <ele>750</ele>
        <time>2019-03-08T14:00:15Z</time>
      </trkpt>
      <trkpt lat="44.29393" lon="5.63942">
        <ele>750</ele>
        <time>2019-03-08T14:00:16Z</time>
      </trkpt>
      <trkpt lat="44.29389" lon="5.63936">
        <ele>750</ele>
        <time>2019-03-08T14:00:17Z</time>
      </trkpt>
      <trkpt lat="44.29385" lon="5.63931">
        <ele>750</ele>
        <time>2019-03-08T14:00:18Z</time>
      </trkpt>
      <trkpt lat="44.2938" lon="5.63925">
        <ele>750</ele>
        <time>2019-03-08T14:00:19Z</time>
      </trkpt>
      <trkpt lat="44.29375" lon="5.6392">
        <ele>750</ele>
        <time>2019-03-08T14:00:20Z</time>
      </trkpt>
      <trkpt lat="44.29371" lon="5.63915">
        <ele>750</ele>
        <time>2019-03-08T14:00:21Z</time>
      </trkpt>
      <trkpt lat="44.29366" lon="5.63911">
        <ele>750</ele>
        <time>2019-03-08T14:00:22Z</time>
      </trkpt>
      <trkpt lat="44.29361" lon="5.63906">
        <ele>750</ele>
        <time>2019-03-08T14:00:23Z</time>
      </trkpt>
      <trkpt lat="44.29356" lon="5.63901">
        <ele>750</ele>
        <time>2019-03-08T14:00:24Z</time>
      </trkpt>
      <trkpt lat="44.29352" lon="5.63896">
        <ele>750</ele>
        <time>2019-03-08T14:00:25Z</time>
      </trkpt>
      <trkpt lat="44.29347" lon="5.63891">
        <ele>750</ele>
        <time>2019-03-08T14:00:26Z</time>
      </trkpt>
      <trkpt lat="44.29343" lon="5.63885">
        <ele>750</ele>
        <time>2019-03-08T14:00:27Z</time>
      </trkpt>
      <trkpt lat="44.2934" lon="5.63879">
        <ele>750</ele>
        <time>2019-03-08T14:00:28Z</time>
      </trkpt>
      <trkpt lat="44.29335" lon="5.63873">
        <ele>750</ele>
        <time>2019-03-08T14:00:29Z</time>
      </trkpt>
      <trkpt lat="44.29332" lon="5.63868">
        <ele>750</ele>
        <time>2019-03-08T14:00:30Z</time>
      </trkpt>
      <trkpt lat="44.29328" lon="5.63862">
        <ele>750</ele>
        <time>2019-03-08T14:00:31Z</time>
      </trkpt>
      <trkpt lat="44.29324" lon="5.63856">
        <ele>750</ele>
        <time>2019-03-08T14:00:32Z</time>
      </trkpt>
      <trkpt lat="44.2932" lon="5.6385">
        <ele>750</ele>
        <time>2019-03-08T14:00:33Z</time>
      </trkpt>
      <trkpt lat="44.29316" lon="5.63845">
        <ele>750</ele>
        <time>2019-03-08T14:00:34Z</time>
      </trkpt>
      <trkpt lat="44.29313" lon="5.63839">
        <ele>750</ele>
        <time>2019-03-08T14:00:35Z</time>
      </trkpt>
      <trkpt lat="44.29309" lon="5.63834">
        <ele>750</ele>
        <time>2019-03-08T14:00:36Z</time>
      </trkpt>
      <trkpt lat="44.29305" lon="5.63829">
        <ele>750</ele>
        <time>2019-03-08T14:00:37Z</time>
      </trkpt>
      <trkpt lat="44.29301" lon="5.63823">
        <ele>750</ele>
        <time>2019-03-08T14:00:38Z</time>
      </trkpt>
      <trkpt lat="44.29298" lon="5.63818">
        <ele>750</ele>
        <time>2019-03-08T14:00:39Z</time>
      </trkpt>
      <trkpt lat="44.29294" lon="5.63813">
        <ele>750</ele>
        <time>2019-03-08T14:00:40Z</time>
      </trkpt>
      <trkpt lat="44.29291" lon="5.63807">
        <ele>750</ele>
        <time>2019-03-08T14:00:41Z</time>
      </trkpt>
      <trkpt lat="44.29287" lon="5.638">
        <ele>750</ele>
        <time>2019-03-08T14:00:42Z</time>
      </trkpt>
      <trkpt lat="44.29284" lon="5.63795">
        <ele>750</ele>
        <time>2019-03-08T14:00:43Z</time>
      </trkpt>
      <trkpt lat="44.29281" lon="5.63788">
        <ele>750</ele>
        <time>2019-03-08T14:00:44Z</time>
      </trkpt>
      <trkpt lat="44.29279" lon="5.63781">
        <ele>750</ele>
        <time>2019-03-08T14:00:45Z</time>
      </trkpt>
      <trkpt lat="44.29277" lon="5.63775">
        <ele>750</ele>
        <time>2019-03-08T14:00:46Z</time>
      </trkpt>
      <trkpt lat="44.29276" lon="5.63767">
        <ele>750</ele>
        <time>2019-03-08T14:00:47Z</time>
      </trkpt>
      <trkpt lat="44.29275" lon="5.6376">
        <ele>750</ele>
        <time>2019-03-08T14:00:48Z</time>
      </trkpt>
      <trkpt lat="44.29274" lon="5.63753">
        <ele>750</ele>
        <time>2019-03-08T14:00:49Z</time>
      </trkpt>
      <trkpt lat="44.29274" lon="5.63746">
        <ele>750</ele>
        <time>2019-03-08T14:00:50Z</time>
      </trkpt>
      <trkpt lat="44.29274" lon="5.63738">
        <ele>750</ele>
        <time>2019-03-08T14:00:51Z</time>
      </trkpt>
      <trkpt lat="44.29275" lon="5.63731">
        <ele>750</ele>
        <time>2019-03-08T14:00:52Z</time>
      </trkpt>
      <trkpt lat="44.29275" lon="5.63723">
        <ele>750</ele>
        <time>2019-03-08T14:00:53Z</time>
      </trkpt>
      <trkpt lat="44.29275" lon="5.63716">
        <ele>750</ele>
        <time>2019-03-08T14:00:54Z</time>
      </trkpt>
      <trkpt lat="44.29275" lon="5.63708">
        <ele>750</ele>
        <time>2019-03-08T14:00:55Z</time>
      </trkpt>
      <trkpt lat="44.29275" lon="5.63701">
        <ele>750</ele>
        <time>2019-03-08T14:00:56Z</time>
      </trkpt>
      <trkpt lat="44.29276" lon="5.63694">
        <ele>750</ele>
        <time>2019-03-08T14:00:57Z</time>
      </trkpt>
      <trkpt lat="44.29276" lon="5.63687">
        <ele>750</ele>
        <time>2019-03-08T14:00:58Z</time>
      </trkpt>
      <trkpt lat="44.29276" lon="5.63679">
        <ele>750</ele>
        <time>2019-03-08T14:00:59Z</time>
      </trkpt>
      <trkpt lat="44.29276" lon="5.63671">
        <ele>750</ele>
        <time>2019-03-08T14:01:00Z</time>
      </trkpt>
      <trkpt lat="44.29275" lon="5.63664">
        <ele>750</ele>
        <time>2019-03-08T14:01:01Z</time>
      </trkpt>
      <trkpt lat="44.29275" lon="5.63657">
        <ele>750</ele>
        <time>2019-03-08T14:01:02Z</time>
      </trkpt>
      <trkpt lat="44.29274" lon="5.63649">
        <ele>750</ele>
        <time>2019-03-08T14:01:03Z</time>
      </trkpt>
      <trkpt lat="44.29272" lon="5.63642">
        <ele>750</ele>
        <time>2019-03-08T14:01:04Z</time>
      </trkpt>
      <trkpt lat="44.2927" lon="5.63635">
        <ele>750</ele>
        <time>2019-03-08T14:01:05Z</time>
      </trkpt>
      <trkpt lat="44.29267" lon="5.63629">
        <ele>750</ele>
        <time>2019-03-08T14:01:06Z</time>
      </trkpt>
      <trkpt lat="44.29264" lon="5.63622">
        <ele>750</ele>
        <time>2019-03-08T14:01:07Z</time>
      </trkpt>
      <trkpt lat="44.29261" lon="5.63617">
        <ele>750</ele>
        <time>2019-03-08T14:01:08Z</time>
      </trkpt>
      <trkpt lat="44.29257" lon="5.63611">
        <ele>750</ele>
        <time>2019-03-08T14:01:09Z</time>
      </trkpt>
      <trkpt lat="44.29253" lon="5.63605">
        <ele>750</ele>
        <time>2019-03-08T14:01:10Z</time>
      </trkpt>
      <trkpt lat="44.2925" lon="5.636">
        <ele>750</ele>
        <time>2019-03-08T14:01:11Z</time>
      </trkpt>
      <trkpt lat="44.29245" lon="5.63595">
        <ele>750</ele>
        <time>2019-03-08T14:01:12Z</time>
      </trkpt>
      <trkpt lat="44.29241" lon="5.6359">
        <ele>750</ele>
        <time>2019-03-08T14:01:13Z</time>
      </trkpt>
      <trkpt lat="44.29237" lon="5.63585">
        <ele>750</ele>
        <time>2019-03-08T14:01:14Z</time>
      </trkpt>
      <trkpt lat="44.29233" lon="5.63581">
        <ele>751</ele>
        <time>2019-03-08T14:01:15Z</time>
      </trkpt>
      <trkpt lat="44.29229" lon="5.63576">
        <ele>751</ele>
        <time>2019-03-08T14:01:16Z</time>
      </trkpt>
      <trkpt lat="44.29225" lon="5.63571">
        <ele>752</ele>
        <time>2019-03-08T14:01:17Z</time>
      </trkpt>
      <trkpt lat="44.29221" lon="5.63565">
        <ele>753</ele>
        <time>2019-03-08T14:01:18Z</time>
      </trkpt>
      <trkpt lat="44.29218" lon="5.6356">
        <ele>754</ele>
        <time>2019-03-08T14:01:19Z</time>
      </trkpt>
      <trkpt lat="44.29214" lon="5.63553">
        <ele>754</ele>
        <time>2019-03-08T14:01:20Z</time>
      </trkpt>
      <trkpt lat="44.29211" lon="5.63547">
        <ele>754</ele>
        <time>2019-03-08T14:01:21Z</time>
      </trkpt>
      <trkpt lat="44.29209" lon="5.63541">
        <ele>755</ele>
        <time>2019-03-08T14:01:22Z</time>
      </trkpt>
      <trkpt lat="44.29206" lon="5.63534">
        <ele>755</ele>
        <time>2019-03-08T14:01:23Z</time>
      </trkpt>
      <trkpt lat="44.29203" lon="5.63528">
        <ele>755</ele>
        <time>2019-03-08T14:01:24Z</time>
      </trkpt>
      <trkpt lat="44.29201" lon="5.63521">
        <ele>755</ele>
        <time>2019-03-08T14:01:25Z</time>
      </trkpt>
      <trkpt lat="44.29198" lon="5.63515">
        <ele>755</ele>
        <time>2019-03-08T14:01:26Z</time>
      </trkpt>
      <trkpt lat="44.29195" lon="5.63509">
        <ele>755</ele>
        <time>2019-03-08T14:01:27Z</time>
      </trkpt>
      <trkpt lat="44.29192" lon="5.63503">
        <ele>755</ele>
        <time>2019-03-08T14:01:28Z</time>
      </trkpt>
      <trkpt lat="44.29189" lon="5.63497">
        <ele>755</ele>
        <time>2019-03-08T14:01:29Z</time>
      </trkpt>
      <trkpt lat="44.29186" lon="5.63491">
        <ele>755</ele>
        <time>2019-03-08T14:01:30Z</time>
      </trkpt>
      <trkpt lat="44.29183" lon="5.63486">
        <ele>755</ele>
        <time>2019-03-08T14:01:31Z</time>
      </trkpt>
      <trkpt lat="44.29181" lon="5.6348">
        <ele>755</ele>
        <time>2019-03-08T14:01:32Z</time>
      </trkpt>
      <trkpt lat="44.29178" lon="5.63474">
        <ele>755</ele>
        <time>2019-03-08T14:01:33Z</time>
      </trkpt>
      <trkpt lat="44.29175" lon="5.63467">
        <ele>755</ele>
        <time>2019-03-08T14:01:34Z</time>
      </trkpt>
      <trkpt lat="44.29173" lon="5.63461">
        <ele>755</ele>
        <time>2019-03-08T14:01:35Z</time>
      </trkpt>
      <trkpt lat="44.29171" lon="5.63454">
        <ele>755</ele>
        <time>2019-03-08T14:01:36Z</time>
      </trkpt>
      <trkpt lat="44.29168" lon="5.63447">
        <ele>755</ele>
        <time>2019-03-08T14:01:37Z</time>
      </trkpt>
      <trkpt lat="44.29167" lon="5.63439">
        <ele>755</ele>
        <time>2019-03-08T14:01:38Z</time>
      </trkpt>
      <trkpt lat="44.29165" lon="5.63432">
        <ele>755</ele>
        <time>2019-03-08T14:01:39Z</time>
      </trkpt>
      <trkpt lat="44.29163" lon="5.63425">
        <ele>755</ele>
        <time>2019-03-08T14:01:40Z</time>
      </trkpt>
      <trkpt lat="44.29162" lon="5.63418">
        <ele>755</ele>
        <time>2019-03-08T14:01:41Z</time>
      </trkpt>
      <trkpt lat="44.29161" lon="5.63411">
        <ele>755</ele>
        <time>2019-03-08T14:01:42Z</time>
      </trkpt>
      <trkpt lat="44.2916" lon="5.63404">
        <ele>755</ele>
        <time>2019-03-08T14:01:43Z</time>
      </trkpt>
      <trkpt lat="44.29159" lon="5.63396">
        <ele>755</ele>
        <time>2019-03-08T14:01:44Z</time>
      </trkpt>
      <trkpt lat="44.29158" lon="5.63389">
        <ele>755</ele>
        <time>2019-03-08T14:01:45Z</time>
      </trkpt>
      <trkpt lat="44.29156" lon="5.63382">
        <ele>755</ele>
        <time>2019-03-08T14:01:46Z</time>
      </trkpt>
      <trkpt lat="44.29156" lon="5.63375">
        <ele>755</ele>
        <time>2019-03-08T14:01:47Z</time>
      </trkpt>
      <trkpt lat="44.29155" lon="5.63368">
        <ele>755</ele>
        <time>2019-03-08T14:01:48Z</time>
      </trkpt>
      <trkpt lat="44.29154" lon="5.63361">
        <ele>755</ele>
        <time>2019-03-08T14:01:49Z</time>
      </trkpt>
      <trkpt lat="44.29153" lon="5.63354">
        <ele>755</ele>
        <time>2019-03-08T14:01:50Z</time>
      </trkpt>
      <trkpt lat="44.29152" lon="5.63347">
        <ele>755</ele>
        <time>2019-03-08T14:01:51Z</time>
      </trkpt>
      <trkpt lat="44.29151" lon="5.6334">
        <ele>755</ele>
        <time>2019-03-08T14:01:52Z</time>
      </trkpt>
      <trkpt lat="44.2915" lon="5.63333">
        <ele>755</ele>
        <time>2019-03-08T14:01:53Z</time>
      </trkpt>
      <trkpt lat="44.29149" lon="5.63327">
        <ele>755</ele>
        <time>2019-03-08T14:01:54Z</time>
      </trkpt>
      <trkpt lat="44.29148" lon="5.6332">
        <ele>755</ele>
        <time>2019-03-08T14:01:55Z</time>
      </trkpt>
      <trkpt lat="44.29147" lon="5.63312">
        <ele>755</ele>
        <time>2019-03-08T14:01:56Z</time>
      </trkpt>
      <trkpt lat="44.29147" lon="5.63306">
        <ele>755</ele>
        <time>2019-03-08T14:01:57Z</time>
      </trkpt>
      <trkpt lat="44.29146" lon="5.63299">
        <ele>755</ele>
        <time>2019-03-08T14:01:58Z</time>
      </trkpt>
      <trkpt lat="44.29145" lon="5.63292">
        <ele>755</ele>
        <time>2019-03-08T14:01:59Z</time>
      </trkpt>
      <trkpt lat="44.29145" lon="5.63285">
        <ele>755</ele>
        <time>2019-03-08T14:02:00Z</time>
      </trkpt>
      <trkpt lat="44.29145" lon="5.63278">
        <ele>755</ele>
        <time>2019-03-08T14:02:01Z</time>
      </trkpt>
      <trkpt lat="44.29145" lon="5.63271">
        <ele>755</ele>
        <time>2019-03-08T14:02:02Z</time>
      </trkpt>
      <trkpt lat="44.29145" lon="5.63263">
        <ele>755</ele>
        <time>2019-03-08T14:02:03Z</time>
      </trkpt>
      <trkpt lat="44.29145" lon="5.63256">
        <ele>755</ele>
        <time>2019-03-08T14:02:04Z</time>
      </trkpt>
      <trkpt lat="44.29146" lon="5.63249">
        <ele>755</ele>
        <time>2019-03-08T14:02:05Z</time>
      </trkpt>
      <trkpt lat="44.29147" lon="5.63242">
        <ele>755</ele>
        <time>2019-03-08T14:02:06Z</time>
      </trkpt>
      <trkpt lat="44.29148" lon="5.63235">
        <ele>755</ele>
        <time>2019-03-08T14:02:07Z</time>
      </trkpt>
      <trkpt lat="44.29149" lon="5.63228">
        <ele>755</ele>
        <time>2019-03-08T14:02:08Z</time>
      </trkpt>
      <trkpt lat="44.2915" lon="5.63221">
        <ele>755</ele>
        <time>2019-03-08T14:02:09Z</time>
      </trkpt>
      <trkpt lat="44.29152" lon="5.63215">
        <ele>755</ele>
        <time>2019-03-08T14:02:10Z</time>
      </trkpt>
      <trkpt lat="44.29153" lon="5.63208">
        <ele>755</ele>
        <time>2019-03-08T14:02:11Z</time>
      </trkpt>
      <trkpt lat="44.29155" lon="5.63202">
        <ele>755</ele>
        <time>2019-03-08T14:02:12Z</time>
      </trkpt>
      <trkpt lat="44.29156" lon="5.63196">
        <ele>755</ele>
        <time>2019-03-08T14:02:13Z</time>
      </trkpt>
      <trkpt lat="44.29158" lon="5.63189">
        <ele>755</ele>
        <time>2019-03-08T14:02:14Z</time>
      </trkpt>
      <trkpt lat="44.29158" lon="5.63183">
        <ele>755</ele>
        <time>2019-03-08T14:02:15Z</time>
      </trkpt>
      <trkpt lat="44.2916" lon="5.63177">
        <ele>755</ele>
        <time>2019-03-08T14:02:16Z</time>
      </trkpt>
      <trkpt lat="44.2916" lon="5.63171">
        <ele>755</ele>
        <time>2019-03-08T14:02:17Z</time>
      </trkpt>
      <trkpt lat="44.29161" lon="5.63165">
        <ele>755</ele>
        <time>2019-03-08T14:02:18Z</time>
      </trkpt>
      <trkpt lat="44.29162" lon="5.63159">
        <ele>755</ele>
        <time>2019-03-08T14:02:19Z</time>
      </trkpt>
      <trkpt lat="44.29162" lon="5.63153">
        <ele>755</ele>
        <time>2019-03-08T14:02:20Z</time>
      </trkpt>
      <trkpt lat="44.29163" lon="5.63146">
        <ele>755</ele>
        <time>2019-03-08T14:02:21Z</time>
      </trkpt>
      <trkpt lat="44.29163" lon="5.6314">
        <ele>755</ele>
        <time>2019-03-08T14:02:22Z</time>
      </trkpt>
      <trkpt lat="44.29163" lon="5.63134">
        <ele>755</ele>
        <time>2019-03-08T14:02:23Z</time>
      </trkpt>
      <trkpt lat="44.29163" lon="5.63127">
        <ele>755</ele>
        <time>2019-03-08T14:02:24Z</time>
      </trkpt>
      <trkpt lat="44.29163" lon="5.63121">
        <ele>755</ele>
        <time>2019-03-08T14:02:25Z</time>
      </trkpt>
      <trkpt lat="44.29163" lon="5.63115">
        <ele>755</ele>
        <time>2019-03-08T14:02:26Z</time>
      </trkpt>
      <trkpt lat="44.29162" lon="5.63109">
        <ele>755</ele>
        <time>2019-03-08T14:02:27Z</time>
      </trkpt>
      <trkpt lat="44.29162" lon="5.63103">
        <ele>755</ele>
        <time>2019-03-08T14:02:28Z</time>
      </trkpt>
      <trkpt lat="44.29161" lon="5.63097">
        <ele>755</ele>
        <time>2019-03-08T14:02:29Z</time>
      </trkpt>
      <trkpt lat="44.29161" lon="5.6309">
        <ele>755</ele>
        <time>2019-03-08T14:02:30Z</time>
      </trkpt>
      <trkpt lat="44.29161" lon="5.63084">
        <ele>755</ele>
        <time>2019-03-08T14:02:31Z</time>
      </trkpt>
      <trkpt lat="44.2916" lon="5.63078">
        <ele>755</ele>
        <time>2019-03-08T14:02:32Z</time>
      </trkpt>
      <trkpt lat="44.2916" lon="5.63072">
        <ele>755</ele>
        <time>2019-03-08T14:02:33Z</time>
      </trkpt>
      <trkpt lat="44.29159" lon="5.63066">
        <ele>755</ele>
        <time>2019-03-08T14:02:34Z</time>
      </trkpt>
      <trkpt lat="44.29158" lon="5.6306">
        <ele>755</ele>
        <time>2019-03-08T14:02:35Z</time>
      </trkpt>
      <trkpt lat="44.29158" lon="5.63054">
        <ele>755</ele>
        <time>2019-03-08T14:02:36Z</time>
      </trkpt>
      <trkpt lat="44.29158" lon="5.63047">
        <ele>755</ele>
        <time>2019-03-08T14:02:37Z</time>
      </trkpt>
      <trkpt lat="44.29157" lon="5.63041">
        <ele>755</ele>
        <time>2019-03-08T14:02:38Z</time>
      </trkpt>
      <trkpt lat="44.29156" lon="5.63035">
        <ele>755</ele>
        <time>2019-03-08T14:02:39Z</time>
      </trkpt>
      <trkpt lat="44.29156" lon="5.63029">
        <ele>755</ele>
        <time>2019-03-08T14:02:40Z</time>
      </trkpt>
      <trkpt lat="44.29155" lon="5.63023">
        <ele>755</ele>
        <time>2019-03-08T14:02:41Z</time>
      </trkpt>
      <trkpt lat="44.29155" lon="5.63017">
        <ele>755</ele>
        <time>2019-03-08T14:02:42Z</time>
      </trkpt>
      <trkpt lat="44.29154" lon="5.6301">
        <ele>755</ele>
        <time>2019-03-08T14:02:43Z</time>
      </trkpt>
      <trkpt lat="44.29154" lon="5.63004">
        <ele>755</ele>
        <time>2019-03-08T14:02:44Z</time>
      </trkpt>
      <trkpt lat="44.29153" lon="5.62998">
        <ele>755</ele>
        <time>2019-03-08T14:02:45Z</time>
      </trkpt>
      <trkpt lat="44.29153" lon="5.62992">
        <ele>755</ele>
        <time>2019-03-08T14:02:46Z</time>
      </trkpt>
      <trkpt lat="44.29152" lon="5.62987">
        <ele>755</ele>
        <time>2019-03-08T14:02:47Z</time>
      </trkpt>
      <trkpt lat="44.29151" lon="5.62981">
        <ele>755</ele>
        <time>2019-03-08T14:02:48Z</time>
      </trkpt>
      <trkpt lat="44.29151" lon="5.62975">
        <ele>755</ele>
        <time>2019-03-08T14:02:49Z</time>
      </trkpt>
      <trkpt lat="44.29151" lon="5.62969">
        <ele>756</ele>
        <time>2019-03-08T14:02:50Z</time>
      </trkpt>
      <trkpt lat="44.2915" lon="5.62963">
        <ele>756</ele>
        <time>2019-03-08T14:02:51Z</time>
      </trkpt>
      <trkpt lat="44.2915" lon="5.62957">
        <ele>756</ele>
        <time>2019-03-08T14:02:52Z</time>
      </trkpt>
      <trkpt lat="44.29149" lon="5.62951">
        <ele>756</ele>
        <time>2019-03-08T14:02:53Z</time>
      </trkpt>
      <trkpt lat="44.29149" lon="5.62945">
        <ele>757</ele>
        <time>2019-03-08T14:02:54Z</time>
      </trkpt>
      <trkpt lat="44.29148" lon="5.62939">
        <ele>757</ele>
        <time>2019-03-08T14:02:55Z</time>
      </trkpt>
      <trkpt lat="44.29147" lon="5.62933">
        <ele>757</ele>
        <time>2019-03-08T14:02:56Z</time>
      </trkpt>
      <trkpt lat="44.29147" lon="5.62927">
        <ele>757</ele>
        <time>2019-03-08T14:02:57Z</time>
      </trkpt>
      <trkpt lat="44.29145" lon="5.62921">
        <ele>757</ele>
        <time>2019-03-08T14:02:58Z</time>
      </trkpt>
      <trkpt lat="44.29144" lon="5.62914">
        <ele>757</ele>
        <time>2019-03-08T14:02:59Z</time>
      </trkpt>
      <trkpt lat="44.29143" lon="5.62908">
        <ele>757</ele>
        <time>2019-03-08T14:03:00Z</time>
      </trkpt>
      <trkpt lat="44.29142" lon="5.62902">
        <ele>758</ele>
        <time>2019-03-08T14:03:01Z</time>
      </trkpt>
      <trkpt lat="44.29141" lon="5.62896">
        <ele>758</ele>
        <time>2019-03-08T14:03:02Z</time>
      </trkpt>
      <trkpt lat="44.2914" lon="5.6289">
        <ele>758</ele>
        <time>2019-03-08T14:03:03Z</time>
      </trkpt>
      <trkpt lat="44.29139" lon="5.62884">
        <ele>758</ele>
        <time>2019-03-08T14:03:04Z</time>
      </trkpt>
      <trkpt lat="44.29137" lon="5.62878">
        <ele>758</ele>
        <time>2019-03-08T14:03:05Z</time>
      </trkpt>
      <trkpt lat="44.29135" lon="5.62872">
        <ele>759</ele>
        <time>2019-03-08T14:03:06Z</time>
      </trkpt>
      <trkpt lat="44.29134" lon="5.62866">
        <ele>759</ele>
        <time>2019-03-08T14:03:07Z</time>
      </trkpt>
      <trkpt lat="44.29131" lon="5.6286">
        <ele>759</ele>
        <time>2019-03-08T14:03:08Z</time>
      </trkpt>
      <trkpt lat="44.29129" lon="5.62855">
        <ele>760</ele>
        <time>2019-03-08T14:03:09Z</time>
      </trkpt>
      <trkpt lat="44.29127" lon="5.62849">
        <ele>760</ele>
        <time>2019-03-08T14:03:10Z</time>
      </trkpt>
      <trkpt lat="44.29124" lon="5.62844">
        <ele>760</ele>
        <time>2019-03-08T14:03:11Z</time>
      </trkpt>
      <trkpt lat="44.29122" lon="5.62839">
        <ele>761</ele>
        <time>2019-03-08T14:03:12Z</time>
      </trkpt>
      <trkpt lat="44.29119" lon="5.62834">
        <ele>761</ele>
        <time>2019-03-08T14:03:13Z</time>
      </trkpt>
      <trkpt lat="44.29117" lon="5.62829">
        <ele>761</ele>
        <time>2019-03-08T14:03:14Z</time>
      </trkpt>
      <trkpt lat="44.29114" lon="5.62825">
        <ele>762</ele>
        <time>2019-03-08T14:03:15Z</time>
      </trkpt>
      <trkpt lat="44.29111" lon="5.6282">
        <ele>762</ele>
        <time>2019-03-08T14:03:16Z</time>
      </trkpt>
      <trkpt lat="44.29108" lon="5.62816">
        <ele>762</ele>
        <time>2019-03-08T14:03:17Z</time>
      </trkpt>
      <trkpt lat="44.29106" lon="5.62812">
        <ele>763</ele>
        <time>2019-03-08T14:03:18Z</time>
      </trkpt>
      <trkpt lat="44.29103" lon="5.62808">
        <ele>763</ele>
        <time>2019-03-08T14:03:19Z</time>
      </trkpt>
      <trkpt lat="44.291" lon="5.62804">
        <ele>763</ele>
        <time>2019-03-08T14:03:20Z</time>
      </trkpt>
      <trkpt lat="44.29096" lon="5.628">
        <ele>763</ele>
        <time>2019-03-08T14:03:21Z</time>
      </trkpt>
      <trkpt lat="44.29093" lon="5.62796">
        <ele>764</ele>
        <time>2019-03-08T14:03:22Z</time>
      </trkpt>
      <trkpt lat="44.2909" lon="5.62792">
        <ele>764</ele>
        <time>2019-03-08T14:03:23Z</time>
      </trkpt>
      <trkpt lat="44.29087" lon="5.62788">
        <ele>765</ele>
        <time>2019-03-08T14:03:24Z</time>
      </trkpt>
      <trkpt lat="44.29083" lon="5.62783">
        <ele>765</ele>
        <time>2019-03-08T14:03:25Z</time>
      </trkpt>
      <trkpt lat="44.2908" lon="5.62779">
        <ele>766</ele>
        <time>2019-03-08T14:03:26Z</time>
      </trkpt>
      <trkpt lat="44.29077" lon="5.62775">
        <ele>766</ele>
        <time>2019-03-08T14:03:27Z</time>
      </trkpt>
      <trkpt lat="44.29075" lon="5.6277">
        <ele>767</ele>
        <time>2019-03-08T14:03:28Z</time>
      </trkpt>
      <trkpt lat="44.29072" lon="5.62765">
        <ele>767</ele>
        <time>2019-03-08T14:03:29Z</time>
      </trkpt>
      <trkpt lat="44.2907" lon="5.62759">
        <ele>768</ele>
        <time>2019-03-08T14:03:30Z</time>
      </trkpt>
      <trkpt lat="44.29067" lon="5.62754">
        <ele>768</ele>
        <time>2019-03-08T14:03:31Z</time>
      </trkpt>
      <trkpt lat="44.29065" lon="5.62748">
        <ele>769</ele>
        <time>2019-03-08T14:03:32Z</time>
      </trkpt>
      <trkpt lat="44.29062" lon="5.62742">
        <ele>769</ele>
        <time>2019-03-08T14:03:33Z</time>
      </trkpt>
      <trkpt lat="44.2906" lon="5.62737">
        <ele>769</ele>
        <time>2019-03-08T14:03:34Z</time>
      </trkpt>
      <trkpt lat="44.29057" lon="5.62731">
        <ele>769</ele>
        <time>2019-03-08T14:03:35Z</time>
      </trkpt>
      <trkpt lat="44.29055" lon="5.62725">
        <ele>770</ele>
        <time>2019-03-08T14:03:36Z</time>
      </trkpt>
      <trkpt lat="44.29053" lon="5.62719">
        <ele>770</ele>
        <time>2019-03-08T14:03:37Z</time>
      </trkpt>
      <trkpt lat="44.2905" lon="5.62714">
        <ele>770</ele>
        <time>2019-03-08T14:03:38Z</time>
      </trkpt>
      <trkpt lat="44.29048" lon="5.62708">
        <ele>770</ele>
        <time>2019-03-08T14:03:39Z</time>
      </trkpt>
      <trkpt lat="44.29045" lon="5.62703">
        <ele>770</ele>
        <time>2019-03-08T14:03:40Z</time>
      </trkpt>
      <trkpt lat="44.29043" lon="5.62697">
        <ele>770</ele>
        <time>2019-03-08T14:03:41Z</time>
      </trkpt>
      <trkpt lat="44.29041" lon="5.62691">
        <ele>770</ele>
        <time>2019-03-08T14:03:42Z</time>
      </trkpt>
      <trkpt lat="44.29038" lon="5.62685">
        <ele>771</ele>
        <time>2019-03-08T14:03:43Z</time>
      </trkpt>
      <trkpt lat="44.29036" lon="5.6268">
        <ele>771</ele>
        <time>2019-03-08T14:03:44Z</time>
      </trkpt>
      <trkpt lat="44.29033" lon="5.62675">
        <ele>771</ele>
        <time>2019-03-08T14:03:45Z</time>
      </trkpt>
      <trkpt lat="44.29031" lon="5.62669">
        <ele>771</ele>
        <time>2019-03-08T14:03:46Z</time>
      </trkpt>
      <trkpt lat="44.29028" lon="5.62664">
        <ele>771</ele>
        <time>2019-03-08T14:03:47Z</time>
      </trkpt>
      <trkpt lat="44.29026" lon="5.62658">
        <ele>771</ele>
        <time>2019-03-08T14:03:48Z</time>
      </trkpt>
      <trkpt lat="44.29024" lon="5.62653">
        <ele>771</ele>
        <time>2019-03-08T14:03:49Z</time>
      </trkpt>
      <trkpt lat="44.29021" lon="5.62647">
        <ele>771</ele>
        <time>2019-03-08T14:03:50Z</time>
      </trkpt>
      <trkpt lat="44.29019" lon="5.62641">
        <ele>771</ele>
        <time>2019-03-08T14:03:51Z</time>
      </trkpt>
      <trkpt lat="44.29017" lon="5.62636">
        <ele>771</ele>
        <time>2019-03-08T14:03:52Z</time>
      </trkpt>
      <trkpt lat="44.29015" lon="5.6263">
        <ele>771</ele>
        <time>2019-03-08T14:03:53Z</time>
      </trkpt>
      <trkpt lat="44.29012" lon="5.62625">
        <ele>771</ele>
        <time>2019-03-08T14:03:54Z</time>
      </trkpt>
      <trkpt lat="44.2901" lon="5.62619">
        <ele>771</ele>
        <time>2019-03-08T14:03:55Z</time>
      </trkpt>
      <trkpt lat="44.29007" lon="5.62614">
        <ele>771</ele>
        <time>2019-03-08T14:03:56Z</time>
      </trkpt>
      <trkpt lat="44.29005" lon="5.62608">
        <ele>771</ele>
        <time>2019-03-08T14:03:57Z</time>
      </trkpt>
      <trkpt lat="44.29003" lon="5.62603">
        <ele>771</ele>
        <time>2019-03-08T14:03:58Z</time>
      </trkpt>
      <trkpt lat="44.29001" lon="5.62598">
        <ele>771</ele>
        <time>2019-03-08T14:03:59Z</time>
      </trkpt>
      <trkpt lat="44.28999" lon="5.62592">
        <ele>771</ele>
        <time>2019-03-08T14:04:00Z</time>
      </trkpt>
      <trkpt lat="44.28997" lon="5.62586">
        <ele>771</ele>
        <time>2019-03-08T14:04:01Z</time>
      </trkpt>
      <trkpt lat="44.28995" lon="5.62581">
        <ele>771</ele>
        <time>2019-03-08T14:04:02Z</time>
      </trkpt>
      <trkpt lat="44.28993" lon="5.62576">
        <ele>771</ele>
        <time>2019-03-08T14:04:03Z</time>
      </trkpt>
      <trkpt lat="44.28991" lon="5.6257">
        <ele>771</ele>
        <time>2019-03-08T14:04:04Z</time>
      </trkpt>
      <trkpt lat="44.28989" lon="5.62565">
        <ele>771</ele>
        <time>2019-03-08T14:04:05Z</time>
      </trkpt>
      <trkpt lat="44.28987" lon="5.6256">
        <ele>771</ele>
        <time>2019-03-08T14:04:06Z</time>
      </trkpt>
      <trkpt lat="44.28985" lon="5.62554">
        <ele>771</ele>
        <time>2019-03-08T14:04:07Z</time>
      </trkpt>
      <trkpt lat="44.28984" lon="5.62548">
        <ele>771</ele>
        <time>2019-03-08T14:04:08Z</time>
      </trkpt>
      <trkpt lat="44.28982" lon="5.62542">
        <ele>771</ele>
        <time>2019-03-08T14:04:09Z</time>
      </trkpt>
      <trkpt lat="44.28981" lon="5.62536">
        <ele>771</ele>
        <time>2019-03-08T14:04:10Z</time>
      </trkpt>
      <trkpt lat="44.2898" lon="5.6253">
        <ele>771</ele>
        <time>2019-03-08T14:04:11Z</time>
      </trkpt>
      <trkpt lat="44.28978" lon="5.62524">
        <ele>771</ele>
        <time>2019-03-08T14:04:12Z</time>
      </trkpt>
      <trkpt lat="44.28977" lon="5.62518">
        <ele>771</ele>
        <time>2019-03-08T14:04:13Z</time>
      </trkpt>
      <trkpt lat="44.28976" lon="5.62512">
        <ele>771</ele>
        <time>2019-03-08T14:04:14Z</time>
      </trkpt>
      <trkpt lat="44.28975" lon="5.62507">
        <ele>771</ele>
        <time>2019-03-08T14:04:15Z</time>
      </trkpt>
      <trkpt lat="44.28974" lon="5.62501">
        <ele>771</ele>
        <time>2019-03-08T14:04:16Z</time>
      </trkpt>
      <trkpt lat="44.28973" lon="5.62495">
        <ele>771</ele>
        <time>2019-03-08T14:04:17Z</time>
      </trkpt>
      <trkpt lat="44.28972" lon="5.62488">
        <ele>771</ele>
        <time>2019-03-08T14:04:18Z</time>
      </trkpt>
      <trkpt lat="44.28971" lon="5.62482">
        <ele>771</ele>
        <time>2019-03-08T14:04:19Z</time>
      </trkpt>
      <trkpt lat="44.2897" lon="5.62476">
        <ele>771</ele>
        <time>2019-03-08T14:04:20Z</time>
      </trkpt>
      <trkpt lat="44.28969" lon="5.62469">
        <ele>771</ele>
        <time>2019-03-08T14:04:21Z</time>
      </trkpt>
      <trkpt lat="44.28968" lon="5.62463">
        <ele>771</ele>
        <time>2019-03-08T14:04:22Z</time>
      </trkpt>
      <trkpt lat="44.28967" lon="5.62456">
        <ele>771</ele>
        <time>2019-03-08T14:04:23Z</time>
      </trkpt>
      <trkpt lat="44.28966" lon="5.6245">
        <ele>771</ele>
        <time>2019-03-08T14:04:24Z</time>
      </trkpt>
      <trkpt lat="44.28965" lon="5.62444">
        <ele>771</ele>
        <time>2019-03-08T14:04:25Z</time>
      </trkpt>
      <trkpt lat="44.28963" lon="5.62437">
        <ele>771</ele>
        <time>2019-03-08T14:04:26Z</time>
      </trkpt>
      <trkpt lat="44.28962" lon="5.62431">
        <ele>771</ele>
        <time>2019-03-08T14:04:27Z</time>
      </trkpt>
      <trkpt lat="44.2896" lon="5.62425">
        <ele>771</ele>
        <time>2019-03-08T14:04:28Z</time>
      </trkpt>
      <trkpt lat="44.28959" lon="5.62419">
        <ele>771</ele>
        <time>2019-03-08T14:04:29Z</time>
      </trkpt>
      <trkpt lat="44.28958" lon="5.62412">
        <ele>771</ele>
        <time>2019-03-08T14:04:30Z</time>
      </trkpt>
      <trkpt lat="44.28957" lon="5.62406">
        <ele>771</ele>
        <time>2019-03-08T14:04:31Z</time>
      </trkpt>
      <trkpt lat="44.28955" lon="5.62399">
        <ele>771</ele>
        <time>2019-03-08T14:04:32Z</time>
      </trkpt>
      <trkpt lat="44.28954" lon="5.62393">
        <ele>771</ele>
        <time>2019-03-08T14:04:33Z</time>
      </trkpt>
      <trkpt lat="44.28952" lon="5.62387">
        <ele>771</ele>
        <time>2019-03-08T14:04:34Z</time>
      </trkpt>
      <trkpt lat="44.28951" lon="5.6238">
        <ele>771</ele>
        <time>2019-03-08T14:04:35Z</time>
      </trkpt>
      <trkpt lat="44.28949" lon="5.62374">
        <ele>771</ele>
        <time>2019-03-08T14:04:36Z</time>
      </trkpt>
      <trkpt lat="44.28947" lon="5.62367">
        <ele>771</ele>
        <time>2019-03-08T14:04:37Z</time>
      </trkpt>
      <trkpt lat="44.28946" lon="5.62361">
        <ele>771</ele>
        <time>2019-03-08T14:04:38Z</time>
      </trkpt>
      <trkpt lat="44.28944" lon="5.62355">
        <ele>771</ele>
        <time>2019-03-08T14:04:39Z</time>
      </trkpt>
      <trkpt lat="44.28943" lon="5.62349">
        <ele>771</ele>
        <time>2019-03-08T14:04:40Z</time>
      </trkpt>
      <trkpt lat="44.28941" lon="5.62342">
        <ele>771</ele>
        <time>2019-03-08T14:04:41Z</time>
      </trkpt>
      <trkpt lat="44.28939" lon="5.62336">
        <ele>771</ele>
        <time>2019-03-08T14:04:42Z</time>
      </trkpt>
      <trkpt lat="44.28938" lon="5.6233">
        <ele>771</ele>
        <time>2019-03-08T14:04:43Z</time>
      </trkpt>
      <trkpt lat="44.28936" lon="5.62324">
        <ele>771</ele>
        <time>2019-03-08T14:04:44Z</time>
      </trkpt>
      <trkpt lat="44.28934" lon="5.62318">
        <ele>771</ele>
        <time>2019-03-08T14:04:45Z</time>
      </trkpt>
      <trkpt lat="44.28933" lon="5.62312">
        <ele>771</ele>
        <time>2019-03-08T14:04:46Z</time>
      </trkpt>
      <trkpt lat="44.28931" lon="5.62306">
        <ele>771</ele>
        <time>2019-03-08T14:04:47Z</time>
      </trkpt>
      <trkpt lat="44.2893" lon="5.623">
        <ele>771</ele>
        <time>2019-03-08T14:04:48Z</time>
      </trkpt>
      <trkpt lat="44.28928" lon="5.62294">
        <ele>771</ele>
        <time>2019-03-08T14:04:49Z</time>
      </trkpt>
      <trkpt lat="44.28926" lon="5.62289">
        <ele>771</ele>
        <time>2019-03-08T14:04:50Z</time>
      </trkpt>
      <trkpt lat="44.28925" lon="5.62283">
        <ele>771</ele>
        <time>2019-03-08T14:04:51Z</time>
      </trkpt>
      <trkpt lat="44.28923" lon="5.62277">
        <ele>771</ele>
        <time>2019-03-08T14:04:52Z</time>
      </trkpt>
      <trkpt lat="44.28922" lon="5.62271">
        <ele>771</ele>
        <time>2019-03-08T14:04:53Z</time>
      </trkpt>
      <trkpt lat="44.28921" lon="5.62264">
        <ele>771</ele>
        <time>2019-03-08T14:04:54Z</time>
      </trkpt>
      <trkpt lat="44.2892" lon="5.62258">
        <ele>771</ele>
        <time>2019-03-08T14:04:55Z</time>
      </trkpt>
      <trkpt lat="44.28918" lon="5.62253">
        <ele>771</ele>
        <time>2019-03-08T14:04:56Z</time>
      </trkpt>
      <trkpt lat="44.28917" lon="5.62247">
        <ele>771</ele>
        <time>2019-03-08T14:04:57Z</time>
      </trkpt>
      <trkpt lat="44.28916" lon="5.62241">
        <ele>771</ele>
        <time>2019-03-08T14:04:58Z</time>
      </trkpt>
      <trkpt lat="44.28914" lon="5.62235">
        <ele>771</ele>
        <time>2019-03-08T14:04:59Z</time>
      </trkpt>
      <trkpt lat="44.28913" lon="5.62229">
        <ele>771</ele>
        <time>2019-03-08T14:05:00Z</time>
      </trkpt>
      <trkpt lat="44.28912" lon="5.62223">
        <ele>771</ele>
        <time>2019-03-08T14:05:01Z</time>
      </trkpt>
      <trkpt lat="44.2891" lon="5.62217">
        <ele>771</ele>
        <time>2019-03-08T14:05:02Z</time>
      </trkpt>
      <trkpt lat="44.28909" lon="5.62211">
        <ele>772</ele>
        <time>2019-03-08T14:05:03Z</time>
      </trkpt>
      <trkpt lat="44.28907" lon="5.62205">
        <ele>772</ele>
        <time>2019-03-08T14:05:04Z</time>
      </trkpt>
      <trkpt lat="44.28907" lon="5.62199">
        <ele>772</ele>
        <time>2019-03-08T14:05:05Z</time>
      </trkpt>
      <trkpt lat="44.28905" lon="5.62193">
        <ele>772</ele>
        <time>2019-03-08T14:05:06Z</time>
      </trkpt>
      <trkpt lat="44.28904" lon="5.62187">
        <ele>772</ele>
        <time>2019-03-08T14:05:07Z</time>
      </trkpt>
      <trkpt lat="44.28903" lon="5.6218">
        <ele>772</ele>
        <time>2019-03-08T14:05:08Z</time>
      </trkpt>
      <trkpt lat="44.28902" lon="5.62174">
        <ele>772</ele>
        <time>2019-03-08T14:05:09Z</time>
      </trkpt>
      <trkpt lat="44.28901" lon="5.62168">
        <ele>772</ele>
        <time>2019-03-08T14:05:10Z</time>
      </trkpt>
      <trkpt lat="44.289" lon="5.62161">
        <ele>772</ele>
        <time>2019-03-08T14:05:11Z</time>
      </trkpt>
      <trkpt lat="44.28899" lon="5.62155">
        <ele>772</ele>
        <time>2019-03-08T14:05:12Z</time>
      </trkpt>
      <trkpt lat="44.28899" lon="5.62149">
        <ele>772</ele>
        <time>2019-03-08T14:05:13Z</time>
      </trkpt>
      <trkpt lat="44.28898" lon="5.62143">
        <ele>772</ele>
        <time>2019-03-08T14:05:14Z</time>
      </trkpt>
      <trkpt lat="44.28898" lon="5.62137">
        <ele>773</ele>
        <time>2019-03-08T14:05:15Z</time>
      </trkpt>
      <trkpt lat="44.28897" lon="5.62131">
        <ele>773</ele>
        <time>2019-03-08T14:05:16Z</time>
      </trkpt>
      <trkpt lat="44.28897" lon="5.62125">
        <ele>773</ele>
        <time>2019-03-08T14:05:17Z</time>
      </trkpt>
      <trkpt lat="44.28896" lon="5.62119">
        <ele>773</ele>
        <time>2019-03-08T14:05:18Z</time>
      </trkpt>
      <trkpt lat="44.28896" lon="5.62113">
        <ele>773</ele>
        <time>2019-03-08T14:05:19Z</time>
      </trkpt>
      <trkpt lat="44.28896" lon="5.62107">
        <ele>773</ele>
        <time>2019-03-08T14:05:20Z</time>
      </trkpt>
      <trkpt lat="44.28896" lon="5.62101">
        <ele>773</ele>
        <time>2019-03-08T14:05:21Z</time>
      </trkpt>
      <trkpt lat="44.28896" lon="5.62095">
        <ele>774</ele>
        <time>2019-03-08T14:05:22Z</time>
      </trkpt>
      <trkpt lat="44.28897" lon="5.62089">
        <ele>774</ele>
        <time>2019-03-08T14:05:23Z</time>
      </trkpt>
      <trkpt lat="44.28897" lon="5.62083">
        <ele>774</ele>
        <time>2019-03-08T14:05:24Z</time>
      </trkpt>
      <trkpt lat="44.28898" lon="5.62077">
        <ele>774</ele>
        <time>2019-03-08T14:05:25Z</time>
      </trkpt>
      <trkpt lat="44.28898" lon="5.62072">
        <ele>774</ele>
        <time>2019-03-08T14:05:26Z</time>
      </trkpt>
      <trkpt lat="44.28899" lon="5.62066">
        <ele>774</ele>
        <time>2019-03-08T14:05:27Z</time>
      </trkpt>
      <trkpt lat="44.289" lon="5.6206">
        <ele>774</ele>
        <time>2019-03-08T14:05:28Z</time>
      </trkpt>
      <trkpt lat="44.28901" lon="5.62054">
        <ele>774</ele>
        <time>2019-03-08T14:05:29Z</time>
      </trkpt>
      <trkpt lat="44.28902" lon="5.62048">
        <ele>774</ele>
        <time>2019-03-08T14:05:30Z</time>
      </trkpt>
      <trkpt lat="44.28903" lon="5.62043">
        <ele>774</ele>
        <time>2019-03-08T14:05:31Z</time>
      </trkpt>
      <trkpt lat="44.28904" lon="5.62038">
        <ele>774</ele>
        <time>2019-03-08T14:05:32Z</time>
      </trkpt>
      <trkpt lat="44.28906" lon="5.62032">
        <ele>774</ele>
        <time>2019-03-08T14:05:33Z</time>
      </trkpt>
      <trkpt lat="44.28907" lon="5.62027">
        <ele>774</ele>
        <time>2019-03-08T14:05:34Z</time>
      </trkpt>
      <trkpt lat="44.28909" lon="5.62022">
        <ele>774</ele>
        <time>2019-03-08T14:05:35Z</time>
      </trkpt>
      <trkpt lat="44.28911" lon="5.62017">
        <ele>774</ele>
        <time>2019-03-08T14:05:36Z</time>
      </trkpt>
      <trkpt lat="44.28912" lon="5.62012">
        <ele>774</ele>
        <time>2019-03-08T14:05:37Z</time>
      </trkpt>
      <trkpt lat="44.28915" lon="5.62007">
        <ele>774</ele>
        <time>2019-03-08T14:05:38Z</time>
      </trkpt>
      <trkpt lat="44.28917" lon="5.62002">
        <ele>774</ele>
        <time>2019-03-08T14:05:39Z</time>
      </trkpt>
      <trkpt lat="44.2892" lon="5.61997">
        <ele>774</ele>
        <time>2019-03-08T14:05:40Z</time>
      </trkpt>
      <trkpt lat="44.28922" lon="5.61992">
        <ele>774</ele>
        <time>2019-03-08T14:05:41Z</time>
      </trkpt>
      <trkpt lat="44.28925" lon="5.61988">
        <ele>775</ele>
        <time>2019-03-08T14:05:42Z</time>
      </trkpt>
      <trkpt lat="44.28928" lon="5.61983">
        <ele>775</ele>
        <time>2019-03-08T14:05:43Z</time>
      </trkpt>
      <trkpt lat="44.28931" lon="5.61979">
        <ele>775</ele>
        <time>2019-03-08T14:05:44Z</time>
      </trkpt>
      <trkpt lat="44.28934" lon="5.61975">
        <ele>775</ele>
        <time>2019-03-08T14:05:45Z</time>
      </trkpt>
      <trkpt lat="44.28937" lon="5.61972">
        <ele>775</ele>
        <time>2019-03-08T14:05:46Z</time>
      </trkpt>
      <trkpt lat="44.2894" lon="5.61968">
        <ele>775</ele>
        <time>2019-03-08T14:05:47Z</time>
      </trkpt>
      <trkpt lat="44.28944" lon="5.61964">
        <ele>775</ele>
        <time>2019-03-08T14:05:48Z</time>
      </trkpt>
      <trkpt lat="44.28947" lon="5.6196">
        <ele>775</ele>
        <time>2019-03-08T14:05:49Z</time>
      </trkpt>
      <trkpt lat="44.28951" lon="5.61956">
        <ele>775</ele>
        <time>2019-03-08T14:05:50Z</time>
      </trkpt>
      <trkpt lat="44.28954" lon="5.61952">
        <ele>775</ele>
        <time>2019-03-08T14:05:51Z</time>
      </trkpt>
      <trkpt lat="44.28958" lon="5.61949">
        <ele>775</ele>
        <time>2019-03-08T14:05:52Z</time>
      </trkpt>
      <trkpt lat="44.28962" lon="5.61945">
        <ele>775</ele>
        <time>2019-03-08T14:05:53Z</time>
      </trkpt>
      <trkpt lat="44.28965" lon="5.61942">
        <ele>775</ele>
        <time>2019-03-08T14:05:54Z</time>
      </trkpt>
      <trkpt lat="44.2897" lon="5.61938">
        <ele>775</ele>
        <time>2019-03-08T14:05:55Z</time>
      </trkpt>
      <trkpt lat="44.28973" lon="5.61935">
        <ele>775</ele>
        <time>2019-03-08T14:05:56Z</time>
      </trkpt>
      <trkpt lat="44.28978" lon="5.61932">
        <ele>775</ele>
        <time>2019-03-08T14:05:57Z</time>
      </trkpt>
      <trkpt lat="44.28982" lon="5.61929">
        <ele>775</ele>
        <time>2019-03-08T14:05:58Z</time>
      </trkpt>
      <trkpt lat="44.28986" lon="5.61926">
        <ele>775</ele>
        <time>2019-03-08T14:05:59Z</time>
      </trkpt>
      <trkpt lat="44.2899" lon="5.61922">
        <ele>775</ele>
        <time>2019-03-08T14:06:00Z</time>
      </trkpt>
      <trkpt lat="44.28994" lon="5.61919">
        <ele>775</ele>
        <time>2019-03-08T14:06:01Z</time>
      </trkpt>
      <trkpt lat="44.28998" lon="5.61916">
        <ele>775</ele>
        <time>2019-03-08T14:06:02Z</time>
      </trkpt>
      <trkpt lat="44.29002" lon="5.61912">
        <ele>775</ele>
        <time>2019-03-08T14:06:03Z</time>
      </trkpt>
      <trkpt lat="44.29006" lon="5.61909">
        <ele>775</ele>
        <time>2019-03-08T14:06:04Z</time>
      </trkpt>
      <trkpt lat="44.2901" lon="5.61906">
        <ele>775</ele>
        <time>2019-03-08T14:06:05Z</time>
      </trkpt>
      <trkpt lat="44.29014" lon="5.61903">
        <ele>775</ele>
        <time>2019-03-08T14:06:06Z</time>
      </trkpt>
      <trkpt lat="44.29018" lon="5.61899">
        <ele>775</ele>
        <time>2019-03-08T14:06:07Z</time>
      </trkpt>
      <trkpt lat="44.29022" lon="5.61896">
        <ele>775</ele>
        <time>2019-03-08T14:06:08Z</time>
      </trkpt>
      <trkpt lat="44.29026" lon="5.61892">
        <ele>776</ele>
        <time>2019-03-08T14:06:09Z</time>
      </trkpt>
      <trkpt lat="44.29031" lon="5.61889">
        <ele>776</ele>
        <time>2019-03-08T14:06:10Z</time>
      </trkpt>
      <trkpt lat="44.29034" lon="5.61886">
        <ele>776</ele>
        <time>2019-03-08T14:06:11Z</time>
      </trkpt>
      <trkpt lat="44.29039" lon="5.61883">
        <ele>776</ele>
        <time>2019-03-08T14:06:12Z</time>
      </trkpt>
      <trkpt lat="44.29042" lon="5.6188">
        <ele>776</ele>
        <time>2019-03-08T14:06:13Z</time>
      </trkpt>
      <trkpt lat="44.29047" lon="5.61877">
        <ele>777</ele>
        <time>2019-03-08T14:06:14Z</time>
      </trkpt>
      <trkpt lat="44.2905" lon="5.61874">
        <ele>777</ele>
        <time>2019-03-08T14:06:15Z</time>
      </trkpt>
      <trkpt lat="44.29055" lon="5.6187">
        <ele>777</ele>
        <time>2019-03-08T14:06:16Z</time>
      </trkpt>
      <trkpt lat="44.29058" lon="5.61867">
        <ele>777</ele>
        <time>2019-03-08T14:06:17Z</time>
      </trkpt>
      <trkpt lat="44.29062" lon="5.61864">
        <ele>777</ele>
        <time>2019-03-08T14:06:18Z</time>
      </trkpt>
      <trkpt lat="44.29066" lon="5.61861">
        <ele>777</ele>
        <time>2019-03-08T14:06:19Z</time>
      </trkpt>
      <trkpt lat="44.2907" lon="5.61858">
        <ele>777</ele>
        <time>2019-03-08T14:06:20Z</time>
      </trkpt>
      <trkpt lat="44.29074" lon="5.61855">
        <ele>778</ele>
        <time>2019-03-08T14:06:21Z</time>
      </trkpt>
      <trkpt lat="44.29078" lon="5.61852">
        <ele>778</ele>
        <time>2019-03-08T14:06:22Z</time>
      </trkpt>
      <trkpt lat="44.29082" lon="5.61849">
        <ele>778</ele>
        <time>2019-03-08T14:06:23Z</time>
      </trkpt>
      <trkpt lat="44.29086" lon="5.61846">
        <ele>778</ele>
        <time>2019-03-08T14:06:24Z</time>
      </trkpt>
      <trkpt lat="44.29089" lon="5.61843">
        <ele>778</ele>
        <time>2019-03-08T14:06:25Z</time>
      </trkpt>
      <trkpt lat="44.29093" lon="5.6184">
        <ele>779</ele>
        <time>2019-03-08T14:06:26Z</time>
      </trkpt>
      <trkpt lat="44.29097" lon="5.61837">
        <ele>779</ele>
        <time>2019-03-08T14:06:27Z</time>
      </trkpt>
      <trkpt lat="44.29102" lon="5.61834">
        <ele>779</ele>
        <time>2019-03-08T14:06:28Z</time>
      </trkpt>
      <trkpt lat="44.29105" lon="5.61831">
        <ele>779</ele>
        <time>2019-03-08T14:06:29Z</time>
      </trkpt>
      <trkpt lat="44.29109" lon="5.61827">
        <ele>779</ele>
        <time>2019-03-08T14:06:30Z</time>
      </trkpt>
      <trkpt lat="44.29113" lon="5.61824">
        <ele>779</ele>
        <time>2019-03-08T14:06:31Z</time>
      </trkpt>
      <trkpt lat="44.29117" lon="5.61821">
        <ele>779</ele>
        <time>2019-03-08T14:06:32Z</time>
      </trkpt>
      <trkpt lat="44.29121" lon="5.61819">
        <ele>779</ele>
        <time>2019-03-08T14:06:33Z</time>
      </trkpt>
      <trkpt lat="44.29125" lon="5.61816">
        <ele>779</ele>
        <time>2019-03-08T14:06:34Z</time>
      </trkpt>
      <trkpt lat="44.29128" lon="5.61812">
        <ele>779</ele>
        <time>2019-03-08T14:06:35Z</time>
      </trkpt>
      <trkpt lat="44.29132" lon="5.61809">
        <ele>779</ele>
        <time>2019-03-08T14:06:36Z</time>
      </trkpt>
      <trkpt lat="44.29136" lon="5.61807">
        <ele>780</ele>
        <time>2019-03-08T14:06:37Z</time>
      </trkpt>
      <trkpt lat="44.29139" lon="5.61804">
        <ele>780</ele>
        <time>2019-03-08T14:06:38Z</time>
      </trkpt>
      <trkpt lat="44.29143" lon="5.61801">
        <ele>780</ele>
        <time>2019-03-08T14:06:39Z</time>
      </trkpt>
      <trkpt lat="44.29147" lon="5.61798">
        <ele>780</ele>
        <time>2019-03-08T14:06:40Z</time>
      </trkpt>
      <trkpt lat="44.29151" lon="5.61795">
        <ele>780</ele>
        <time>2019-03-08T14:06:41Z</time>
      </trkpt>
      <trkpt lat="44.29155" lon="5.61792">
        <ele>780</ele>
        <time>2019-03-08T14:06:42Z</time>
      </trkpt>
      <trkpt lat="44.29158" lon="5.61789">
        <ele>780</ele>
        <time>2019-03-08T14:06:43Z</time>
      </trkpt>
      <trkpt lat="44.29162" lon="5.61787">
        <ele>781</ele>
        <time>2019-03-08T14:06:44Z</time>
      </trkpt>
      <trkpt lat="44.29166" lon="5.61784">
        <ele>781</ele>
        <time>2019-03-08T14:06:45Z</time>
      </trkpt>
      <trkpt lat="44.2917" lon="5.61781">
        <ele>781</ele>
        <time>2019-03-08T14:06:46Z</time>
      </trkpt>
      <trkpt lat="44.29174" lon="5.61778">
        <ele>781</ele>
        <time>2019-03-08T14:06:47Z</time>
      </trkpt>
      <trkpt lat="44.29177" lon="5.61775">
        <ele>781</ele>
        <time>2019-03-08T14:06:48Z</time>
      </trkpt>
      <trkpt lat="44.29181" lon="5.61772">
        <ele>781</ele>
        <time>2019-03-08T14:06:49Z</time>
      </trkpt>
      <trkpt lat="44.29184" lon="5.61769">
        <ele>781</ele>
        <time>2019-03-08T14:06:50Z</time>
      </trkpt>
      <trkpt lat="44.29188" lon="5.61766">
        <ele>781</ele>
        <time>2019-03-08T14:06:51Z</time>
      </trkpt>
      <trkpt lat="44.29192" lon="5.61763">
        <ele>781</ele>
        <time>2019-03-08T14:06:52Z</time>
      </trkpt>
      <trkpt lat="44.29195" lon="5.6176">
        <ele>781</ele>
        <time>2019-03-08T14:06:53Z</time>
      </trkpt>
      <trkpt lat="44.29198" lon="5.61757">
        <ele>781</ele>
        <time>2019-03-08T14:06:54Z</time>
      </trkpt>
      <trkpt lat="44.29202" lon="5.61754">
        <ele>781</ele>
        <time>2019-03-08T14:06:55Z</time>
      </trkpt>
      <trkpt lat="44.29205" lon="5.6175">
        <ele>781</ele>
        <time>2019-03-08T14:06:56Z</time>
      </trkpt>
      <trkpt lat="44.29207" lon="5.61746">
        <ele>781</ele>
        <time>2019-03-08T14:06:57Z</time>
      </trkpt>
      <trkpt lat="44.2921" lon="5.61742">
        <ele>782</ele>
        <time>2019-03-08T14:06:58Z</time>
      </trkpt>
      <trkpt lat="44.29213" lon="5.61738">
        <ele>782</ele>
        <time>2019-03-08T14:06:59Z</time>
      </trkpt>
      <trkpt lat="44.29215" lon="5.61733">
        <ele>782</ele>
        <time>2019-03-08T14:07:00Z</time>
      </trkpt>
      <trkpt lat="44.29217" lon="5.61728">
        <ele>782</ele>
        <time>2019-03-08T14:07:01Z</time>
      </trkpt>
      <trkpt lat="44.29219" lon="5.61723">
        <ele>782</ele>
        <time>2019-03-08T14:07:02Z</time>
      </trkpt>
      <trkpt lat="44.29221" lon="5.61718">
        <ele>782</ele>
        <time>2019-03-08T14:07:03Z</time>
      </trkpt>
      <trkpt lat="44.29222" lon="5.61712">
        <ele>783</ele>
        <time>2019-03-08T14:07:04Z</time>
      </trkpt>
      <trkpt lat="44.29224" lon="5.61707">
        <ele>783</ele>
        <time>2019-03-08T14:07:05Z</time>
      </trkpt>
      <trkpt lat="44.29225" lon="5.61701">
        <ele>783</ele>
        <time>2019-03-08T14:07:06Z</time>
      </trkpt>
      <trkpt lat="44.29227" lon="5.61695">
        <ele>783</ele>
        <time>2019-03-08T14:07:07Z</time>
      </trkpt>
      <trkpt lat="44.29228" lon="5.6169">
        <ele>783</ele>
        <time>2019-03-08T14:07:08Z</time>
      </trkpt>
      <trkpt lat="44.29229" lon="5.61684">
        <ele>783</ele>
        <time>2019-03-08T14:07:09Z</time>
      </trkpt>
      <trkpt lat="44.29231" lon="5.61678">
        <ele>783</ele>
        <time>2019-03-08T14:07:10Z</time>
      </trkpt>
      <trkpt lat="44.29232" lon="5.61672">
        <ele>783</ele>
        <time>2019-03-08T14:07:11Z</time>
      </trkpt>
      <trkpt lat="44.29234" lon="5.61667">
        <ele>783</ele>
        <time>2019-03-08T14:07:12Z</time>
      </trkpt>
      <trkpt lat="44.29235" lon="5.6166">
        <ele>783</ele>
        <time>2019-03-08T14:07:13Z</time>
      </trkpt>
      <trkpt lat="44.29237" lon="5.61654">
        <ele>783</ele>
        <time>2019-03-08T14:07:14Z</time>
      </trkpt>
      <trkpt lat="44.29238" lon="5.61648">
        <ele>783</ele>
        <time>2019-03-08T14:07:15Z</time>
      </trkpt>
      <trkpt lat="44.2924" lon="5.61642">
        <ele>783</ele>
        <time>2019-03-08T14:07:16Z</time>
      </trkpt>
      <trkpt lat="44.29242" lon="5.61635">
        <ele>783</ele>
        <time>2019-03-08T14:07:17Z</time>
      </trkpt>
      <trkpt lat="44.29243" lon="5.61628">
        <ele>783</ele>
        <time>2019-03-08T14:07:18Z</time>
      </trkpt>
      <trkpt lat="44.29245" lon="5.61621">
        <ele>783</ele>
        <time>2019-03-08T14:07:19Z</time>
      </trkpt>
      <trkpt lat="44.29247" lon="5.61614">
        <ele>783</ele>
        <time>2019-03-08T14:07:20Z</time>
      </trkpt>
      <trkpt lat="44.29248" lon="5.61606">
        <ele>783</ele>
        <time>2019-03-08T14:07:21Z</time>
      </trkpt>
      <trkpt lat="44.2925" lon="5.61599">
        <ele>783</ele>
        <time>2019-03-08T14:07:22Z</time>
      </trkpt>
      <trkpt lat="44.29253" lon="5.61592">
        <ele>783</ele>
        <time>2019-03-08T14:07:23Z</time>
      </trkpt>
      <trkpt lat="44.29254" lon="5.61585">
        <ele>783</ele>
        <time>2019-03-08T14:07:24Z</time>
      </trkpt>
      <trkpt lat="44.29256" lon="5.61578">
        <ele>783</ele>
        <time>2019-03-08T14:07:25Z</time>
      </trkpt>
      <trkpt lat="44.29258" lon="5.61571">
        <ele>783</ele>
        <time>2019-03-08T14:07:26Z</time>
      </trkpt>
      <trkpt lat="44.29259" lon="5.61564">
        <ele>783</ele>
        <time>2019-03-08T14:07:27Z</time>
      </trkpt>
      <trkpt lat="44.29261" lon="5.61558">
        <ele>783</ele>
        <time>2019-03-08T14:07:28Z</time>
      </trkpt>
      <trkpt lat="44.29262" lon="5.61551">
        <ele>783</ele>
        <time>2019-03-08T14:07:29Z</time>
      </trkpt>
      <trkpt lat="44.29264" lon="5.61545">
        <ele>783</ele>
        <time>2019-03-08T14:07:30Z</time>
      </trkpt>
      <trkpt lat="44.29265" lon="5.61538">
        <ele>783</ele>
        <time>2019-03-08T14:07:31Z</time>
      </trkpt>
      <trkpt lat="44.29267" lon="5.6153">
        <ele>783</ele>
        <time>2019-03-08T14:07:32Z</time>
      </trkpt>
      <trkpt lat="44.29268" lon="5.61523">
        <ele>783</ele>
        <time>2019-03-08T14:07:33Z</time>
      </trkpt>
      <trkpt lat="44.2927" lon="5.61516">
        <ele>783</ele>
        <time>2019-03-08T14:07:34Z</time>
      </trkpt>
      <trkpt lat="44.29271" lon="5.61509">
        <ele>783</ele>
        <time>2019-03-08T14:07:35Z</time>
      </trkpt>
      <trkpt lat="44.29272" lon="5.61502">
        <ele>783</ele>
        <time>2019-03-08T14:07:36Z</time>
      </trkpt>
      <trkpt lat="44.29273" lon="5.61495">
        <ele>783</ele>
        <time>2019-03-08T14:07:37Z</time>
      </trkpt>
      <trkpt lat="44.29274" lon="5.61489">
        <ele>783</ele>
        <time>2019-03-08T14:07:38Z</time>
      </trkpt>
      <trkpt lat="44.29274" lon="5.61482">
        <ele>783</ele>
        <time>2019-03-08T14:07:39Z</time>
      </trkpt>
      <trkpt lat="44.29275" lon="5.61476">
        <ele>783</ele>
        <time>2019-03-08T14:07:40Z</time>
      </trkpt>
      <trkpt lat="44.29275" lon="5.61469">
        <ele>783</ele>
        <time>2019-03-08T14:07:41Z</time>
      </trkpt>
      <trkpt lat="44.29276" lon="5.61463">
        <ele>783</ele>
        <time>2019-03-08T14:07:42Z</time>
      </trkpt>
      <trkpt lat="44.29276" lon="5.61457">
        <ele>783</ele>
        <time>2019-03-08T14:07:43Z</time>
      </trkpt>
      <trkpt lat="44.29276" lon="5.6145">
        <ele>783</ele>
        <time>2019-03-08T14:07:44Z</time>
      </trkpt>
      <trkpt lat="44.29276" lon="5.61444">
        <ele>783</ele>
        <time>2019-03-08T14:07:45Z</time>
      </trkpt>
      <trkpt lat="44.29276" lon="5.61438">
        <ele>783</ele>
        <time>2019-03-08T14:07:46Z</time>
      </trkpt>
      <trkpt lat="44.29277" lon="5.61432">
        <ele>783</ele>
        <time>2019-03-08T14:07:47Z</time>
      </trkpt>
      <trkpt lat="44.29277" lon="5.61426">
        <ele>783</ele>
        <time>2019-03-08T14:07:48Z</time>
      </trkpt>
      <trkpt lat="44.29276" lon="5.6142">
        <ele>783</ele>
        <time>2019-03-08T14:07:49Z</time>
      </trkpt>
      <trkpt lat="44.29276" lon="5.61414">
        <ele>783</ele>
        <time>2019-03-08T14:07:50Z</time>
      </trkpt>
      <trkpt lat="44.29276" lon="5.61408">
        <ele>783</ele>
        <time>2019-03-08T14:07:51Z</time>
      </trkpt>
      <trkpt lat="44.29276" lon="5.61402">
        <ele>783</ele>
        <time>2019-03-08T14:07:52Z</time>
      </trkpt>
      <trkpt lat="44.29276" lon="5.61397">
        <ele>783</ele>
        <time>2019-03-08T14:07:53Z</time>
      </trkpt>
      <trkpt lat="44.29276" lon="5.6139">
        <ele>783</ele>
        <time>2019-03-08T14:07:54Z</time>
      </trkpt>
      <trkpt lat="44.29276" lon="5.61385">
        <ele>783</ele>
        <time>2019-03-08T14:07:55Z</time>
      </trkpt>
      <trkpt lat="44.29276" lon="5.61379">
        <ele>783</ele>
        <time>2019-03-08T14:07:56Z</time>
      </trkpt>
      <trkpt lat="44.29276" lon="5.61373">
        <ele>783</ele>
        <time>2019-03-08T14:07:57Z</time>
      </trkpt>
      <trkpt lat="44.29275" lon="5.61367">
        <ele>783</ele>
        <time>2019-03-08T14:07:58Z</time>
      </trkpt>
      <trkpt lat="44.29275" lon="5.6136">
        <ele>784</ele>
        <time>2019-03-08T14:07:59Z</time>
      </trkpt>
      <trkpt lat="44.29275" lon="5.61354">
        <ele>784</ele>
        <time>2019-03-08T14:08:00Z</time>
      </trkpt>
      <trkpt lat="44.29275" lon="5.61348">
        <ele>784</ele>
        <time>2019-03-08T14:08:01Z</time>
      </trkpt>
      <trkpt lat="44.29275" lon="5.61342">
        <ele>784</ele>
        <time>2019-03-08T14:08:02Z</time>
      </trkpt>
      <trkpt lat="44.29275" lon="5.61337">
        <ele>785</ele>
        <time>2019-03-08T14:08:03Z</time>
      </trkpt>
      <trkpt lat="44.29275" lon="5.61332">
        <ele>785</ele>
        <time>2019-03-08T14:08:04Z</time>
      </trkpt>
      <trkpt lat="44.29274" lon="5.61326">
        <ele>785</ele>
        <time>2019-03-08T14:08:05Z</time>
      </trkpt>
      <trkpt lat="44.29274" lon="5.6132">
        <ele>785</ele>
        <time>2019-03-08T14:08:06Z</time>
      </trkpt>
      <trkpt lat="44.29275" lon="5.61315">
        <ele>785</ele>
        <time>2019-03-08T14:08:07Z</time>
      </trkpt>
      <trkpt lat="44.29275" lon="5.61309">
        <ele>785</ele>
        <time>2019-03-08T14:08:08Z</time>
      </trkpt>
      <trkpt lat="44.29275" lon="5.61303">
        <ele>785</ele>
        <time>2019-03-08T14:08:09Z</time>
      </trkpt>
      <trkpt lat="44.29275" lon="5.61296">
        <ele>785</ele>
        <time>2019-03-08T14:08:10Z</time>
      </trkpt>
      <trkpt lat="44.29274" lon="5.6129">
        <ele>785</ele>
        <time>2019-03-08T14:08:11Z</time>
      </trkpt>
      <trkpt lat="44.29274" lon="5.61283">
        <ele>785</ele>
        <time>2019-03-08T14:08:12Z</time>
      </trkpt>
      <trkpt lat="44.29274" lon="5.61276">
        <ele>785</ele>
        <time>2019-03-08T14:08:13Z</time>
      </trkpt>
      <trkpt lat="44.29274" lon="5.6127">
        <ele>785</ele>
        <time>2019-03-08T14:08:14Z</time>
      </trkpt>
      <trkpt lat="44.29274" lon="5.61263">
        <ele>785</ele>
        <time>2019-03-08T14:08:15Z</time>
      </trkpt>
      <trkpt lat="44.29274" lon="5.61257">
        <ele>785</ele>
        <time>2019-03-08T14:08:16Z</time>
      </trkpt>
      <trkpt lat="44.29274" lon="5.61249">
        <ele>785</ele>
        <time>2019-03-08T14:08:17Z</time>
      </trkpt>
      <trkpt lat="44.29274" lon="5.61243">
        <ele>785</ele>
        <time>2019-03-08T14:08:18Z</time>
      </trkpt>
      <trkpt lat="44.29274" lon="5.61236">
        <ele>785</ele>
        <time>2019-03-08T14:08:19Z</time>
      </trkpt>
      <trkpt lat="44.29275" lon="5.61229">
        <ele>785</ele>
        <time>2019-03-08T14:08:20Z</time>
      </trkpt>
      <trkpt lat="44.29275" lon="5.61222">
        <ele>785</ele>
        <time>2019-03-08T14:08:21Z</time>
      </trkpt>
      <trkpt lat="44.29274" lon="5.61215">
        <ele>785</ele>
        <time>2019-03-08T14:08:22Z</time>
      </trkpt>
      <trkpt lat="44.29274" lon="5.61208">
        <ele>785</ele>
        <time>2019-03-08T14:08:23Z</time>
      </trkpt>
      <trkpt lat="44.29274" lon="5.61201">
        <ele>785</ele>
        <time>2019-03-08T14:08:24Z</time>
      </trkpt>
      <trkpt lat="44.29274" lon="5.61194">
        <ele>785</ele>
        <time>2019-03-08T14:08:25Z</time>
      </trkpt>
      <trkpt lat="44.29274" lon="5.61188">
        <ele>786</ele>
        <time>2019-03-08T14:08:26Z</time>
      </trkpt>
      <trkpt lat="44.29273" lon="5.61181">
        <ele>786</ele>
        <time>2019-03-08T14:08:27Z</time>
      </trkpt>
      <trkpt lat="44.29273" lon="5.61174">
        <ele>786</ele>
        <time>2019-03-08T14:08:28Z</time>
      </trkpt>
      <trkpt lat="44.29273" lon="5.61168">
        <ele>786</ele>
        <time>2019-03-08T14:08:29Z</time>
      </trkpt>
      <trkpt lat="44.29273" lon="5.61161">
        <ele>786</ele>
        <time>2019-03-08T14:08:30Z</time>
      </trkpt>
      <trkpt lat="44.29272" lon="5.61155">
        <ele>786</ele>
        <time>2019-03-08T14:08:31Z</time>
      </trkpt>
      <trkpt lat="44.29271" lon="5.61149">
        <ele>786</ele>
        <time>2019-03-08T14:08:32Z</time>
      </trkpt>
      <trkpt lat="44.29271" lon="5.61143">
        <ele>786</ele>
        <time>2019-03-08T14:08:33Z</time>
      </trkpt>
      <trkpt lat="44.2927" lon="5.61137">
        <ele>786</ele>
        <time>2019-03-08T14:08:34Z</time>
      </trkpt>
      <trkpt lat="44.2927" lon="5.61131">
        <ele>786</ele>
        <time>2019-03-08T14:08:35Z</time>
      </trkpt>
      <trkpt lat="44.29269" lon="5.61125">
        <ele>786</ele>
        <time>2019-03-08T14:08:36Z</time>
      </trkpt>
      <trkpt lat="44.29268" lon="5.61119">
        <ele>786</ele>
        <time>2019-03-08T14:08:37Z</time>
      </trkpt>
      <trkpt lat="44.29267" lon="5.61112">
        <ele>786</ele>
        <time>2019-03-08T14:08:38Z</time>
      </trkpt>
      <trkpt lat="44.29266" lon="5.61106">
        <ele>786</ele>
        <time>2019-03-08T14:08:39Z</time>
      </trkpt>
      <trkpt lat="44.29266" lon="5.611">
        <ele>786</ele>
        <time>2019-03-08T14:08:40Z</time>
      </trkpt>
      <trkpt lat="44.29265" lon="5.61093">
        <ele>786</ele>
        <time>2019-03-08T14:08:41Z</time>
      </trkpt>
      <trkpt lat="44.29264" lon="5.61087">
        <ele>786</ele>
        <time>2019-03-08T14:08:42Z</time>
      </trkpt>
      <trkpt lat="44.29264" lon="5.61081">
        <ele>786</ele>
        <time>2019-03-08T14:08:43Z</time>
      </trkpt>
      <trkpt lat="44.29263" lon="5.61074">
        <ele>786</ele>
        <time>2019-03-08T14:08:44Z</time>
      </trkpt>
      <trkpt lat="44.29262" lon="5.61068">
        <ele>786</ele>
        <time>2019-03-08T14:08:45Z</time>
      </trkpt>
      <trkpt lat="44.29261" lon="5.61062">
        <ele>786</ele>
        <time>2019-03-08T14:08:46Z</time>
      </trkpt>
      <trkpt lat="44.2926" lon="5.61056">
        <ele>786</ele>
        <time>2019-03-08T14:08:47Z</time>
      </trkpt>
      <trkpt lat="44.29259" lon="5.6105">
        <ele>786</ele>
        <time>2019-03-08T14:08:48Z</time>
      </trkpt>
      <trkpt lat="44.29258" lon="5.61044">
        <ele>786</ele>
        <time>2019-03-08T14:08:49Z</time>
      </trkpt>
      <trkpt lat="44.29258" lon="5.61037">
        <ele>786</ele>
        <time>2019-03-08T14:08:50Z</time>
      </trkpt>
      <trkpt lat="44.29257" lon="5.61031">
        <ele>786</ele>
        <time>2019-03-08T14:08:51Z</time>
      </trkpt>
      <trkpt lat="44.29256" lon="5.61025">
        <ele>786</ele>
        <time>2019-03-08T14:08:52Z</time>
      </trkpt>
      <trkpt lat="44.29256" lon="5.61018">
        <ele>786</ele>
        <time>2019-03-08T14:08:53Z</time>
      </trkpt>
      <trkpt lat="44.29255" lon="5.61012">
        <ele>786</ele>
        <time>2019-03-08T14:08:54Z</time>
      </trkpt>
      <trkpt lat="44.29254" lon="5.61006">
        <ele>786</ele>
        <time>2019-03-08T14:08:55Z</time>
      </trkpt>
      <trkpt lat="44.29253" lon="5.61">
        <ele>786</ele>
        <time>2019-03-08T14:08:56Z</time>
      </trkpt>
      <trkpt lat="44.29252" lon="5.60994">
        <ele>786</ele>
        <time>2019-03-08T14:08:57Z</time>
      </trkpt>
      <trkpt lat="44.29251" lon="5.60988">
        <ele>786</ele>
        <time>2019-03-08T14:08:58Z</time>
      </trkpt>
      <trkpt lat="44.2925" lon="5.60982">
        <ele>786</ele>
        <time>2019-03-08T14:08:59Z</time>
      </trkpt>
      <trkpt lat="44.2925" lon="5.60976">
        <ele>786</ele>
        <time>2019-03-08T14:09:00Z</time>
      </trkpt>
      <trkpt lat="44.29249" lon="5.6097">
        <ele>786</ele>
        <time>2019-03-08T14:09:01Z</time>
      </trkpt>
      <trkpt lat="44.29248" lon="5.60964">
        <ele>786</ele>
        <time>2019-03-08T14:09:02Z</time>
      </trkpt>
      <trkpt lat="44.29247" lon="5.60958">
        <ele>786</ele>
        <time>2019-03-08T14:09:03Z</time>
      </trkpt>
      <trkpt lat="44.29247" lon="5.60952">
        <ele>786</ele>
        <time>2019-03-08T14:09:04Z</time>
      </trkpt>
      <trkpt lat="44.29246" lon="5.60946">
        <ele>786</ele>
        <time>2019-03-08T14:09:05Z</time>
      </trkpt>
      <trkpt lat="44.29245" lon="5.60941">
        <ele>786</ele>
        <time>2019-03-08T14:09:06Z</time>
      </trkpt>
      <trkpt lat="44.29244" lon="5.60935">
        <ele>786</ele>
        <time>2019-03-08T14:09:07Z</time>
      </trkpt>
      <trkpt lat="44.29244" lon="5.60929">
        <ele>786</ele>
        <time>2019-03-08T14:09:08Z</time>
      </trkpt>
      <trkpt lat="44.29243" lon="5.60923">
        <ele>786</ele>
        <time>2019-03-08T14:09:09Z</time>
      </trkpt>
      <trkpt lat="44.29242" lon="5.60918">
        <ele>786</ele>
        <time>2019-03-08T14:09:10Z</time>
      </trkpt>
      <trkpt lat="44.29242" lon="5.60912">
        <ele>786</ele>
        <time>2019-03-08T14:09:11Z</time>
      </trkpt>
      <trkpt lat="44.29241" lon="5.60906">
        <ele>786</ele>
        <time>2019-03-08T14:09:12Z</time>
      </trkpt>
      <trkpt lat="44.2924" lon="5.609">
        <ele>786</ele>
        <time>2019-03-08T14:09:13Z</time>
      </trkpt>
      <trkpt lat="44.29239" lon="5.60894">
        <ele>787</ele>
        <time>2019-03-08T14:09:14Z</time>
      </trkpt>
      <trkpt lat="44.29238" lon="5.60887">
        <ele>787</ele>
        <time>2019-03-08T14:09:15Z</time>
      </trkpt>
      <trkpt lat="44.29237" lon="5.60882">
        <ele>787</ele>
        <time>2019-03-08T14:09:16Z</time>
      </trkpt>
      <trkpt lat="44.29237" lon="5.60875">
        <ele>787</ele>
        <time>2019-03-08T14:09:17Z</time>
      </trkpt>
      <trkpt lat="44.29236" lon="5.60869">
        <ele>788</ele>
        <time>2019-03-08T14:09:18Z</time>
      </trkpt>
      <trkpt lat="44.29235" lon="5.60863">
        <ele>788</ele>
        <time>2019-03-08T14:09:19Z</time>
      </trkpt>
      <trkpt lat="44.29234" lon="5.60857">
        <ele>788</ele>
        <time>2019-03-08T14:09:20Z</time>
      </trkpt>
      <trkpt lat="44.29234" lon="5.60851">
        <ele>788</ele>
        <time>2019-03-08T14:09:21Z</time>
      </trkpt>
      <trkpt lat="44.29233" lon="5.60845">
        <ele>788</ele>
        <time>2019-03-08T14:09:22Z</time>
      </trkpt>
      <trkpt lat="44.29232" lon="5.60839">
        <ele>788</ele>
        <time>2019-03-08T14:09:23Z</time>
      </trkpt>
      <trkpt lat="44.29231" lon="5.60833">
        <ele>789</ele>
        <time>2019-03-08T14:09:24Z</time>
      </trkpt>
      <trkpt lat="44.2923" lon="5.60828">
        <ele>789</ele>
        <time>2019-03-08T14:09:25Z</time>
      </trkpt>
      <trkpt lat="44.29229" lon="5.60822">
        <ele>789</ele>
        <time>2019-03-08T14:09:26Z</time>
      </trkpt>
      <trkpt lat="44.29229" lon="5.60816">
        <ele>789</ele>
        <time>2019-03-08T14:09:27Z</time>
      </trkpt>
      <trkpt lat="44.29228" lon="5.60811">
        <ele>790</ele>
        <time>2019-03-08T14:09:28Z</time>
      </trkpt>
      <trkpt lat="44.29227" lon="5.60805">
        <ele>790</ele>
        <time>2019-03-08T14:09:29Z</time>
      </trkpt>
      <trkpt lat="44.29226" lon="5.608">
        <ele>790</ele>
        <time>2019-03-08T14:09:30Z</time>
      </trkpt>
      <trkpt lat="44.29225" lon="5.60794">
        <ele>790</ele>
        <time>2019-03-08T14:09:31Z</time>
      </trkpt>
      <trkpt lat="44.29224" lon="5.60788">
        <ele>791</ele>
        <time>2019-03-08T14:09:32Z</time>
      </trkpt>
      <trkpt lat="44.29224" lon="5.60782">
        <ele>791</ele>
        <time>2019-03-08T14:09:33Z</time>
      </trkpt>
      <trkpt lat="44.29223" lon="5.60777">
        <ele>792</ele>
        <time>2019-03-08T14:09:34Z</time>
      </trkpt>
      <trkpt lat="44.29222" lon="5.60771">
        <ele>792</ele>
        <time>2019-03-08T14:09:35Z</time>
      </trkpt>
      <trkpt lat="44.29222" lon="5.60765">
        <ele>792</ele>
        <time>2019-03-08T14:09:36Z</time>
      </trkpt>
      <trkpt lat="44.29221" lon="5.6076">
        <ele>792</ele>
        <time>2019-03-08T14:09:37Z</time>
      </trkpt>
      <trkpt lat="44.29221" lon="5.60754">
        <ele>793</ele>
        <time>2019-03-08T14:09:38Z</time>
      </trkpt>
      <trkpt lat="44.2922" lon="5.60748">
        <ele>793</ele>
        <time>2019-03-08T14:09:39Z</time>
      </trkpt>
      <trkpt lat="44.29219" lon="5.60743">
        <ele>793</ele>
        <time>2019-03-08T14:09:40Z</time>
      </trkpt>
      <trkpt lat="44.29219" lon="5.60738">
        <ele>793</ele>
        <time>2019-03-08T14:09:41Z</time>
      </trkpt>
      <trkpt lat="44.29218" lon="5.60733">
        <ele>794</ele>
        <time>2019-03-08T14:09:42Z</time>
      </trkpt>
      <trkpt lat="44.29218" lon="5.60728">
        <ele>794</ele>
        <time>2019-03-08T14:09:43Z</time>
      </trkpt>
      <trkpt lat="44.29218" lon="5.60722">
        <ele>794</ele>
        <time>2019-03-08T14:09:44Z</time>
      </trkpt>
      <trkpt lat="44.29218" lon="5.60717">
        <ele>795</ele>
        <time>2019-03-08T14:09:45Z</time>
      </trkpt>
      <trkpt lat="44.29218" lon="5.60712">
        <ele>795</ele>
        <time>2019-03-08T14:09:46Z</time>
      </trkpt>
      <trkpt lat="44.29218" lon="5.60707">
        <ele>796</ele>
        <time>2019-03-08T14:09:47Z</time>
      </trkpt>
      <trkpt lat="44.29218" lon="5.60702">
        <ele>796</ele>
        <time>2019-03-08T14:09:48Z</time>
      </trkpt>
      <trkpt lat="44.29218" lon="5.60697">
        <ele>797</ele>
        <time>2019-03-08T14:09:49Z</time>
      </trkpt>
      <trkpt lat="44.29218" lon="5.60692">
        <ele>797</ele>
        <time>2019-03-08T14:09:50Z</time>
      </trkpt>
      <trkpt lat="44.29218" lon="5.60687">
        <ele>798</ele>
        <time>2019-03-08T14:09:51Z</time>
      </trkpt>
      <trkpt lat="44.29219" lon="5.60682">
        <ele>798</ele>
        <time>2019-03-08T14:09:52Z</time>
      </trkpt>
      <trkpt lat="44.29219" lon="5.60677">
        <ele>798</ele>
        <time>2019-03-08T14:09:53Z</time>
      </trkpt>
      <trkpt lat="44.29219" lon="5.60673">
        <ele>798</ele>
        <time>2019-03-08T14:09:54Z</time>
      </trkpt>
      <trkpt lat="44.2922" lon="5.60668">
        <ele>799</ele>
        <time>2019-03-08T14:09:55Z</time>
      </trkpt>
      <trkpt lat="44.2922" lon="5.60663">
        <ele>799</ele>
        <time>2019-03-08T14:09:56Z</time>
      </trkpt>
      <trkpt lat="44.2922" lon="5.60659">
        <ele>799</ele>
        <time>2019-03-08T14:09:57Z</time>
      </trkpt>
      <trkpt lat="44.29221" lon="5.60654">
        <ele>799</ele>
        <time>2019-03-08T14:09:58Z</time>
      </trkpt>
      <trkpt lat="44.29221" lon="5.6065">
        <ele>799</ele>
        <time>2019-03-08T14:09:59Z</time>
      </trkpt>
      <trkpt lat="44.29222" lon="5.60645">
        <ele>800</ele>
        <time>2019-03-08T14:10:00Z</time>
      </trkpt>
      <trkpt lat="44.29222" lon="5.6064">
        <ele>800</ele>
        <time>2019-03-08T14:10:01Z</time>
      </trkpt>
      <trkpt lat="44.29223" lon="5.60636">
        <ele>800</ele>
        <time>2019-03-08T14:10:02Z</time>
      </trkpt>
      <trkpt lat="44.29224" lon="5.60631">
        <ele>800</ele>
        <time>2019-03-08T14:10:03Z</time>
      </trkpt>
      <trkpt lat="44.29225" lon="5.60627">
        <ele>800</ele>
        <time>2019-03-08T14:10:04Z</time>
      </trkpt>
      <trkpt lat="44.29225" lon="5.60622">
        <ele>801</ele>
        <time>2019-03-08T14:10:05Z</time>
      </trkpt>
      <trkpt lat="44.29226" lon="5.60618">
        <ele>801</ele>
        <time>2019-03-08T14:10:06Z</time>
      </trkpt>
      <trkpt lat="44.29227" lon="5.60614">
        <ele>801</ele>
        <time>2019-03-08T14:10:07Z</time>
      </trkpt>
      <trkpt lat="44.29228" lon="5.60611">
        <ele>802</ele>
        <time>2019-03-08T14:10:08Z</time>
      </trkpt>
      <trkpt lat="44.29229" lon="5.60606">
        <ele>802</ele>
        <time>2019-03-08T14:10:09Z</time>
      </trkpt>
      <trkpt lat="44.29229" lon="5.60602">
        <ele>802</ele>
        <time>2019-03-08T14:10:10Z</time>
      </trkpt>
      <trkpt lat="44.2923" lon="5.60597">
        <ele>802</ele>
        <time>2019-03-08T14:10:11Z</time>
      </trkpt>
      <trkpt lat="44.29231" lon="5.60593">
        <ele>802</ele>
        <time>2019-03-08T14:10:12Z</time>
      </trkpt>
      <trkpt lat="44.29232" lon="5.60589">
        <ele>802</ele>
        <time>2019-03-08T14:10:13Z</time>
      </trkpt>
      <trkpt lat="44.29233" lon="5.60584">
        <ele>802</ele>
        <time>2019-03-08T14:10:14Z</time>
      </trkpt>
      <trkpt lat="44.29234" lon="5.6058">
        <ele>802</ele>
        <time>2019-03-08T14:10:15Z</time>
      </trkpt>
      <trkpt lat="44.29235" lon="5.60575">
        <ele>802</ele>
        <time>2019-03-08T14:10:16Z</time>
      </trkpt>
      <trkpt lat="44.29235" lon="5.60571">
        <ele>802</ele>
        <time>2019-03-08T14:10:17Z</time>
      </trkpt>
      <trkpt lat="44.29236" lon="5.60566">
        <ele>802</ele>
        <time>2019-03-08T14:10:18Z</time>
      </trkpt>
      <trkpt lat="44.29237" lon="5.60562">
        <ele>802</ele>
        <time>2019-03-08T14:10:19Z</time>
      </trkpt>
      <trkpt lat="44.29238" lon="5.60557">
        <ele>802</ele>
        <time>2019-03-08T14:10:20Z</time>
      </trkpt>
      <trkpt lat="44.29239" lon="5.60552">
        <ele>802</ele>
        <time>2019-03-08T14:10:21Z</time>
      </trkpt>
      <trkpt lat="44.2924" lon="5.60547">
        <ele>802</ele>
        <time>2019-03-08T14:10:22Z</time>
      </trkpt>
      <trkpt lat="44.29241" lon="5.60542">
        <ele>802</ele>
        <time>2019-03-08T14:10:23Z</time>
      </trkpt>
      <trkpt lat="44.29242" lon="5.60537">
        <ele>802</ele>
        <time>2019-03-08T14:10:24Z</time>
      </trkpt>
      <trkpt lat="44.29244" lon="5.60532">
        <ele>802</ele>
        <time>2019-03-08T14:10:25Z</time>
      </trkpt>
      <trkpt lat="44.29245" lon="5.60526">
        <ele>802</ele>
        <time>2019-03-08T14:10:26Z</time>
      </trkpt>
      <trkpt lat="44.29246" lon="5.60521">
        <ele>802</ele>
        <time>2019-03-08T14:10:27Z</time>
      </trkpt>
      <trkpt lat="44.29247" lon="5.60515">
        <ele>802</ele>
        <time>2019-03-08T14:10:28Z</time>
      </trkpt>
      <trkpt lat="44.29248" lon="5.6051">
        <ele>802</ele>
        <time>2019-03-08T14:10:29Z</time>
      </trkpt>
      <trkpt lat="44.2925" lon="5.60504">
        <ele>802</ele>
        <time>2019-03-08T14:10:30Z</time>
      </trkpt>
      <trkpt lat="44.29251" lon="5.60499">
        <ele>802</ele>
        <time>2019-03-08T14:10:31Z</time>
      </trkpt>
      <trkpt lat="44.29252" lon="5.60494">
        <ele>802</ele>
        <time>2019-03-08T14:10:32Z</time>
      </trkpt>
      <trkpt lat="44.29253" lon="5.60488">
        <ele>802</ele>
        <time>2019-03-08T14:10:33Z</time>
      </trkpt>
      <trkpt lat="44.29254" lon="5.60483">
        <ele>802</ele>
        <time>2019-03-08T14:10:34Z</time>
      </trkpt>
      <trkpt lat="44.29255" lon="5.60476">
        <ele>802</ele>
        <time>2019-03-08T14:10:35Z</time>
      </trkpt>
      <trkpt lat="44.29255" lon="5.60471">
        <ele>802</ele>
        <time>2019-03-08T14:10:36Z</time>
      </trkpt>
      <trkpt lat="44.29255" lon="5.60465">
        <ele>802</ele>
        <time>2019-03-08T14:10:37Z</time>
      </trkpt>
      <trkpt lat="44.29255" lon="5.60459">
        <ele>802</ele>
        <time>2019-03-08T14:10:38Z</time>
      </trkpt>
      <trkpt lat="44.29255" lon="5.60454">
        <ele>802</ele>
        <time>2019-03-08T14:10:39Z</time>
      </trkpt>
      <trkpt lat="44.29255" lon="5.60448">
        <ele>802</ele>
        <time>2019-03-08T14:10:40Z</time>
      </trkpt>
      <trkpt lat="44.29254" lon="5.60443">
        <ele>802</ele>
        <time>2019-03-08T14:10:41Z</time>
      </trkpt>
      <trkpt lat="44.29253" lon="5.60437">
        <ele>802</ele>
        <time>2019-03-08T14:10:42Z</time>
      </trkpt>
      <trkpt lat="44.29253" lon="5.60432">
        <ele>803</ele>
        <time>2019-03-08T14:10:43Z</time>
      </trkpt>
      <trkpt lat="44.29251" lon="5.60427">
        <ele>803</ele>
        <time>2019-03-08T14:10:44Z</time>
      </trkpt>
      <trkpt lat="44.2925" lon="5.60422">
        <ele>803</ele>
        <time>2019-03-08T14:10:45Z</time>
      </trkpt>
      <trkpt lat="44.29249" lon="5.60417">
        <ele>803</ele>
        <time>2019-03-08T14:10:46Z</time>
      </trkpt>
      <trkpt lat="44.29248" lon="5.60412">
        <ele>804</ele>
        <time>2019-03-08T14:10:47Z</time>
      </trkpt>
      <trkpt lat="44.29247" lon="5.60407">
        <ele>804</ele>
        <time>2019-03-08T14:10:48Z</time>
      </trkpt>
      <trkpt lat="44.29245" lon="5.60402">
        <ele>804</ele>
        <time>2019-03-08T14:10:49Z</time>
      </trkpt>
      <trkpt lat="44.29244" lon="5.60398">
        <ele>804</ele>
        <time>2019-03-08T14:10:50Z</time>
      </trkpt>
      <trkpt lat="44.29243" lon="5.60394">
        <ele>805</ele>
        <time>2019-03-08T14:10:51Z</time>
      </trkpt>
      <trkpt lat="44.29242" lon="5.60389">
        <ele>805</ele>
        <time>2019-03-08T14:10:52Z</time>
      </trkpt>
      <trkpt lat="44.29241" lon="5.60385">
        <ele>805</ele>
        <time>2019-03-08T14:10:53Z</time>
      </trkpt>
      <trkpt lat="44.2924" lon="5.6038">
        <ele>805</ele>
        <time>2019-03-08T14:10:54Z</time>
      </trkpt>
      <trkpt lat="44.29239" lon="5.60375">
        <ele>805</ele>
        <time>2019-03-08T14:10:55Z</time>
      </trkpt>
      <trkpt lat="44.29238" lon="5.6037">
        <ele>805</ele>
        <time>2019-03-08T14:10:56Z</time>
      </trkpt>
      <trkpt lat="44.29237" lon="5.60365">
        <ele>806</ele>
        <time>2019-03-08T14:10:57Z</time>
      </trkpt>
      <trkpt lat="44.29236" lon="5.60361">
        <ele>806</ele>
        <time>2019-03-08T14:10:58Z</time>
      </trkpt>
      <trkpt lat="44.29235" lon="5.60356">
        <ele>806</ele>
        <time>2019-03-08T14:10:59Z</time>
      </trkpt>
      <trkpt lat="44.29235" lon="5.60351">
        <ele>806</ele>
        <time>2019-03-08T14:11:00Z</time>
      </trkpt>
      <trkpt lat="44.29234" lon="5.60346">
        <ele>806</ele>
        <time>2019-03-08T14:11:01Z</time>
      </trkpt>
      <trkpt lat="44.29233" lon="5.60342">
        <ele>806</ele>
        <time>2019-03-08T14:11:02Z</time>
      </trkpt>
      <trkpt lat="44.29232" lon="5.60337">
        <ele>806</ele>
        <time>2019-03-08T14:11:03Z</time>
      </trkpt>
      <trkpt lat="44.29232" lon="5.60332">
        <ele>806</ele>
        <time>2019-03-08T14:11:04Z</time>
      </trkpt>
      <trkpt lat="44.29231" lon="5.60327">
        <ele>806</ele>
        <time>2019-03-08T14:11:05Z</time>
      </trkpt>
      <trkpt lat="44.2923" lon="5.60322">
        <ele>806</ele>
        <time>2019-03-08T14:11:06Z</time>
      </trkpt>
      <trkpt lat="44.29229" lon="5.60317">
        <ele>806</ele>
        <time>2019-03-08T14:11:07Z</time>
      </trkpt>
      <trkpt lat="44.29229" lon="5.60312">
        <ele>806</ele>
        <time>2019-03-08T14:11:08Z</time>
      </trkpt>
      <trkpt lat="44.29228" lon="5.60307">
        <ele>806</ele>
        <time>2019-03-08T14:11:09Z</time>
      </trkpt>
      <trkpt lat="44.29227" lon="5.60301">
        <ele>806</ele>
        <time>2019-03-08T14:11:10Z</time>
      </trkpt>
      <trkpt lat="44.29227" lon="5.60296">
        <ele>806</ele>
        <time>2019-03-08T14:11:11Z</time>
      </trkpt>
      <trkpt lat="44.29226" lon="5.60291">
        <ele>806</ele>
        <time>2019-03-08T14:11:12Z</time>
      </trkpt>
      <trkpt lat="44.29224" lon="5.60285">
        <ele>806</ele>
        <time>2019-03-08T14:11:13Z</time>
      </trkpt>
      <trkpt lat="44.29223" lon="5.6028">
        <ele>806</ele>
        <time>2019-03-08T14:11:14Z</time>
      </trkpt>
      <trkpt lat="44.29222" lon="5.60274">
        <ele>806</ele>
        <time>2019-03-08T14:11:15Z</time>
      </trkpt>
      <trkpt lat="44.29221" lon="5.60269">
        <ele>806</ele>
        <time>2019-03-08T14:11:16Z</time>
      </trkpt>
      <trkpt lat="44.29219" lon="5.60263">
        <ele>806</ele>
        <time>2019-03-08T14:11:17Z</time>
      </trkpt>
      <trkpt lat="44.29217" lon="5.60258">
        <ele>806</ele>
        <time>2019-03-08T14:11:18Z</time>
      </trkpt>
      <trkpt lat="44.29215" lon="5.60252">
        <ele>806</ele>
        <time>2019-03-08T14:11:19Z</time>
      </trkpt>
      <trkpt lat="44.29213" lon="5.60247">
        <ele>806</ele>
        <time>2019-03-08T14:11:20Z</time>
      </trkpt>
      <trkpt lat="44.29211" lon="5.60241">
        <ele>806</ele>
        <time>2019-03-08T14:11:21Z</time>
      </trkpt>
      <trkpt lat="44.29209" lon="5.60236">
        <ele>806</ele>
        <time>2019-03-08T14:11:22Z</time>
      </trkpt>
      <trkpt lat="44.29207" lon="5.60231">
        <ele>806</ele>
        <time>2019-03-08T14:11:23Z</time>
      </trkpt>
      <trkpt lat="44.29205" lon="5.60226">
        <ele>807</ele>
        <time>2019-03-08T14:11:24Z</time>
      </trkpt>
      <trkpt lat="44.29203" lon="5.6022">
        <ele>807</ele>
        <time>2019-03-08T14:11:25Z</time>
      </trkpt>
      <trkpt lat="44.292" lon="5.60215">
        <ele>807</ele>
        <time>2019-03-08T14:11:26Z</time>
      </trkpt>
      <trkpt lat="44.29198" lon="5.6021">
        <ele>807</ele>
        <time>2019-03-08T14:11:27Z</time>
      </trkpt>
      <trkpt lat="44.29196" lon="5.60205">
        <ele>807</ele>
        <time>2019-03-08T14:11:28Z</time>
      </trkpt>
      <trkpt lat="44.29194" lon="5.602">
        <ele>807</ele>
        <time>2019-03-08T14:11:29Z</time>
      </trkpt>
      <trkpt lat="44.29192" lon="5.60195">
        <ele>807</ele>
        <time>2019-03-08T14:11:30Z</time>
      </trkpt>
      <trkpt lat="44.29189" lon="5.6019">
        <ele>808</ele>
        <time>2019-03-08T14:11:31Z</time>
      </trkpt>
      <trkpt lat="44.29187" lon="5.60185">
        <ele>808</ele>
        <time>2019-03-08T14:11:32Z</time>
      </trkpt>
      <trkpt lat="44.29184" lon="5.6018">
        <ele>808</ele>
        <time>2019-03-08T14:11:33Z</time>
      </trkpt>
      <trkpt lat="44.29182" lon="5.60175">
        <ele>808</ele>
        <time>2019-03-08T14:11:34Z</time>
      </trkpt>
      <trkpt lat="44.29179" lon="5.6017">
        <ele>808</ele>
        <time>2019-03-08T14:11:35Z</time>
      </trkpt>
      <trkpt lat="44.29177" lon="5.60165">
        <ele>808</ele>
        <time>2019-03-08T14:11:36Z</time>
      </trkpt>
      <trkpt lat="44.29174" lon="5.6016">
        <ele>808</ele>
        <time>2019-03-08T14:11:37Z</time>
      </trkpt>
      <trkpt lat="44.29172" lon="5.60156">
        <ele>808</ele>
        <time>2019-03-08T14:11:38Z</time>
      </trkpt>
      <trkpt lat="44.29169" lon="5.60151">
        <ele>808</ele>
        <time>2019-03-08T14:11:39Z</time>
      </trkpt>
      <trkpt lat="44.29167" lon="5.60146">
        <ele>808</ele>
        <time>2019-03-08T14:11:40Z</time>
      </trkpt>
      <trkpt lat="44.29165" lon="5.60142">
        <ele>808</ele>
        <time>2019-03-08T14:11:41Z</time>
      </trkpt>
      <trkpt lat="44.29162" lon="5.60137">
        <ele>808</ele>
        <time>2019-03-08T14:11:42Z</time>
      </trkpt>
      <trkpt lat="44.2916" lon="5.60132">
        <ele>809</ele>
        <time>2019-03-08T14:11:43Z</time>
      </trkpt>
      <trkpt lat="44.29157" lon="5.60126">
        <ele>809</ele>
        <time>2019-03-08T14:11:44Z</time>
      </trkpt>
      <trkpt lat="44.29155" lon="5.60121">
        <ele>809</ele>
        <time>2019-03-08T14:11:45Z</time>
      </trkpt>
      <trkpt lat="44.29152" lon="5.60117">
        <ele>809</ele>
        <time>2019-03-08T14:11:46Z</time>
      </trkpt>
      <trkpt lat="44.2915" lon="5.60112">
        <ele>809</ele>
        <time>2019-03-08T14:11:47Z</time>
      </trkpt>
      <trkpt lat="44.29148" lon="5.60107">
        <ele>809</ele>
        <time>2019-03-08T14:11:48Z</time>
      </trkpt>
      <trkpt lat="44.29146" lon="5.60102">
        <ele>809</ele>
        <time>2019-03-08T14:11:49Z</time>
      </trkpt>
      <trkpt lat="44.29144" lon="5.60097">
        <ele>809</ele>
        <time>2019-03-08T14:11:50Z</time>
      </trkpt>
      <trkpt lat="44.29142" lon="5.60092">
        <ele>809</ele>
        <time>2019-03-08T14:11:51Z</time>
      </trkpt>
      <trkpt lat="44.29139" lon="5.60087">
        <ele>809</ele>
        <time>2019-03-08T14:11:52Z</time>
      </trkpt>
      <trkpt lat="44.29137" lon="5.60082">
        <ele>809</ele>
        <time>2019-03-08T14:11:53Z</time>
      </trkpt>
      <trkpt lat="44.29136" lon="5.60076">
        <ele>809</ele>
        <time>2019-03-08T14:11:54Z</time>
      </trkpt>
      <trkpt lat="44.29134" lon="5.60071">
        <ele>810</ele>
        <time>2019-03-08T14:11:55Z</time>
      </trkpt>
      <trkpt lat="44.29133" lon="5.60066">
        <ele>810</ele>
        <time>2019-03-08T14:11:56Z</time>
      </trkpt>
      <trkpt lat="44.29132" lon="5.60061">
        <ele>810</ele>
        <time>2019-03-08T14:11:57Z</time>
      </trkpt>
      <trkpt lat="44.29131" lon="5.60056">
        <ele>810</ele>
        <time>2019-03-08T14:11:58Z</time>
      </trkpt>
      <trkpt lat="44.2913" lon="5.60051">
        <ele>810</ele>
        <time>2019-03-08T14:11:59Z</time>
      </trkpt>
      <trkpt lat="44.2913" lon="5.60047">
        <ele>810</ele>
        <time>2019-03-08T14:12:00Z</time>
      </trkpt>
      <trkpt lat="44.29129" lon="5.60042">
        <ele>810</ele>
        <time>2019-03-08T14:12:01Z</time>
      </trkpt>
      <trkpt lat="44.29128" lon="5.60038">
        <ele>810</ele>
        <time>2019-03-08T14:12:02Z</time>
      </trkpt>
      <trkpt lat="44.29127" lon="5.60033">
        <ele>811</ele>
        <time>2019-03-08T14:12:03Z</time>
      </trkpt>
      <trkpt lat="44.29128" lon="5.60027">
        <ele>811</ele>
        <time>2019-03-08T14:12:04Z</time>
      </trkpt>
      <trkpt lat="44.29128" lon="5.60022">
        <ele>811</ele>
        <time>2019-03-08T14:12:05Z</time>
      </trkpt>
      <trkpt lat="44.29127" lon="5.60016">
        <ele>812</ele>
        <time>2019-03-08T14:12:06Z</time>
      </trkpt>
      <trkpt lat="44.29126" lon="5.60011">
        <ele>812</ele>
        <time>2019-03-08T14:12:07Z</time>
      </trkpt>
      <trkpt lat="44.29126" lon="5.60006">
        <ele>812</ele>
        <time>2019-03-08T14:12:08Z</time>
      </trkpt>
      <trkpt lat="44.29126" lon="5.60001">
        <ele>812</ele>
        <time>2019-03-08T14:12:09Z</time>
      </trkpt>
      <trkpt lat="44.29126" lon="5.59996">
        <ele>812</ele>
        <time>2019-03-08T14:12:10Z</time>
      </trkpt>
      <trkpt lat="44.29126" lon="5.59991">
        <ele>812</ele>
        <time>2019-03-08T14:12:11Z</time>
      </trkpt>
      <trkpt lat="44.29126" lon="5.59985">
        <ele>813</ele>
        <time>2019-03-08T14:12:12Z</time>
      </trkpt>
      <trkpt lat="44.29126" lon="5.5998">
        <ele>813</ele>
        <time>2019-03-08T14:12:13Z</time>
      </trkpt>
      <trkpt lat="44.29126" lon="5.59975">
        <ele>813</ele>
        <time>2019-03-08T14:12:14Z</time>
      </trkpt>
      <trkpt lat="44.29126" lon="5.5997">
        <ele>813</ele>
        <time>2019-03-08T14:12:15Z</time>
      </trkpt>
      <trkpt lat="44.29126" lon="5.59965">
        <ele>813</ele>
        <time>2019-03-08T14:12:16Z</time>
      </trkpt>
      <trkpt lat="44.29126" lon="5.59961">
        <ele>814</ele>
        <time>2019-03-08T14:12:17Z</time>
      </trkpt>
      <trkpt lat="44.29126" lon="5.59956">
        <ele>814</ele>
        <time>2019-03-08T14:12:18Z</time>
      </trkpt>
      <trkpt lat="44.29126" lon="5.5995">
        <ele>814</ele>
        <time>2019-03-08T14:12:19Z</time>
      </trkpt>
      <trkpt lat="44.29126" lon="5.59945">
        <ele>815</ele>
        <time>2019-03-08T14:12:20Z</time>
      </trkpt>
      <trkpt lat="44.29126" lon="5.59941">
        <ele>815</ele>
        <time>2019-03-08T14:12:21Z</time>
      </trkpt>
      <trkpt lat="44.29126" lon="5.59936">
        <ele>815</ele>
        <time>2019-03-08T14:12:22Z</time>
      </trkpt>
      <trkpt lat="44.29127" lon="5.59932">
        <ele>816</ele>
        <time>2019-03-08T14:12:23Z</time>
      </trkpt>
      <trkpt lat="44.29127" lon="5.59927">
        <ele>816</ele>
        <time>2019-03-08T14:12:24Z</time>
      </trkpt>
      <trkpt lat="44.29127" lon="5.59923">
        <ele>816</ele>
        <time>2019-03-08T14:12:25Z</time>
      </trkpt>
      <trkpt lat="44.29128" lon="5.59918">
        <ele>816</ele>
        <time>2019-03-08T14:12:26Z</time>
      </trkpt>
      <trkpt lat="44.29128" lon="5.59914">
        <ele>816</ele>
        <time>2019-03-08T14:12:27Z</time>
      </trkpt>
      <trkpt lat="44.29129" lon="5.5991">
        <ele>816</ele>
        <time>2019-03-08T14:12:28Z</time>
      </trkpt>
      <trkpt lat="44.29129" lon="5.59906">
        <ele>816</ele>
        <time>2019-03-08T14:12:29Z</time>
      </trkpt>
      <trkpt lat="44.2913" lon="5.59902">
        <ele>816</ele>
        <time>2019-03-08T14:12:30Z</time>
      </trkpt>
      <trkpt lat="44.2913" lon="5.59898">
        <ele>816</ele>
        <time>2019-03-08T14:12:31Z</time>
      </trkpt>
      <trkpt lat="44.29131" lon="5.59894">
        <ele>816</ele>
        <time>2019-03-08T14:12:32Z</time>
      </trkpt>
      <trkpt lat="44.29131" lon="5.5989">
        <ele>816</ele>
        <time>2019-03-08T14:12:33Z</time>
      </trkpt>
      <trkpt lat="44.29132" lon="5.59885">
        <ele>816</ele>
        <time>2019-03-08T14:12:34Z</time>
      </trkpt>
      <trkpt lat="44.29133" lon="5.59881">
        <ele>816</ele>
        <time>2019-03-08T14:12:35Z</time>
      </trkpt>
      <trkpt lat="44.29134" lon="5.59876">
        <ele>816</ele>
        <time>2019-03-08T14:12:36Z</time>
      </trkpt>
      <trkpt lat="44.29134" lon="5.59871">
        <ele>816</ele>
        <time>2019-03-08T14:12:37Z</time>
      </trkpt>
      <trkpt lat="44.29136" lon="5.59867">
        <ele>816</ele>
        <time>2019-03-08T14:12:38Z</time>
      </trkpt>
      <trkpt lat="44.29136" lon="5.59862">
        <ele>816</ele>
        <time>2019-03-08T14:12:39Z</time>
      </trkpt>
      <trkpt lat="44.29137" lon="5.59858">
        <ele>816</ele>
        <time>2019-03-08T14:12:40Z</time>
      </trkpt>
      <trkpt lat="44.29138" lon="5.59854">
        <ele>816</ele>
        <time>2019-03-08T14:12:41Z</time>
      </trkpt>
      <trkpt lat="44.29139" lon="5.5985">
        <ele>816</ele>
        <time>2019-03-08T14:12:42Z</time>
      </trkpt>
      <trkpt lat="44.2914" lon="5.59846">
        <ele>817</ele>
        <time>2019-03-08T14:12:43Z</time>
      </trkpt>
      <trkpt lat="44.29141" lon="5.59842">
        <ele>817</ele>
        <time>2019-03-08T14:12:44Z</time>
      </trkpt>
      <trkpt lat="44.29142" lon="5.59839">
        <ele>817</ele>
        <time>2019-03-08T14:12:45Z</time>
      </trkpt>
      <trkpt lat="44.29143" lon="5.59835">
        <ele>818</ele>
        <time>2019-03-08T14:12:46Z</time>
      </trkpt>
      <trkpt lat="44.29144" lon="5.59832">
        <ele>818</ele>
        <time>2019-03-08T14:12:47Z</time>
      </trkpt>
      <trkpt lat="44.29145" lon="5.59829">
        <ele>818</ele>
        <time>2019-03-08T14:12:48Z</time>
      </trkpt>
      <trkpt lat="44.29146" lon="5.59825">
        <ele>818</ele>
        <time>2019-03-08T14:12:49Z</time>
      </trkpt>
      <trkpt lat="44.29147" lon="5.59822">
        <ele>818</ele>
        <time>2019-03-08T14:12:50Z</time>
      </trkpt>
      <trkpt lat="44.29148" lon="5.59818">
        <ele>819</ele>
        <time>2019-03-08T14:12:51Z</time>
      </trkpt>
      <trkpt lat="44.2915" lon="5.59815">
        <ele>819</ele>
        <time>2019-03-08T14:12:52Z</time>
      </trkpt>
      <trkpt lat="44.29151" lon="5.59812">
        <ele>819</ele>
        <time>2019-03-08T14:12:53Z</time>
      </trkpt>
      <trkpt lat="44.29153" lon="5.59809">
        <ele>819</ele>
        <time>2019-03-08T14:12:54Z</time>
      </trkpt>
      <trkpt lat="44.29155" lon="5.59806">
        <ele>819</ele>
        <time>2019-03-08T14:12:55Z</time>
      </trkpt>
      <trkpt lat="44.29156" lon="5.59803">
        <ele>820</ele>
        <time>2019-03-08T14:12:56Z</time>
      </trkpt>
      <trkpt lat="44.29158" lon="5.598">
        <ele>820</ele>
        <time>2019-03-08T14:12:57Z</time>
      </trkpt>
      <trkpt lat="44.29161" lon="5.59797">
        <ele>820</ele>
        <time>2019-03-08T14:12:58Z</time>
      </trkpt>
      <trkpt lat="44.29163" lon="5.59794">
        <ele>820</ele>
        <time>2019-03-08T14:12:59Z</time>
      </trkpt>
      <trkpt lat="44.29165" lon="5.59792">
        <ele>820</ele>
        <time>2019-03-08T14:13:00Z</time>
      </trkpt>
      <trkpt lat="44.29167" lon="5.59789">
        <ele>820</ele>
        <time>2019-03-08T14:13:01Z</time>
      </trkpt>
      <trkpt lat="44.29169" lon="5.59786">
        <ele>820</ele>
        <time>2019-03-08T14:13:02Z</time>
      </trkpt>
      <trkpt lat="44.2917" lon="5.59783">
        <ele>821</ele>
        <time>2019-03-08T14:13:03Z</time>
      </trkpt>
      <trkpt lat="44.29173" lon="5.5978">
        <ele>821</ele>
        <time>2019-03-08T14:13:04Z</time>
      </trkpt>
      <trkpt lat="44.29175" lon="5.59777">
        <ele>822</ele>
        <time>2019-03-08T14:13:05Z</time>
      </trkpt>
      <trkpt lat="44.29177" lon="5.59774">
        <ele>823</ele>
        <time>2019-03-08T14:13:06Z</time>
      </trkpt>
      <trkpt lat="44.29179" lon="5.59772">
        <ele>823</ele>
        <time>2019-03-08T14:13:07Z</time>
      </trkpt>
      <trkpt lat="44.29182" lon="5.5977">
        <ele>823</ele>
        <time>2019-03-08T14:13:08Z</time>
      </trkpt>
      <trkpt lat="44.29185" lon="5.59768">
        <ele>823</ele>
        <time>2019-03-08T14:13:09Z</time>
      </trkpt>
      <trkpt lat="44.29187" lon="5.59765">
        <ele>823</ele>
        <time>2019-03-08T14:13:10Z</time>
      </trkpt>
      <trkpt lat="44.2919" lon="5.59762">
        <ele>823</ele>
        <time>2019-03-08T14:13:11Z</time>
      </trkpt>
      <trkpt lat="44.29192" lon="5.5976">
        <ele>823</ele>
        <time>2019-03-08T14:13:12Z</time>
      </trkpt>
      <trkpt lat="44.29195" lon="5.59757">
        <ele>823</ele>
        <time>2019-03-08T14:13:13Z</time>
      </trkpt>
      <trkpt lat="44.29197" lon="5.59754">
        <ele>823</ele>
        <time>2019-03-08T14:13:14Z</time>
      </trkpt>
      <trkpt lat="44.292" lon="5.5975">
        <ele>823</ele>
        <time>2019-03-08T14:13:15Z</time>
      </trkpt>
      <trkpt lat="44.29202" lon="5.59747">
        <ele>823</ele>
        <time>2019-03-08T14:13:16Z</time>
      </trkpt>
      <trkpt lat="44.29205" lon="5.59744">
        <ele>823</ele>
        <time>2019-03-08T14:13:17Z</time>
      </trkpt>
      <trkpt lat="44.29208" lon="5.5974">
        <ele>823</ele>
        <time>2019-03-08T14:13:18Z</time>
      </trkpt>
      <trkpt lat="44.29211" lon="5.59736">
        <ele>824</ele>
        <time>2019-03-08T14:13:19Z</time>
      </trkpt>
      <trkpt lat="44.29213" lon="5.59732">
        <ele>824</ele>
        <time>2019-03-08T14:13:20Z</time>
      </trkpt>
      <trkpt lat="44.29216" lon="5.59729">
        <ele>824</ele>
        <time>2019-03-08T14:13:21Z</time>
      </trkpt>
      <trkpt lat="44.29219" lon="5.59725">
        <ele>824</ele>
        <time>2019-03-08T14:13:22Z</time>
      </trkpt>
      <trkpt lat="44.29221" lon="5.5972">
        <ele>824</ele>
        <time>2019-03-08T14:13:23Z</time>
      </trkpt>
      <trkpt lat="44.29224" lon="5.59716">
        <ele>824</ele>
        <time>2019-03-08T14:13:24Z</time>
      </trkpt>
      <trkpt lat="44.29228" lon="5.59712">
        <ele>824</ele>
        <time>2019-03-08T14:13:25Z</time>
      </trkpt>
      <trkpt lat="44.29231" lon="5.59707">
        <ele>824</ele>
        <time>2019-03-08T14:13:26Z</time>
      </trkpt>
      <trkpt lat="44.29235" lon="5.59703">
        <ele>824</ele>
        <time>2019-03-08T14:13:27Z</time>
      </trkpt>
      <trkpt lat="44.29238" lon="5.59698">
        <ele>824</ele>
        <time>2019-03-08T14:13:28Z</time>
      </trkpt>
      <trkpt lat="44.29242" lon="5.59693">
        <ele>824</ele>
        <time>2019-03-08T14:13:29Z</time>
      </trkpt>
      <trkpt lat="44.29245" lon="5.59689">
        <ele>824</ele>
        <time>2019-03-08T14:13:30Z</time>
      </trkpt>
      <trkpt lat="44.29248" lon="5.59683">
        <ele>824</ele>
        <time>2019-03-08T14:13:31Z</time>
      </trkpt>
      <trkpt lat="44.29252" lon="5.59678">
        <ele>824</ele>
        <time>2019-03-08T14:13:32Z</time>
      </trkpt>
      <trkpt lat="44.29256" lon="5.59672">
        <ele>824</ele>
        <time>2019-03-08T14:13:33Z</time>
      </trkpt>
      <trkpt lat="44.29259" lon="5.59667">
        <ele>824</ele>
        <time>2019-03-08T14:13:34Z</time>
      </trkpt>
      <trkpt lat="44.29262" lon="5.59661">
        <ele>824</ele>
        <time>2019-03-08T14:13:35Z</time>
      </trkpt>
      <trkpt lat="44.29264" lon="5.59655">
        <ele>824</ele>
        <time>2019-03-08T14:13:36Z</time>
      </trkpt>
      <trkpt lat="44.29267" lon="5.59649">
        <ele>824</ele>
        <time>2019-03-08T14:13:37Z</time>
      </trkpt>
      <trkpt lat="44.29269" lon="5.59642">
        <ele>824</ele>
        <time>2019-03-08T14:13:38Z</time>
      </trkpt>
      <trkpt lat="44.29271" lon="5.59636">
        <ele>824</ele>
        <time>2019-03-08T14:13:39Z</time>
      </trkpt>
      <trkpt lat="44.29274" lon="5.5963">
        <ele>824</ele>
        <time>2019-03-08T14:13:40Z</time>
      </trkpt>
      <trkpt lat="44.29276" lon="5.59624">
        <ele>824</ele>
        <time>2019-03-08T14:13:41Z</time>
      </trkpt>
      <trkpt lat="44.29279" lon="5.59619">
        <ele>824</ele>
        <time>2019-03-08T14:13:42Z</time>
      </trkpt>
      <trkpt lat="44.2928" lon="5.59614">
        <ele>824</ele>
        <time>2019-03-08T14:13:43Z</time>
      </trkpt>
      <trkpt lat="44.29283" lon="5.59611">
        <ele>824</ele>
        <time>2019-03-08T14:13:44Z</time>
      </trkpt>
      <trkpt lat="44.29285" lon="5.59608">
        <ele>824</ele>
        <time>2019-03-08T14:13:45Z</time>
      </trkpt>
      <trkpt lat="44.29288" lon="5.59606">
        <ele>824</ele>
        <time>2019-03-08T14:13:46Z</time>
      </trkpt>
      <trkpt lat="44.29291" lon="5.59604">
        <ele>824</ele>
        <time>2019-03-08T14:13:47Z</time>
      </trkpt>
      <trkpt lat="44.29293" lon="5.59601">
        <ele>824</ele>
        <time>2019-03-08T14:13:48Z</time>
      </trkpt>
      <trkpt lat="44.29294" lon="5.59599">
        <ele>824</ele>
        <time>2019-03-08T14:13:49Z</time>
      </trkpt>
      <trkpt lat="44.29295" lon="5.59597">
        <ele>824</ele>
        <time>2019-03-08T14:13:50Z</time>
      </trkpt>
      <trkpt lat="44.29294" lon="5.59596">
        <ele>824</ele>
        <time>2019-03-08T14:13:52Z</time>
      </trkpt>
      <trkpt lat="44.29293" lon="5.59595">
        <ele>825</ele>
        <time>2019-03-08T14:13:59Z</time>
      </trkpt>
      <trkpt lat="44.29292" lon="5.59594">
        <ele>827</ele>
        <time>2019-03-08T14:14:10Z</time>
      </trkpt>
      <trkpt lat="44.29291" lon="5.59593">
        <ele>827</ele>
        <time>2019-03-08T14:14:15Z</time>
      </trkpt>
      <trkpt lat="44.29291" lon="5.59595">
        <ele>827</ele>
        <time>2019-03-08T14:14:19Z</time>
      </trkpt>
      <trkpt lat="44.2929" lon="5.59597">
        <ele>827</ele>
        <time>2019-03-08T14:14:21Z</time>
      </trkpt>
      <trkpt lat="44.29291" lon="5.59599">
        <ele>827</ele>
        <time>2019-03-08T14:14:23Z</time>
      </trkpt>
      <trkpt lat="44.29291" lon="5.59601">
        <ele>827</ele>
        <time>2019-03-08T14:14:27Z</time>
      </trkpt>
      <trkpt lat="44.29293" lon="5.596">
        <ele>827</ele>
        <time>2019-03-08T14:14:28Z</time>
      </trkpt>
      <trkpt lat="44.29299" lon="5.59597">
        <ele>830</ele>
        <time>2019-03-08T14:14:31Z</time>
      </trkpt>
      <trkpt lat="44.293" lon="5.59595">
        <ele>831</ele>
        <time>2019-03-08T14:14:35Z</time>
      </trkpt>
      <trkpt lat="44.29299" lon="5.59595">
        <ele>831</ele>
        <time>2019-03-08T14:14:37Z</time>
      </trkpt>
      <trkpt lat="44.29298" lon="5.59595">
        <ele>831</ele>
        <time>2019-03-08T14:14:38Z</time>
      </trkpt>
      <trkpt lat="44.29299" lon="5.59594">
        <ele>831</ele>
        <time>2019-03-08T14:14:44Z</time>
      </trkpt>
      <trkpt lat="44.293" lon="5.59594">
        <ele>831</ele>
        <time>2019-03-08T14:14:46Z</time>
      </trkpt>
      <trkpt lat="44.29301" lon="5.59593">
        <ele>831</ele>
        <time>2019-03-08T14:14:47Z</time>
      </trkpt>
      <trkpt lat="44.29303" lon="5.59591">
        <ele>831</ele>
        <time>2019-03-08T14:14:49Z</time>
      </trkpt>
      <trkpt lat="44.29301" lon="5.59593">
        <ele>831</ele>
        <time>2019-03-08T14:14:52Z</time>
      </trkpt>
      <trkpt lat="44.29301" lon="5.59595">
        <ele>831</ele>
        <time>2019-03-08T14:14:55Z</time>
      </trkpt>
      <trkpt lat="44.29299" lon="5.59595">
        <ele>831</ele>
        <time>2019-03-08T14:15:02Z</time>
      </trkpt>
      <trkpt lat="44.29297" lon="5.59596">
        <ele>831</ele>
        <time>2019-03-08T14:15:05Z</time>
      </trkpt>
      <trkpt lat="44.29295" lon="5.59598">
        <ele>831</ele>
        <time>2019-03-08T14:15:07Z</time>
      </trkpt>
      <trkpt lat="44.29294" lon="5.59598">
        <ele>831</ele>
        <time>2019-03-08T14:15:10Z</time>
      </trkpt>
      <trkpt lat="44.29295" lon="5.59597">
        <ele>830</ele>
        <time>2019-03-08T14:15:22Z</time>
      </trkpt>
      <trkpt lat="44.29294" lon="5.596">
        <ele>829</ele>
        <time>2019-03-08T14:15:28Z</time>
      </trkpt>
      <trkpt lat="44.29292" lon="5.59602">
        <ele>828</ele>
        <time>2019-03-08T14:15:29Z</time>
      </trkpt>
      <trkpt lat="44.2929" lon="5.59604">
        <ele>828</ele>
        <time>2019-03-08T14:15:30Z</time>
      </trkpt>
      <trkpt lat="44.29287" lon="5.59607">
        <ele>828</ele>
        <time>2019-03-08T14:15:31Z</time>
      </trkpt>
      <trkpt lat="44.29285" lon="5.5961">
        <ele>828</ele>
        <time>2019-03-08T14:15:32Z</time>
      </trkpt>
      <trkpt lat="44.29283" lon="5.59613">
        <ele>827</ele>
        <time>2019-03-08T14:15:33Z</time>
      </trkpt>
      <trkpt lat="44.29281" lon="5.59617">
        <ele>827</ele>
        <time>2019-03-08T14:15:34Z</time>
      </trkpt>
      <trkpt lat="44.29279" lon="5.59621">
        <ele>827</ele>
        <time>2019-03-08T14:15:35Z</time>
      </trkpt>
      <trkpt lat="44.29277" lon="5.59626">
        <ele>827</ele>
        <time>2019-03-08T14:15:36Z</time>
      </trkpt>
      <trkpt lat="44.29275" lon="5.59631">
        <ele>827</ele>
        <time>2019-03-08T14:15:37Z</time>
      </trkpt>
      <trkpt lat="44.29274" lon="5.59635">
        <ele>827</ele>
        <time>2019-03-08T14:15:38Z</time>
      </trkpt>
      <trkpt lat="44.29271" lon="5.59641">
        <ele>827</ele>
        <time>2019-03-08T14:15:39Z</time>
      </trkpt>
      <trkpt lat="44.29269" lon="5.59646">
        <ele>827</ele>
        <time>2019-03-08T14:15:40Z</time>
      </trkpt>
      <trkpt lat="44.29266" lon="5.59652">
        <ele>827</ele>
        <time>2019-03-08T14:15:41Z</time>
      </trkpt>
      <trkpt lat="44.29264" lon="5.59657">
        <ele>827</ele>
        <time>2019-03-08T14:15:42Z</time>
      </trkpt>
      <trkpt lat="44.29261" lon="5.59662">
        <ele>827</ele>
        <time>2019-03-08T14:15:43Z</time>
      </trkpt>
      <trkpt lat="44.29258" lon="5.59668">
        <ele>827</ele>
        <time>2019-03-08T14:15:44Z</time>
      </trkpt>
      <trkpt lat="44.29255" lon="5.59672">
        <ele>827</ele>
        <time>2019-03-08T14:15:45Z</time>
      </trkpt>
      <trkpt lat="44.29251" lon="5.59677">
        <ele>827</ele>
        <time>2019-03-08T14:15:46Z</time>
      </trkpt>
      <trkpt lat="44.29248" lon="5.59682">
        <ele>827</ele>
        <time>2019-03-08T14:15:47Z</time>
      </trkpt>
      <trkpt lat="44.29245" lon="5.59686">
        <ele>827</ele>
        <time>2019-03-08T14:15:48Z</time>
      </trkpt>
      <trkpt lat="44.29242" lon="5.5969">
        <ele>827</ele>
        <time>2019-03-08T14:15:49Z</time>
      </trkpt>
      <trkpt lat="44.29239" lon="5.59693">
        <ele>827</ele>
        <time>2019-03-08T14:15:50Z</time>
      </trkpt>
      <trkpt lat="44.29237" lon="5.59696">
        <ele>827</ele>
        <time>2019-03-08T14:15:51Z</time>
      </trkpt>
      <trkpt lat="44.29235" lon="5.597">
        <ele>827</ele>
        <time>2019-03-08T14:15:52Z</time>
      </trkpt>
      <trkpt lat="44.29233" lon="5.59704">
        <ele>827</ele>
        <time>2019-03-08T14:15:53Z</time>
      </trkpt>
      <trkpt lat="44.2923" lon="5.59708">
        <ele>827</ele>
        <time>2019-03-08T14:15:54Z</time>
      </trkpt>
      <trkpt lat="44.29227" lon="5.59712">
        <ele>827</ele>
        <time>2019-03-08T14:15:55Z</time>
      </trkpt>
      <trkpt lat="44.29224" lon="5.59715">
        <ele>827</ele>
        <time>2019-03-08T14:15:56Z</time>
      </trkpt>
      <trkpt lat="44.29221" lon="5.59719">
        <ele>827</ele>
        <time>2019-03-08T14:15:57Z</time>
      </trkpt>
      <trkpt lat="44.29219" lon="5.59722">
        <ele>827</ele>
        <time>2019-03-08T14:15:58Z</time>
      </trkpt>
      <trkpt lat="44.29216" lon="5.59726">
        <ele>827</ele>
        <time>2019-03-08T14:15:59Z</time>
      </trkpt>
      <trkpt lat="44.29214" lon="5.59729">
        <ele>827</ele>
        <time>2019-03-08T14:16:00Z</time>
      </trkpt>
      <trkpt lat="44.29211" lon="5.59733">
        <ele>827</ele>
        <time>2019-03-08T14:16:01Z</time>
      </trkpt>
      <trkpt lat="44.29209" lon="5.59736">
        <ele>827</ele>
        <time>2019-03-08T14:16:02Z</time>
      </trkpt>
      <trkpt lat="44.29207" lon="5.59738">
        <ele>827</ele>
        <time>2019-03-08T14:16:03Z</time>
      </trkpt>
      <trkpt lat="44.29204" lon="5.59741">
        <ele>827</ele>
        <time>2019-03-08T14:16:04Z</time>
      </trkpt>
      <trkpt lat="44.29202" lon="5.59745">
        <ele>827</ele>
        <time>2019-03-08T14:16:05Z</time>
      </trkpt>
      <trkpt lat="44.29199" lon="5.59748">
        <ele>827</ele>
        <time>2019-03-08T14:16:06Z</time>
      </trkpt>
      <trkpt lat="44.29197" lon="5.5975">
        <ele>827</ele>
        <time>2019-03-08T14:16:07Z</time>
      </trkpt>
      <trkpt lat="44.29194" lon="5.59753">
        <ele>827</ele>
        <time>2019-03-08T14:16:08Z</time>
      </trkpt>
      <trkpt lat="44.29191" lon="5.59757">
        <ele>827</ele>
        <time>2019-03-08T14:16:09Z</time>
      </trkpt>
      <trkpt lat="44.29189" lon="5.59759">
        <ele>827</ele>
        <time>2019-03-08T14:16:10Z</time>
      </trkpt>
      <trkpt lat="44.29185" lon="5.59762">
        <ele>827</ele>
        <time>2019-03-08T14:16:11Z</time>
      </trkpt>
      <trkpt lat="44.29182" lon="5.59766">
        <ele>827</ele>
        <time>2019-03-08T14:16:12Z</time>
      </trkpt>
      <trkpt lat="44.29179" lon="5.59769">
        <ele>827</ele>
        <time>2019-03-08T14:16:13Z</time>
      </trkpt>
      <trkpt lat="44.29176" lon="5.59773">
        <ele>827</ele>
        <time>2019-03-08T14:16:14Z</time>
      </trkpt>
      <trkpt lat="44.29172" lon="5.59777">
        <ele>827</ele>
        <time>2019-03-08T14:16:15Z</time>
      </trkpt>
      <trkpt lat="44.29169" lon="5.59781">
        <ele>827</ele>
        <time>2019-03-08T14:16:16Z</time>
      </trkpt>
      <trkpt lat="44.29166" lon="5.59785">
        <ele>827</ele>
        <time>2019-03-08T14:16:17Z</time>
      </trkpt>
      <trkpt lat="44.29162" lon="5.59789">
        <ele>827</ele>
        <time>2019-03-08T14:16:18Z</time>
      </trkpt>
      <trkpt lat="44.29159" lon="5.59795">
        <ele>827</ele>
        <time>2019-03-08T14:16:19Z</time>
      </trkpt>
      <trkpt lat="44.29156" lon="5.59801">
        <ele>827</ele>
        <time>2019-03-08T14:16:20Z</time>
      </trkpt>
      <trkpt lat="44.29153" lon="5.59807">
        <ele>827</ele>
        <time>2019-03-08T14:16:21Z</time>
      </trkpt>
      <trkpt lat="44.29149" lon="5.59814">
        <ele>827</ele>
        <time>2019-03-08T14:16:22Z</time>
      </trkpt>
      <trkpt lat="44.29146" lon="5.59822">
        <ele>827</ele>
        <time>2019-03-08T14:16:23Z</time>
      </trkpt>
      <trkpt lat="44.29143" lon="5.5983">
        <ele>827</ele>
        <time>2019-03-08T14:16:24Z</time>
      </trkpt>
      <trkpt lat="44.2914" lon="5.59838">
        <ele>827</ele>
        <time>2019-03-08T14:16:25Z</time>
      </trkpt>
      <trkpt lat="44.29137" lon="5.59848">
        <ele>827</ele>
        <time>2019-03-08T14:16:26Z</time>
      </trkpt>
      <trkpt lat="44.29135" lon="5.59858">
        <ele>827</ele>
        <time>2019-03-08T14:16:27Z</time>
      </trkpt>
      <trkpt lat="44.29133" lon="5.59869">
        <ele>827</ele>
        <time>2019-03-08T14:16:28Z</time>
      </trkpt>
      <trkpt lat="44.29131" lon="5.59879">
        <ele>827</ele>
        <time>2019-03-08T14:16:29Z</time>
      </trkpt>
      <trkpt lat="44.29129" lon="5.59891">
        <ele>827</ele>
        <time>2019-03-08T14:16:30Z</time>
      </trkpt>
      <trkpt lat="44.29128" lon="5.59903">
        <ele>826</ele>
        <time>2019-03-08T14:16:31Z</time>
      </trkpt>
      <trkpt lat="44.29126" lon="5.59915">
        <ele>826</ele>
        <time>2019-03-08T14:16:32Z</time>
      </trkpt>
      <trkpt lat="44.29125" lon="5.59928">
        <ele>825</ele>
        <time>2019-03-08T14:16:33Z</time>
      </trkpt>
      <trkpt lat="44.29125" lon="5.59941">
        <ele>825</ele>
        <time>2019-03-08T14:16:34Z</time>
      </trkpt>
      <trkpt lat="44.29124" lon="5.59953">
        <ele>824</ele>
        <time>2019-03-08T14:16:35Z</time>
      </trkpt>
      <trkpt lat="44.29124" lon="5.59966">
        <ele>824</ele>
        <time>2019-03-08T14:16:36Z</time>
      </trkpt>
      <trkpt lat="44.29123" lon="5.59979">
        <ele>823</ele>
        <time>2019-03-08T14:16:37Z</time>
      </trkpt>
      <trkpt lat="44.29122" lon="5.59992">
        <ele>822</ele>
        <time>2019-03-08T14:16:38Z</time>
      </trkpt>
      <trkpt lat="44.29123" lon="5.60005">
        <ele>821</ele>
        <time>2019-03-08T14:16:39Z</time>
      </trkpt>
      <trkpt lat="44.29124" lon="5.60017">
        <ele>820</ele>
        <time>2019-03-08T14:16:40Z</time>
      </trkpt>
      <trkpt lat="44.29126" lon="5.60029">
        <ele>820</ele>
        <time>2019-03-08T14:16:41Z</time>
      </trkpt>
      <trkpt lat="44.29128" lon="5.60042">
        <ele>819</ele>
        <time>2019-03-08T14:16:42Z</time>
      </trkpt>
      <trkpt lat="44.29129" lon="5.60054">
        <ele>818</ele>
        <time>2019-03-08T14:16:43Z</time>
      </trkpt>
      <trkpt lat="44.29131" lon="5.60067">
        <ele>818</ele>
        <time>2019-03-08T14:16:44Z</time>
      </trkpt>
      <trkpt lat="44.29135" lon="5.6008">
        <ele>818</ele>
        <time>2019-03-08T14:16:45Z</time>
      </trkpt>
      <trkpt lat="44.2914" lon="5.60091">
        <ele>817</ele>
        <time>2019-03-08T14:16:46Z</time>
      </trkpt>
      <trkpt lat="44.29145" lon="5.60103">
        <ele>817</ele>
        <time>2019-03-08T14:16:47Z</time>
      </trkpt>
      <trkpt lat="44.2915" lon="5.60115">
        <ele>817</ele>
        <time>2019-03-08T14:16:48Z</time>
      </trkpt>
      <trkpt lat="44.29156" lon="5.60126">
        <ele>816</ele>
        <time>2019-03-08T14:16:49Z</time>
      </trkpt>
      <trkpt lat="44.29161" lon="5.60137">
        <ele>816</ele>
        <time>2019-03-08T14:16:50Z</time>
      </trkpt>
      <trkpt lat="44.29167" lon="5.60147">
        <ele>815</ele>
        <time>2019-03-08T14:16:51Z</time>
      </trkpt>
      <trkpt lat="44.29174" lon="5.60158">
        <ele>815</ele>
        <time>2019-03-08T14:16:52Z</time>
      </trkpt>
      <trkpt lat="44.29179" lon="5.60168">
        <ele>815</ele>
        <time>2019-03-08T14:16:53Z</time>
      </trkpt>
      <trkpt lat="44.29185" lon="5.60179">
        <ele>815</ele>
        <time>2019-03-08T14:16:54Z</time>
      </trkpt>
      <trkpt lat="44.29191" lon="5.60189">
        <ele>815</ele>
        <time>2019-03-08T14:16:55Z</time>
      </trkpt>
      <trkpt lat="44.29196" lon="5.602">
        <ele>815</ele>
        <time>2019-03-08T14:16:56Z</time>
      </trkpt>
      <trkpt lat="44.29201" lon="5.60211">
        <ele>815</ele>
        <time>2019-03-08T14:16:57Z</time>
      </trkpt>
      <trkpt lat="44.29206" lon="5.60221">
        <ele>815</ele>
        <time>2019-03-08T14:16:58Z</time>
      </trkpt>
      <trkpt lat="44.29211" lon="5.60231">
        <ele>815</ele>
        <time>2019-03-08T14:16:59Z</time>
      </trkpt>
      <trkpt lat="44.29215" lon="5.60241">
        <ele>815</ele>
        <time>2019-03-08T14:17:00Z</time>
      </trkpt>
      <trkpt lat="44.29219" lon="5.60251">
        <ele>815</ele>
        <time>2019-03-08T14:17:01Z</time>
      </trkpt>
      <trkpt lat="44.29222" lon="5.60263">
        <ele>815</ele>
        <time>2019-03-08T14:17:02Z</time>
      </trkpt>
      <trkpt lat="44.29225" lon="5.60274">
        <ele>815</ele>
        <time>2019-03-08T14:17:03Z</time>
      </trkpt>
      <trkpt lat="44.29227" lon="5.60285">
        <ele>815</ele>
        <time>2019-03-08T14:17:04Z</time>
      </trkpt>
      <trkpt lat="44.29229" lon="5.60296">
        <ele>815</ele>
        <time>2019-03-08T14:17:05Z</time>
      </trkpt>
      <trkpt lat="44.2923" lon="5.60308">
        <ele>815</ele>
        <time>2019-03-08T14:17:06Z</time>
      </trkpt>
      <trkpt lat="44.29232" lon="5.6032">
        <ele>815</ele>
        <time>2019-03-08T14:17:07Z</time>
      </trkpt>
      <trkpt lat="44.29233" lon="5.6033">
        <ele>814</ele>
        <time>2019-03-08T14:17:08Z</time>
      </trkpt>
      <trkpt lat="44.29234" lon="5.60341">
        <ele>814</ele>
        <time>2019-03-08T14:17:09Z</time>
      </trkpt>
      <trkpt lat="44.29235" lon="5.60352">
        <ele>813</ele>
        <time>2019-03-08T14:17:10Z</time>
      </trkpt>
      <trkpt lat="44.29237" lon="5.60363">
        <ele>813</ele>
        <time>2019-03-08T14:17:11Z</time>
      </trkpt>
      <trkpt lat="44.29239" lon="5.60374">
        <ele>812</ele>
        <time>2019-03-08T14:17:12Z</time>
      </trkpt>
      <trkpt lat="44.29241" lon="5.60386">
        <ele>811</ele>
        <time>2019-03-08T14:17:13Z</time>
      </trkpt>
      <trkpt lat="44.29243" lon="5.60397">
        <ele>811</ele>
        <time>2019-03-08T14:17:14Z</time>
      </trkpt>
      <trkpt lat="44.29246" lon="5.60409">
        <ele>811</ele>
        <time>2019-03-08T14:17:15Z</time>
      </trkpt>
      <trkpt lat="44.29249" lon="5.6042">
        <ele>810</ele>
        <time>2019-03-08T14:17:16Z</time>
      </trkpt>
      <trkpt lat="44.29252" lon="5.60432">
        <ele>810</ele>
        <time>2019-03-08T14:17:17Z</time>
      </trkpt>
      <trkpt lat="44.29254" lon="5.60446">
        <ele>810</ele>
        <time>2019-03-08T14:17:18Z</time>
      </trkpt>
      <trkpt lat="44.29255" lon="5.60459">
        <ele>810</ele>
        <time>2019-03-08T14:17:19Z</time>
      </trkpt>
      <trkpt lat="44.29255" lon="5.60472">
        <ele>810</ele>
        <time>2019-03-08T14:17:20Z</time>
      </trkpt>
      <trkpt lat="44.29253" lon="5.60484">
        <ele>810</ele>
        <time>2019-03-08T14:17:21Z</time>
      </trkpt>
      <trkpt lat="44.29251" lon="5.60496">
        <ele>810</ele>
        <time>2019-03-08T14:17:22Z</time>
      </trkpt>
      <trkpt lat="44.29249" lon="5.60507">
        <ele>810</ele>
        <time>2019-03-08T14:17:23Z</time>
      </trkpt>
      <trkpt lat="44.29247" lon="5.60518">
        <ele>809</ele>
        <time>2019-03-08T14:17:24Z</time>
      </trkpt>
      <trkpt lat="44.29244" lon="5.60528">
        <ele>809</ele>
        <time>2019-03-08T14:17:25Z</time>
      </trkpt>
      <trkpt lat="44.29242" lon="5.60539">
        <ele>809</ele>
        <time>2019-03-08T14:17:26Z</time>
      </trkpt>
      <trkpt lat="44.2924" lon="5.6055">
        <ele>809</ele>
        <time>2019-03-08T14:17:27Z</time>
      </trkpt>
      <trkpt lat="44.29238" lon="5.60561">
        <ele>809</ele>
        <time>2019-03-08T14:17:28Z</time>
      </trkpt>
      <trkpt lat="44.29236" lon="5.60572">
        <ele>809</ele>
        <time>2019-03-08T14:17:29Z</time>
      </trkpt>
      <trkpt lat="44.29234" lon="5.60583">
        <ele>808</ele>
        <time>2019-03-08T14:17:30Z</time>
      </trkpt>
      <trkpt lat="44.29231" lon="5.60594">
        <ele>808</ele>
        <time>2019-03-08T14:17:31Z</time>
      </trkpt>
      <trkpt lat="44.29229" lon="5.60605">
        <ele>808</ele>
        <time>2019-03-08T14:17:32Z</time>
      </trkpt>
      <trkpt lat="44.29227" lon="5.60616">
        <ele>807</ele>
        <time>2019-03-08T14:17:33Z</time>
      </trkpt>
      <trkpt lat="44.29224" lon="5.60629">
        <ele>806</ele>
        <time>2019-03-08T14:17:34Z</time>
      </trkpt>
      <trkpt lat="44.29223" lon="5.6064">
        <ele>806</ele>
        <time>2019-03-08T14:17:35Z</time>
      </trkpt>
      <trkpt lat="44.29221" lon="5.60651">
        <ele>805</ele>
        <time>2019-03-08T14:17:36Z</time>
      </trkpt>
      <trkpt lat="44.29219" lon="5.60659">
        <ele>805</ele>
        <time>2019-03-08T14:17:37Z</time>
      </trkpt>
      <trkpt lat="44.29218" lon="5.60663">
        <ele>805</ele>
        <time>2019-03-08T14:17:38Z</time>
      </trkpt>
      <trkpt lat="44.29217" lon="5.60666">
        <ele>804</ele>
        <time>2019-03-08T14:17:39Z</time>
      </trkpt>
      <trkpt lat="44.29216" lon="5.60668">
        <ele>804</ele>
        <time>2019-03-08T14:17:40Z</time>
      </trkpt>
      <trkpt lat="44.29215" lon="5.6067">
        <ele>803</ele>
        <time>2019-03-08T14:17:44Z</time>
      </trkpt>
      <trkpt lat="44.29214" lon="5.60672">
        <ele>803</ele>
        <time>2019-03-08T14:17:47Z</time>
      </trkpt>
      <trkpt lat="44.29216" lon="5.60674">
        <ele>803</ele>
        <time>2019-03-08T14:17:56Z</time>
      </trkpt>
      <trkpt lat="44.29216" lon="5.60678">
        <ele>803</ele>
        <time>2019-03-08T14:17:58Z</time>
      </trkpt>
      <trkpt lat="44.29216" lon="5.6068">
        <ele>803</ele>
        <time>2019-03-08T14:17:59Z</time>
      </trkpt>
      <trkpt lat="44.29216" lon="5.60684">
        <ele>803</ele>
        <time>2019-03-08T14:18:00Z</time>
      </trkpt>
      <trkpt lat="44.29216" lon="5.60689">
        <ele>803</ele>
        <time>2019-03-08T14:18:01Z</time>
      </trkpt>
      <trkpt lat="44.29216" lon="5.60695">
        <ele>803</ele>
        <time>2019-03-08T14:18:02Z</time>
      </trkpt>
      <trkpt lat="44.29217" lon="5.60701">
        <ele>803</ele>
        <time>2019-03-08T14:18:03Z</time>
      </trkpt>
      <trkpt lat="44.29217" lon="5.60709">
        <ele>803</ele>
        <time>2019-03-08T14:18:04Z</time>
      </trkpt>
      <trkpt lat="44.29218" lon="5.60716">
        <ele>803</ele>
        <time>2019-03-08T14:18:05Z</time>
      </trkpt>
      <trkpt lat="44.29218" lon="5.60724">
        <ele>803</ele>
        <time>2019-03-08T14:18:06Z</time>
      </trkpt>
      <trkpt lat="44.29218" lon="5.60734">
        <ele>803</ele>
        <time>2019-03-08T14:18:07Z</time>
      </trkpt>
      <trkpt lat="44.29219" lon="5.60743">
        <ele>803</ele>
        <time>2019-03-08T14:18:08Z</time>
      </trkpt>
      <trkpt lat="44.2922" lon="5.60753">
        <ele>803</ele>
        <time>2019-03-08T14:18:09Z</time>
      </trkpt>
      <trkpt lat="44.2922" lon="5.60763">
        <ele>803</ele>
        <time>2019-03-08T14:18:10Z</time>
      </trkpt>
      <trkpt lat="44.29221" lon="5.60774">
        <ele>803</ele>
        <time>2019-03-08T14:18:11Z</time>
      </trkpt>
      <trkpt lat="44.29222" lon="5.60784">
        <ele>803</ele>
        <time>2019-03-08T14:18:12Z</time>
      </trkpt>
      <trkpt lat="44.29224" lon="5.60794">
        <ele>803</ele>
        <time>2019-03-08T14:18:13Z</time>
      </trkpt>
      <trkpt lat="44.29225" lon="5.60805">
        <ele>803</ele>
        <time>2019-03-08T14:18:14Z</time>
      </trkpt>
      <trkpt lat="44.29226" lon="5.60815">
        <ele>803</ele>
        <time>2019-03-08T14:18:15Z</time>
      </trkpt>
      <trkpt lat="44.29227" lon="5.60826">
        <ele>803</ele>
        <time>2019-03-08T14:18:16Z</time>
      </trkpt>
      <trkpt lat="44.29229" lon="5.60837">
        <ele>803</ele>
        <time>2019-03-08T14:18:17Z</time>
      </trkpt>
      <trkpt lat="44.2923" lon="5.60848">
        <ele>803</ele>
        <time>2019-03-08T14:18:18Z</time>
      </trkpt>
      <trkpt lat="44.29232" lon="5.6086">
        <ele>803</ele>
        <time>2019-03-08T14:18:19Z</time>
      </trkpt>
      <trkpt lat="44.29234" lon="5.60871">
        <ele>802</ele>
        <time>2019-03-08T14:18:20Z</time>
      </trkpt>
      <trkpt lat="44.29236" lon="5.60882">
        <ele>802</ele>
        <time>2019-03-08T14:18:21Z</time>
      </trkpt>
      <trkpt lat="44.29238" lon="5.60894">
        <ele>802</ele>
        <time>2019-03-08T14:18:22Z</time>
      </trkpt>
      <trkpt lat="44.2924" lon="5.60906">
        <ele>802</ele>
        <time>2019-03-08T14:18:23Z</time>
      </trkpt>
      <trkpt lat="44.29241" lon="5.60917">
        <ele>802</ele>
        <time>2019-03-08T14:18:24Z</time>
      </trkpt>
      <trkpt lat="44.29242" lon="5.6093">
        <ele>802</ele>
        <time>2019-03-08T14:18:25Z</time>
      </trkpt>
      <trkpt lat="44.29243" lon="5.60942">
        <ele>801</ele>
        <time>2019-03-08T14:18:26Z</time>
      </trkpt>
      <trkpt lat="44.29244" lon="5.60954">
        <ele>801</ele>
        <time>2019-03-08T14:18:27Z</time>
      </trkpt>
      <trkpt lat="44.29245" lon="5.60966">
        <ele>800</ele>
        <time>2019-03-08T14:18:28Z</time>
      </trkpt>
      <trkpt lat="44.29246" lon="5.60978">
        <ele>799</ele>
        <time>2019-03-08T14:18:29Z</time>
      </trkpt>
      <trkpt lat="44.29248" lon="5.6099">
        <ele>799</ele>
        <time>2019-03-08T14:18:30Z</time>
      </trkpt>
      <trkpt lat="44.29249" lon="5.61001">
        <ele>799</ele>
        <time>2019-03-08T14:18:31Z</time>
      </trkpt>
      <trkpt lat="44.29251" lon="5.61013">
        <ele>798</ele>
        <time>2019-03-08T14:18:32Z</time>
      </trkpt>
      <trkpt lat="44.29253" lon="5.61025">
        <ele>798</ele>
        <time>2019-03-08T14:18:33Z</time>
      </trkpt>
      <trkpt lat="44.29255" lon="5.61036">
        <ele>798</ele>
        <time>2019-03-08T14:18:34Z</time>
      </trkpt>
      <trkpt lat="44.29257" lon="5.61048">
        <ele>798</ele>
        <time>2019-03-08T14:18:35Z</time>
      </trkpt>
      <trkpt lat="44.29258" lon="5.61059">
        <ele>798</ele>
        <time>2019-03-08T14:18:36Z</time>
      </trkpt>
      <trkpt lat="44.2926" lon="5.61071">
        <ele>798</ele>
        <time>2019-03-08T14:18:37Z</time>
      </trkpt>
      <trkpt lat="44.29261" lon="5.61082">
        <ele>798</ele>
        <time>2019-03-08T14:18:38Z</time>
      </trkpt>
      <trkpt lat="44.29263" lon="5.61094">
        <ele>797</ele>
        <time>2019-03-08T14:18:39Z</time>
      </trkpt>
      <trkpt lat="44.29264" lon="5.61105">
        <ele>797</ele>
        <time>2019-03-08T14:18:40Z</time>
      </trkpt>
      <trkpt lat="44.29266" lon="5.61115">
        <ele>797</ele>
        <time>2019-03-08T14:18:41Z</time>
      </trkpt>
      <trkpt lat="44.29267" lon="5.61126">
        <ele>797</ele>
        <time>2019-03-08T14:18:42Z</time>
      </trkpt>
      <trkpt lat="44.29269" lon="5.61136">
        <ele>797</ele>
        <time>2019-03-08T14:18:43Z</time>
      </trkpt>
      <trkpt lat="44.29271" lon="5.61146">
        <ele>797</ele>
        <time>2019-03-08T14:18:44Z</time>
      </trkpt>
      <trkpt lat="44.29272" lon="5.61156">
        <ele>797</ele>
        <time>2019-03-08T14:18:45Z</time>
      </trkpt>
      <trkpt lat="44.29274" lon="5.61166">
        <ele>797</ele>
        <time>2019-03-08T14:18:46Z</time>
      </trkpt>
      <trkpt lat="44.29274" lon="5.61177">
        <ele>797</ele>
        <time>2019-03-08T14:18:47Z</time>
      </trkpt>
      <trkpt lat="44.29274" lon="5.61188">
        <ele>797</ele>
        <time>2019-03-08T14:18:48Z</time>
      </trkpt>
      <trkpt lat="44.29274" lon="5.61199">
        <ele>797</ele>
        <time>2019-03-08T14:18:49Z</time>
      </trkpt>
      <trkpt lat="44.29274" lon="5.6121">
        <ele>797</ele>
        <time>2019-03-08T14:18:50Z</time>
      </trkpt>
      <trkpt lat="44.29274" lon="5.61221">
        <ele>797</ele>
        <time>2019-03-08T14:18:51Z</time>
      </trkpt>
      <trkpt lat="44.29274" lon="5.61231">
        <ele>797</ele>
        <time>2019-03-08T14:18:52Z</time>
      </trkpt>
      <trkpt lat="44.29274" lon="5.61242">
        <ele>797</ele>
        <time>2019-03-08T14:18:53Z</time>
      </trkpt>
      <trkpt lat="44.29274" lon="5.61252">
        <ele>797</ele>
        <time>2019-03-08T14:18:54Z</time>
      </trkpt>
      <trkpt lat="44.29274" lon="5.61262">
        <ele>797</ele>
        <time>2019-03-08T14:18:55Z</time>
      </trkpt>
      <trkpt lat="44.29274" lon="5.61272">
        <ele>797</ele>
        <time>2019-03-08T14:18:56Z</time>
      </trkpt>
      <trkpt lat="44.29273" lon="5.61283">
        <ele>797</ele>
        <time>2019-03-08T14:18:57Z</time>
      </trkpt>
      <trkpt lat="44.29274" lon="5.61293">
        <ele>797</ele>
        <time>2019-03-08T14:18:58Z</time>
      </trkpt>
      <trkpt lat="44.29273" lon="5.61303">
        <ele>797</ele>
        <time>2019-03-08T14:18:59Z</time>
      </trkpt>
      <trkpt lat="44.29273" lon="5.61313">
        <ele>797</ele>
        <time>2019-03-08T14:19:00Z</time>
      </trkpt>
      <trkpt lat="44.29273" lon="5.61323">
        <ele>796</ele>
        <time>2019-03-08T14:19:01Z</time>
      </trkpt>
      <trkpt lat="44.29272" lon="5.61334">
        <ele>796</ele>
        <time>2019-03-08T14:19:02Z</time>
      </trkpt>
      <trkpt lat="44.29272" lon="5.61344">
        <ele>796</ele>
        <time>2019-03-08T14:19:03Z</time>
      </trkpt>
      <trkpt lat="44.29272" lon="5.61355">
        <ele>796</ele>
        <time>2019-03-08T14:19:04Z</time>
      </trkpt>
      <trkpt lat="44.29272" lon="5.61365">
        <ele>795</ele>
        <time>2019-03-08T14:19:05Z</time>
      </trkpt>
      <trkpt lat="44.29273" lon="5.61376">
        <ele>795</ele>
        <time>2019-03-08T14:19:06Z</time>
      </trkpt>
      <trkpt lat="44.29274" lon="5.61387">
        <ele>795</ele>
        <time>2019-03-08T14:19:07Z</time>
      </trkpt>
      <trkpt lat="44.29275" lon="5.61398">
        <ele>795</ele>
        <time>2019-03-08T14:19:08Z</time>
      </trkpt>
      <trkpt lat="44.29276" lon="5.61409">
        <ele>795</ele>
        <time>2019-03-08T14:19:09Z</time>
      </trkpt>
      <trkpt lat="44.29277" lon="5.61419">
        <ele>795</ele>
        <time>2019-03-08T14:19:10Z</time>
      </trkpt>
      <trkpt lat="44.29277" lon="5.61431">
        <ele>795</ele>
        <time>2019-03-08T14:19:11Z</time>
      </trkpt>
      <trkpt lat="44.29277" lon="5.61442">
        <ele>795</ele>
        <time>2019-03-08T14:19:12Z</time>
      </trkpt>
      <trkpt lat="44.29276" lon="5.61454">
        <ele>795</ele>
        <time>2019-03-08T14:19:13Z</time>
      </trkpt>
      <trkpt lat="44.29275" lon="5.61466">
        <ele>795</ele>
        <time>2019-03-08T14:19:14Z</time>
      </trkpt>
      <trkpt lat="44.29275" lon="5.61477">
        <ele>795</ele>
        <time>2019-03-08T14:19:15Z</time>
      </trkpt>
      <trkpt lat="44.29274" lon="5.61488">
        <ele>795</ele>
        <time>2019-03-08T14:19:16Z</time>
      </trkpt>
      <trkpt lat="44.29273" lon="5.61499">
        <ele>795</ele>
        <time>2019-03-08T14:19:17Z</time>
      </trkpt>
      <trkpt lat="44.29271" lon="5.6151">
        <ele>795</ele>
        <time>2019-03-08T14:19:18Z</time>
      </trkpt>
      <trkpt lat="44.29269" lon="5.61521">
        <ele>795</ele>
        <time>2019-03-08T14:19:19Z</time>
      </trkpt>
      <trkpt lat="44.29266" lon="5.61533">
        <ele>794</ele>
        <time>2019-03-08T14:19:20Z</time>
      </trkpt>
      <trkpt lat="44.29263" lon="5.61544">
        <ele>794</ele>
        <time>2019-03-08T14:19:21Z</time>
      </trkpt>
      <trkpt lat="44.29261" lon="5.61555">
        <ele>794</ele>
        <time>2019-03-08T14:19:22Z</time>
      </trkpt>
      <trkpt lat="44.29258" lon="5.61566">
        <ele>793</ele>
        <time>2019-03-08T14:19:23Z</time>
      </trkpt>
      <trkpt lat="44.29255" lon="5.61577">
        <ele>793</ele>
        <time>2019-03-08T14:19:24Z</time>
      </trkpt>
      <trkpt lat="44.29253" lon="5.61587">
        <ele>793</ele>
        <time>2019-03-08T14:19:25Z</time>
      </trkpt>
      <trkpt lat="44.2925" lon="5.61598">
        <ele>793</ele>
        <time>2019-03-08T14:19:26Z</time>
      </trkpt>
      <trkpt lat="44.29248" lon="5.61609">
        <ele>792</ele>
        <time>2019-03-08T14:19:27Z</time>
      </trkpt>
      <trkpt lat="44.29245" lon="5.61619">
        <ele>792</ele>
        <time>2019-03-08T14:19:28Z</time>
      </trkpt>
      <trkpt lat="44.29242" lon="5.61629">
        <ele>792</ele>
        <time>2019-03-08T14:19:29Z</time>
      </trkpt>
      <trkpt lat="44.2924" lon="5.6164">
        <ele>792</ele>
        <time>2019-03-08T14:19:30Z</time>
      </trkpt>
      <trkpt lat="44.29237" lon="5.61651">
        <ele>792</ele>
        <time>2019-03-08T14:19:31Z</time>
      </trkpt>
      <trkpt lat="44.29234" lon="5.61661">
        <ele>792</ele>
        <time>2019-03-08T14:19:32Z</time>
      </trkpt>
      <trkpt lat="44.29232" lon="5.61672">
        <ele>792</ele>
        <time>2019-03-08T14:19:33Z</time>
      </trkpt>
      <trkpt lat="44.29229" lon="5.61682">
        <ele>792</ele>
        <time>2019-03-08T14:19:34Z</time>
      </trkpt>
      <trkpt lat="44.29227" lon="5.61693">
        <ele>792</ele>
        <time>2019-03-08T14:19:35Z</time>
      </trkpt>
      <trkpt lat="44.29225" lon="5.61703">
        <ele>791</ele>
        <time>2019-03-08T14:19:36Z</time>
      </trkpt>
      <trkpt lat="44.29222" lon="5.61714">
        <ele>791</ele>
        <time>2019-03-08T14:19:37Z</time>
      </trkpt>
      <trkpt lat="44.29218" lon="5.61724">
        <ele>791</ele>
        <time>2019-03-08T14:19:38Z</time>
      </trkpt>
      <trkpt lat="44.29213" lon="5.61733">
        <ele>791</ele>
        <time>2019-03-08T14:19:39Z</time>
      </trkpt>
      <trkpt lat="44.29208" lon="5.61743">
        <ele>791</ele>
        <time>2019-03-08T14:19:40Z</time>
      </trkpt>
      <trkpt lat="44.29202" lon="5.61751">
        <ele>790</ele>
        <time>2019-03-08T14:19:41Z</time>
      </trkpt>
      <trkpt lat="44.29195" lon="5.61759">
        <ele>790</ele>
        <time>2019-03-08T14:19:42Z</time>
      </trkpt>
      <trkpt lat="44.29188" lon="5.61765">
        <ele>790</ele>
        <time>2019-03-08T14:19:43Z</time>
      </trkpt>
      <trkpt lat="44.2918" lon="5.61771">
        <ele>790</ele>
        <time>2019-03-08T14:19:44Z</time>
      </trkpt>
      <trkpt lat="44.29173" lon="5.61777">
        <ele>790</ele>
        <time>2019-03-08T14:19:45Z</time>
      </trkpt>
      <trkpt lat="44.29165" lon="5.61783">
        <ele>790</ele>
        <time>2019-03-08T14:19:46Z</time>
      </trkpt>
      <trkpt lat="44.29157" lon="5.61788">
        <ele>790</ele>
        <time>2019-03-08T14:19:47Z</time>
      </trkpt>
      <trkpt lat="44.2915" lon="5.61794">
        <ele>790</ele>
        <time>2019-03-08T14:19:48Z</time>
      </trkpt>
      <trkpt lat="44.29142" lon="5.61799">
        <ele>790</ele>
        <time>2019-03-08T14:19:49Z</time>
      </trkpt>
      <trkpt lat="44.29135" lon="5.61805">
        <ele>789</ele>
        <time>2019-03-08T14:19:50Z</time>
      </trkpt>
      <trkpt lat="44.29127" lon="5.61811">
        <ele>789</ele>
        <time>2019-03-08T14:19:51Z</time>
      </trkpt>
      <trkpt lat="44.2912" lon="5.61816">
        <ele>789</ele>
        <time>2019-03-08T14:19:52Z</time>
      </trkpt>
      <trkpt lat="44.29113" lon="5.61822">
        <ele>789</ele>
        <time>2019-03-08T14:19:53Z</time>
      </trkpt>
      <trkpt lat="44.29106" lon="5.61827">
        <ele>789</ele>
        <time>2019-03-08T14:19:54Z</time>
      </trkpt>
      <trkpt lat="44.29099" lon="5.61833">
        <ele>789</ele>
        <time>2019-03-08T14:19:55Z</time>
      </trkpt>
      <trkpt lat="44.29091" lon="5.61839">
        <ele>788</ele>
        <time>2019-03-08T14:19:56Z</time>
      </trkpt>
      <trkpt lat="44.29084" lon="5.61844">
        <ele>788</ele>
        <time>2019-03-08T14:19:57Z</time>
      </trkpt>
      <trkpt lat="44.29076" lon="5.6185">
        <ele>788</ele>
        <time>2019-03-08T14:19:58Z</time>
      </trkpt>
      <trkpt lat="44.29069" lon="5.61855">
        <ele>788</ele>
        <time>2019-03-08T14:19:59Z</time>
      </trkpt>
      <trkpt lat="44.29062" lon="5.61861">
        <ele>787</ele>
        <time>2019-03-08T14:20:00Z</time>
      </trkpt>
      <trkpt lat="44.29055" lon="5.61866">
        <ele>787</ele>
        <time>2019-03-08T14:20:01Z</time>
      </trkpt>
      <trkpt lat="44.29048" lon="5.61872">
        <ele>787</ele>
        <time>2019-03-08T14:20:02Z</time>
      </trkpt>
      <trkpt lat="44.2904" lon="5.61877">
        <ele>787</ele>
        <time>2019-03-08T14:20:03Z</time>
      </trkpt>
      <trkpt lat="44.29033" lon="5.61883">
        <ele>786</ele>
        <time>2019-03-08T14:20:04Z</time>
      </trkpt>
      <trkpt lat="44.29026" lon="5.61889">
        <ele>786</ele>
        <time>2019-03-08T14:20:05Z</time>
      </trkpt>
      <trkpt lat="44.29018" lon="5.61895">
        <ele>786</ele>
        <time>2019-03-08T14:20:06Z</time>
      </trkpt>
      <trkpt lat="44.29011" lon="5.61901">
        <ele>786</ele>
        <time>2019-03-08T14:20:07Z</time>
      </trkpt>
      <trkpt lat="44.29004" lon="5.61906">
        <ele>785</ele>
        <time>2019-03-08T14:20:08Z</time>
      </trkpt>
      <trkpt lat="44.28997" lon="5.61912">
        <ele>785</ele>
        <time>2019-03-08T14:20:09Z</time>
      </trkpt>
      <trkpt lat="44.28989" lon="5.61917">
        <ele>785</ele>
        <time>2019-03-08T14:20:10Z</time>
      </trkpt>
      <trkpt lat="44.28983" lon="5.61923">
        <ele>785</ele>
        <time>2019-03-08T14:20:11Z</time>
      </trkpt>
      <trkpt lat="44.28976" lon="5.61928">
        <ele>785</ele>
        <time>2019-03-08T14:20:12Z</time>
      </trkpt>
      <trkpt lat="44.28969" lon="5.61934">
        <ele>785</ele>
        <time>2019-03-08T14:20:13Z</time>
      </trkpt>
      <trkpt lat="44.28963" lon="5.61939">
        <ele>785</ele>
        <time>2019-03-08T14:20:14Z</time>
      </trkpt>
      <trkpt lat="44.28957" lon="5.61944">
        <ele>785</ele>
        <time>2019-03-08T14:20:15Z</time>
      </trkpt>
      <trkpt lat="44.28951" lon="5.6195">
        <ele>785</ele>
        <time>2019-03-08T14:20:16Z</time>
      </trkpt>
      <trkpt lat="44.28945" lon="5.61957">
        <ele>785</ele>
        <time>2019-03-08T14:20:17Z</time>
      </trkpt>
      <trkpt lat="44.28939" lon="5.61963">
        <ele>785</ele>
        <time>2019-03-08T14:20:18Z</time>
      </trkpt>
      <trkpt lat="44.28933" lon="5.6197">
        <ele>785</ele>
        <time>2019-03-08T14:20:19Z</time>
      </trkpt>
      <trkpt lat="44.28928" lon="5.61977">
        <ele>785</ele>
        <time>2019-03-08T14:20:20Z</time>
      </trkpt>
      <trkpt lat="44.28923" lon="5.61984">
        <ele>785</ele>
        <time>2019-03-08T14:20:21Z</time>
      </trkpt>
      <trkpt lat="44.28918" lon="5.61992">
        <ele>784</ele>
        <time>2019-03-08T14:20:22Z</time>
      </trkpt>
      <trkpt lat="44.28914" lon="5.62">
        <ele>784</ele>
        <time>2019-03-08T14:20:23Z</time>
      </trkpt>
      <trkpt lat="44.28909" lon="5.6201">
        <ele>784</ele>
        <time>2019-03-08T14:20:24Z</time>
      </trkpt>
      <trkpt lat="44.28906" lon="5.62019">
        <ele>784</ele>
        <time>2019-03-08T14:20:25Z</time>
      </trkpt>
      <trkpt lat="44.28902" lon="5.6203">
        <ele>783</ele>
        <time>2019-03-08T14:20:26Z</time>
      </trkpt>
      <trkpt lat="44.289" lon="5.62041">
        <ele>783</ele>
        <time>2019-03-08T14:20:27Z</time>
      </trkpt>
      <trkpt lat="44.28898" lon="5.62052">
        <ele>783</ele>
        <time>2019-03-08T14:20:28Z</time>
      </trkpt>
      <trkpt lat="44.28896" lon="5.62064">
        <ele>782</ele>
        <time>2019-03-08T14:20:29Z</time>
      </trkpt>
      <trkpt lat="44.28895" lon="5.62075">
        <ele>782</ele>
        <time>2019-03-08T14:20:30Z</time>
      </trkpt>
      <trkpt lat="44.28894" lon="5.62087">
        <ele>781</ele>
        <time>2019-03-08T14:20:31Z</time>
      </trkpt>
      <trkpt lat="44.28894" lon="5.62099">
        <ele>781</ele>
        <time>2019-03-08T14:20:32Z</time>
      </trkpt>
      <trkpt lat="44.28894" lon="5.62111">
        <ele>781</ele>
        <time>2019-03-08T14:20:33Z</time>
      </trkpt>
      <trkpt lat="44.28895" lon="5.62124">
        <ele>780</ele>
        <time>2019-03-08T14:20:34Z</time>
      </trkpt>
      <trkpt lat="44.28896" lon="5.62136">
        <ele>780</ele>
        <time>2019-03-08T14:20:35Z</time>
      </trkpt>
      <trkpt lat="44.28896" lon="5.62149">
        <ele>780</ele>
        <time>2019-03-08T14:20:36Z</time>
      </trkpt>
      <trkpt lat="44.28898" lon="5.62161">
        <ele>779</ele>
        <time>2019-03-08T14:20:37Z</time>
      </trkpt>
      <trkpt lat="44.289" lon="5.62174">
        <ele>779</ele>
        <time>2019-03-08T14:20:38Z</time>
      </trkpt>
      <trkpt lat="44.28902" lon="5.62187">
        <ele>779</ele>
        <time>2019-03-08T14:20:39Z</time>
      </trkpt>
      <trkpt lat="44.28904" lon="5.62199">
        <ele>778</ele>
        <time>2019-03-08T14:20:40Z</time>
      </trkpt>
      <trkpt lat="44.28907" lon="5.62212">
        <ele>778</ele>
        <time>2019-03-08T14:20:41Z</time>
      </trkpt>
      <trkpt lat="44.2891" lon="5.62224">
        <ele>778</ele>
        <time>2019-03-08T14:20:42Z</time>
      </trkpt>
      <trkpt lat="44.28913" lon="5.62237">
        <ele>778</ele>
        <time>2019-03-08T14:20:43Z</time>
      </trkpt>
      <trkpt lat="44.28916" lon="5.62249">
        <ele>778</ele>
        <time>2019-03-08T14:20:44Z</time>
      </trkpt>
      <trkpt lat="44.28919" lon="5.6226">
        <ele>778</ele>
        <time>2019-03-08T14:20:45Z</time>
      </trkpt>
      <trkpt lat="44.28921" lon="5.62272">
        <ele>778</ele>
        <time>2019-03-08T14:20:46Z</time>
      </trkpt>
      <trkpt lat="44.28924" lon="5.62284">
        <ele>777</ele>
        <time>2019-03-08T14:20:47Z</time>
      </trkpt>
      <trkpt lat="44.28927" lon="5.62295">
        <ele>777</ele>
        <time>2019-03-08T14:20:48Z</time>
      </trkpt>
      <trkpt lat="44.2893" lon="5.62307">
        <ele>777</ele>
        <time>2019-03-08T14:20:49Z</time>
      </trkpt>
      <trkpt lat="44.28933" lon="5.62319">
        <ele>777</ele>
        <time>2019-03-08T14:20:50Z</time>
      </trkpt>
      <trkpt lat="44.28936" lon="5.6233">
        <ele>777</ele>
        <time>2019-03-08T14:20:51Z</time>
      </trkpt>
      <trkpt lat="44.28939" lon="5.62342">
        <ele>777</ele>
        <time>2019-03-08T14:20:52Z</time>
      </trkpt>
      <trkpt lat="44.28941" lon="5.62354">
        <ele>777</ele>
        <time>2019-03-08T14:20:53Z</time>
      </trkpt>
      <trkpt lat="44.28944" lon="5.62366">
        <ele>777</ele>
        <time>2019-03-08T14:20:54Z</time>
      </trkpt>
      <trkpt lat="44.28947" lon="5.62377">
        <ele>777</ele>
        <time>2019-03-08T14:20:55Z</time>
      </trkpt>
      <trkpt lat="44.28949" lon="5.62389">
        <ele>776</ele>
        <time>2019-03-08T14:20:56Z</time>
      </trkpt>
      <trkpt lat="44.28952" lon="5.624">
        <ele>776</ele>
        <time>2019-03-08T14:20:57Z</time>
      </trkpt>
      <trkpt lat="44.28956" lon="5.62412">
        <ele>775</ele>
        <time>2019-03-08T14:20:58Z</time>
      </trkpt>
      <trkpt lat="44.28959" lon="5.62423">
        <ele>775</ele>
        <time>2019-03-08T14:20:59Z</time>
      </trkpt>
      <trkpt lat="44.28962" lon="5.62435">
        <ele>775</ele>
        <time>2019-03-08T14:21:00Z</time>
      </trkpt>
      <trkpt lat="44.28964" lon="5.62447">
        <ele>775</ele>
        <time>2019-03-08T14:21:01Z</time>
      </trkpt>
      <trkpt lat="44.28967" lon="5.62459">
        <ele>775</ele>
        <time>2019-03-08T14:21:02Z</time>
      </trkpt>
      <trkpt lat="44.28969" lon="5.6247">
        <ele>775</ele>
        <time>2019-03-08T14:21:03Z</time>
      </trkpt>
      <trkpt lat="44.2897" lon="5.62482">
        <ele>774</ele>
        <time>2019-03-08T14:21:04Z</time>
      </trkpt>
      <trkpt lat="44.28972" lon="5.62494">
        <ele>774</ele>
        <time>2019-03-08T14:21:05Z</time>
      </trkpt>
      <trkpt lat="44.28975" lon="5.62506">
        <ele>774</ele>
        <time>2019-03-08T14:21:06Z</time>
      </trkpt>
      <trkpt lat="44.28976" lon="5.62517">
        <ele>774</ele>
        <time>2019-03-08T14:21:07Z</time>
      </trkpt>
      <trkpt lat="44.28979" lon="5.62529">
        <ele>774</ele>
        <time>2019-03-08T14:21:08Z</time>
      </trkpt>
      <trkpt lat="44.28981" lon="5.6254">
        <ele>774</ele>
        <time>2019-03-08T14:21:09Z</time>
      </trkpt>
      <trkpt lat="44.28984" lon="5.62551">
        <ele>774</ele>
        <time>2019-03-08T14:21:10Z</time>
      </trkpt>
      <trkpt lat="44.28987" lon="5.62562">
        <ele>774</ele>
        <time>2019-03-08T14:21:11Z</time>
      </trkpt>
      <trkpt lat="44.2899" lon="5.62573">
        <ele>774</ele>
        <time>2019-03-08T14:21:12Z</time>
      </trkpt>
      <trkpt lat="44.28994" lon="5.62583">
        <ele>774</ele>
        <time>2019-03-08T14:21:13Z</time>
      </trkpt>
      <trkpt lat="44.28998" lon="5.62594">
        <ele>774</ele>
        <time>2019-03-08T14:21:14Z</time>
      </trkpt>
      <trkpt lat="44.29002" lon="5.62604">
        <ele>774</ele>
        <time>2019-03-08T14:21:15Z</time>
      </trkpt>
      <trkpt lat="44.29006" lon="5.62614">
        <ele>774</ele>
        <time>2019-03-08T14:21:16Z</time>
      </trkpt>
      <trkpt lat="44.2901" lon="5.62625">
        <ele>774</ele>
        <time>2019-03-08T14:21:17Z</time>
      </trkpt>
      <trkpt lat="44.29015" lon="5.62635">
        <ele>774</ele>
        <time>2019-03-08T14:21:18Z</time>
      </trkpt>
      <trkpt lat="44.29019" lon="5.62645">
        <ele>774</ele>
        <time>2019-03-08T14:21:19Z</time>
      </trkpt>
      <trkpt lat="44.29024" lon="5.62655">
        <ele>774</ele>
        <time>2019-03-08T14:21:20Z</time>
      </trkpt>
      <trkpt lat="44.29028" lon="5.62665">
        <ele>774</ele>
        <time>2019-03-08T14:21:21Z</time>
      </trkpt>
      <trkpt lat="44.29032" lon="5.62675">
        <ele>774</ele>
        <time>2019-03-08T14:21:22Z</time>
      </trkpt>
      <trkpt lat="44.29037" lon="5.62685">
        <ele>774</ele>
        <time>2019-03-08T14:21:23Z</time>
      </trkpt>
      <trkpt lat="44.29041" lon="5.62695">
        <ele>774</ele>
        <time>2019-03-08T14:21:24Z</time>
      </trkpt>
      <trkpt lat="44.29045" lon="5.62704">
        <ele>774</ele>
        <time>2019-03-08T14:21:25Z</time>
      </trkpt>
      <trkpt lat="44.2905" lon="5.62714">
        <ele>774</ele>
        <time>2019-03-08T14:21:26Z</time>
      </trkpt>
      <trkpt lat="44.29054" lon="5.62723">
        <ele>774</ele>
        <time>2019-03-08T14:21:27Z</time>
      </trkpt>
      <trkpt lat="44.29058" lon="5.62733">
        <ele>773</ele>
        <time>2019-03-08T14:21:28Z</time>
      </trkpt>
      <trkpt lat="44.29062" lon="5.62743">
        <ele>773</ele>
        <time>2019-03-08T14:21:29Z</time>
      </trkpt>
      <trkpt lat="44.29065" lon="5.62752">
        <ele>773</ele>
        <time>2019-03-08T14:21:30Z</time>
      </trkpt>
      <trkpt lat="44.2907" lon="5.62761">
        <ele>773</ele>
        <time>2019-03-08T14:21:31Z</time>
      </trkpt>
      <trkpt lat="44.29073" lon="5.6277">
        <ele>773</ele>
        <time>2019-03-08T14:21:32Z</time>
      </trkpt>
      <trkpt lat="44.29078" lon="5.62779">
        <ele>773</ele>
        <time>2019-03-08T14:21:33Z</time>
      </trkpt>
      <trkpt lat="44.29082" lon="5.62786">
        <ele>773</ele>
        <time>2019-03-08T14:21:34Z</time>
      </trkpt>
      <trkpt lat="44.29087" lon="5.62794">
        <ele>772</ele>
        <time>2019-03-08T14:21:35Z</time>
      </trkpt>
      <trkpt lat="44.29093" lon="5.62801">
        <ele>772</ele>
        <time>2019-03-08T14:21:36Z</time>
      </trkpt>
      <trkpt lat="44.29099" lon="5.62809">
        <ele>772</ele>
        <time>2019-03-08T14:21:37Z</time>
      </trkpt>
      <trkpt lat="44.29105" lon="5.62816">
        <ele>772</ele>
        <time>2019-03-08T14:21:38Z</time>
      </trkpt>
      <trkpt lat="44.2911" lon="5.62824">
        <ele>771</ele>
        <time>2019-03-08T14:21:39Z</time>
      </trkpt>
      <trkpt lat="44.29116" lon="5.62833">
        <ele>771</ele>
        <time>2019-03-08T14:21:40Z</time>
      </trkpt>
      <trkpt lat="44.29121" lon="5.62843">
        <ele>770</ele>
        <time>2019-03-08T14:21:41Z</time>
      </trkpt>
      <trkpt lat="44.29126" lon="5.62853">
        <ele>770</ele>
        <time>2019-03-08T14:21:42Z</time>
      </trkpt>
      <trkpt lat="44.29131" lon="5.62863">
        <ele>770</ele>
        <time>2019-03-08T14:21:43Z</time>
      </trkpt>
      <trkpt lat="44.29134" lon="5.62874">
        <ele>769</ele>
        <time>2019-03-08T14:21:44Z</time>
      </trkpt>
      <trkpt lat="44.29137" lon="5.62885">
        <ele>769</ele>
        <time>2019-03-08T14:21:45Z</time>
      </trkpt>
      <trkpt lat="44.2914" lon="5.62896">
        <ele>769</ele>
        <time>2019-03-08T14:21:46Z</time>
      </trkpt>
      <trkpt lat="44.29142" lon="5.62908">
        <ele>769</ele>
        <time>2019-03-08T14:21:47Z</time>
      </trkpt>
      <trkpt lat="44.29144" lon="5.6292">
        <ele>768</ele>
        <time>2019-03-08T14:21:48Z</time>
      </trkpt>
      <trkpt lat="44.29145" lon="5.62931">
        <ele>768</ele>
        <time>2019-03-08T14:21:49Z</time>
      </trkpt>
      <trkpt lat="44.29147" lon="5.62943">
        <ele>768</ele>
        <time>2019-03-08T14:21:50Z</time>
      </trkpt>
      <trkpt lat="44.29148" lon="5.62955">
        <ele>768</ele>
        <time>2019-03-08T14:21:51Z</time>
      </trkpt>
      <trkpt lat="44.29149" lon="5.62966">
        <ele>768</ele>
        <time>2019-03-08T14:21:52Z</time>
      </trkpt>
      <trkpt lat="44.2915" lon="5.62978">
        <ele>767</ele>
        <time>2019-03-08T14:21:53Z</time>
      </trkpt>
      <trkpt lat="44.29151" lon="5.6299">
        <ele>767</ele>
        <time>2019-03-08T14:21:54Z</time>
      </trkpt>
      <trkpt lat="44.29152" lon="5.63002">
        <ele>767</ele>
        <time>2019-03-08T14:21:55Z</time>
      </trkpt>
      <trkpt lat="44.29153" lon="5.63014">
        <ele>767</ele>
        <time>2019-03-08T14:21:56Z</time>
      </trkpt>
      <trkpt lat="44.29154" lon="5.63027">
        <ele>766</ele>
        <time>2019-03-08T14:21:57Z</time>
      </trkpt>
      <trkpt lat="44.29155" lon="5.63039">
        <ele>766</ele>
        <time>2019-03-08T14:21:58Z</time>
      </trkpt>
      <trkpt lat="44.29156" lon="5.63052">
        <ele>766</ele>
        <time>2019-03-08T14:21:59Z</time>
      </trkpt>
      <trkpt lat="44.29156" lon="5.63064">
        <ele>765</ele>
        <time>2019-03-08T14:22:00Z</time>
      </trkpt>
      <trkpt lat="44.29157" lon="5.63077">
        <ele>765</ele>
        <time>2019-03-08T14:22:01Z</time>
      </trkpt>
      <trkpt lat="44.29158" lon="5.63089">
        <ele>765</ele>
        <time>2019-03-08T14:22:02Z</time>
      </trkpt>
      <trkpt lat="44.2916" lon="5.63102">
        <ele>764</ele>
        <time>2019-03-08T14:22:03Z</time>
      </trkpt>
      <trkpt lat="44.29161" lon="5.63114">
        <ele>764</ele>
        <time>2019-03-08T14:22:04Z</time>
      </trkpt>
      <trkpt lat="44.29163" lon="5.63127">
        <ele>764</ele>
        <time>2019-03-08T14:22:05Z</time>
      </trkpt>
      <trkpt lat="44.29163" lon="5.6314">
        <ele>763</ele>
        <time>2019-03-08T14:22:06Z</time>
      </trkpt>
      <trkpt lat="44.29162" lon="5.63154">
        <ele>763</ele>
        <time>2019-03-08T14:22:07Z</time>
      </trkpt>
      <trkpt lat="44.29161" lon="5.63167">
        <ele>763</ele>
        <time>2019-03-08T14:22:08Z</time>
      </trkpt>
      <trkpt lat="44.29159" lon="5.63179">
        <ele>763</ele>
        <time>2019-03-08T14:22:09Z</time>
      </trkpt>
      <trkpt lat="44.29158" lon="5.63192">
        <ele>762</ele>
        <time>2019-03-08T14:22:10Z</time>
      </trkpt>
      <trkpt lat="44.29155" lon="5.63204">
        <ele>762</ele>
        <time>2019-03-08T14:22:11Z</time>
      </trkpt>
      <trkpt lat="44.29153" lon="5.63217">
        <ele>761</ele>
        <time>2019-03-08T14:22:12Z</time>
      </trkpt>
      <trkpt lat="44.29151" lon="5.6323">
        <ele>761</ele>
        <time>2019-03-08T14:22:13Z</time>
      </trkpt>
      <trkpt lat="44.2915" lon="5.63242">
        <ele>761</ele>
        <time>2019-03-08T14:22:14Z</time>
      </trkpt>
      <trkpt lat="44.29148" lon="5.63255">
        <ele>761</ele>
        <time>2019-03-08T14:22:15Z</time>
      </trkpt>
      <trkpt lat="44.29147" lon="5.63267">
        <ele>760</ele>
        <time>2019-03-08T14:22:16Z</time>
      </trkpt>
      <trkpt lat="44.29146" lon="5.63279">
        <ele>760</ele>
        <time>2019-03-08T14:22:17Z</time>
      </trkpt>
      <trkpt lat="44.29147" lon="5.63292">
        <ele>760</ele>
        <time>2019-03-08T14:22:18Z</time>
      </trkpt>
      <trkpt lat="44.29147" lon="5.63303">
        <ele>760</ele>
        <time>2019-03-08T14:22:19Z</time>
      </trkpt>
      <trkpt lat="44.29148" lon="5.63315">
        <ele>760</ele>
        <time>2019-03-08T14:22:20Z</time>
      </trkpt>
      <trkpt lat="44.2915" lon="5.63326">
        <ele>760</ele>
        <time>2019-03-08T14:22:21Z</time>
      </trkpt>
      <trkpt lat="44.29151" lon="5.63337">
        <ele>760</ele>
        <time>2019-03-08T14:22:22Z</time>
      </trkpt>
      <trkpt lat="44.29153" lon="5.63348">
        <ele>760</ele>
        <time>2019-03-08T14:22:23Z</time>
      </trkpt>
      <trkpt lat="44.29155" lon="5.63359">
        <ele>760</ele>
        <time>2019-03-08T14:22:24Z</time>
      </trkpt>
      <trkpt lat="44.29156" lon="5.6337">
        <ele>759</ele>
        <time>2019-03-08T14:22:25Z</time>
      </trkpt>
      <trkpt lat="44.29158" lon="5.63381">
        <ele>759</ele>
        <time>2019-03-08T14:22:26Z</time>
      </trkpt>
      <trkpt lat="44.29159" lon="5.63392">
        <ele>759</ele>
        <time>2019-03-08T14:22:27Z</time>
      </trkpt>
      <trkpt lat="44.2916" lon="5.63403">
        <ele>759</ele>
        <time>2019-03-08T14:22:28Z</time>
      </trkpt>
      <trkpt lat="44.29162" lon="5.63414">
        <ele>758</ele>
        <time>2019-03-08T14:22:29Z</time>
      </trkpt>
      <trkpt lat="44.29164" lon="5.63425">
        <ele>758</ele>
        <time>2019-03-08T14:22:30Z</time>
      </trkpt>
      <trkpt lat="44.29166" lon="5.63436">
        <ele>757</ele>
        <time>2019-03-08T14:22:31Z</time>
      </trkpt>
      <trkpt lat="44.29168" lon="5.63447">
        <ele>757</ele>
        <time>2019-03-08T14:22:32Z</time>
      </trkpt>
      <trkpt lat="44.29171" lon="5.63457">
        <ele>757</ele>
        <time>2019-03-08T14:22:33Z</time>
      </trkpt>
      <trkpt lat="44.29174" lon="5.63467">
        <ele>757</ele>
        <time>2019-03-08T14:22:34Z</time>
      </trkpt>
      <trkpt lat="44.29178" lon="5.63478">
        <ele>757</ele>
        <time>2019-03-08T14:22:35Z</time>
      </trkpt>
      <trkpt lat="44.29182" lon="5.63488">
        <ele>757</ele>
        <time>2019-03-08T14:22:36Z</time>
      </trkpt>
      <trkpt lat="44.29186" lon="5.63499">
        <ele>757</ele>
        <time>2019-03-08T14:22:37Z</time>
      </trkpt>
      <trkpt lat="44.29191" lon="5.63508">
        <ele>757</ele>
        <time>2019-03-08T14:22:38Z</time>
      </trkpt>
      <trkpt lat="44.29195" lon="5.63518">
        <ele>756</ele>
        <time>2019-03-08T14:22:39Z</time>
      </trkpt>
      <trkpt lat="44.292" lon="5.63528">
        <ele>756</ele>
        <time>2019-03-08T14:22:40Z</time>
      </trkpt>
      <trkpt lat="44.29205" lon="5.63537">
        <ele>756</ele>
        <time>2019-03-08T14:22:41Z</time>
      </trkpt>
      <trkpt lat="44.2921" lon="5.63547">
        <ele>756</ele>
        <time>2019-03-08T14:22:42Z</time>
      </trkpt>
      <trkpt lat="44.29216" lon="5.63556">
        <ele>756</ele>
        <time>2019-03-08T14:22:43Z</time>
      </trkpt>
      <trkpt lat="44.2922" lon="5.63565">
        <ele>756</ele>
        <time>2019-03-08T14:22:44Z</time>
      </trkpt>
      <trkpt lat="44.29225" lon="5.63575">
        <ele>756</ele>
        <time>2019-03-08T14:22:45Z</time>
      </trkpt>
      <trkpt lat="44.29231" lon="5.63583">
        <ele>756</ele>
        <time>2019-03-08T14:22:46Z</time>
      </trkpt>
      <trkpt lat="44.29236" lon="5.63591">
        <ele>756</ele>
        <time>2019-03-08T14:22:47Z</time>
      </trkpt>
      <trkpt lat="44.29242" lon="5.63598">
        <ele>756</ele>
        <time>2019-03-08T14:22:48Z</time>
      </trkpt>
      <trkpt lat="44.29248" lon="5.63605">
        <ele>756</ele>
        <time>2019-03-08T14:22:49Z</time>
      </trkpt>
      <trkpt lat="44.29254" lon="5.63612">
        <ele>756</ele>
        <time>2019-03-08T14:22:50Z</time>
      </trkpt>
      <trkpt lat="44.29259" lon="5.6362">
        <ele>756</ele>
        <time>2019-03-08T14:22:51Z</time>
      </trkpt>
      <trkpt lat="44.29264" lon="5.63628">
        <ele>756</ele>
        <time>2019-03-08T14:22:52Z</time>
      </trkpt>
      <trkpt lat="44.29268" lon="5.63637">
        <ele>756</ele>
        <time>2019-03-08T14:22:53Z</time>
      </trkpt>
      <trkpt lat="44.29271" lon="5.63647">
        <ele>756</ele>
        <time>2019-03-08T14:22:54Z</time>
      </trkpt>
      <trkpt lat="44.29274" lon="5.63658">
        <ele>756</ele>
        <time>2019-03-08T14:22:55Z</time>
      </trkpt>
      <trkpt lat="44.29275" lon="5.63669">
        <ele>756</ele>
        <time>2019-03-08T14:22:56Z</time>
      </trkpt>
      <trkpt lat="44.29276" lon="5.63679">
        <ele>756</ele>
        <time>2019-03-08T14:22:57Z</time>
      </trkpt>
      <trkpt lat="44.29277" lon="5.6369">
        <ele>756</ele>
        <time>2019-03-08T14:22:58Z</time>
      </trkpt>
      <trkpt lat="44.29277" lon="5.63701">
        <ele>755</ele>
        <time>2019-03-08T14:22:59Z</time>
      </trkpt>
      <trkpt lat="44.29277" lon="5.63712">
        <ele>755</ele>
        <time>2019-03-08T14:23:00Z</time>
      </trkpt>
      <trkpt lat="44.29276" lon="5.63723">
        <ele>755</ele>
        <time>2019-03-08T14:23:01Z</time>
      </trkpt>
      <trkpt lat="44.29277" lon="5.63734">
        <ele>755</ele>
        <time>2019-03-08T14:23:02Z</time>
      </trkpt>
      <trkpt lat="44.29276" lon="5.63745">
        <ele>755</ele>
        <time>2019-03-08T14:23:03Z</time>
      </trkpt>
      <trkpt lat="44.29276" lon="5.63756">
        <ele>755</ele>
        <time>2019-03-08T14:23:04Z</time>
      </trkpt>
      <trkpt lat="44.29276" lon="5.63767">
        <ele>755</ele>
        <time>2019-03-08T14:23:05Z</time>
      </trkpt>
      <trkpt lat="44.29277" lon="5.63777">
        <ele>755</ele>
        <time>2019-03-08T14:23:06Z</time>
      </trkpt>
      <trkpt lat="44.2928" lon="5.63787">
        <ele>754</ele>
        <time>2019-03-08T14:23:07Z</time>
      </trkpt>
      <trkpt lat="44.29284" lon="5.63797">
        <ele>754</ele>
        <time>2019-03-08T14:23:08Z</time>
      </trkpt>
      <trkpt lat="44.29289" lon="5.63805">
        <ele>754</ele>
        <time>2019-03-08T14:23:09Z</time>
      </trkpt>
      <trkpt lat="44.29294" lon="5.63814">
        <ele>754</ele>
        <time>2019-03-08T14:23:10Z</time>
      </trkpt>
      <trkpt lat="44.29299" lon="5.63822">
        <ele>754</ele>
        <time>2019-03-08T14:23:11Z</time>
      </trkpt>
      <trkpt lat="44.29304" lon="5.6383">
        <ele>754</ele>
        <time>2019-03-08T14:23:12Z</time>
      </trkpt>
      <trkpt lat="44.29309" lon="5.63838">
        <ele>754</ele>
        <time>2019-03-08T14:23:13Z</time>
      </trkpt>
      <trkpt lat="44.29314" lon="5.63846">
        <ele>754</ele>
        <time>2019-03-08T14:23:14Z</time>
      </trkpt>
      <trkpt lat="44.2932" lon="5.63854">
        <ele>754</ele>
        <time>2019-03-08T14:23:15Z</time>
      </trkpt>
      <trkpt lat="44.29325" lon="5.63862">
        <ele>754</ele>
        <time>2019-03-08T14:23:16Z</time>
      </trkpt>
      <trkpt lat="44.2933" lon="5.63869">
        <ele>754</ele>
        <time>2019-03-08T14:23:17Z</time>
      </trkpt>
      <trkpt lat="44.29336" lon="5.63877">
        <ele>754</ele>
        <time>2019-03-08T14:23:18Z</time>
      </trkpt>
      <trkpt lat="44.2934" lon="5.63885">
        <ele>753</ele>
        <time>2019-03-08T14:23:19Z</time>
      </trkpt>
      <trkpt lat="44.29345" lon="5.63892">
        <ele>753</ele>
        <time>2019-03-08T14:23:20Z</time>
      </trkpt>
      <trkpt lat="44.2935" lon="5.639">
        <ele>753</ele>
        <time>2019-03-08T14:23:21Z</time>
      </trkpt>
      <trkpt lat="44.29356" lon="5.63906">
        <ele>753</ele>
        <time>2019-03-08T14:23:22Z</time>
      </trkpt>
      <trkpt lat="44.29361" lon="5.63912">
        <ele>753</ele>
        <time>2019-03-08T14:23:23Z</time>
      </trkpt>
      <trkpt lat="44.29367" lon="5.63918">
        <ele>753</ele>
        <time>2019-03-08T14:23:24Z</time>
      </trkpt>
      <trkpt lat="44.29373" lon="5.63924">
        <ele>753</ele>
        <time>2019-03-08T14:23:25Z</time>
      </trkpt>
      <trkpt lat="44.29379" lon="5.63931">
        <ele>753</ele>
        <time>2019-03-08T14:23:26Z</time>
      </trkpt>
      <trkpt lat="44.29385" lon="5.63937">
        <ele>753</ele>
        <time>2019-03-08T14:23:27Z</time>
      </trkpt>
      <trkpt lat="44.2939" lon="5.63944">
        <ele>753</ele>
        <time>2019-03-08T14:23:28Z</time>
      </trkpt>
      <trkpt lat="44.29395" lon="5.63951">
        <ele>753</ele>
        <time>2019-03-08T14:23:29Z</time>
      </trkpt>
      <trkpt lat="44.29399" lon="5.63958">
        <ele>753</ele>
        <time>2019-03-08T14:23:30Z</time>
      </trkpt>
      <trkpt lat="44.29404" lon="5.63965">
        <ele>753</ele>
        <time>2019-03-08T14:23:31Z</time>
      </trkpt>
      <trkpt lat="44.29409" lon="5.63973">
        <ele>753</ele>
        <time>2019-03-08T14:23:32Z</time>
      </trkpt>
      <trkpt lat="44.29413" lon="5.63981">
        <ele>753</ele>
        <time>2019-03-08T14:23:33Z</time>
      </trkpt>
      <trkpt lat="44.29417" lon="5.63989">
        <ele>753</ele>
        <time>2019-03-08T14:23:34Z</time>
      </trkpt>
      <trkpt lat="44.2942" lon="5.63998">
        <ele>753</ele>
        <time>2019-03-08T14:23:35Z</time>
      </trkpt>
      <trkpt lat="44.29424" lon="5.64006">
        <ele>753</ele>
        <time>2019-03-08T14:23:36Z</time>
      </trkpt>
      <trkpt lat="44.29428" lon="5.64013">
        <ele>753</ele>
        <time>2019-03-08T14:23:37Z</time>
      </trkpt>
      <trkpt lat="44.29432" lon="5.64022">
        <ele>753</ele>
        <time>2019-03-08T14:23:38Z</time>
      </trkpt>
      <trkpt lat="44.29435" lon="5.6403">
        <ele>753</ele>
        <time>2019-03-08T14:23:39Z</time>
      </trkpt>
      <trkpt lat="44.29438" lon="5.64039">
        <ele>753</ele>
        <time>2019-03-08T14:23:40Z</time>
      </trkpt>
      <trkpt lat="44.2944" lon="5.64047">
        <ele>753</ele>
        <time>2019-03-08T14:23:41Z</time>
      </trkpt>
      <trkpt lat="44.29442" lon="5.64056">
        <ele>753</ele>
        <time>2019-03-08T14:23:42Z</time>
      </trkpt>
      <trkpt lat="44.29444" lon="5.64065">
        <ele>753</ele>
        <time>2019-03-08T14:23:43Z</time>
      </trkpt>
      <trkpt lat="44.29446" lon="5.64074">
        <ele>753</ele>
        <time>2019-03-08T14:23:44Z</time>
      </trkpt>
      <trkpt lat="44.29448" lon="5.64083">
        <ele>753</ele>
        <time>2019-03-08T14:23:45Z</time>
      </trkpt>
      <trkpt lat="44.29451" lon="5.64091">
        <ele>753</ele>
        <time>2019-03-08T14:23:46Z</time>
      </trkpt>
      <trkpt lat="44.29453" lon="5.641">
        <ele>753</ele>
        <time>2019-03-08T14:23:47Z</time>
      </trkpt>
      <trkpt lat="44.29453" lon="5.64109">
        <ele>753</ele>
        <time>2019-03-08T14:23:48Z</time>
      </trkpt>
      <trkpt lat="44.29455" lon="5.64118">
        <ele>753</ele>
        <time>2019-03-08T14:23:49Z</time>
      </trkpt>
      <trkpt lat="44.29456" lon="5.64126">
        <ele>753</ele>
        <time>2019-03-08T14:23:50Z</time>
      </trkpt>
      <trkpt lat="44.29457" lon="5.64134">
        <ele>753</ele>
        <time>2019-03-08T14:23:51Z</time>
      </trkpt>
      <trkpt lat="44.29457" lon="5.64142">
        <ele>753</ele>
        <time>2019-03-08T14:23:52Z</time>
      </trkpt>
      <trkpt lat="44.29458" lon="5.6415">
        <ele>753</ele>
        <time>2019-03-08T14:23:53Z</time>
      </trkpt>
      <trkpt lat="44.29459" lon="5.64158">
        <ele>753</ele>
        <time>2019-03-08T14:23:54Z</time>
      </trkpt>
      <trkpt lat="44.29461" lon="5.64166">
        <ele>753</ele>
        <time>2019-03-08T14:23:55Z</time>
      </trkpt>
      <trkpt lat="44.29463" lon="5.64175">
        <ele>753</ele>
        <time>2019-03-08T14:23:56Z</time>
      </trkpt>
      <trkpt lat="44.29465" lon="5.64183">
        <ele>753</ele>
        <time>2019-03-08T14:23:57Z</time>
      </trkpt>
      <trkpt lat="44.29467" lon="5.64191">
        <ele>753</ele>
        <time>2019-03-08T14:23:58Z</time>
      </trkpt>
      <trkpt lat="44.2947" lon="5.64198">
        <ele>753</ele>
        <time>2019-03-08T14:23:59Z</time>
      </trkpt>
      <trkpt lat="44.29473" lon="5.64206">
        <ele>753</ele>
        <time>2019-03-08T14:24:00Z</time>
      </trkpt>
      <trkpt lat="44.29477" lon="5.64212">
        <ele>753</ele>
        <time>2019-03-08T14:24:01Z</time>
      </trkpt>
      <trkpt lat="44.2948" lon="5.64219">
        <ele>753</ele>
        <time>2019-03-08T14:24:02Z</time>
      </trkpt>
      <trkpt lat="44.29485" lon="5.64225">
        <ele>753</ele>
        <time>2019-03-08T14:24:03Z</time>
      </trkpt>
      <trkpt lat="44.29489" lon="5.64231">
        <ele>753</ele>
        <time>2019-03-08T14:24:04Z</time>
      </trkpt>
      <trkpt lat="44.29493" lon="5.64237">
        <ele>753</ele>
        <time>2019-03-08T14:24:05Z</time>
      </trkpt>
      <trkpt lat="44.29498" lon="5.64243">
        <ele>753</ele>
        <time>2019-03-08T14:24:06Z</time>
      </trkpt>
      <trkpt lat="44.29502" lon="5.64249">
        <ele>753</ele>
        <time>2019-03-08T14:24:07Z</time>
      </trkpt>
      <trkpt lat="44.29506" lon="5.64256">
        <ele>753</ele>
        <time>2019-03-08T14:24:08Z</time>
      </trkpt>
      <trkpt lat="44.29509" lon="5.64262">
        <ele>753</ele>
        <time>2019-03-08T14:24:09Z</time>
      </trkpt>
      <trkpt lat="44.29513" lon="5.64269">
        <ele>753</ele>
        <time>2019-03-08T14:24:10Z</time>
      </trkpt>
      <trkpt lat="44.29516" lon="5.64276">
        <ele>753</ele>
        <time>2019-03-08T14:24:11Z</time>
      </trkpt>
      <trkpt lat="44.29519" lon="5.64283">
        <ele>753</ele>
        <time>2019-03-08T14:24:12Z</time>
      </trkpt>
      <trkpt lat="44.29522" lon="5.6429">
        <ele>753</ele>
        <time>2019-03-08T14:24:13Z</time>
      </trkpt>
      <trkpt lat="44.29525" lon="5.64296">
        <ele>753</ele>
        <time>2019-03-08T14:24:14Z</time>
      </trkpt>
      <trkpt lat="44.29528" lon="5.64303">
        <ele>753</ele>
        <time>2019-03-08T14:24:15Z</time>
      </trkpt>
      <trkpt lat="44.29531" lon="5.6431">
        <ele>753</ele>
        <time>2019-03-08T14:24:16Z</time>
      </trkpt>
      <trkpt lat="44.29535" lon="5.64317">
        <ele>753</ele>
        <time>2019-03-08T14:24:17Z</time>
      </trkpt>
      <trkpt lat="44.29538" lon="5.64323">
        <ele>753</ele>
        <time>2019-03-08T14:24:18Z</time>
      </trkpt>
      <trkpt lat="44.29541" lon="5.64331">
        <ele>753</ele>
        <time>2019-03-08T14:24:19Z</time>
      </trkpt>
      <trkpt lat="44.29544" lon="5.64338">
        <ele>753</ele>
        <time>2019-03-08T14:24:20Z</time>
      </trkpt>
      <trkpt lat="44.29547" lon="5.64345">
        <ele>754</ele>
        <time>2019-03-08T14:24:21Z</time>
      </trkpt>
      <trkpt lat="44.29551" lon="5.64351">
        <ele>754</ele>
        <time>2019-03-08T14:24:22Z</time>
      </trkpt>
      <trkpt lat="44.29554" lon="5.64358">
        <ele>754</ele>
        <time>2019-03-08T14:24:23Z</time>
      </trkpt>
      <trkpt lat="44.29557" lon="5.64365">
        <ele>754</ele>
        <time>2019-03-08T14:24:24Z</time>
      </trkpt>
      <trkpt lat="44.2956" lon="5.64372">
        <ele>754</ele>
        <time>2019-03-08T14:24:25Z</time>
      </trkpt>
      <trkpt lat="44.29564" lon="5.6438">
        <ele>754</ele>
        <time>2019-03-08T14:24:26Z</time>
      </trkpt>
      <trkpt lat="44.29566" lon="5.64388">
        <ele>754</ele>
        <time>2019-03-08T14:24:27Z</time>
      </trkpt>
      <trkpt lat="44.29569" lon="5.64395">
        <ele>754</ele>
        <time>2019-03-08T14:24:28Z</time>
      </trkpt>
      <trkpt lat="44.29571" lon="5.64403">
        <ele>754</ele>
        <time>2019-03-08T14:24:29Z</time>
      </trkpt>
      <trkpt lat="44.29574" lon="5.64411">
        <ele>754</ele>
        <time>2019-03-08T14:24:30Z</time>
      </trkpt>
      <trkpt lat="44.29577" lon="5.64418">
        <ele>754</ele>
        <time>2019-03-08T14:24:31Z</time>
      </trkpt>
      <trkpt lat="44.2958" lon="5.64426">
        <ele>754</ele>
        <time>2019-03-08T14:24:32Z</time>
      </trkpt>
      <trkpt lat="44.29583" lon="5.64434">
        <ele>754</ele>
        <time>2019-03-08T14:24:33Z</time>
      </trkpt>
      <trkpt lat="44.29586" lon="5.64442">
        <ele>754</ele>
        <time>2019-03-08T14:24:34Z</time>
      </trkpt>
      <trkpt lat="44.29588" lon="5.64451">
        <ele>754</ele>
        <time>2019-03-08T14:24:35Z</time>
      </trkpt>
      <trkpt lat="44.29591" lon="5.64459">
        <ele>754</ele>
        <time>2019-03-08T14:24:36Z</time>
      </trkpt>
      <trkpt lat="44.29594" lon="5.64468">
        <ele>754</ele>
        <time>2019-03-08T14:24:37Z</time>
      </trkpt>
      <trkpt lat="44.29596" lon="5.64476">
        <ele>754</ele>
        <time>2019-03-08T14:24:38Z</time>
      </trkpt>
      <trkpt lat="44.29598" lon="5.64485">
        <ele>754</ele>
        <time>2019-03-08T14:24:39Z</time>
      </trkpt>
      <trkpt lat="44.29601" lon="5.64493">
        <ele>754</ele>
        <time>2019-03-08T14:24:40Z</time>
      </trkpt>
      <trkpt lat="44.29602" lon="5.64501">
        <ele>754</ele>
        <time>2019-03-08T14:24:41Z</time>
      </trkpt>
      <trkpt lat="44.29604" lon="5.6451">
        <ele>754</ele>
        <time>2019-03-08T14:24:42Z</time>
      </trkpt>
      <trkpt lat="44.29607" lon="5.64518">
        <ele>754</ele>
        <time>2019-03-08T14:24:43Z</time>
      </trkpt>
      <trkpt lat="44.29608" lon="5.64526">
        <ele>754</ele>
        <time>2019-03-08T14:24:44Z</time>
      </trkpt>
      <trkpt lat="44.2961" lon="5.64535">
        <ele>754</ele>
        <time>2019-03-08T14:24:45Z</time>
      </trkpt>
      <trkpt lat="44.29611" lon="5.64544">
        <ele>754</ele>
        <time>2019-03-08T14:24:46Z</time>
      </trkpt>
      <trkpt lat="44.29613" lon="5.64553">
        <ele>754</ele>
        <time>2019-03-08T14:24:47Z</time>
      </trkpt>
      <trkpt lat="44.29614" lon="5.64562">
        <ele>754</ele>
        <time>2019-03-08T14:24:48Z</time>
      </trkpt>
      <trkpt lat="44.29616" lon="5.64571">
        <ele>754</ele>
        <time>2019-03-08T14:24:49Z</time>
      </trkpt>
      <trkpt lat="44.29618" lon="5.64579">
        <ele>754</ele>
        <time>2019-03-08T14:24:50Z</time>
      </trkpt>
      <trkpt lat="44.2962" lon="5.64588">
        <ele>754</ele>
        <time>2019-03-08T14:24:51Z</time>
      </trkpt>
      <trkpt lat="44.29622" lon="5.64597">
        <ele>754</ele>
        <time>2019-03-08T14:24:52Z</time>
      </trkpt>
      <trkpt lat="44.29624" lon="5.64606">
        <ele>754</ele>
        <time>2019-03-08T14:24:53Z</time>
      </trkpt>
      <trkpt lat="44.29627" lon="5.64614">
        <ele>754</ele>
        <time>2019-03-08T14:24:54Z</time>
      </trkpt>
      <trkpt lat="44.2963" lon="5.64622">
        <ele>754</ele>
        <time>2019-03-08T14:24:55Z</time>
      </trkpt>
      <trkpt lat="44.29633" lon="5.64629">
        <ele>754</ele>
        <time>2019-03-08T14:24:56Z</time>
      </trkpt>
      <trkpt lat="44.29636" lon="5.64637">
        <ele>754</ele>
        <time>2019-03-08T14:24:57Z</time>
      </trkpt>
      <trkpt lat="44.2964" lon="5.64643">
        <ele>754</ele>
        <time>2019-03-08T14:24:58Z</time>
      </trkpt>
      <trkpt lat="44.29645" lon="5.64649">
        <ele>754</ele>
        <time>2019-03-08T14:24:59Z</time>
      </trkpt>
      <trkpt lat="44.2965" lon="5.64654">
        <ele>754</ele>
        <time>2019-03-08T14:25:00Z</time>
      </trkpt>
      <trkpt lat="44.29655" lon="5.64658">
        <ele>754</ele>
        <time>2019-03-08T14:25:01Z</time>
      </trkpt>
      <trkpt lat="44.29661" lon="5.64663">
        <ele>754</ele>
        <time>2019-03-08T14:25:02Z</time>
      </trkpt>
      <trkpt lat="44.29666" lon="5.64668">
        <ele>754</ele>
        <time>2019-03-08T14:25:03Z</time>
      </trkpt>
      <trkpt lat="44.29672" lon="5.64673">
        <ele>754</ele>
        <time>2019-03-08T14:25:04Z</time>
      </trkpt>
      <trkpt lat="44.29676" lon="5.64679">
        <ele>754</ele>
        <time>2019-03-08T14:25:05Z</time>
      </trkpt>
      <trkpt lat="44.2968" lon="5.64687">
        <ele>754</ele>
        <time>2019-03-08T14:25:06Z</time>
      </trkpt>
      <trkpt lat="44.29683" lon="5.64695">
        <ele>754</ele>
        <time>2019-03-08T14:25:07Z</time>
      </trkpt>
      <trkpt lat="44.29684" lon="5.64704">
        <ele>754</ele>
        <time>2019-03-08T14:25:08Z</time>
      </trkpt>
      <trkpt lat="44.29684" lon="5.64714">
        <ele>754</ele>
        <time>2019-03-08T14:25:09Z</time>
      </trkpt>
      <trkpt lat="44.29683" lon="5.64723">
        <ele>754</ele>
        <time>2019-03-08T14:25:10Z</time>
      </trkpt>
      <trkpt lat="44.29682" lon="5.64732">
        <ele>754</ele>
        <time>2019-03-08T14:25:11Z</time>
      </trkpt>
      <trkpt lat="44.29681" lon="5.6474">
        <ele>754</ele>
        <time>2019-03-08T14:25:12Z</time>
      </trkpt>
      <trkpt lat="44.2968" lon="5.64749">
        <ele>754</ele>
        <time>2019-03-08T14:25:13Z</time>
      </trkpt>
      <trkpt lat="44.29679" lon="5.64757">
        <ele>754</ele>
        <time>2019-03-08T14:25:14Z</time>
      </trkpt>
      <trkpt lat="44.29679" lon="5.64765">
        <ele>754</ele>
        <time>2019-03-08T14:25:15Z</time>
      </trkpt>
      <trkpt lat="44.29679" lon="5.64773">
        <ele>754</ele>
        <time>2019-03-08T14:25:16Z</time>
      </trkpt>
      <trkpt lat="44.29679" lon="5.6478">
        <ele>754</ele>
        <time>2019-03-08T14:25:17Z</time>
      </trkpt>
      <trkpt lat="44.29679" lon="5.64788">
        <ele>754</ele>
        <time>2019-03-08T14:25:18Z</time>
      </trkpt>
      <trkpt lat="44.29679" lon="5.64797">
        <ele>754</ele>
        <time>2019-03-08T14:25:19Z</time>
      </trkpt>
      <trkpt lat="44.29681" lon="5.64805">
        <ele>754</ele>
        <time>2019-03-08T14:25:20Z</time>
      </trkpt>
      <trkpt lat="44.29683" lon="5.64812">
        <ele>754</ele>
        <time>2019-03-08T14:25:21Z</time>
      </trkpt>
      <trkpt lat="44.29686" lon="5.6482">
        <ele>754</ele>
        <time>2019-03-08T14:25:22Z</time>
      </trkpt>
      <trkpt lat="44.29689" lon="5.64829">
        <ele>754</ele>
        <time>2019-03-08T14:25:23Z</time>
      </trkpt>
      <trkpt lat="44.29691" lon="5.64837">
        <ele>754</ele>
        <time>2019-03-08T14:25:24Z</time>
      </trkpt>
      <trkpt lat="44.29695" lon="5.64845">
        <ele>754</ele>
        <time>2019-03-08T14:25:25Z</time>
      </trkpt>
      <trkpt lat="44.29698" lon="5.64853">
        <ele>754</ele>
        <time>2019-03-08T14:25:26Z</time>
      </trkpt>
      <trkpt lat="44.29701" lon="5.64861">
        <ele>754</ele>
        <time>2019-03-08T14:25:27Z</time>
      </trkpt>
      <trkpt lat="44.29705" lon="5.64869">
        <ele>754</ele>
        <time>2019-03-08T14:25:28Z</time>
      </trkpt>
      <trkpt lat="44.29708" lon="5.64877">
        <ele>754</ele>
        <time>2019-03-08T14:25:29Z</time>
      </trkpt>
      <trkpt lat="44.29711" lon="5.64886">
        <ele>754</ele>
        <time>2019-03-08T14:25:30Z</time>
      </trkpt>
      <trkpt lat="44.29714" lon="5.64894">
        <ele>754</ele>
        <time>2019-03-08T14:25:31Z</time>
      </trkpt>
      <trkpt lat="44.29717" lon="5.64903">
        <ele>754</ele>
        <time>2019-03-08T14:25:32Z</time>
      </trkpt>
      <trkpt lat="44.29721" lon="5.64911">
        <ele>754</ele>
        <time>2019-03-08T14:25:33Z</time>
      </trkpt>
      <trkpt lat="44.29725" lon="5.64919">
        <ele>754</ele>
        <time>2019-03-08T14:25:34Z</time>
      </trkpt>
      <trkpt lat="44.29728" lon="5.64927">
        <ele>754</ele>
        <time>2019-03-08T14:25:35Z</time>
      </trkpt>
      <trkpt lat="44.29732" lon="5.64935">
        <ele>754</ele>
        <time>2019-03-08T14:25:36Z</time>
      </trkpt>
      <trkpt lat="44.29736" lon="5.64944">
        <ele>754</ele>
        <time>2019-03-08T14:25:37Z</time>
      </trkpt>
      <trkpt lat="44.29739" lon="5.64952">
        <ele>754</ele>
        <time>2019-03-08T14:25:38Z</time>
      </trkpt>
      <trkpt lat="44.29744" lon="5.6496">
        <ele>754</ele>
        <time>2019-03-08T14:25:39Z</time>
      </trkpt>
      <trkpt lat="44.29747" lon="5.64968">
        <ele>754</ele>
        <time>2019-03-08T14:25:40Z</time>
      </trkpt>
      <trkpt lat="44.29751" lon="5.64977">
        <ele>754</ele>
        <time>2019-03-08T14:25:41Z</time>
      </trkpt>
      <trkpt lat="44.29755" lon="5.64986">
        <ele>754</ele>
        <time>2019-03-08T14:25:42Z</time>
      </trkpt>
      <trkpt lat="44.29758" lon="5.64994">
        <ele>754</ele>
        <time>2019-03-08T14:25:43Z</time>
      </trkpt>
      <trkpt lat="44.29762" lon="5.65003">
        <ele>754</ele>
        <time>2019-03-08T14:25:44Z</time>
      </trkpt>
      <trkpt lat="44.29765" lon="5.65012">
        <ele>754</ele>
        <time>2019-03-08T14:25:45Z</time>
      </trkpt>
      <trkpt lat="44.29768" lon="5.65021">
        <ele>754</ele>
        <time>2019-03-08T14:25:46Z</time>
      </trkpt>
      <trkpt lat="44.29772" lon="5.65029">
        <ele>754</ele>
        <time>2019-03-08T14:25:47Z</time>
      </trkpt>
      <trkpt lat="44.29776" lon="5.65038">
        <ele>754</ele>
        <time>2019-03-08T14:25:48Z</time>
      </trkpt>
      <trkpt lat="44.2978" lon="5.65046">
        <ele>754</ele>
        <time>2019-03-08T14:25:49Z</time>
      </trkpt>
      <trkpt lat="44.29783" lon="5.65054">
        <ele>754</ele>
        <time>2019-03-08T14:25:50Z</time>
      </trkpt>
      <trkpt lat="44.29787" lon="5.65063">
        <ele>754</ele>
        <time>2019-03-08T14:25:51Z</time>
      </trkpt>
      <trkpt lat="44.2979" lon="5.65071">
        <ele>754</ele>
        <time>2019-03-08T14:25:52Z</time>
      </trkpt>
      <trkpt lat="44.29793" lon="5.6508">
        <ele>754</ele>
        <time>2019-03-08T14:25:53Z</time>
      </trkpt>
      <trkpt lat="44.29797" lon="5.65088">
        <ele>754</ele>
        <time>2019-03-08T14:25:54Z</time>
      </trkpt>
      <trkpt lat="44.298" lon="5.65097">
        <ele>754</ele>
        <time>2019-03-08T14:25:55Z</time>
      </trkpt>
      <trkpt lat="44.29803" lon="5.65105">
        <ele>754</ele>
        <time>2019-03-08T14:25:56Z</time>
      </trkpt>
      <trkpt lat="44.29807" lon="5.65114">
        <ele>754</ele>
        <time>2019-03-08T14:25:57Z</time>
      </trkpt>
      <trkpt lat="44.2981" lon="5.65122">
        <ele>754</ele>
        <time>2019-03-08T14:25:58Z</time>
      </trkpt>
      <trkpt lat="44.29814" lon="5.65131">
        <ele>754</ele>
        <time>2019-03-08T14:25:59Z</time>
      </trkpt>
      <trkpt lat="44.29818" lon="5.65139">
        <ele>754</ele>
        <time>2019-03-08T14:26:00Z</time>
      </trkpt>
      <trkpt lat="44.29821" lon="5.65147">
        <ele>754</ele>
        <time>2019-03-08T14:26:01Z</time>
      </trkpt>
      <trkpt lat="44.29825" lon="5.65156">
        <ele>754</ele>
        <time>2019-03-08T14:26:02Z</time>
      </trkpt>
      <trkpt lat="44.29828" lon="5.65164">
        <ele>753</ele>
        <time>2019-03-08T14:26:03Z</time>
      </trkpt>
      <trkpt lat="44.29832" lon="5.65173">
        <ele>753</ele>
        <time>2019-03-08T14:26:04Z</time>
      </trkpt>
      <trkpt lat="44.29836" lon="5.65182">
        <ele>753</ele>
        <time>2019-03-08T14:26:05Z</time>
      </trkpt>
      <trkpt lat="44.2984" lon="5.6519">
        <ele>753</ele>
        <time>2019-03-08T14:26:06Z</time>
      </trkpt>
      <trkpt lat="44.29844" lon="5.65199">
        <ele>753</ele>
        <time>2019-03-08T14:26:07Z</time>
      </trkpt>
      <trkpt lat="44.29848" lon="5.65207">
        <ele>753</ele>
        <time>2019-03-08T14:26:08Z</time>
      </trkpt>
      <trkpt lat="44.29853" lon="5.65216">
        <ele>753</ele>
        <time>2019-03-08T14:26:09Z</time>
      </trkpt>
      <trkpt lat="44.29857" lon="5.65225">
        <ele>753</ele>
        <time>2019-03-08T14:26:10Z</time>
      </trkpt>
      <trkpt lat="44.29862" lon="5.65233">
        <ele>753</ele>
        <time>2019-03-08T14:26:11Z</time>
      </trkpt>
      <trkpt lat="44.29866" lon="5.65242">
        <ele>753</ele>
        <time>2019-03-08T14:26:12Z</time>
      </trkpt>
      <trkpt lat="44.29871" lon="5.65251">
        <ele>753</ele>
        <time>2019-03-08T14:26:13Z</time>
      </trkpt>
      <trkpt lat="44.29875" lon="5.6526">
        <ele>752</ele>
        <time>2019-03-08T14:26:14Z</time>
      </trkpt>
      <trkpt lat="44.29879" lon="5.65269">
        <ele>752</ele>
        <time>2019-03-08T14:26:15Z</time>
      </trkpt>
      <trkpt lat="44.29883" lon="5.65279">
        <ele>752</ele>
        <time>2019-03-08T14:26:16Z</time>
      </trkpt>
      <trkpt lat="44.29887" lon="5.65289">
        <ele>752</ele>
        <time>2019-03-08T14:26:17Z</time>
      </trkpt>
      <trkpt lat="44.29891" lon="5.653">
        <ele>751</ele>
        <time>2019-03-08T14:26:18Z</time>
      </trkpt>
      <trkpt lat="44.29895" lon="5.65309">
        <ele>751</ele>
        <time>2019-03-08T14:26:19Z</time>
      </trkpt>
      <trkpt lat="44.299" lon="5.65319">
        <ele>751</ele>
        <time>2019-03-08T14:26:20Z</time>
      </trkpt>
      <trkpt lat="44.29903" lon="5.6533">
        <ele>750</ele>
        <time>2019-03-08T14:26:21Z</time>
      </trkpt>
      <trkpt lat="44.29908" lon="5.65341">
        <ele>750</ele>
        <time>2019-03-08T14:26:22Z</time>
      </trkpt>
      <trkpt lat="44.29912" lon="5.65351">
        <ele>750</ele>
        <time>2019-03-08T14:26:23Z</time>
      </trkpt>
      <trkpt lat="44.29916" lon="5.65361">
        <ele>750</ele>
        <time>2019-03-08T14:26:24Z</time>
      </trkpt>
      <trkpt lat="44.2992" lon="5.65371">
        <ele>750</ele>
        <time>2019-03-08T14:26:25Z</time>
      </trkpt>
      <trkpt lat="44.29924" lon="5.65382">
        <ele>750</ele>
        <time>2019-03-08T14:26:26Z</time>
      </trkpt>
      <trkpt lat="44.29929" lon="5.65392">
        <ele>750</ele>
        <time>2019-03-08T14:26:27Z</time>
      </trkpt>
      <trkpt lat="44.29933" lon="5.65403">
        <ele>750</ele>
        <time>2019-03-08T14:26:28Z</time>
      </trkpt>
      <trkpt lat="44.29937" lon="5.65413">
        <ele>749</ele>
        <time>2019-03-08T14:26:29Z</time>
      </trkpt>
      <trkpt lat="44.29941" lon="5.65423">
        <ele>749</ele>
        <time>2019-03-08T14:26:30Z</time>
      </trkpt>
      <trkpt lat="44.29945" lon="5.65433">
        <ele>749</ele>
        <time>2019-03-08T14:26:31Z</time>
      </trkpt>
      <trkpt lat="44.29949" lon="5.65444">
        <ele>749</ele>
        <time>2019-03-08T14:26:32Z</time>
      </trkpt>
      <trkpt lat="44.29953" lon="5.65454">
        <ele>748</ele>
        <time>2019-03-08T14:26:33Z</time>
      </trkpt>
      <trkpt lat="44.29958" lon="5.65463">
        <ele>748</ele>
        <time>2019-03-08T14:26:34Z</time>
      </trkpt>
      <trkpt lat="44.29962" lon="5.65474">
        <ele>748</ele>
        <time>2019-03-08T14:26:35Z</time>
      </trkpt>
      <trkpt lat="44.29966" lon="5.65484">
        <ele>748</ele>
        <time>2019-03-08T14:26:36Z</time>
      </trkpt>
      <trkpt lat="44.29969" lon="5.65494">
        <ele>748</ele>
        <time>2019-03-08T14:26:37Z</time>
      </trkpt>
      <trkpt lat="44.29974" lon="5.65505">
        <ele>747</ele>
        <time>2019-03-08T14:26:38Z</time>
      </trkpt>
      <trkpt lat="44.29978" lon="5.65515">
        <ele>747</ele>
        <time>2019-03-08T14:26:39Z</time>
      </trkpt>
      <trkpt lat="44.29982" lon="5.65525">
        <ele>747</ele>
        <time>2019-03-08T14:26:40Z</time>
      </trkpt>
      <trkpt lat="44.29986" lon="5.65535">
        <ele>747</ele>
        <time>2019-03-08T14:26:41Z</time>
      </trkpt>
      <trkpt lat="44.2999" lon="5.65545">
        <ele>746</ele>
        <time>2019-03-08T14:26:42Z</time>
      </trkpt>
      <trkpt lat="44.29994" lon="5.65555">
        <ele>746</ele>
        <time>2019-03-08T14:26:43Z</time>
      </trkpt>
      <trkpt lat="44.29998" lon="5.65566">
        <ele>746</ele>
        <time>2019-03-08T14:26:44Z</time>
      </trkpt>
      <trkpt lat="44.30002" lon="5.65576">
        <ele>746</ele>
        <time>2019-03-08T14:26:45Z</time>
      </trkpt>
      <trkpt lat="44.30006" lon="5.65587">
        <ele>746</ele>
        <time>2019-03-08T14:26:46Z</time>
      </trkpt>
      <trkpt lat="44.3001" lon="5.65597">
        <ele>745</ele>
        <time>2019-03-08T14:26:47Z</time>
      </trkpt>
      <trkpt lat="44.30015" lon="5.65607">
        <ele>745</ele>
        <time>2019-03-08T14:26:48Z</time>
      </trkpt>
      <trkpt lat="44.30019" lon="5.65617">
        <ele>745</ele>
        <time>2019-03-08T14:26:49Z</time>
      </trkpt>
      <trkpt lat="44.30023" lon="5.65628">
        <ele>744</ele>
        <time>2019-03-08T14:26:50Z</time>
      </trkpt>
      <trkpt lat="44.30027" lon="5.65639">
        <ele>744</ele>
        <time>2019-03-08T14:26:51Z</time>
      </trkpt>
      <trkpt lat="44.30031" lon="5.6565">
        <ele>744</ele>
        <time>2019-03-08T14:26:52Z</time>
      </trkpt>
      <trkpt lat="44.30035" lon="5.6566">
        <ele>744</ele>
        <time>2019-03-08T14:26:53Z</time>
      </trkpt>
      <trkpt lat="44.30039" lon="5.65671">
        <ele>744</ele>
        <time>2019-03-08T14:26:54Z</time>
      </trkpt>
      <trkpt lat="44.30042" lon="5.65681">
        <ele>743</ele>
        <time>2019-03-08T14:26:55Z</time>
      </trkpt>
      <trkpt lat="44.30046" lon="5.65692">
        <ele>743</ele>
        <time>2019-03-08T14:26:56Z</time>
      </trkpt>
      <trkpt lat="44.30049" lon="5.65703">
        <ele>743</ele>
        <time>2019-03-08T14:26:57Z</time>
      </trkpt>
      <trkpt lat="44.30053" lon="5.65714">
        <ele>743</ele>
        <time>2019-03-08T14:26:58Z</time>
      </trkpt>
      <trkpt lat="44.30056" lon="5.65726">
        <ele>743</ele>
        <time>2019-03-08T14:26:59Z</time>
      </trkpt>
      <trkpt lat="44.30059" lon="5.65737">
        <ele>742</ele>
        <time>2019-03-08T14:27:00Z</time>
      </trkpt>
      <trkpt lat="44.30062" lon="5.65748">
        <ele>742</ele>
        <time>2019-03-08T14:27:01Z</time>
      </trkpt>
      <trkpt lat="44.30066" lon="5.6576">
        <ele>742</ele>
        <time>2019-03-08T14:27:02Z</time>
      </trkpt>
      <trkpt lat="44.30069" lon="5.65771">
        <ele>742</ele>
        <time>2019-03-08T14:27:03Z</time>
      </trkpt>
      <trkpt lat="44.30073" lon="5.65783">
        <ele>742</ele>
        <time>2019-03-08T14:27:04Z</time>
      </trkpt>
      <trkpt lat="44.30077" lon="5.65794">
        <ele>741</ele>
        <time>2019-03-08T14:27:05Z</time>
      </trkpt>
      <trkpt lat="44.30081" lon="5.65806">
        <ele>741</ele>
        <time>2019-03-08T14:27:06Z</time>
      </trkpt>
      <trkpt lat="44.30085" lon="5.65817">
        <ele>741</ele>
        <time>2019-03-08T14:27:07Z</time>
      </trkpt>
      <trkpt lat="44.3009" lon="5.65828">
        <ele>740</ele>
        <time>2019-03-08T14:27:08Z</time>
      </trkpt>
      <trkpt lat="44.30094" lon="5.65839">
        <ele>740</ele>
        <time>2019-03-08T14:27:09Z</time>
      </trkpt>
      <trkpt lat="44.30098" lon="5.6585">
        <ele>740</ele>
        <time>2019-03-08T14:27:10Z</time>
      </trkpt>
      <trkpt lat="44.30103" lon="5.65861">
        <ele>739</ele>
        <time>2019-03-08T14:27:11Z</time>
      </trkpt>
      <trkpt lat="44.30106" lon="5.65871">
        <ele>739</ele>
        <time>2019-03-08T14:27:12Z</time>
      </trkpt>
      <trkpt lat="44.3011" lon="5.65882">
        <ele>739</ele>
        <time>2019-03-08T14:27:13Z</time>
      </trkpt>
      <trkpt lat="44.30115" lon="5.65892">
        <ele>738</ele>
        <time>2019-03-08T14:27:14Z</time>
      </trkpt>
      <trkpt lat="44.30119" lon="5.65902">
        <ele>738</ele>
        <time>2019-03-08T14:27:15Z</time>
      </trkpt>
      <trkpt lat="44.30124" lon="5.65911">
        <ele>738</ele>
        <time>2019-03-08T14:27:16Z</time>
      </trkpt>
      <trkpt lat="44.30129" lon="5.65921">
        <ele>737</ele>
        <time>2019-03-08T14:27:17Z</time>
      </trkpt>
      <trkpt lat="44.30134" lon="5.65931">
        <ele>737</ele>
        <time>2019-03-08T14:27:18Z</time>
      </trkpt>
      <trkpt lat="44.30139" lon="5.65941">
        <ele>737</ele>
        <time>2019-03-08T14:27:19Z</time>
      </trkpt>
      <trkpt lat="44.30145" lon="5.65949">
        <ele>737</ele>
        <time>2019-03-08T14:27:20Z</time>
      </trkpt>
      <trkpt lat="44.30149" lon="5.65959">
        <ele>736</ele>
        <time>2019-03-08T14:27:21Z</time>
      </trkpt>
      <trkpt lat="44.30154" lon="5.65969">
        <ele>736</ele>
        <time>2019-03-08T14:27:22Z</time>
      </trkpt>
      <trkpt lat="44.30157" lon="5.65979">
        <ele>736</ele>
        <time>2019-03-08T14:27:23Z</time>
      </trkpt>
      <trkpt lat="44.30161" lon="5.65989">
        <ele>735</ele>
        <time>2019-03-08T14:27:24Z</time>
      </trkpt>
      <trkpt lat="44.30164" lon="5.66">
        <ele>735</ele>
        <time>2019-03-08T14:27:25Z</time>
      </trkpt>
      <trkpt lat="44.30167" lon="5.66012">
        <ele>735</ele>
        <time>2019-03-08T14:27:26Z</time>
      </trkpt>
      <trkpt lat="44.3017" lon="5.66023">
        <ele>735</ele>
        <time>2019-03-08T14:27:27Z</time>
      </trkpt>
      <trkpt lat="44.30173" lon="5.66034">
        <ele>734</ele>
        <time>2019-03-08T14:27:28Z</time>
      </trkpt>
      <trkpt lat="44.30174" lon="5.66046">
        <ele>734</ele>
        <time>2019-03-08T14:27:29Z</time>
      </trkpt>
      <trkpt lat="44.30176" lon="5.66057">
        <ele>734</ele>
        <time>2019-03-08T14:27:30Z</time>
      </trkpt>
      <trkpt lat="44.30178" lon="5.66068">
        <ele>733</ele>
        <time>2019-03-08T14:27:31Z</time>
      </trkpt>
      <trkpt lat="44.3018" lon="5.66079">
        <ele>733</ele>
        <time>2019-03-08T14:27:32Z</time>
      </trkpt>
      <trkpt lat="44.30183" lon="5.66089">
        <ele>732</ele>
        <time>2019-03-08T14:27:33Z</time>
      </trkpt>
      <trkpt lat="44.30186" lon="5.661">
        <ele>732</ele>
        <time>2019-03-08T14:27:34Z</time>
      </trkpt>
      <trkpt lat="44.30189" lon="5.6611">
        <ele>732</ele>
        <time>2019-03-08T14:27:35Z</time>
      </trkpt>
      <trkpt lat="44.30193" lon="5.66119">
        <ele>732</ele>
        <time>2019-03-08T14:27:36Z</time>
      </trkpt>
      <trkpt lat="44.30197" lon="5.66128">
        <ele>732</ele>
        <time>2019-03-08T14:27:37Z</time>
      </trkpt>
      <trkpt lat="44.30201" lon="5.66137">
        <ele>731</ele>
        <time>2019-03-08T14:27:38Z</time>
      </trkpt>
      <trkpt lat="44.30205" lon="5.66147">
        <ele>731</ele>
        <time>2019-03-08T14:27:39Z</time>
      </trkpt>
      <trkpt lat="44.3021" lon="5.66156">
        <ele>731</ele>
        <time>2019-03-08T14:27:40Z</time>
      </trkpt>
      <trkpt lat="44.30214" lon="5.66165">
        <ele>731</ele>
        <time>2019-03-08T14:27:41Z</time>
      </trkpt>
      <trkpt lat="44.30219" lon="5.66174">
        <ele>731</ele>
        <time>2019-03-08T14:27:42Z</time>
      </trkpt>
      <trkpt lat="44.30224" lon="5.66183">
        <ele>730</ele>
        <time>2019-03-08T14:27:43Z</time>
      </trkpt>
      <trkpt lat="44.30229" lon="5.66192">
        <ele>730</ele>
        <time>2019-03-08T14:27:44Z</time>
      </trkpt>
      <trkpt lat="44.30234" lon="5.66201">
        <ele>730</ele>
        <time>2019-03-08T14:27:45Z</time>
      </trkpt>
      <trkpt lat="44.30239" lon="5.6621">
        <ele>730</ele>
        <time>2019-03-08T14:27:46Z</time>
      </trkpt>
      <trkpt lat="44.30244" lon="5.66219">
        <ele>730</ele>
        <time>2019-03-08T14:27:47Z</time>
      </trkpt>
      <trkpt lat="44.30249" lon="5.66228">
        <ele>730</ele>
        <time>2019-03-08T14:27:48Z</time>
      </trkpt>
      <trkpt lat="44.30254" lon="5.66237">
        <ele>730</ele>
        <time>2019-03-08T14:27:49Z</time>
      </trkpt>
      <trkpt lat="44.30258" lon="5.66246">
        <ele>730</ele>
        <time>2019-03-08T14:27:50Z</time>
      </trkpt>
      <trkpt lat="44.30263" lon="5.66255">
        <ele>730</ele>
        <time>2019-03-08T14:27:51Z</time>
      </trkpt>
      <trkpt lat="44.30268" lon="5.66265">
        <ele>730</ele>
        <time>2019-03-08T14:27:52Z</time>
      </trkpt>
      <trkpt lat="44.30272" lon="5.66275">
        <ele>729</ele>
        <time>2019-03-08T14:27:53Z</time>
      </trkpt>
      <trkpt lat="44.30275" lon="5.66286">
        <ele>729</ele>
        <time>2019-03-08T14:27:54Z</time>
      </trkpt>
      <trkpt lat="44.30278" lon="5.66298">
        <ele>729</ele>
        <time>2019-03-08T14:27:55Z</time>
      </trkpt>
      <trkpt lat="44.3028" lon="5.6631">
        <ele>729</ele>
        <time>2019-03-08T14:27:56Z</time>
      </trkpt>
      <trkpt lat="44.30282" lon="5.66322">
        <ele>728</ele>
        <time>2019-03-08T14:27:57Z</time>
      </trkpt>
      <trkpt lat="44.30284" lon="5.66334">
        <ele>728</ele>
        <time>2019-03-08T14:27:58Z</time>
      </trkpt>
      <trkpt lat="44.30286" lon="5.66346">
        <ele>728</ele>
        <time>2019-03-08T14:27:59Z</time>
      </trkpt>
      <trkpt lat="44.30287" lon="5.66358">
        <ele>727</ele>
        <time>2019-03-08T14:28:00Z</time>
      </trkpt>
      <trkpt lat="44.30289" lon="5.6637">
        <ele>727</ele>
        <time>2019-03-08T14:28:01Z</time>
      </trkpt>
      <trkpt lat="44.30291" lon="5.66382">
        <ele>726</ele>
        <time>2019-03-08T14:28:02Z</time>
      </trkpt>
      <trkpt lat="44.30292" lon="5.66394">
        <ele>726</ele>
        <time>2019-03-08T14:28:03Z</time>
      </trkpt>
      <trkpt lat="44.30294" lon="5.66405">
        <ele>725</ele>
        <time>2019-03-08T14:28:04Z</time>
      </trkpt>
      <trkpt lat="44.30297" lon="5.66417">
        <ele>725</ele>
        <time>2019-03-08T14:28:05Z</time>
      </trkpt>
      <trkpt lat="44.303" lon="5.66427">
        <ele>725</ele>
        <time>2019-03-08T14:28:06Z</time>
      </trkpt>
      <trkpt lat="44.30304" lon="5.66437">
        <ele>724</ele>
        <time>2019-03-08T14:28:07Z</time>
      </trkpt>
      <trkpt lat="44.30308" lon="5.66447">
        <ele>724</ele>
        <time>2019-03-08T14:28:08Z</time>
      </trkpt>
      <trkpt lat="44.30312" lon="5.66456">
        <ele>724</ele>
        <time>2019-03-08T14:28:09Z</time>
      </trkpt>
      <trkpt lat="44.30317" lon="5.66464">
        <ele>723</ele>
        <time>2019-03-08T14:28:10Z</time>
      </trkpt>
      <trkpt lat="44.30323" lon="5.66472">
        <ele>723</ele>
        <time>2019-03-08T14:28:11Z</time>
      </trkpt>
      <trkpt lat="44.30328" lon="5.66479">
        <ele>723</ele>
        <time>2019-03-08T14:28:12Z</time>
      </trkpt>
      <trkpt lat="44.30333" lon="5.66487">
        <ele>722</ele>
        <time>2019-03-08T14:28:13Z</time>
      </trkpt>
      <trkpt lat="44.30339" lon="5.66493">
        <ele>722</ele>
        <time>2019-03-08T14:28:14Z</time>
      </trkpt>
      <trkpt lat="44.30346" lon="5.665">
        <ele>721</ele>
        <time>2019-03-08T14:28:15Z</time>
      </trkpt>
      <trkpt lat="44.30353" lon="5.66505">
        <ele>721</ele>
        <time>2019-03-08T14:28:16Z</time>
      </trkpt>
      <trkpt lat="44.3036" lon="5.66511">
        <ele>720</ele>
        <time>2019-03-08T14:28:17Z</time>
      </trkpt>
      <trkpt lat="44.30367" lon="5.66518">
        <ele>719</ele>
        <time>2019-03-08T14:28:18Z</time>
      </trkpt>
      <trkpt lat="44.30374" lon="5.66524">
        <ele>719</ele>
        <time>2019-03-08T14:28:19Z</time>
      </trkpt>
      <trkpt lat="44.30381" lon="5.6653">
        <ele>719</ele>
        <time>2019-03-08T14:28:20Z</time>
      </trkpt>
      <trkpt lat="44.30387" lon="5.66536">
        <ele>718</ele>
        <time>2019-03-08T14:28:21Z</time>
      </trkpt>
      <trkpt lat="44.30394" lon="5.66541">
        <ele>718</ele>
        <time>2019-03-08T14:28:22Z</time>
      </trkpt>
      <trkpt lat="44.30401" lon="5.66547">
        <ele>717</ele>
        <time>2019-03-08T14:28:23Z</time>
      </trkpt>
      <trkpt lat="44.30408" lon="5.66551">
        <ele>717</ele>
        <time>2019-03-08T14:28:24Z</time>
      </trkpt>
      <trkpt lat="44.30416" lon="5.66555">
        <ele>717</ele>
        <time>2019-03-08T14:28:25Z</time>
      </trkpt>
      <trkpt lat="44.30424" lon="5.66558">
        <ele>717</ele>
        <time>2019-03-08T14:28:26Z</time>
      </trkpt>
      <trkpt lat="44.30431" lon="5.6656">
        <ele>717</ele>
        <time>2019-03-08T14:28:27Z</time>
      </trkpt>
      <trkpt lat="44.3044" lon="5.66561">
        <ele>717</ele>
        <time>2019-03-08T14:28:28Z</time>
      </trkpt>
      <trkpt lat="44.30448" lon="5.66562">
        <ele>717</ele>
        <time>2019-03-08T14:28:29Z</time>
      </trkpt>
      <trkpt lat="44.30456" lon="5.66562">
        <ele>717</ele>
        <time>2019-03-08T14:28:30Z</time>
      </trkpt>
      <trkpt lat="44.30464" lon="5.6656">
        <ele>717</ele>
        <time>2019-03-08T14:28:31Z</time>
      </trkpt>
      <trkpt lat="44.30472" lon="5.66558">
        <ele>717</ele>
        <time>2019-03-08T14:28:32Z</time>
      </trkpt>
      <trkpt lat="44.30479" lon="5.66557">
        <ele>717</ele>
        <time>2019-03-08T14:28:33Z</time>
      </trkpt>
      <trkpt lat="44.30487" lon="5.66555">
        <ele>717</ele>
        <time>2019-03-08T14:28:34Z</time>
      </trkpt>
      <trkpt lat="44.30495" lon="5.66553">
        <ele>717</ele>
        <time>2019-03-08T14:28:35Z</time>
      </trkpt>
      <trkpt lat="44.30503" lon="5.66551">
        <ele>717</ele>
        <time>2019-03-08T14:28:36Z</time>
      </trkpt>
      <trkpt lat="44.3051" lon="5.6655">
        <ele>717</ele>
        <time>2019-03-08T14:28:37Z</time>
      </trkpt>
      <trkpt lat="44.30518" lon="5.6655">
        <ele>717</ele>
        <time>2019-03-08T14:28:38Z</time>
      </trkpt>
      <trkpt lat="44.30526" lon="5.6655">
        <ele>717</ele>
        <time>2019-03-08T14:28:39Z</time>
      </trkpt>
      <trkpt lat="44.30533" lon="5.66551">
        <ele>717</ele>
        <time>2019-03-08T14:28:40Z</time>
      </trkpt>
      <trkpt lat="44.3054" lon="5.66552">
        <ele>717</ele>
        <time>2019-03-08T14:28:41Z</time>
      </trkpt>
      <trkpt lat="44.30547" lon="5.66556">
        <ele>717</ele>
        <time>2019-03-08T14:28:42Z</time>
      </trkpt>
      <trkpt lat="44.30554" lon="5.66559">
        <ele>717</ele>
        <time>2019-03-08T14:28:43Z</time>
      </trkpt>
      <trkpt lat="44.3056" lon="5.66564">
        <ele>717</ele>
        <time>2019-03-08T14:28:44Z</time>
      </trkpt>
      <trkpt lat="44.30566" lon="5.6657">
        <ele>717</ele>
        <time>2019-03-08T14:28:45Z</time>
      </trkpt>
      <trkpt lat="44.30572" lon="5.66575">
        <ele>717</ele>
        <time>2019-03-08T14:28:46Z</time>
      </trkpt>
      <trkpt lat="44.30578" lon="5.66581">
        <ele>717</ele>
        <time>2019-03-08T14:28:47Z</time>
      </trkpt>
      <trkpt lat="44.30584" lon="5.66587">
        <ele>717</ele>
        <time>2019-03-08T14:28:48Z</time>
      </trkpt>
      <trkpt lat="44.3059" lon="5.66593">
        <ele>717</ele>
        <time>2019-03-08T14:28:49Z</time>
      </trkpt>
      <trkpt lat="44.30596" lon="5.666">
        <ele>717</ele>
        <time>2019-03-08T14:28:50Z</time>
      </trkpt>
      <trkpt lat="44.30602" lon="5.66607">
        <ele>717</ele>
        <time>2019-03-08T14:28:51Z</time>
      </trkpt>
      <trkpt lat="44.30608" lon="5.66613">
        <ele>717</ele>
        <time>2019-03-08T14:28:52Z</time>
      </trkpt>
      <trkpt lat="44.30615" lon="5.66621">
        <ele>717</ele>
        <time>2019-03-08T14:28:53Z</time>
      </trkpt>
      <trkpt lat="44.30621" lon="5.66629">
        <ele>717</ele>
        <time>2019-03-08T14:28:54Z</time>
      </trkpt>
      <trkpt lat="44.30627" lon="5.66637">
        <ele>717</ele>
        <time>2019-03-08T14:28:55Z</time>
      </trkpt>
      <trkpt lat="44.30634" lon="5.66644">
        <ele>717</ele>
        <time>2019-03-08T14:28:56Z</time>
      </trkpt>
      <trkpt lat="44.3064" lon="5.66653">
        <ele>717</ele>
        <time>2019-03-08T14:28:57Z</time>
      </trkpt>
      <trkpt lat="44.30646" lon="5.66661">
        <ele>717</ele>
        <time>2019-03-08T14:28:58Z</time>
      </trkpt>
      <trkpt lat="44.30652" lon="5.66669">
        <ele>717</ele>
        <time>2019-03-08T14:28:59Z</time>
      </trkpt>
      <trkpt lat="44.30658" lon="5.66678">
        <ele>717</ele>
        <time>2019-03-08T14:29:00Z</time>
      </trkpt>
      <trkpt lat="44.30663" lon="5.66685">
        <ele>717</ele>
        <time>2019-03-08T14:29:01Z</time>
      </trkpt>
      <trkpt lat="44.30669" lon="5.66692">
        <ele>717</ele>
        <time>2019-03-08T14:29:02Z</time>
      </trkpt>
      <trkpt lat="44.30676" lon="5.66699">
        <ele>717</ele>
        <time>2019-03-08T14:29:03Z</time>
      </trkpt>
      <trkpt lat="44.30682" lon="5.66705">
        <ele>717</ele>
        <time>2019-03-08T14:29:04Z</time>
      </trkpt>
      <trkpt lat="44.30689" lon="5.66711">
        <ele>717</ele>
        <time>2019-03-08T14:29:05Z</time>
      </trkpt>
      <trkpt lat="44.30696" lon="5.66715">
        <ele>717</ele>
        <time>2019-03-08T14:29:06Z</time>
      </trkpt>
      <trkpt lat="44.30704" lon="5.66719">
        <ele>717</ele>
        <time>2019-03-08T14:29:07Z</time>
      </trkpt>
      <trkpt lat="44.30711" lon="5.66723">
        <ele>717</ele>
        <time>2019-03-08T14:29:08Z</time>
      </trkpt>
      <trkpt lat="44.30718" lon="5.66726">
        <ele>717</ele>
        <time>2019-03-08T14:29:09Z</time>
      </trkpt>
      <trkpt lat="44.30724" lon="5.66729">
        <ele>717</ele>
        <time>2019-03-08T14:29:10Z</time>
      </trkpt>
      <trkpt lat="44.30732" lon="5.66732">
        <ele>717</ele>
        <time>2019-03-08T14:29:11Z</time>
      </trkpt>
      <trkpt lat="44.30738" lon="5.66735">
        <ele>717</ele>
        <time>2019-03-08T14:29:12Z</time>
      </trkpt>
      <trkpt lat="44.30746" lon="5.66738">
        <ele>717</ele>
        <time>2019-03-08T14:29:13Z</time>
      </trkpt>
      <trkpt lat="44.30753" lon="5.66742">
        <ele>717</ele>
        <time>2019-03-08T14:29:14Z</time>
      </trkpt>
      <trkpt lat="44.30759" lon="5.66747">
        <ele>717</ele>
        <time>2019-03-08T14:29:15Z</time>
      </trkpt>
      <trkpt lat="44.30766" lon="5.66752">
        <ele>717</ele>
        <time>2019-03-08T14:29:16Z</time>
      </trkpt>
      <trkpt lat="44.30772" lon="5.66757">
        <ele>717</ele>
        <time>2019-03-08T14:29:17Z</time>
      </trkpt>
      <trkpt lat="44.30778" lon="5.66762">
        <ele>717</ele>
        <time>2019-03-08T14:29:18Z</time>
      </trkpt>
      <trkpt lat="44.30784" lon="5.66768">
        <ele>717</ele>
        <time>2019-03-08T14:29:19Z</time>
      </trkpt>
      <trkpt lat="44.3079" lon="5.66773">
        <ele>717</ele>
        <time>2019-03-08T14:29:20Z</time>
      </trkpt>
      <trkpt lat="44.30796" lon="5.66779">
        <ele>717</ele>
        <time>2019-03-08T14:29:21Z</time>
      </trkpt>
      <trkpt lat="44.30802" lon="5.66784">
        <ele>717</ele>
        <time>2019-03-08T14:29:22Z</time>
      </trkpt>
      <trkpt lat="44.30807" lon="5.6679">
        <ele>717</ele>
        <time>2019-03-08T14:29:23Z</time>
      </trkpt>
      <trkpt lat="44.30813" lon="5.66796">
        <ele>717</ele>
        <time>2019-03-08T14:29:24Z</time>
      </trkpt>
      <trkpt lat="44.30819" lon="5.66802">
        <ele>717</ele>
        <time>2019-03-08T14:29:25Z</time>
      </trkpt>
      <trkpt lat="44.30825" lon="5.66808">
        <ele>717</ele>
        <time>2019-03-08T14:29:26Z</time>
      </trkpt>
      <trkpt lat="44.3083" lon="5.66813">
        <ele>717</ele>
        <time>2019-03-08T14:29:27Z</time>
      </trkpt>
      <trkpt lat="44.30836" lon="5.66819">
        <ele>717</ele>
        <time>2019-03-08T14:29:28Z</time>
      </trkpt>
      <trkpt lat="44.30842" lon="5.66825">
        <ele>717</ele>
        <time>2019-03-08T14:29:29Z</time>
      </trkpt>
      <trkpt lat="44.30849" lon="5.66831">
        <ele>716</ele>
        <time>2019-03-08T14:29:30Z</time>
      </trkpt>
      <trkpt lat="44.30855" lon="5.66837">
        <ele>716</ele>
        <time>2019-03-08T14:29:31Z</time>
      </trkpt>
      <trkpt lat="44.30862" lon="5.66844">
        <ele>716</ele>
        <time>2019-03-08T14:29:32Z</time>
      </trkpt>
      <trkpt lat="44.30868" lon="5.66851">
        <ele>716</ele>
        <time>2019-03-08T14:29:33Z</time>
      </trkpt>
      <trkpt lat="44.30874" lon="5.66858">
        <ele>716</ele>
        <time>2019-03-08T14:29:34Z</time>
      </trkpt>
      <trkpt lat="44.3088" lon="5.66866">
        <ele>715</ele>
        <time>2019-03-08T14:29:35Z</time>
      </trkpt>
      <trkpt lat="44.30885" lon="5.66875">
        <ele>715</ele>
        <time>2019-03-08T14:29:36Z</time>
      </trkpt>
      <trkpt lat="44.30891" lon="5.66883">
        <ele>715</ele>
        <time>2019-03-08T14:29:37Z</time>
      </trkpt>
      <trkpt lat="44.30897" lon="5.66891">
        <ele>715</ele>
        <time>2019-03-08T14:29:38Z</time>
      </trkpt>
      <trkpt lat="44.30903" lon="5.669">
        <ele>715</ele>
        <time>2019-03-08T14:29:39Z</time>
      </trkpt>
      <trkpt lat="44.30908" lon="5.66908">
        <ele>714</ele>
        <time>2019-03-08T14:29:40Z</time>
      </trkpt>
      <trkpt lat="44.30914" lon="5.66917">
        <ele>714</ele>
        <time>2019-03-08T14:29:41Z</time>
      </trkpt>
      <trkpt lat="44.30919" lon="5.66926">
        <ele>714</ele>
        <time>2019-03-08T14:29:42Z</time>
      </trkpt>
      <trkpt lat="44.30925" lon="5.66935">
        <ele>714</ele>
        <time>2019-03-08T14:29:43Z</time>
      </trkpt>
      <trkpt lat="44.3093" lon="5.66944">
        <ele>713</ele>
        <time>2019-03-08T14:29:44Z</time>
      </trkpt>
      <trkpt lat="44.30936" lon="5.66953">
        <ele>713</ele>
        <time>2019-03-08T14:29:45Z</time>
      </trkpt>
      <trkpt lat="44.30941" lon="5.66963">
        <ele>713</ele>
        <time>2019-03-08T14:29:46Z</time>
      </trkpt>
      <trkpt lat="44.30945" lon="5.66972">
        <ele>712</ele>
        <time>2019-03-08T14:29:47Z</time>
      </trkpt>
      <trkpt lat="44.30949" lon="5.66982">
        <ele>712</ele>
        <time>2019-03-08T14:29:48Z</time>
      </trkpt>
      <trkpt lat="44.30954" lon="5.66992">
        <ele>712</ele>
        <time>2019-03-08T14:29:49Z</time>
      </trkpt>
      <trkpt lat="44.30959" lon="5.67001">
        <ele>712</ele>
        <time>2019-03-08T14:29:50Z</time>
      </trkpt>
      <trkpt lat="44.30964" lon="5.6701">
        <ele>711</ele>
        <time>2019-03-08T14:29:51Z</time>
      </trkpt>
      <trkpt lat="44.3097" lon="5.67019">
        <ele>711</ele>
        <time>2019-03-08T14:29:52Z</time>
      </trkpt>
      <trkpt lat="44.30976" lon="5.67029">
        <ele>711</ele>
        <time>2019-03-08T14:29:53Z</time>
      </trkpt>
      <trkpt lat="44.30982" lon="5.67037">
        <ele>711</ele>
        <time>2019-03-08T14:29:54Z</time>
      </trkpt>
      <trkpt lat="44.30987" lon="5.67046">
        <ele>711</ele>
        <time>2019-03-08T14:29:55Z</time>
      </trkpt>
      <trkpt lat="44.30994" lon="5.67055">
        <ele>711</ele>
        <time>2019-03-08T14:29:56Z</time>
      </trkpt>
      <trkpt lat="44.30999" lon="5.67063">
        <ele>711</ele>
        <time>2019-03-08T14:29:57Z</time>
      </trkpt>
      <trkpt lat="44.31005" lon="5.67071">
        <ele>710</ele>
        <time>2019-03-08T14:29:58Z</time>
      </trkpt>
      <trkpt lat="44.31012" lon="5.67078">
        <ele>710</ele>
        <time>2019-03-08T14:29:59Z</time>
      </trkpt>
      <trkpt lat="44.31017" lon="5.67087">
        <ele>710</ele>
        <time>2019-03-08T14:30:00Z</time>
      </trkpt>
      <trkpt lat="44.31024" lon="5.67094">
        <ele>710</ele>
        <time>2019-03-08T14:30:01Z</time>
      </trkpt>
      <trkpt lat="44.3103" lon="5.67101">
        <ele>710</ele>
        <time>2019-03-08T14:30:02Z</time>
      </trkpt>
      <trkpt lat="44.31037" lon="5.67107">
        <ele>709</ele>
        <time>2019-03-08T14:30:03Z</time>
      </trkpt>
      <trkpt lat="44.31043" lon="5.67114">
        <ele>709</ele>
        <time>2019-03-08T14:30:04Z</time>
      </trkpt>
      <trkpt lat="44.3105" lon="5.67121">
        <ele>709</ele>
        <time>2019-03-08T14:30:05Z</time>
      </trkpt>
      <trkpt lat="44.31057" lon="5.67127">
        <ele>709</ele>
        <time>2019-03-08T14:30:06Z</time>
      </trkpt>
      <trkpt lat="44.31063" lon="5.67133">
        <ele>709</ele>
        <time>2019-03-08T14:30:07Z</time>
      </trkpt>
      <trkpt lat="44.3107" lon="5.67138">
        <ele>709</ele>
        <time>2019-03-08T14:30:08Z</time>
      </trkpt>
      <trkpt lat="44.31076" lon="5.67143">
        <ele>708</ele>
        <time>2019-03-08T14:30:09Z</time>
      </trkpt>
      <trkpt lat="44.31083" lon="5.67148">
        <ele>708</ele>
        <time>2019-03-08T14:30:10Z</time>
      </trkpt>
      <trkpt lat="44.3109" lon="5.67154">
        <ele>708</ele>
        <time>2019-03-08T14:30:11Z</time>
      </trkpt>
      <trkpt lat="44.31097" lon="5.67159">
        <ele>708</ele>
        <time>2019-03-08T14:30:12Z</time>
      </trkpt>
      <trkpt lat="44.31103" lon="5.67163">
        <ele>708</ele>
        <time>2019-03-08T14:30:13Z</time>
      </trkpt>
      <trkpt lat="44.31109" lon="5.67167">
        <ele>708</ele>
        <time>2019-03-08T14:30:14Z</time>
      </trkpt>
      <trkpt lat="44.31116" lon="5.67171">
        <ele>708</ele>
        <time>2019-03-08T14:30:15Z</time>
      </trkpt>
      <trkpt lat="44.31123" lon="5.67174">
        <ele>708</ele>
        <time>2019-03-08T14:30:16Z</time>
      </trkpt>
      <trkpt lat="44.31129" lon="5.67178">
        <ele>708</ele>
        <time>2019-03-08T14:30:17Z</time>
      </trkpt>
      <trkpt lat="44.31136" lon="5.67183">
        <ele>708</ele>
        <time>2019-03-08T14:30:18Z</time>
      </trkpt>
      <trkpt lat="44.31143" lon="5.67187">
        <ele>708</ele>
        <time>2019-03-08T14:30:19Z</time>
      </trkpt>
      <trkpt lat="44.3115" lon="5.67192">
        <ele>708</ele>
        <time>2019-03-08T14:30:20Z</time>
      </trkpt>
      <trkpt lat="44.31156" lon="5.67197">
        <ele>708</ele>
        <time>2019-03-08T14:30:21Z</time>
      </trkpt>
      <trkpt lat="44.31163" lon="5.67201">
        <ele>708</ele>
        <time>2019-03-08T14:30:22Z</time>
      </trkpt>
      <trkpt lat="44.31169" lon="5.67206">
        <ele>708</ele>
        <time>2019-03-08T14:30:23Z</time>
      </trkpt>
      <trkpt lat="44.31175" lon="5.67211">
        <ele>708</ele>
        <time>2019-03-08T14:30:24Z</time>
      </trkpt>
      <trkpt lat="44.31182" lon="5.67217">
        <ele>708</ele>
        <time>2019-03-08T14:30:25Z</time>
      </trkpt>
      <trkpt lat="44.31188" lon="5.67222">
        <ele>708</ele>
        <time>2019-03-08T14:30:26Z</time>
      </trkpt>
      <trkpt lat="44.31195" lon="5.67229">
        <ele>707</ele>
        <time>2019-03-08T14:30:27Z</time>
      </trkpt>
      <trkpt lat="44.31201" lon="5.67235">
        <ele>707</ele>
        <time>2019-03-08T14:30:28Z</time>
      </trkpt>
      <trkpt lat="44.31208" lon="5.67242">
        <ele>707</ele>
        <time>2019-03-08T14:30:29Z</time>
      </trkpt>
      <trkpt lat="44.31214" lon="5.67249">
        <ele>707</ele>
        <time>2019-03-08T14:30:30Z</time>
      </trkpt>
      <trkpt lat="44.3122" lon="5.67257">
        <ele>706</ele>
        <time>2019-03-08T14:30:31Z</time>
      </trkpt>
      <trkpt lat="44.31226" lon="5.67264">
        <ele>706</ele>
        <time>2019-03-08T14:30:32Z</time>
      </trkpt>
      <trkpt lat="44.31232" lon="5.67272">
        <ele>706</ele>
        <time>2019-03-08T14:30:33Z</time>
      </trkpt>
      <trkpt lat="44.31238" lon="5.67281">
        <ele>706</ele>
        <time>2019-03-08T14:30:34Z</time>
      </trkpt>
      <trkpt lat="44.31244" lon="5.67289">
        <ele>705</ele>
        <time>2019-03-08T14:30:35Z</time>
      </trkpt>
      <trkpt lat="44.3125" lon="5.67297">
        <ele>705</ele>
        <time>2019-03-08T14:30:36Z</time>
      </trkpt>
      <trkpt lat="44.31256" lon="5.67306">
        <ele>705</ele>
        <time>2019-03-08T14:30:37Z</time>
      </trkpt>
      <trkpt lat="44.31262" lon="5.67314">
        <ele>705</ele>
        <time>2019-03-08T14:30:38Z</time>
      </trkpt>
      <trkpt lat="44.31268" lon="5.67322">
        <ele>705</ele>
        <time>2019-03-08T14:30:39Z</time>
      </trkpt>
      <trkpt lat="44.31273" lon="5.6733">
        <ele>705</ele>
        <time>2019-03-08T14:30:40Z</time>
      </trkpt>
      <trkpt lat="44.31279" lon="5.67338">
        <ele>705</ele>
        <time>2019-03-08T14:30:41Z</time>
      </trkpt>
      <trkpt lat="44.31284" lon="5.67347">
        <ele>704</ele>
        <time>2019-03-08T14:30:42Z</time>
      </trkpt>
      <trkpt lat="44.3129" lon="5.67355">
        <ele>704</ele>
        <time>2019-03-08T14:30:43Z</time>
      </trkpt>
      <trkpt lat="44.31295" lon="5.67364">
        <ele>704</ele>
        <time>2019-03-08T14:30:44Z</time>
      </trkpt>
      <trkpt lat="44.313" lon="5.67372">
        <ele>704</ele>
        <time>2019-03-08T14:30:45Z</time>
      </trkpt>
      <trkpt lat="44.31305" lon="5.67381">
        <ele>704</ele>
        <time>2019-03-08T14:30:46Z</time>
      </trkpt>
      <trkpt lat="44.3131" lon="5.67389">
        <ele>704</ele>
        <time>2019-03-08T14:30:47Z</time>
      </trkpt>
      <trkpt lat="44.31315" lon="5.67399">
        <ele>704</ele>
        <time>2019-03-08T14:30:48Z</time>
      </trkpt>
      <trkpt lat="44.31319" lon="5.67408">
        <ele>704</ele>
        <time>2019-03-08T14:30:49Z</time>
      </trkpt>
      <trkpt lat="44.31324" lon="5.67418">
        <ele>704</ele>
        <time>2019-03-08T14:30:50Z</time>
      </trkpt>
      <trkpt lat="44.31328" lon="5.67428">
        <ele>704</ele>
        <time>2019-03-08T14:30:51Z</time>
      </trkpt>
      <trkpt lat="44.31332" lon="5.67437">
        <ele>704</ele>
        <time>2019-03-08T14:30:52Z</time>
      </trkpt>
      <trkpt lat="44.31337" lon="5.67447">
        <ele>704</ele>
        <time>2019-03-08T14:30:53Z</time>
      </trkpt>
      <trkpt lat="44.31342" lon="5.67457">
        <ele>704</ele>
        <time>2019-03-08T14:30:54Z</time>
      </trkpt>
      <trkpt lat="44.31347" lon="5.67466">
        <ele>704</ele>
        <time>2019-03-08T14:30:55Z</time>
      </trkpt>
      <trkpt lat="44.31352" lon="5.67476">
        <ele>704</ele>
        <time>2019-03-08T14:30:56Z</time>
      </trkpt>
      <trkpt lat="44.31357" lon="5.67485">
        <ele>704</ele>
        <time>2019-03-08T14:30:57Z</time>
      </trkpt>
      <trkpt lat="44.31361" lon="5.67495">
        <ele>704</ele>
        <time>2019-03-08T14:30:58Z</time>
      </trkpt>
      <trkpt lat="44.31365" lon="5.67506">
        <ele>703</ele>
        <time>2019-03-08T14:30:59Z</time>
      </trkpt>
      <trkpt lat="44.31369" lon="5.67518">
        <ele>703</ele>
        <time>2019-03-08T14:31:00Z</time>
      </trkpt>
      <trkpt lat="44.31373" lon="5.67529">
        <ele>703</ele>
        <time>2019-03-08T14:31:01Z</time>
      </trkpt>
      <trkpt lat="44.31376" lon="5.67541">
        <ele>703</ele>
        <time>2019-03-08T14:31:02Z</time>
      </trkpt>
      <trkpt lat="44.31379" lon="5.67553">
        <ele>702</ele>
        <time>2019-03-08T14:31:03Z</time>
      </trkpt>
      <trkpt lat="44.31382" lon="5.67565">
        <ele>702</ele>
        <time>2019-03-08T14:31:04Z</time>
      </trkpt>
      <trkpt lat="44.31385" lon="5.67577">
        <ele>702</ele>
        <time>2019-03-08T14:31:05Z</time>
      </trkpt>
      <trkpt lat="44.31387" lon="5.67589">
        <ele>701</ele>
        <time>2019-03-08T14:31:06Z</time>
      </trkpt>
      <trkpt lat="44.31389" lon="5.67602">
        <ele>701</ele>
        <time>2019-03-08T14:31:07Z</time>
      </trkpt>
      <trkpt lat="44.3139" lon="5.67614">
        <ele>700</ele>
        <time>2019-03-08T14:31:08Z</time>
      </trkpt>
      <trkpt lat="44.31392" lon="5.67626">
        <ele>700</ele>
        <time>2019-03-08T14:31:09Z</time>
      </trkpt>
      <trkpt lat="44.31393" lon="5.67638">
        <ele>700</ele>
        <time>2019-03-08T14:31:10Z</time>
      </trkpt>
      <trkpt lat="44.31394" lon="5.67651">
        <ele>700</ele>
        <time>2019-03-08T14:31:11Z</time>
      </trkpt>
      <trkpt lat="44.31395" lon="5.67664">
        <ele>700</ele>
        <time>2019-03-08T14:31:12Z</time>
      </trkpt>
      <trkpt lat="44.31397" lon="5.67676">
        <ele>700</ele>
        <time>2019-03-08T14:31:13Z</time>
      </trkpt>
      <trkpt lat="44.31398" lon="5.67689">
        <ele>700</ele>
        <time>2019-03-08T14:31:14Z</time>
      </trkpt>
      <trkpt lat="44.31398" lon="5.67701">
        <ele>700</ele>
        <time>2019-03-08T14:31:15Z</time>
      </trkpt>
      <trkpt lat="44.31399" lon="5.67713">
        <ele>700</ele>
        <time>2019-03-08T14:31:16Z</time>
      </trkpt>
      <trkpt lat="44.314" lon="5.67724">
        <ele>700</ele>
        <time>2019-03-08T14:31:17Z</time>
      </trkpt>
      <trkpt lat="44.31401" lon="5.67735">
        <ele>700</ele>
        <time>2019-03-08T14:31:18Z</time>
      </trkpt>
      <trkpt lat="44.31402" lon="5.67746">
        <ele>700</ele>
        <time>2019-03-08T14:31:19Z</time>
      </trkpt>
      <trkpt lat="44.31403" lon="5.67757">
        <ele>700</ele>
        <time>2019-03-08T14:31:20Z</time>
      </trkpt>
      <trkpt lat="44.31403" lon="5.67768">
        <ele>699</ele>
        <time>2019-03-08T14:31:21Z</time>
      </trkpt>
      <trkpt lat="44.31404" lon="5.6778">
        <ele>699</ele>
        <time>2019-03-08T14:31:22Z</time>
      </trkpt>
      <trkpt lat="44.31404" lon="5.67792">
        <ele>699</ele>
        <time>2019-03-08T14:31:23Z</time>
      </trkpt>
      <trkpt lat="44.31405" lon="5.67804">
        <ele>698</ele>
        <time>2019-03-08T14:31:24Z</time>
      </trkpt>
      <trkpt lat="44.31406" lon="5.67816">
        <ele>698</ele>
        <time>2019-03-08T14:31:25Z</time>
      </trkpt>
      <trkpt lat="44.31407" lon="5.67828">
        <ele>698</ele>
        <time>2019-03-08T14:31:26Z</time>
      </trkpt>
      <trkpt lat="44.31409" lon="5.67841">
        <ele>698</ele>
        <time>2019-03-08T14:31:27Z</time>
      </trkpt>
      <trkpt lat="44.3141" lon="5.67853">
        <ele>698</ele>
        <time>2019-03-08T14:31:28Z</time>
      </trkpt>
      <trkpt lat="44.3141" lon="5.67865">
        <ele>698</ele>
        <time>2019-03-08T14:31:29Z</time>
      </trkpt>
      <trkpt lat="44.3141" lon="5.67877">
        <ele>697</ele>
        <time>2019-03-08T14:31:30Z</time>
      </trkpt>
      <trkpt lat="44.31411" lon="5.67889">
        <ele>697</ele>
        <time>2019-03-08T14:31:31Z</time>
      </trkpt>
      <trkpt lat="44.31411" lon="5.67901">
        <ele>697</ele>
        <time>2019-03-08T14:31:32Z</time>
      </trkpt>
      <trkpt lat="44.3141" lon="5.67913">
        <ele>697</ele>
        <time>2019-03-08T14:31:33Z</time>
      </trkpt>
      <trkpt lat="44.3141" lon="5.67925">
        <ele>697</ele>
        <time>2019-03-08T14:31:34Z</time>
      </trkpt>
      <trkpt lat="44.3141" lon="5.67937">
        <ele>697</ele>
        <time>2019-03-08T14:31:35Z</time>
      </trkpt>
      <trkpt lat="44.3141" lon="5.67949">
        <ele>697</ele>
        <time>2019-03-08T14:31:36Z</time>
      </trkpt>
      <trkpt lat="44.3141" lon="5.67961">
        <ele>697</ele>
        <time>2019-03-08T14:31:37Z</time>
      </trkpt>
      <trkpt lat="44.3141" lon="5.67973">
        <ele>697</ele>
        <time>2019-03-08T14:31:38Z</time>
      </trkpt>
      <trkpt lat="44.3141" lon="5.67985">
        <ele>697</ele>
        <time>2019-03-08T14:31:39Z</time>
      </trkpt>
      <trkpt lat="44.3141" lon="5.67997">
        <ele>697</ele>
        <time>2019-03-08T14:31:40Z</time>
      </trkpt>
      <trkpt lat="44.31409" lon="5.68009">
        <ele>697</ele>
        <time>2019-03-08T14:31:41Z</time>
      </trkpt>
      <trkpt lat="44.31409" lon="5.6802">
        <ele>697</ele>
        <time>2019-03-08T14:31:42Z</time>
      </trkpt>
      <trkpt lat="44.31409" lon="5.68032">
        <ele>697</ele>
        <time>2019-03-08T14:31:43Z</time>
      </trkpt>
      <trkpt lat="44.31409" lon="5.68044">
        <ele>697</ele>
        <time>2019-03-08T14:31:44Z</time>
      </trkpt>
      <trkpt lat="44.31409" lon="5.68056">
        <ele>697</ele>
        <time>2019-03-08T14:31:45Z</time>
      </trkpt>
      <trkpt lat="44.31408" lon="5.68067">
        <ele>697</ele>
        <time>2019-03-08T14:31:46Z</time>
      </trkpt>
      <trkpt lat="44.31407" lon="5.68078">
        <ele>697</ele>
        <time>2019-03-08T14:31:47Z</time>
      </trkpt>
      <trkpt lat="44.31406" lon="5.68089">
        <ele>697</ele>
        <time>2019-03-08T14:31:48Z</time>
      </trkpt>
      <trkpt lat="44.31405" lon="5.68099">
        <ele>697</ele>
        <time>2019-03-08T14:31:49Z</time>
      </trkpt>
      <trkpt lat="44.31404" lon="5.6811">
        <ele>697</ele>
        <time>2019-03-08T14:31:50Z</time>
      </trkpt>
      <trkpt lat="44.31404" lon="5.6812">
        <ele>697</ele>
        <time>2019-03-08T14:31:51Z</time>
      </trkpt>
      <trkpt lat="44.31403" lon="5.6813">
        <ele>697</ele>
        <time>2019-03-08T14:31:52Z</time>
      </trkpt>
      <trkpt lat="44.31402" lon="5.6814">
        <ele>697</ele>
        <time>2019-03-08T14:31:53Z</time>
      </trkpt>
      <trkpt lat="44.31401" lon="5.6815">
        <ele>697</ele>
        <time>2019-03-08T14:31:54Z</time>
      </trkpt>
      <trkpt lat="44.31401" lon="5.6816">
        <ele>697</ele>
        <time>2019-03-08T14:31:55Z</time>
      </trkpt>
      <trkpt lat="44.314" lon="5.68171">
        <ele>697</ele>
        <time>2019-03-08T14:31:56Z</time>
      </trkpt>
      <trkpt lat="44.31399" lon="5.68182">
        <ele>697</ele>
        <time>2019-03-08T14:31:57Z</time>
      </trkpt>
      <trkpt lat="44.31399" lon="5.68192">
        <ele>697</ele>
        <time>2019-03-08T14:31:58Z</time>
      </trkpt>
      <trkpt lat="44.31398" lon="5.68203">
        <ele>697</ele>
        <time>2019-03-08T14:31:59Z</time>
      </trkpt>
      <trkpt lat="44.31398" lon="5.68215">
        <ele>697</ele>
        <time>2019-03-08T14:32:00Z</time>
      </trkpt>
      <trkpt lat="44.31398" lon="5.68226">
        <ele>697</ele>
        <time>2019-03-08T14:32:01Z</time>
      </trkpt>
      <trkpt lat="44.31398" lon="5.68238">
        <ele>697</ele>
        <time>2019-03-08T14:32:02Z</time>
      </trkpt>
      <trkpt lat="44.31399" lon="5.6825">
        <ele>697</ele>
        <time>2019-03-08T14:32:03Z</time>
      </trkpt>
      <trkpt lat="44.31401" lon="5.68261">
        <ele>697</ele>
        <time>2019-03-08T14:32:04Z</time>
      </trkpt>
      <trkpt lat="44.31403" lon="5.68273">
        <ele>696</ele>
        <time>2019-03-08T14:32:05Z</time>
      </trkpt>
      <trkpt lat="44.31405" lon="5.68285">
        <ele>696</ele>
        <time>2019-03-08T14:32:06Z</time>
      </trkpt>
      <trkpt lat="44.31408" lon="5.68296">
        <ele>696</ele>
        <time>2019-03-08T14:32:07Z</time>
      </trkpt>
      <trkpt lat="44.31411" lon="5.68308">
        <ele>696</ele>
        <time>2019-03-08T14:32:08Z</time>
      </trkpt>
      <trkpt lat="44.31415" lon="5.68319">
        <ele>696</ele>
        <time>2019-03-08T14:32:09Z</time>
      </trkpt>
      <trkpt lat="44.31419" lon="5.6833">
        <ele>696</ele>
        <time>2019-03-08T14:32:10Z</time>
      </trkpt>
      <trkpt lat="44.31424" lon="5.6834">
        <ele>695</ele>
        <time>2019-03-08T14:32:11Z</time>
      </trkpt>
      <trkpt lat="44.31428" lon="5.68351">
        <ele>695</ele>
        <time>2019-03-08T14:32:12Z</time>
      </trkpt>
      <trkpt lat="44.31433" lon="5.68361">
        <ele>695</ele>
        <time>2019-03-08T14:32:13Z</time>
      </trkpt>
      <trkpt lat="44.31438" lon="5.68371">
        <ele>695</ele>
        <time>2019-03-08T14:32:14Z</time>
      </trkpt>
      <trkpt lat="44.31443" lon="5.68381">
        <ele>695</ele>
        <time>2019-03-08T14:32:15Z</time>
      </trkpt>
      <trkpt lat="44.31447" lon="5.68392">
        <ele>694</ele>
        <time>2019-03-08T14:32:16Z</time>
      </trkpt>
      <trkpt lat="44.31452" lon="5.68401">
        <ele>694</ele>
        <time>2019-03-08T14:32:17Z</time>
      </trkpt>
      <trkpt lat="44.31456" lon="5.68412">
        <ele>694</ele>
        <time>2019-03-08T14:32:18Z</time>
      </trkpt>
      <trkpt lat="44.31461" lon="5.68422">
        <ele>694</ele>
        <time>2019-03-08T14:32:19Z</time>
      </trkpt>
      <trkpt lat="44.31467" lon="5.68432">
        <ele>694</ele>
        <time>2019-03-08T14:32:20Z</time>
      </trkpt>
      <trkpt lat="44.31473" lon="5.68442">
        <ele>694</ele>
        <time>2019-03-08T14:32:21Z</time>
      </trkpt>
      <trkpt lat="44.31477" lon="5.68453">
        <ele>694</ele>
        <time>2019-03-08T14:32:22Z</time>
      </trkpt>
      <trkpt lat="44.31483" lon="5.68464">
        <ele>694</ele>
        <time>2019-03-08T14:32:23Z</time>
      </trkpt>
      <trkpt lat="44.31489" lon="5.68476">
        <ele>694</ele>
        <time>2019-03-08T14:32:24Z</time>
      </trkpt>
      <trkpt lat="44.31493" lon="5.68488">
        <ele>694</ele>
        <time>2019-03-08T14:32:25Z</time>
      </trkpt>
      <trkpt lat="44.31495" lon="5.685">
        <ele>694</ele>
        <time>2019-03-08T14:32:26Z</time>
      </trkpt>
      <trkpt lat="44.31497" lon="5.68514">
        <ele>694</ele>
        <time>2019-03-08T14:32:27Z</time>
      </trkpt>
      <trkpt lat="44.31497" lon="5.68527">
        <ele>694</ele>
        <time>2019-03-08T14:32:28Z</time>
      </trkpt>
      <trkpt lat="44.31495" lon="5.6854">
        <ele>694</ele>
        <time>2019-03-08T14:32:29Z</time>
      </trkpt>
      <trkpt lat="44.31494" lon="5.68553">
        <ele>694</ele>
        <time>2019-03-08T14:32:30Z</time>
      </trkpt>
      <trkpt lat="44.31491" lon="5.68566">
        <ele>694</ele>
        <time>2019-03-08T14:32:31Z</time>
      </trkpt>
      <trkpt lat="44.3149" lon="5.68578">
        <ele>694</ele>
        <time>2019-03-08T14:32:32Z</time>
      </trkpt>
      <trkpt lat="44.31487" lon="5.68591">
        <ele>694</ele>
        <time>2019-03-08T14:32:33Z</time>
      </trkpt>
      <trkpt lat="44.31486" lon="5.68603">
        <ele>694</ele>
        <time>2019-03-08T14:32:34Z</time>
      </trkpt>
      <trkpt lat="44.31485" lon="5.68615">
        <ele>694</ele>
        <time>2019-03-08T14:32:35Z</time>
      </trkpt>
      <trkpt lat="44.31486" lon="5.68627">
        <ele>694</ele>
        <time>2019-03-08T14:32:36Z</time>
      </trkpt>
      <trkpt lat="44.31488" lon="5.68639">
        <ele>694</ele>
        <time>2019-03-08T14:32:37Z</time>
      </trkpt>
      <trkpt lat="44.3149" lon="5.68651">
        <ele>694</ele>
        <time>2019-03-08T14:32:38Z</time>
      </trkpt>
      <trkpt lat="44.31492" lon="5.68664">
        <ele>694</ele>
        <time>2019-03-08T14:32:39Z</time>
      </trkpt>
      <trkpt lat="44.31492" lon="5.68677">
        <ele>694</ele>
        <time>2019-03-08T14:32:40Z</time>
      </trkpt>
      <trkpt lat="44.31493" lon="5.6869">
        <ele>694</ele>
        <time>2019-03-08T14:32:41Z</time>
      </trkpt>
      <trkpt lat="44.31492" lon="5.68703">
        <ele>694</ele>
        <time>2019-03-08T14:32:42Z</time>
      </trkpt>
      <trkpt lat="44.3149" lon="5.68716">
        <ele>694</ele>
        <time>2019-03-08T14:32:43Z</time>
      </trkpt>
      <trkpt lat="44.31487" lon="5.68729">
        <ele>694</ele>
        <time>2019-03-08T14:32:44Z</time>
      </trkpt>
      <trkpt lat="44.31485" lon="5.68742">
        <ele>694</ele>
        <time>2019-03-08T14:32:45Z</time>
      </trkpt>
      <trkpt lat="44.3148" lon="5.68755">
        <ele>694</ele>
        <time>2019-03-08T14:32:46Z</time>
      </trkpt>
      <trkpt lat="44.31475" lon="5.68768">
        <ele>693</ele>
        <time>2019-03-08T14:32:47Z</time>
      </trkpt>
      <trkpt lat="44.31472" lon="5.6878">
        <ele>693</ele>
        <time>2019-03-08T14:32:48Z</time>
      </trkpt>
      <trkpt lat="44.31469" lon="5.68791">
        <ele>692</ele>
        <time>2019-03-08T14:32:49Z</time>
      </trkpt>
      <trkpt lat="44.31464" lon="5.68803">
        <ele>691</ele>
        <time>2019-03-08T14:32:50Z</time>
      </trkpt>
      <trkpt lat="44.31459" lon="5.68814">
        <ele>691</ele>
        <time>2019-03-08T14:32:51Z</time>
      </trkpt>
      <trkpt lat="44.31453" lon="5.68825">
        <ele>691</ele>
        <time>2019-03-08T14:32:52Z</time>
      </trkpt>
      <trkpt lat="44.31445" lon="5.68834">
        <ele>690</ele>
        <time>2019-03-08T14:32:53Z</time>
      </trkpt>
      <trkpt lat="44.31438" lon="5.68842">
        <ele>690</ele>
        <time>2019-03-08T14:32:54Z</time>
      </trkpt>
      <trkpt lat="44.31429" lon="5.68849">
        <ele>690</ele>
        <time>2019-03-08T14:32:55Z</time>
      </trkpt>
      <trkpt lat="44.31421" lon="5.68854">
        <ele>689</ele>
        <time>2019-03-08T14:32:56Z</time>
      </trkpt>
      <trkpt lat="44.31413" lon="5.6886">
        <ele>689</ele>
        <time>2019-03-08T14:32:57Z</time>
      </trkpt>
      <trkpt lat="44.31404" lon="5.68866">
        <ele>689</ele>
        <time>2019-03-08T14:32:58Z</time>
      </trkpt>
      <trkpt lat="44.31395" lon="5.68872">
        <ele>689</ele>
        <time>2019-03-08T14:32:59Z</time>
      </trkpt>
      <trkpt lat="44.3139" lon="5.68877">
        <ele>689</ele>
        <time>2019-03-08T14:33:00Z</time>
      </trkpt>
      <trkpt lat="44.31384" lon="5.68883">
        <ele>689</ele>
        <time>2019-03-08T14:33:01Z</time>
      </trkpt>
      <trkpt lat="44.31377" lon="5.6889">
        <ele>689</ele>
        <time>2019-03-08T14:33:02Z</time>
      </trkpt>
      <trkpt lat="44.31368" lon="5.68895">
        <ele>689</ele>
        <time>2019-03-08T14:33:03Z</time>
      </trkpt>
      <trkpt lat="44.31361" lon="5.68902">
        <ele>689</ele>
        <time>2019-03-08T14:33:04Z</time>
      </trkpt>
      <trkpt lat="44.31353" lon="5.68907">
        <ele>689</ele>
        <time>2019-03-08T14:33:05Z</time>
      </trkpt>
      <trkpt lat="44.31347" lon="5.68914">
        <ele>689</ele>
        <time>2019-03-08T14:33:06Z</time>
      </trkpt>
      <trkpt lat="44.31339" lon="5.68917">
        <ele>689</ele>
        <time>2019-03-08T14:33:07Z</time>
      </trkpt>
      <trkpt lat="44.31332" lon="5.68922">
        <ele>690</ele>
        <time>2019-03-08T14:33:08Z</time>
      </trkpt>
      <trkpt lat="44.31325" lon="5.68928">
        <ele>691</ele>
        <time>2019-03-08T14:33:09Z</time>
      </trkpt>
      <trkpt lat="44.31318" lon="5.68937">
        <ele>692</ele>
        <time>2019-03-08T14:33:10Z</time>
      </trkpt>
      <trkpt lat="44.31313" lon="5.68946">
        <ele>693</ele>
        <time>2019-03-08T14:33:11Z</time>
      </trkpt>
      <trkpt lat="44.31308" lon="5.68957">
        <ele>694</ele>
        <time>2019-03-08T14:33:12Z</time>
      </trkpt>
      <trkpt lat="44.31293" lon="5.68998">
        <ele>695</ele>
        <time>2019-03-08T14:33:16Z</time>
      </trkpt>
      <trkpt lat="44.31292" lon="5.6901">
        <ele>696</ele>
        <time>2019-03-08T14:33:17Z</time>
      </trkpt>
      <trkpt lat="44.31283" lon="5.69034">
        <ele>697</ele>
        <time>2019-03-08T14:33:19Z</time>
      </trkpt>
      <trkpt lat="44.31276" lon="5.69045">
        <ele>698</ele>
        <time>2019-03-08T14:33:20Z</time>
      </trkpt>
      <trkpt lat="44.31274" lon="5.69056">
        <ele>698</ele>
        <time>2019-03-08T14:33:21Z</time>
      </trkpt>
      <trkpt lat="44.31272" lon="5.69067">
        <ele>698</ele>
        <time>2019-03-08T14:33:22Z</time>
      </trkpt>
      <trkpt lat="44.31274" lon="5.69078">
        <ele>698</ele>
        <time>2019-03-08T14:33:23Z</time>
      </trkpt>
      <trkpt lat="44.31275" lon="5.69089">
        <ele>698</ele>
        <time>2019-03-08T14:33:24Z</time>
      </trkpt>
      <trkpt lat="44.31276" lon="5.691">
        <ele>698</ele>
        <time>2019-03-08T14:33:25Z</time>
      </trkpt>
      <trkpt lat="44.31277" lon="5.6911">
        <ele>697</ele>
        <time>2019-03-08T14:33:26Z</time>
      </trkpt>
      <trkpt lat="44.31277" lon="5.6912">
        <ele>696</ele>
        <time>2019-03-08T14:33:27Z</time>
      </trkpt>
      <trkpt lat="44.31278" lon="5.69131">
        <ele>696</ele>
        <time>2019-03-08T14:33:28Z</time>
      </trkpt>
      <trkpt lat="44.31277" lon="5.69142">
        <ele>695</ele>
        <time>2019-03-08T14:33:29Z</time>
      </trkpt>
      <trkpt lat="44.31279" lon="5.69151">
        <ele>695</ele>
        <time>2019-03-08T14:33:30Z</time>
      </trkpt>
      <trkpt lat="44.31281" lon="5.69161">
        <ele>694</ele>
        <time>2019-03-08T14:33:31Z</time>
      </trkpt>
      <trkpt lat="44.31285" lon="5.69171">
        <ele>693</ele>
        <time>2019-03-08T14:33:32Z</time>
      </trkpt>
      <trkpt lat="44.31288" lon="5.69179">
        <ele>693</ele>
        <time>2019-03-08T14:33:33Z</time>
      </trkpt>
      <trkpt lat="44.3129" lon="5.69189">
        <ele>692</ele>
        <time>2019-03-08T14:33:34Z</time>
      </trkpt>
      <trkpt lat="44.31293" lon="5.69197">
        <ele>691</ele>
        <time>2019-03-08T14:33:35Z</time>
      </trkpt>
      <trkpt lat="44.31296" lon="5.69205">
        <ele>690</ele>
        <time>2019-03-08T14:33:36Z</time>
      </trkpt>
      <trkpt lat="44.313" lon="5.69213">
        <ele>689</ele>
        <time>2019-03-08T14:33:37Z</time>
      </trkpt>
      <trkpt lat="44.31305" lon="5.6922">
        <ele>689</ele>
        <time>2019-03-08T14:33:38Z</time>
      </trkpt>
      <trkpt lat="44.3131" lon="5.69224">
        <ele>688</ele>
        <time>2019-03-08T14:33:39Z</time>
      </trkpt>
      <trkpt lat="44.31314" lon="5.69228">
        <ele>688</ele>
        <time>2019-03-08T14:33:40Z</time>
      </trkpt>
      <trkpt lat="44.31319" lon="5.69232">
        <ele>688</ele>
        <time>2019-03-08T14:33:41Z</time>
      </trkpt>
      <trkpt lat="44.31322" lon="5.69237">
        <ele>688</ele>
        <time>2019-03-08T14:33:42Z</time>
      </trkpt>
      <trkpt lat="44.31326" lon="5.69241">
        <ele>688</ele>
        <time>2019-03-08T14:33:43Z</time>
      </trkpt>
      <trkpt lat="44.31329" lon="5.69245">
        <ele>688</ele>
        <time>2019-03-08T14:33:44Z</time>
      </trkpt>
      <trkpt lat="44.31334" lon="5.69248">
        <ele>687</ele>
        <time>2019-03-08T14:33:45Z</time>
      </trkpt>
      <trkpt lat="44.31336" lon="5.69254">
        <ele>687</ele>
        <time>2019-03-08T14:33:46Z</time>
      </trkpt>
      <trkpt lat="44.3134" lon="5.69259">
        <ele>686</ele>
        <time>2019-03-08T14:33:47Z</time>
      </trkpt>
      <trkpt lat="44.31343" lon="5.69264">
        <ele>686</ele>
        <time>2019-03-08T14:33:48Z</time>
      </trkpt>
      <trkpt lat="44.31346" lon="5.69268">
        <ele>686</ele>
        <time>2019-03-08T14:33:49Z</time>
      </trkpt>
      <trkpt lat="44.31348" lon="5.69273">
        <ele>686</ele>
        <time>2019-03-08T14:33:50Z</time>
      </trkpt>
      <trkpt lat="44.31351" lon="5.69277">
        <ele>686</ele>
        <time>2019-03-08T14:33:51Z</time>
      </trkpt>
      <trkpt lat="44.31353" lon="5.69283">
        <ele>686</ele>
        <time>2019-03-08T14:33:52Z</time>
      </trkpt>
      <trkpt lat="44.31355" lon="5.69289">
        <ele>686</ele>
        <time>2019-03-08T14:33:53Z</time>
      </trkpt>
      <trkpt lat="44.31356" lon="5.69296">
        <ele>686</ele>
        <time>2019-03-08T14:33:54Z</time>
      </trkpt>
      <trkpt lat="44.31357" lon="5.69303">
        <ele>686</ele>
        <time>2019-03-08T14:33:55Z</time>
      </trkpt>
      <trkpt lat="44.31358" lon="5.69309">
        <ele>686</ele>
        <time>2019-03-08T14:33:56Z</time>
      </trkpt>
      <trkpt lat="44.31359" lon="5.69315">
        <ele>686</ele>
        <time>2019-03-08T14:33:57Z</time>
      </trkpt>
      <trkpt lat="44.31359" lon="5.69323">
        <ele>686</ele>
        <time>2019-03-08T14:33:58Z</time>
      </trkpt>
      <trkpt lat="44.31361" lon="5.6933">
        <ele>686</ele>
        <time>2019-03-08T14:33:59Z</time>
      </trkpt>
      <trkpt lat="44.31361" lon="5.69338">
        <ele>686</ele>
        <time>2019-03-08T14:34:00Z</time>
      </trkpt>
      <trkpt lat="44.31363" lon="5.69345">
        <ele>686</ele>
        <time>2019-03-08T14:34:01Z</time>
      </trkpt>
      <trkpt lat="44.31364" lon="5.69352">
        <ele>686</ele>
        <time>2019-03-08T14:34:02Z</time>
      </trkpt>
      <trkpt lat="44.31366" lon="5.69359">
        <ele>687</ele>
        <time>2019-03-08T14:34:03Z</time>
      </trkpt>
      <trkpt lat="44.31366" lon="5.69366">
        <ele>687</ele>
        <time>2019-03-08T14:34:04Z</time>
      </trkpt>
      <trkpt lat="44.31367" lon="5.69373">
        <ele>688</ele>
        <time>2019-03-08T14:34:05Z</time>
      </trkpt>
      <trkpt lat="44.31367" lon="5.69381">
        <ele>688</ele>
        <time>2019-03-08T14:34:06Z</time>
      </trkpt>
      <trkpt lat="44.31367" lon="5.69388">
        <ele>688</ele>
        <time>2019-03-08T14:34:07Z</time>
      </trkpt>
      <trkpt lat="44.31366" lon="5.69397">
        <ele>688</ele>
        <time>2019-03-08T14:34:08Z</time>
      </trkpt>
      <trkpt lat="44.31366" lon="5.69404">
        <ele>688</ele>
        <time>2019-03-08T14:34:09Z</time>
      </trkpt>
      <trkpt lat="44.31366" lon="5.69412">
        <ele>688</ele>
        <time>2019-03-08T14:34:10Z</time>
      </trkpt>
      <trkpt lat="44.31365" lon="5.69419">
        <ele>688</ele>
        <time>2019-03-08T14:34:11Z</time>
      </trkpt>
      <trkpt lat="44.31365" lon="5.69426">
        <ele>688</ele>
        <time>2019-03-08T14:34:12Z</time>
      </trkpt>
      <trkpt lat="44.31364" lon="5.69433">
        <ele>688</ele>
        <time>2019-03-08T14:34:13Z</time>
      </trkpt>
      <trkpt lat="44.31363" lon="5.6944">
        <ele>688</ele>
        <time>2019-03-08T14:34:14Z</time>
      </trkpt>
      <trkpt lat="44.31361" lon="5.69448">
        <ele>688</ele>
        <time>2019-03-08T14:34:15Z</time>
      </trkpt>
      <trkpt lat="44.31359" lon="5.69454">
        <ele>688</ele>
        <time>2019-03-08T14:34:16Z</time>
      </trkpt>
      <trkpt lat="44.31358" lon="5.69461">
        <ele>688</ele>
        <time>2019-03-08T14:34:17Z</time>
      </trkpt>
      <trkpt lat="44.31356" lon="5.69467">
        <ele>688</ele>
        <time>2019-03-08T14:34:18Z</time>
      </trkpt>
      <trkpt lat="44.31354" lon="5.69474">
        <ele>688</ele>
        <time>2019-03-08T14:34:19Z</time>
      </trkpt>
      <trkpt lat="44.31352" lon="5.69482">
        <ele>688</ele>
        <time>2019-03-08T14:34:20Z</time>
      </trkpt>
      <trkpt lat="44.31351" lon="5.69489">
        <ele>688</ele>
        <time>2019-03-08T14:34:21Z</time>
      </trkpt>
      <trkpt lat="44.3135" lon="5.69497">
        <ele>688</ele>
        <time>2019-03-08T14:34:22Z</time>
      </trkpt>
      <trkpt lat="44.31348" lon="5.69505">
        <ele>688</ele>
        <time>2019-03-08T14:34:23Z</time>
      </trkpt>
      <trkpt lat="44.31346" lon="5.69512">
        <ele>688</ele>
        <time>2019-03-08T14:34:24Z</time>
      </trkpt>
      <trkpt lat="44.31345" lon="5.6952">
        <ele>688</ele>
        <time>2019-03-08T14:34:25Z</time>
      </trkpt>
      <trkpt lat="44.31343" lon="5.69527">
        <ele>688</ele>
        <time>2019-03-08T14:34:26Z</time>
      </trkpt>
      <trkpt lat="44.31342" lon="5.69535">
        <ele>688</ele>
        <time>2019-03-08T14:34:27Z</time>
      </trkpt>
      <trkpt lat="44.31341" lon="5.69542">
        <ele>688</ele>
        <time>2019-03-08T14:34:28Z</time>
      </trkpt>
      <trkpt lat="44.3134" lon="5.69549">
        <ele>688</ele>
        <time>2019-03-08T14:34:29Z</time>
      </trkpt>
      <trkpt lat="44.31339" lon="5.69556">
        <ele>688</ele>
        <time>2019-03-08T14:34:30Z</time>
      </trkpt>
      <trkpt lat="44.31337" lon="5.69564">
        <ele>688</ele>
        <time>2019-03-08T14:34:31Z</time>
      </trkpt>
      <trkpt lat="44.31336" lon="5.69572">
        <ele>688</ele>
        <time>2019-03-08T14:34:32Z</time>
      </trkpt>
      <trkpt lat="44.31335" lon="5.69579">
        <ele>688</ele>
        <time>2019-03-08T14:34:33Z</time>
      </trkpt>
      <trkpt lat="44.31335" lon="5.69587">
        <ele>688</ele>
        <time>2019-03-08T14:34:34Z</time>
      </trkpt>
      <trkpt lat="44.31333" lon="5.69595">
        <ele>688</ele>
        <time>2019-03-08T14:34:35Z</time>
      </trkpt>
      <trkpt lat="44.31333" lon="5.69603">
        <ele>688</ele>
        <time>2019-03-08T14:34:36Z</time>
      </trkpt>
      <trkpt lat="44.31333" lon="5.69611">
        <ele>688</ele>
        <time>2019-03-08T14:34:37Z</time>
      </trkpt>
      <trkpt lat="44.31333" lon="5.69619">
        <ele>688</ele>
        <time>2019-03-08T14:34:38Z</time>
      </trkpt>
      <trkpt lat="44.31332" lon="5.69628">
        <ele>688</ele>
        <time>2019-03-08T14:34:39Z</time>
      </trkpt>
      <trkpt lat="44.31331" lon="5.69637">
        <ele>688</ele>
        <time>2019-03-08T14:34:40Z</time>
      </trkpt>
      <trkpt lat="44.31331" lon="5.69647">
        <ele>688</ele>
        <time>2019-03-08T14:34:41Z</time>
      </trkpt>
      <trkpt lat="44.3133" lon="5.69657">
        <ele>688</ele>
        <time>2019-03-08T14:34:42Z</time>
      </trkpt>
      <trkpt lat="44.3133" lon="5.69667">
        <ele>688</ele>
        <time>2019-03-08T14:34:43Z</time>
      </trkpt>
      <trkpt lat="44.31329" lon="5.69676">
        <ele>688</ele>
        <time>2019-03-08T14:34:44Z</time>
      </trkpt>
      <trkpt lat="44.31328" lon="5.69686">
        <ele>688</ele>
        <time>2019-03-08T14:34:45Z</time>
      </trkpt>
      <trkpt lat="44.31327" lon="5.69696">
        <ele>688</ele>
        <time>2019-03-08T14:34:46Z</time>
      </trkpt>
      <trkpt lat="44.31327" lon="5.69705">
        <ele>688</ele>
        <time>2019-03-08T14:34:47Z</time>
      </trkpt>
      <trkpt lat="44.31326" lon="5.69714">
        <ele>688</ele>
        <time>2019-03-08T14:34:48Z</time>
      </trkpt>
      <trkpt lat="44.31326" lon="5.69724">
        <ele>688</ele>
        <time>2019-03-08T14:34:49Z</time>
      </trkpt>
      <trkpt lat="44.31325" lon="5.69733">
        <ele>688</ele>
        <time>2019-03-08T14:34:50Z</time>
      </trkpt>
      <trkpt lat="44.31325" lon="5.69743">
        <ele>688</ele>
        <time>2019-03-08T14:34:51Z</time>
      </trkpt>
      <trkpt lat="44.31325" lon="5.69753">
        <ele>688</ele>
        <time>2019-03-08T14:34:52Z</time>
      </trkpt>
      <trkpt lat="44.31325" lon="5.69762">
        <ele>688</ele>
        <time>2019-03-08T14:34:53Z</time>
      </trkpt>
      <trkpt lat="44.31325" lon="5.69772">
        <ele>688</ele>
        <time>2019-03-08T14:34:54Z</time>
      </trkpt>
      <trkpt lat="44.31325" lon="5.69781">
        <ele>688</ele>
        <time>2019-03-08T14:34:55Z</time>
      </trkpt>
      <trkpt lat="44.31326" lon="5.69791">
        <ele>688</ele>
        <time>2019-03-08T14:34:56Z</time>
      </trkpt>
      <trkpt lat="44.31326" lon="5.69801">
        <ele>688</ele>
        <time>2019-03-08T14:34:57Z</time>
      </trkpt>
      <trkpt lat="44.31327" lon="5.69811">
        <ele>688</ele>
        <time>2019-03-08T14:34:58Z</time>
      </trkpt>
      <trkpt lat="44.31329" lon="5.6982">
        <ele>688</ele>
        <time>2019-03-08T14:34:59Z</time>
      </trkpt>
      <trkpt lat="44.3133" lon="5.6983">
        <ele>688</ele>
        <time>2019-03-08T14:35:00Z</time>
      </trkpt>
      <trkpt lat="44.31331" lon="5.69839">
        <ele>688</ele>
        <time>2019-03-08T14:35:01Z</time>
      </trkpt>
      <trkpt lat="44.31333" lon="5.69849">
        <ele>688</ele>
        <time>2019-03-08T14:35:02Z</time>
      </trkpt>
      <trkpt lat="44.31335" lon="5.69859">
        <ele>688</ele>
        <time>2019-03-08T14:35:03Z</time>
      </trkpt>
      <trkpt lat="44.31337" lon="5.69868">
        <ele>688</ele>
        <time>2019-03-08T14:35:04Z</time>
      </trkpt>
      <trkpt lat="44.31339" lon="5.69878">
        <ele>688</ele>
        <time>2019-03-08T14:35:05Z</time>
      </trkpt>
      <trkpt lat="44.31342" lon="5.69887">
        <ele>688</ele>
        <time>2019-03-08T14:35:06Z</time>
      </trkpt>
      <trkpt lat="44.31345" lon="5.69898">
        <ele>688</ele>
        <time>2019-03-08T14:35:07Z</time>
      </trkpt>
      <trkpt lat="44.31347" lon="5.69908">
        <ele>688</ele>
        <time>2019-03-08T14:35:08Z</time>
      </trkpt>
      <trkpt lat="44.31349" lon="5.69917">
        <ele>688</ele>
        <time>2019-03-08T14:35:09Z</time>
      </trkpt>
      <trkpt lat="44.31351" lon="5.69927">
        <ele>688</ele>
        <time>2019-03-08T14:35:10Z</time>
      </trkpt>
      <trkpt lat="44.31353" lon="5.69937">
        <ele>688</ele>
        <time>2019-03-08T14:35:11Z</time>
      </trkpt>
      <trkpt lat="44.31355" lon="5.69946">
        <ele>688</ele>
        <time>2019-03-08T14:35:12Z</time>
      </trkpt>
      <trkpt lat="44.31357" lon="5.69956">
        <ele>688</ele>
        <time>2019-03-08T14:35:13Z</time>
      </trkpt>
      <trkpt lat="44.31359" lon="5.69965">
        <ele>688</ele>
        <time>2019-03-08T14:35:14Z</time>
      </trkpt>
      <trkpt lat="44.31361" lon="5.69975">
        <ele>688</ele>
        <time>2019-03-08T14:35:15Z</time>
      </trkpt>
      <trkpt lat="44.31363" lon="5.69984">
        <ele>688</ele>
        <time>2019-03-08T14:35:16Z</time>
      </trkpt>
      <trkpt lat="44.31364" lon="5.69994">
        <ele>688</ele>
        <time>2019-03-08T14:35:17Z</time>
      </trkpt>
      <trkpt lat="44.31366" lon="5.70004">
        <ele>688</ele>
        <time>2019-03-08T14:35:18Z</time>
      </trkpt>
      <trkpt lat="44.31367" lon="5.70013">
        <ele>688</ele>
        <time>2019-03-08T14:35:19Z</time>
      </trkpt>
      <trkpt lat="44.31369" lon="5.70023">
        <ele>688</ele>
        <time>2019-03-08T14:35:20Z</time>
      </trkpt>
      <trkpt lat="44.31371" lon="5.70032">
        <ele>688</ele>
        <time>2019-03-08T14:35:21Z</time>
      </trkpt>
      <trkpt lat="44.31373" lon="5.70041">
        <ele>688</ele>
        <time>2019-03-08T14:35:22Z</time>
      </trkpt>
      <trkpt lat="44.31375" lon="5.7005">
        <ele>688</ele>
        <time>2019-03-08T14:35:23Z</time>
      </trkpt>
      <trkpt lat="44.31377" lon="5.70058">
        <ele>688</ele>
        <time>2019-03-08T14:35:24Z</time>
      </trkpt>
      <trkpt lat="44.31379" lon="5.70067">
        <ele>688</ele>
        <time>2019-03-08T14:35:25Z</time>
      </trkpt>
      <trkpt lat="44.31382" lon="5.70076">
        <ele>688</ele>
        <time>2019-03-08T14:35:26Z</time>
      </trkpt>
      <trkpt lat="44.31384" lon="5.70084">
        <ele>688</ele>
        <time>2019-03-08T14:35:27Z</time>
      </trkpt>
      <trkpt lat="44.31387" lon="5.70093">
        <ele>688</ele>
        <time>2019-03-08T14:35:28Z</time>
      </trkpt>
      <trkpt lat="44.31389" lon="5.70101">
        <ele>688</ele>
        <time>2019-03-08T14:35:29Z</time>
      </trkpt>
      <trkpt lat="44.31392" lon="5.7011">
        <ele>688</ele>
        <time>2019-03-08T14:35:30Z</time>
      </trkpt>
      <trkpt lat="44.31395" lon="5.70119">
        <ele>688</ele>
        <time>2019-03-08T14:35:31Z</time>
      </trkpt>
      <trkpt lat="44.31399" lon="5.70128">
        <ele>688</ele>
        <time>2019-03-08T14:35:32Z</time>
      </trkpt>
      <trkpt lat="44.31403" lon="5.70137">
        <ele>688</ele>
        <time>2019-03-08T14:35:33Z</time>
      </trkpt>
      <trkpt lat="44.31406" lon="5.70146">
        <ele>688</ele>
        <time>2019-03-08T14:35:34Z</time>
      </trkpt>
      <trkpt lat="44.3141" lon="5.70156">
        <ele>688</ele>
        <time>2019-03-08T14:35:35Z</time>
      </trkpt>
      <trkpt lat="44.31413" lon="5.70166">
        <ele>688</ele>
        <time>2019-03-08T14:35:36Z</time>
      </trkpt>
      <trkpt lat="44.31416" lon="5.70177">
        <ele>688</ele>
        <time>2019-03-08T14:35:37Z</time>
      </trkpt>
      <trkpt lat="44.31418" lon="5.70187">
        <ele>688</ele>
        <time>2019-03-08T14:35:38Z</time>
      </trkpt>
      <trkpt lat="44.31421" lon="5.70198">
        <ele>688</ele>
        <time>2019-03-08T14:35:39Z</time>
      </trkpt>
      <trkpt lat="44.31422" lon="5.7021">
        <ele>687</ele>
        <time>2019-03-08T14:35:40Z</time>
      </trkpt>
      <trkpt lat="44.31424" lon="5.70221">
        <ele>687</ele>
        <time>2019-03-08T14:35:41Z</time>
      </trkpt>
      <trkpt lat="44.31426" lon="5.70233">
        <ele>687</ele>
        <time>2019-03-08T14:35:42Z</time>
      </trkpt>
      <trkpt lat="44.31427" lon="5.70245">
        <ele>687</ele>
        <time>2019-03-08T14:35:43Z</time>
      </trkpt>
      <trkpt lat="44.31428" lon="5.70257">
        <ele>686</ele>
        <time>2019-03-08T14:35:44Z</time>
      </trkpt>
      <trkpt lat="44.31428" lon="5.70269">
        <ele>686</ele>
        <time>2019-03-08T14:35:45Z</time>
      </trkpt>
      <trkpt lat="44.31428" lon="5.70282">
        <ele>686</ele>
        <time>2019-03-08T14:35:46Z</time>
      </trkpt>
      <trkpt lat="44.31429" lon="5.70294">
        <ele>685</ele>
        <time>2019-03-08T14:35:47Z</time>
      </trkpt>
      <trkpt lat="44.3143" lon="5.70307">
        <ele>684</ele>
        <time>2019-03-08T14:35:48Z</time>
      </trkpt>
      <trkpt lat="44.31432" lon="5.7032">
        <ele>684</ele>
        <time>2019-03-08T14:35:49Z</time>
      </trkpt>
      <trkpt lat="44.31434" lon="5.70332">
        <ele>684</ele>
        <time>2019-03-08T14:35:50Z</time>
      </trkpt>
      <trkpt lat="44.31437" lon="5.70345">
        <ele>683</ele>
        <time>2019-03-08T14:35:51Z</time>
      </trkpt>
      <trkpt lat="44.31441" lon="5.70357">
        <ele>683</ele>
        <time>2019-03-08T14:35:52Z</time>
      </trkpt>
      <trkpt lat="44.31445" lon="5.70369">
        <ele>683</ele>
        <time>2019-03-08T14:35:53Z</time>
      </trkpt>
      <trkpt lat="44.3145" lon="5.70381">
        <ele>683</ele>
        <time>2019-03-08T14:35:54Z</time>
      </trkpt>
      <trkpt lat="44.31456" lon="5.70392">
        <ele>682</ele>
        <time>2019-03-08T14:35:55Z</time>
      </trkpt>
      <trkpt lat="44.31461" lon="5.70402">
        <ele>682</ele>
        <time>2019-03-08T14:35:56Z</time>
      </trkpt>
      <trkpt lat="44.31467" lon="5.70413">
        <ele>682</ele>
        <time>2019-03-08T14:35:57Z</time>
      </trkpt>
      <trkpt lat="44.31472" lon="5.70425">
        <ele>682</ele>
        <time>2019-03-08T14:35:58Z</time>
      </trkpt>
      <trkpt lat="44.31477" lon="5.70436">
        <ele>681</ele>
        <time>2019-03-08T14:35:59Z</time>
      </trkpt>
      <trkpt lat="44.31481" lon="5.70448">
        <ele>681</ele>
        <time>2019-03-08T14:36:00Z</time>
      </trkpt>
      <trkpt lat="44.31484" lon="5.7046">
        <ele>681</ele>
        <time>2019-03-08T14:36:01Z</time>
      </trkpt>
      <trkpt lat="44.31486" lon="5.70473">
        <ele>680</ele>
        <time>2019-03-08T14:36:02Z</time>
      </trkpt>
      <trkpt lat="44.31488" lon="5.70485">
        <ele>680</ele>
        <time>2019-03-08T14:36:03Z</time>
      </trkpt>
      <trkpt lat="44.3149" lon="5.70498">
        <ele>680</ele>
        <time>2019-03-08T14:36:04Z</time>
      </trkpt>
      <trkpt lat="44.31492" lon="5.7051">
        <ele>680</ele>
        <time>2019-03-08T14:36:05Z</time>
      </trkpt>
      <trkpt lat="44.31494" lon="5.70523">
        <ele>680</ele>
        <time>2019-03-08T14:36:06Z</time>
      </trkpt>
      <trkpt lat="44.31497" lon="5.70535">
        <ele>680</ele>
        <time>2019-03-08T14:36:07Z</time>
      </trkpt>
      <trkpt lat="44.315" lon="5.70547">
        <ele>680</ele>
        <time>2019-03-08T14:36:08Z</time>
      </trkpt>
      <trkpt lat="44.31504" lon="5.70558">
        <ele>680</ele>
        <time>2019-03-08T14:36:09Z</time>
      </trkpt>
      <trkpt lat="44.31508" lon="5.7057">
        <ele>680</ele>
        <time>2019-03-08T14:36:10Z</time>
      </trkpt>
      <trkpt lat="44.31513" lon="5.7058">
        <ele>680</ele>
        <time>2019-03-08T14:36:11Z</time>
      </trkpt>
      <trkpt lat="44.31518" lon="5.70591">
        <ele>680</ele>
        <time>2019-03-08T14:36:12Z</time>
      </trkpt>
      <trkpt lat="44.31524" lon="5.70601">
        <ele>679</ele>
        <time>2019-03-08T14:36:13Z</time>
      </trkpt>
      <trkpt lat="44.3153" lon="5.70611">
        <ele>679</ele>
        <time>2019-03-08T14:36:14Z</time>
      </trkpt>
      <trkpt lat="44.31535" lon="5.70621">
        <ele>679</ele>
        <time>2019-03-08T14:36:15Z</time>
      </trkpt>
      <trkpt lat="44.31541" lon="5.70632">
        <ele>678</ele>
        <time>2019-03-08T14:36:16Z</time>
      </trkpt>
      <trkpt lat="44.31546" lon="5.70643">
        <ele>678</ele>
        <time>2019-03-08T14:36:17Z</time>
      </trkpt>
      <trkpt lat="44.31551" lon="5.70655">
        <ele>677</ele>
        <time>2019-03-08T14:36:18Z</time>
      </trkpt>
      <trkpt lat="44.31556" lon="5.70667">
        <ele>677</ele>
        <time>2019-03-08T14:36:19Z</time>
      </trkpt>
      <trkpt lat="44.31558" lon="5.7068">
        <ele>677</ele>
        <time>2019-03-08T14:36:20Z</time>
      </trkpt>
      <trkpt lat="44.3156" lon="5.70693">
        <ele>677</ele>
        <time>2019-03-08T14:36:21Z</time>
      </trkpt>
      <trkpt lat="44.31561" lon="5.70706">
        <ele>676</ele>
        <time>2019-03-08T14:36:22Z</time>
      </trkpt>
      <trkpt lat="44.31562" lon="5.70719">
        <ele>676</ele>
        <time>2019-03-08T14:36:23Z</time>
      </trkpt>
      <trkpt lat="44.31563" lon="5.70732">
        <ele>675</ele>
        <time>2019-03-08T14:36:24Z</time>
      </trkpt>
      <trkpt lat="44.31564" lon="5.70745">
        <ele>675</ele>
        <time>2019-03-08T14:36:25Z</time>
      </trkpt>
      <trkpt lat="44.31565" lon="5.70759">
        <ele>674</ele>
        <time>2019-03-08T14:36:26Z</time>
      </trkpt>
      <trkpt lat="44.31565" lon="5.70774">
        <ele>674</ele>
        <time>2019-03-08T14:36:27Z</time>
      </trkpt>
      <trkpt lat="44.31565" lon="5.7079">
        <ele>674</ele>
        <time>2019-03-08T14:36:28Z</time>
      </trkpt>
      <trkpt lat="44.31564" lon="5.70804">
        <ele>674</ele>
        <time>2019-03-08T14:36:29Z</time>
      </trkpt>
      <trkpt lat="44.31562" lon="5.70818">
        <ele>673</ele>
        <time>2019-03-08T14:36:30Z</time>
      </trkpt>
      <trkpt lat="44.31561" lon="5.70834">
        <ele>673</ele>
        <time>2019-03-08T14:36:31Z</time>
      </trkpt>
      <trkpt lat="44.31558" lon="5.70848">
        <ele>673</ele>
        <time>2019-03-08T14:36:32Z</time>
      </trkpt>
      <trkpt lat="44.31556" lon="5.70862">
        <ele>673</ele>
        <time>2019-03-08T14:36:33Z</time>
      </trkpt>
      <trkpt lat="44.31554" lon="5.70875">
        <ele>672</ele>
        <time>2019-03-08T14:36:34Z</time>
      </trkpt>
      <trkpt lat="44.31551" lon="5.70889">
        <ele>672</ele>
        <time>2019-03-08T14:36:35Z</time>
      </trkpt>
      <trkpt lat="44.31548" lon="5.70902">
        <ele>671</ele>
        <time>2019-03-08T14:36:36Z</time>
      </trkpt>
      <trkpt lat="44.31546" lon="5.70915">
        <ele>671</ele>
        <time>2019-03-08T14:36:37Z</time>
      </trkpt>
      <trkpt lat="44.31543" lon="5.70928">
        <ele>670</ele>
        <time>2019-03-08T14:36:38Z</time>
      </trkpt>
      <trkpt lat="44.3154" lon="5.70941">
        <ele>670</ele>
        <time>2019-03-08T14:36:39Z</time>
      </trkpt>
      <trkpt lat="44.31538" lon="5.70954">
        <ele>670</ele>
        <time>2019-03-08T14:36:40Z</time>
      </trkpt>
      <trkpt lat="44.31535" lon="5.70967">
        <ele>670</ele>
        <time>2019-03-08T14:36:41Z</time>
      </trkpt>
      <trkpt lat="44.31533" lon="5.7098">
        <ele>670</ele>
        <time>2019-03-08T14:36:42Z</time>
      </trkpt>
      <trkpt lat="44.31532" lon="5.70993">
        <ele>669</ele>
        <time>2019-03-08T14:36:43Z</time>
      </trkpt>
      <trkpt lat="44.31531" lon="5.71006">
        <ele>669</ele>
        <time>2019-03-08T14:36:44Z</time>
      </trkpt>
      <trkpt lat="44.3153" lon="5.71018">
        <ele>669</ele>
        <time>2019-03-08T14:36:45Z</time>
      </trkpt>
      <trkpt lat="44.31531" lon="5.7103">
        <ele>669</ele>
        <time>2019-03-08T14:36:46Z</time>
      </trkpt>
      <trkpt lat="44.31532" lon="5.71043">
        <ele>668</ele>
        <time>2019-03-08T14:36:47Z</time>
      </trkpt>
      <trkpt lat="44.31534" lon="5.71055">
        <ele>668</ele>
        <time>2019-03-08T14:36:48Z</time>
      </trkpt>
      <trkpt lat="44.31536" lon="5.71068">
        <ele>668</ele>
        <time>2019-03-08T14:36:49Z</time>
      </trkpt>
      <trkpt lat="44.31539" lon="5.7108">
        <ele>667</ele>
        <time>2019-03-08T14:36:50Z</time>
      </trkpt>
      <trkpt lat="44.31543" lon="5.71093">
        <ele>667</ele>
        <time>2019-03-08T14:36:51Z</time>
      </trkpt>
      <trkpt lat="44.31547" lon="5.71105">
        <ele>667</ele>
        <time>2019-03-08T14:36:52Z</time>
      </trkpt>
      <trkpt lat="44.31551" lon="5.71118">
        <ele>666</ele>
        <time>2019-03-08T14:36:53Z</time>
      </trkpt>
      <trkpt lat="44.31554" lon="5.71131">
        <ele>666</ele>
        <time>2019-03-08T14:36:54Z</time>
      </trkpt>
      <trkpt lat="44.31558" lon="5.71144">
        <ele>665</ele>
        <time>2019-03-08T14:36:55Z</time>
      </trkpt>
      <trkpt lat="44.31561" lon="5.71157">
        <ele>665</ele>
        <time>2019-03-08T14:36:56Z</time>
      </trkpt>
      <trkpt lat="44.31564" lon="5.71171">
        <ele>664</ele>
        <time>2019-03-08T14:36:57Z</time>
      </trkpt>
      <trkpt lat="44.31567" lon="5.71184">
        <ele>664</ele>
        <time>2019-03-08T14:36:58Z</time>
      </trkpt>
      <trkpt lat="44.3157" lon="5.71197">
        <ele>663</ele>
        <time>2019-03-08T14:36:59Z</time>
      </trkpt>
      <trkpt lat="44.31572" lon="5.7121">
        <ele>663</ele>
        <time>2019-03-08T14:37:00Z</time>
      </trkpt>
      <trkpt lat="44.31575" lon="5.71224">
        <ele>663</ele>
        <time>2019-03-08T14:37:01Z</time>
      </trkpt>
      <trkpt lat="44.31577" lon="5.71237">
        <ele>662</ele>
        <time>2019-03-08T14:37:02Z</time>
      </trkpt>
      <trkpt lat="44.31579" lon="5.71249">
        <ele>662</ele>
        <time>2019-03-08T14:37:03Z</time>
      </trkpt>
      <trkpt lat="44.31582" lon="5.71262">
        <ele>662</ele>
        <time>2019-03-08T14:37:04Z</time>
      </trkpt>
      <trkpt lat="44.31585" lon="5.71275">
        <ele>661</ele>
        <time>2019-03-08T14:37:05Z</time>
      </trkpt>
      <trkpt lat="44.31587" lon="5.71287">
        <ele>661</ele>
        <time>2019-03-08T14:37:06Z</time>
      </trkpt>
      <trkpt lat="44.3159" lon="5.713">
        <ele>661</ele>
        <time>2019-03-08T14:37:07Z</time>
      </trkpt>
      <trkpt lat="44.31592" lon="5.71313">
        <ele>661</ele>
        <time>2019-03-08T14:37:08Z</time>
      </trkpt>
      <trkpt lat="44.31594" lon="5.71326">
        <ele>660</ele>
        <time>2019-03-08T14:37:09Z</time>
      </trkpt>
      <trkpt lat="44.31597" lon="5.71339">
        <ele>660</ele>
        <time>2019-03-08T14:37:10Z</time>
      </trkpt>
      <trkpt lat="44.31599" lon="5.71352">
        <ele>660</ele>
        <time>2019-03-08T14:37:11Z</time>
      </trkpt>
      <trkpt lat="44.31602" lon="5.71366">
        <ele>659</ele>
        <time>2019-03-08T14:37:12Z</time>
      </trkpt>
      <trkpt lat="44.31605" lon="5.71379">
        <ele>659</ele>
        <time>2019-03-08T14:37:13Z</time>
      </trkpt>
      <trkpt lat="44.31609" lon="5.71392">
        <ele>658</ele>
        <time>2019-03-08T14:37:14Z</time>
      </trkpt>
      <trkpt lat="44.31613" lon="5.71406">
        <ele>658</ele>
        <time>2019-03-08T14:37:15Z</time>
      </trkpt>
      <trkpt lat="44.31616" lon="5.71419">
        <ele>658</ele>
        <time>2019-03-08T14:37:16Z</time>
      </trkpt>
      <trkpt lat="44.31621" lon="5.71432">
        <ele>658</ele>
        <time>2019-03-08T14:37:17Z</time>
      </trkpt>
      <trkpt lat="44.31626" lon="5.71445">
        <ele>658</ele>
        <time>2019-03-08T14:37:18Z</time>
      </trkpt>
      <trkpt lat="44.3163" lon="5.71457">
        <ele>658</ele>
        <time>2019-03-08T14:37:19Z</time>
      </trkpt>
      <trkpt lat="44.31634" lon="5.7147">
        <ele>658</ele>
        <time>2019-03-08T14:37:20Z</time>
      </trkpt>
      <trkpt lat="44.31638" lon="5.71482">
        <ele>658</ele>
        <time>2019-03-08T14:37:21Z</time>
      </trkpt>
      <trkpt lat="44.31643" lon="5.71493">
        <ele>658</ele>
        <time>2019-03-08T14:37:22Z</time>
      </trkpt>
      <trkpt lat="44.31647" lon="5.71505">
        <ele>658</ele>
        <time>2019-03-08T14:37:23Z</time>
      </trkpt>
      <trkpt lat="44.31651" lon="5.71516">
        <ele>658</ele>
        <time>2019-03-08T14:37:24Z</time>
      </trkpt>
      <trkpt lat="44.31655" lon="5.71527">
        <ele>658</ele>
        <time>2019-03-08T14:37:25Z</time>
      </trkpt>
      <trkpt lat="44.31659" lon="5.71538">
        <ele>658</ele>
        <time>2019-03-08T14:37:26Z</time>
      </trkpt>
      <trkpt lat="44.31664" lon="5.71549">
        <ele>658</ele>
        <time>2019-03-08T14:37:27Z</time>
      </trkpt>
      <trkpt lat="44.31668" lon="5.71559">
        <ele>658</ele>
        <time>2019-03-08T14:37:28Z</time>
      </trkpt>
      <trkpt lat="44.31672" lon="5.71569">
        <ele>658</ele>
        <time>2019-03-08T14:37:29Z</time>
      </trkpt>
      <trkpt lat="44.31676" lon="5.7158">
        <ele>658</ele>
        <time>2019-03-08T14:37:30Z</time>
      </trkpt>
      <trkpt lat="44.31681" lon="5.7159">
        <ele>658</ele>
        <time>2019-03-08T14:37:31Z</time>
      </trkpt>
      <trkpt lat="44.31685" lon="5.716">
        <ele>658</ele>
        <time>2019-03-08T14:37:32Z</time>
      </trkpt>
      <trkpt lat="44.31689" lon="5.71609">
        <ele>658</ele>
        <time>2019-03-08T14:37:33Z</time>
      </trkpt>
      <trkpt lat="44.31693" lon="5.71619">
        <ele>658</ele>
        <time>2019-03-08T14:37:34Z</time>
      </trkpt>
      <trkpt lat="44.31698" lon="5.71629">
        <ele>658</ele>
        <time>2019-03-08T14:37:35Z</time>
      </trkpt>
      <trkpt lat="44.31703" lon="5.71638">
        <ele>658</ele>
        <time>2019-03-08T14:37:36Z</time>
      </trkpt>
      <trkpt lat="44.31708" lon="5.71647">
        <ele>658</ele>
        <time>2019-03-08T14:37:37Z</time>
      </trkpt>
      <trkpt lat="44.31713" lon="5.71656">
        <ele>658</ele>
        <time>2019-03-08T14:37:38Z</time>
      </trkpt>
      <trkpt lat="44.31718" lon="5.71664">
        <ele>658</ele>
        <time>2019-03-08T14:37:39Z</time>
      </trkpt>
      <trkpt lat="44.31724" lon="5.71672">
        <ele>658</ele>
        <time>2019-03-08T14:37:40Z</time>
      </trkpt>
      <trkpt lat="44.31729" lon="5.7168">
        <ele>658</ele>
        <time>2019-03-08T14:37:41Z</time>
      </trkpt>
      <trkpt lat="44.31734" lon="5.71688">
        <ele>658</ele>
        <time>2019-03-08T14:37:42Z</time>
      </trkpt>
      <trkpt lat="44.31739" lon="5.71697">
        <ele>658</ele>
        <time>2019-03-08T14:37:43Z</time>
      </trkpt>
      <trkpt lat="44.31742" lon="5.71707">
        <ele>658</ele>
        <time>2019-03-08T14:37:44Z</time>
      </trkpt>
      <trkpt lat="44.31745" lon="5.71717">
        <ele>658</ele>
        <time>2019-03-08T14:37:45Z</time>
      </trkpt>
      <trkpt lat="44.31747" lon="5.71727">
        <ele>658</ele>
        <time>2019-03-08T14:37:46Z</time>
      </trkpt>
      <trkpt lat="44.31749" lon="5.71737">
        <ele>658</ele>
        <time>2019-03-08T14:37:47Z</time>
      </trkpt>
      <trkpt lat="44.31751" lon="5.71747">
        <ele>658</ele>
        <time>2019-03-08T14:37:48Z</time>
      </trkpt>
      <trkpt lat="44.31752" lon="5.71758">
        <ele>658</ele>
        <time>2019-03-08T14:37:49Z</time>
      </trkpt>
      <trkpt lat="44.31753" lon="5.71768">
        <ele>658</ele>
        <time>2019-03-08T14:37:50Z</time>
      </trkpt>
      <trkpt lat="44.31754" lon="5.71778">
        <ele>658</ele>
        <time>2019-03-08T14:37:51Z</time>
      </trkpt>
      <trkpt lat="44.31755" lon="5.71789">
        <ele>658</ele>
        <time>2019-03-08T14:37:52Z</time>
      </trkpt>
      <trkpt lat="44.31756" lon="5.71799">
        <ele>658</ele>
        <time>2019-03-08T14:37:53Z</time>
      </trkpt>
      <trkpt lat="44.31757" lon="5.7181">
        <ele>658</ele>
        <time>2019-03-08T14:37:54Z</time>
      </trkpt>
      <trkpt lat="44.31758" lon="5.71821">
        <ele>658</ele>
        <time>2019-03-08T14:37:55Z</time>
      </trkpt>
      <trkpt lat="44.31759" lon="5.71832">
        <ele>658</ele>
        <time>2019-03-08T14:37:56Z</time>
      </trkpt>
      <trkpt lat="44.3176" lon="5.71844">
        <ele>658</ele>
        <time>2019-03-08T14:37:57Z</time>
      </trkpt>
      <trkpt lat="44.31761" lon="5.71855">
        <ele>658</ele>
        <time>2019-03-08T14:37:58Z</time>
      </trkpt>
      <trkpt lat="44.31762" lon="5.71867">
        <ele>657</ele>
        <time>2019-03-08T14:37:59Z</time>
      </trkpt>
      <trkpt lat="44.31763" lon="5.71879">
        <ele>657</ele>
        <time>2019-03-08T14:38:00Z</time>
      </trkpt>
      <trkpt lat="44.31764" lon="5.71891">
        <ele>657</ele>
        <time>2019-03-08T14:38:01Z</time>
      </trkpt>
      <trkpt lat="44.31765" lon="5.71903">
        <ele>656</ele>
        <time>2019-03-08T14:38:02Z</time>
      </trkpt>
      <trkpt lat="44.31767" lon="5.71914">
        <ele>656</ele>
        <time>2019-03-08T14:38:03Z</time>
      </trkpt>
      <trkpt lat="44.31768" lon="5.71925">
        <ele>656</ele>
        <time>2019-03-08T14:38:04Z</time>
      </trkpt>
      <trkpt lat="44.3177" lon="5.71937">
        <ele>656</ele>
        <time>2019-03-08T14:38:05Z</time>
      </trkpt>
      <trkpt lat="44.31773" lon="5.71948">
        <ele>656</ele>
        <time>2019-03-08T14:38:06Z</time>
      </trkpt>
      <trkpt lat="44.31777" lon="5.71959">
        <ele>656</ele>
        <time>2019-03-08T14:38:07Z</time>
      </trkpt>
      <trkpt lat="44.3178" lon="5.71969">
        <ele>656</ele>
        <time>2019-03-08T14:38:08Z</time>
      </trkpt>
      <trkpt lat="44.31784" lon="5.7198">
        <ele>656</ele>
        <time>2019-03-08T14:38:09Z</time>
      </trkpt>
      <trkpt lat="44.31788" lon="5.71989">
        <ele>656</ele>
        <time>2019-03-08T14:38:10Z</time>
      </trkpt>
      <trkpt lat="44.31792" lon="5.72">
        <ele>656</ele>
        <time>2019-03-08T14:38:11Z</time>
      </trkpt>
      <trkpt lat="44.31796" lon="5.72009">
        <ele>656</ele>
        <time>2019-03-08T14:38:12Z</time>
      </trkpt>
      <trkpt lat="44.318" lon="5.72019">
        <ele>656</ele>
        <time>2019-03-08T14:38:13Z</time>
      </trkpt>
      <trkpt lat="44.31804" lon="5.72029">
        <ele>656</ele>
        <time>2019-03-08T14:38:14Z</time>
      </trkpt>
      <trkpt lat="44.31808" lon="5.7204">
        <ele>656</ele>
        <time>2019-03-08T14:38:15Z</time>
      </trkpt>
      <trkpt lat="44.31812" lon="5.7205">
        <ele>656</ele>
        <time>2019-03-08T14:38:16Z</time>
      </trkpt>
      <trkpt lat="44.31815" lon="5.7206">
        <ele>656</ele>
        <time>2019-03-08T14:38:17Z</time>
      </trkpt>
      <trkpt lat="44.31817" lon="5.7207">
        <ele>656</ele>
        <time>2019-03-08T14:38:18Z</time>
      </trkpt>
      <trkpt lat="44.3182" lon="5.72081">
        <ele>656</ele>
        <time>2019-03-08T14:38:19Z</time>
      </trkpt>
      <trkpt lat="44.31823" lon="5.72091">
        <ele>656</ele>
        <time>2019-03-08T14:38:20Z</time>
      </trkpt>
      <trkpt lat="44.31826" lon="5.72102">
        <ele>656</ele>
        <time>2019-03-08T14:38:21Z</time>
      </trkpt>
      <trkpt lat="44.31829" lon="5.72113">
        <ele>656</ele>
        <time>2019-03-08T14:38:22Z</time>
      </trkpt>
      <trkpt lat="44.31833" lon="5.72123">
        <ele>656</ele>
        <time>2019-03-08T14:38:23Z</time>
      </trkpt>
      <trkpt lat="44.31836" lon="5.72134">
        <ele>656</ele>
        <time>2019-03-08T14:38:24Z</time>
      </trkpt>
      <trkpt lat="44.31839" lon="5.72145">
        <ele>656</ele>
        <time>2019-03-08T14:38:25Z</time>
      </trkpt>
      <trkpt lat="44.31843" lon="5.72156">
        <ele>656</ele>
        <time>2019-03-08T14:38:26Z</time>
      </trkpt>
      <trkpt lat="44.31846" lon="5.72166">
        <ele>656</ele>
        <time>2019-03-08T14:38:27Z</time>
      </trkpt>
      <trkpt lat="44.31849" lon="5.72177">
        <ele>656</ele>
        <time>2019-03-08T14:38:28Z</time>
      </trkpt>
      <trkpt lat="44.31851" lon="5.72188">
        <ele>656</ele>
        <time>2019-03-08T14:38:29Z</time>
      </trkpt>
      <trkpt lat="44.31854" lon="5.72198">
        <ele>656</ele>
        <time>2019-03-08T14:38:30Z</time>
      </trkpt>
      <trkpt lat="44.31856" lon="5.72209">
        <ele>656</ele>
        <time>2019-03-08T14:38:31Z</time>
      </trkpt>
      <trkpt lat="44.31859" lon="5.7222">
        <ele>655</ele>
        <time>2019-03-08T14:38:32Z</time>
      </trkpt>
      <trkpt lat="44.31861" lon="5.7223">
        <ele>655</ele>
        <time>2019-03-08T14:38:33Z</time>
      </trkpt>
      <trkpt lat="44.31864" lon="5.72241">
        <ele>655</ele>
        <time>2019-03-08T14:38:34Z</time>
      </trkpt>
      <trkpt lat="44.31866" lon="5.72252">
        <ele>655</ele>
        <time>2019-03-08T14:38:35Z</time>
      </trkpt>
      <trkpt lat="44.31868" lon="5.72263">
        <ele>655</ele>
        <time>2019-03-08T14:38:36Z</time>
      </trkpt>
      <trkpt lat="44.3187" lon="5.72274">
        <ele>655</ele>
        <time>2019-03-08T14:38:37Z</time>
      </trkpt>
      <trkpt lat="44.31872" lon="5.72285">
        <ele>655</ele>
        <time>2019-03-08T14:38:38Z</time>
      </trkpt>
      <trkpt lat="44.31874" lon="5.72296">
        <ele>654</ele>
        <time>2019-03-08T14:38:39Z</time>
      </trkpt>
      <trkpt lat="44.31876" lon="5.72307">
        <ele>654</ele>
        <time>2019-03-08T14:38:40Z</time>
      </trkpt>
      <trkpt lat="44.31878" lon="5.72318">
        <ele>653</ele>
        <time>2019-03-08T14:38:41Z</time>
      </trkpt>
      <trkpt lat="44.31881" lon="5.72329">
        <ele>653</ele>
        <time>2019-03-08T14:38:42Z</time>
      </trkpt>
      <trkpt lat="44.31884" lon="5.7234">
        <ele>653</ele>
        <time>2019-03-08T14:38:43Z</time>
      </trkpt>
      <trkpt lat="44.31888" lon="5.72351">
        <ele>653</ele>
        <time>2019-03-08T14:38:44Z</time>
      </trkpt>
      <trkpt lat="44.31892" lon="5.72362">
        <ele>653</ele>
        <time>2019-03-08T14:38:45Z</time>
      </trkpt>
      <trkpt lat="44.31896" lon="5.72372">
        <ele>653</ele>
        <time>2019-03-08T14:38:46Z</time>
      </trkpt>
      <trkpt lat="44.31901" lon="5.72382">
        <ele>653</ele>
        <time>2019-03-08T14:38:47Z</time>
      </trkpt>
      <trkpt lat="44.31905" lon="5.72393">
        <ele>653</ele>
        <time>2019-03-08T14:38:48Z</time>
      </trkpt>
      <trkpt lat="44.3191" lon="5.72402">
        <ele>653</ele>
        <time>2019-03-08T14:38:49Z</time>
      </trkpt>
      <trkpt lat="44.31915" lon="5.72412">
        <ele>653</ele>
        <time>2019-03-08T14:38:50Z</time>
      </trkpt>
      <trkpt lat="44.3192" lon="5.72423">
        <ele>653</ele>
        <time>2019-03-08T14:38:51Z</time>
      </trkpt>
      <trkpt lat="44.31924" lon="5.72433">
        <ele>652</ele>
        <time>2019-03-08T14:38:52Z</time>
      </trkpt>
      <trkpt lat="44.31929" lon="5.72443">
        <ele>652</ele>
        <time>2019-03-08T14:38:53Z</time>
      </trkpt>
      <trkpt lat="44.31934" lon="5.72453">
        <ele>652</ele>
        <time>2019-03-08T14:38:54Z</time>
      </trkpt>
      <trkpt lat="44.31939" lon="5.72464">
        <ele>652</ele>
        <time>2019-03-08T14:38:55Z</time>
      </trkpt>
      <trkpt lat="44.31944" lon="5.72474">
        <ele>651</ele>
        <time>2019-03-08T14:38:56Z</time>
      </trkpt>
      <trkpt lat="44.31948" lon="5.72485">
        <ele>651</ele>
        <time>2019-03-08T14:38:57Z</time>
      </trkpt>
      <trkpt lat="44.31953" lon="5.72495">
        <ele>651</ele>
        <time>2019-03-08T14:38:58Z</time>
      </trkpt>
      <trkpt lat="44.31958" lon="5.72505">
        <ele>651</ele>
        <time>2019-03-08T14:38:59Z</time>
      </trkpt>
      <trkpt lat="44.31962" lon="5.72516">
        <ele>651</ele>
        <time>2019-03-08T14:39:00Z</time>
      </trkpt>
      <trkpt lat="44.31967" lon="5.72526">
        <ele>651</ele>
        <time>2019-03-08T14:39:01Z</time>
      </trkpt>
      <trkpt lat="44.31971" lon="5.72537">
        <ele>651</ele>
        <time>2019-03-08T14:39:02Z</time>
      </trkpt>
      <trkpt lat="44.31975" lon="5.72547">
        <ele>651</ele>
        <time>2019-03-08T14:39:03Z</time>
      </trkpt>
      <trkpt lat="44.31979" lon="5.72558">
        <ele>651</ele>
        <time>2019-03-08T14:39:04Z</time>
      </trkpt>
      <trkpt lat="44.31982" lon="5.7257">
        <ele>651</ele>
        <time>2019-03-08T14:39:05Z</time>
      </trkpt>
      <trkpt lat="44.31985" lon="5.72582">
        <ele>651</ele>
        <time>2019-03-08T14:39:06Z</time>
      </trkpt>
      <trkpt lat="44.31987" lon="5.72593">
        <ele>651</ele>
        <time>2019-03-08T14:39:07Z</time>
      </trkpt>
      <trkpt lat="44.31989" lon="5.72605">
        <ele>651</ele>
        <time>2019-03-08T14:39:08Z</time>
      </trkpt>
      <trkpt lat="44.31991" lon="5.72617">
        <ele>651</ele>
        <time>2019-03-08T14:39:09Z</time>
      </trkpt>
      <trkpt lat="44.31992" lon="5.72629">
        <ele>651</ele>
        <time>2019-03-08T14:39:10Z</time>
      </trkpt>
      <trkpt lat="44.31994" lon="5.72641">
        <ele>651</ele>
        <time>2019-03-08T14:39:11Z</time>
      </trkpt>
      <trkpt lat="44.31995" lon="5.72653">
        <ele>650</ele>
        <time>2019-03-08T14:39:12Z</time>
      </trkpt>
      <trkpt lat="44.31997" lon="5.72665">
        <ele>650</ele>
        <time>2019-03-08T14:39:13Z</time>
      </trkpt>
      <trkpt lat="44.31998" lon="5.72677">
        <ele>650</ele>
        <time>2019-03-08T14:39:14Z</time>
      </trkpt>
      <trkpt lat="44.32" lon="5.72689">
        <ele>650</ele>
        <time>2019-03-08T14:39:15Z</time>
      </trkpt>
      <trkpt lat="44.32001" lon="5.72701">
        <ele>649</ele>
        <time>2019-03-08T14:39:16Z</time>
      </trkpt>
      <trkpt lat="44.32003" lon="5.72713">
        <ele>649</ele>
        <time>2019-03-08T14:39:17Z</time>
      </trkpt>
      <trkpt lat="44.32004" lon="5.72724">
        <ele>649</ele>
        <time>2019-03-08T14:39:18Z</time>
      </trkpt>
      <trkpt lat="44.32006" lon="5.72737">
        <ele>649</ele>
        <time>2019-03-08T14:39:19Z</time>
      </trkpt>
      <trkpt lat="44.32007" lon="5.72749">
        <ele>648</ele>
        <time>2019-03-08T14:39:20Z</time>
      </trkpt>
      <trkpt lat="44.32009" lon="5.72761">
        <ele>648</ele>
        <time>2019-03-08T14:39:21Z</time>
      </trkpt>
      <trkpt lat="44.32011" lon="5.72773">
        <ele>648</ele>
        <time>2019-03-08T14:39:22Z</time>
      </trkpt>
      <trkpt lat="44.32012" lon="5.72786">
        <ele>648</ele>
        <time>2019-03-08T14:39:23Z</time>
      </trkpt>
      <trkpt lat="44.32014" lon="5.72799">
        <ele>647</ele>
        <time>2019-03-08T14:39:24Z</time>
      </trkpt>
      <trkpt lat="44.32016" lon="5.72811">
        <ele>647</ele>
        <time>2019-03-08T14:39:25Z</time>
      </trkpt>
      <trkpt lat="44.32017" lon="5.72824">
        <ele>647</ele>
        <time>2019-03-08T14:39:26Z</time>
      </trkpt>
      <trkpt lat="44.32019" lon="5.72836">
        <ele>647</ele>
        <time>2019-03-08T14:39:27Z</time>
      </trkpt>
      <trkpt lat="44.32021" lon="5.72849">
        <ele>647</ele>
        <time>2019-03-08T14:39:28Z</time>
      </trkpt>
      <trkpt lat="44.32022" lon="5.72862">
        <ele>646</ele>
        <time>2019-03-08T14:39:29Z</time>
      </trkpt>
      <trkpt lat="44.32024" lon="5.72875">
        <ele>646</ele>
        <time>2019-03-08T14:39:30Z</time>
      </trkpt>
      <trkpt lat="44.32026" lon="5.72888">
        <ele>646</ele>
        <time>2019-03-08T14:39:31Z</time>
      </trkpt>
      <trkpt lat="44.32027" lon="5.729">
        <ele>646</ele>
        <time>2019-03-08T14:39:32Z</time>
      </trkpt>
      <trkpt lat="44.32029" lon="5.72913">
        <ele>645</ele>
        <time>2019-03-08T14:39:33Z</time>
      </trkpt>
      <trkpt lat="44.3203" lon="5.72926">
        <ele>645</ele>
        <time>2019-03-08T14:39:34Z</time>
      </trkpt>
      <trkpt lat="44.32032" lon="5.72938">
        <ele>645</ele>
        <time>2019-03-08T14:39:35Z</time>
      </trkpt>
      <trkpt lat="44.32034" lon="5.72951">
        <ele>645</ele>
        <time>2019-03-08T14:39:36Z</time>
      </trkpt>
      <trkpt lat="44.32035" lon="5.72963">
        <ele>645</ele>
        <time>2019-03-08T14:39:37Z</time>
      </trkpt>
      <trkpt lat="44.32037" lon="5.72975">
        <ele>645</ele>
        <time>2019-03-08T14:39:38Z</time>
      </trkpt>
      <trkpt lat="44.32038" lon="5.72987">
        <ele>645</ele>
        <time>2019-03-08T14:39:39Z</time>
      </trkpt>
      <trkpt lat="44.3204" lon="5.72999">
        <ele>645</ele>
        <time>2019-03-08T14:39:40Z</time>
      </trkpt>
      <trkpt lat="44.32041" lon="5.7301">
        <ele>644</ele>
        <time>2019-03-08T14:39:41Z</time>
      </trkpt>
      <trkpt lat="44.32043" lon="5.73022">
        <ele>644</ele>
        <time>2019-03-08T14:39:42Z</time>
      </trkpt>
      <trkpt lat="44.32045" lon="5.73034">
        <ele>644</ele>
        <time>2019-03-08T14:39:43Z</time>
      </trkpt>
      <trkpt lat="44.32046" lon="5.73045">
        <ele>644</ele>
        <time>2019-03-08T14:39:44Z</time>
      </trkpt>
      <trkpt lat="44.32048" lon="5.73057">
        <ele>644</ele>
        <time>2019-03-08T14:39:45Z</time>
      </trkpt>
      <trkpt lat="44.32049" lon="5.73069">
        <ele>644</ele>
        <time>2019-03-08T14:39:46Z</time>
      </trkpt>
      <trkpt lat="44.3205" lon="5.73081">
        <ele>644</ele>
        <time>2019-03-08T14:39:47Z</time>
      </trkpt>
      <trkpt lat="44.32052" lon="5.73093">
        <ele>644</ele>
        <time>2019-03-08T14:39:48Z</time>
      </trkpt>
      <trkpt lat="44.32053" lon="5.73104">
        <ele>644</ele>
        <time>2019-03-08T14:39:49Z</time>
      </trkpt>
      <trkpt lat="44.32055" lon="5.73116">
        <ele>644</ele>
        <time>2019-03-08T14:39:50Z</time>
      </trkpt>
      <trkpt lat="44.32056" lon="5.73128">
        <ele>644</ele>
        <time>2019-03-08T14:39:51Z</time>
      </trkpt>
      <trkpt lat="44.32058" lon="5.7314">
        <ele>644</ele>
        <time>2019-03-08T14:39:52Z</time>
      </trkpt>
      <trkpt lat="44.32059" lon="5.73153">
        <ele>644</ele>
        <time>2019-03-08T14:39:53Z</time>
      </trkpt>
      <trkpt lat="44.32061" lon="5.73165">
        <ele>643</ele>
        <time>2019-03-08T14:39:54Z</time>
      </trkpt>
      <trkpt lat="44.32062" lon="5.73176">
        <ele>643</ele>
        <time>2019-03-08T14:39:55Z</time>
      </trkpt>
      <trkpt lat="44.32064" lon="5.73187">
        <ele>643</ele>
        <time>2019-03-08T14:39:56Z</time>
      </trkpt>
      <trkpt lat="44.32065" lon="5.73199">
        <ele>643</ele>
        <time>2019-03-08T14:39:57Z</time>
      </trkpt>
      <trkpt lat="44.32067" lon="5.7321">
        <ele>643</ele>
        <time>2019-03-08T14:39:58Z</time>
      </trkpt>
      <trkpt lat="44.32069" lon="5.73222">
        <ele>643</ele>
        <time>2019-03-08T14:39:59Z</time>
      </trkpt>
      <trkpt lat="44.32071" lon="5.73233">
        <ele>643</ele>
        <time>2019-03-08T14:40:00Z</time>
      </trkpt>
      <trkpt lat="44.32072" lon="5.73245">
        <ele>643</ele>
        <time>2019-03-08T14:40:01Z</time>
      </trkpt>
      <trkpt lat="44.32074" lon="5.73256">
        <ele>643</ele>
        <time>2019-03-08T14:40:02Z</time>
      </trkpt>
      <trkpt lat="44.32076" lon="5.73268">
        <ele>643</ele>
        <time>2019-03-08T14:40:03Z</time>
      </trkpt>
      <trkpt lat="44.32079" lon="5.73279">
        <ele>643</ele>
        <time>2019-03-08T14:40:04Z</time>
      </trkpt>
      <trkpt lat="44.32082" lon="5.73289">
        <ele>642</ele>
        <time>2019-03-08T14:40:05Z</time>
      </trkpt>
      <trkpt lat="44.32085" lon="5.733">
        <ele>642</ele>
        <time>2019-03-08T14:40:06Z</time>
      </trkpt>
      <trkpt lat="44.32088" lon="5.7331">
        <ele>642</ele>
        <time>2019-03-08T14:40:07Z</time>
      </trkpt>
      <trkpt lat="44.32092" lon="5.7332">
        <ele>642</ele>
        <time>2019-03-08T14:40:08Z</time>
      </trkpt>
      <trkpt lat="44.32095" lon="5.73331">
        <ele>642</ele>
        <time>2019-03-08T14:40:09Z</time>
      </trkpt>
      <trkpt lat="44.32098" lon="5.73341">
        <ele>642</ele>
        <time>2019-03-08T14:40:10Z</time>
      </trkpt>
      <trkpt lat="44.32102" lon="5.73351">
        <ele>642</ele>
        <time>2019-03-08T14:40:11Z</time>
      </trkpt>
      <trkpt lat="44.32105" lon="5.7336">
        <ele>642</ele>
        <time>2019-03-08T14:40:12Z</time>
      </trkpt>
      <trkpt lat="44.32109" lon="5.7337">
        <ele>642</ele>
        <time>2019-03-08T14:40:13Z</time>
      </trkpt>
      <trkpt lat="44.32112" lon="5.7338">
        <ele>642</ele>
        <time>2019-03-08T14:40:14Z</time>
      </trkpt>
      <trkpt lat="44.32115" lon="5.7339">
        <ele>642</ele>
        <time>2019-03-08T14:40:15Z</time>
      </trkpt>
      <trkpt lat="44.32119" lon="5.73399">
        <ele>642</ele>
        <time>2019-03-08T14:40:16Z</time>
      </trkpt>
      <trkpt lat="44.32122" lon="5.7341">
        <ele>642</ele>
        <time>2019-03-08T14:40:17Z</time>
      </trkpt>
      <trkpt lat="44.32126" lon="5.73419">
        <ele>642</ele>
        <time>2019-03-08T14:40:18Z</time>
      </trkpt>
      <trkpt lat="44.32129" lon="5.73429">
        <ele>642</ele>
        <time>2019-03-08T14:40:19Z</time>
      </trkpt>
      <trkpt lat="44.32133" lon="5.73439">
        <ele>642</ele>
        <time>2019-03-08T14:40:20Z</time>
      </trkpt>
      <trkpt lat="44.32136" lon="5.73449">
        <ele>642</ele>
        <time>2019-03-08T14:40:21Z</time>
      </trkpt>
      <trkpt lat="44.3214" lon="5.73459">
        <ele>642</ele>
        <time>2019-03-08T14:40:22Z</time>
      </trkpt>
      <trkpt lat="44.32143" lon="5.73469">
        <ele>642</ele>
        <time>2019-03-08T14:40:23Z</time>
      </trkpt>
      <trkpt lat="44.32147" lon="5.73479">
        <ele>642</ele>
        <time>2019-03-08T14:40:24Z</time>
      </trkpt>
      <trkpt lat="44.32151" lon="5.73489">
        <ele>642</ele>
        <time>2019-03-08T14:40:25Z</time>
      </trkpt>
      <trkpt lat="44.32154" lon="5.73499">
        <ele>642</ele>
        <time>2019-03-08T14:40:26Z</time>
      </trkpt>
      <trkpt lat="44.32158" lon="5.73509">
        <ele>642</ele>
        <time>2019-03-08T14:40:27Z</time>
      </trkpt>
      <trkpt lat="44.32162" lon="5.73519">
        <ele>642</ele>
        <time>2019-03-08T14:40:28Z</time>
      </trkpt>
      <trkpt lat="44.32165" lon="5.73529">
        <ele>642</ele>
        <time>2019-03-08T14:40:29Z</time>
      </trkpt>
      <trkpt lat="44.32169" lon="5.73539">
        <ele>642</ele>
        <time>2019-03-08T14:40:30Z</time>
      </trkpt>
      <trkpt lat="44.32172" lon="5.7355">
        <ele>642</ele>
        <time>2019-03-08T14:40:31Z</time>
      </trkpt>
      <trkpt lat="44.32176" lon="5.7356">
        <ele>642</ele>
        <time>2019-03-08T14:40:32Z</time>
      </trkpt>
      <trkpt lat="44.3218" lon="5.7357">
        <ele>642</ele>
        <time>2019-03-08T14:40:33Z</time>
      </trkpt>
      <trkpt lat="44.32183" lon="5.73581">
        <ele>642</ele>
        <time>2019-03-08T14:40:34Z</time>
      </trkpt>
      <trkpt lat="44.32187" lon="5.73592">
        <ele>642</ele>
        <time>2019-03-08T14:40:35Z</time>
      </trkpt>
      <trkpt lat="44.32191" lon="5.73602">
        <ele>642</ele>
        <time>2019-03-08T14:40:36Z</time>
      </trkpt>
      <trkpt lat="44.32195" lon="5.73613">
        <ele>642</ele>
        <time>2019-03-08T14:40:37Z</time>
      </trkpt>
      <trkpt lat="44.32199" lon="5.73625">
        <ele>642</ele>
        <time>2019-03-08T14:40:38Z</time>
      </trkpt>
      <trkpt lat="44.32203" lon="5.73635">
        <ele>642</ele>
        <time>2019-03-08T14:40:39Z</time>
      </trkpt>
      <trkpt lat="44.32207" lon="5.73647">
        <ele>642</ele>
        <time>2019-03-08T14:40:40Z</time>
      </trkpt>
      <trkpt lat="44.3221" lon="5.73658">
        <ele>642</ele>
        <time>2019-03-08T14:40:41Z</time>
      </trkpt>
      <trkpt lat="44.32214" lon="5.73668">
        <ele>642</ele>
        <time>2019-03-08T14:40:42Z</time>
      </trkpt>
      <trkpt lat="44.32218" lon="5.73679">
        <ele>642</ele>
        <time>2019-03-08T14:40:43Z</time>
      </trkpt>
      <trkpt lat="44.32222" lon="5.7369">
        <ele>642</ele>
        <time>2019-03-08T14:40:44Z</time>
      </trkpt>
      <trkpt lat="44.32226" lon="5.73701">
        <ele>642</ele>
        <time>2019-03-08T14:40:45Z</time>
      </trkpt>
      <trkpt lat="44.3223" lon="5.73711">
        <ele>642</ele>
        <time>2019-03-08T14:40:46Z</time>
      </trkpt>
      <trkpt lat="44.32233" lon="5.73721">
        <ele>642</ele>
        <time>2019-03-08T14:40:47Z</time>
      </trkpt>
      <trkpt lat="44.32237" lon="5.73732">
        <ele>642</ele>
        <time>2019-03-08T14:40:48Z</time>
      </trkpt>
      <trkpt lat="44.3224" lon="5.73742">
        <ele>642</ele>
        <time>2019-03-08T14:40:49Z</time>
      </trkpt>
      <trkpt lat="44.32244" lon="5.73753">
        <ele>642</ele>
        <time>2019-03-08T14:40:50Z</time>
      </trkpt>
      <trkpt lat="44.32248" lon="5.73763">
        <ele>642</ele>
        <time>2019-03-08T14:40:51Z</time>
      </trkpt>
      <trkpt lat="44.32251" lon="5.73773">
        <ele>642</ele>
        <time>2019-03-08T14:40:52Z</time>
      </trkpt>
      <trkpt lat="44.32255" lon="5.73784">
        <ele>642</ele>
        <time>2019-03-08T14:40:53Z</time>
      </trkpt>
      <trkpt lat="44.32259" lon="5.73795">
        <ele>642</ele>
        <time>2019-03-08T14:40:54Z</time>
      </trkpt>
      <trkpt lat="44.32263" lon="5.73805">
        <ele>641</ele>
        <time>2019-03-08T14:40:55Z</time>
      </trkpt>
      <trkpt lat="44.32267" lon="5.73816">
        <ele>641</ele>
        <time>2019-03-08T14:40:56Z</time>
      </trkpt>
      <trkpt lat="44.32271" lon="5.73827">
        <ele>641</ele>
        <time>2019-03-08T14:40:57Z</time>
      </trkpt>
      <trkpt lat="44.32274" lon="5.73837">
        <ele>641</ele>
        <time>2019-03-08T14:40:58Z</time>
      </trkpt>
      <trkpt lat="44.32278" lon="5.73848">
        <ele>641</ele>
        <time>2019-03-08T14:40:59Z</time>
      </trkpt>
      <trkpt lat="44.32282" lon="5.73859">
        <ele>641</ele>
        <time>2019-03-08T14:41:00Z</time>
      </trkpt>
      <trkpt lat="44.32285" lon="5.7387">
        <ele>641</ele>
        <time>2019-03-08T14:41:01Z</time>
      </trkpt>
      <trkpt lat="44.32289" lon="5.73881">
        <ele>640</ele>
        <time>2019-03-08T14:41:02Z</time>
      </trkpt>
      <trkpt lat="44.32293" lon="5.73891">
        <ele>640</ele>
        <time>2019-03-08T14:41:03Z</time>
      </trkpt>
      <trkpt lat="44.32297" lon="5.73902">
        <ele>640</ele>
        <time>2019-03-08T14:41:04Z</time>
      </trkpt>
      <trkpt lat="44.32301" lon="5.73912">
        <ele>640</ele>
        <time>2019-03-08T14:41:05Z</time>
      </trkpt>
      <trkpt lat="44.32306" lon="5.73923">
        <ele>640</ele>
        <time>2019-03-08T14:41:06Z</time>
      </trkpt>
      <trkpt lat="44.32311" lon="5.73934">
        <ele>640</ele>
        <time>2019-03-08T14:41:07Z</time>
      </trkpt>
      <trkpt lat="44.32316" lon="5.73944">
        <ele>640</ele>
        <time>2019-03-08T14:41:08Z</time>
      </trkpt>
      <trkpt lat="44.32321" lon="5.73955">
        <ele>639</ele>
        <time>2019-03-08T14:41:09Z</time>
      </trkpt>
      <trkpt lat="44.32327" lon="5.73966">
        <ele>639</ele>
        <time>2019-03-08T14:41:10Z</time>
      </trkpt>
      <trkpt lat="44.32333" lon="5.73977">
        <ele>639</ele>
        <time>2019-03-08T14:41:11Z</time>
      </trkpt>
      <trkpt lat="44.32338" lon="5.73987">
        <ele>639</ele>
        <time>2019-03-08T14:41:12Z</time>
      </trkpt>
      <trkpt lat="44.32344" lon="5.73998">
        <ele>638</ele>
        <time>2019-03-08T14:41:13Z</time>
      </trkpt>
      <trkpt lat="44.3235" lon="5.7401">
        <ele>638</ele>
        <time>2019-03-08T14:41:14Z</time>
      </trkpt>
      <trkpt lat="44.32357" lon="5.74021">
        <ele>637</ele>
        <time>2019-03-08T14:41:15Z</time>
      </trkpt>
      <trkpt lat="44.32363" lon="5.74033">
        <ele>637</ele>
        <time>2019-03-08T14:41:16Z</time>
      </trkpt>
      <trkpt lat="44.32369" lon="5.74045">
        <ele>636</ele>
        <time>2019-03-08T14:41:17Z</time>
      </trkpt>
      <trkpt lat="44.32375" lon="5.74057">
        <ele>635</ele>
        <time>2019-03-08T14:41:18Z</time>
      </trkpt>
      <trkpt lat="44.32382" lon="5.74069">
        <ele>635</ele>
        <time>2019-03-08T14:41:19Z</time>
      </trkpt>
      <trkpt lat="44.32388" lon="5.74081">
        <ele>635</ele>
        <time>2019-03-08T14:41:20Z</time>
      </trkpt>
      <trkpt lat="44.32394" lon="5.74093">
        <ele>635</ele>
        <time>2019-03-08T14:41:21Z</time>
      </trkpt>
      <trkpt lat="44.32401" lon="5.74104">
        <ele>635</ele>
        <time>2019-03-08T14:41:22Z</time>
      </trkpt>
      <trkpt lat="44.32407" lon="5.74116">
        <ele>635</ele>
        <time>2019-03-08T14:41:23Z</time>
      </trkpt>
      <trkpt lat="44.32412" lon="5.74127">
        <ele>635</ele>
        <time>2019-03-08T14:41:24Z</time>
      </trkpt>
      <trkpt lat="44.32418" lon="5.74137">
        <ele>635</ele>
        <time>2019-03-08T14:41:25Z</time>
      </trkpt>
      <trkpt lat="44.32423" lon="5.74148">
        <ele>635</ele>
        <time>2019-03-08T14:41:26Z</time>
      </trkpt>
      <trkpt lat="44.32429" lon="5.74158">
        <ele>635</ele>
        <time>2019-03-08T14:41:27Z</time>
      </trkpt>
      <trkpt lat="44.32434" lon="5.74167">
        <ele>635</ele>
        <time>2019-03-08T14:41:28Z</time>
      </trkpt>
      <trkpt lat="44.32439" lon="5.74177">
        <ele>635</ele>
        <time>2019-03-08T14:41:29Z</time>
      </trkpt>
      <trkpt lat="44.32443" lon="5.74186">
        <ele>635</ele>
        <time>2019-03-08T14:41:30Z</time>
      </trkpt>
      <trkpt lat="44.32448" lon="5.74195">
        <ele>635</ele>
        <time>2019-03-08T14:41:31Z</time>
      </trkpt>
      <trkpt lat="44.32452" lon="5.74203">
        <ele>635</ele>
        <time>2019-03-08T14:41:32Z</time>
      </trkpt>
      <trkpt lat="44.32457" lon="5.74212">
        <ele>635</ele>
        <time>2019-03-08T14:41:33Z</time>
      </trkpt>
      <trkpt lat="44.32461" lon="5.7422">
        <ele>635</ele>
        <time>2019-03-08T14:41:34Z</time>
      </trkpt>
      <trkpt lat="44.32465" lon="5.74227">
        <ele>635</ele>
        <time>2019-03-08T14:41:35Z</time>
      </trkpt>
      <trkpt lat="44.3247" lon="5.74234">
        <ele>635</ele>
        <time>2019-03-08T14:41:36Z</time>
      </trkpt>
      <trkpt lat="44.32475" lon="5.74241">
        <ele>635</ele>
        <time>2019-03-08T14:41:37Z</time>
      </trkpt>
      <trkpt lat="44.32479" lon="5.74247">
        <ele>635</ele>
        <time>2019-03-08T14:41:38Z</time>
      </trkpt>
      <trkpt lat="44.32484" lon="5.74254">
        <ele>635</ele>
        <time>2019-03-08T14:41:39Z</time>
      </trkpt>
      <trkpt lat="44.32489" lon="5.74261">
        <ele>635</ele>
        <time>2019-03-08T14:41:40Z</time>
      </trkpt>
      <trkpt lat="44.32495" lon="5.74267">
        <ele>635</ele>
        <time>2019-03-08T14:41:41Z</time>
      </trkpt>
      <trkpt lat="44.325" lon="5.74273">
        <ele>635</ele>
        <time>2019-03-08T14:41:42Z</time>
      </trkpt>
      <trkpt lat="44.32505" lon="5.7428">
        <ele>635</ele>
        <time>2019-03-08T14:41:43Z</time>
      </trkpt>
      <trkpt lat="44.32511" lon="5.74286">
        <ele>635</ele>
        <time>2019-03-08T14:41:44Z</time>
      </trkpt>
      <trkpt lat="44.32517" lon="5.74293">
        <ele>635</ele>
        <time>2019-03-08T14:41:45Z</time>
      </trkpt>
      <trkpt lat="44.32523" lon="5.743">
        <ele>635</ele>
        <time>2019-03-08T14:41:46Z</time>
      </trkpt>
      <trkpt lat="44.32529" lon="5.74307">
        <ele>635</ele>
        <time>2019-03-08T14:41:47Z</time>
      </trkpt>
      <trkpt lat="44.32535" lon="5.74314">
        <ele>635</ele>
        <time>2019-03-08T14:41:48Z</time>
      </trkpt>
      <trkpt lat="44.32542" lon="5.74322">
        <ele>635</ele>
        <time>2019-03-08T14:41:49Z</time>
      </trkpt>
      <trkpt lat="44.32548" lon="5.7433">
        <ele>635</ele>
        <time>2019-03-08T14:41:50Z</time>
      </trkpt>
      <trkpt lat="44.32554" lon="5.74337">
        <ele>635</ele>
        <time>2019-03-08T14:41:51Z</time>
      </trkpt>
      <trkpt lat="44.3256" lon="5.74345">
        <ele>635</ele>
        <time>2019-03-08T14:41:52Z</time>
      </trkpt>
      <trkpt lat="44.32566" lon="5.74353">
        <ele>635</ele>
        <time>2019-03-08T14:41:53Z</time>
      </trkpt>
      <trkpt lat="44.32572" lon="5.7436">
        <ele>635</ele>
        <time>2019-03-08T14:41:54Z</time>
      </trkpt>
      <trkpt lat="44.32578" lon="5.74368">
        <ele>635</ele>
        <time>2019-03-08T14:41:55Z</time>
      </trkpt>
      <trkpt lat="44.32583" lon="5.74376">
        <ele>635</ele>
        <time>2019-03-08T14:41:56Z</time>
      </trkpt>
      <trkpt lat="44.32589" lon="5.74384">
        <ele>635</ele>
        <time>2019-03-08T14:41:57Z</time>
      </trkpt>
      <trkpt lat="44.32594" lon="5.74392">
        <ele>635</ele>
        <time>2019-03-08T14:41:58Z</time>
      </trkpt>
      <trkpt lat="44.326" lon="5.744">
        <ele>635</ele>
        <time>2019-03-08T14:41:59Z</time>
      </trkpt>
      <trkpt lat="44.32605" lon="5.74407">
        <ele>635</ele>
        <time>2019-03-08T14:42:00Z</time>
      </trkpt>
      <trkpt lat="44.32611" lon="5.74415">
        <ele>635</ele>
        <time>2019-03-08T14:42:01Z</time>
      </trkpt>
      <trkpt lat="44.32616" lon="5.74424">
        <ele>635</ele>
        <time>2019-03-08T14:42:02Z</time>
      </trkpt>
      <trkpt lat="44.32622" lon="5.74432">
        <ele>635</ele>
        <time>2019-03-08T14:42:03Z</time>
      </trkpt>
      <trkpt lat="44.32628" lon="5.7444">
        <ele>635</ele>
        <time>2019-03-08T14:42:04Z</time>
      </trkpt>
      <trkpt lat="44.32634" lon="5.74448">
        <ele>635</ele>
        <time>2019-03-08T14:42:05Z</time>
      </trkpt>
      <trkpt lat="44.3264" lon="5.74457">
        <ele>635</ele>
        <time>2019-03-08T14:42:06Z</time>
      </trkpt>
      <trkpt lat="44.32646" lon="5.74466">
        <ele>635</ele>
        <time>2019-03-08T14:42:07Z</time>
      </trkpt>
      <trkpt lat="44.32652" lon="5.74474">
        <ele>635</ele>
        <time>2019-03-08T14:42:08Z</time>
      </trkpt>
      <trkpt lat="44.32658" lon="5.74483">
        <ele>635</ele>
        <time>2019-03-08T14:42:09Z</time>
      </trkpt>
      <trkpt lat="44.32664" lon="5.74492">
        <ele>635</ele>
        <time>2019-03-08T14:42:10Z</time>
      </trkpt>
      <trkpt lat="44.32671" lon="5.74501">
        <ele>635</ele>
        <time>2019-03-08T14:42:11Z</time>
      </trkpt>
      <trkpt lat="44.32677" lon="5.74509">
        <ele>635</ele>
        <time>2019-03-08T14:42:12Z</time>
      </trkpt>
      <trkpt lat="44.32684" lon="5.74517">
        <ele>634</ele>
        <time>2019-03-08T14:42:13Z</time>
      </trkpt>
      <trkpt lat="44.32691" lon="5.74525">
        <ele>634</ele>
        <time>2019-03-08T14:42:14Z</time>
      </trkpt>
      <trkpt lat="44.32699" lon="5.74534">
        <ele>634</ele>
        <time>2019-03-08T14:42:15Z</time>
      </trkpt>
      <trkpt lat="44.32707" lon="5.7454">
        <ele>634</ele>
        <time>2019-03-08T14:42:16Z</time>
      </trkpt>
      <trkpt lat="44.32716" lon="5.74546">
        <ele>633</ele>
        <time>2019-03-08T14:42:17Z</time>
      </trkpt>
      <trkpt lat="44.32725" lon="5.74552">
        <ele>633</ele>
        <time>2019-03-08T14:42:18Z</time>
      </trkpt>
      <trkpt lat="44.32734" lon="5.74557">
        <ele>632</ele>
        <time>2019-03-08T14:42:19Z</time>
      </trkpt>
      <trkpt lat="44.32743" lon="5.74563">
        <ele>632</ele>
        <time>2019-03-08T14:42:20Z</time>
      </trkpt>
      <trkpt lat="44.32752" lon="5.74569">
        <ele>632</ele>
        <time>2019-03-08T14:42:21Z</time>
      </trkpt>
      <trkpt lat="44.32761" lon="5.74574">
        <ele>631</ele>
        <time>2019-03-08T14:42:22Z</time>
      </trkpt>
      <trkpt lat="44.3277" lon="5.74579">
        <ele>631</ele>
        <time>2019-03-08T14:42:23Z</time>
      </trkpt>
      <trkpt lat="44.32778" lon="5.74585">
        <ele>631</ele>
        <time>2019-03-08T14:42:24Z</time>
      </trkpt>
      <trkpt lat="44.32786" lon="5.74591">
        <ele>631</ele>
        <time>2019-03-08T14:42:25Z</time>
      </trkpt>
      <trkpt lat="44.32794" lon="5.74597">
        <ele>631</ele>
        <time>2019-03-08T14:42:26Z</time>
      </trkpt>
      <trkpt lat="44.32801" lon="5.74603">
        <ele>631</ele>
        <time>2019-03-08T14:42:27Z</time>
      </trkpt>
      <trkpt lat="44.32809" lon="5.7461">
        <ele>631</ele>
        <time>2019-03-08T14:42:28Z</time>
      </trkpt>
      <trkpt lat="44.32815" lon="5.74616">
        <ele>631</ele>
        <time>2019-03-08T14:42:29Z</time>
      </trkpt>
      <trkpt lat="44.32822" lon="5.74623">
        <ele>631</ele>
        <time>2019-03-08T14:42:30Z</time>
      </trkpt>
      <trkpt lat="44.32829" lon="5.74631">
        <ele>631</ele>
        <time>2019-03-08T14:42:31Z</time>
      </trkpt>
      <trkpt lat="44.32835" lon="5.74638">
        <ele>631</ele>
        <time>2019-03-08T14:42:32Z</time>
      </trkpt>
      <trkpt lat="44.32842" lon="5.74645">
        <ele>631</ele>
        <time>2019-03-08T14:42:33Z</time>
      </trkpt>
      <trkpt lat="44.32849" lon="5.74652">
        <ele>631</ele>
        <time>2019-03-08T14:42:34Z</time>
      </trkpt>
      <trkpt lat="44.32856" lon="5.74659">
        <ele>630</ele>
        <time>2019-03-08T14:42:35Z</time>
      </trkpt>
      <trkpt lat="44.32862" lon="5.74667">
        <ele>630</ele>
        <time>2019-03-08T14:42:36Z</time>
      </trkpt>
      <trkpt lat="44.32869" lon="5.74674">
        <ele>630</ele>
        <time>2019-03-08T14:42:37Z</time>
      </trkpt>
      <trkpt lat="44.32876" lon="5.74681">
        <ele>630</ele>
        <time>2019-03-08T14:42:38Z</time>
      </trkpt>
      <trkpt lat="44.32883" lon="5.74689">
        <ele>630</ele>
        <time>2019-03-08T14:42:39Z</time>
      </trkpt>
      <trkpt lat="44.3289" lon="5.74696">
        <ele>629</ele>
        <time>2019-03-08T14:42:40Z</time>
      </trkpt>
      <trkpt lat="44.32897" lon="5.74704">
        <ele>629</ele>
        <time>2019-03-08T14:42:41Z</time>
      </trkpt>
      <trkpt lat="44.32904" lon="5.74711">
        <ele>629</ele>
        <time>2019-03-08T14:42:42Z</time>
      </trkpt>
      <trkpt lat="44.32911" lon="5.74719">
        <ele>629</ele>
        <time>2019-03-08T14:42:43Z</time>
      </trkpt>
      <trkpt lat="44.32918" lon="5.74726">
        <ele>628</ele>
        <time>2019-03-08T14:42:44Z</time>
      </trkpt>
      <trkpt lat="44.32926" lon="5.74734">
        <ele>628</ele>
        <time>2019-03-08T14:42:45Z</time>
      </trkpt>
      <trkpt lat="44.32933" lon="5.74742">
        <ele>628</ele>
        <time>2019-03-08T14:42:46Z</time>
      </trkpt>
      <trkpt lat="44.3294" lon="5.7475">
        <ele>628</ele>
        <time>2019-03-08T14:42:47Z</time>
      </trkpt>
      <trkpt lat="44.32948" lon="5.74757">
        <ele>628</ele>
        <time>2019-03-08T14:42:48Z</time>
      </trkpt>
      <trkpt lat="44.32954" lon="5.74765">
        <ele>628</ele>
        <time>2019-03-08T14:42:49Z</time>
      </trkpt>
      <trkpt lat="44.32962" lon="5.74773">
        <ele>628</ele>
        <time>2019-03-08T14:42:50Z</time>
      </trkpt>
      <trkpt lat="44.32969" lon="5.7478">
        <ele>628</ele>
        <time>2019-03-08T14:42:51Z</time>
      </trkpt>
      <trkpt lat="44.32975" lon="5.74787">
        <ele>628</ele>
        <time>2019-03-08T14:42:52Z</time>
      </trkpt>
      <trkpt lat="44.32982" lon="5.74794">
        <ele>628</ele>
        <time>2019-03-08T14:42:53Z</time>
      </trkpt>
      <trkpt lat="44.32989" lon="5.74802">
        <ele>628</ele>
        <time>2019-03-08T14:42:54Z</time>
      </trkpt>
      <trkpt lat="44.32996" lon="5.74809">
        <ele>627</ele>
        <time>2019-03-08T14:42:55Z</time>
      </trkpt>
      <trkpt lat="44.33002" lon="5.74816">
        <ele>627</ele>
        <time>2019-03-08T14:42:56Z</time>
      </trkpt>
      <trkpt lat="44.33009" lon="5.74824">
        <ele>627</ele>
        <time>2019-03-08T14:42:57Z</time>
      </trkpt>
      <trkpt lat="44.33016" lon="5.74831">
        <ele>627</ele>
        <time>2019-03-08T14:42:58Z</time>
      </trkpt>
      <trkpt lat="44.33023" lon="5.74838">
        <ele>627</ele>
        <time>2019-03-08T14:42:59Z</time>
      </trkpt>
      <trkpt lat="44.3303" lon="5.74845">
        <ele>627</ele>
        <time>2019-03-08T14:43:00Z</time>
      </trkpt>
      <trkpt lat="44.33036" lon="5.74852">
        <ele>627</ele>
        <time>2019-03-08T14:43:01Z</time>
      </trkpt>
      <trkpt lat="44.33043" lon="5.7486">
        <ele>627</ele>
        <time>2019-03-08T14:43:02Z</time>
      </trkpt>
      <trkpt lat="44.33049" lon="5.74867">
        <ele>627</ele>
        <time>2019-03-08T14:43:03Z</time>
      </trkpt>
      <trkpt lat="44.33055" lon="5.74876">
        <ele>627</ele>
        <time>2019-03-08T14:43:04Z</time>
      </trkpt>
      <trkpt lat="44.3306" lon="5.74885">
        <ele>627</ele>
        <time>2019-03-08T14:43:05Z</time>
      </trkpt>
      <trkpt lat="44.33065" lon="5.74895">
        <ele>627</ele>
        <time>2019-03-08T14:43:06Z</time>
      </trkpt>
      <trkpt lat="44.3307" lon="5.74904">
        <ele>627</ele>
        <time>2019-03-08T14:43:07Z</time>
      </trkpt>
      <trkpt lat="44.33074" lon="5.74915">
        <ele>627</ele>
        <time>2019-03-08T14:43:08Z</time>
      </trkpt>
      <trkpt lat="44.33078" lon="5.74925">
        <ele>627</ele>
        <time>2019-03-08T14:43:09Z</time>
      </trkpt>
      <trkpt lat="44.33083" lon="5.74935">
        <ele>627</ele>
        <time>2019-03-08T14:43:10Z</time>
      </trkpt>
      <trkpt lat="44.33087" lon="5.74946">
        <ele>627</ele>
        <time>2019-03-08T14:43:11Z</time>
      </trkpt>
      <trkpt lat="44.33091" lon="5.74956">
        <ele>627</ele>
        <time>2019-03-08T14:43:12Z</time>
      </trkpt>
      <trkpt lat="44.33096" lon="5.74966">
        <ele>627</ele>
        <time>2019-03-08T14:43:13Z</time>
      </trkpt>
      <trkpt lat="44.331" lon="5.74977">
        <ele>627</ele>
        <time>2019-03-08T14:43:14Z</time>
      </trkpt>
      <trkpt lat="44.33104" lon="5.74987">
        <ele>627</ele>
        <time>2019-03-08T14:43:15Z</time>
      </trkpt>
      <trkpt lat="44.33108" lon="5.74997">
        <ele>627</ele>
        <time>2019-03-08T14:43:16Z</time>
      </trkpt>
      <trkpt lat="44.33112" lon="5.75007">
        <ele>627</ele>
        <time>2019-03-08T14:43:17Z</time>
      </trkpt>
      <trkpt lat="44.33117" lon="5.75018">
        <ele>626</ele>
        <time>2019-03-08T14:43:18Z</time>
      </trkpt>
      <trkpt lat="44.33121" lon="5.75028">
        <ele>626</ele>
        <time>2019-03-08T14:43:19Z</time>
      </trkpt>
      <trkpt lat="44.33127" lon="5.75038">
        <ele>626</ele>
        <time>2019-03-08T14:43:20Z</time>
      </trkpt>
      <trkpt lat="44.33133" lon="5.75048">
        <ele>626</ele>
        <time>2019-03-08T14:43:21Z</time>
      </trkpt>
      <trkpt lat="44.33139" lon="5.75057">
        <ele>626</ele>
        <time>2019-03-08T14:43:22Z</time>
      </trkpt>
      <trkpt lat="44.33146" lon="5.75065">
        <ele>625</ele>
        <time>2019-03-08T14:43:23Z</time>
      </trkpt>
      <trkpt lat="44.33154" lon="5.75072">
        <ele>625</ele>
        <time>2019-03-08T14:43:24Z</time>
      </trkpt>
      <trkpt lat="44.33162" lon="5.75079">
        <ele>625</ele>
        <time>2019-03-08T14:43:25Z</time>
      </trkpt>
      <trkpt lat="44.3317" lon="5.75085">
        <ele>624</ele>
        <time>2019-03-08T14:43:26Z</time>
      </trkpt>
      <trkpt lat="44.33179" lon="5.75091">
        <ele>624</ele>
        <time>2019-03-08T14:43:27Z</time>
      </trkpt>
      <trkpt lat="44.33188" lon="5.75096">
        <ele>623</ele>
        <time>2019-03-08T14:43:28Z</time>
      </trkpt>
      <trkpt lat="44.33197" lon="5.75102">
        <ele>623</ele>
        <time>2019-03-08T14:43:29Z</time>
      </trkpt>
      <trkpt lat="44.33206" lon="5.75108">
        <ele>623</ele>
        <time>2019-03-08T14:43:30Z</time>
      </trkpt>
      <trkpt lat="44.33214" lon="5.75114">
        <ele>622</ele>
        <time>2019-03-08T14:43:31Z</time>
      </trkpt>
      <trkpt lat="44.33223" lon="5.7512">
        <ele>622</ele>
        <time>2019-03-08T14:43:32Z</time>
      </trkpt>
      <trkpt lat="44.33232" lon="5.75127">
        <ele>622</ele>
        <time>2019-03-08T14:43:33Z</time>
      </trkpt>
      <trkpt lat="44.33241" lon="5.75133">
        <ele>621</ele>
        <time>2019-03-08T14:43:34Z</time>
      </trkpt>
      <trkpt lat="44.33249" lon="5.75139">
        <ele>621</ele>
        <time>2019-03-08T14:43:35Z</time>
      </trkpt>
      <trkpt lat="44.33258" lon="5.75145">
        <ele>621</ele>
        <time>2019-03-08T14:43:36Z</time>
      </trkpt>
      <trkpt lat="44.33266" lon="5.75152">
        <ele>620</ele>
        <time>2019-03-08T14:43:37Z</time>
      </trkpt>
      <trkpt lat="44.33275" lon="5.75158">
        <ele>620</ele>
        <time>2019-03-08T14:43:38Z</time>
      </trkpt>
      <trkpt lat="44.33283" lon="5.75164">
        <ele>620</ele>
        <time>2019-03-08T14:43:39Z</time>
      </trkpt>
      <trkpt lat="44.33292" lon="5.7517">
        <ele>620</ele>
        <time>2019-03-08T14:43:40Z</time>
      </trkpt>
      <trkpt lat="44.333" lon="5.75176">
        <ele>620</ele>
        <time>2019-03-08T14:43:41Z</time>
      </trkpt>
      <trkpt lat="44.33308" lon="5.75181">
        <ele>620</ele>
        <time>2019-03-08T14:43:42Z</time>
      </trkpt>
      <trkpt lat="44.33316" lon="5.75187">
        <ele>620</ele>
        <time>2019-03-08T14:43:43Z</time>
      </trkpt>
      <trkpt lat="44.33323" lon="5.75192">
        <ele>620</ele>
        <time>2019-03-08T14:43:44Z</time>
      </trkpt>
      <trkpt lat="44.33331" lon="5.75198">
        <ele>620</ele>
        <time>2019-03-08T14:43:45Z</time>
      </trkpt>
      <trkpt lat="44.33338" lon="5.75203">
        <ele>620</ele>
        <time>2019-03-08T14:43:46Z</time>
      </trkpt>
      <trkpt lat="44.33345" lon="5.75208">
        <ele>620</ele>
        <time>2019-03-08T14:43:47Z</time>
      </trkpt>
      <trkpt lat="44.33353" lon="5.75213">
        <ele>620</ele>
        <time>2019-03-08T14:43:48Z</time>
      </trkpt>
      <trkpt lat="44.3336" lon="5.75218">
        <ele>620</ele>
        <time>2019-03-08T14:43:49Z</time>
      </trkpt>
      <trkpt lat="44.33367" lon="5.75223">
        <ele>620</ele>
        <time>2019-03-08T14:43:50Z</time>
      </trkpt>
      <trkpt lat="44.33374" lon="5.75229">
        <ele>620</ele>
        <time>2019-03-08T14:43:51Z</time>
      </trkpt>
      <trkpt lat="44.33381" lon="5.75234">
        <ele>620</ele>
        <time>2019-03-08T14:43:52Z</time>
      </trkpt>
      <trkpt lat="44.33388" lon="5.75239">
        <ele>620</ele>
        <time>2019-03-08T14:43:53Z</time>
      </trkpt>
      <trkpt lat="44.33395" lon="5.75244">
        <ele>620</ele>
        <time>2019-03-08T14:43:54Z</time>
      </trkpt>
      <trkpt lat="44.33402" lon="5.7525">
        <ele>620</ele>
        <time>2019-03-08T14:43:55Z</time>
      </trkpt>
      <trkpt lat="44.33409" lon="5.75255">
        <ele>620</ele>
        <time>2019-03-08T14:43:56Z</time>
      </trkpt>
      <trkpt lat="44.33416" lon="5.75262">
        <ele>620</ele>
        <time>2019-03-08T14:43:57Z</time>
      </trkpt>
      <trkpt lat="44.33423" lon="5.75268">
        <ele>620</ele>
        <time>2019-03-08T14:43:58Z</time>
      </trkpt>
      <trkpt lat="44.3343" lon="5.75275">
        <ele>620</ele>
        <time>2019-03-08T14:43:59Z</time>
      </trkpt>
      <trkpt lat="44.33437" lon="5.75281">
        <ele>620</ele>
        <time>2019-03-08T14:44:00Z</time>
      </trkpt>
      <trkpt lat="44.33443" lon="5.75288">
        <ele>620</ele>
        <time>2019-03-08T14:44:01Z</time>
      </trkpt>
      <trkpt lat="44.3345" lon="5.75294">
        <ele>620</ele>
        <time>2019-03-08T14:44:02Z</time>
      </trkpt>
      <trkpt lat="44.33456" lon="5.75301">
        <ele>620</ele>
        <time>2019-03-08T14:44:03Z</time>
      </trkpt>
      <trkpt lat="44.33463" lon="5.75308">
        <ele>620</ele>
        <time>2019-03-08T14:44:04Z</time>
      </trkpt>
      <trkpt lat="44.33469" lon="5.75315">
        <ele>620</ele>
        <time>2019-03-08T14:44:05Z</time>
      </trkpt>
      <trkpt lat="44.33475" lon="5.75322">
        <ele>620</ele>
        <time>2019-03-08T14:44:06Z</time>
      </trkpt>
      <trkpt lat="44.33482" lon="5.75329">
        <ele>620</ele>
        <time>2019-03-08T14:44:07Z</time>
      </trkpt>
      <trkpt lat="44.33488" lon="5.75337">
        <ele>620</ele>
        <time>2019-03-08T14:44:08Z</time>
      </trkpt>
      <trkpt lat="44.33495" lon="5.75344">
        <ele>619</ele>
        <time>2019-03-08T14:44:09Z</time>
      </trkpt>
      <trkpt lat="44.33502" lon="5.75352">
        <ele>619</ele>
        <time>2019-03-08T14:44:10Z</time>
      </trkpt>
      <trkpt lat="44.33509" lon="5.7536">
        <ele>619</ele>
        <time>2019-03-08T14:44:11Z</time>
      </trkpt>
      <trkpt lat="44.33516" lon="5.75369">
        <ele>618</ele>
        <time>2019-03-08T14:44:12Z</time>
      </trkpt>
      <trkpt lat="44.33523" lon="5.75377">
        <ele>618</ele>
        <time>2019-03-08T14:44:13Z</time>
      </trkpt>
      <trkpt lat="44.3353" lon="5.75386">
        <ele>617</ele>
        <time>2019-03-08T14:44:14Z</time>
      </trkpt>
      <trkpt lat="44.33538" lon="5.75394">
        <ele>617</ele>
        <time>2019-03-08T14:44:15Z</time>
      </trkpt>
      <trkpt lat="44.33545" lon="5.75403">
        <ele>616</ele>
        <time>2019-03-08T14:44:16Z</time>
      </trkpt>
      <trkpt lat="44.33553" lon="5.75412">
        <ele>616</ele>
        <time>2019-03-08T14:44:17Z</time>
      </trkpt>
      <trkpt lat="44.3356" lon="5.75421">
        <ele>615</ele>
        <time>2019-03-08T14:44:18Z</time>
      </trkpt>
      <trkpt lat="44.33568" lon="5.7543">
        <ele>615</ele>
        <time>2019-03-08T14:44:19Z</time>
      </trkpt>
      <trkpt lat="44.33576" lon="5.75439">
        <ele>614</ele>
        <time>2019-03-08T14:44:20Z</time>
      </trkpt>
      <trkpt lat="44.33584" lon="5.75448">
        <ele>614</ele>
        <time>2019-03-08T14:44:21Z</time>
      </trkpt>
      <trkpt lat="44.33592" lon="5.75457">
        <ele>613</ele>
        <time>2019-03-08T14:44:22Z</time>
      </trkpt>
      <trkpt lat="44.33601" lon="5.75465">
        <ele>613</ele>
        <time>2019-03-08T14:44:23Z</time>
      </trkpt>
      <trkpt lat="44.3361" lon="5.75472">
        <ele>613</ele>
        <time>2019-03-08T14:44:24Z</time>
      </trkpt>
      <trkpt lat="44.33619" lon="5.75479">
        <ele>612</ele>
        <time>2019-03-08T14:44:25Z</time>
      </trkpt>
      <trkpt lat="44.33627" lon="5.75486">
        <ele>612</ele>
        <time>2019-03-08T14:44:26Z</time>
      </trkpt>
      <trkpt lat="44.33636" lon="5.75493">
        <ele>612</ele>
        <time>2019-03-08T14:44:27Z</time>
      </trkpt>
      <trkpt lat="44.33645" lon="5.755">
        <ele>611</ele>
        <time>2019-03-08T14:44:28Z</time>
      </trkpt>
      <trkpt lat="44.33652" lon="5.7551">
        <ele>611</ele>
        <time>2019-03-08T14:44:29Z</time>
      </trkpt>
      <trkpt lat="44.33659" lon="5.75521">
        <ele>611</ele>
        <time>2019-03-08T14:44:30Z</time>
      </trkpt>
      <trkpt lat="44.33664" lon="5.75532">
        <ele>611</ele>
        <time>2019-03-08T14:44:31Z</time>
      </trkpt>
      <trkpt lat="44.33669" lon="5.75545">
        <ele>611</ele>
        <time>2019-03-08T14:44:32Z</time>
      </trkpt>
      <trkpt lat="44.33674" lon="5.75558">
        <ele>611</ele>
        <time>2019-03-08T14:44:33Z</time>
      </trkpt>
      <trkpt lat="44.33679" lon="5.7557">
        <ele>611</ele>
        <time>2019-03-08T14:44:34Z</time>
      </trkpt>
      <trkpt lat="44.33684" lon="5.75583">
        <ele>611</ele>
        <time>2019-03-08T14:44:35Z</time>
      </trkpt>
      <trkpt lat="44.33689" lon="5.75595">
        <ele>611</ele>
        <time>2019-03-08T14:44:36Z</time>
      </trkpt>
      <trkpt lat="44.33693" lon="5.75607">
        <ele>611</ele>
        <time>2019-03-08T14:44:37Z</time>
      </trkpt>
      <trkpt lat="44.33698" lon="5.7562">
        <ele>611</ele>
        <time>2019-03-08T14:44:38Z</time>
      </trkpt>
      <trkpt lat="44.33703" lon="5.75631">
        <ele>611</ele>
        <time>2019-03-08T14:44:39Z</time>
      </trkpt>
      <trkpt lat="44.33708" lon="5.75642">
        <ele>611</ele>
        <time>2019-03-08T14:44:40Z</time>
      </trkpt>
      <trkpt lat="44.33713" lon="5.75653">
        <ele>611</ele>
        <time>2019-03-08T14:44:41Z</time>
      </trkpt>
      <trkpt lat="44.33718" lon="5.75664">
        <ele>611</ele>
        <time>2019-03-08T14:44:42Z</time>
      </trkpt>
      <trkpt lat="44.33724" lon="5.75673">
        <ele>611</ele>
        <time>2019-03-08T14:44:43Z</time>
      </trkpt>
      <trkpt lat="44.3373" lon="5.75681">
        <ele>611</ele>
        <time>2019-03-08T14:44:44Z</time>
      </trkpt>
      <trkpt lat="44.33737" lon="5.75689">
        <ele>611</ele>
        <time>2019-03-08T14:44:45Z</time>
      </trkpt>
      <trkpt lat="44.33744" lon="5.75697">
        <ele>611</ele>
        <time>2019-03-08T14:44:46Z</time>
      </trkpt>
      <trkpt lat="44.3375" lon="5.75704">
        <ele>611</ele>
        <time>2019-03-08T14:44:47Z</time>
      </trkpt>
      <trkpt lat="44.33757" lon="5.75711">
        <ele>611</ele>
        <time>2019-03-08T14:44:48Z</time>
      </trkpt>
      <trkpt lat="44.33763" lon="5.75718">
        <ele>611</ele>
        <time>2019-03-08T14:44:49Z</time>
      </trkpt>
      <trkpt lat="44.33769" lon="5.75725">
        <ele>611</ele>
        <time>2019-03-08T14:44:50Z</time>
      </trkpt>
      <trkpt lat="44.33776" lon="5.75731">
        <ele>611</ele>
        <time>2019-03-08T14:44:51Z</time>
      </trkpt>
      <trkpt lat="44.33782" lon="5.75738">
        <ele>611</ele>
        <time>2019-03-08T14:44:52Z</time>
      </trkpt>
      <trkpt lat="44.33788" lon="5.75745">
        <ele>611</ele>
        <time>2019-03-08T14:44:53Z</time>
      </trkpt>
      <trkpt lat="44.33795" lon="5.75752">
        <ele>611</ele>
        <time>2019-03-08T14:44:54Z</time>
      </trkpt>
      <trkpt lat="44.33801" lon="5.75759">
        <ele>611</ele>
        <time>2019-03-08T14:44:55Z</time>
      </trkpt>
      <trkpt lat="44.33807" lon="5.75766">
        <ele>610</ele>
        <time>2019-03-08T14:44:56Z</time>
      </trkpt>
      <trkpt lat="44.33814" lon="5.75773">
        <ele>610</ele>
        <time>2019-03-08T14:44:57Z</time>
      </trkpt>
      <trkpt lat="44.3382" lon="5.7578">
        <ele>610</ele>
        <time>2019-03-08T14:44:58Z</time>
      </trkpt>
      <trkpt lat="44.33827" lon="5.75787">
        <ele>610</ele>
        <time>2019-03-08T14:44:59Z</time>
      </trkpt>
      <trkpt lat="44.33833" lon="5.75794">
        <ele>610</ele>
        <time>2019-03-08T14:45:00Z</time>
      </trkpt>
      <trkpt lat="44.33839" lon="5.75802">
        <ele>610</ele>
        <time>2019-03-08T14:45:01Z</time>
      </trkpt>
      <trkpt lat="44.33845" lon="5.7581">
        <ele>610</ele>
        <time>2019-03-08T14:45:02Z</time>
      </trkpt>
      <trkpt lat="44.33851" lon="5.75818">
        <ele>610</ele>
        <time>2019-03-08T14:45:03Z</time>
      </trkpt>
      <trkpt lat="44.33857" lon="5.75826">
        <ele>610</ele>
        <time>2019-03-08T14:45:04Z</time>
      </trkpt>
      <trkpt lat="44.33862" lon="5.75835">
        <ele>609</ele>
        <time>2019-03-08T14:45:05Z</time>
      </trkpt>
      <trkpt lat="44.33868" lon="5.75844">
        <ele>609</ele>
        <time>2019-03-08T14:45:06Z</time>
      </trkpt>
      <trkpt lat="44.33874" lon="5.75853">
        <ele>609</ele>
        <time>2019-03-08T14:45:07Z</time>
      </trkpt>
      <trkpt lat="44.33879" lon="5.75863">
        <ele>609</ele>
        <time>2019-03-08T14:45:08Z</time>
      </trkpt>
      <trkpt lat="44.33884" lon="5.75873">
        <ele>609</ele>
        <time>2019-03-08T14:45:09Z</time>
      </trkpt>
      <trkpt lat="44.33889" lon="5.75883">
        <ele>608</ele>
        <time>2019-03-08T14:45:10Z</time>
      </trkpt>
      <trkpt lat="44.33894" lon="5.75893">
        <ele>608</ele>
        <time>2019-03-08T14:45:11Z</time>
      </trkpt>
      <trkpt lat="44.339" lon="5.75903">
        <ele>608</ele>
        <time>2019-03-08T14:45:12Z</time>
      </trkpt>
      <trkpt lat="44.33905" lon="5.75914">
        <ele>608</ele>
        <time>2019-03-08T14:45:13Z</time>
      </trkpt>
      <trkpt lat="44.3391" lon="5.75925">
        <ele>607</ele>
        <time>2019-03-08T14:45:14Z</time>
      </trkpt>
      <trkpt lat="44.33915" lon="5.75936">
        <ele>607</ele>
        <time>2019-03-08T14:45:15Z</time>
      </trkpt>
      <trkpt lat="44.33921" lon="5.75948">
        <ele>607</ele>
        <time>2019-03-08T14:45:16Z</time>
      </trkpt>
      <trkpt lat="44.33926" lon="5.75959">
        <ele>606</ele>
        <time>2019-03-08T14:45:17Z</time>
      </trkpt>
      <trkpt lat="44.33931" lon="5.7597">
        <ele>606</ele>
        <time>2019-03-08T14:45:18Z</time>
      </trkpt>
      <trkpt lat="44.33936" lon="5.75981">
        <ele>606</ele>
        <time>2019-03-08T14:45:19Z</time>
      </trkpt>
      <trkpt lat="44.33942" lon="5.75992">
        <ele>606</ele>
        <time>2019-03-08T14:45:20Z</time>
      </trkpt>
      <trkpt lat="44.33947" lon="5.76003">
        <ele>606</ele>
        <time>2019-03-08T14:45:21Z</time>
      </trkpt>
      <trkpt lat="44.33952" lon="5.76013">
        <ele>606</ele>
        <time>2019-03-08T14:45:22Z</time>
      </trkpt>
      <trkpt lat="44.33958" lon="5.76024">
        <ele>606</ele>
        <time>2019-03-08T14:45:23Z</time>
      </trkpt>
      <trkpt lat="44.33963" lon="5.76034">
        <ele>605</ele>
        <time>2019-03-08T14:45:24Z</time>
      </trkpt>
      <trkpt lat="44.33968" lon="5.76045">
        <ele>605</ele>
        <time>2019-03-08T14:45:25Z</time>
      </trkpt>
      <trkpt lat="44.33973" lon="5.76056">
        <ele>605</ele>
        <time>2019-03-08T14:45:26Z</time>
      </trkpt>
      <trkpt lat="44.33979" lon="5.76067">
        <ele>605</ele>
        <time>2019-03-08T14:45:27Z</time>
      </trkpt>
      <trkpt lat="44.33984" lon="5.76078">
        <ele>605</ele>
        <time>2019-03-08T14:45:28Z</time>
      </trkpt>
      <trkpt lat="44.33989" lon="5.76088">
        <ele>605</ele>
        <time>2019-03-08T14:45:29Z</time>
      </trkpt>
      <trkpt lat="44.33994" lon="5.76098">
        <ele>605</ele>
        <time>2019-03-08T14:45:30Z</time>
      </trkpt>
      <trkpt lat="44.33999" lon="5.76109">
        <ele>605</ele>
        <time>2019-03-08T14:45:31Z</time>
      </trkpt>
      <trkpt lat="44.34004" lon="5.76119">
        <ele>604</ele>
        <time>2019-03-08T14:45:32Z</time>
      </trkpt>
      <trkpt lat="44.34009" lon="5.76129">
        <ele>604</ele>
        <time>2019-03-08T14:45:33Z</time>
      </trkpt>
      <trkpt lat="44.34014" lon="5.76138">
        <ele>604</ele>
        <time>2019-03-08T14:45:34Z</time>
      </trkpt>
      <trkpt lat="44.34019" lon="5.76148">
        <ele>604</ele>
        <time>2019-03-08T14:45:35Z</time>
      </trkpt>
      <trkpt lat="44.34024" lon="5.76158">
        <ele>604</ele>
        <time>2019-03-08T14:45:36Z</time>
      </trkpt>
      <trkpt lat="44.34029" lon="5.76168">
        <ele>604</ele>
        <time>2019-03-08T14:45:37Z</time>
      </trkpt>
      <trkpt lat="44.34033" lon="5.76178">
        <ele>604</ele>
        <time>2019-03-08T14:45:38Z</time>
      </trkpt>
      <trkpt lat="44.34038" lon="5.76188">
        <ele>603</ele>
        <time>2019-03-08T14:45:39Z</time>
      </trkpt>
      <trkpt lat="44.34043" lon="5.76197">
        <ele>603</ele>
        <time>2019-03-08T14:45:40Z</time>
      </trkpt>
      <trkpt lat="44.34048" lon="5.76207">
        <ele>603</ele>
        <time>2019-03-08T14:45:41Z</time>
      </trkpt>
      <trkpt lat="44.34053" lon="5.76217">
        <ele>603</ele>
        <time>2019-03-08T14:45:42Z</time>
      </trkpt>
      <trkpt lat="44.34058" lon="5.76227">
        <ele>603</ele>
        <time>2019-03-08T14:45:43Z</time>
      </trkpt>
      <trkpt lat="44.34062" lon="5.76236">
        <ele>603</ele>
        <time>2019-03-08T14:45:44Z</time>
      </trkpt>
      <trkpt lat="44.34067" lon="5.76245">
        <ele>603</ele>
        <time>2019-03-08T14:45:45Z</time>
      </trkpt>
      <trkpt lat="44.34071" lon="5.76255">
        <ele>603</ele>
        <time>2019-03-08T14:45:46Z</time>
      </trkpt>
      <trkpt lat="44.34076" lon="5.76264">
        <ele>602</ele>
        <time>2019-03-08T14:45:47Z</time>
      </trkpt>
      <trkpt lat="44.3408" lon="5.76273">
        <ele>602</ele>
        <time>2019-03-08T14:45:48Z</time>
      </trkpt>
      <trkpt lat="44.34085" lon="5.76283">
        <ele>602</ele>
        <time>2019-03-08T14:45:49Z</time>
      </trkpt>
      <trkpt lat="44.3409" lon="5.76292">
        <ele>602</ele>
        <time>2019-03-08T14:45:50Z</time>
      </trkpt>
      <trkpt lat="44.34094" lon="5.76301">
        <ele>602</ele>
        <time>2019-03-08T14:45:51Z</time>
      </trkpt>
      <trkpt lat="44.34099" lon="5.7631">
        <ele>601</ele>
        <time>2019-03-08T14:45:52Z</time>
      </trkpt>
      <trkpt lat="44.34103" lon="5.76319">
        <ele>601</ele>
        <time>2019-03-08T14:45:53Z</time>
      </trkpt>
      <trkpt lat="44.34107" lon="5.76327">
        <ele>601</ele>
        <time>2019-03-08T14:45:54Z</time>
      </trkpt>
      <trkpt lat="44.34111" lon="5.76335">
        <ele>601</ele>
        <time>2019-03-08T14:45:55Z</time>
      </trkpt>
      <trkpt lat="44.34114" lon="5.76343">
        <ele>601</ele>
        <time>2019-03-08T14:45:56Z</time>
      </trkpt>
      <trkpt lat="44.34116" lon="5.76353">
        <ele>600</ele>
        <time>2019-03-08T14:45:57Z</time>
      </trkpt>
      <trkpt lat="44.34118" lon="5.76364">
        <ele>600</ele>
        <time>2019-03-08T14:45:58Z</time>
      </trkpt>
      <trkpt lat="44.34118" lon="5.76374">
        <ele>600</ele>
        <time>2019-03-08T14:45:59Z</time>
      </trkpt>
      <trkpt lat="44.34117" lon="5.76385">
        <ele>600</ele>
        <time>2019-03-08T14:46:00Z</time>
      </trkpt>
      <trkpt lat="44.34116" lon="5.76397">
        <ele>600</ele>
        <time>2019-03-08T14:46:01Z</time>
      </trkpt>
      <trkpt lat="44.34113" lon="5.76408">
        <ele>599</ele>
        <time>2019-03-08T14:46:02Z</time>
      </trkpt>
      <trkpt lat="44.3411" lon="5.76419">
        <ele>599</ele>
        <time>2019-03-08T14:46:03Z</time>
      </trkpt>
      <trkpt lat="44.34106" lon="5.76429">
        <ele>599</ele>
        <time>2019-03-08T14:46:04Z</time>
      </trkpt>
      <trkpt lat="44.34101" lon="5.76439">
        <ele>599</ele>
        <time>2019-03-08T14:46:05Z</time>
      </trkpt>
      <trkpt lat="44.34095" lon="5.76448">
        <ele>599</ele>
        <time>2019-03-08T14:46:06Z</time>
      </trkpt>
      <trkpt lat="44.3409" lon="5.76457">
        <ele>599</ele>
        <time>2019-03-08T14:46:07Z</time>
      </trkpt>
      <trkpt lat="44.34085" lon="5.76466">
        <ele>599</ele>
        <time>2019-03-08T14:46:08Z</time>
      </trkpt>
      <trkpt lat="44.34081" lon="5.76475">
        <ele>599</ele>
        <time>2019-03-08T14:46:09Z</time>
      </trkpt>
      <trkpt lat="44.34076" lon="5.76484">
        <ele>599</ele>
        <time>2019-03-08T14:46:10Z</time>
      </trkpt>
      <trkpt lat="44.34072" lon="5.76492">
        <ele>599</ele>
        <time>2019-03-08T14:46:11Z</time>
      </trkpt>
      <trkpt lat="44.34068" lon="5.76501">
        <ele>599</ele>
        <time>2019-03-08T14:46:12Z</time>
      </trkpt>
      <trkpt lat="44.34063" lon="5.7651">
        <ele>599</ele>
        <time>2019-03-08T14:46:13Z</time>
      </trkpt>
      <trkpt lat="44.34059" lon="5.76519">
        <ele>599</ele>
        <time>2019-03-08T14:46:14Z</time>
      </trkpt>
      <trkpt lat="44.34055" lon="5.76527">
        <ele>599</ele>
        <time>2019-03-08T14:46:15Z</time>
      </trkpt>
      <trkpt lat="44.34051" lon="5.76536">
        <ele>599</ele>
        <time>2019-03-08T14:46:16Z</time>
      </trkpt>
      <trkpt lat="44.34046" lon="5.76543">
        <ele>599</ele>
        <time>2019-03-08T14:46:17Z</time>
      </trkpt>
      <trkpt lat="44.34042" lon="5.76551">
        <ele>599</ele>
        <time>2019-03-08T14:46:18Z</time>
      </trkpt>
      <trkpt lat="44.34038" lon="5.76559">
        <ele>599</ele>
        <time>2019-03-08T14:46:19Z</time>
      </trkpt>
      <trkpt lat="44.34035" lon="5.76568">
        <ele>599</ele>
        <time>2019-03-08T14:46:20Z</time>
      </trkpt>
      <trkpt lat="44.34034" lon="5.76577">
        <ele>599</ele>
        <time>2019-03-08T14:46:21Z</time>
      </trkpt>
      <trkpt lat="44.34035" lon="5.76586">
        <ele>599</ele>
        <time>2019-03-08T14:46:22Z</time>
      </trkpt>
      <trkpt lat="44.34037" lon="5.76594">
        <ele>599</ele>
        <time>2019-03-08T14:46:23Z</time>
      </trkpt>
      <trkpt lat="44.3404" lon="5.76603">
        <ele>599</ele>
        <time>2019-03-08T14:46:24Z</time>
      </trkpt>
      <trkpt lat="44.34042" lon="5.76612">
        <ele>599</ele>
        <time>2019-03-08T14:46:25Z</time>
      </trkpt>
      <trkpt lat="44.34045" lon="5.7662">
        <ele>598</ele>
        <time>2019-03-08T14:46:26Z</time>
      </trkpt>
      <trkpt lat="44.34049" lon="5.76628">
        <ele>598</ele>
        <time>2019-03-08T14:46:27Z</time>
      </trkpt>
      <trkpt lat="44.34053" lon="5.76636">
        <ele>598</ele>
        <time>2019-03-08T14:46:28Z</time>
      </trkpt>
      <trkpt lat="44.34057" lon="5.76643">
        <ele>598</ele>
        <time>2019-03-08T14:46:29Z</time>
      </trkpt>
      <trkpt lat="44.3406" lon="5.7665">
        <ele>598</ele>
        <time>2019-03-08T14:46:30Z</time>
      </trkpt>
      <trkpt lat="44.34062" lon="5.76658">
        <ele>597</ele>
        <time>2019-03-08T14:46:31Z</time>
      </trkpt>
      <trkpt lat="44.34062" lon="5.76667">
        <ele>597</ele>
        <time>2019-03-08T14:46:32Z</time>
      </trkpt>
      <trkpt lat="44.34059" lon="5.76676">
        <ele>597</ele>
        <time>2019-03-08T14:46:33Z</time>
      </trkpt>
      <trkpt lat="44.34054" lon="5.76682">
        <ele>597</ele>
        <time>2019-03-08T14:46:34Z</time>
      </trkpt>
      <trkpt lat="44.34047" lon="5.76686">
        <ele>597</ele>
        <time>2019-03-08T14:46:35Z</time>
      </trkpt>
      <trkpt lat="44.34041" lon="5.76689">
        <ele>597</ele>
        <time>2019-03-08T14:46:36Z</time>
      </trkpt>
      <trkpt lat="44.34035" lon="5.76692">
        <ele>597</ele>
        <time>2019-03-08T14:46:37Z</time>
      </trkpt>
      <trkpt lat="44.34029" lon="5.76695">
        <ele>597</ele>
        <time>2019-03-08T14:46:38Z</time>
      </trkpt>
      <trkpt lat="44.34024" lon="5.767">
        <ele>597</ele>
        <time>2019-03-08T14:46:39Z</time>
      </trkpt>
      <trkpt lat="44.34019" lon="5.76705">
        <ele>597</ele>
        <time>2019-03-08T14:46:40Z</time>
      </trkpt>
      <trkpt lat="44.34016" lon="5.76712">
        <ele>597</ele>
        <time>2019-03-08T14:46:41Z</time>
      </trkpt>
      <trkpt lat="44.34015" lon="5.7672">
        <ele>597</ele>
        <time>2019-03-08T14:46:42Z</time>
      </trkpt>
      <trkpt lat="44.34014" lon="5.76727">
        <ele>597</ele>
        <time>2019-03-08T14:46:43Z</time>
      </trkpt>
      <trkpt lat="44.34014" lon="5.76734">
        <ele>597</ele>
        <time>2019-03-08T14:46:44Z</time>
      </trkpt>
      <trkpt lat="44.34015" lon="5.76743">
        <ele>597</ele>
        <time>2019-03-08T14:46:45Z</time>
      </trkpt>
      <trkpt lat="44.34015" lon="5.7675">
        <ele>597</ele>
        <time>2019-03-08T14:46:46Z</time>
      </trkpt>
      <trkpt lat="44.34015" lon="5.76756">
        <ele>597</ele>
        <time>2019-03-08T14:46:47Z</time>
      </trkpt>
      <trkpt lat="44.34016" lon="5.76763">
        <ele>597</ele>
        <time>2019-03-08T14:46:48Z</time>
      </trkpt>
      <trkpt lat="44.34017" lon="5.76769">
        <ele>597</ele>
        <time>2019-03-08T14:46:49Z</time>
      </trkpt>
      <trkpt lat="44.34018" lon="5.76776">
        <ele>597</ele>
        <time>2019-03-08T14:46:50Z</time>
      </trkpt>
      <trkpt lat="44.34018" lon="5.76783">
        <ele>597</ele>
        <time>2019-03-08T14:46:51Z</time>
      </trkpt>
      <trkpt lat="44.34019" lon="5.76789">
        <ele>597</ele>
        <time>2019-03-08T14:46:52Z</time>
      </trkpt>
      <trkpt lat="44.34019" lon="5.76795">
        <ele>597</ele>
        <time>2019-03-08T14:46:53Z</time>
      </trkpt>
      <trkpt lat="44.34019" lon="5.76801">
        <ele>597</ele>
        <time>2019-03-08T14:46:54Z</time>
      </trkpt>
      <trkpt lat="44.34019" lon="5.76808">
        <ele>597</ele>
        <time>2019-03-08T14:46:55Z</time>
      </trkpt>
      <trkpt lat="44.34019" lon="5.76814">
        <ele>597</ele>
        <time>2019-03-08T14:46:56Z</time>
      </trkpt>
      <trkpt lat="44.34019" lon="5.76821">
        <ele>597</ele>
        <time>2019-03-08T14:46:57Z</time>
      </trkpt>
      <trkpt lat="44.34018" lon="5.76827">
        <ele>597</ele>
        <time>2019-03-08T14:46:58Z</time>
      </trkpt>
      <trkpt lat="44.34017" lon="5.76833">
        <ele>597</ele>
        <time>2019-03-08T14:46:59Z</time>
      </trkpt>
      <trkpt lat="44.34016" lon="5.76839">
        <ele>597</ele>
        <time>2019-03-08T14:47:00Z</time>
      </trkpt>
      <trkpt lat="44.34015" lon="5.76845">
        <ele>597</ele>
        <time>2019-03-08T14:47:01Z</time>
      </trkpt>
      <trkpt lat="44.34013" lon="5.76851">
        <ele>597</ele>
        <time>2019-03-08T14:47:02Z</time>
      </trkpt>
      <trkpt lat="44.34011" lon="5.76857">
        <ele>597</ele>
        <time>2019-03-08T14:47:03Z</time>
      </trkpt>
      <trkpt lat="44.3401" lon="5.76863">
        <ele>597</ele>
        <time>2019-03-08T14:47:04Z</time>
      </trkpt>
      <trkpt lat="44.34009" lon="5.7687">
        <ele>597</ele>
        <time>2019-03-08T14:47:05Z</time>
      </trkpt>
      <trkpt lat="44.34008" lon="5.76876">
        <ele>597</ele>
        <time>2019-03-08T14:47:06Z</time>
      </trkpt>
      <trkpt lat="44.34007" lon="5.76883">
        <ele>597</ele>
        <time>2019-03-08T14:47:07Z</time>
      </trkpt>
      <trkpt lat="44.34005" lon="5.7689">
        <ele>597</ele>
        <time>2019-03-08T14:47:08Z</time>
      </trkpt>
      <trkpt lat="44.34004" lon="5.76897">
        <ele>597</ele>
        <time>2019-03-08T14:47:09Z</time>
      </trkpt>
      <trkpt lat="44.34003" lon="5.76904">
        <ele>597</ele>
        <time>2019-03-08T14:47:10Z</time>
      </trkpt>
      <trkpt lat="44.34001" lon="5.7691">
        <ele>597</ele>
        <time>2019-03-08T14:47:11Z</time>
      </trkpt>
      <trkpt lat="44.34" lon="5.76918">
        <ele>597</ele>
        <time>2019-03-08T14:47:12Z</time>
      </trkpt>
      <trkpt lat="44.33999" lon="5.76924">
        <ele>597</ele>
        <time>2019-03-08T14:47:13Z</time>
      </trkpt>
      <trkpt lat="44.33998" lon="5.76931">
        <ele>597</ele>
        <time>2019-03-08T14:47:14Z</time>
      </trkpt>
      <trkpt lat="44.33996" lon="5.76938">
        <ele>597</ele>
        <time>2019-03-08T14:47:15Z</time>
      </trkpt>
      <trkpt lat="44.33995" lon="5.76945">
        <ele>597</ele>
        <time>2019-03-08T14:47:16Z</time>
      </trkpt>
      <trkpt lat="44.33994" lon="5.76952">
        <ele>597</ele>
        <time>2019-03-08T14:47:17Z</time>
      </trkpt>
      <trkpt lat="44.33992" lon="5.76958">
        <ele>597</ele>
        <time>2019-03-08T14:47:18Z</time>
      </trkpt>
      <trkpt lat="44.33991" lon="5.76965">
        <ele>597</ele>
        <time>2019-03-08T14:47:19Z</time>
      </trkpt>
      <trkpt lat="44.3399" lon="5.76971">
        <ele>597</ele>
        <time>2019-03-08T14:47:20Z</time>
      </trkpt>
      <trkpt lat="44.33989" lon="5.76978">
        <ele>597</ele>
        <time>2019-03-08T14:47:21Z</time>
      </trkpt>
      <trkpt lat="44.33989" lon="5.76985">
        <ele>597</ele>
        <time>2019-03-08T14:47:22Z</time>
      </trkpt>
      <trkpt lat="44.33988" lon="5.76991">
        <ele>597</ele>
        <time>2019-03-08T14:47:23Z</time>
      </trkpt>
      <trkpt lat="44.33988" lon="5.76997">
        <ele>597</ele>
        <time>2019-03-08T14:47:24Z</time>
      </trkpt>
      <trkpt lat="44.33987" lon="5.77003">
        <ele>597</ele>
        <time>2019-03-08T14:47:25Z</time>
      </trkpt>
      <trkpt lat="44.33987" lon="5.77009">
        <ele>597</ele>
        <time>2019-03-08T14:47:26Z</time>
      </trkpt>
      <trkpt lat="44.33987" lon="5.77015">
        <ele>597</ele>
        <time>2019-03-08T14:47:27Z</time>
      </trkpt>
      <trkpt lat="44.33986" lon="5.77019">
        <ele>597</ele>
        <time>2019-03-08T14:47:28Z</time>
      </trkpt>
      <trkpt lat="44.33986" lon="5.77024">
        <ele>597</ele>
        <time>2019-03-08T14:47:29Z</time>
      </trkpt>
      <trkpt lat="44.33986" lon="5.77029">
        <ele>597</ele>
        <time>2019-03-08T14:47:30Z</time>
      </trkpt>
      <trkpt lat="44.33985" lon="5.77034">
        <ele>597</ele>
        <time>2019-03-08T14:47:31Z</time>
      </trkpt>
      <trkpt lat="44.33984" lon="5.77039">
        <ele>597</ele>
        <time>2019-03-08T14:47:32Z</time>
      </trkpt>
      <trkpt lat="44.33983" lon="5.77043">
        <ele>597</ele>
        <time>2019-03-08T14:47:33Z</time>
      </trkpt>
      <trkpt lat="44.33982" lon="5.77047">
        <ele>597</ele>
        <time>2019-03-08T14:47:34Z</time>
      </trkpt>
      <trkpt lat="44.33981" lon="5.77052">
        <ele>597</ele>
        <time>2019-03-08T14:47:35Z</time>
      </trkpt>
      <trkpt lat="44.3398" lon="5.77056">
        <ele>597</ele>
        <time>2019-03-08T14:47:36Z</time>
      </trkpt>
      <trkpt lat="44.33979" lon="5.7706">
        <ele>597</ele>
        <time>2019-03-08T14:47:37Z</time>
      </trkpt>
      <trkpt lat="44.33979" lon="5.77064">
        <ele>597</ele>
        <time>2019-03-08T14:47:38Z</time>
      </trkpt>
      <trkpt lat="44.33978" lon="5.77068">
        <ele>597</ele>
        <time>2019-03-08T14:47:39Z</time>
      </trkpt>
      <trkpt lat="44.33978" lon="5.77073">
        <ele>597</ele>
        <time>2019-03-08T14:47:40Z</time>
      </trkpt>
      <trkpt lat="44.33978" lon="5.77077">
        <ele>598</ele>
        <time>2019-03-08T14:47:41Z</time>
      </trkpt>
      <trkpt lat="44.33977" lon="5.77081">
        <ele>598</ele>
        <time>2019-03-08T14:47:42Z</time>
      </trkpt>
      <trkpt lat="44.33976" lon="5.77085">
        <ele>598</ele>
        <time>2019-03-08T14:47:43Z</time>
      </trkpt>
      <trkpt lat="44.33976" lon="5.77089">
        <ele>598</ele>
        <time>2019-03-08T14:47:44Z</time>
      </trkpt>
      <trkpt lat="44.33976" lon="5.77093">
        <ele>599</ele>
        <time>2019-03-08T14:47:45Z</time>
      </trkpt>
      <trkpt lat="44.33976" lon="5.77098">
        <ele>599</ele>
        <time>2019-03-08T14:47:46Z</time>
      </trkpt>
      <trkpt lat="44.33976" lon="5.77102">
        <ele>599</ele>
        <time>2019-03-08T14:47:47Z</time>
      </trkpt>
      <trkpt lat="44.33976" lon="5.77106">
        <ele>600</ele>
        <time>2019-03-08T14:47:48Z</time>
      </trkpt>
      <trkpt lat="44.33975" lon="5.7711">
        <ele>600</ele>
        <time>2019-03-08T14:47:49Z</time>
      </trkpt>
      <trkpt lat="44.33975" lon="5.77114">
        <ele>600</ele>
        <time>2019-03-08T14:47:50Z</time>
      </trkpt>
      <trkpt lat="44.33975" lon="5.77118">
        <ele>601</ele>
        <time>2019-03-08T14:47:51Z</time>
      </trkpt>
      <trkpt lat="44.33975" lon="5.77123">
        <ele>601</ele>
        <time>2019-03-08T14:47:52Z</time>
      </trkpt>
      <trkpt lat="44.33974" lon="5.77127">
        <ele>601</ele>
        <time>2019-03-08T14:47:53Z</time>
      </trkpt>
      <trkpt lat="44.33974" lon="5.77131">
        <ele>602</ele>
        <time>2019-03-08T14:47:54Z</time>
      </trkpt>
      <trkpt lat="44.33974" lon="5.77135">
        <ele>602</ele>
        <time>2019-03-08T14:47:55Z</time>
      </trkpt>
      <trkpt lat="44.33974" lon="5.77139">
        <ele>602</ele>
        <time>2019-03-08T14:47:56Z</time>
      </trkpt>
      <trkpt lat="44.33974" lon="5.77143">
        <ele>603</ele>
        <time>2019-03-08T14:47:57Z</time>
      </trkpt>
      <trkpt lat="44.33975" lon="5.77147">
        <ele>603</ele>
        <time>2019-03-08T14:47:58Z</time>
      </trkpt>
      <trkpt lat="44.33976" lon="5.77151">
        <ele>603</ele>
        <time>2019-03-08T14:47:59Z</time>
      </trkpt>
      <trkpt lat="44.33976" lon="5.77155">
        <ele>603</ele>
        <time>2019-03-08T14:48:00Z</time>
      </trkpt>
      <trkpt lat="44.33977" lon="5.77159">
        <ele>604</ele>
        <time>2019-03-08T14:48:01Z</time>
      </trkpt>
      <trkpt lat="44.33977" lon="5.77163">
        <ele>604</ele>
        <time>2019-03-08T14:48:02Z</time>
      </trkpt>
      <trkpt lat="44.33977" lon="5.77167">
        <ele>605</ele>
        <time>2019-03-08T14:48:03Z</time>
      </trkpt>
      <trkpt lat="44.33977" lon="5.77171">
        <ele>605</ele>
        <time>2019-03-08T14:48:04Z</time>
      </trkpt>
      <trkpt lat="44.33976" lon="5.77175">
        <ele>605</ele>
        <time>2019-03-08T14:48:05Z</time>
      </trkpt>
      <trkpt lat="44.33976" lon="5.77178">
        <ele>605</ele>
        <time>2019-03-08T14:48:06Z</time>
      </trkpt>
      <trkpt lat="44.33976" lon="5.77182">
        <ele>605</ele>
        <time>2019-03-08T14:48:07Z</time>
      </trkpt>
      <trkpt lat="44.33976" lon="5.77186">
        <ele>605</ele>
        <time>2019-03-08T14:48:08Z</time>
      </trkpt>
      <trkpt lat="44.33976" lon="5.77189">
        <ele>605</ele>
        <time>2019-03-08T14:48:09Z</time>
      </trkpt>
      <trkpt lat="44.33976" lon="5.77193">
        <ele>605</ele>
        <time>2019-03-08T14:48:10Z</time>
      </trkpt>
      <trkpt lat="44.33976" lon="5.77196">
        <ele>605</ele>
        <time>2019-03-08T14:48:11Z</time>
      </trkpt>
      <trkpt lat="44.33976" lon="5.772">
        <ele>605</ele>
        <time>2019-03-08T14:48:12Z</time>
      </trkpt>
      <trkpt lat="44.33976" lon="5.77203">
        <ele>605</ele>
        <time>2019-03-08T14:48:13Z</time>
      </trkpt>
      <trkpt lat="44.33976" lon="5.77207">
        <ele>605</ele>
        <time>2019-03-08T14:48:14Z</time>
      </trkpt>
      <trkpt lat="44.33976" lon="5.7721">
        <ele>605</ele>
        <time>2019-03-08T14:48:15Z</time>
      </trkpt>
      <trkpt lat="44.33976" lon="5.77214">
        <ele>605</ele>
        <time>2019-03-08T14:48:16Z</time>
      </trkpt>
      <trkpt lat="44.33976" lon="5.77218">
        <ele>605</ele>
        <time>2019-03-08T14:48:17Z</time>
      </trkpt>
      <trkpt lat="44.33976" lon="5.77222">
        <ele>605</ele>
        <time>2019-03-08T14:48:18Z</time>
      </trkpt>
      <trkpt lat="44.33976" lon="5.77225">
        <ele>605</ele>
        <time>2019-03-08T14:48:19Z</time>
      </trkpt>
      <trkpt lat="44.33976" lon="5.77229">
        <ele>605</ele>
        <time>2019-03-08T14:48:20Z</time>
      </trkpt>
      <trkpt lat="44.33976" lon="5.77233">
        <ele>605</ele>
        <time>2019-03-08T14:48:21Z</time>
      </trkpt>
      <trkpt lat="44.33975" lon="5.77236">
        <ele>605</ele>
        <time>2019-03-08T14:48:22Z</time>
      </trkpt>
      <trkpt lat="44.33975" lon="5.77239">
        <ele>606</ele>
        <time>2019-03-08T14:48:23Z</time>
      </trkpt>
      <trkpt lat="44.33975" lon="5.77242">
        <ele>606</ele>
        <time>2019-03-08T14:48:24Z</time>
      </trkpt>
      <trkpt lat="44.33974" lon="5.77245">
        <ele>606</ele>
        <time>2019-03-08T14:48:25Z</time>
      </trkpt>
      <trkpt lat="44.33974" lon="5.77248">
        <ele>606</ele>
        <time>2019-03-08T14:48:26Z</time>
      </trkpt>
      <trkpt lat="44.33975" lon="5.77252">
        <ele>606</ele>
        <time>2019-03-08T14:48:27Z</time>
      </trkpt>
      <trkpt lat="44.33975" lon="5.77255">
        <ele>606</ele>
        <time>2019-03-08T14:48:28Z</time>
      </trkpt>
      <trkpt lat="44.33975" lon="5.77258">
        <ele>607</ele>
        <time>2019-03-08T14:48:29Z</time>
      </trkpt>
      <trkpt lat="44.33975" lon="5.77261">
        <ele>607</ele>
        <time>2019-03-08T14:48:30Z</time>
      </trkpt>
      <trkpt lat="44.33975" lon="5.77265">
        <ele>608</ele>
        <time>2019-03-08T14:48:31Z</time>
      </trkpt>
      <trkpt lat="44.33975" lon="5.77268">
        <ele>608</ele>
        <time>2019-03-08T14:48:32Z</time>
      </trkpt>
      <trkpt lat="44.33976" lon="5.77271">
        <ele>608</ele>
        <time>2019-03-08T14:48:33Z</time>
      </trkpt>
      <trkpt lat="44.33976" lon="5.77274">
        <ele>609</ele>
        <time>2019-03-08T14:48:34Z</time>
      </trkpt>
      <trkpt lat="44.33976" lon="5.77277">
        <ele>609</ele>
        <time>2019-03-08T14:48:35Z</time>
      </trkpt>
      <trkpt lat="44.33977" lon="5.7728">
        <ele>609</ele>
        <time>2019-03-08T14:48:36Z</time>
      </trkpt>
      <trkpt lat="44.33977" lon="5.77283">
        <ele>610</ele>
        <time>2019-03-08T14:48:37Z</time>
      </trkpt>
      <trkpt lat="44.33978" lon="5.77286">
        <ele>610</ele>
        <time>2019-03-08T14:48:38Z</time>
      </trkpt>
      <trkpt lat="44.33979" lon="5.7729">
        <ele>610</ele>
        <time>2019-03-08T14:48:39Z</time>
      </trkpt>
      <trkpt lat="44.33979" lon="5.77293">
        <ele>610</ele>
        <time>2019-03-08T14:48:40Z</time>
      </trkpt>
      <trkpt lat="44.33979" lon="5.77297">
        <ele>611</ele>
        <time>2019-03-08T14:48:41Z</time>
      </trkpt>
      <trkpt lat="44.3398" lon="5.773">
        <ele>611</ele>
        <time>2019-03-08T14:48:42Z</time>
      </trkpt>
      <trkpt lat="44.33981" lon="5.77303">
        <ele>611</ele>
        <time>2019-03-08T14:48:43Z</time>
      </trkpt>
      <trkpt lat="44.33982" lon="5.77307">
        <ele>611</ele>
        <time>2019-03-08T14:48:44Z</time>
      </trkpt>
      <trkpt lat="44.33984" lon="5.77311">
        <ele>611</ele>
        <time>2019-03-08T14:48:45Z</time>
      </trkpt>
      <trkpt lat="44.33984" lon="5.77315">
        <ele>612</ele>
        <time>2019-03-08T14:48:46Z</time>
      </trkpt>
      <trkpt lat="44.33985" lon="5.77319">
        <ele>612</ele>
        <time>2019-03-08T14:48:47Z</time>
      </trkpt>
      <trkpt lat="44.33986" lon="5.77323">
        <ele>613</ele>
        <time>2019-03-08T14:48:48Z</time>
      </trkpt>
      <trkpt lat="44.33986" lon="5.77326">
        <ele>613</ele>
        <time>2019-03-08T14:48:49Z</time>
      </trkpt>
      <trkpt lat="44.33986" lon="5.77329">
        <ele>613</ele>
        <time>2019-03-08T14:48:50Z</time>
      </trkpt>
      <trkpt lat="44.33985" lon="5.77333">
        <ele>613</ele>
        <time>2019-03-08T14:48:51Z</time>
      </trkpt>
      <trkpt lat="44.33985" lon="5.77337">
        <ele>613</ele>
        <time>2019-03-08T14:48:52Z</time>
      </trkpt>
      <trkpt lat="44.33985" lon="5.7734">
        <ele>613</ele>
        <time>2019-03-08T14:48:53Z</time>
      </trkpt>
      <trkpt lat="44.33985" lon="5.77344">
        <ele>613</ele>
        <time>2019-03-08T14:48:54Z</time>
      </trkpt>
      <trkpt lat="44.33985" lon="5.77347">
        <ele>613</ele>
        <time>2019-03-08T14:48:55Z</time>
      </trkpt>
      <trkpt lat="44.33984" lon="5.77351">
        <ele>613</ele>
        <time>2019-03-08T14:48:56Z</time>
      </trkpt>
      <trkpt lat="44.33984" lon="5.77355">
        <ele>613</ele>
        <time>2019-03-08T14:48:57Z</time>
      </trkpt>
      <trkpt lat="44.33984" lon="5.77359">
        <ele>613</ele>
        <time>2019-03-08T14:48:58Z</time>
      </trkpt>
      <trkpt lat="44.33984" lon="5.77363">
        <ele>613</ele>
        <time>2019-03-08T14:48:59Z</time>
      </trkpt>
      <trkpt lat="44.33983" lon="5.77367">
        <ele>613</ele>
        <time>2019-03-08T14:49:00Z</time>
      </trkpt>
      <trkpt lat="44.33982" lon="5.7737">
        <ele>614</ele>
        <time>2019-03-08T14:49:01Z</time>
      </trkpt>
      <trkpt lat="44.33981" lon="5.77374">
        <ele>614</ele>
        <time>2019-03-08T14:49:02Z</time>
      </trkpt>
      <trkpt lat="44.3398" lon="5.77377">
        <ele>615</ele>
        <time>2019-03-08T14:49:03Z</time>
      </trkpt>
      <trkpt lat="44.3398" lon="5.77381">
        <ele>616</ele>
        <time>2019-03-08T14:49:04Z</time>
      </trkpt>
      <trkpt lat="44.3398" lon="5.77384">
        <ele>616</ele>
        <time>2019-03-08T14:49:05Z</time>
      </trkpt>
      <trkpt lat="44.33979" lon="5.77388">
        <ele>616</ele>
        <time>2019-03-08T14:49:06Z</time>
      </trkpt>
      <trkpt lat="44.33979" lon="5.77391">
        <ele>617</ele>
        <time>2019-03-08T14:49:07Z</time>
      </trkpt>
      <trkpt lat="44.33978" lon="5.77395">
        <ele>617</ele>
        <time>2019-03-08T14:49:08Z</time>
      </trkpt>
      <trkpt lat="44.33978" lon="5.77399">
        <ele>617</ele>
        <time>2019-03-08T14:49:09Z</time>
      </trkpt>
      <trkpt lat="44.33978" lon="5.77403">
        <ele>618</ele>
        <time>2019-03-08T14:49:10Z</time>
      </trkpt>
      <trkpt lat="44.3398" lon="5.77407">
        <ele>619</ele>
        <time>2019-03-08T14:49:11Z</time>
      </trkpt>
      <trkpt lat="44.33981" lon="5.77411">
        <ele>619</ele>
        <time>2019-03-08T14:49:12Z</time>
      </trkpt>
      <trkpt lat="44.33981" lon="5.77415">
        <ele>620</ele>
        <time>2019-03-08T14:49:13Z</time>
      </trkpt>
      <trkpt lat="44.33982" lon="5.77419">
        <ele>621</ele>
        <time>2019-03-08T14:49:14Z</time>
      </trkpt>
      <trkpt lat="44.33982" lon="5.77423">
        <ele>621</ele>
        <time>2019-03-08T14:49:15Z</time>
      </trkpt>
      <trkpt lat="44.33984" lon="5.77427">
        <ele>622</ele>
        <time>2019-03-08T14:49:16Z</time>
      </trkpt>
      <trkpt lat="44.33986" lon="5.77431">
        <ele>622</ele>
        <time>2019-03-08T14:49:17Z</time>
      </trkpt>
      <trkpt lat="44.33988" lon="5.77434">
        <ele>623</ele>
        <time>2019-03-08T14:49:18Z</time>
      </trkpt>
      <trkpt lat="44.3399" lon="5.77438">
        <ele>623</ele>
        <time>2019-03-08T14:49:19Z</time>
      </trkpt>
      <trkpt lat="44.33991" lon="5.77442">
        <ele>624</ele>
        <time>2019-03-08T14:49:20Z</time>
      </trkpt>
      <trkpt lat="44.33994" lon="5.77445">
        <ele>625</ele>
        <time>2019-03-08T14:49:21Z</time>
      </trkpt>
      <trkpt lat="44.33995" lon="5.77449">
        <ele>626</ele>
        <time>2019-03-08T14:49:22Z</time>
      </trkpt>
      <trkpt lat="44.33997" lon="5.77452">
        <ele>626</ele>
        <time>2019-03-08T14:49:23Z</time>
      </trkpt>
      <trkpt lat="44.33998" lon="5.77456">
        <ele>627</ele>
        <time>2019-03-08T14:49:24Z</time>
      </trkpt>
      <trkpt lat="44.33999" lon="5.77459">
        <ele>628</ele>
        <time>2019-03-08T14:49:25Z</time>
      </trkpt>
      <trkpt lat="44.34" lon="5.77462">
        <ele>628</ele>
        <time>2019-03-08T14:49:26Z</time>
      </trkpt>
      <trkpt lat="44.34002" lon="5.77465">
        <ele>629</ele>
        <time>2019-03-08T14:49:27Z</time>
      </trkpt>
      <trkpt lat="44.34003" lon="5.77468">
        <ele>629</ele>
        <time>2019-03-08T14:49:28Z</time>
      </trkpt>
      <trkpt lat="44.34004" lon="5.77472">
        <ele>629</ele>
        <time>2019-03-08T14:49:29Z</time>
      </trkpt>
      <trkpt lat="44.34005" lon="5.77475">
        <ele>630</ele>
        <time>2019-03-08T14:49:30Z</time>
      </trkpt>
      <trkpt lat="44.34007" lon="5.77478">
        <ele>630</ele>
        <time>2019-03-08T14:49:31Z</time>
      </trkpt>
      <trkpt lat="44.34008" lon="5.77481">
        <ele>630</ele>
        <time>2019-03-08T14:49:32Z</time>
      </trkpt>
      <trkpt lat="44.34009" lon="5.77484">
        <ele>630</ele>
        <time>2019-03-08T14:49:33Z</time>
      </trkpt>
      <trkpt lat="44.3401" lon="5.77487">
        <ele>630</ele>
        <time>2019-03-08T14:49:34Z</time>
      </trkpt>
      <trkpt lat="44.34011" lon="5.77491">
        <ele>630</ele>
        <time>2019-03-08T14:49:35Z</time>
      </trkpt>
      <trkpt lat="44.34012" lon="5.77494">
        <ele>630</ele>
        <time>2019-03-08T14:49:36Z</time>
      </trkpt>
      <trkpt lat="44.34012" lon="5.77498">
        <ele>630</ele>
        <time>2019-03-08T14:49:37Z</time>
      </trkpt>
      <trkpt lat="44.34012" lon="5.77502">
        <ele>630</ele>
        <time>2019-03-08T14:49:38Z</time>
      </trkpt>
      <trkpt lat="44.34012" lon="5.77507">
        <ele>630</ele>
        <time>2019-03-08T14:49:39Z</time>
      </trkpt>
      <trkpt lat="44.34012" lon="5.77512">
        <ele>630</ele>
        <time>2019-03-08T14:49:40Z</time>
      </trkpt>
      <trkpt lat="44.34012" lon="5.77517">
        <ele>630</ele>
        <time>2019-03-08T14:49:41Z</time>
      </trkpt>
      <trkpt lat="44.34011" lon="5.77523">
        <ele>630</ele>
        <time>2019-03-08T14:49:42Z</time>
      </trkpt>
      <trkpt lat="44.3401" lon="5.77528">
        <ele>630</ele>
        <time>2019-03-08T14:49:43Z</time>
      </trkpt>
      <trkpt lat="44.34007" lon="5.77533">
        <ele>630</ele>
        <time>2019-03-08T14:49:44Z</time>
      </trkpt>
      <trkpt lat="44.34005" lon="5.77539">
        <ele>630</ele>
        <time>2019-03-08T14:49:45Z</time>
      </trkpt>
      <trkpt lat="44.34002" lon="5.77544">
        <ele>630</ele>
        <time>2019-03-08T14:49:46Z</time>
      </trkpt>
      <trkpt lat="44.33999" lon="5.77551">
        <ele>630</ele>
        <time>2019-03-08T14:49:47Z</time>
      </trkpt>
      <trkpt lat="44.33997" lon="5.77557">
        <ele>630</ele>
        <time>2019-03-08T14:49:48Z</time>
      </trkpt>
      <trkpt lat="44.33994" lon="5.77563">
        <ele>630</ele>
        <time>2019-03-08T14:49:49Z</time>
      </trkpt>
      <trkpt lat="44.33991" lon="5.77569">
        <ele>630</ele>
        <time>2019-03-08T14:49:50Z</time>
      </trkpt>
      <trkpt lat="44.33989" lon="5.77576">
        <ele>630</ele>
        <time>2019-03-08T14:49:51Z</time>
      </trkpt>
      <trkpt lat="44.33985" lon="5.77583">
        <ele>630</ele>
        <time>2019-03-08T14:49:52Z</time>
      </trkpt>
      <trkpt lat="44.33982" lon="5.77591">
        <ele>630</ele>
        <time>2019-03-08T14:49:53Z</time>
      </trkpt>
      <trkpt lat="44.33978" lon="5.77598">
        <ele>630</ele>
        <time>2019-03-08T14:49:54Z</time>
      </trkpt>
      <trkpt lat="44.33974" lon="5.77605">
        <ele>630</ele>
        <time>2019-03-08T14:49:55Z</time>
      </trkpt>
      <trkpt lat="44.33969" lon="5.77613">
        <ele>630</ele>
        <time>2019-03-08T14:49:56Z</time>
      </trkpt>
      <trkpt lat="44.33963" lon="5.77619">
        <ele>630</ele>
        <time>2019-03-08T14:49:57Z</time>
      </trkpt>
      <trkpt lat="44.33958" lon="5.77625">
        <ele>629</ele>
        <time>2019-03-08T14:49:58Z</time>
      </trkpt>
      <trkpt lat="44.33952" lon="5.77632">
        <ele>629</ele>
        <time>2019-03-08T14:49:59Z</time>
      </trkpt>
      <trkpt lat="44.33946" lon="5.77638">
        <ele>628</ele>
        <time>2019-03-08T14:50:00Z</time>
      </trkpt>
      <trkpt lat="44.33939" lon="5.77644">
        <ele>627</ele>
        <time>2019-03-08T14:50:01Z</time>
      </trkpt>
      <trkpt lat="44.33932" lon="5.77649">
        <ele>627</ele>
        <time>2019-03-08T14:50:02Z</time>
      </trkpt>
      <trkpt lat="44.33924" lon="5.77654">
        <ele>626</ele>
        <time>2019-03-08T14:50:03Z</time>
      </trkpt>
      <trkpt lat="44.33917" lon="5.77657">
        <ele>626</ele>
        <time>2019-03-08T14:50:04Z</time>
      </trkpt>
      <trkpt lat="44.33909" lon="5.7766">
        <ele>626</ele>
        <time>2019-03-08T14:50:05Z</time>
      </trkpt>
      <trkpt lat="44.339" lon="5.77661">
        <ele>625</ele>
        <time>2019-03-08T14:50:06Z</time>
      </trkpt>
      <trkpt lat="44.33892" lon="5.77661">
        <ele>625</ele>
        <time>2019-03-08T14:50:07Z</time>
      </trkpt>
      <trkpt lat="44.33884" lon="5.7766">
        <ele>625</ele>
        <time>2019-03-08T14:50:08Z</time>
      </trkpt>
      <trkpt lat="44.33876" lon="5.77658">
        <ele>624</ele>
        <time>2019-03-08T14:50:09Z</time>
      </trkpt>
      <trkpt lat="44.33868" lon="5.77654">
        <ele>624</ele>
        <time>2019-03-08T14:50:10Z</time>
      </trkpt>
      <trkpt lat="44.33861" lon="5.7765">
        <ele>624</ele>
        <time>2019-03-08T14:50:11Z</time>
      </trkpt>
      <trkpt lat="44.33854" lon="5.77644">
        <ele>624</ele>
        <time>2019-03-08T14:50:12Z</time>
      </trkpt>
      <trkpt lat="44.33847" lon="5.77638">
        <ele>623</ele>
        <time>2019-03-08T14:50:13Z</time>
      </trkpt>
      <trkpt lat="44.33841" lon="5.77632">
        <ele>623</ele>
        <time>2019-03-08T14:50:14Z</time>
      </trkpt>
      <trkpt lat="44.33835" lon="5.77625">
        <ele>623</ele>
        <time>2019-03-08T14:50:15Z</time>
      </trkpt>
      <trkpt lat="44.3383" lon="5.77617">
        <ele>623</ele>
        <time>2019-03-08T14:50:16Z</time>
      </trkpt>
      <trkpt lat="44.33824" lon="5.7761">
        <ele>623</ele>
        <time>2019-03-08T14:50:17Z</time>
      </trkpt>
      <trkpt lat="44.33818" lon="5.77603">
        <ele>622</ele>
        <time>2019-03-08T14:50:18Z</time>
      </trkpt>
      <trkpt lat="44.33812" lon="5.77598">
        <ele>622</ele>
        <time>2019-03-08T14:50:19Z</time>
      </trkpt>
      <trkpt lat="44.33805" lon="5.77592">
        <ele>622</ele>
        <time>2019-03-08T14:50:20Z</time>
      </trkpt>
      <trkpt lat="44.33798" lon="5.77587">
        <ele>622</ele>
        <time>2019-03-08T14:50:21Z</time>
      </trkpt>
      <trkpt lat="44.3379" lon="5.77582">
        <ele>621</ele>
        <time>2019-03-08T14:50:22Z</time>
      </trkpt>
      <trkpt lat="44.33783" lon="5.77576">
        <ele>621</ele>
        <time>2019-03-08T14:50:23Z</time>
      </trkpt>
      <trkpt lat="44.33775" lon="5.77571">
        <ele>621</ele>
        <time>2019-03-08T14:50:24Z</time>
      </trkpt>
      <trkpt lat="44.33767" lon="5.77566">
        <ele>620</ele>
        <time>2019-03-08T14:50:25Z</time>
      </trkpt>
      <trkpt lat="44.33758" lon="5.7756">
        <ele>620</ele>
        <time>2019-03-08T14:50:26Z</time>
      </trkpt>
      <trkpt lat="44.33749" lon="5.77555">
        <ele>619</ele>
        <time>2019-03-08T14:50:27Z</time>
      </trkpt>
      <trkpt lat="44.3374" lon="5.77549">
        <ele>618</ele>
        <time>2019-03-08T14:50:28Z</time>
      </trkpt>
      <trkpt lat="44.3373" lon="5.77542">
        <ele>617</ele>
        <time>2019-03-08T14:50:29Z</time>
      </trkpt>
      <trkpt lat="44.3372" lon="5.77537">
        <ele>616</ele>
        <time>2019-03-08T14:50:30Z</time>
      </trkpt>
      <trkpt lat="44.33709" lon="5.77532">
        <ele>615</ele>
        <time>2019-03-08T14:50:31Z</time>
      </trkpt>
      <trkpt lat="44.33697" lon="5.77528">
        <ele>614</ele>
        <time>2019-03-08T14:50:32Z</time>
      </trkpt>
      <trkpt lat="44.33686" lon="5.77525">
        <ele>613</ele>
        <time>2019-03-08T14:50:33Z</time>
      </trkpt>
      <trkpt lat="44.33674" lon="5.77521">
        <ele>612</ele>
        <time>2019-03-08T14:50:34Z</time>
      </trkpt>
      <trkpt lat="44.33662" lon="5.77517">
        <ele>611</ele>
        <time>2019-03-08T14:50:35Z</time>
      </trkpt>
      <trkpt lat="44.33651" lon="5.77512">
        <ele>610</ele>
        <time>2019-03-08T14:50:36Z</time>
      </trkpt>
      <trkpt lat="44.3364" lon="5.77507">
        <ele>609</ele>
        <time>2019-03-08T14:50:37Z</time>
      </trkpt>
      <trkpt lat="44.3363" lon="5.77504">
        <ele>608</ele>
        <time>2019-03-08T14:50:38Z</time>
      </trkpt>
      <trkpt lat="44.33621" lon="5.77501">
        <ele>607</ele>
        <time>2019-03-08T14:50:39Z</time>
      </trkpt>
      <trkpt lat="44.33613" lon="5.77501">
        <ele>606</ele>
        <time>2019-03-08T14:50:40Z</time>
      </trkpt>
      <trkpt lat="44.33605" lon="5.77505">
        <ele>605</ele>
        <time>2019-03-08T14:50:41Z</time>
      </trkpt>
      <trkpt lat="44.33599" lon="5.77513">
        <ele>604</ele>
        <time>2019-03-08T14:50:42Z</time>
      </trkpt>
      <trkpt lat="44.33593" lon="5.77522">
        <ele>603</ele>
        <time>2019-03-08T14:50:43Z</time>
      </trkpt>
      <trkpt lat="44.33585" lon="5.7753">
        <ele>602</ele>
        <time>2019-03-08T14:50:44Z</time>
      </trkpt>
      <trkpt lat="44.33576" lon="5.77535">
        <ele>601</ele>
        <time>2019-03-08T14:50:45Z</time>
      </trkpt>
      <trkpt lat="44.33567" lon="5.77537">
        <ele>600</ele>
        <time>2019-03-08T14:50:46Z</time>
      </trkpt>
      <trkpt lat="44.33556" lon="5.77536">
        <ele>599</ele>
        <time>2019-03-08T14:50:47Z</time>
      </trkpt>
      <trkpt lat="44.33546" lon="5.77533">
        <ele>598</ele>
        <time>2019-03-08T14:50:48Z</time>
      </trkpt>
      <trkpt lat="44.33536" lon="5.77531">
        <ele>598</ele>
        <time>2019-03-08T14:50:49Z</time>
      </trkpt>
      <trkpt lat="44.33525" lon="5.77528">
        <ele>597</ele>
        <time>2019-03-08T14:50:50Z</time>
      </trkpt>
      <trkpt lat="44.33514" lon="5.77526">
        <ele>597</ele>
        <time>2019-03-08T14:50:51Z</time>
      </trkpt>
      <trkpt lat="44.33503" lon="5.77523">
        <ele>596</ele>
        <time>2019-03-08T14:50:52Z</time>
      </trkpt>
      <trkpt lat="44.33492" lon="5.77521">
        <ele>596</ele>
        <time>2019-03-08T14:50:53Z</time>
      </trkpt>
      <trkpt lat="44.33482" lon="5.77519">
        <ele>596</ele>
        <time>2019-03-08T14:50:54Z</time>
      </trkpt>
      <trkpt lat="44.33472" lon="5.77517">
        <ele>596</ele>
        <time>2019-03-08T14:50:55Z</time>
      </trkpt>
      <trkpt lat="44.33461" lon="5.77515">
        <ele>596</ele>
        <time>2019-03-08T14:50:56Z</time>
      </trkpt>
      <trkpt lat="44.33452" lon="5.77514">
        <ele>596</ele>
        <time>2019-03-08T14:50:57Z</time>
      </trkpt>
      <trkpt lat="44.33442" lon="5.77512">
        <ele>596</ele>
        <time>2019-03-08T14:50:58Z</time>
      </trkpt>
      <trkpt lat="44.33433" lon="5.7751">
        <ele>596</ele>
        <time>2019-03-08T14:50:59Z</time>
      </trkpt>
      <trkpt lat="44.33424" lon="5.77508">
        <ele>596</ele>
        <time>2019-03-08T14:51:00Z</time>
      </trkpt>
      <trkpt lat="44.33416" lon="5.77506">
        <ele>596</ele>
        <time>2019-03-08T14:51:01Z</time>
      </trkpt>
      <trkpt lat="44.33408" lon="5.77505">
        <ele>596</ele>
        <time>2019-03-08T14:51:02Z</time>
      </trkpt>
      <trkpt lat="44.33401" lon="5.77504">
        <ele>596</ele>
        <time>2019-03-08T14:51:03Z</time>
      </trkpt>
      <trkpt lat="44.33393" lon="5.77503">
        <ele>596</ele>
        <time>2019-03-08T14:51:04Z</time>
      </trkpt>
      <trkpt lat="44.33386" lon="5.77502">
        <ele>596</ele>
        <time>2019-03-08T14:51:05Z</time>
      </trkpt>
      <trkpt lat="44.33379" lon="5.77501">
        <ele>596</ele>
        <time>2019-03-08T14:51:06Z</time>
      </trkpt>
      <trkpt lat="44.33372" lon="5.77501">
        <ele>596</ele>
        <time>2019-03-08T14:51:07Z</time>
      </trkpt>
      <trkpt lat="44.33365" lon="5.775">
        <ele>596</ele>
        <time>2019-03-08T14:51:08Z</time>
      </trkpt>
      <trkpt lat="44.33358" lon="5.775">
        <ele>596</ele>
        <time>2019-03-08T14:51:09Z</time>
      </trkpt>
      <trkpt lat="44.33351" lon="5.77499">
        <ele>596</ele>
        <time>2019-03-08T14:51:10Z</time>
      </trkpt>
      <trkpt lat="44.33343" lon="5.77499">
        <ele>596</ele>
        <time>2019-03-08T14:51:11Z</time>
      </trkpt>
      <trkpt lat="44.33336" lon="5.77498">
        <ele>596</ele>
        <time>2019-03-08T14:51:12Z</time>
      </trkpt>
      <trkpt lat="44.33329" lon="5.77498">
        <ele>596</ele>
        <time>2019-03-08T14:51:13Z</time>
      </trkpt>
      <trkpt lat="44.33322" lon="5.77498">
        <ele>596</ele>
        <time>2019-03-08T14:51:14Z</time>
      </trkpt>
      <trkpt lat="44.33316" lon="5.77498">
        <ele>596</ele>
        <time>2019-03-08T14:51:15Z</time>
      </trkpt>
      <trkpt lat="44.33309" lon="5.77498">
        <ele>595</ele>
        <time>2019-03-08T14:51:16Z</time>
      </trkpt>
      <trkpt lat="44.33302" lon="5.77497">
        <ele>595</ele>
        <time>2019-03-08T14:51:17Z</time>
      </trkpt>
      <trkpt lat="44.33295" lon="5.77497">
        <ele>595</ele>
        <time>2019-03-08T14:51:18Z</time>
      </trkpt>
      <trkpt lat="44.33288" lon="5.77497">
        <ele>595</ele>
        <time>2019-03-08T14:51:19Z</time>
      </trkpt>
      <trkpt lat="44.33281" lon="5.77497">
        <ele>594</ele>
        <time>2019-03-08T14:51:20Z</time>
      </trkpt>
      <trkpt lat="44.33274" lon="5.77497">
        <ele>594</ele>
        <time>2019-03-08T14:51:21Z</time>
      </trkpt>
      <trkpt lat="44.33268" lon="5.77497">
        <ele>594</ele>
        <time>2019-03-08T14:51:22Z</time>
      </trkpt>
      <trkpt lat="44.33261" lon="5.77498">
        <ele>594</ele>
        <time>2019-03-08T14:51:23Z</time>
      </trkpt>
      <trkpt lat="44.33255" lon="5.77499">
        <ele>594</ele>
        <time>2019-03-08T14:51:24Z</time>
      </trkpt>
      <trkpt lat="44.33248" lon="5.775">
        <ele>594</ele>
        <time>2019-03-08T14:51:25Z</time>
      </trkpt>
      <trkpt lat="44.33242" lon="5.77502">
        <ele>594</ele>
        <time>2019-03-08T14:51:26Z</time>
      </trkpt>
      <trkpt lat="44.33235" lon="5.77503">
        <ele>594</ele>
        <time>2019-03-08T14:51:27Z</time>
      </trkpt>
      <trkpt lat="44.33229" lon="5.77505">
        <ele>594</ele>
        <time>2019-03-08T14:51:28Z</time>
      </trkpt>
      <trkpt lat="44.33222" lon="5.77508">
        <ele>594</ele>
        <time>2019-03-08T14:51:29Z</time>
      </trkpt>
      <trkpt lat="44.33217" lon="5.77513">
        <ele>594</ele>
        <time>2019-03-08T14:51:30Z</time>
      </trkpt>
      <trkpt lat="44.33211" lon="5.77517">
        <ele>594</ele>
        <time>2019-03-08T14:51:31Z</time>
      </trkpt>
      <trkpt lat="44.33206" lon="5.77523">
        <ele>594</ele>
        <time>2019-03-08T14:51:32Z</time>
      </trkpt>
      <trkpt lat="44.33201" lon="5.77528">
        <ele>594</ele>
        <time>2019-03-08T14:51:33Z</time>
      </trkpt>
      <trkpt lat="44.33196" lon="5.77534">
        <ele>594</ele>
        <time>2019-03-08T14:51:34Z</time>
      </trkpt>
      <trkpt lat="44.33191" lon="5.77539">
        <ele>594</ele>
        <time>2019-03-08T14:51:35Z</time>
      </trkpt>
      <trkpt lat="44.33186" lon="5.77545">
        <ele>594</ele>
        <time>2019-03-08T14:51:36Z</time>
      </trkpt>
      <trkpt lat="44.33181" lon="5.7755">
        <ele>594</ele>
        <time>2019-03-08T14:51:37Z</time>
      </trkpt>
      <trkpt lat="44.33176" lon="5.77554">
        <ele>594</ele>
        <time>2019-03-08T14:51:38Z</time>
      </trkpt>
      <trkpt lat="44.33171" lon="5.77558">
        <ele>594</ele>
        <time>2019-03-08T14:51:39Z</time>
      </trkpt>
      <trkpt lat="44.33166" lon="5.77562">
        <ele>594</ele>
        <time>2019-03-08T14:51:40Z</time>
      </trkpt>
      <trkpt lat="44.3316" lon="5.77565">
        <ele>594</ele>
        <time>2019-03-08T14:51:41Z</time>
      </trkpt>
      <trkpt lat="44.33155" lon="5.77568">
        <ele>594</ele>
        <time>2019-03-08T14:51:42Z</time>
      </trkpt>
      <trkpt lat="44.3315" lon="5.77572">
        <ele>594</ele>
        <time>2019-03-08T14:51:43Z</time>
      </trkpt>
      <trkpt lat="44.33144" lon="5.77576">
        <ele>594</ele>
        <time>2019-03-08T14:51:44Z</time>
      </trkpt>
      <trkpt lat="44.33139" lon="5.7758">
        <ele>594</ele>
        <time>2019-03-08T14:51:45Z</time>
      </trkpt>
      <trkpt lat="44.33133" lon="5.77584">
        <ele>594</ele>
        <time>2019-03-08T14:51:46Z</time>
      </trkpt>
      <trkpt lat="44.33127" lon="5.77587">
        <ele>594</ele>
        <time>2019-03-08T14:51:47Z</time>
      </trkpt>
      <trkpt lat="44.33121" lon="5.7759">
        <ele>594</ele>
        <time>2019-03-08T14:51:48Z</time>
      </trkpt>
      <trkpt lat="44.33114" lon="5.77593">
        <ele>594</ele>
        <time>2019-03-08T14:51:49Z</time>
      </trkpt>
      <trkpt lat="44.33108" lon="5.77594">
        <ele>594</ele>
        <time>2019-03-08T14:51:50Z</time>
      </trkpt>
      <trkpt lat="44.33101" lon="5.77595">
        <ele>594</ele>
        <time>2019-03-08T14:51:51Z</time>
      </trkpt>
      <trkpt lat="44.33094" lon="5.77595">
        <ele>594</ele>
        <time>2019-03-08T14:51:52Z</time>
      </trkpt>
      <trkpt lat="44.33087" lon="5.77595">
        <ele>594</ele>
        <time>2019-03-08T14:51:53Z</time>
      </trkpt>
      <trkpt lat="44.3308" lon="5.77595">
        <ele>594</ele>
        <time>2019-03-08T14:51:54Z</time>
      </trkpt>
      <trkpt lat="44.33073" lon="5.77595">
        <ele>594</ele>
        <time>2019-03-08T14:51:55Z</time>
      </trkpt>
      <trkpt lat="44.33067" lon="5.77595">
        <ele>594</ele>
        <time>2019-03-08T14:51:56Z</time>
      </trkpt>
      <trkpt lat="44.3306" lon="5.77595">
        <ele>594</ele>
        <time>2019-03-08T14:51:57Z</time>
      </trkpt>
      <trkpt lat="44.33054" lon="5.77594">
        <ele>594</ele>
        <time>2019-03-08T14:51:58Z</time>
      </trkpt>
      <trkpt lat="44.33047" lon="5.77594">
        <ele>594</ele>
        <time>2019-03-08T14:51:59Z</time>
      </trkpt>
      <trkpt lat="44.33041" lon="5.77594">
        <ele>594</ele>
        <time>2019-03-08T14:52:00Z</time>
      </trkpt>
      <trkpt lat="44.33035" lon="5.77595">
        <ele>594</ele>
        <time>2019-03-08T14:52:01Z</time>
      </trkpt>
      <trkpt lat="44.33029" lon="5.77595">
        <ele>594</ele>
        <time>2019-03-08T14:52:02Z</time>
      </trkpt>
      <trkpt lat="44.33023" lon="5.77595">
        <ele>594</ele>
        <time>2019-03-08T14:52:03Z</time>
      </trkpt>
      <trkpt lat="44.33017" lon="5.77596">
        <ele>594</ele>
        <time>2019-03-08T14:52:04Z</time>
      </trkpt>
      <trkpt lat="44.33012" lon="5.77597">
        <ele>594</ele>
        <time>2019-03-08T14:52:05Z</time>
      </trkpt>
      <trkpt lat="44.33007" lon="5.77597">
        <ele>594</ele>
        <time>2019-03-08T14:52:06Z</time>
      </trkpt>
      <trkpt lat="44.33001" lon="5.77597">
        <ele>594</ele>
        <time>2019-03-08T14:52:07Z</time>
      </trkpt>
      <trkpt lat="44.32996" lon="5.77598">
        <ele>594</ele>
        <time>2019-03-08T14:52:08Z</time>
      </trkpt>
      <trkpt lat="44.32992" lon="5.77598">
        <ele>594</ele>
        <time>2019-03-08T14:52:09Z</time>
      </trkpt>
      <trkpt lat="44.32987" lon="5.77598">
        <ele>594</ele>
        <time>2019-03-08T14:52:10Z</time>
      </trkpt>
      <trkpt lat="44.32982" lon="5.77599">
        <ele>594</ele>
        <time>2019-03-08T14:52:11Z</time>
      </trkpt>
      <trkpt lat="44.32978" lon="5.77599">
        <ele>594</ele>
        <time>2019-03-08T14:52:12Z</time>
      </trkpt>
      <trkpt lat="44.32973" lon="5.77599">
        <ele>594</ele>
        <time>2019-03-08T14:52:13Z</time>
      </trkpt>
      <trkpt lat="44.32968" lon="5.77599">
        <ele>594</ele>
        <time>2019-03-08T14:52:14Z</time>
      </trkpt>
      <trkpt lat="44.32963" lon="5.77599">
        <ele>594</ele>
        <time>2019-03-08T14:52:15Z</time>
      </trkpt>
      <trkpt lat="44.32958" lon="5.77599">
        <ele>594</ele>
        <time>2019-03-08T14:52:16Z</time>
      </trkpt>
      <trkpt lat="44.32953" lon="5.77598">
        <ele>594</ele>
        <time>2019-03-08T14:52:17Z</time>
      </trkpt>
      <trkpt lat="44.32948" lon="5.77598">
        <ele>594</ele>
        <time>2019-03-08T14:52:18Z</time>
      </trkpt>
      <trkpt lat="44.32943" lon="5.77597">
        <ele>594</ele>
        <time>2019-03-08T14:52:19Z</time>
      </trkpt>
      <trkpt lat="44.32938" lon="5.77597">
        <ele>594</ele>
        <time>2019-03-08T14:52:20Z</time>
      </trkpt>
      <trkpt lat="44.32933" lon="5.77597">
        <ele>594</ele>
        <time>2019-03-08T14:52:21Z</time>
      </trkpt>
      <trkpt lat="44.32927" lon="5.77597">
        <ele>594</ele>
        <time>2019-03-08T14:52:22Z</time>
      </trkpt>
      <trkpt lat="44.32922" lon="5.77597">
        <ele>594</ele>
        <time>2019-03-08T14:52:23Z</time>
      </trkpt>
      <trkpt lat="44.32917" lon="5.77597">
        <ele>594</ele>
        <time>2019-03-08T14:52:24Z</time>
      </trkpt>
      <trkpt lat="44.32912" lon="5.77597">
        <ele>594</ele>
        <time>2019-03-08T14:52:25Z</time>
      </trkpt>
      <trkpt lat="44.32907" lon="5.77596">
        <ele>594</ele>
        <time>2019-03-08T14:52:26Z</time>
      </trkpt>
      <trkpt lat="44.32902" lon="5.77596">
        <ele>594</ele>
        <time>2019-03-08T14:52:27Z</time>
      </trkpt>
      <trkpt lat="44.32897" lon="5.77596">
        <ele>594</ele>
        <time>2019-03-08T14:52:28Z</time>
      </trkpt>
      <trkpt lat="44.32891" lon="5.77596">
        <ele>594</ele>
        <time>2019-03-08T14:52:29Z</time>
      </trkpt>
      <trkpt lat="44.32886" lon="5.77595">
        <ele>594</ele>
        <time>2019-03-08T14:52:30Z</time>
      </trkpt>
      <trkpt lat="44.32881" lon="5.77595">
        <ele>594</ele>
        <time>2019-03-08T14:52:31Z</time>
      </trkpt>
      <trkpt lat="44.32876" lon="5.77594">
        <ele>594</ele>
        <time>2019-03-08T14:52:32Z</time>
      </trkpt>
      <trkpt lat="44.3287" lon="5.77594">
        <ele>594</ele>
        <time>2019-03-08T14:52:33Z</time>
      </trkpt>
      <trkpt lat="44.32865" lon="5.77594">
        <ele>594</ele>
        <time>2019-03-08T14:52:34Z</time>
      </trkpt>
      <trkpt lat="44.3286" lon="5.77594">
        <ele>594</ele>
        <time>2019-03-08T14:52:35Z</time>
      </trkpt>
      <trkpt lat="44.32854" lon="5.77594">
        <ele>594</ele>
        <time>2019-03-08T14:52:36Z</time>
      </trkpt>
      <trkpt lat="44.32849" lon="5.77594">
        <ele>594</ele>
        <time>2019-03-08T14:52:37Z</time>
      </trkpt>
      <trkpt lat="44.32844" lon="5.77594">
        <ele>594</ele>
        <time>2019-03-08T14:52:38Z</time>
      </trkpt>
      <trkpt lat="44.32839" lon="5.77593">
        <ele>594</ele>
        <time>2019-03-08T14:52:39Z</time>
      </trkpt>
      <trkpt lat="44.32833" lon="5.77593">
        <ele>594</ele>
        <time>2019-03-08T14:52:40Z</time>
      </trkpt>
      <trkpt lat="44.32828" lon="5.77593">
        <ele>594</ele>
        <time>2019-03-08T14:52:41Z</time>
      </trkpt>
      <trkpt lat="44.32823" lon="5.77592">
        <ele>594</ele>
        <time>2019-03-08T14:52:42Z</time>
      </trkpt>
      <trkpt lat="44.32818" lon="5.7759">
        <ele>594</ele>
        <time>2019-03-08T14:52:43Z</time>
      </trkpt>
      <trkpt lat="44.32813" lon="5.77588">
        <ele>594</ele>
        <time>2019-03-08T14:52:44Z</time>
      </trkpt>
      <trkpt lat="44.32808" lon="5.77586">
        <ele>594</ele>
        <time>2019-03-08T14:52:45Z</time>
      </trkpt>
      <trkpt lat="44.32803" lon="5.77584">
        <ele>594</ele>
        <time>2019-03-08T14:52:46Z</time>
      </trkpt>
      <trkpt lat="44.32799" lon="5.77582">
        <ele>594</ele>
        <time>2019-03-08T14:52:47Z</time>
      </trkpt>
      <trkpt lat="44.32794" lon="5.7758">
        <ele>594</ele>
        <time>2019-03-08T14:52:48Z</time>
      </trkpt>
      <trkpt lat="44.32789" lon="5.77579">
        <ele>594</ele>
        <time>2019-03-08T14:52:49Z</time>
      </trkpt>
      <trkpt lat="44.32785" lon="5.77579">
        <ele>594</ele>
        <time>2019-03-08T14:52:50Z</time>
      </trkpt>
      <trkpt lat="44.3278" lon="5.77579">
        <ele>594</ele>
        <time>2019-03-08T14:52:51Z</time>
      </trkpt>
      <trkpt lat="44.32775" lon="5.77579">
        <ele>594</ele>
        <time>2019-03-08T14:52:52Z</time>
      </trkpt>
      <trkpt lat="44.3277" lon="5.77579">
        <ele>594</ele>
        <time>2019-03-08T14:52:53Z</time>
      </trkpt>
      <trkpt lat="44.32766" lon="5.7758">
        <ele>594</ele>
        <time>2019-03-08T14:52:54Z</time>
      </trkpt>
      <trkpt lat="44.32761" lon="5.77581">
        <ele>594</ele>
        <time>2019-03-08T14:52:55Z</time>
      </trkpt>
      <trkpt lat="44.32756" lon="5.77583">
        <ele>594</ele>
        <time>2019-03-08T14:52:56Z</time>
      </trkpt>
      <trkpt lat="44.3275" lon="5.77584">
        <ele>594</ele>
        <time>2019-03-08T14:52:57Z</time>
      </trkpt>
      <trkpt lat="44.32745" lon="5.77586">
        <ele>594</ele>
        <time>2019-03-08T14:52:58Z</time>
      </trkpt>
      <trkpt lat="44.3274" lon="5.77587">
        <ele>594</ele>
        <time>2019-03-08T14:52:59Z</time>
      </trkpt>
      <trkpt lat="44.32734" lon="5.77589">
        <ele>594</ele>
        <time>2019-03-08T14:53:00Z</time>
      </trkpt>
      <trkpt lat="44.32729" lon="5.77591">
        <ele>594</ele>
        <time>2019-03-08T14:53:01Z</time>
      </trkpt>
      <trkpt lat="44.32723" lon="5.77592">
        <ele>594</ele>
        <time>2019-03-08T14:53:02Z</time>
      </trkpt>
      <trkpt lat="44.32717" lon="5.77594">
        <ele>594</ele>
        <time>2019-03-08T14:53:03Z</time>
      </trkpt>
      <trkpt lat="44.32711" lon="5.77596">
        <ele>594</ele>
        <time>2019-03-08T14:53:04Z</time>
      </trkpt>
      <trkpt lat="44.32705" lon="5.77598">
        <ele>594</ele>
        <time>2019-03-08T14:53:05Z</time>
      </trkpt>
      <trkpt lat="44.32699" lon="5.77601">
        <ele>594</ele>
        <time>2019-03-08T14:53:06Z</time>
      </trkpt>
      <trkpt lat="44.32693" lon="5.77604">
        <ele>594</ele>
        <time>2019-03-08T14:53:07Z</time>
      </trkpt>
      <trkpt lat="44.32688" lon="5.77608">
        <ele>594</ele>
        <time>2019-03-08T14:53:08Z</time>
      </trkpt>
      <trkpt lat="44.32683" lon="5.77614">
        <ele>594</ele>
        <time>2019-03-08T14:53:09Z</time>
      </trkpt>
      <trkpt lat="44.32679" lon="5.77621">
        <ele>594</ele>
        <time>2019-03-08T14:53:10Z</time>
      </trkpt>
      <trkpt lat="44.32676" lon="5.77628">
        <ele>594</ele>
        <time>2019-03-08T14:53:11Z</time>
      </trkpt>
      <trkpt lat="44.32674" lon="5.77636">
        <ele>594</ele>
        <time>2019-03-08T14:53:12Z</time>
      </trkpt>
      <trkpt lat="44.32671" lon="5.77644">
        <ele>594</ele>
        <time>2019-03-08T14:53:13Z</time>
      </trkpt>
      <trkpt lat="44.32669" lon="5.77652">
        <ele>594</ele>
        <time>2019-03-08T14:53:14Z</time>
      </trkpt>
      <trkpt lat="44.32668" lon="5.77661">
        <ele>594</ele>
        <time>2019-03-08T14:53:15Z</time>
      </trkpt>
      <trkpt lat="44.32666" lon="5.77669">
        <ele>594</ele>
        <time>2019-03-08T14:53:16Z</time>
      </trkpt>
      <trkpt lat="44.32664" lon="5.77676">
        <ele>594</ele>
        <time>2019-03-08T14:53:17Z</time>
      </trkpt>
      <trkpt lat="44.32663" lon="5.77684">
        <ele>594</ele>
        <time>2019-03-08T14:53:18Z</time>
      </trkpt>
      <trkpt lat="44.32661" lon="5.77692">
        <ele>594</ele>
        <time>2019-03-08T14:53:19Z</time>
      </trkpt>
      <trkpt lat="44.32658" lon="5.777">
        <ele>594</ele>
        <time>2019-03-08T14:53:20Z</time>
      </trkpt>
      <trkpt lat="44.32655" lon="5.77708">
        <ele>594</ele>
        <time>2019-03-08T14:53:21Z</time>
      </trkpt>
      <trkpt lat="44.32652" lon="5.77715">
        <ele>594</ele>
        <time>2019-03-08T14:53:22Z</time>
      </trkpt>
      <trkpt lat="44.32649" lon="5.77722">
        <ele>594</ele>
        <time>2019-03-08T14:53:23Z</time>
      </trkpt>
      <trkpt lat="44.32645" lon="5.77729">
        <ele>594</ele>
        <time>2019-03-08T14:53:24Z</time>
      </trkpt>
      <trkpt lat="44.32642" lon="5.77736">
        <ele>594</ele>
        <time>2019-03-08T14:53:25Z</time>
      </trkpt>
      <trkpt lat="44.32638" lon="5.77743">
        <ele>594</ele>
        <time>2019-03-08T14:53:26Z</time>
      </trkpt>
      <trkpt lat="44.32634" lon="5.7775">
        <ele>594</ele>
        <time>2019-03-08T14:53:27Z</time>
      </trkpt>
      <trkpt lat="44.3263" lon="5.77757">
        <ele>594</ele>
        <time>2019-03-08T14:53:28Z</time>
      </trkpt>
      <trkpt lat="44.32626" lon="5.77763">
        <ele>594</ele>
        <time>2019-03-08T14:53:29Z</time>
      </trkpt>
      <trkpt lat="44.32621" lon="5.77769">
        <ele>594</ele>
        <time>2019-03-08T14:53:30Z</time>
      </trkpt>
      <trkpt lat="44.32617" lon="5.77775">
        <ele>594</ele>
        <time>2019-03-08T14:53:31Z</time>
      </trkpt>
      <trkpt lat="44.32612" lon="5.77781">
        <ele>594</ele>
        <time>2019-03-08T14:53:32Z</time>
      </trkpt>
      <trkpt lat="44.32607" lon="5.77786">
        <ele>594</ele>
        <time>2019-03-08T14:53:33Z</time>
      </trkpt>
      <trkpt lat="44.32602" lon="5.77791">
        <ele>594</ele>
        <time>2019-03-08T14:53:34Z</time>
      </trkpt>
      <trkpt lat="44.32597" lon="5.77795">
        <ele>594</ele>
        <time>2019-03-08T14:53:35Z</time>
      </trkpt>
      <trkpt lat="44.32592" lon="5.778">
        <ele>594</ele>
        <time>2019-03-08T14:53:36Z</time>
      </trkpt>
      <trkpt lat="44.32586" lon="5.77804">
        <ele>594</ele>
        <time>2019-03-08T14:53:37Z</time>
      </trkpt>
      <trkpt lat="44.32581" lon="5.77808">
        <ele>594</ele>
        <time>2019-03-08T14:53:38Z</time>
      </trkpt>
      <trkpt lat="44.32576" lon="5.77812">
        <ele>594</ele>
        <time>2019-03-08T14:53:39Z</time>
      </trkpt>
      <trkpt lat="44.32571" lon="5.77816">
        <ele>594</ele>
        <time>2019-03-08T14:53:40Z</time>
      </trkpt>
      <trkpt lat="44.32566" lon="5.7782">
        <ele>594</ele>
        <time>2019-03-08T14:53:41Z</time>
      </trkpt>
      <trkpt lat="44.3256" lon="5.77825">
        <ele>594</ele>
        <time>2019-03-08T14:53:42Z</time>
      </trkpt>
      <trkpt lat="44.32555" lon="5.7783">
        <ele>594</ele>
        <time>2019-03-08T14:53:43Z</time>
      </trkpt>
      <trkpt lat="44.32551" lon="5.77834">
        <ele>594</ele>
        <time>2019-03-08T14:53:44Z</time>
      </trkpt>
      <trkpt lat="44.32546" lon="5.77839">
        <ele>594</ele>
        <time>2019-03-08T14:53:45Z</time>
      </trkpt>
      <trkpt lat="44.32541" lon="5.77843">
        <ele>595</ele>
        <time>2019-03-08T14:53:46Z</time>
      </trkpt>
      <trkpt lat="44.32536" lon="5.77847">
        <ele>595</ele>
        <time>2019-03-08T14:53:47Z</time>
      </trkpt>
      <trkpt lat="44.32531" lon="5.77851">
        <ele>595</ele>
        <time>2019-03-08T14:53:48Z</time>
      </trkpt>
      <trkpt lat="44.32526" lon="5.77855">
        <ele>595</ele>
        <time>2019-03-08T14:53:49Z</time>
      </trkpt>
      <trkpt lat="44.32522" lon="5.77859">
        <ele>595</ele>
        <time>2019-03-08T14:53:50Z</time>
      </trkpt>
      <trkpt lat="44.32517" lon="5.77864">
        <ele>595</ele>
        <time>2019-03-08T14:53:51Z</time>
      </trkpt>
      <trkpt lat="44.32512" lon="5.77868">
        <ele>595</ele>
        <time>2019-03-08T14:53:52Z</time>
      </trkpt>
      <trkpt lat="44.32507" lon="5.77872">
        <ele>595</ele>
        <time>2019-03-08T14:53:53Z</time>
      </trkpt>
      <trkpt lat="44.32503" lon="5.77876">
        <ele>595</ele>
        <time>2019-03-08T14:53:54Z</time>
      </trkpt>
      <trkpt lat="44.32498" lon="5.77881">
        <ele>595</ele>
        <time>2019-03-08T14:53:55Z</time>
      </trkpt>
      <trkpt lat="44.32493" lon="5.77885">
        <ele>595</ele>
        <time>2019-03-08T14:53:56Z</time>
      </trkpt>
      <trkpt lat="44.32489" lon="5.77889">
        <ele>595</ele>
        <time>2019-03-08T14:53:57Z</time>
      </trkpt>
      <trkpt lat="44.32484" lon="5.77894">
        <ele>595</ele>
        <time>2019-03-08T14:53:58Z</time>
      </trkpt>
      <trkpt lat="44.32479" lon="5.77898">
        <ele>596</ele>
        <time>2019-03-08T14:53:59Z</time>
      </trkpt>
      <trkpt lat="44.32474" lon="5.77903">
        <ele>596</ele>
        <time>2019-03-08T14:54:00Z</time>
      </trkpt>
      <trkpt lat="44.32469" lon="5.77907">
        <ele>596</ele>
        <time>2019-03-08T14:54:01Z</time>
      </trkpt>
      <trkpt lat="44.32463" lon="5.77911">
        <ele>596</ele>
        <time>2019-03-08T14:54:02Z</time>
      </trkpt>
      <trkpt lat="44.32458" lon="5.77915">
        <ele>596</ele>
        <time>2019-03-08T14:54:03Z</time>
      </trkpt>
      <trkpt lat="44.32453" lon="5.77919">
        <ele>596</ele>
        <time>2019-03-08T14:54:04Z</time>
      </trkpt>
      <trkpt lat="44.32448" lon="5.77923">
        <ele>596</ele>
        <time>2019-03-08T14:54:05Z</time>
      </trkpt>
      <trkpt lat="44.32442" lon="5.77926">
        <ele>596</ele>
        <time>2019-03-08T14:54:06Z</time>
      </trkpt>
      <trkpt lat="44.32437" lon="5.77929">
        <ele>596</ele>
        <time>2019-03-08T14:54:07Z</time>
      </trkpt>
      <trkpt lat="44.32432" lon="5.77933">
        <ele>596</ele>
        <time>2019-03-08T14:54:08Z</time>
      </trkpt>
      <trkpt lat="44.32426" lon="5.77936">
        <ele>596</ele>
        <time>2019-03-08T14:54:09Z</time>
      </trkpt>
      <trkpt lat="44.32421" lon="5.7794">
        <ele>596</ele>
        <time>2019-03-08T14:54:10Z</time>
      </trkpt>
      <trkpt lat="44.32416" lon="5.77943">
        <ele>596</ele>
        <time>2019-03-08T14:54:11Z</time>
      </trkpt>
      <trkpt lat="44.32411" lon="5.77946">
        <ele>596</ele>
        <time>2019-03-08T14:54:12Z</time>
      </trkpt>
      <trkpt lat="44.32406" lon="5.77949">
        <ele>596</ele>
        <time>2019-03-08T14:54:13Z</time>
      </trkpt>
      <trkpt lat="44.32401" lon="5.77952">
        <ele>596</ele>
        <time>2019-03-08T14:54:14Z</time>
      </trkpt>
      <trkpt lat="44.32396" lon="5.77955">
        <ele>596</ele>
        <time>2019-03-08T14:54:15Z</time>
      </trkpt>
      <trkpt lat="44.3239" lon="5.77958">
        <ele>596</ele>
        <time>2019-03-08T14:54:16Z</time>
      </trkpt>
      <trkpt lat="44.32385" lon="5.77962">
        <ele>596</ele>
        <time>2019-03-08T14:54:17Z</time>
      </trkpt>
      <trkpt lat="44.3238" lon="5.77965">
        <ele>596</ele>
        <time>2019-03-08T14:54:18Z</time>
      </trkpt>
      <trkpt lat="44.32375" lon="5.77967">
        <ele>597</ele>
        <time>2019-03-08T14:54:19Z</time>
      </trkpt>
      <trkpt lat="44.32369" lon="5.7797">
        <ele>597</ele>
        <time>2019-03-08T14:54:20Z</time>
      </trkpt>
      <trkpt lat="44.32364" lon="5.77973">
        <ele>597</ele>
        <time>2019-03-08T14:54:21Z</time>
      </trkpt>
      <trkpt lat="44.32359" lon="5.77976">
        <ele>597</ele>
        <time>2019-03-08T14:54:22Z</time>
      </trkpt>
      <trkpt lat="44.32354" lon="5.77979">
        <ele>597</ele>
        <time>2019-03-08T14:54:23Z</time>
      </trkpt>
      <trkpt lat="44.32349" lon="5.77982">
        <ele>597</ele>
        <time>2019-03-08T14:54:24Z</time>
      </trkpt>
      <trkpt lat="44.32344" lon="5.77985">
        <ele>597</ele>
        <time>2019-03-08T14:54:25Z</time>
      </trkpt>
      <trkpt lat="44.32339" lon="5.77988">
        <ele>597</ele>
        <time>2019-03-08T14:54:26Z</time>
      </trkpt>
      <trkpt lat="44.32334" lon="5.77991">
        <ele>597</ele>
        <time>2019-03-08T14:54:27Z</time>
      </trkpt>
      <trkpt lat="44.32329" lon="5.77994">
        <ele>597</ele>
        <time>2019-03-08T14:54:28Z</time>
      </trkpt>
      <trkpt lat="44.32324" lon="5.77997">
        <ele>597</ele>
        <time>2019-03-08T14:54:29Z</time>
      </trkpt>
      <trkpt lat="44.32319" lon="5.78">
        <ele>597</ele>
        <time>2019-03-08T14:54:30Z</time>
      </trkpt>
      <trkpt lat="44.32314" lon="5.78004">
        <ele>597</ele>
        <time>2019-03-08T14:54:31Z</time>
      </trkpt>
      <trkpt lat="44.32309" lon="5.78007">
        <ele>598</ele>
        <time>2019-03-08T14:54:32Z</time>
      </trkpt>
      <trkpt lat="44.32304" lon="5.7801">
        <ele>598</ele>
        <time>2019-03-08T14:54:33Z</time>
      </trkpt>
      <trkpt lat="44.323" lon="5.78013">
        <ele>598</ele>
        <time>2019-03-08T14:54:34Z</time>
      </trkpt>
      <trkpt lat="44.32295" lon="5.78016">
        <ele>598</ele>
        <time>2019-03-08T14:54:35Z</time>
      </trkpt>
      <trkpt lat="44.3229" lon="5.78019">
        <ele>598</ele>
        <time>2019-03-08T14:54:36Z</time>
      </trkpt>
      <trkpt lat="44.32285" lon="5.78022">
        <ele>598</ele>
        <time>2019-03-08T14:54:37Z</time>
      </trkpt>
      <trkpt lat="44.3228" lon="5.78025">
        <ele>598</ele>
        <time>2019-03-08T14:54:38Z</time>
      </trkpt>
      <trkpt lat="44.32275" lon="5.78027">
        <ele>598</ele>
        <time>2019-03-08T14:54:39Z</time>
      </trkpt>
      <trkpt lat="44.3227" lon="5.7803">
        <ele>598</ele>
        <time>2019-03-08T14:54:40Z</time>
      </trkpt>
      <trkpt lat="44.32265" lon="5.78034">
        <ele>598</ele>
        <time>2019-03-08T14:54:41Z</time>
      </trkpt>
      <trkpt lat="44.3226" lon="5.78037">
        <ele>598</ele>
        <time>2019-03-08T14:54:42Z</time>
      </trkpt>
      <trkpt lat="44.32255" lon="5.7804">
        <ele>598</ele>
        <time>2019-03-08T14:54:43Z</time>
      </trkpt>
      <trkpt lat="44.32251" lon="5.78043">
        <ele>598</ele>
        <time>2019-03-08T14:54:44Z</time>
      </trkpt>
      <trkpt lat="44.32246" lon="5.78045">
        <ele>598</ele>
        <time>2019-03-08T14:54:45Z</time>
      </trkpt>
      <trkpt lat="44.32241" lon="5.78048">
        <ele>598</ele>
        <time>2019-03-08T14:54:46Z</time>
      </trkpt>
      <trkpt lat="44.32236" lon="5.78051">
        <ele>598</ele>
        <time>2019-03-08T14:54:47Z</time>
      </trkpt>
      <trkpt lat="44.32231" lon="5.78054">
        <ele>598</ele>
        <time>2019-03-08T14:54:48Z</time>
      </trkpt>
      <trkpt lat="44.32226" lon="5.78057">
        <ele>598</ele>
        <time>2019-03-08T14:54:49Z</time>
      </trkpt>
      <trkpt lat="44.32221" lon="5.78061">
        <ele>598</ele>
        <time>2019-03-08T14:54:50Z</time>
      </trkpt>
      <trkpt lat="44.32216" lon="5.78063">
        <ele>598</ele>
        <time>2019-03-08T14:54:51Z</time>
      </trkpt>
      <trkpt lat="44.32211" lon="5.78066">
        <ele>598</ele>
        <time>2019-03-08T14:54:52Z</time>
      </trkpt>
      <trkpt lat="44.32206" lon="5.78069">
        <ele>598</ele>
        <time>2019-03-08T14:54:53Z</time>
      </trkpt>
      <trkpt lat="44.32201" lon="5.78072">
        <ele>598</ele>
        <time>2019-03-08T14:54:54Z</time>
      </trkpt>
      <trkpt lat="44.32196" lon="5.78076">
        <ele>598</ele>
        <time>2019-03-08T14:54:55Z</time>
      </trkpt>
      <trkpt lat="44.32192" lon="5.78079">
        <ele>598</ele>
        <time>2019-03-08T14:54:56Z</time>
      </trkpt>
      <trkpt lat="44.32187" lon="5.78083">
        <ele>598</ele>
        <time>2019-03-08T14:54:57Z</time>
      </trkpt>
      <trkpt lat="44.32182" lon="5.78087">
        <ele>598</ele>
        <time>2019-03-08T14:54:58Z</time>
      </trkpt>
      <trkpt lat="44.32177" lon="5.7809">
        <ele>598</ele>
        <time>2019-03-08T14:54:59Z</time>
      </trkpt>
      <trkpt lat="44.32172" lon="5.78094">
        <ele>598</ele>
        <time>2019-03-08T14:55:00Z</time>
      </trkpt>
      <trkpt lat="44.32168" lon="5.78098">
        <ele>598</ele>
        <time>2019-03-08T14:55:01Z</time>
      </trkpt>
      <trkpt lat="44.32163" lon="5.78102">
        <ele>598</ele>
        <time>2019-03-08T14:55:02Z</time>
      </trkpt>
      <trkpt lat="44.32158" lon="5.78107">
        <ele>598</ele>
        <time>2019-03-08T14:55:03Z</time>
      </trkpt>
      <trkpt lat="44.32153" lon="5.78112">
        <ele>598</ele>
        <time>2019-03-08T14:55:04Z</time>
      </trkpt>
      <trkpt lat="44.32149" lon="5.78116">
        <ele>598</ele>
        <time>2019-03-08T14:55:05Z</time>
      </trkpt>
      <trkpt lat="44.32144" lon="5.78121">
        <ele>598</ele>
        <time>2019-03-08T14:55:06Z</time>
      </trkpt>
      <trkpt lat="44.32139" lon="5.78126">
        <ele>598</ele>
        <time>2019-03-08T14:55:07Z</time>
      </trkpt>
      <trkpt lat="44.32134" lon="5.7813">
        <ele>598</ele>
        <time>2019-03-08T14:55:08Z</time>
      </trkpt>
      <trkpt lat="44.3213" lon="5.78135">
        <ele>598</ele>
        <time>2019-03-08T14:55:09Z</time>
      </trkpt>
      <trkpt lat="44.32124" lon="5.7814">
        <ele>598</ele>
        <time>2019-03-08T14:55:10Z</time>
      </trkpt>
      <trkpt lat="44.32119" lon="5.78145">
        <ele>598</ele>
        <time>2019-03-08T14:55:11Z</time>
      </trkpt>
      <trkpt lat="44.32114" lon="5.7815">
        <ele>598</ele>
        <time>2019-03-08T14:55:12Z</time>
      </trkpt>
      <trkpt lat="44.32109" lon="5.78155">
        <ele>598</ele>
        <time>2019-03-08T14:55:13Z</time>
      </trkpt>
      <trkpt lat="44.32104" lon="5.7816">
        <ele>598</ele>
        <time>2019-03-08T14:55:14Z</time>
      </trkpt>
      <trkpt lat="44.32099" lon="5.78164">
        <ele>598</ele>
        <time>2019-03-08T14:55:15Z</time>
      </trkpt>
      <trkpt lat="44.32094" lon="5.78169">
        <ele>598</ele>
        <time>2019-03-08T14:55:16Z</time>
      </trkpt>
      <trkpt lat="44.32089" lon="5.78174">
        <ele>598</ele>
        <time>2019-03-08T14:55:17Z</time>
      </trkpt>
      <trkpt lat="44.32083" lon="5.7818">
        <ele>598</ele>
        <time>2019-03-08T14:55:18Z</time>
      </trkpt>
      <trkpt lat="44.32078" lon="5.78185">
        <ele>598</ele>
        <time>2019-03-08T14:55:19Z</time>
      </trkpt>
      <trkpt lat="44.32073" lon="5.78191">
        <ele>598</ele>
        <time>2019-03-08T14:55:20Z</time>
      </trkpt>
      <trkpt lat="44.32068" lon="5.78196">
        <ele>598</ele>
        <time>2019-03-08T14:55:21Z</time>
      </trkpt>
      <trkpt lat="44.32063" lon="5.78201">
        <ele>598</ele>
        <time>2019-03-08T14:55:22Z</time>
      </trkpt>
      <trkpt lat="44.32058" lon="5.78207">
        <ele>598</ele>
        <time>2019-03-08T14:55:23Z</time>
      </trkpt>
      <trkpt lat="44.32053" lon="5.78212">
        <ele>598</ele>
        <time>2019-03-08T14:55:24Z</time>
      </trkpt>
      <trkpt lat="44.32047" lon="5.78218">
        <ele>598</ele>
        <time>2019-03-08T14:55:25Z</time>
      </trkpt>
      <trkpt lat="44.32042" lon="5.78224">
        <ele>598</ele>
        <time>2019-03-08T14:55:26Z</time>
      </trkpt>
      <trkpt lat="44.32037" lon="5.78229">
        <ele>598</ele>
        <time>2019-03-08T14:55:27Z</time>
      </trkpt>
      <trkpt lat="44.32031" lon="5.78234">
        <ele>598</ele>
        <time>2019-03-08T14:55:28Z</time>
      </trkpt>
      <trkpt lat="44.32026" lon="5.7824">
        <ele>598</ele>
        <time>2019-03-08T14:55:29Z</time>
      </trkpt>
      <trkpt lat="44.3202" lon="5.78245">
        <ele>598</ele>
        <time>2019-03-08T14:55:30Z</time>
      </trkpt>
      <trkpt lat="44.32015" lon="5.7825">
        <ele>598</ele>
        <time>2019-03-08T14:55:31Z</time>
      </trkpt>
      <trkpt lat="44.32009" lon="5.78255">
        <ele>598</ele>
        <time>2019-03-08T14:55:32Z</time>
      </trkpt>
      <trkpt lat="44.32004" lon="5.7826">
        <ele>598</ele>
        <time>2019-03-08T14:55:33Z</time>
      </trkpt>
      <trkpt lat="44.31998" lon="5.78265">
        <ele>598</ele>
        <time>2019-03-08T14:55:34Z</time>
      </trkpt>
      <trkpt lat="44.31993" lon="5.7827">
        <ele>598</ele>
        <time>2019-03-08T14:55:35Z</time>
      </trkpt>
      <trkpt lat="44.31988" lon="5.78274">
        <ele>598</ele>
        <time>2019-03-08T14:55:36Z</time>
      </trkpt>
      <trkpt lat="44.31983" lon="5.78279">
        <ele>598</ele>
        <time>2019-03-08T14:55:37Z</time>
      </trkpt>
      <trkpt lat="44.31978" lon="5.78283">
        <ele>598</ele>
        <time>2019-03-08T14:55:38Z</time>
      </trkpt>
      <trkpt lat="44.31973" lon="5.78287">
        <ele>598</ele>
        <time>2019-03-08T14:55:39Z</time>
      </trkpt>
      <trkpt lat="44.31968" lon="5.78291">
        <ele>598</ele>
        <time>2019-03-08T14:55:40Z</time>
      </trkpt>
      <trkpt lat="44.31963" lon="5.78295">
        <ele>598</ele>
        <time>2019-03-08T14:55:41Z</time>
      </trkpt>
      <trkpt lat="44.31958" lon="5.78299">
        <ele>598</ele>
        <time>2019-03-08T14:55:42Z</time>
      </trkpt>
      <trkpt lat="44.31952" lon="5.78302">
        <ele>598</ele>
        <time>2019-03-08T14:55:43Z</time>
      </trkpt>
      <trkpt lat="44.31947" lon="5.78304">
        <ele>598</ele>
        <time>2019-03-08T14:55:44Z</time>
      </trkpt>
      <trkpt lat="44.3194" lon="5.78306">
        <ele>598</ele>
        <time>2019-03-08T14:55:45Z</time>
      </trkpt>
      <trkpt lat="44.31934" lon="5.78307">
        <ele>598</ele>
        <time>2019-03-08T14:55:46Z</time>
      </trkpt>
      <trkpt lat="44.31926" lon="5.78307">
        <ele>598</ele>
        <time>2019-03-08T14:55:47Z</time>
      </trkpt>
      <trkpt lat="44.31919" lon="5.78306">
        <ele>598</ele>
        <time>2019-03-08T14:55:48Z</time>
      </trkpt>
      <trkpt lat="44.31912" lon="5.78304">
        <ele>598</ele>
        <time>2019-03-08T14:55:49Z</time>
      </trkpt>
      <trkpt lat="44.31905" lon="5.783">
        <ele>598</ele>
        <time>2019-03-08T14:55:50Z</time>
      </trkpt>
      <trkpt lat="44.319" lon="5.78296">
        <ele>597</ele>
        <time>2019-03-08T14:55:51Z</time>
      </trkpt>
      <trkpt lat="44.31894" lon="5.78292">
        <ele>597</ele>
        <time>2019-03-08T14:55:52Z</time>
      </trkpt>
      <trkpt lat="44.31887" lon="5.7829">
        <ele>596</ele>
        <time>2019-03-08T14:55:53Z</time>
      </trkpt>
      <trkpt lat="44.31879" lon="5.78287">
        <ele>596</ele>
        <time>2019-03-08T14:55:54Z</time>
      </trkpt>
      <trkpt lat="44.31871" lon="5.78285">
        <ele>595</ele>
        <time>2019-03-08T14:55:55Z</time>
      </trkpt>
      <trkpt lat="44.31861" lon="5.78281">
        <ele>595</ele>
        <time>2019-03-08T14:55:56Z</time>
      </trkpt>
      <trkpt lat="44.31853" lon="5.78277">
        <ele>594</ele>
        <time>2019-03-08T14:55:57Z</time>
      </trkpt>
      <trkpt lat="44.31846" lon="5.78272">
        <ele>594</ele>
        <time>2019-03-08T14:55:58Z</time>
      </trkpt>
      <trkpt lat="44.31839" lon="5.78268">
        <ele>593</ele>
        <time>2019-03-08T14:55:59Z</time>
      </trkpt>
      <trkpt lat="44.31831" lon="5.78264">
        <ele>593</ele>
        <time>2019-03-08T14:56:00Z</time>
      </trkpt>
      <trkpt lat="44.31825" lon="5.78263">
        <ele>592</ele>
        <time>2019-03-08T14:56:01Z</time>
      </trkpt>
      <trkpt lat="44.31819" lon="5.78266">
        <ele>592</ele>
        <time>2019-03-08T14:56:02Z</time>
      </trkpt>
      <trkpt lat="44.31813" lon="5.78273">
        <ele>592</ele>
        <time>2019-03-08T14:56:03Z</time>
      </trkpt>
      <trkpt lat="44.3181" lon="5.78284">
        <ele>592</ele>
        <time>2019-03-08T14:56:04Z</time>
      </trkpt>
      <trkpt lat="44.31808" lon="5.78293">
        <ele>591</ele>
        <time>2019-03-08T14:56:05Z</time>
      </trkpt>
      <trkpt lat="44.31809" lon="5.78303">
        <ele>591</ele>
        <time>2019-03-08T14:56:06Z</time>
      </trkpt>
      <trkpt lat="44.3181" lon="5.78311">
        <ele>591</ele>
        <time>2019-03-08T14:56:07Z</time>
      </trkpt>
      <trkpt lat="44.31812" lon="5.78319">
        <ele>591</ele>
        <time>2019-03-08T14:56:08Z</time>
      </trkpt>
      <trkpt lat="44.31813" lon="5.78326">
        <ele>591</ele>
        <time>2019-03-08T14:56:09Z</time>
      </trkpt>
      <trkpt lat="44.31815" lon="5.78332">
        <ele>591</ele>
        <time>2019-03-08T14:56:10Z</time>
      </trkpt>
      <trkpt lat="44.31814" lon="5.78338">
        <ele>591</ele>
        <time>2019-03-08T14:56:11Z</time>
      </trkpt>
      <trkpt lat="44.31816" lon="5.78344">
        <ele>591</ele>
        <time>2019-03-08T14:56:12Z</time>
      </trkpt>
      <trkpt lat="44.31816" lon="5.78349">
        <ele>591</ele>
        <time>2019-03-08T14:56:13Z</time>
      </trkpt>
      <trkpt lat="44.31815" lon="5.78355">
        <ele>591</ele>
        <time>2019-03-08T14:56:14Z</time>
      </trkpt>
      <trkpt lat="44.31813" lon="5.7836">
        <ele>591</ele>
        <time>2019-03-08T14:56:15Z</time>
      </trkpt>
      <trkpt lat="44.31811" lon="5.78364">
        <ele>591</ele>
        <time>2019-03-08T14:56:16Z</time>
      </trkpt>
      <trkpt lat="44.3181" lon="5.78369">
        <ele>592</ele>
        <time>2019-03-08T14:56:17Z</time>
      </trkpt>
      <trkpt lat="44.31807" lon="5.78373">
        <ele>593</ele>
        <time>2019-03-08T14:56:18Z</time>
      </trkpt>
      <trkpt lat="44.31805" lon="5.78377">
        <ele>593</ele>
        <time>2019-03-08T14:56:19Z</time>
      </trkpt>
      <trkpt lat="44.31802" lon="5.78382">
        <ele>594</ele>
        <time>2019-03-08T14:56:20Z</time>
      </trkpt>
      <trkpt lat="44.318" lon="5.78386">
        <ele>594</ele>
        <time>2019-03-08T14:56:21Z</time>
      </trkpt>
      <trkpt lat="44.31798" lon="5.78391">
        <ele>594</ele>
        <time>2019-03-08T14:56:22Z</time>
      </trkpt>
      <trkpt lat="44.31795" lon="5.78395">
        <ele>594</ele>
        <time>2019-03-08T14:56:23Z</time>
      </trkpt>
      <trkpt lat="44.31793" lon="5.784">
        <ele>594</ele>
        <time>2019-03-08T14:56:24Z</time>
      </trkpt>
      <trkpt lat="44.31791" lon="5.78405">
        <ele>594</ele>
        <time>2019-03-08T14:56:25Z</time>
      </trkpt>
      <trkpt lat="44.31788" lon="5.78409">
        <ele>595</ele>
        <time>2019-03-08T14:56:26Z</time>
      </trkpt>
      <trkpt lat="44.31786" lon="5.78414">
        <ele>595</ele>
        <time>2019-03-08T14:56:27Z</time>
      </trkpt>
      <trkpt lat="44.31783" lon="5.78419">
        <ele>595</ele>
        <time>2019-03-08T14:56:28Z</time>
      </trkpt>
      <trkpt lat="44.3178" lon="5.78425">
        <ele>595</ele>
        <time>2019-03-08T14:56:29Z</time>
      </trkpt>
      <trkpt lat="44.31777" lon="5.7843">
        <ele>595</ele>
        <time>2019-03-08T14:56:30Z</time>
      </trkpt>
      <trkpt lat="44.31774" lon="5.78435">
        <ele>595</ele>
        <time>2019-03-08T14:56:31Z</time>
      </trkpt>
      <trkpt lat="44.3177" lon="5.7844">
        <ele>595</ele>
        <time>2019-03-08T14:56:32Z</time>
      </trkpt>
      <trkpt lat="44.31767" lon="5.78446">
        <ele>595</ele>
        <time>2019-03-08T14:56:33Z</time>
      </trkpt>
      <trkpt lat="44.31764" lon="5.78452">
        <ele>595</ele>
        <time>2019-03-08T14:56:34Z</time>
      </trkpt>
      <trkpt lat="44.3176" lon="5.78459">
        <ele>595</ele>
        <time>2019-03-08T14:56:35Z</time>
      </trkpt>
      <trkpt lat="44.31756" lon="5.78465">
        <ele>595</ele>
        <time>2019-03-08T14:56:36Z</time>
      </trkpt>
      <trkpt lat="44.31752" lon="5.78472">
        <ele>595</ele>
        <time>2019-03-08T14:56:37Z</time>
      </trkpt>
      <trkpt lat="44.31749" lon="5.78478">
        <ele>595</ele>
        <time>2019-03-08T14:56:38Z</time>
      </trkpt>
      <trkpt lat="44.31744" lon="5.78484">
        <ele>595</ele>
        <time>2019-03-08T14:56:39Z</time>
      </trkpt>
      <trkpt lat="44.3174" lon="5.7849">
        <ele>595</ele>
        <time>2019-03-08T14:56:40Z</time>
      </trkpt>
      <trkpt lat="44.31735" lon="5.78496">
        <ele>595</ele>
        <time>2019-03-08T14:56:41Z</time>
      </trkpt>
      <trkpt lat="44.3173" lon="5.785">
        <ele>595</ele>
        <time>2019-03-08T14:56:42Z</time>
      </trkpt>
      <trkpt lat="44.31724" lon="5.78505">
        <ele>595</ele>
        <time>2019-03-08T14:56:43Z</time>
      </trkpt>
      <trkpt lat="44.31718" lon="5.78508">
        <ele>595</ele>
        <time>2019-03-08T14:56:44Z</time>
      </trkpt>
      <trkpt lat="44.31712" lon="5.7851">
        <ele>595</ele>
        <time>2019-03-08T14:56:45Z</time>
      </trkpt>
      <trkpt lat="44.31707" lon="5.78512">
        <ele>595</ele>
        <time>2019-03-08T14:56:46Z</time>
      </trkpt>
      <trkpt lat="44.31701" lon="5.78515">
        <ele>595</ele>
        <time>2019-03-08T14:56:47Z</time>
      </trkpt>
      <trkpt lat="44.31696" lon="5.78517">
        <ele>595</ele>
        <time>2019-03-08T14:56:48Z</time>
      </trkpt>
      <trkpt lat="44.31691" lon="5.7852">
        <ele>595</ele>
        <time>2019-03-08T14:56:49Z</time>
      </trkpt>
      <trkpt lat="44.31686" lon="5.78522">
        <ele>595</ele>
        <time>2019-03-08T14:56:50Z</time>
      </trkpt>
      <trkpt lat="44.31681" lon="5.78524">
        <ele>595</ele>
        <time>2019-03-08T14:56:51Z</time>
      </trkpt>
      <trkpt lat="44.31676" lon="5.78526">
        <ele>595</ele>
        <time>2019-03-08T14:56:52Z</time>
      </trkpt>
      <trkpt lat="44.31672" lon="5.78528">
        <ele>595</ele>
        <time>2019-03-08T14:56:53Z</time>
      </trkpt>
      <trkpt lat="44.31668" lon="5.7853">
        <ele>595</ele>
        <time>2019-03-08T14:56:54Z</time>
      </trkpt>
      <trkpt lat="44.31664" lon="5.78532">
        <ele>595</ele>
        <time>2019-03-08T14:56:55Z</time>
      </trkpt>
      <trkpt lat="44.31659" lon="5.78534">
        <ele>595</ele>
        <time>2019-03-08T14:56:56Z</time>
      </trkpt>
      <trkpt lat="44.31655" lon="5.78535">
        <ele>595</ele>
        <time>2019-03-08T14:56:57Z</time>
      </trkpt>
      <trkpt lat="44.31651" lon="5.78537">
        <ele>595</ele>
        <time>2019-03-08T14:56:58Z</time>
      </trkpt>
      <trkpt lat="44.31646" lon="5.78538">
        <ele>595</ele>
        <time>2019-03-08T14:56:59Z</time>
      </trkpt>
      <trkpt lat="44.31643" lon="5.7854">
        <ele>595</ele>
        <time>2019-03-08T14:57:00Z</time>
      </trkpt>
      <trkpt lat="44.31639" lon="5.78542">
        <ele>595</ele>
        <time>2019-03-08T14:57:01Z</time>
      </trkpt>
      <trkpt lat="44.31635" lon="5.78544">
        <ele>595</ele>
        <time>2019-03-08T14:57:02Z</time>
      </trkpt>
      <trkpt lat="44.31631" lon="5.78545">
        <ele>595</ele>
        <time>2019-03-08T14:57:03Z</time>
      </trkpt>
      <trkpt lat="44.31627" lon="5.78547">
        <ele>595</ele>
        <time>2019-03-08T14:57:04Z</time>
      </trkpt>
      <trkpt lat="44.31624" lon="5.78549">
        <ele>596</ele>
        <time>2019-03-08T14:57:05Z</time>
      </trkpt>
      <trkpt lat="44.3162" lon="5.78551">
        <ele>596</ele>
        <time>2019-03-08T14:57:06Z</time>
      </trkpt>
      <trkpt lat="44.31616" lon="5.78553">
        <ele>596</ele>
        <time>2019-03-08T14:57:07Z</time>
      </trkpt>
      <trkpt lat="44.31613" lon="5.78557">
        <ele>596</ele>
        <time>2019-03-08T14:57:08Z</time>
      </trkpt>
      <trkpt lat="44.3161" lon="5.7856">
        <ele>597</ele>
        <time>2019-03-08T14:57:09Z</time>
      </trkpt>
      <trkpt lat="44.31607" lon="5.78564">
        <ele>597</ele>
        <time>2019-03-08T14:57:10Z</time>
      </trkpt>
      <trkpt lat="44.31605" lon="5.78568">
        <ele>597</ele>
        <time>2019-03-08T14:57:11Z</time>
      </trkpt>
      <trkpt lat="44.31603" lon="5.78573">
        <ele>597</ele>
        <time>2019-03-08T14:57:12Z</time>
      </trkpt>
      <trkpt lat="44.31602" lon="5.78578">
        <ele>598</ele>
        <time>2019-03-08T14:57:13Z</time>
      </trkpt>
      <trkpt lat="44.31601" lon="5.78582">
        <ele>598</ele>
        <time>2019-03-08T14:57:14Z</time>
      </trkpt>
      <trkpt lat="44.31599" lon="5.78587">
        <ele>598</ele>
        <time>2019-03-08T14:57:15Z</time>
      </trkpt>
      <trkpt lat="44.31599" lon="5.78592">
        <ele>598</ele>
        <time>2019-03-08T14:57:16Z</time>
      </trkpt>
      <trkpt lat="44.31598" lon="5.78597">
        <ele>598</ele>
        <time>2019-03-08T14:57:17Z</time>
      </trkpt>
      <trkpt lat="44.31598" lon="5.78603">
        <ele>598</ele>
        <time>2019-03-08T14:57:18Z</time>
      </trkpt>
      <trkpt lat="44.31598" lon="5.78609">
        <ele>598</ele>
        <time>2019-03-08T14:57:19Z</time>
      </trkpt>
      <trkpt lat="44.31597" lon="5.78616">
        <ele>598</ele>
        <time>2019-03-08T14:57:20Z</time>
      </trkpt>
      <trkpt lat="44.31597" lon="5.78623">
        <ele>598</ele>
        <time>2019-03-08T14:57:21Z</time>
      </trkpt>
      <trkpt lat="44.31597" lon="5.78631">
        <ele>598</ele>
        <time>2019-03-08T14:57:22Z</time>
      </trkpt>
      <trkpt lat="44.31597" lon="5.78639">
        <ele>598</ele>
        <time>2019-03-08T14:57:23Z</time>
      </trkpt>
      <trkpt lat="44.31597" lon="5.78648">
        <ele>598</ele>
        <time>2019-03-08T14:57:24Z</time>
      </trkpt>
      <trkpt lat="44.31598" lon="5.78656">
        <ele>598</ele>
        <time>2019-03-08T14:57:25Z</time>
      </trkpt>
      <trkpt lat="44.31598" lon="5.78666">
        <ele>598</ele>
        <time>2019-03-08T14:57:26Z</time>
      </trkpt>
      <trkpt lat="44.31598" lon="5.78676">
        <ele>598</ele>
        <time>2019-03-08T14:57:27Z</time>
      </trkpt>
      <trkpt lat="44.31598" lon="5.78686">
        <ele>598</ele>
        <time>2019-03-08T14:57:28Z</time>
      </trkpt>
      <trkpt lat="44.31598" lon="5.78697">
        <ele>598</ele>
        <time>2019-03-08T14:57:29Z</time>
      </trkpt>
      <trkpt lat="44.31597" lon="5.78708">
        <ele>598</ele>
        <time>2019-03-08T14:57:30Z</time>
      </trkpt>
      <trkpt lat="44.31597" lon="5.78719">
        <ele>598</ele>
        <time>2019-03-08T14:57:31Z</time>
      </trkpt>
      <trkpt lat="44.31596" lon="5.78731">
        <ele>598</ele>
        <time>2019-03-08T14:57:32Z</time>
      </trkpt>
      <trkpt lat="44.31596" lon="5.78744">
        <ele>598</ele>
        <time>2019-03-08T14:57:33Z</time>
      </trkpt>
      <trkpt lat="44.31595" lon="5.78756">
        <ele>598</ele>
        <time>2019-03-08T14:57:34Z</time>
      </trkpt>
      <trkpt lat="44.31594" lon="5.78769">
        <ele>598</ele>
        <time>2019-03-08T14:57:35Z</time>
      </trkpt>
      <trkpt lat="44.31593" lon="5.78784">
        <ele>598</ele>
        <time>2019-03-08T14:57:36Z</time>
      </trkpt>
      <trkpt lat="44.31593" lon="5.78799">
        <ele>598</ele>
        <time>2019-03-08T14:57:37Z</time>
      </trkpt>
      <trkpt lat="44.31592" lon="5.78814">
        <ele>598</ele>
        <time>2019-03-08T14:57:38Z</time>
      </trkpt>
      <trkpt lat="44.31591" lon="5.78829">
        <ele>598</ele>
        <time>2019-03-08T14:57:39Z</time>
      </trkpt>
      <trkpt lat="44.31589" lon="5.78845">
        <ele>598</ele>
        <time>2019-03-08T14:57:40Z</time>
      </trkpt>
      <trkpt lat="44.31586" lon="5.78861">
        <ele>597</ele>
        <time>2019-03-08T14:57:41Z</time>
      </trkpt>
      <trkpt lat="44.31584" lon="5.78877">
        <ele>597</ele>
        <time>2019-03-08T14:57:42Z</time>
      </trkpt>
      <trkpt lat="44.31582" lon="5.78894">
        <ele>596</ele>
        <time>2019-03-08T14:57:43Z</time>
      </trkpt>
      <trkpt lat="44.3158" lon="5.7891">
        <ele>595</ele>
        <time>2019-03-08T14:57:44Z</time>
      </trkpt>
      <trkpt lat="44.31578" lon="5.78927">
        <ele>594</ele>
        <time>2019-03-08T14:57:45Z</time>
      </trkpt>
      <trkpt lat="44.31576" lon="5.78943">
        <ele>593</ele>
        <time>2019-03-08T14:57:46Z</time>
      </trkpt>
      <trkpt lat="44.31574" lon="5.78959">
        <ele>593</ele>
        <time>2019-03-08T14:57:47Z</time>
      </trkpt>
      <trkpt lat="44.31571" lon="5.78975">
        <ele>593</ele>
        <time>2019-03-08T14:57:48Z</time>
      </trkpt>
      <trkpt lat="44.31569" lon="5.7899">
        <ele>592</ele>
        <time>2019-03-08T14:57:49Z</time>
      </trkpt>
      <trkpt lat="44.31565" lon="5.79005">
        <ele>592</ele>
        <time>2019-03-08T14:57:50Z</time>
      </trkpt>
      <trkpt lat="44.31561" lon="5.7902">
        <ele>592</ele>
        <time>2019-03-08T14:57:51Z</time>
      </trkpt>
      <trkpt lat="44.31556" lon="5.79034">
        <ele>592</ele>
        <time>2019-03-08T14:57:52Z</time>
      </trkpt>
      <trkpt lat="44.31551" lon="5.79047">
        <ele>592</ele>
        <time>2019-03-08T14:57:53Z</time>
      </trkpt>
      <trkpt lat="44.31546" lon="5.7906">
        <ele>592</ele>
        <time>2019-03-08T14:57:54Z</time>
      </trkpt>
      <trkpt lat="44.3154" lon="5.79073">
        <ele>592</ele>
        <time>2019-03-08T14:57:55Z</time>
      </trkpt>
      <trkpt lat="44.31535" lon="5.79085">
        <ele>591</ele>
        <time>2019-03-08T14:57:56Z</time>
      </trkpt>
      <trkpt lat="44.31531" lon="5.79097">
        <ele>591</ele>
        <time>2019-03-08T14:57:57Z</time>
      </trkpt>
      <trkpt lat="44.31526" lon="5.79109">
        <ele>591</ele>
        <time>2019-03-08T14:57:58Z</time>
      </trkpt>
      <trkpt lat="44.31522" lon="5.79119">
        <ele>591</ele>
        <time>2019-03-08T14:57:59Z</time>
      </trkpt>
      <trkpt lat="44.31519" lon="5.79131">
        <ele>590</ele>
        <time>2019-03-08T14:58:00Z</time>
      </trkpt>
      <trkpt lat="44.31515" lon="5.79141">
        <ele>590</ele>
        <time>2019-03-08T14:58:01Z</time>
      </trkpt>
      <trkpt lat="44.31512" lon="5.79152">
        <ele>589</ele>
        <time>2019-03-08T14:58:02Z</time>
      </trkpt>
      <trkpt lat="44.31509" lon="5.79162">
        <ele>589</ele>
        <time>2019-03-08T14:58:03Z</time>
      </trkpt>
      <trkpt lat="44.31506" lon="5.79171">
        <ele>588</ele>
        <time>2019-03-08T14:58:04Z</time>
      </trkpt>
      <trkpt lat="44.31502" lon="5.7918">
        <ele>588</ele>
        <time>2019-03-08T14:58:05Z</time>
      </trkpt>
      <trkpt lat="44.31498" lon="5.79188">
        <ele>588</ele>
        <time>2019-03-08T14:58:06Z</time>
      </trkpt>
      <trkpt lat="44.31494" lon="5.79196">
        <ele>588</ele>
        <time>2019-03-08T14:58:07Z</time>
      </trkpt>
      <trkpt lat="44.3149" lon="5.79203">
        <ele>588</ele>
        <time>2019-03-08T14:58:08Z</time>
      </trkpt>
      <trkpt lat="44.31486" lon="5.7921">
        <ele>588</ele>
        <time>2019-03-08T14:58:09Z</time>
      </trkpt>
      <trkpt lat="44.31482" lon="5.79216">
        <ele>588</ele>
        <time>2019-03-08T14:58:10Z</time>
      </trkpt>
      <trkpt lat="44.31479" lon="5.79223">
        <ele>588</ele>
        <time>2019-03-08T14:58:11Z</time>
      </trkpt>
      <trkpt lat="44.31476" lon="5.79231">
        <ele>588</ele>
        <time>2019-03-08T14:58:12Z</time>
      </trkpt>
      <trkpt lat="44.31474" lon="5.79238">
        <ele>588</ele>
        <time>2019-03-08T14:58:13Z</time>
      </trkpt>
      <trkpt lat="44.31472" lon="5.79246">
        <ele>588</ele>
        <time>2019-03-08T14:58:14Z</time>
      </trkpt>
      <trkpt lat="44.31469" lon="5.79253">
        <ele>588</ele>
        <time>2019-03-08T14:58:15Z</time>
      </trkpt>
      <trkpt lat="44.31467" lon="5.7926">
        <ele>588</ele>
        <time>2019-03-08T14:58:16Z</time>
      </trkpt>
      <trkpt lat="44.31465" lon="5.79266">
        <ele>588</ele>
        <time>2019-03-08T14:58:17Z</time>
      </trkpt>
      <trkpt lat="44.31464" lon="5.79272">
        <ele>588</ele>
        <time>2019-03-08T14:58:18Z</time>
      </trkpt>
      <trkpt lat="44.31463" lon="5.79278">
        <ele>588</ele>
        <time>2019-03-08T14:58:19Z</time>
      </trkpt>
      <trkpt lat="44.31461" lon="5.79284">
        <ele>588</ele>
        <time>2019-03-08T14:58:20Z</time>
      </trkpt>
      <trkpt lat="44.3146" lon="5.7929">
        <ele>588</ele>
        <time>2019-03-08T14:58:21Z</time>
      </trkpt>
      <trkpt lat="44.31459" lon="5.79296">
        <ele>588</ele>
        <time>2019-03-08T14:58:22Z</time>
      </trkpt>
      <trkpt lat="44.31458" lon="5.79302">
        <ele>588</ele>
        <time>2019-03-08T14:58:23Z</time>
      </trkpt>
      <trkpt lat="44.31458" lon="5.79308">
        <ele>588</ele>
        <time>2019-03-08T14:58:24Z</time>
      </trkpt>
      <trkpt lat="44.31457" lon="5.79314">
        <ele>588</ele>
        <time>2019-03-08T14:58:25Z</time>
      </trkpt>
      <trkpt lat="44.31456" lon="5.7932">
        <ele>588</ele>
        <time>2019-03-08T14:58:26Z</time>
      </trkpt>
      <trkpt lat="44.31455" lon="5.79326">
        <ele>588</ele>
        <time>2019-03-08T14:58:27Z</time>
      </trkpt>
      <trkpt lat="44.31454" lon="5.79331">
        <ele>588</ele>
        <time>2019-03-08T14:58:28Z</time>
      </trkpt>
      <trkpt lat="44.31454" lon="5.79337">
        <ele>588</ele>
        <time>2019-03-08T14:58:29Z</time>
      </trkpt>
      <trkpt lat="44.31454" lon="5.79342">
        <ele>588</ele>
        <time>2019-03-08T14:58:30Z</time>
      </trkpt>
      <trkpt lat="44.31454" lon="5.79347">
        <ele>588</ele>
        <time>2019-03-08T14:58:31Z</time>
      </trkpt>
      <trkpt lat="44.31454" lon="5.79353">
        <ele>589</ele>
        <time>2019-03-08T14:58:32Z</time>
      </trkpt>
      <trkpt lat="44.31454" lon="5.79358">
        <ele>589</ele>
        <time>2019-03-08T14:58:33Z</time>
      </trkpt>
      <trkpt lat="44.31454" lon="5.79363">
        <ele>589</ele>
        <time>2019-03-08T14:58:34Z</time>
      </trkpt>
      <trkpt lat="44.31454" lon="5.79368">
        <ele>590</ele>
        <time>2019-03-08T14:58:35Z</time>
      </trkpt>
      <trkpt lat="44.31455" lon="5.79374">
        <ele>590</ele>
        <time>2019-03-08T14:58:36Z</time>
      </trkpt>
      <trkpt lat="44.31456" lon="5.79379">
        <ele>590</ele>
        <time>2019-03-08T14:58:37Z</time>
      </trkpt>
      <trkpt lat="44.31456" lon="5.79384">
        <ele>590</ele>
        <time>2019-03-08T14:58:38Z</time>
      </trkpt>
      <trkpt lat="44.31457" lon="5.79389">
        <ele>591</ele>
        <time>2019-03-08T14:58:39Z</time>
      </trkpt>
      <trkpt lat="44.31457" lon="5.79394">
        <ele>591</ele>
        <time>2019-03-08T14:58:40Z</time>
      </trkpt>
      <trkpt lat="44.31458" lon="5.79399">
        <ele>591</ele>
        <time>2019-03-08T14:58:41Z</time>
      </trkpt>
      <trkpt lat="44.31459" lon="5.79403">
        <ele>592</ele>
        <time>2019-03-08T14:58:42Z</time>
      </trkpt>
      <trkpt lat="44.31459" lon="5.79408">
        <ele>592</ele>
        <time>2019-03-08T14:58:43Z</time>
      </trkpt>
      <trkpt lat="44.31459" lon="5.79412">
        <ele>593</ele>
        <time>2019-03-08T14:58:44Z</time>
      </trkpt>
      <trkpt lat="44.3146" lon="5.79416">
        <ele>593</ele>
        <time>2019-03-08T14:58:45Z</time>
      </trkpt>
      <trkpt lat="44.3146" lon="5.79421">
        <ele>593</ele>
        <time>2019-03-08T14:58:46Z</time>
      </trkpt>
      <trkpt lat="44.31461" lon="5.79425">
        <ele>594</ele>
        <time>2019-03-08T14:58:47Z</time>
      </trkpt>
      <trkpt lat="44.31461" lon="5.79429">
        <ele>594</ele>
        <time>2019-03-08T14:58:48Z</time>
      </trkpt>
      <trkpt lat="44.31461" lon="5.79434">
        <ele>594</ele>
        <time>2019-03-08T14:58:49Z</time>
      </trkpt>
      <trkpt lat="44.3146" lon="5.79439">
        <ele>595</ele>
        <time>2019-03-08T14:58:50Z</time>
      </trkpt>
      <trkpt lat="44.3146" lon="5.79443">
        <ele>595</ele>
        <time>2019-03-08T14:58:51Z</time>
      </trkpt>
      <trkpt lat="44.3146" lon="5.79447">
        <ele>596</ele>
        <time>2019-03-08T14:58:52Z</time>
      </trkpt>
      <trkpt lat="44.3146" lon="5.79451">
        <ele>596</ele>
        <time>2019-03-08T14:58:53Z</time>
      </trkpt>
      <trkpt lat="44.3146" lon="5.79455">
        <ele>596</ele>
        <time>2019-03-08T14:58:54Z</time>
      </trkpt>
      <trkpt lat="44.31459" lon="5.79459">
        <ele>597</ele>
        <time>2019-03-08T14:58:55Z</time>
      </trkpt>
      <trkpt lat="44.31459" lon="5.79462">
        <ele>597</ele>
        <time>2019-03-08T14:58:56Z</time>
      </trkpt>
      <trkpt lat="44.31458" lon="5.79466">
        <ele>597</ele>
        <time>2019-03-08T14:58:57Z</time>
      </trkpt>
      <trkpt lat="44.31458" lon="5.79469">
        <ele>598</ele>
        <time>2019-03-08T14:58:58Z</time>
      </trkpt>
      <trkpt lat="44.31457" lon="5.79473">
        <ele>598</ele>
        <time>2019-03-08T14:58:59Z</time>
      </trkpt>
      <trkpt lat="44.31457" lon="5.79477">
        <ele>598</ele>
        <time>2019-03-08T14:59:00Z</time>
      </trkpt>
      <trkpt lat="44.31456" lon="5.7948">
        <ele>598</ele>
        <time>2019-03-08T14:59:01Z</time>
      </trkpt>
      <trkpt lat="44.31455" lon="5.79483">
        <ele>599</ele>
        <time>2019-03-08T14:59:02Z</time>
      </trkpt>
      <trkpt lat="44.31454" lon="5.79487">
        <ele>599</ele>
        <time>2019-03-08T14:59:03Z</time>
      </trkpt>
      <trkpt lat="44.31454" lon="5.7949">
        <ele>599</ele>
        <time>2019-03-08T14:59:04Z</time>
      </trkpt>
      <trkpt lat="44.31453" lon="5.79493">
        <ele>599</ele>
        <time>2019-03-08T14:59:05Z</time>
      </trkpt>
      <trkpt lat="44.31452" lon="5.79496">
        <ele>599</ele>
        <time>2019-03-08T14:59:06Z</time>
      </trkpt>
      <trkpt lat="44.31451" lon="5.795">
        <ele>599</ele>
        <time>2019-03-08T14:59:07Z</time>
      </trkpt>
      <trkpt lat="44.31451" lon="5.79503">
        <ele>600</ele>
        <time>2019-03-08T14:59:08Z</time>
      </trkpt>
      <trkpt lat="44.3145" lon="5.79506">
        <ele>600</ele>
        <time>2019-03-08T14:59:09Z</time>
      </trkpt>
      <trkpt lat="44.31449" lon="5.79509">
        <ele>600</ele>
        <time>2019-03-08T14:59:10Z</time>
      </trkpt>
      <trkpt lat="44.31448" lon="5.79513">
        <ele>600</ele>
        <time>2019-03-08T14:59:11Z</time>
      </trkpt>
      <trkpt lat="44.31447" lon="5.79516">
        <ele>600</ele>
        <time>2019-03-08T14:59:12Z</time>
      </trkpt>
      <trkpt lat="44.31446" lon="5.79519">
        <ele>600</ele>
        <time>2019-03-08T14:59:13Z</time>
      </trkpt>
      <trkpt lat="44.31445" lon="5.79522">
        <ele>600</ele>
        <time>2019-03-08T14:59:14Z</time>
      </trkpt>
      <trkpt lat="44.31444" lon="5.79526">
        <ele>600</ele>
        <time>2019-03-08T14:59:15Z</time>
      </trkpt>
      <trkpt lat="44.31443" lon="5.79529">
        <ele>601</ele>
        <time>2019-03-08T14:59:16Z</time>
      </trkpt>
      <trkpt lat="44.31442" lon="5.79532">
        <ele>601</ele>
        <time>2019-03-08T14:59:17Z</time>
      </trkpt>
      <trkpt lat="44.31441" lon="5.79535">
        <ele>601</ele>
        <time>2019-03-08T14:59:18Z</time>
      </trkpt>
      <trkpt lat="44.31441" lon="5.79538">
        <ele>601</ele>
        <time>2019-03-08T14:59:19Z</time>
      </trkpt>
      <trkpt lat="44.3144" lon="5.79541">
        <ele>601</ele>
        <time>2019-03-08T14:59:20Z</time>
      </trkpt>
      <trkpt lat="44.31439" lon="5.79545">
        <ele>601</ele>
        <time>2019-03-08T14:59:21Z</time>
      </trkpt>
      <trkpt lat="44.31438" lon="5.79548">
        <ele>602</ele>
        <time>2019-03-08T14:59:22Z</time>
      </trkpt>
      <trkpt lat="44.31437" lon="5.79551">
        <ele>602</ele>
        <time>2019-03-08T14:59:23Z</time>
      </trkpt>
      <trkpt lat="44.31436" lon="5.79555">
        <ele>602</ele>
        <time>2019-03-08T14:59:24Z</time>
      </trkpt>
      <trkpt lat="44.31435" lon="5.79558">
        <ele>602</ele>
        <time>2019-03-08T14:59:25Z</time>
      </trkpt>
      <trkpt lat="44.31434" lon="5.79561">
        <ele>602</ele>
        <time>2019-03-08T14:59:26Z</time>
      </trkpt>
      <trkpt lat="44.31433" lon="5.79564">
        <ele>602</ele>
        <time>2019-03-08T14:59:27Z</time>
      </trkpt>
      <trkpt lat="44.31432" lon="5.79567">
        <ele>602</ele>
        <time>2019-03-08T14:59:28Z</time>
      </trkpt>
      <trkpt lat="44.31431" lon="5.79571">
        <ele>603</ele>
        <time>2019-03-08T14:59:29Z</time>
      </trkpt>
      <trkpt lat="44.3143" lon="5.79574">
        <ele>603</ele>
        <time>2019-03-08T14:59:30Z</time>
      </trkpt>
      <trkpt lat="44.31429" lon="5.79577">
        <ele>603</ele>
        <time>2019-03-08T14:59:31Z</time>
      </trkpt>
      <trkpt lat="44.31429" lon="5.7958">
        <ele>603</ele>
        <time>2019-03-08T14:59:32Z</time>
      </trkpt>
      <trkpt lat="44.31429" lon="5.79583">
        <ele>603</ele>
        <time>2019-03-08T14:59:33Z</time>
      </trkpt>
      <trkpt lat="44.31428" lon="5.79587">
        <ele>603</ele>
        <time>2019-03-08T14:59:34Z</time>
      </trkpt>
      <trkpt lat="44.31427" lon="5.79589">
        <ele>603</ele>
        <time>2019-03-08T14:59:35Z</time>
      </trkpt>
      <trkpt lat="44.31426" lon="5.79592">
        <ele>603</ele>
        <time>2019-03-08T14:59:36Z</time>
      </trkpt>
      <trkpt lat="44.31425" lon="5.79595">
        <ele>604</ele>
        <time>2019-03-08T14:59:37Z</time>
      </trkpt>
      <trkpt lat="44.31424" lon="5.79598">
        <ele>604</ele>
        <time>2019-03-08T14:59:38Z</time>
      </trkpt>
      <trkpt lat="44.31424" lon="5.79601">
        <ele>604</ele>
        <time>2019-03-08T14:59:39Z</time>
      </trkpt>
      <trkpt lat="44.31423" lon="5.79604">
        <ele>604</ele>
        <time>2019-03-08T14:59:40Z</time>
      </trkpt>
      <trkpt lat="44.31422" lon="5.79607">
        <ele>605</ele>
        <time>2019-03-08T14:59:41Z</time>
      </trkpt>
      <trkpt lat="44.31421" lon="5.7961">
        <ele>605</ele>
        <time>2019-03-08T14:59:42Z</time>
      </trkpt>
      <trkpt lat="44.31421" lon="5.79613">
        <ele>605</ele>
        <time>2019-03-08T14:59:43Z</time>
      </trkpt>
      <trkpt lat="44.3142" lon="5.79616">
        <ele>605</ele>
        <time>2019-03-08T14:59:44Z</time>
      </trkpt>
      <trkpt lat="44.31419" lon="5.7962">
        <ele>605</ele>
        <time>2019-03-08T14:59:45Z</time>
      </trkpt>
      <trkpt lat="44.31418" lon="5.79623">
        <ele>605</ele>
        <time>2019-03-08T14:59:46Z</time>
      </trkpt>
      <trkpt lat="44.31417" lon="5.79627">
        <ele>605</ele>
        <time>2019-03-08T14:59:47Z</time>
      </trkpt>
      <trkpt lat="44.31416" lon="5.7963">
        <ele>605</ele>
        <time>2019-03-08T14:59:48Z</time>
      </trkpt>
      <trkpt lat="44.31415" lon="5.79634">
        <ele>606</ele>
        <time>2019-03-08T14:59:49Z</time>
      </trkpt>
      <trkpt lat="44.31414" lon="5.79638">
        <ele>606</ele>
        <time>2019-03-08T14:59:50Z</time>
      </trkpt>
      <trkpt lat="44.31413" lon="5.79641">
        <ele>606</ele>
        <time>2019-03-08T14:59:51Z</time>
      </trkpt>
      <trkpt lat="44.31412" lon="5.79645">
        <ele>606</ele>
        <time>2019-03-08T14:59:52Z</time>
      </trkpt>
      <trkpt lat="44.31411" lon="5.79648">
        <ele>606</ele>
        <time>2019-03-08T14:59:53Z</time>
      </trkpt>
      <trkpt lat="44.3141" lon="5.79652">
        <ele>607</ele>
        <time>2019-03-08T14:59:54Z</time>
      </trkpt>
      <trkpt lat="44.31409" lon="5.79655">
        <ele>607</ele>
        <time>2019-03-08T14:59:55Z</time>
      </trkpt>
      <trkpt lat="44.31408" lon="5.79659">
        <ele>607</ele>
        <time>2019-03-08T14:59:56Z</time>
      </trkpt>
      <trkpt lat="44.31408" lon="5.79663">
        <ele>607</ele>
        <time>2019-03-08T14:59:57Z</time>
      </trkpt>
      <trkpt lat="44.31407" lon="5.79666">
        <ele>607</ele>
        <time>2019-03-08T14:59:58Z</time>
      </trkpt>
      <trkpt lat="44.31406" lon="5.79669">
        <ele>607</ele>
        <time>2019-03-08T14:59:59Z</time>
      </trkpt>
      <trkpt lat="44.31405" lon="5.79673">
        <ele>607</ele>
        <time>2019-03-08T15:00:00Z</time>
      </trkpt>
      <trkpt lat="44.31404" lon="5.79676">
        <ele>607</ele>
        <time>2019-03-08T15:00:01Z</time>
      </trkpt>
      <trkpt lat="44.31403" lon="5.7968">
        <ele>608</ele>
        <time>2019-03-08T15:00:02Z</time>
      </trkpt>
      <trkpt lat="44.31402" lon="5.79683">
        <ele>608</ele>
        <time>2019-03-08T15:00:03Z</time>
      </trkpt>
      <trkpt lat="44.31401" lon="5.79687">
        <ele>608</ele>
        <time>2019-03-08T15:00:04Z</time>
      </trkpt>
      <trkpt lat="44.31401" lon="5.79691">
        <ele>608</ele>
        <time>2019-03-08T15:00:05Z</time>
      </trkpt>
      <trkpt lat="44.314" lon="5.79694">
        <ele>609</ele>
        <time>2019-03-08T15:00:06Z</time>
      </trkpt>
      <trkpt lat="44.31398" lon="5.79698">
        <ele>609</ele>
        <time>2019-03-08T15:00:07Z</time>
      </trkpt>
      <trkpt lat="44.31397" lon="5.79701">
        <ele>609</ele>
        <time>2019-03-08T15:00:08Z</time>
      </trkpt>
      <trkpt lat="44.31396" lon="5.79705">
        <ele>609</ele>
        <time>2019-03-08T15:00:09Z</time>
      </trkpt>
      <trkpt lat="44.31395" lon="5.79708">
        <ele>609</ele>
        <time>2019-03-08T15:00:10Z</time>
      </trkpt>
      <trkpt lat="44.31393" lon="5.79712">
        <ele>609</ele>
        <time>2019-03-08T15:00:11Z</time>
      </trkpt>
      <trkpt lat="44.31391" lon="5.79716">
        <ele>609</ele>
        <time>2019-03-08T15:00:12Z</time>
      </trkpt>
      <trkpt lat="44.3139" lon="5.79721">
        <ele>609</ele>
        <time>2019-03-08T15:00:13Z</time>
      </trkpt>
      <trkpt lat="44.31388" lon="5.79726">
        <ele>609</ele>
        <time>2019-03-08T15:00:14Z</time>
      </trkpt>
      <trkpt lat="44.31386" lon="5.79731">
        <ele>609</ele>
        <time>2019-03-08T15:00:15Z</time>
      </trkpt>
      <trkpt lat="44.31383" lon="5.79735">
        <ele>609</ele>
        <time>2019-03-08T15:00:16Z</time>
      </trkpt>
      <trkpt lat="44.3138" lon="5.7974">
        <ele>609</ele>
        <time>2019-03-08T15:00:17Z</time>
      </trkpt>
      <trkpt lat="44.31377" lon="5.79745">
        <ele>609</ele>
        <time>2019-03-08T15:00:18Z</time>
      </trkpt>
      <trkpt lat="44.31375" lon="5.7975">
        <ele>609</ele>
        <time>2019-03-08T15:00:19Z</time>
      </trkpt>
      <trkpt lat="44.31372" lon="5.79755">
        <ele>609</ele>
        <time>2019-03-08T15:00:20Z</time>
      </trkpt>
      <trkpt lat="44.31369" lon="5.7976">
        <ele>609</ele>
        <time>2019-03-08T15:00:21Z</time>
      </trkpt>
      <trkpt lat="44.31366" lon="5.79765">
        <ele>609</ele>
        <time>2019-03-08T15:00:22Z</time>
      </trkpt>
      <trkpt lat="44.31362" lon="5.79771">
        <ele>609</ele>
        <time>2019-03-08T15:00:23Z</time>
      </trkpt>
      <trkpt lat="44.31359" lon="5.79776">
        <ele>609</ele>
        <time>2019-03-08T15:00:24Z</time>
      </trkpt>
      <trkpt lat="44.31356" lon="5.79781">
        <ele>609</ele>
        <time>2019-03-08T15:00:25Z</time>
      </trkpt>
      <trkpt lat="44.31352" lon="5.79786">
        <ele>609</ele>
        <time>2019-03-08T15:00:26Z</time>
      </trkpt>
      <trkpt lat="44.31349" lon="5.79791">
        <ele>609</ele>
        <time>2019-03-08T15:00:27Z</time>
      </trkpt>
      <trkpt lat="44.31346" lon="5.79797">
        <ele>609</ele>
        <time>2019-03-08T15:00:28Z</time>
      </trkpt>
      <trkpt lat="44.31342" lon="5.79802">
        <ele>609</ele>
        <time>2019-03-08T15:00:29Z</time>
      </trkpt>
      <trkpt lat="44.31339" lon="5.79808">
        <ele>609</ele>
        <time>2019-03-08T15:00:30Z</time>
      </trkpt>
      <trkpt lat="44.31335" lon="5.79813">
        <ele>609</ele>
        <time>2019-03-08T15:00:31Z</time>
      </trkpt>
      <trkpt lat="44.31332" lon="5.79819">
        <ele>609</ele>
        <time>2019-03-08T15:00:32Z</time>
      </trkpt>
      <trkpt lat="44.31328" lon="5.79825">
        <ele>609</ele>
        <time>2019-03-08T15:00:33Z</time>
      </trkpt>
      <trkpt lat="44.31324" lon="5.7983">
        <ele>609</ele>
        <time>2019-03-08T15:00:34Z</time>
      </trkpt>
      <trkpt lat="44.31321" lon="5.79836">
        <ele>609</ele>
        <time>2019-03-08T15:00:35Z</time>
      </trkpt>
      <trkpt lat="44.31317" lon="5.79842">
        <ele>609</ele>
        <time>2019-03-08T15:00:36Z</time>
      </trkpt>
      <trkpt lat="44.31313" lon="5.79848">
        <ele>609</ele>
        <time>2019-03-08T15:00:37Z</time>
      </trkpt>
      <trkpt lat="44.3131" lon="5.79854">
        <ele>609</ele>
        <time>2019-03-08T15:00:38Z</time>
      </trkpt>
      <trkpt lat="44.31306" lon="5.79859">
        <ele>609</ele>
        <time>2019-03-08T15:00:39Z</time>
      </trkpt>
      <trkpt lat="44.31302" lon="5.79865">
        <ele>609</ele>
        <time>2019-03-08T15:00:40Z</time>
      </trkpt>
      <trkpt lat="44.31299" lon="5.7987">
        <ele>609</ele>
        <time>2019-03-08T15:00:41Z</time>
      </trkpt>
      <trkpt lat="44.31295" lon="5.79875">
        <ele>609</ele>
        <time>2019-03-08T15:00:42Z</time>
      </trkpt>
      <trkpt lat="44.31292" lon="5.79881">
        <ele>609</ele>
        <time>2019-03-08T15:00:43Z</time>
      </trkpt>
      <trkpt lat="44.31288" lon="5.79886">
        <ele>609</ele>
        <time>2019-03-08T15:00:44Z</time>
      </trkpt>
      <trkpt lat="44.31284" lon="5.79891">
        <ele>609</ele>
        <time>2019-03-08T15:00:45Z</time>
      </trkpt>
      <trkpt lat="44.31281" lon="5.79896">
        <ele>609</ele>
        <time>2019-03-08T15:00:46Z</time>
      </trkpt>
      <trkpt lat="44.31277" lon="5.79901">
        <ele>609</ele>
        <time>2019-03-08T15:00:47Z</time>
      </trkpt>
      <trkpt lat="44.31273" lon="5.79905">
        <ele>609</ele>
        <time>2019-03-08T15:00:48Z</time>
      </trkpt>
      <trkpt lat="44.3127" lon="5.79909">
        <ele>609</ele>
        <time>2019-03-08T15:00:49Z</time>
      </trkpt>
      <trkpt lat="44.31266" lon="5.79914">
        <ele>609</ele>
        <time>2019-03-08T15:00:50Z</time>
      </trkpt>
      <trkpt lat="44.31263" lon="5.79918">
        <ele>609</ele>
        <time>2019-03-08T15:00:51Z</time>
      </trkpt>
      <trkpt lat="44.31259" lon="5.79922">
        <ele>609</ele>
        <time>2019-03-08T15:00:52Z</time>
      </trkpt>
      <trkpt lat="44.31256" lon="5.79926">
        <ele>609</ele>
        <time>2019-03-08T15:00:53Z</time>
      </trkpt>
      <trkpt lat="44.31253" lon="5.7993">
        <ele>609</ele>
        <time>2019-03-08T15:00:54Z</time>
      </trkpt>
      <trkpt lat="44.31249" lon="5.79935">
        <ele>609</ele>
        <time>2019-03-08T15:00:55Z</time>
      </trkpt>
      <trkpt lat="44.31246" lon="5.79939">
        <ele>609</ele>
        <time>2019-03-08T15:00:56Z</time>
      </trkpt>
      <trkpt lat="44.31243" lon="5.79943">
        <ele>609</ele>
        <time>2019-03-08T15:00:57Z</time>
      </trkpt>
      <trkpt lat="44.3124" lon="5.79948">
        <ele>609</ele>
        <time>2019-03-08T15:00:58Z</time>
      </trkpt>
      <trkpt lat="44.31237" lon="5.79953">
        <ele>609</ele>
        <time>2019-03-08T15:00:59Z</time>
      </trkpt>
      <trkpt lat="44.31234" lon="5.79959">
        <ele>609</ele>
        <time>2019-03-08T15:01:00Z</time>
      </trkpt>
      <trkpt lat="44.31231" lon="5.79966">
        <ele>609</ele>
        <time>2019-03-08T15:01:01Z</time>
      </trkpt>
      <trkpt lat="44.31229" lon="5.79973">
        <ele>609</ele>
        <time>2019-03-08T15:01:02Z</time>
      </trkpt>
      <trkpt lat="44.31227" lon="5.79981">
        <ele>609</ele>
        <time>2019-03-08T15:01:03Z</time>
      </trkpt>
      <trkpt lat="44.31226" lon="5.79989">
        <ele>609</ele>
        <time>2019-03-08T15:01:04Z</time>
      </trkpt>
      <trkpt lat="44.31225" lon="5.79998">
        <ele>609</ele>
        <time>2019-03-08T15:01:05Z</time>
      </trkpt>
      <trkpt lat="44.31225" lon="5.80006">
        <ele>609</ele>
        <time>2019-03-08T15:01:06Z</time>
      </trkpt>
      <trkpt lat="44.31225" lon="5.80013">
        <ele>609</ele>
        <time>2019-03-08T15:01:07Z</time>
      </trkpt>
      <trkpt lat="44.31225" lon="5.80021">
        <ele>609</ele>
        <time>2019-03-08T15:01:08Z</time>
      </trkpt>
      <trkpt lat="44.31224" lon="5.80028">
        <ele>609</ele>
        <time>2019-03-08T15:01:09Z</time>
      </trkpt>
      <trkpt lat="44.31224" lon="5.80035">
        <ele>609</ele>
        <time>2019-03-08T15:01:10Z</time>
      </trkpt>
      <trkpt lat="44.31223" lon="5.80042">
        <ele>609</ele>
        <time>2019-03-08T15:01:11Z</time>
      </trkpt>
      <trkpt lat="44.31221" lon="5.80049">
        <ele>610</ele>
        <time>2019-03-08T15:01:12Z</time>
      </trkpt>
      <trkpt lat="44.3122" lon="5.80056">
        <ele>610</ele>
        <time>2019-03-08T15:01:13Z</time>
      </trkpt>
      <trkpt lat="44.31218" lon="5.80063">
        <ele>610</ele>
        <time>2019-03-08T15:01:14Z</time>
      </trkpt>
      <trkpt lat="44.31214" lon="5.80069">
        <ele>610</ele>
        <time>2019-03-08T15:01:15Z</time>
      </trkpt>
      <trkpt lat="44.31211" lon="5.80075">
        <ele>611</ele>
        <time>2019-03-08T15:01:16Z</time>
      </trkpt>
      <trkpt lat="44.31208" lon="5.80081">
        <ele>611</ele>
        <time>2019-03-08T15:01:17Z</time>
      </trkpt>
      <trkpt lat="44.31204" lon="5.80086">
        <ele>611</ele>
        <time>2019-03-08T15:01:18Z</time>
      </trkpt>
      <trkpt lat="44.312" lon="5.80092">
        <ele>611</ele>
        <time>2019-03-08T15:01:19Z</time>
      </trkpt>
      <trkpt lat="44.31196" lon="5.80097">
        <ele>611</ele>
        <time>2019-03-08T15:01:20Z</time>
      </trkpt>
      <trkpt lat="44.31192" lon="5.80103">
        <ele>611</ele>
        <time>2019-03-08T15:01:21Z</time>
      </trkpt>
      <trkpt lat="44.31189" lon="5.80109">
        <ele>611</ele>
        <time>2019-03-08T15:01:22Z</time>
      </trkpt>
      <trkpt lat="44.31186" lon="5.80116">
        <ele>611</ele>
        <time>2019-03-08T15:01:23Z</time>
      </trkpt>
      <trkpt lat="44.31183" lon="5.80123">
        <ele>611</ele>
        <time>2019-03-08T15:01:24Z</time>
      </trkpt>
      <trkpt lat="44.31181" lon="5.8013">
        <ele>611</ele>
        <time>2019-03-08T15:01:25Z</time>
      </trkpt>
      <trkpt lat="44.31179" lon="5.80138">
        <ele>611</ele>
        <time>2019-03-08T15:01:26Z</time>
      </trkpt>
      <trkpt lat="44.31177" lon="5.80145">
        <ele>611</ele>
        <time>2019-03-08T15:01:27Z</time>
      </trkpt>
      <trkpt lat="44.31176" lon="5.80151">
        <ele>611</ele>
        <time>2019-03-08T15:01:28Z</time>
      </trkpt>
      <trkpt lat="44.31174" lon="5.80158">
        <ele>611</ele>
        <time>2019-03-08T15:01:29Z</time>
      </trkpt>
      <trkpt lat="44.31172" lon="5.80164">
        <ele>611</ele>
        <time>2019-03-08T15:01:30Z</time>
      </trkpt>
      <trkpt lat="44.3117" lon="5.80171">
        <ele>611</ele>
        <time>2019-03-08T15:01:31Z</time>
      </trkpt>
      <trkpt lat="44.31168" lon="5.80177">
        <ele>612</ele>
        <time>2019-03-08T15:01:32Z</time>
      </trkpt>
      <trkpt lat="44.31166" lon="5.80183">
        <ele>612</ele>
        <time>2019-03-08T15:01:33Z</time>
      </trkpt>
      <trkpt lat="44.31164" lon="5.80188">
        <ele>612</ele>
        <time>2019-03-08T15:01:34Z</time>
      </trkpt>
      <trkpt lat="44.31162" lon="5.80194">
        <ele>613</ele>
        <time>2019-03-08T15:01:35Z</time>
      </trkpt>
      <trkpt lat="44.3116" lon="5.80199">
        <ele>613</ele>
        <time>2019-03-08T15:01:36Z</time>
      </trkpt>
      <trkpt lat="44.31158" lon="5.80204">
        <ele>613</ele>
        <time>2019-03-08T15:01:37Z</time>
      </trkpt>
      <trkpt lat="44.31156" lon="5.80209">
        <ele>613</ele>
        <time>2019-03-08T15:01:38Z</time>
      </trkpt>
      <trkpt lat="44.31154" lon="5.80215">
        <ele>613</ele>
        <time>2019-03-08T15:01:39Z</time>
      </trkpt>
      <trkpt lat="44.31152" lon="5.80221">
        <ele>614</ele>
        <time>2019-03-08T15:01:40Z</time>
      </trkpt>
      <trkpt lat="44.31149" lon="5.80225">
        <ele>614</ele>
        <time>2019-03-08T15:01:41Z</time>
      </trkpt>
      <trkpt lat="44.31147" lon="5.8023">
        <ele>614</ele>
        <time>2019-03-08T15:01:42Z</time>
      </trkpt>
      <trkpt lat="44.31145" lon="5.80234">
        <ele>614</ele>
        <time>2019-03-08T15:01:43Z</time>
      </trkpt>
      <trkpt lat="44.31142" lon="5.80238">
        <ele>615</ele>
        <time>2019-03-08T15:01:44Z</time>
      </trkpt>
      <trkpt lat="44.3114" lon="5.80243">
        <ele>615</ele>
        <time>2019-03-08T15:01:45Z</time>
      </trkpt>
      <trkpt lat="44.31138" lon="5.80248">
        <ele>615</ele>
        <time>2019-03-08T15:01:46Z</time>
      </trkpt>
      <trkpt lat="44.31136" lon="5.80252">
        <ele>615</ele>
        <time>2019-03-08T15:01:47Z</time>
      </trkpt>
      <trkpt lat="44.31134" lon="5.80257">
        <ele>615</ele>
        <time>2019-03-08T15:01:48Z</time>
      </trkpt>
      <trkpt lat="44.31131" lon="5.80262">
        <ele>615</ele>
        <time>2019-03-08T15:01:49Z</time>
      </trkpt>
      <trkpt lat="44.31129" lon="5.80266">
        <ele>615</ele>
        <time>2019-03-08T15:01:50Z</time>
      </trkpt>
      <trkpt lat="44.31127" lon="5.80271">
        <ele>615</ele>
        <time>2019-03-08T15:01:51Z</time>
      </trkpt>
      <trkpt lat="44.31124" lon="5.80277">
        <ele>615</ele>
        <time>2019-03-08T15:01:52Z</time>
      </trkpt>
      <trkpt lat="44.31122" lon="5.80282">
        <ele>615</ele>
        <time>2019-03-08T15:01:53Z</time>
      </trkpt>
      <trkpt lat="44.3112" lon="5.80287">
        <ele>615</ele>
        <time>2019-03-08T15:01:54Z</time>
      </trkpt>
      <trkpt lat="44.31119" lon="5.80293">
        <ele>615</ele>
        <time>2019-03-08T15:01:55Z</time>
      </trkpt>
      <trkpt lat="44.31118" lon="5.80299">
        <ele>615</ele>
        <time>2019-03-08T15:01:56Z</time>
      </trkpt>
      <trkpt lat="44.31116" lon="5.80305">
        <ele>616</ele>
        <time>2019-03-08T15:01:57Z</time>
      </trkpt>
      <trkpt lat="44.31115" lon="5.80311">
        <ele>616</ele>
        <time>2019-03-08T15:01:58Z</time>
      </trkpt>
      <trkpt lat="44.31114" lon="5.80318">
        <ele>616</ele>
        <time>2019-03-08T15:01:59Z</time>
      </trkpt>
      <trkpt lat="44.31114" lon="5.80324">
        <ele>616</ele>
        <time>2019-03-08T15:02:00Z</time>
      </trkpt>
      <trkpt lat="44.31113" lon="5.8033">
        <ele>617</ele>
        <time>2019-03-08T15:02:01Z</time>
      </trkpt>
      <trkpt lat="44.31113" lon="5.80337">
        <ele>617</ele>
        <time>2019-03-08T15:02:02Z</time>
      </trkpt>
      <trkpt lat="44.31113" lon="5.80344">
        <ele>617</ele>
        <time>2019-03-08T15:02:03Z</time>
      </trkpt>
      <trkpt lat="44.31114" lon="5.80351">
        <ele>617</ele>
        <time>2019-03-08T15:02:04Z</time>
      </trkpt>
      <trkpt lat="44.31114" lon="5.80358">
        <ele>617</ele>
        <time>2019-03-08T15:02:05Z</time>
      </trkpt>
      <trkpt lat="44.31115" lon="5.80364">
        <ele>618</ele>
        <time>2019-03-08T15:02:06Z</time>
      </trkpt>
      <trkpt lat="44.31115" lon="5.80371">
        <ele>618</ele>
        <time>2019-03-08T15:02:07Z</time>
      </trkpt>
      <trkpt lat="44.31116" lon="5.80378">
        <ele>618</ele>
        <time>2019-03-08T15:02:08Z</time>
      </trkpt>
      <trkpt lat="44.31116" lon="5.80384">
        <ele>619</ele>
        <time>2019-03-08T15:02:09Z</time>
      </trkpt>
      <trkpt lat="44.31116" lon="5.80391">
        <ele>619</ele>
        <time>2019-03-08T15:02:10Z</time>
      </trkpt>
      <trkpt lat="44.31116" lon="5.80398">
        <ele>619</ele>
        <time>2019-03-08T15:02:11Z</time>
      </trkpt>
      <trkpt lat="44.31117" lon="5.80405">
        <ele>619</ele>
        <time>2019-03-08T15:02:12Z</time>
      </trkpt>
      <trkpt lat="44.31117" lon="5.80412">
        <ele>619</ele>
        <time>2019-03-08T15:02:13Z</time>
      </trkpt>
      <trkpt lat="44.31118" lon="5.80419">
        <ele>620</ele>
        <time>2019-03-08T15:02:14Z</time>
      </trkpt>
      <trkpt lat="44.31118" lon="5.80426">
        <ele>620</ele>
        <time>2019-03-08T15:02:15Z</time>
      </trkpt>
      <trkpt lat="44.31119" lon="5.80433">
        <ele>620</ele>
        <time>2019-03-08T15:02:16Z</time>
      </trkpt>
      <trkpt lat="44.31119" lon="5.80439">
        <ele>620</ele>
        <time>2019-03-08T15:02:17Z</time>
      </trkpt>
      <trkpt lat="44.3112" lon="5.80446">
        <ele>620</ele>
        <time>2019-03-08T15:02:18Z</time>
      </trkpt>
      <trkpt lat="44.3112" lon="5.80453">
        <ele>620</ele>
        <time>2019-03-08T15:02:19Z</time>
      </trkpt>
      <trkpt lat="44.3112" lon="5.80461">
        <ele>620</ele>
        <time>2019-03-08T15:02:20Z</time>
      </trkpt>
      <trkpt lat="44.31119" lon="5.80468">
        <ele>620</ele>
        <time>2019-03-08T15:02:21Z</time>
      </trkpt>
      <trkpt lat="44.31118" lon="5.80475">
        <ele>620</ele>
        <time>2019-03-08T15:02:22Z</time>
      </trkpt>
      <trkpt lat="44.31116" lon="5.80482">
        <ele>620</ele>
        <time>2019-03-08T15:02:23Z</time>
      </trkpt>
      <trkpt lat="44.31114" lon="5.80489">
        <ele>620</ele>
        <time>2019-03-08T15:02:24Z</time>
      </trkpt>
      <trkpt lat="44.31111" lon="5.80496">
        <ele>620</ele>
        <time>2019-03-08T15:02:25Z</time>
      </trkpt>
      <trkpt lat="44.31109" lon="5.80504">
        <ele>620</ele>
        <time>2019-03-08T15:02:26Z</time>
      </trkpt>
      <trkpt lat="44.31107" lon="5.80512">
        <ele>620</ele>
        <time>2019-03-08T15:02:27Z</time>
      </trkpt>
      <trkpt lat="44.31104" lon="5.80521">
        <ele>620</ele>
        <time>2019-03-08T15:02:28Z</time>
      </trkpt>
      <trkpt lat="44.31102" lon="5.8053">
        <ele>620</ele>
        <time>2019-03-08T15:02:29Z</time>
      </trkpt>
      <trkpt lat="44.311" lon="5.80539">
        <ele>620</ele>
        <time>2019-03-08T15:02:30Z</time>
      </trkpt>
      <trkpt lat="44.31098" lon="5.80547">
        <ele>620</ele>
        <time>2019-03-08T15:02:31Z</time>
      </trkpt>
      <trkpt lat="44.31096" lon="5.80556">
        <ele>620</ele>
        <time>2019-03-08T15:02:32Z</time>
      </trkpt>
      <trkpt lat="44.31094" lon="5.80564">
        <ele>620</ele>
        <time>2019-03-08T15:02:33Z</time>
      </trkpt>
      <trkpt lat="44.31092" lon="5.80573">
        <ele>620</ele>
        <time>2019-03-08T15:02:34Z</time>
      </trkpt>
      <trkpt lat="44.31089" lon="5.80581">
        <ele>620</ele>
        <time>2019-03-08T15:02:35Z</time>
      </trkpt>
      <trkpt lat="44.31088" lon="5.80589">
        <ele>620</ele>
        <time>2019-03-08T15:02:36Z</time>
      </trkpt>
      <trkpt lat="44.31086" lon="5.80597">
        <ele>620</ele>
        <time>2019-03-08T15:02:37Z</time>
      </trkpt>
      <trkpt lat="44.31084" lon="5.80605">
        <ele>620</ele>
        <time>2019-03-08T15:02:38Z</time>
      </trkpt>
      <trkpt lat="44.31082" lon="5.80613">
        <ele>620</ele>
        <time>2019-03-08T15:02:39Z</time>
      </trkpt>
      <trkpt lat="44.3108" lon="5.8062">
        <ele>620</ele>
        <time>2019-03-08T15:02:40Z</time>
      </trkpt>
      <trkpt lat="44.31078" lon="5.80627">
        <ele>621</ele>
        <time>2019-03-08T15:02:41Z</time>
      </trkpt>
      <trkpt lat="44.31076" lon="5.80634">
        <ele>621</ele>
        <time>2019-03-08T15:02:42Z</time>
      </trkpt>
      <trkpt lat="44.31074" lon="5.80642">
        <ele>621</ele>
        <time>2019-03-08T15:02:43Z</time>
      </trkpt>
      <trkpt lat="44.31072" lon="5.80649">
        <ele>621</ele>
        <time>2019-03-08T15:02:44Z</time>
      </trkpt>
      <trkpt lat="44.3107" lon="5.80656">
        <ele>622</ele>
        <time>2019-03-08T15:02:45Z</time>
      </trkpt>
      <trkpt lat="44.31068" lon="5.80663">
        <ele>622</ele>
        <time>2019-03-08T15:02:46Z</time>
      </trkpt>
      <trkpt lat="44.31066" lon="5.8067">
        <ele>622</ele>
        <time>2019-03-08T15:02:47Z</time>
      </trkpt>
      <trkpt lat="44.31064" lon="5.80677">
        <ele>622</ele>
        <time>2019-03-08T15:02:48Z</time>
      </trkpt>
      <trkpt lat="44.31062" lon="5.80684">
        <ele>622</ele>
        <time>2019-03-08T15:02:49Z</time>
      </trkpt>
      <trkpt lat="44.3106" lon="5.80692">
        <ele>622</ele>
        <time>2019-03-08T15:02:50Z</time>
      </trkpt>
      <trkpt lat="44.31058" lon="5.807">
        <ele>622</ele>
        <time>2019-03-08T15:02:51Z</time>
      </trkpt>
      <trkpt lat="44.31055" lon="5.80708">
        <ele>622</ele>
        <time>2019-03-08T15:02:52Z</time>
      </trkpt>
      <trkpt lat="44.31053" lon="5.80717">
        <ele>622</ele>
        <time>2019-03-08T15:02:53Z</time>
      </trkpt>
      <trkpt lat="44.31051" lon="5.80726">
        <ele>622</ele>
        <time>2019-03-08T15:02:54Z</time>
      </trkpt>
      <trkpt lat="44.31048" lon="5.80735">
        <ele>622</ele>
        <time>2019-03-08T15:02:55Z</time>
      </trkpt>
      <trkpt lat="44.31045" lon="5.80744">
        <ele>622</ele>
        <time>2019-03-08T15:02:56Z</time>
      </trkpt>
      <trkpt lat="44.31042" lon="5.80754">
        <ele>622</ele>
        <time>2019-03-08T15:02:57Z</time>
      </trkpt>
      <trkpt lat="44.31038" lon="5.80763">
        <ele>622</ele>
        <time>2019-03-08T15:02:58Z</time>
      </trkpt>
      <trkpt lat="44.31034" lon="5.80772">
        <ele>622</ele>
        <time>2019-03-08T15:02:59Z</time>
      </trkpt>
      <trkpt lat="44.31031" lon="5.80782">
        <ele>622</ele>
        <time>2019-03-08T15:03:00Z</time>
      </trkpt>
      <trkpt lat="44.31026" lon="5.80791">
        <ele>622</ele>
        <time>2019-03-08T15:03:01Z</time>
      </trkpt>
      <trkpt lat="44.31021" lon="5.808">
        <ele>622</ele>
        <time>2019-03-08T15:03:02Z</time>
      </trkpt>
      <trkpt lat="44.31017" lon="5.80809">
        <ele>622</ele>
        <time>2019-03-08T15:03:03Z</time>
      </trkpt>
      <trkpt lat="44.31012" lon="5.8082">
        <ele>622</ele>
        <time>2019-03-08T15:03:04Z</time>
      </trkpt>
      <trkpt lat="44.31009" lon="5.80831">
        <ele>621</ele>
        <time>2019-03-08T15:03:05Z</time>
      </trkpt>
      <trkpt lat="44.31006" lon="5.80843">
        <ele>621</ele>
        <time>2019-03-08T15:03:06Z</time>
      </trkpt>
      <trkpt lat="44.31003" lon="5.80854">
        <ele>621</ele>
        <time>2019-03-08T15:03:07Z</time>
      </trkpt>
      <trkpt lat="44.31002" lon="5.80865">
        <ele>621</ele>
        <time>2019-03-08T15:03:08Z</time>
      </trkpt>
      <trkpt lat="44.31" lon="5.80876">
        <ele>620</ele>
        <time>2019-03-08T15:03:09Z</time>
      </trkpt>
      <trkpt lat="44.30998" lon="5.80887">
        <ele>620</ele>
        <time>2019-03-08T15:03:10Z</time>
      </trkpt>
      <trkpt lat="44.30996" lon="5.80897">
        <ele>619</ele>
        <time>2019-03-08T15:03:11Z</time>
      </trkpt>
      <trkpt lat="44.30993" lon="5.80907">
        <ele>618</ele>
        <time>2019-03-08T15:03:12Z</time>
      </trkpt>
      <trkpt lat="44.3099" lon="5.80918">
        <ele>617</ele>
        <time>2019-03-08T15:03:13Z</time>
      </trkpt>
      <trkpt lat="44.30986" lon="5.80929">
        <ele>616</ele>
        <time>2019-03-08T15:03:14Z</time>
      </trkpt>
      <trkpt lat="44.30982" lon="5.8094">
        <ele>616</ele>
        <time>2019-03-08T15:03:15Z</time>
      </trkpt>
      <trkpt lat="44.30978" lon="5.80951">
        <ele>615</ele>
        <time>2019-03-08T15:03:16Z</time>
      </trkpt>
      <trkpt lat="44.30973" lon="5.80961">
        <ele>615</ele>
        <time>2019-03-08T15:03:17Z</time>
      </trkpt>
      <trkpt lat="44.30967" lon="5.80971">
        <ele>614</ele>
        <time>2019-03-08T15:03:18Z</time>
      </trkpt>
      <trkpt lat="44.3096" lon="5.80981">
        <ele>613</ele>
        <time>2019-03-08T15:03:19Z</time>
      </trkpt>
      <trkpt lat="44.30955" lon="5.80991">
        <ele>613</ele>
        <time>2019-03-08T15:03:20Z</time>
      </trkpt>
      <trkpt lat="44.30949" lon="5.81002">
        <ele>612</ele>
        <time>2019-03-08T15:03:21Z</time>
      </trkpt>
      <trkpt lat="44.30944" lon="5.81012">
        <ele>612</ele>
        <time>2019-03-08T15:03:22Z</time>
      </trkpt>
      <trkpt lat="44.30939" lon="5.81023">
        <ele>612</ele>
        <time>2019-03-08T15:03:23Z</time>
      </trkpt>
      <trkpt lat="44.30935" lon="5.81034">
        <ele>612</ele>
        <time>2019-03-08T15:03:24Z</time>
      </trkpt>
      <trkpt lat="44.30931" lon="5.81045">
        <ele>612</ele>
        <time>2019-03-08T15:03:25Z</time>
      </trkpt>
      <trkpt lat="44.30927" lon="5.81056">
        <ele>612</ele>
        <time>2019-03-08T15:03:26Z</time>
      </trkpt>
      <trkpt lat="44.30924" lon="5.81067">
        <ele>612</ele>
        <time>2019-03-08T15:03:27Z</time>
      </trkpt>
      <trkpt lat="44.30921" lon="5.81078">
        <ele>612</ele>
        <time>2019-03-08T15:03:28Z</time>
      </trkpt>
      <trkpt lat="44.30918" lon="5.81088">
        <ele>612</ele>
        <time>2019-03-08T15:03:29Z</time>
      </trkpt>
      <trkpt lat="44.30915" lon="5.81098">
        <ele>612</ele>
        <time>2019-03-08T15:03:30Z</time>
      </trkpt>
      <trkpt lat="44.30913" lon="5.81108">
        <ele>611</ele>
        <time>2019-03-08T15:03:31Z</time>
      </trkpt>
      <trkpt lat="44.3091" lon="5.81119">
        <ele>611</ele>
        <time>2019-03-08T15:03:32Z</time>
      </trkpt>
      <trkpt lat="44.30908" lon="5.8113">
        <ele>611</ele>
        <time>2019-03-08T15:03:33Z</time>
      </trkpt>
      <trkpt lat="44.30906" lon="5.8114">
        <ele>611</ele>
        <time>2019-03-08T15:03:34Z</time>
      </trkpt>
      <trkpt lat="44.30903" lon="5.81149">
        <ele>611</ele>
        <time>2019-03-08T15:03:35Z</time>
      </trkpt>
      <trkpt lat="44.309" lon="5.81158">
        <ele>611</ele>
        <time>2019-03-08T15:03:36Z</time>
      </trkpt>
      <trkpt lat="44.30897" lon="5.81167">
        <ele>611</ele>
        <time>2019-03-08T15:03:37Z</time>
      </trkpt>
      <trkpt lat="44.30894" lon="5.81176">
        <ele>611</ele>
        <time>2019-03-08T15:03:38Z</time>
      </trkpt>
      <trkpt lat="44.30891" lon="5.81185">
        <ele>611</ele>
        <time>2019-03-08T15:03:39Z</time>
      </trkpt>
      <trkpt lat="44.30889" lon="5.81195">
        <ele>611</ele>
        <time>2019-03-08T15:03:40Z</time>
      </trkpt>
      <trkpt lat="44.30887" lon="5.81205">
        <ele>611</ele>
        <time>2019-03-08T15:03:41Z</time>
      </trkpt>
      <trkpt lat="44.30885" lon="5.81215">
        <ele>611</ele>
        <time>2019-03-08T15:03:42Z</time>
      </trkpt>
      <trkpt lat="44.30882" lon="5.81225">
        <ele>611</ele>
        <time>2019-03-08T15:03:43Z</time>
      </trkpt>
      <trkpt lat="44.3088" lon="5.81234">
        <ele>611</ele>
        <time>2019-03-08T15:03:44Z</time>
      </trkpt>
      <trkpt lat="44.30877" lon="5.81243">
        <ele>611</ele>
        <time>2019-03-08T15:03:45Z</time>
      </trkpt>
      <trkpt lat="44.30874" lon="5.81252">
        <ele>611</ele>
        <time>2019-03-08T15:03:46Z</time>
      </trkpt>
      <trkpt lat="44.30871" lon="5.81261">
        <ele>611</ele>
        <time>2019-03-08T15:03:47Z</time>
      </trkpt>
      <trkpt lat="44.30868" lon="5.81271">
        <ele>611</ele>
        <time>2019-03-08T15:03:48Z</time>
      </trkpt>
      <trkpt lat="44.30866" lon="5.8128">
        <ele>611</ele>
        <time>2019-03-08T15:03:49Z</time>
      </trkpt>
      <trkpt lat="44.30863" lon="5.8129">
        <ele>611</ele>
        <time>2019-03-08T15:03:50Z</time>
      </trkpt>
      <trkpt lat="44.30861" lon="5.813">
        <ele>611</ele>
        <time>2019-03-08T15:03:51Z</time>
      </trkpt>
      <trkpt lat="44.30858" lon="5.81309">
        <ele>611</ele>
        <time>2019-03-08T15:03:52Z</time>
      </trkpt>
      <trkpt lat="44.30855" lon="5.81319">
        <ele>611</ele>
        <time>2019-03-08T15:03:53Z</time>
      </trkpt>
      <trkpt lat="44.30851" lon="5.81328">
        <ele>611</ele>
        <time>2019-03-08T15:03:54Z</time>
      </trkpt>
      <trkpt lat="44.30847" lon="5.81337">
        <ele>611</ele>
        <time>2019-03-08T15:03:55Z</time>
      </trkpt>
      <trkpt lat="44.30844" lon="5.81347">
        <ele>611</ele>
        <time>2019-03-08T15:03:56Z</time>
      </trkpt>
      <trkpt lat="44.30841" lon="5.81357">
        <ele>611</ele>
        <time>2019-03-08T15:03:57Z</time>
      </trkpt>
      <trkpt lat="44.30839" lon="5.81368">
        <ele>611</ele>
        <time>2019-03-08T15:03:58Z</time>
      </trkpt>
      <trkpt lat="44.30838" lon="5.81378">
        <ele>611</ele>
        <time>2019-03-08T15:03:59Z</time>
      </trkpt>
      <trkpt lat="44.30837" lon="5.81389">
        <ele>611</ele>
        <time>2019-03-08T15:04:00Z</time>
      </trkpt>
      <trkpt lat="44.30836" lon="5.814">
        <ele>611</ele>
        <time>2019-03-08T15:04:01Z</time>
      </trkpt>
      <trkpt lat="44.30835" lon="5.81411">
        <ele>610</ele>
        <time>2019-03-08T15:04:02Z</time>
      </trkpt>
      <trkpt lat="44.30834" lon="5.81423">
        <ele>610</ele>
        <time>2019-03-08T15:04:03Z</time>
      </trkpt>
      <trkpt lat="44.30833" lon="5.81434">
        <ele>609</ele>
        <time>2019-03-08T15:04:04Z</time>
      </trkpt>
      <trkpt lat="44.30831" lon="5.81447">
        <ele>609</ele>
        <time>2019-03-08T15:04:05Z</time>
      </trkpt>
      <trkpt lat="44.30828" lon="5.8146">
        <ele>608</ele>
        <time>2019-03-08T15:04:06Z</time>
      </trkpt>
      <trkpt lat="44.30826" lon="5.81473">
        <ele>607</ele>
        <time>2019-03-08T15:04:07Z</time>
      </trkpt>
      <trkpt lat="44.30823" lon="5.81488">
        <ele>606</ele>
        <time>2019-03-08T15:04:08Z</time>
      </trkpt>
      <trkpt lat="44.3082" lon="5.81502">
        <ele>606</ele>
        <time>2019-03-08T15:04:09Z</time>
      </trkpt>
      <trkpt lat="44.30816" lon="5.81516">
        <ele>605</ele>
        <time>2019-03-08T15:04:10Z</time>
      </trkpt>
      <trkpt lat="44.30814" lon="5.81531">
        <ele>604</ele>
        <time>2019-03-08T15:04:11Z</time>
      </trkpt>
      <trkpt lat="44.30811" lon="5.81545">
        <ele>603</ele>
        <time>2019-03-08T15:04:12Z</time>
      </trkpt>
      <trkpt lat="44.30809" lon="5.81559">
        <ele>602</ele>
        <time>2019-03-08T15:04:13Z</time>
      </trkpt>
      <trkpt lat="44.30807" lon="5.81574">
        <ele>601</ele>
        <time>2019-03-08T15:04:14Z</time>
      </trkpt>
      <trkpt lat="44.30804" lon="5.81589">
        <ele>601</ele>
        <time>2019-03-08T15:04:15Z</time>
      </trkpt>
      <trkpt lat="44.30803" lon="5.81605">
        <ele>600</ele>
        <time>2019-03-08T15:04:16Z</time>
      </trkpt>
      <trkpt lat="44.30801" lon="5.81621">
        <ele>599</ele>
        <time>2019-03-08T15:04:17Z</time>
      </trkpt>
      <trkpt lat="44.30798" lon="5.81637">
        <ele>598</ele>
        <time>2019-03-08T15:04:18Z</time>
      </trkpt>
      <trkpt lat="44.30796" lon="5.81654">
        <ele>597</ele>
        <time>2019-03-08T15:04:19Z</time>
      </trkpt>
      <trkpt lat="44.30792" lon="5.8167">
        <ele>596</ele>
        <time>2019-03-08T15:04:20Z</time>
      </trkpt>
      <trkpt lat="44.30788" lon="5.81687">
        <ele>595</ele>
        <time>2019-03-08T15:04:21Z</time>
      </trkpt>
      <trkpt lat="44.30783" lon="5.81703">
        <ele>594</ele>
        <time>2019-03-08T15:04:22Z</time>
      </trkpt>
      <trkpt lat="44.30777" lon="5.81719">
        <ele>593</ele>
        <time>2019-03-08T15:04:23Z</time>
      </trkpt>
      <trkpt lat="44.30772" lon="5.81736">
        <ele>592</ele>
        <time>2019-03-08T15:04:24Z</time>
      </trkpt>
      <trkpt lat="44.30766" lon="5.81753">
        <ele>591</ele>
        <time>2019-03-08T15:04:25Z</time>
      </trkpt>
      <trkpt lat="44.30761" lon="5.8177">
        <ele>590</ele>
        <time>2019-03-08T15:04:26Z</time>
      </trkpt>
      <trkpt lat="44.30755" lon="5.81786">
        <ele>589</ele>
        <time>2019-03-08T15:04:27Z</time>
      </trkpt>
      <trkpt lat="44.3075" lon="5.81803">
        <ele>588</ele>
        <time>2019-03-08T15:04:28Z</time>
      </trkpt>
      <trkpt lat="44.30744" lon="5.8182">
        <ele>587</ele>
        <time>2019-03-08T15:04:29Z</time>
      </trkpt>
      <trkpt lat="44.30739" lon="5.81838">
        <ele>586</ele>
        <time>2019-03-08T15:04:30Z</time>
      </trkpt>
      <trkpt lat="44.30734" lon="5.81855">
        <ele>585</ele>
        <time>2019-03-08T15:04:31Z</time>
      </trkpt>
      <trkpt lat="44.3073" lon="5.81873">
        <ele>584</ele>
        <time>2019-03-08T15:04:32Z</time>
      </trkpt>
      <trkpt lat="44.30726" lon="5.81891">
        <ele>583</ele>
        <time>2019-03-08T15:04:33Z</time>
      </trkpt>
      <trkpt lat="44.30722" lon="5.81909">
        <ele>582</ele>
        <time>2019-03-08T15:04:34Z</time>
      </trkpt>
      <trkpt lat="44.30719" lon="5.81926">
        <ele>581</ele>
        <time>2019-03-08T15:04:35Z</time>
      </trkpt>
      <trkpt lat="44.30716" lon="5.81944">
        <ele>580</ele>
        <time>2019-03-08T15:04:36Z</time>
      </trkpt>
      <trkpt lat="44.30713" lon="5.8196">
        <ele>579</ele>
        <time>2019-03-08T15:04:37Z</time>
      </trkpt>
      <trkpt lat="44.30709" lon="5.81976">
        <ele>578</ele>
        <time>2019-03-08T15:04:38Z</time>
      </trkpt>
      <trkpt lat="44.30706" lon="5.81991">
        <ele>577</ele>
        <time>2019-03-08T15:04:39Z</time>
      </trkpt>
      <trkpt lat="44.30704" lon="5.82006">
        <ele>576</ele>
        <time>2019-03-08T15:04:40Z</time>
      </trkpt>
      <trkpt lat="44.30703" lon="5.82021">
        <ele>575</ele>
        <time>2019-03-08T15:04:41Z</time>
      </trkpt>
      <trkpt lat="44.30703" lon="5.82036">
        <ele>574</ele>
        <time>2019-03-08T15:04:42Z</time>
      </trkpt>
      <trkpt lat="44.30704" lon="5.8205">
        <ele>573</ele>
        <time>2019-03-08T15:04:43Z</time>
      </trkpt>
      <trkpt lat="44.30705" lon="5.82064">
        <ele>572</ele>
        <time>2019-03-08T15:04:44Z</time>
      </trkpt>
      <trkpt lat="44.30708" lon="5.82078">
        <ele>571</ele>
        <time>2019-03-08T15:04:45Z</time>
      </trkpt>
      <trkpt lat="44.3071" lon="5.8209">
        <ele>570</ele>
        <time>2019-03-08T15:04:46Z</time>
      </trkpt>
      <trkpt lat="44.30712" lon="5.82102">
        <ele>569</ele>
        <time>2019-03-08T15:04:47Z</time>
      </trkpt>
      <trkpt lat="44.30714" lon="5.82113">
        <ele>568</ele>
        <time>2019-03-08T15:04:48Z</time>
      </trkpt>
      <trkpt lat="44.30715" lon="5.82126">
        <ele>567</ele>
        <time>2019-03-08T15:04:49Z</time>
      </trkpt>
      <trkpt lat="44.30714" lon="5.82138">
        <ele>566</ele>
        <time>2019-03-08T15:04:50Z</time>
      </trkpt>
      <trkpt lat="44.30713" lon="5.8215">
        <ele>565</ele>
        <time>2019-03-08T15:04:51Z</time>
      </trkpt>
      <trkpt lat="44.3071" lon="5.82163">
        <ele>565</ele>
        <time>2019-03-08T15:04:52Z</time>
      </trkpt>
      <trkpt lat="44.30707" lon="5.82174">
        <ele>564</ele>
        <time>2019-03-08T15:04:53Z</time>
      </trkpt>
      <trkpt lat="44.30703" lon="5.82185">
        <ele>564</ele>
        <time>2019-03-08T15:04:54Z</time>
      </trkpt>
      <trkpt lat="44.30699" lon="5.82194">
        <ele>563</ele>
        <time>2019-03-08T15:04:55Z</time>
      </trkpt>
      <trkpt lat="44.30694" lon="5.82203">
        <ele>563</ele>
        <time>2019-03-08T15:04:56Z</time>
      </trkpt>
      <trkpt lat="44.30689" lon="5.8221">
        <ele>562</ele>
        <time>2019-03-08T15:04:57Z</time>
      </trkpt>
      <trkpt lat="44.30685" lon="5.82216">
        <ele>562</ele>
        <time>2019-03-08T15:04:58Z</time>
      </trkpt>
      <trkpt lat="44.30682" lon="5.82222">
        <ele>562</ele>
        <time>2019-03-08T15:04:59Z</time>
      </trkpt>
      <trkpt lat="44.30681" lon="5.82227">
        <ele>561</ele>
        <time>2019-03-08T15:05:00Z</time>
      </trkpt>
      <trkpt lat="44.30681" lon="5.82231">
        <ele>561</ele>
        <time>2019-03-08T15:05:01Z</time>
      </trkpt>
      <trkpt lat="44.30682" lon="5.82233">
        <ele>561</ele>
        <time>2019-03-08T15:05:02Z</time>
      </trkpt>
      <trkpt lat="44.30683" lon="5.82235">
        <ele>560</ele>
        <time>2019-03-08T15:05:03Z</time>
      </trkpt>
      <trkpt lat="44.30685" lon="5.82236">
        <ele>560</ele>
        <time>2019-03-08T15:05:04Z</time>
      </trkpt>
      <trkpt lat="44.30687" lon="5.82236">
        <ele>559</ele>
        <time>2019-03-08T15:05:05Z</time>
      </trkpt>
      <trkpt lat="44.30691" lon="5.82237">
        <ele>559</ele>
        <time>2019-03-08T15:05:06Z</time>
      </trkpt>
      <trkpt lat="44.30694" lon="5.82237">
        <ele>559</ele>
        <time>2019-03-08T15:05:07Z</time>
      </trkpt>
      <trkpt lat="44.30698" lon="5.82234">
        <ele>558</ele>
        <time>2019-03-08T15:05:08Z</time>
      </trkpt>
      <trkpt lat="44.30701" lon="5.82231">
        <ele>558</ele>
        <time>2019-03-08T15:05:09Z</time>
      </trkpt>
      <trkpt lat="44.30704" lon="5.82227">
        <ele>558</ele>
        <time>2019-03-08T15:05:10Z</time>
      </trkpt>
      <trkpt lat="44.30707" lon="5.82223">
        <ele>558</ele>
        <time>2019-03-08T15:05:11Z</time>
      </trkpt>
      <trkpt lat="44.30709" lon="5.82218">
        <ele>558</ele>
        <time>2019-03-08T15:05:12Z</time>
      </trkpt>
      <trkpt lat="44.30711" lon="5.82213">
        <ele>558</ele>
        <time>2019-03-08T15:05:13Z</time>
      </trkpt>
      <trkpt lat="44.30714" lon="5.82208">
        <ele>558</ele>
        <time>2019-03-08T15:05:14Z</time>
      </trkpt>
      <trkpt lat="44.30716" lon="5.82203">
        <ele>557</ele>
        <time>2019-03-08T15:05:15Z</time>
      </trkpt>
      <trkpt lat="44.30719" lon="5.82198">
        <ele>557</ele>
        <time>2019-03-08T15:05:16Z</time>
      </trkpt>
      <trkpt lat="44.30721" lon="5.82193">
        <ele>557</ele>
        <time>2019-03-08T15:05:17Z</time>
      </trkpt>
      <trkpt lat="44.30723" lon="5.82187">
        <ele>557</ele>
        <time>2019-03-08T15:05:18Z</time>
      </trkpt>
      <trkpt lat="44.30725" lon="5.82181">
        <ele>557</ele>
        <time>2019-03-08T15:05:19Z</time>
      </trkpt>
      <trkpt lat="44.30727" lon="5.82174">
        <ele>557</ele>
        <time>2019-03-08T15:05:20Z</time>
      </trkpt>
      <trkpt lat="44.3073" lon="5.82167">
        <ele>557</ele>
        <time>2019-03-08T15:05:21Z</time>
      </trkpt>
      <trkpt lat="44.30732" lon="5.82159">
        <ele>557</ele>
        <time>2019-03-08T15:05:22Z</time>
      </trkpt>
      <trkpt lat="44.30734" lon="5.82152">
        <ele>557</ele>
        <time>2019-03-08T15:05:23Z</time>
      </trkpt>
      <trkpt lat="44.30736" lon="5.82144">
        <ele>557</ele>
        <time>2019-03-08T15:05:24Z</time>
      </trkpt>
      <trkpt lat="44.30739" lon="5.82137">
        <ele>557</ele>
        <time>2019-03-08T15:05:25Z</time>
      </trkpt>
      <trkpt lat="44.30742" lon="5.82129">
        <ele>557</ele>
        <time>2019-03-08T15:05:26Z</time>
      </trkpt>
      <trkpt lat="44.30745" lon="5.82121">
        <ele>557</ele>
        <time>2019-03-08T15:05:27Z</time>
      </trkpt>
      <trkpt lat="44.30748" lon="5.82114">
        <ele>556</ele>
        <time>2019-03-08T15:05:28Z</time>
      </trkpt>
      <trkpt lat="44.30752" lon="5.82107">
        <ele>556</ele>
        <time>2019-03-08T15:05:29Z</time>
      </trkpt>
      <trkpt lat="44.30757" lon="5.821">
        <ele>556</ele>
        <time>2019-03-08T15:05:30Z</time>
      </trkpt>
      <trkpt lat="44.30762" lon="5.82095">
        <ele>556</ele>
        <time>2019-03-08T15:05:31Z</time>
      </trkpt>
      <trkpt lat="44.30768" lon="5.8209">
        <ele>556</ele>
        <time>2019-03-08T15:05:32Z</time>
      </trkpt>
      <trkpt lat="44.30774" lon="5.82086">
        <ele>556</ele>
        <time>2019-03-08T15:05:33Z</time>
      </trkpt>
      <trkpt lat="44.3078" lon="5.82082">
        <ele>556</ele>
        <time>2019-03-08T15:05:34Z</time>
      </trkpt>
      <trkpt lat="44.30786" lon="5.82079">
        <ele>556</ele>
        <time>2019-03-08T15:05:35Z</time>
      </trkpt>
      <trkpt lat="44.30792" lon="5.82077">
        <ele>556</ele>
        <time>2019-03-08T15:05:36Z</time>
      </trkpt>
      <trkpt lat="44.30798" lon="5.82075">
        <ele>556</ele>
        <time>2019-03-08T15:05:37Z</time>
      </trkpt>
      <trkpt lat="44.30805" lon="5.82073">
        <ele>556</ele>
        <time>2019-03-08T15:05:38Z</time>
      </trkpt>
      <trkpt lat="44.30811" lon="5.82072">
        <ele>556</ele>
        <time>2019-03-08T15:05:39Z</time>
      </trkpt>
      <trkpt lat="44.30817" lon="5.8207">
        <ele>556</ele>
        <time>2019-03-08T15:05:40Z</time>
      </trkpt>
      <trkpt lat="44.30824" lon="5.82069">
        <ele>556</ele>
        <time>2019-03-08T15:05:41Z</time>
      </trkpt>
      <trkpt lat="44.3083" lon="5.82067">
        <ele>556</ele>
        <time>2019-03-08T15:05:42Z</time>
      </trkpt>
      <trkpt lat="44.30836" lon="5.82066">
        <ele>556</ele>
        <time>2019-03-08T15:05:43Z</time>
      </trkpt>
      <trkpt lat="44.30843" lon="5.82064">
        <ele>556</ele>
        <time>2019-03-08T15:05:44Z</time>
      </trkpt>
      <trkpt lat="44.30849" lon="5.82062">
        <ele>556</ele>
        <time>2019-03-08T15:05:45Z</time>
      </trkpt>
      <trkpt lat="44.30856" lon="5.8206">
        <ele>556</ele>
        <time>2019-03-08T15:05:46Z</time>
      </trkpt>
      <trkpt lat="44.30863" lon="5.82058">
        <ele>556</ele>
        <time>2019-03-08T15:05:47Z</time>
      </trkpt>
      <trkpt lat="44.3087" lon="5.82055">
        <ele>556</ele>
        <time>2019-03-08T15:05:48Z</time>
      </trkpt>
      <trkpt lat="44.30877" lon="5.82053">
        <ele>556</ele>
        <time>2019-03-08T15:05:49Z</time>
      </trkpt>
      <trkpt lat="44.30883" lon="5.8205">
        <ele>556</ele>
        <time>2019-03-08T15:05:50Z</time>
      </trkpt>
      <trkpt lat="44.30891" lon="5.82047">
        <ele>556</ele>
        <time>2019-03-08T15:05:51Z</time>
      </trkpt>
      <trkpt lat="44.30898" lon="5.82045">
        <ele>556</ele>
        <time>2019-03-08T15:05:52Z</time>
      </trkpt>
      <trkpt lat="44.30905" lon="5.82042">
        <ele>556</ele>
        <time>2019-03-08T15:05:53Z</time>
      </trkpt>
      <trkpt lat="44.30912" lon="5.82041">
        <ele>556</ele>
        <time>2019-03-08T15:05:54Z</time>
      </trkpt>
      <trkpt lat="44.3092" lon="5.8204">
        <ele>556</ele>
        <time>2019-03-08T15:05:55Z</time>
      </trkpt>
      <trkpt lat="44.30928" lon="5.8204">
        <ele>555</ele>
        <time>2019-03-08T15:05:56Z</time>
      </trkpt>
      <trkpt lat="44.30936" lon="5.82041">
        <ele>555</ele>
        <time>2019-03-08T15:05:57Z</time>
      </trkpt>
      <trkpt lat="44.30943" lon="5.82043">
        <ele>555</ele>
        <time>2019-03-08T15:05:58Z</time>
      </trkpt>
      <trkpt lat="44.30951" lon="5.82046">
        <ele>555</ele>
        <time>2019-03-08T15:05:59Z</time>
      </trkpt>
      <trkpt lat="44.30958" lon="5.82049">
        <ele>555</ele>
        <time>2019-03-08T15:06:00Z</time>
      </trkpt>
      <trkpt lat="44.30965" lon="5.82054">
        <ele>555</ele>
        <time>2019-03-08T15:06:01Z</time>
      </trkpt>
      <trkpt lat="44.30971" lon="5.82058">
        <ele>555</ele>
        <time>2019-03-08T15:06:02Z</time>
      </trkpt>
      <trkpt lat="44.30978" lon="5.82063">
        <ele>555</ele>
        <time>2019-03-08T15:06:03Z</time>
      </trkpt>
      <trkpt lat="44.30984" lon="5.82068">
        <ele>555</ele>
        <time>2019-03-08T15:06:04Z</time>
      </trkpt>
      <trkpt lat="44.3099" lon="5.82073">
        <ele>555</ele>
        <time>2019-03-08T15:06:05Z</time>
      </trkpt>
      <trkpt lat="44.30996" lon="5.82079">
        <ele>555</ele>
        <time>2019-03-08T15:06:06Z</time>
      </trkpt>
      <trkpt lat="44.31001" lon="5.82085">
        <ele>555</ele>
        <time>2019-03-08T15:06:07Z</time>
      </trkpt>
      <trkpt lat="44.31006" lon="5.82092">
        <ele>555</ele>
        <time>2019-03-08T15:06:08Z</time>
      </trkpt>
      <trkpt lat="44.31011" lon="5.82098">
        <ele>555</ele>
        <time>2019-03-08T15:06:09Z</time>
      </trkpt>
      <trkpt lat="44.31016" lon="5.82104">
        <ele>555</ele>
        <time>2019-03-08T15:06:10Z</time>
      </trkpt>
      <trkpt lat="44.31021" lon="5.8211">
        <ele>555</ele>
        <time>2019-03-08T15:06:11Z</time>
      </trkpt>
      <trkpt lat="44.31026" lon="5.82116">
        <ele>555</ele>
        <time>2019-03-08T15:06:12Z</time>
      </trkpt>
      <trkpt lat="44.3103" lon="5.82122">
        <ele>555</ele>
        <time>2019-03-08T15:06:13Z</time>
      </trkpt>
      <trkpt lat="44.31034" lon="5.82128">
        <ele>555</ele>
        <time>2019-03-08T15:06:14Z</time>
      </trkpt>
      <trkpt lat="44.31039" lon="5.82133">
        <ele>555</ele>
        <time>2019-03-08T15:06:15Z</time>
      </trkpt>
      <trkpt lat="44.31043" lon="5.82139">
        <ele>555</ele>
        <time>2019-03-08T15:06:16Z</time>
      </trkpt>
      <trkpt lat="44.31047" lon="5.82144">
        <ele>555</ele>
        <time>2019-03-08T15:06:17Z</time>
      </trkpt>
      <trkpt lat="44.31052" lon="5.8215">
        <ele>555</ele>
        <time>2019-03-08T15:06:18Z</time>
      </trkpt>
      <trkpt lat="44.31056" lon="5.82155">
        <ele>555</ele>
        <time>2019-03-08T15:06:19Z</time>
      </trkpt>
      <trkpt lat="44.31059" lon="5.8216">
        <ele>555</ele>
        <time>2019-03-08T15:06:20Z</time>
      </trkpt>
      <trkpt lat="44.31063" lon="5.82165">
        <ele>555</ele>
        <time>2019-03-08T15:06:21Z</time>
      </trkpt>
      <trkpt lat="44.31067" lon="5.8217">
        <ele>555</ele>
        <time>2019-03-08T15:06:22Z</time>
      </trkpt>
      <trkpt lat="44.3107" lon="5.82175">
        <ele>555</ele>
        <time>2019-03-08T15:06:23Z</time>
      </trkpt>
      <trkpt lat="44.31074" lon="5.82179">
        <ele>555</ele>
        <time>2019-03-08T15:06:24Z</time>
      </trkpt>
      <trkpt lat="44.31077" lon="5.82184">
        <ele>555</ele>
        <time>2019-03-08T15:06:25Z</time>
      </trkpt>
      <trkpt lat="44.31081" lon="5.8219">
        <ele>555</ele>
        <time>2019-03-08T15:06:26Z</time>
      </trkpt>
      <trkpt lat="44.31086" lon="5.82195">
        <ele>555</ele>
        <time>2019-03-08T15:06:27Z</time>
      </trkpt>
      <trkpt lat="44.3109" lon="5.822">
        <ele>555</ele>
        <time>2019-03-08T15:06:28Z</time>
      </trkpt>
      <trkpt lat="44.31095" lon="5.82205">
        <ele>555</ele>
        <time>2019-03-08T15:06:29Z</time>
      </trkpt>
      <trkpt lat="44.31099" lon="5.8221">
        <ele>555</ele>
        <time>2019-03-08T15:06:30Z</time>
      </trkpt>
      <trkpt lat="44.31103" lon="5.82216">
        <ele>555</ele>
        <time>2019-03-08T15:06:31Z</time>
      </trkpt>
      <trkpt lat="44.31107" lon="5.82221">
        <ele>555</ele>
        <time>2019-03-08T15:06:32Z</time>
      </trkpt>
      <trkpt lat="44.3111" lon="5.82227">
        <ele>555</ele>
        <time>2019-03-08T15:06:33Z</time>
      </trkpt>
      <trkpt lat="44.31114" lon="5.82232">
        <ele>555</ele>
        <time>2019-03-08T15:06:34Z</time>
      </trkpt>
      <trkpt lat="44.31118" lon="5.82236">
        <ele>555</ele>
        <time>2019-03-08T15:06:35Z</time>
      </trkpt>
      <trkpt lat="44.31121" lon="5.82241">
        <ele>555</ele>
        <time>2019-03-08T15:06:36Z</time>
      </trkpt>
      <trkpt lat="44.31125" lon="5.82245">
        <ele>555</ele>
        <time>2019-03-08T15:06:37Z</time>
      </trkpt>
      <trkpt lat="44.31128" lon="5.82249">
        <ele>555</ele>
        <time>2019-03-08T15:06:38Z</time>
      </trkpt>
      <trkpt lat="44.31131" lon="5.82253">
        <ele>555</ele>
        <time>2019-03-08T15:06:39Z</time>
      </trkpt>
      <trkpt lat="44.31135" lon="5.82257">
        <ele>555</ele>
        <time>2019-03-08T15:06:40Z</time>
      </trkpt>
      <trkpt lat="44.31138" lon="5.8226">
        <ele>555</ele>
        <time>2019-03-08T15:06:41Z</time>
      </trkpt>
      <trkpt lat="44.31141" lon="5.82264">
        <ele>555</ele>
        <time>2019-03-08T15:06:42Z</time>
      </trkpt>
      <trkpt lat="44.31144" lon="5.82268">
        <ele>555</ele>
        <time>2019-03-08T15:06:43Z</time>
      </trkpt>
      <trkpt lat="44.31147" lon="5.82272">
        <ele>555</ele>
        <time>2019-03-08T15:06:44Z</time>
      </trkpt>
      <trkpt lat="44.31149" lon="5.82276">
        <ele>555</ele>
        <time>2019-03-08T15:06:45Z</time>
      </trkpt>
      <trkpt lat="44.31151" lon="5.82281">
        <ele>555</ele>
        <time>2019-03-08T15:06:46Z</time>
      </trkpt>
      <trkpt lat="44.31152" lon="5.82286">
        <ele>555</ele>
        <time>2019-03-08T15:06:47Z</time>
      </trkpt>
      <trkpt lat="44.31152" lon="5.82292">
        <ele>555</ele>
        <time>2019-03-08T15:06:48Z</time>
      </trkpt>
      <trkpt lat="44.31151" lon="5.82298">
        <ele>555</ele>
        <time>2019-03-08T15:06:49Z</time>
      </trkpt>
      <trkpt lat="44.31149" lon="5.82303">
        <ele>555</ele>
        <time>2019-03-08T15:06:50Z</time>
      </trkpt>
      <trkpt lat="44.31145" lon="5.82308">
        <ele>555</ele>
        <time>2019-03-08T15:06:51Z</time>
      </trkpt>
      <trkpt lat="44.31142" lon="5.82313">
        <ele>555</ele>
        <time>2019-03-08T15:06:52Z</time>
      </trkpt>
      <trkpt lat="44.31138" lon="5.82317">
        <ele>555</ele>
        <time>2019-03-08T15:06:53Z</time>
      </trkpt>
      <trkpt lat="44.31134" lon="5.82322">
        <ele>555</ele>
        <time>2019-03-08T15:06:54Z</time>
      </trkpt>
      <trkpt lat="44.31131" lon="5.82327">
        <ele>555</ele>
        <time>2019-03-08T15:06:55Z</time>
      </trkpt>
      <trkpt lat="44.31127" lon="5.82332">
        <ele>555</ele>
        <time>2019-03-08T15:06:56Z</time>
      </trkpt>
      <trkpt lat="44.31123" lon="5.82337">
        <ele>555</ele>
        <time>2019-03-08T15:06:57Z</time>
      </trkpt>
      <trkpt lat="44.31119" lon="5.82343">
        <ele>555</ele>
        <time>2019-03-08T15:06:58Z</time>
      </trkpt>
      <trkpt lat="44.31116" lon="5.82349">
        <ele>555</ele>
        <time>2019-03-08T15:06:59Z</time>
      </trkpt>
      <trkpt lat="44.31113" lon="5.82355">
        <ele>555</ele>
        <time>2019-03-08T15:07:00Z</time>
      </trkpt>
      <trkpt lat="44.3111" lon="5.82361">
        <ele>555</ele>
        <time>2019-03-08T15:07:01Z</time>
      </trkpt>
      <trkpt lat="44.31108" lon="5.82368">
        <ele>555</ele>
        <time>2019-03-08T15:07:02Z</time>
      </trkpt>
      <trkpt lat="44.31107" lon="5.82376">
        <ele>555</ele>
        <time>2019-03-08T15:07:03Z</time>
      </trkpt>
      <trkpt lat="44.31106" lon="5.82384">
        <ele>555</ele>
        <time>2019-03-08T15:07:04Z</time>
      </trkpt>
      <trkpt lat="44.31106" lon="5.82391">
        <ele>555</ele>
        <time>2019-03-08T15:07:05Z</time>
      </trkpt>
      <trkpt lat="44.31107" lon="5.82398">
        <ele>555</ele>
        <time>2019-03-08T15:07:06Z</time>
      </trkpt>
      <trkpt lat="44.31106" lon="5.82406">
        <ele>555</ele>
        <time>2019-03-08T15:07:07Z</time>
      </trkpt>
      <trkpt lat="44.31104" lon="5.82413">
        <ele>555</ele>
        <time>2019-03-08T15:07:08Z</time>
      </trkpt>
      <trkpt lat="44.31102" lon="5.82419">
        <ele>555</ele>
        <time>2019-03-08T15:07:09Z</time>
      </trkpt>
      <trkpt lat="44.31099" lon="5.82424">
        <ele>555</ele>
        <time>2019-03-08T15:07:10Z</time>
      </trkpt>
      <trkpt lat="44.31097" lon="5.8243">
        <ele>555</ele>
        <time>2019-03-08T15:07:11Z</time>
      </trkpt>
      <trkpt lat="44.31094" lon="5.82435">
        <ele>556</ele>
        <time>2019-03-08T15:07:12Z</time>
      </trkpt>
      <trkpt lat="44.31092" lon="5.82441">
        <ele>556</ele>
        <time>2019-03-08T15:07:13Z</time>
      </trkpt>
      <trkpt lat="44.3109" lon="5.82445">
        <ele>556</ele>
        <time>2019-03-08T15:07:14Z</time>
      </trkpt>
      <trkpt lat="44.31087" lon="5.82451">
        <ele>556</ele>
        <time>2019-03-08T15:07:15Z</time>
      </trkpt>
      <trkpt lat="44.31085" lon="5.82456">
        <ele>556</ele>
        <time>2019-03-08T15:07:16Z</time>
      </trkpt>
      <trkpt lat="44.31083" lon="5.82463">
        <ele>556</ele>
        <time>2019-03-08T15:07:17Z</time>
      </trkpt>
      <trkpt lat="44.3108" lon="5.82469">
        <ele>556</ele>
        <time>2019-03-08T15:07:18Z</time>
      </trkpt>
      <trkpt lat="44.31078" lon="5.82475">
        <ele>556</ele>
        <time>2019-03-08T15:07:19Z</time>
      </trkpt>
      <trkpt lat="44.31075" lon="5.82483">
        <ele>556</ele>
        <time>2019-03-08T15:07:20Z</time>
      </trkpt>
      <trkpt lat="44.31074" lon="5.82491">
        <ele>556</ele>
        <time>2019-03-08T15:07:21Z</time>
      </trkpt>
      <trkpt lat="44.31073" lon="5.82499">
        <ele>556</ele>
        <time>2019-03-08T15:07:22Z</time>
      </trkpt>
      <trkpt lat="44.31074" lon="5.82506">
        <ele>556</ele>
        <time>2019-03-08T15:07:23Z</time>
      </trkpt>
      <trkpt lat="44.31075" lon="5.82514">
        <ele>556</ele>
        <time>2019-03-08T15:07:24Z</time>
      </trkpt>
      <trkpt lat="44.31078" lon="5.82521">
        <ele>556</ele>
        <time>2019-03-08T15:07:25Z</time>
      </trkpt>
      <trkpt lat="44.31083" lon="5.82527">
        <ele>556</ele>
        <time>2019-03-08T15:07:26Z</time>
      </trkpt>
      <trkpt lat="44.31087" lon="5.82532">
        <ele>556</ele>
        <time>2019-03-08T15:07:27Z</time>
      </trkpt>
      <trkpt lat="44.31092" lon="5.82536">
        <ele>556</ele>
        <time>2019-03-08T15:07:28Z</time>
      </trkpt>
      <trkpt lat="44.31097" lon="5.8254">
        <ele>556</ele>
        <time>2019-03-08T15:07:29Z</time>
      </trkpt>
      <trkpt lat="44.31103" lon="5.82544">
        <ele>556</ele>
        <time>2019-03-08T15:07:30Z</time>
      </trkpt>
      <trkpt lat="44.31108" lon="5.82547">
        <ele>556</ele>
        <time>2019-03-08T15:07:31Z</time>
      </trkpt>
      <trkpt lat="44.31114" lon="5.82549">
        <ele>556</ele>
        <time>2019-03-08T15:07:32Z</time>
      </trkpt>
      <trkpt lat="44.3112" lon="5.82552">
        <ele>556</ele>
        <time>2019-03-08T15:07:33Z</time>
      </trkpt>
      <trkpt lat="44.31125" lon="5.82555">
        <ele>556</ele>
        <time>2019-03-08T15:07:34Z</time>
      </trkpt>
      <trkpt lat="44.3113" lon="5.82558">
        <ele>556</ele>
        <time>2019-03-08T15:07:35Z</time>
      </trkpt>
      <trkpt lat="44.31135" lon="5.82561">
        <ele>556</ele>
        <time>2019-03-08T15:07:36Z</time>
      </trkpt>
      <trkpt lat="44.31141" lon="5.82563">
        <ele>556</ele>
        <time>2019-03-08T15:07:37Z</time>
      </trkpt>
      <trkpt lat="44.31146" lon="5.82566">
        <ele>556</ele>
        <time>2019-03-08T15:07:38Z</time>
      </trkpt>
      <trkpt lat="44.31151" lon="5.82568">
        <ele>556</ele>
        <time>2019-03-08T15:07:39Z</time>
      </trkpt>
      <trkpt lat="44.31156" lon="5.82571">
        <ele>556</ele>
        <time>2019-03-08T15:07:40Z</time>
      </trkpt>
      <trkpt lat="44.31161" lon="5.82574">
        <ele>556</ele>
        <time>2019-03-08T15:07:41Z</time>
      </trkpt>
      <trkpt lat="44.31167" lon="5.82577">
        <ele>556</ele>
        <time>2019-03-08T15:07:42Z</time>
      </trkpt>
      <trkpt lat="44.31172" lon="5.82581">
        <ele>556</ele>
        <time>2019-03-08T15:07:43Z</time>
      </trkpt>
      <trkpt lat="44.31178" lon="5.82583">
        <ele>556</ele>
        <time>2019-03-08T15:07:44Z</time>
      </trkpt>
      <trkpt lat="44.31183" lon="5.82585">
        <ele>556</ele>
        <time>2019-03-08T15:07:45Z</time>
      </trkpt>
      <trkpt lat="44.31188" lon="5.82588">
        <ele>556</ele>
        <time>2019-03-08T15:07:46Z</time>
      </trkpt>
      <trkpt lat="44.31193" lon="5.82591">
        <ele>556</ele>
        <time>2019-03-08T15:07:47Z</time>
      </trkpt>
      <trkpt lat="44.31199" lon="5.82594">
        <ele>556</ele>
        <time>2019-03-08T15:07:48Z</time>
      </trkpt>
      <trkpt lat="44.31204" lon="5.82597">
        <ele>556</ele>
        <time>2019-03-08T15:07:49Z</time>
      </trkpt>
      <trkpt lat="44.31209" lon="5.826">
        <ele>556</ele>
        <time>2019-03-08T15:07:50Z</time>
      </trkpt>
      <trkpt lat="44.31214" lon="5.82603">
        <ele>556</ele>
        <time>2019-03-08T15:07:51Z</time>
      </trkpt>
      <trkpt lat="44.31219" lon="5.82605">
        <ele>556</ele>
        <time>2019-03-08T15:07:52Z</time>
      </trkpt>
      <trkpt lat="44.31224" lon="5.82608">
        <ele>556</ele>
        <time>2019-03-08T15:07:53Z</time>
      </trkpt>
      <trkpt lat="44.31228" lon="5.8261">
        <ele>556</ele>
        <time>2019-03-08T15:07:54Z</time>
      </trkpt>
      <trkpt lat="44.31233" lon="5.82613">
        <ele>556</ele>
        <time>2019-03-08T15:07:55Z</time>
      </trkpt>
      <trkpt lat="44.31237" lon="5.82615">
        <ele>556</ele>
        <time>2019-03-08T15:07:56Z</time>
      </trkpt>
      <trkpt lat="44.31242" lon="5.82618">
        <ele>556</ele>
        <time>2019-03-08T15:07:57Z</time>
      </trkpt>
      <trkpt lat="44.31246" lon="5.8262">
        <ele>556</ele>
        <time>2019-03-08T15:07:58Z</time>
      </trkpt>
      <trkpt lat="44.31251" lon="5.82622">
        <ele>556</ele>
        <time>2019-03-08T15:07:59Z</time>
      </trkpt>
      <trkpt lat="44.31255" lon="5.82625">
        <ele>556</ele>
        <time>2019-03-08T15:08:00Z</time>
      </trkpt>
      <trkpt lat="44.3126" lon="5.82627">
        <ele>556</ele>
        <time>2019-03-08T15:08:01Z</time>
      </trkpt>
      <trkpt lat="44.31264" lon="5.8263">
        <ele>556</ele>
        <time>2019-03-08T15:08:02Z</time>
      </trkpt>
      <trkpt lat="44.31268" lon="5.82632">
        <ele>557</ele>
        <time>2019-03-08T15:08:03Z</time>
      </trkpt>
      <trkpt lat="44.31273" lon="5.82634">
        <ele>557</ele>
        <time>2019-03-08T15:08:04Z</time>
      </trkpt>
      <trkpt lat="44.31277" lon="5.82636">
        <ele>558</ele>
        <time>2019-03-08T15:08:05Z</time>
      </trkpt>
      <trkpt lat="44.31281" lon="5.82638">
        <ele>558</ele>
        <time>2019-03-08T15:08:06Z</time>
      </trkpt>
      <trkpt lat="44.31284" lon="5.82641">
        <ele>559</ele>
        <time>2019-03-08T15:08:07Z</time>
      </trkpt>
      <trkpt lat="44.31287" lon="5.82643">
        <ele>559</ele>
        <time>2019-03-08T15:08:08Z</time>
      </trkpt>
      <trkpt lat="44.31291" lon="5.82645">
        <ele>559</ele>
        <time>2019-03-08T15:08:09Z</time>
      </trkpt>
      <trkpt lat="44.31294" lon="5.82647">
        <ele>559</ele>
        <time>2019-03-08T15:08:10Z</time>
      </trkpt>
      <trkpt lat="44.31297" lon="5.82649">
        <ele>559</ele>
        <time>2019-03-08T15:08:11Z</time>
      </trkpt>
      <trkpt lat="44.313" lon="5.82651">
        <ele>559</ele>
        <time>2019-03-08T15:08:12Z</time>
      </trkpt>
      <trkpt lat="44.31302" lon="5.82653">
        <ele>560</ele>
        <time>2019-03-08T15:08:13Z</time>
      </trkpt>
      <trkpt lat="44.31305" lon="5.82655">
        <ele>560</ele>
        <time>2019-03-08T15:08:14Z</time>
      </trkpt>
      <trkpt lat="44.31308" lon="5.82656">
        <ele>560</ele>
        <time>2019-03-08T15:08:15Z</time>
      </trkpt>
      <trkpt lat="44.3131" lon="5.82658">
        <ele>560</ele>
        <time>2019-03-08T15:08:16Z</time>
      </trkpt>
      <trkpt lat="44.31313" lon="5.8266">
        <ele>560</ele>
        <time>2019-03-08T15:08:17Z</time>
      </trkpt>
      <trkpt lat="44.31316" lon="5.82662">
        <ele>561</ele>
        <time>2019-03-08T15:08:18Z</time>
      </trkpt>
      <trkpt lat="44.31318" lon="5.82663">
        <ele>561</ele>
        <time>2019-03-08T15:08:19Z</time>
      </trkpt>
      <trkpt lat="44.3132" lon="5.82665">
        <ele>561</ele>
        <time>2019-03-08T15:08:20Z</time>
      </trkpt>
      <trkpt lat="44.31322" lon="5.82666">
        <ele>561</ele>
        <time>2019-03-08T15:08:21Z</time>
      </trkpt>
      <trkpt lat="44.31324" lon="5.82667">
        <ele>561</ele>
        <time>2019-03-08T15:08:22Z</time>
      </trkpt>
      <trkpt lat="44.31326" lon="5.82669">
        <ele>561</ele>
        <time>2019-03-08T15:08:23Z</time>
      </trkpt>
      <trkpt lat="44.31327" lon="5.8267">
        <ele>561</ele>
        <time>2019-03-08T15:08:24Z</time>
      </trkpt>
      <trkpt lat="44.31328" lon="5.82671">
        <ele>561</ele>
        <time>2019-03-08T15:08:25Z</time>
      </trkpt>
      <trkpt lat="44.3133" lon="5.82672">
        <ele>561</ele>
        <time>2019-03-08T15:08:27Z</time>
      </trkpt>
      <trkpt lat="44.31331" lon="5.82673">
        <ele>561</ele>
        <time>2019-03-08T15:08:28Z</time>
      </trkpt>
      <trkpt lat="44.31332" lon="5.82674">
        <ele>561</ele>
        <time>2019-03-08T15:08:29Z</time>
      </trkpt>
      <trkpt lat="44.31334" lon="5.82674">
        <ele>561</ele>
        <time>2019-03-08T15:08:31Z</time>
      </trkpt>
      <trkpt lat="44.31335" lon="5.82675">
        <ele>561</ele>
        <time>2019-03-08T15:08:36Z</time>
      </trkpt>
      <trkpt lat="44.31336" lon="5.82676">
        <ele>563</ele>
        <time>2019-03-08T15:08:59Z</time>
      </trkpt>
      <trkpt lat="44.31335" lon="5.82675">
        <ele>564</ele>
        <time>2019-03-08T15:10:19Z</time>
      </trkpt>
      <trkpt lat="44.31333" lon="5.82675">
        <ele>564</ele>
        <time>2019-03-08T15:10:24Z</time>
      </trkpt>
      <trkpt lat="44.31334" lon="5.82674">
        <ele>563</ele>
        <time>2019-03-08T15:10:33Z</time>
      </trkpt>
      <trkpt lat="44.31335" lon="5.82676">
        <ele>563</ele>
        <time>2019-03-08T15:10:45Z</time>
      </trkpt>
      <trkpt lat="44.31337" lon="5.82677">
        <ele>563</ele>
        <time>2019-03-08T15:10:48Z</time>
      </trkpt>
      <trkpt lat="44.31339" lon="5.82678">
        <ele>563</ele>
        <time>2019-03-08T15:10:50Z</time>
      </trkpt>
      <trkpt lat="44.3134" lon="5.82678">
        <ele>563</ele>
        <time>2019-03-08T15:10:51Z</time>
      </trkpt>
      <trkpt lat="44.31342" lon="5.82679">
        <ele>563</ele>
        <time>2019-03-08T15:10:53Z</time>
      </trkpt>
      <trkpt lat="44.31344" lon="5.82679">
        <ele>563</ele>
        <time>2019-03-08T15:10:54Z</time>
      </trkpt>
      <trkpt lat="44.31345" lon="5.8268">
        <ele>563</ele>
        <time>2019-03-08T15:10:55Z</time>
      </trkpt>
      <trkpt lat="44.31347" lon="5.8268">
        <ele>563</ele>
        <time>2019-03-08T15:10:56Z</time>
      </trkpt>
      <trkpt lat="44.31348" lon="5.82681">
        <ele>563</ele>
        <time>2019-03-08T15:10:57Z</time>
      </trkpt>
      <trkpt lat="44.3135" lon="5.82681">
        <ele>563</ele>
        <time>2019-03-08T15:10:58Z</time>
      </trkpt>
      <trkpt lat="44.31351" lon="5.82682">
        <ele>563</ele>
        <time>2019-03-08T15:11:00Z</time>
      </trkpt>
      <trkpt lat="44.31353" lon="5.82683">
        <ele>563</ele>
        <time>2019-03-08T15:11:02Z</time>
      </trkpt>
      <trkpt lat="44.31354" lon="5.82685">
        <ele>563</ele>
        <time>2019-03-08T15:11:04Z</time>
      </trkpt>
      <trkpt lat="44.31355" lon="5.82686">
        <ele>563</ele>
        <time>2019-03-08T15:11:09Z</time>
      </trkpt>
      <trkpt lat="44.31356" lon="5.82688">
        <ele>563</ele>
        <time>2019-03-08T15:11:23Z</time>
      </trkpt>
      <trkpt lat="44.31356" lon="5.82689">
        <ele>563</ele>
        <time>2019-03-08T15:11:24Z</time>
      </trkpt>
      <trkpt lat="44.31357" lon="5.82691">
        <ele>563</ele>
        <time>2019-03-08T15:11:25Z</time>
      </trkpt>
      <trkpt lat="44.31357" lon="5.82694">
        <ele>563</ele>
        <time>2019-03-08T15:11:26Z</time>
      </trkpt>
      <trkpt lat="44.31358" lon="5.82697">
        <ele>563</ele>
        <time>2019-03-08T15:11:27Z</time>
      </trkpt>
      <trkpt lat="44.3136" lon="5.827">
        <ele>563</ele>
        <time>2019-03-08T15:11:28Z</time>
      </trkpt>
      <trkpt lat="44.31362" lon="5.82703">
        <ele>563</ele>
        <time>2019-03-08T15:11:29Z</time>
      </trkpt>
      <trkpt lat="44.31364" lon="5.82706">
        <ele>563</ele>
        <time>2019-03-08T15:11:30Z</time>
      </trkpt>
      <trkpt lat="44.31367" lon="5.82709">
        <ele>563</ele>
        <time>2019-03-08T15:11:31Z</time>
      </trkpt>
      <trkpt lat="44.3137" lon="5.82711">
        <ele>563</ele>
        <time>2019-03-08T15:11:32Z</time>
      </trkpt>
      <trkpt lat="44.31373" lon="5.82715">
        <ele>563</ele>
        <time>2019-03-08T15:11:33Z</time>
      </trkpt>
      <trkpt lat="44.31375" lon="5.82719">
        <ele>563</ele>
        <time>2019-03-08T15:11:34Z</time>
      </trkpt>
      <trkpt lat="44.31376" lon="5.82725">
        <ele>563</ele>
        <time>2019-03-08T15:11:35Z</time>
      </trkpt>
      <trkpt lat="44.31376" lon="5.8273">
        <ele>563</ele>
        <time>2019-03-08T15:11:36Z</time>
      </trkpt>
      <trkpt lat="44.31376" lon="5.82736">
        <ele>563</ele>
        <time>2019-03-08T15:11:37Z</time>
      </trkpt>
      <trkpt lat="44.31376" lon="5.82741">
        <ele>563</ele>
        <time>2019-03-08T15:11:38Z</time>
      </trkpt>
      <trkpt lat="44.31376" lon="5.82747">
        <ele>563</ele>
        <time>2019-03-08T15:11:39Z</time>
      </trkpt>
      <trkpt lat="44.31376" lon="5.82753">
        <ele>563</ele>
        <time>2019-03-08T15:11:40Z</time>
      </trkpt>
      <trkpt lat="44.31377" lon="5.82759">
        <ele>563</ele>
        <time>2019-03-08T15:11:41Z</time>
      </trkpt>
      <trkpt lat="44.31377" lon="5.82765">
        <ele>563</ele>
        <time>2019-03-08T15:11:42Z</time>
      </trkpt>
      <trkpt lat="44.31377" lon="5.82772">
        <ele>563</ele>
        <time>2019-03-08T15:11:43Z</time>
      </trkpt>
      <trkpt lat="44.31377" lon="5.82778">
        <ele>563</ele>
        <time>2019-03-08T15:11:44Z</time>
      </trkpt>
      <trkpt lat="44.31377" lon="5.82784">
        <ele>563</ele>
        <time>2019-03-08T15:11:45Z</time>
      </trkpt>
      <trkpt lat="44.31377" lon="5.82791">
        <ele>563</ele>
        <time>2019-03-08T15:11:46Z</time>
      </trkpt>
      <trkpt lat="44.31377" lon="5.82797">
        <ele>563</ele>
        <time>2019-03-08T15:11:47Z</time>
      </trkpt>
      <trkpt lat="44.31377" lon="5.82803">
        <ele>563</ele>
        <time>2019-03-08T15:11:48Z</time>
      </trkpt>
      <trkpt lat="44.31376" lon="5.82809">
        <ele>563</ele>
        <time>2019-03-08T15:11:49Z</time>
      </trkpt>
      <trkpt lat="44.31375" lon="5.82815">
        <ele>563</ele>
        <time>2019-03-08T15:11:50Z</time>
      </trkpt>
      <trkpt lat="44.31375" lon="5.82821">
        <ele>563</ele>
        <time>2019-03-08T15:11:51Z</time>
      </trkpt>
      <trkpt lat="44.31374" lon="5.82828">
        <ele>563</ele>
        <time>2019-03-08T15:11:52Z</time>
      </trkpt>
      <trkpt lat="44.31373" lon="5.82834">
        <ele>563</ele>
        <time>2019-03-08T15:11:53Z</time>
      </trkpt>
      <trkpt lat="44.31373" lon="5.8284">
        <ele>563</ele>
        <time>2019-03-08T15:11:54Z</time>
      </trkpt>
      <trkpt lat="44.31372" lon="5.82846">
        <ele>563</ele>
        <time>2019-03-08T15:11:55Z</time>
      </trkpt>
      <trkpt lat="44.31372" lon="5.82853">
        <ele>563</ele>
        <time>2019-03-08T15:11:56Z</time>
      </trkpt>
      <trkpt lat="44.31372" lon="5.82859">
        <ele>563</ele>
        <time>2019-03-08T15:11:57Z</time>
      </trkpt>
      <trkpt lat="44.31371" lon="5.82865">
        <ele>563</ele>
        <time>2019-03-08T15:11:58Z</time>
      </trkpt>
      <trkpt lat="44.3137" lon="5.82872">
        <ele>563</ele>
        <time>2019-03-08T15:11:59Z</time>
      </trkpt>
      <trkpt lat="44.31369" lon="5.82878">
        <ele>563</ele>
        <time>2019-03-08T15:12:00Z</time>
      </trkpt>
      <trkpt lat="44.31368" lon="5.82885">
        <ele>563</ele>
        <time>2019-03-08T15:12:01Z</time>
      </trkpt>
      <trkpt lat="44.31368" lon="5.82891">
        <ele>563</ele>
        <time>2019-03-08T15:12:02Z</time>
      </trkpt>
      <trkpt lat="44.31367" lon="5.82898">
        <ele>563</ele>
        <time>2019-03-08T15:12:03Z</time>
      </trkpt>
      <trkpt lat="44.31367" lon="5.82905">
        <ele>563</ele>
        <time>2019-03-08T15:12:04Z</time>
      </trkpt>
      <trkpt lat="44.31366" lon="5.82911">
        <ele>563</ele>
        <time>2019-03-08T15:12:05Z</time>
      </trkpt>
      <trkpt lat="44.31365" lon="5.82918">
        <ele>563</ele>
        <time>2019-03-08T15:12:06Z</time>
      </trkpt>
      <trkpt lat="44.31364" lon="5.82925">
        <ele>563</ele>
        <time>2019-03-08T15:12:07Z</time>
      </trkpt>
      <trkpt lat="44.31363" lon="5.82932">
        <ele>563</ele>
        <time>2019-03-08T15:12:08Z</time>
      </trkpt>
      <trkpt lat="44.31362" lon="5.82938">
        <ele>563</ele>
        <time>2019-03-08T15:12:09Z</time>
      </trkpt>
      <trkpt lat="44.31361" lon="5.82945">
        <ele>563</ele>
        <time>2019-03-08T15:12:10Z</time>
      </trkpt>
      <trkpt lat="44.31361" lon="5.82951">
        <ele>563</ele>
        <time>2019-03-08T15:12:11Z</time>
      </trkpt>
      <trkpt lat="44.3136" lon="5.82958">
        <ele>563</ele>
        <time>2019-03-08T15:12:12Z</time>
      </trkpt>
      <trkpt lat="44.31359" lon="5.82965">
        <ele>563</ele>
        <time>2019-03-08T15:12:13Z</time>
      </trkpt>
      <trkpt lat="44.31358" lon="5.82971">
        <ele>564</ele>
        <time>2019-03-08T15:12:14Z</time>
      </trkpt>
      <trkpt lat="44.31356" lon="5.82977">
        <ele>564</ele>
        <time>2019-03-08T15:12:15Z</time>
      </trkpt>
      <trkpt lat="44.31355" lon="5.82983">
        <ele>564</ele>
        <time>2019-03-08T15:12:16Z</time>
      </trkpt>
      <trkpt lat="44.31354" lon="5.8299">
        <ele>564</ele>
        <time>2019-03-08T15:12:17Z</time>
      </trkpt>
      <trkpt lat="44.31353" lon="5.82996">
        <ele>564</ele>
        <time>2019-03-08T15:12:18Z</time>
      </trkpt>
      <trkpt lat="44.31352" lon="5.83001">
        <ele>564</ele>
        <time>2019-03-08T15:12:19Z</time>
      </trkpt>
      <trkpt lat="44.31352" lon="5.83007">
        <ele>564</ele>
        <time>2019-03-08T15:12:20Z</time>
      </trkpt>
      <trkpt lat="44.31351" lon="5.83013">
        <ele>564</ele>
        <time>2019-03-08T15:12:21Z</time>
      </trkpt>
      <trkpt lat="44.3135" lon="5.83018">
        <ele>565</ele>
        <time>2019-03-08T15:12:22Z</time>
      </trkpt>
      <trkpt lat="44.31349" lon="5.83024">
        <ele>565</ele>
        <time>2019-03-08T15:12:23Z</time>
      </trkpt>
      <trkpt lat="44.31348" lon="5.8303">
        <ele>565</ele>
        <time>2019-03-08T15:12:24Z</time>
      </trkpt>
      <trkpt lat="44.31347" lon="5.83035">
        <ele>565</ele>
        <time>2019-03-08T15:12:25Z</time>
      </trkpt>
      <trkpt lat="44.31346" lon="5.83041">
        <ele>565</ele>
        <time>2019-03-08T15:12:26Z</time>
      </trkpt>
      <trkpt lat="44.31345" lon="5.83047">
        <ele>565</ele>
        <time>2019-03-08T15:12:27Z</time>
      </trkpt>
      <trkpt lat="44.31344" lon="5.83052">
        <ele>565</ele>
        <time>2019-03-08T15:12:28Z</time>
      </trkpt>
      <trkpt lat="44.31343" lon="5.83059">
        <ele>565</ele>
        <time>2019-03-08T15:12:29Z</time>
      </trkpt>
      <trkpt lat="44.31343" lon="5.83064">
        <ele>566</ele>
        <time>2019-03-08T15:12:30Z</time>
      </trkpt>
      <trkpt lat="44.31342" lon="5.8307">
        <ele>566</ele>
        <time>2019-03-08T15:12:31Z</time>
      </trkpt>
      <trkpt lat="44.31342" lon="5.83076">
        <ele>566</ele>
        <time>2019-03-08T15:12:32Z</time>
      </trkpt>
      <trkpt lat="44.31342" lon="5.83082">
        <ele>566</ele>
        <time>2019-03-08T15:12:33Z</time>
      </trkpt>
      <trkpt lat="44.31341" lon="5.83087">
        <ele>566</ele>
        <time>2019-03-08T15:12:34Z</time>
      </trkpt>
      <trkpt lat="44.31342" lon="5.83093">
        <ele>566</ele>
        <time>2019-03-08T15:12:35Z</time>
      </trkpt>
      <trkpt lat="44.31342" lon="5.83098">
        <ele>566</ele>
        <time>2019-03-08T15:12:36Z</time>
      </trkpt>
      <trkpt lat="44.31343" lon="5.83102">
        <ele>566</ele>
        <time>2019-03-08T15:12:37Z</time>
      </trkpt>
      <trkpt lat="44.31346" lon="5.83105">
        <ele>566</ele>
        <time>2019-03-08T15:12:38Z</time>
      </trkpt>
      <trkpt lat="44.3135" lon="5.83106">
        <ele>566</ele>
        <time>2019-03-08T15:12:39Z</time>
      </trkpt>
      <trkpt lat="44.31353" lon="5.83106">
        <ele>566</ele>
        <time>2019-03-08T15:12:40Z</time>
      </trkpt>
      <trkpt lat="44.31356" lon="5.83103">
        <ele>566</ele>
        <time>2019-03-08T15:12:41Z</time>
      </trkpt>
      <trkpt lat="44.31358" lon="5.83099">
        <ele>566</ele>
        <time>2019-03-08T15:12:42Z</time>
      </trkpt>
      <trkpt lat="44.3136" lon="5.83095">
        <ele>566</ele>
        <time>2019-03-08T15:12:43Z</time>
      </trkpt>
      <trkpt lat="44.31362" lon="5.83089">
        <ele>566</ele>
        <time>2019-03-08T15:12:44Z</time>
      </trkpt>
      <trkpt lat="44.31364" lon="5.83085">
        <ele>566</ele>
        <time>2019-03-08T15:12:45Z</time>
      </trkpt>
      <trkpt lat="44.31366" lon="5.83081">
        <ele>566</ele>
        <time>2019-03-08T15:12:46Z</time>
      </trkpt>
      <trkpt lat="44.31368" lon="5.83078">
        <ele>566</ele>
        <time>2019-03-08T15:12:47Z</time>
      </trkpt>
      <trkpt lat="44.3137" lon="5.83074">
        <ele>566</ele>
        <time>2019-03-08T15:12:48Z</time>
      </trkpt>
      <trkpt lat="44.31372" lon="5.83069">
        <ele>566</ele>
        <time>2019-03-08T15:12:49Z</time>
      </trkpt>
      <trkpt lat="44.31374" lon="5.83064">
        <ele>566</ele>
        <time>2019-03-08T15:12:50Z</time>
      </trkpt>
      <trkpt lat="44.31376" lon="5.8306">
        <ele>566</ele>
        <time>2019-03-08T15:12:51Z</time>
      </trkpt>
      <trkpt lat="44.31377" lon="5.83055">
        <ele>566</ele>
        <time>2019-03-08T15:12:52Z</time>
      </trkpt>
      <trkpt lat="44.3138" lon="5.8305">
        <ele>566</ele>
        <time>2019-03-08T15:12:53Z</time>
      </trkpt>
      <trkpt lat="44.31384" lon="5.83046">
        <ele>566</ele>
        <time>2019-03-08T15:12:54Z</time>
      </trkpt>
      <trkpt lat="44.31387" lon="5.83041">
        <ele>566</ele>
        <time>2019-03-08T15:12:55Z</time>
      </trkpt>
      <trkpt lat="44.3139" lon="5.83037">
        <ele>566</ele>
        <time>2019-03-08T15:12:56Z</time>
      </trkpt>
      <trkpt lat="44.31393" lon="5.83032">
        <ele>566</ele>
        <time>2019-03-08T15:12:57Z</time>
      </trkpt>
      <trkpt lat="44.31397" lon="5.83027">
        <ele>566</ele>
        <time>2019-03-08T15:12:58Z</time>
      </trkpt>
      <trkpt lat="44.314" lon="5.83022">
        <ele>566</ele>
        <time>2019-03-08T15:12:59Z</time>
      </trkpt>
      <trkpt lat="44.31404" lon="5.83017">
        <ele>566</ele>
        <time>2019-03-08T15:13:00Z</time>
      </trkpt>
      <trkpt lat="44.31407" lon="5.83012">
        <ele>566</ele>
        <time>2019-03-08T15:13:01Z</time>
      </trkpt>
      <trkpt lat="44.31411" lon="5.83007">
        <ele>566</ele>
        <time>2019-03-08T15:13:02Z</time>
      </trkpt>
      <trkpt lat="44.31414" lon="5.83003">
        <ele>566</ele>
        <time>2019-03-08T15:13:03Z</time>
      </trkpt>
      <trkpt lat="44.31417" lon="5.82998">
        <ele>566</ele>
        <time>2019-03-08T15:13:04Z</time>
      </trkpt>
      <trkpt lat="44.3142" lon="5.82994">
        <ele>566</ele>
        <time>2019-03-08T15:13:05Z</time>
      </trkpt>
      <trkpt lat="44.31423" lon="5.82989">
        <ele>566</ele>
        <time>2019-03-08T15:13:06Z</time>
      </trkpt>
      <trkpt lat="44.31427" lon="5.82985">
        <ele>566</ele>
        <time>2019-03-08T15:13:07Z</time>
      </trkpt>
      <trkpt lat="44.3143" lon="5.8298">
        <ele>566</ele>
        <time>2019-03-08T15:13:08Z</time>
      </trkpt>
      <trkpt lat="44.31433" lon="5.82976">
        <ele>566</ele>
        <time>2019-03-08T15:13:09Z</time>
      </trkpt>
      <trkpt lat="44.31436" lon="5.82972">
        <ele>566</ele>
        <time>2019-03-08T15:13:10Z</time>
      </trkpt>
      <trkpt lat="44.31438" lon="5.82967">
        <ele>566</ele>
        <time>2019-03-08T15:13:11Z</time>
      </trkpt>
      <trkpt lat="44.31441" lon="5.82962">
        <ele>566</ele>
        <time>2019-03-08T15:13:12Z</time>
      </trkpt>
      <trkpt lat="44.31445" lon="5.82958">
        <ele>566</ele>
        <time>2019-03-08T15:13:13Z</time>
      </trkpt>
      <trkpt lat="44.31448" lon="5.82954">
        <ele>566</ele>
        <time>2019-03-08T15:13:14Z</time>
      </trkpt>
      <trkpt lat="44.31451" lon="5.82949">
        <ele>566</ele>
        <time>2019-03-08T15:13:15Z</time>
      </trkpt>
      <trkpt lat="44.31454" lon="5.82945">
        <ele>566</ele>
        <time>2019-03-08T15:13:16Z</time>
      </trkpt>
      <trkpt lat="44.31457" lon="5.82941">
        <ele>566</ele>
        <time>2019-03-08T15:13:17Z</time>
      </trkpt>
      <trkpt lat="44.3146" lon="5.82937">
        <ele>566</ele>
        <time>2019-03-08T15:13:18Z</time>
      </trkpt>
      <trkpt lat="44.31462" lon="5.82933">
        <ele>566</ele>
        <time>2019-03-08T15:13:19Z</time>
      </trkpt>
      <trkpt lat="44.31465" lon="5.82929">
        <ele>566</ele>
        <time>2019-03-08T15:13:20Z</time>
      </trkpt>
      <trkpt lat="44.31467" lon="5.82925">
        <ele>566</ele>
        <time>2019-03-08T15:13:21Z</time>
      </trkpt>
      <trkpt lat="44.31469" lon="5.82921">
        <ele>566</ele>
        <time>2019-03-08T15:13:22Z</time>
      </trkpt>
      <trkpt lat="44.31472" lon="5.82918">
        <ele>565</ele>
        <time>2019-03-08T15:13:23Z</time>
      </trkpt>
      <trkpt lat="44.31474" lon="5.82914">
        <ele>565</ele>
        <time>2019-03-08T15:13:24Z</time>
      </trkpt>
      <trkpt lat="44.31477" lon="5.8291">
        <ele>565</ele>
        <time>2019-03-08T15:13:25Z</time>
      </trkpt>
      <trkpt lat="44.3148" lon="5.82906">
        <ele>564</ele>
        <time>2019-03-08T15:13:26Z</time>
      </trkpt>
      <trkpt lat="44.31483" lon="5.82902">
        <ele>563</ele>
        <time>2019-03-08T15:13:27Z</time>
      </trkpt>
      <trkpt lat="44.31485" lon="5.82899">
        <ele>563</ele>
        <time>2019-03-08T15:13:28Z</time>
      </trkpt>
      <trkpt lat="44.31488" lon="5.82895">
        <ele>562</ele>
        <time>2019-03-08T15:13:29Z</time>
      </trkpt>
      <trkpt lat="44.3149" lon="5.82891">
        <ele>562</ele>
        <time>2019-03-08T15:13:30Z</time>
      </trkpt>
      <trkpt lat="44.31493" lon="5.82887">
        <ele>562</ele>
        <time>2019-03-08T15:13:31Z</time>
      </trkpt>
      <trkpt lat="44.31495" lon="5.82882">
        <ele>562</ele>
        <time>2019-03-08T15:13:32Z</time>
      </trkpt>
      <trkpt lat="44.31498" lon="5.82879">
        <ele>562</ele>
        <time>2019-03-08T15:13:33Z</time>
      </trkpt>
      <trkpt lat="44.31502" lon="5.82876">
        <ele>562</ele>
        <time>2019-03-08T15:13:34Z</time>
      </trkpt>
      <trkpt lat="44.31505" lon="5.82874">
        <ele>562</ele>
        <time>2019-03-08T15:13:35Z</time>
      </trkpt>
      <trkpt lat="44.31509" lon="5.82875">
        <ele>562</ele>
        <time>2019-03-08T15:13:36Z</time>
      </trkpt>
      <trkpt lat="44.31512" lon="5.82877">
        <ele>562</ele>
        <time>2019-03-08T15:13:37Z</time>
      </trkpt>
      <trkpt lat="44.31515" lon="5.82879">
        <ele>562</ele>
        <time>2019-03-08T15:13:38Z</time>
      </trkpt>
      <trkpt lat="44.31518" lon="5.82881">
        <ele>562</ele>
        <time>2019-03-08T15:13:39Z</time>
      </trkpt>
      <trkpt lat="44.3152" lon="5.82884">
        <ele>562</ele>
        <time>2019-03-08T15:13:40Z</time>
      </trkpt>
      <trkpt lat="44.31523" lon="5.82888">
        <ele>562</ele>
        <time>2019-03-08T15:13:41Z</time>
      </trkpt>
      <trkpt lat="44.31525" lon="5.82891">
        <ele>562</ele>
        <time>2019-03-08T15:13:42Z</time>
      </trkpt>
      <trkpt lat="44.31528" lon="5.82893">
        <ele>562</ele>
        <time>2019-03-08T15:13:43Z</time>
      </trkpt>
      <trkpt lat="44.31531" lon="5.82896">
        <ele>562</ele>
        <time>2019-03-08T15:13:44Z</time>
      </trkpt>
      <trkpt lat="44.31533" lon="5.82898">
        <ele>562</ele>
        <time>2019-03-08T15:13:45Z</time>
      </trkpt>
      <trkpt lat="44.31536" lon="5.82901">
        <ele>562</ele>
        <time>2019-03-08T15:13:46Z</time>
      </trkpt>
      <trkpt lat="44.31539" lon="5.82903">
        <ele>562</ele>
        <time>2019-03-08T15:13:47Z</time>
      </trkpt>
      <trkpt lat="44.31542" lon="5.82906">
        <ele>562</ele>
        <time>2019-03-08T15:13:48Z</time>
      </trkpt>
      <trkpt lat="44.31545" lon="5.82909">
        <ele>562</ele>
        <time>2019-03-08T15:13:49Z</time>
      </trkpt>
      <trkpt lat="44.31548" lon="5.82911">
        <ele>562</ele>
        <time>2019-03-08T15:13:50Z</time>
      </trkpt>
      <trkpt lat="44.31551" lon="5.82914">
        <ele>562</ele>
        <time>2019-03-08T15:13:51Z</time>
      </trkpt>
      <trkpt lat="44.31554" lon="5.82916">
        <ele>562</ele>
        <time>2019-03-08T15:13:52Z</time>
      </trkpt>
      <trkpt lat="44.31556" lon="5.82917">
        <ele>562</ele>
        <time>2019-03-08T15:13:53Z</time>
      </trkpt>
      <trkpt lat="44.31559" lon="5.82919">
        <ele>562</ele>
        <time>2019-03-08T15:13:54Z</time>
      </trkpt>
      <trkpt lat="44.31562" lon="5.82921">
        <ele>562</ele>
        <time>2019-03-08T15:13:55Z</time>
      </trkpt>
      <trkpt lat="44.31565" lon="5.82923">
        <ele>562</ele>
        <time>2019-03-08T15:13:56Z</time>
      </trkpt>
      <trkpt lat="44.31568" lon="5.82924">
        <ele>562</ele>
        <time>2019-03-08T15:13:57Z</time>
      </trkpt>
      <trkpt lat="44.31571" lon="5.82926">
        <ele>562</ele>
        <time>2019-03-08T15:13:58Z</time>
      </trkpt>
      <trkpt lat="44.31573" lon="5.82928">
        <ele>562</ele>
        <time>2019-03-08T15:13:59Z</time>
      </trkpt>
      <trkpt lat="44.31576" lon="5.8293">
        <ele>562</ele>
        <time>2019-03-08T15:14:00Z</time>
      </trkpt>
      <trkpt lat="44.31579" lon="5.82932">
        <ele>562</ele>
        <time>2019-03-08T15:14:01Z</time>
      </trkpt>
      <trkpt lat="44.31581" lon="5.82933">
        <ele>562</ele>
        <time>2019-03-08T15:14:02Z</time>
      </trkpt>
      <trkpt lat="44.31584" lon="5.82935">
        <ele>562</ele>
        <time>2019-03-08T15:14:03Z</time>
      </trkpt>
      <trkpt lat="44.31586" lon="5.82937">
        <ele>562</ele>
        <time>2019-03-08T15:14:04Z</time>
      </trkpt>
      <trkpt lat="44.31589" lon="5.82939">
        <ele>562</ele>
        <time>2019-03-08T15:14:05Z</time>
      </trkpt>
      <trkpt lat="44.31591" lon="5.8294">
        <ele>562</ele>
        <time>2019-03-08T15:14:06Z</time>
      </trkpt>
      <trkpt lat="44.31593" lon="5.82941">
        <ele>562</ele>
        <time>2019-03-08T15:14:07Z</time>
      </trkpt>
      <trkpt lat="44.31595" lon="5.82942">
        <ele>563</ele>
        <time>2019-03-08T15:14:08Z</time>
      </trkpt>
      <trkpt lat="44.31596" lon="5.82943">
        <ele>563</ele>
        <time>2019-03-08T15:14:09Z</time>
      </trkpt>
      <trkpt lat="44.31598" lon="5.82944">
        <ele>563</ele>
        <time>2019-03-08T15:14:10Z</time>
      </trkpt>
      <trkpt lat="44.31599" lon="5.82945">
        <ele>563</ele>
        <time>2019-03-08T15:14:12Z</time>
      </trkpt>
      <trkpt lat="44.31599" lon="5.82945">
        <ele>565</ele>
        <time>2019-03-08T15:14:23Z</time>
      </trkpt>
    </trkseg>
  </trk>
</gpx>